<?xml version="1.0" encoding="UTF-8" standalone="no" ?>
<gpx xmlns="http://www.topografix.com/GPX/1/1" xmlns:xsi="http://www.w3.org/2001/XMLSchema-instance" xsi:schemaLocation="http://www.topografix.com/GPX/1/1 http://www.topografix.com/GPX/1/1/gpx.xsd" version="1.1" creator="VisuGPX - https://www.visugpx.com">
  <metadata>
    <name>La Colline de Fresse</name>
  </metadata>
  <trk>
    <name><![CDATA[Le Menil Vélo]]></name>
    <extensions>
      <line xmlns="http://www.topografix.com/GPX/gpx_style/0/2">
        <color>0000FF</color>
        <width>4</width>
      </line>
    </extensions>
    <trkseg>
      <trkpt lat="47.87568" lon="6.76812">
        <ele>492.9</ele>
        <time>2022-09-13T12:17:56Z</time>
      </trkpt>
      <trkpt lat="47.87569" lon="6.76813">
        <ele>492.9</ele>
        <time>2022-09-13T12:17:58Z</time>
      </trkpt>
      <trkpt lat="47.87569" lon="6.76814">
        <ele>493</ele>
        <time>2022-09-13T12:17:59Z</time>
      </trkpt>
      <trkpt lat="47.87569" lon="6.76816">
        <ele>493.1</ele>
        <time>2022-09-13T12:18:00Z</time>
      </trkpt>
      <trkpt lat="47.87569" lon="6.76817">
        <ele>493.1</ele>
        <time>2022-09-13T12:18:01Z</time>
      </trkpt>
      <trkpt lat="47.8757" lon="6.76818">
        <ele>493.1</ele>
        <time>2022-09-13T12:18:02Z</time>
      </trkpt>
      <trkpt lat="47.8757" lon="6.7682">
        <ele>493.2</ele>
        <time>2022-09-13T12:18:03Z</time>
      </trkpt>
      <trkpt lat="47.8757" lon="6.76821">
        <ele>493.3</ele>
        <time>2022-09-13T12:18:04Z</time>
      </trkpt>
      <trkpt lat="47.8757" lon="6.76822">
        <ele>493.4</ele>
        <time>2022-09-13T12:18:05Z</time>
      </trkpt>
      <trkpt lat="47.8757" lon="6.76823">
        <ele>493.4</ele>
        <time>2022-09-13T12:18:06Z</time>
      </trkpt>
      <trkpt lat="47.8757" lon="6.76824">
        <ele>493.5</ele>
        <time>2022-09-13T12:18:07Z</time>
      </trkpt>
      <trkpt lat="47.8757" lon="6.76825">
        <ele>493.5</ele>
        <time>2022-09-13T12:18:08Z</time>
      </trkpt>
      <trkpt lat="47.8757" lon="6.76826">
        <ele>493.6</ele>
        <time>2022-09-13T12:18:09Z</time>
      </trkpt>
      <trkpt lat="47.8757" lon="6.76827">
        <ele>493.6</ele>
        <time>2022-09-13T12:18:10Z</time>
      </trkpt>
      <trkpt lat="47.8757" lon="6.76828">
        <ele>493.7</ele>
        <time>2022-09-13T12:18:12Z</time>
      </trkpt>
      <trkpt lat="47.8757" lon="6.76829">
        <ele>493.7</ele>
        <time>2022-09-13T12:18:13Z</time>
      </trkpt>
      <trkpt lat="47.87569" lon="6.7683">
        <ele>493.9</ele>
        <time>2022-09-13T12:18:14Z</time>
      </trkpt>
      <trkpt lat="47.87568" lon="6.76832">
        <ele>494</ele>
        <time>2022-09-13T12:18:15Z</time>
      </trkpt>
      <trkpt lat="47.87568" lon="6.76833">
        <ele>494.1</ele>
        <time>2022-09-13T12:18:16Z</time>
      </trkpt>
      <trkpt lat="47.87567" lon="6.76834">
        <ele>494.2</ele>
        <time>2022-09-13T12:18:17Z</time>
      </trkpt>
      <trkpt lat="47.87566" lon="6.76834">
        <ele>494.3</ele>
        <time>2022-09-13T12:18:18Z</time>
      </trkpt>
      <trkpt lat="47.87566" lon="6.76835">
        <ele>494.3</ele>
        <time>2022-09-13T12:18:19Z</time>
      </trkpt>
      <trkpt lat="47.87565" lon="6.76835">
        <ele>494.4</ele>
        <time>2022-09-13T12:18:20Z</time>
      </trkpt>
      <trkpt lat="47.87565" lon="6.76834">
        <ele>494.3</ele>
        <time>2022-09-13T12:18:21Z</time>
      </trkpt>
      <trkpt lat="47.87564" lon="6.76834">
        <ele>494.4</ele>
        <time>2022-09-13T12:18:22Z</time>
      </trkpt>
      <trkpt lat="47.87563" lon="6.76833">
        <ele>494.4</ele>
        <time>2022-09-13T12:18:28Z</time>
      </trkpt>
      <trkpt lat="47.87562" lon="6.76833">
        <ele>494.5</ele>
        <time>2022-09-13T12:18:30Z</time>
      </trkpt>
      <trkpt lat="47.87562" lon="6.76834">
        <ele>494.6</ele>
        <time>2022-09-13T12:18:31Z</time>
      </trkpt>
      <trkpt lat="47.87562" lon="6.76833">
        <ele>494.5</ele>
        <time>2022-09-13T12:18:36Z</time>
      </trkpt>
      <trkpt lat="47.87563" lon="6.76833">
        <ele>494.4</ele>
        <time>2022-09-13T12:18:37Z</time>
      </trkpt>
      <trkpt lat="47.87564" lon="6.76832">
        <ele>494.3</ele>
        <time>2022-09-13T12:18:38Z</time>
      </trkpt>
      <trkpt lat="47.87565" lon="6.76831">
        <ele>494.2</ele>
        <time>2022-09-13T12:18:39Z</time>
      </trkpt>
      <trkpt lat="47.87566" lon="6.76831">
        <ele>494.1</ele>
        <time>2022-09-13T12:18:40Z</time>
      </trkpt>
      <trkpt lat="47.87567" lon="6.7683">
        <ele>494</ele>
        <time>2022-09-13T12:18:41Z</time>
      </trkpt>
      <trkpt lat="47.87568" lon="6.76829">
        <ele>493.9</ele>
        <time>2022-09-13T12:18:42Z</time>
      </trkpt>
      <trkpt lat="47.87569" lon="6.76828">
        <ele>493.7</ele>
        <time>2022-09-13T12:18:43Z</time>
      </trkpt>
      <trkpt lat="47.87569" lon="6.76828">
        <ele>493.7</ele>
        <time>2022-09-13T12:18:51Z</time>
      </trkpt>
      <trkpt lat="47.87568" lon="6.76828">
        <ele>493.8</ele>
        <time>2022-09-13T12:18:53Z</time>
      </trkpt>
      <trkpt lat="47.87567" lon="6.76828">
        <ele>493.9</ele>
        <time>2022-09-13T12:18:55Z</time>
      </trkpt>
      <trkpt lat="47.87566" lon="6.76828">
        <ele>493.9</ele>
        <time>2022-09-13T12:18:56Z</time>
      </trkpt>
      <trkpt lat="47.87565" lon="6.76828">
        <ele>494</ele>
        <time>2022-09-13T12:18:57Z</time>
      </trkpt>
      <trkpt lat="47.87564" lon="6.76828">
        <ele>494.1</ele>
        <time>2022-09-13T12:18:58Z</time>
      </trkpt>
      <trkpt lat="47.87563" lon="6.76828">
        <ele>494.1</ele>
        <time>2022-09-13T12:18:59Z</time>
      </trkpt>
      <trkpt lat="47.87562" lon="6.76828">
        <ele>494.2</ele>
        <time>2022-09-13T12:19:00Z</time>
      </trkpt>
      <trkpt lat="47.87561" lon="6.76828">
        <ele>494.3</ele>
        <time>2022-09-13T12:19:01Z</time>
      </trkpt>
      <trkpt lat="47.87561" lon="6.76829">
        <ele>494.3</ele>
        <time>2022-09-13T12:19:02Z</time>
      </trkpt>
      <trkpt lat="47.8756" lon="6.76829">
        <ele>494.4</ele>
        <time>2022-09-13T12:19:03Z</time>
      </trkpt>
      <trkpt lat="47.8756" lon="6.7683">
        <ele>494.5</ele>
        <time>2022-09-13T12:19:04Z</time>
      </trkpt>
      <trkpt lat="47.87559" lon="6.76831">
        <ele>494.6</ele>
        <time>2022-09-13T12:19:06Z</time>
      </trkpt>
      <trkpt lat="47.87559" lon="6.76832">
        <ele>494.7</ele>
        <time>2022-09-13T12:19:07Z</time>
      </trkpt>
      <trkpt lat="47.87559" lon="6.76833">
        <ele>494.7</ele>
        <time>2022-09-13T12:19:08Z</time>
      </trkpt>
      <trkpt lat="47.87559" lon="6.76834">
        <ele>494.8</ele>
        <time>2022-09-13T12:19:09Z</time>
      </trkpt>
      <trkpt lat="47.87559" lon="6.76835">
        <ele>494.8</ele>
        <time>2022-09-13T12:19:10Z</time>
      </trkpt>
      <trkpt lat="47.87559" lon="6.76836">
        <ele>494.8</ele>
        <time>2022-09-13T12:19:11Z</time>
      </trkpt>
      <trkpt lat="47.87559" lon="6.76837">
        <ele>494.9</ele>
        <time>2022-09-13T12:19:12Z</time>
      </trkpt>
      <trkpt lat="47.87558" lon="6.76839">
        <ele>495</ele>
        <time>2022-09-13T12:19:13Z</time>
      </trkpt>
      <trkpt lat="47.87558" lon="6.7684">
        <ele>495</ele>
        <time>2022-09-13T12:19:14Z</time>
      </trkpt>
      <trkpt lat="47.87558" lon="6.76842">
        <ele>495.1</ele>
        <time>2022-09-13T12:19:15Z</time>
      </trkpt>
      <trkpt lat="47.87558" lon="6.76844">
        <ele>495.2</ele>
        <time>2022-09-13T12:19:16Z</time>
      </trkpt>
      <trkpt lat="47.87557" lon="6.76845">
        <ele>495.3</ele>
        <time>2022-09-13T12:19:17Z</time>
      </trkpt>
      <trkpt lat="47.87557" lon="6.76847">
        <ele>495.4</ele>
        <time>2022-09-13T12:19:18Z</time>
      </trkpt>
      <trkpt lat="47.87557" lon="6.76848">
        <ele>495.4</ele>
        <time>2022-09-13T12:19:19Z</time>
      </trkpt>
      <trkpt lat="47.87556" lon="6.7685">
        <ele>495.6</ele>
        <time>2022-09-13T12:19:20Z</time>
      </trkpt>
      <trkpt lat="47.87556" lon="6.76852">
        <ele>495.6</ele>
        <time>2022-09-13T12:19:21Z</time>
      </trkpt>
      <trkpt lat="47.87556" lon="6.76853">
        <ele>495.7</ele>
        <time>2022-09-13T12:19:22Z</time>
      </trkpt>
      <trkpt lat="47.87555" lon="6.76855">
        <ele>495.8</ele>
        <time>2022-09-13T12:19:23Z</time>
      </trkpt>
      <trkpt lat="47.87555" lon="6.76857">
        <ele>495.9</ele>
        <time>2022-09-13T12:19:24Z</time>
      </trkpt>
      <trkpt lat="47.87554" lon="6.76859">
        <ele>496</ele>
        <time>2022-09-13T12:19:25Z</time>
      </trkpt>
      <trkpt lat="47.87554" lon="6.76861">
        <ele>496.1</ele>
        <time>2022-09-13T12:19:26Z</time>
      </trkpt>
      <trkpt lat="47.87553" lon="6.76862">
        <ele>496.1</ele>
        <time>2022-09-13T12:19:27Z</time>
      </trkpt>
      <trkpt lat="47.87553" lon="6.76864">
        <ele>496.1</ele>
        <time>2022-09-13T12:19:28Z</time>
      </trkpt>
      <trkpt lat="47.87553" lon="6.76865">
        <ele>496.1</ele>
        <time>2022-09-13T12:19:29Z</time>
      </trkpt>
      <trkpt lat="47.87552" lon="6.76867">
        <ele>496.1</ele>
        <time>2022-09-13T12:19:30Z</time>
      </trkpt>
      <trkpt lat="47.87552" lon="6.76868">
        <ele>496.1</ele>
        <time>2022-09-13T12:19:31Z</time>
      </trkpt>
      <trkpt lat="47.87551" lon="6.76869">
        <ele>496.2</ele>
        <time>2022-09-13T12:19:32Z</time>
      </trkpt>
      <trkpt lat="47.87551" lon="6.7687">
        <ele>496.2</ele>
        <time>2022-09-13T12:19:33Z</time>
      </trkpt>
      <trkpt lat="47.8755" lon="6.76871">
        <ele>496.2</ele>
        <time>2022-09-13T12:19:34Z</time>
      </trkpt>
      <trkpt lat="47.8755" lon="6.76872">
        <ele>496.2</ele>
        <time>2022-09-13T12:19:35Z</time>
      </trkpt>
      <trkpt lat="47.8755" lon="6.76873">
        <ele>496.2</ele>
        <time>2022-09-13T12:19:36Z</time>
      </trkpt>
      <trkpt lat="47.87549" lon="6.76873">
        <ele>496.2</ele>
        <time>2022-09-13T12:19:37Z</time>
      </trkpt>
      <trkpt lat="47.87549" lon="6.76874">
        <ele>496.2</ele>
        <time>2022-09-13T12:19:38Z</time>
      </trkpt>
      <trkpt lat="47.87548" lon="6.76875">
        <ele>496.3</ele>
        <time>2022-09-13T12:19:41Z</time>
      </trkpt>
      <trkpt lat="47.87548" lon="6.76876">
        <ele>496.3</ele>
        <time>2022-09-13T12:19:42Z</time>
      </trkpt>
      <trkpt lat="47.87547" lon="6.76877">
        <ele>496.3</ele>
        <time>2022-09-13T12:19:43Z</time>
      </trkpt>
      <trkpt lat="47.87547" lon="6.76878">
        <ele>496.3</ele>
        <time>2022-09-13T12:19:44Z</time>
      </trkpt>
      <trkpt lat="47.87546" lon="6.76879">
        <ele>496.3</ele>
        <time>2022-09-13T12:19:45Z</time>
      </trkpt>
      <trkpt lat="47.87546" lon="6.76881">
        <ele>496.3</ele>
        <time>2022-09-13T12:19:46Z</time>
      </trkpt>
      <trkpt lat="47.87545" lon="6.76883">
        <ele>496.4</ele>
        <time>2022-09-13T12:19:47Z</time>
      </trkpt>
      <trkpt lat="47.87544" lon="6.76887">
        <ele>496.4</ele>
        <time>2022-09-13T12:19:48Z</time>
      </trkpt>
      <trkpt lat="47.87543" lon="6.7689">
        <ele>496.5</ele>
        <time>2022-09-13T12:19:49Z</time>
      </trkpt>
      <trkpt lat="47.87542" lon="6.76894">
        <ele>496.6</ele>
        <time>2022-09-13T12:19:50Z</time>
      </trkpt>
      <trkpt lat="47.87542" lon="6.76898">
        <ele>496.7</ele>
        <time>2022-09-13T12:19:51Z</time>
      </trkpt>
      <trkpt lat="47.87541" lon="6.76901">
        <ele>496.7</ele>
        <time>2022-09-13T12:19:52Z</time>
      </trkpt>
      <trkpt lat="47.8754" lon="6.76905">
        <ele>496.8</ele>
        <time>2022-09-13T12:19:53Z</time>
      </trkpt>
      <trkpt lat="47.8754" lon="6.76908">
        <ele>496.9</ele>
        <time>2022-09-13T12:19:54Z</time>
      </trkpt>
      <trkpt lat="47.8754" lon="6.76911">
        <ele>496.9</ele>
        <time>2022-09-13T12:19:55Z</time>
      </trkpt>
      <trkpt lat="47.87539" lon="6.76915">
        <ele>497</ele>
        <time>2022-09-13T12:19:56Z</time>
      </trkpt>
      <trkpt lat="47.87539" lon="6.76918">
        <ele>497</ele>
        <time>2022-09-13T12:19:57Z</time>
      </trkpt>
      <trkpt lat="47.87538" lon="6.76921">
        <ele>497.1</ele>
        <time>2022-09-13T12:19:58Z</time>
      </trkpt>
      <trkpt lat="47.87537" lon="6.76925">
        <ele>497.2</ele>
        <time>2022-09-13T12:19:59Z</time>
      </trkpt>
      <trkpt lat="47.87536" lon="6.76928">
        <ele>497.3</ele>
        <time>2022-09-13T12:20:00Z</time>
      </trkpt>
      <trkpt lat="47.87535" lon="6.7693">
        <ele>497.4</ele>
        <time>2022-09-13T12:20:01Z</time>
      </trkpt>
      <trkpt lat="47.87533" lon="6.76933">
        <ele>497.5</ele>
        <time>2022-09-13T12:20:02Z</time>
      </trkpt>
      <trkpt lat="47.87532" lon="6.76935">
        <ele>497.6</ele>
        <time>2022-09-13T12:20:03Z</time>
      </trkpt>
      <trkpt lat="47.87531" lon="6.76938">
        <ele>497.7</ele>
        <time>2022-09-13T12:20:04Z</time>
      </trkpt>
      <trkpt lat="47.87529" lon="6.7694">
        <ele>497.8</ele>
        <time>2022-09-13T12:20:05Z</time>
      </trkpt>
      <trkpt lat="47.87528" lon="6.76942">
        <ele>497.9</ele>
        <time>2022-09-13T12:20:06Z</time>
      </trkpt>
      <trkpt lat="47.87527" lon="6.76944">
        <ele>498</ele>
        <time>2022-09-13T12:20:07Z</time>
      </trkpt>
      <trkpt lat="47.87527" lon="6.76946">
        <ele>498</ele>
        <time>2022-09-13T12:20:08Z</time>
      </trkpt>
      <trkpt lat="47.87526" lon="6.76949">
        <ele>498</ele>
        <time>2022-09-13T12:20:09Z</time>
      </trkpt>
      <trkpt lat="47.87526" lon="6.76952">
        <ele>498</ele>
        <time>2022-09-13T12:20:10Z</time>
      </trkpt>
      <trkpt lat="47.87526" lon="6.76955">
        <ele>498</ele>
        <time>2022-09-13T12:20:11Z</time>
      </trkpt>
      <trkpt lat="47.87525" lon="6.76958">
        <ele>498</ele>
        <time>2022-09-13T12:20:12Z</time>
      </trkpt>
      <trkpt lat="47.87525" lon="6.76961">
        <ele>498.1</ele>
        <time>2022-09-13T12:20:13Z</time>
      </trkpt>
      <trkpt lat="47.87525" lon="6.76965">
        <ele>498.1</ele>
        <time>2022-09-13T12:20:14Z</time>
      </trkpt>
      <trkpt lat="47.87525" lon="6.76968">
        <ele>498.1</ele>
        <time>2022-09-13T12:20:15Z</time>
      </trkpt>
      <trkpt lat="47.87525" lon="6.76972">
        <ele>498.1</ele>
        <time>2022-09-13T12:20:16Z</time>
      </trkpt>
      <trkpt lat="47.87526" lon="6.76976">
        <ele>498.1</ele>
        <time>2022-09-13T12:20:17Z</time>
      </trkpt>
      <trkpt lat="47.87526" lon="6.76983">
        <ele>498.1</ele>
        <time>2022-09-13T12:20:18Z</time>
      </trkpt>
      <trkpt lat="47.87526" lon="6.76987">
        <ele>498.1</ele>
        <time>2022-09-13T12:20:19Z</time>
      </trkpt>
      <trkpt lat="47.87526" lon="6.76991">
        <ele>498.1</ele>
        <time>2022-09-13T12:20:20Z</time>
      </trkpt>
      <trkpt lat="47.87527" lon="6.76996">
        <ele>498</ele>
        <time>2022-09-13T12:20:21Z</time>
      </trkpt>
      <trkpt lat="47.87527" lon="6.77">
        <ele>498</ele>
        <time>2022-09-13T12:20:22Z</time>
      </trkpt>
      <trkpt lat="47.87527" lon="6.77004">
        <ele>498</ele>
        <time>2022-09-13T12:20:23Z</time>
      </trkpt>
      <trkpt lat="47.87527" lon="6.77009">
        <ele>498</ele>
        <time>2022-09-13T12:20:24Z</time>
      </trkpt>
      <trkpt lat="47.87528" lon="6.77014">
        <ele>498</ele>
        <time>2022-09-13T12:20:25Z</time>
      </trkpt>
      <trkpt lat="47.87528" lon="6.77018">
        <ele>498</ele>
        <time>2022-09-13T12:20:26Z</time>
      </trkpt>
      <trkpt lat="47.87528" lon="6.77022">
        <ele>498</ele>
        <time>2022-09-13T12:20:27Z</time>
      </trkpt>
      <trkpt lat="47.87528" lon="6.77027">
        <ele>498</ele>
        <time>2022-09-13T12:20:28Z</time>
      </trkpt>
      <trkpt lat="47.87528" lon="6.77031">
        <ele>498</ele>
        <time>2022-09-13T12:20:29Z</time>
      </trkpt>
      <trkpt lat="47.87528" lon="6.77035">
        <ele>498</ele>
        <time>2022-09-13T12:20:30Z</time>
      </trkpt>
      <trkpt lat="47.87528" lon="6.77039">
        <ele>498</ele>
        <time>2022-09-13T12:20:31Z</time>
      </trkpt>
      <trkpt lat="47.87529" lon="6.77044">
        <ele>498</ele>
        <time>2022-09-13T12:20:32Z</time>
      </trkpt>
      <trkpt lat="47.87529" lon="6.77048">
        <ele>498</ele>
        <time>2022-09-13T12:20:33Z</time>
      </trkpt>
      <trkpt lat="47.87529" lon="6.77052">
        <ele>498</ele>
        <time>2022-09-13T12:20:34Z</time>
      </trkpt>
      <trkpt lat="47.87529" lon="6.77056">
        <ele>498</ele>
        <time>2022-09-13T12:20:35Z</time>
      </trkpt>
      <trkpt lat="47.8753" lon="6.77061">
        <ele>498.2</ele>
        <time>2022-09-13T12:20:36Z</time>
      </trkpt>
      <trkpt lat="47.8753" lon="6.77066">
        <ele>498.3</ele>
        <time>2022-09-13T12:20:37Z</time>
      </trkpt>
      <trkpt lat="47.8753" lon="6.7707">
        <ele>498.5</ele>
        <time>2022-09-13T12:20:38Z</time>
      </trkpt>
      <trkpt lat="47.8753" lon="6.77074">
        <ele>498.6</ele>
        <time>2022-09-13T12:20:39Z</time>
      </trkpt>
      <trkpt lat="47.87531" lon="6.77078">
        <ele>498.7</ele>
        <time>2022-09-13T12:20:40Z</time>
      </trkpt>
      <trkpt lat="47.87531" lon="6.77082">
        <ele>498.8</ele>
        <time>2022-09-13T12:20:41Z</time>
      </trkpt>
      <trkpt lat="47.87531" lon="6.77087">
        <ele>498.9</ele>
        <time>2022-09-13T12:20:42Z</time>
      </trkpt>
      <trkpt lat="47.87532" lon="6.77091">
        <ele>498.9</ele>
        <time>2022-09-13T12:20:43Z</time>
      </trkpt>
      <trkpt lat="47.87532" lon="6.77096">
        <ele>498.9</ele>
        <time>2022-09-13T12:20:44Z</time>
      </trkpt>
      <trkpt lat="47.87532" lon="6.77101">
        <ele>498.9</ele>
        <time>2022-09-13T12:20:45Z</time>
      </trkpt>
      <trkpt lat="47.87532" lon="6.77105">
        <ele>499</ele>
        <time>2022-09-13T12:20:46Z</time>
      </trkpt>
      <trkpt lat="47.87532" lon="6.7711">
        <ele>499</ele>
        <time>2022-09-13T12:20:47Z</time>
      </trkpt>
      <trkpt lat="47.87533" lon="6.77115">
        <ele>499.1</ele>
        <time>2022-09-13T12:20:48Z</time>
      </trkpt>
      <trkpt lat="47.87533" lon="6.77119">
        <ele>499.2</ele>
        <time>2022-09-13T12:20:49Z</time>
      </trkpt>
      <trkpt lat="47.87533" lon="6.77123">
        <ele>499.3</ele>
        <time>2022-09-13T12:20:50Z</time>
      </trkpt>
      <trkpt lat="47.87533" lon="6.77128">
        <ele>499.5</ele>
        <time>2022-09-13T12:20:51Z</time>
      </trkpt>
      <trkpt lat="47.87534" lon="6.77133">
        <ele>499.6</ele>
        <time>2022-09-13T12:20:52Z</time>
      </trkpt>
      <trkpt lat="47.87534" lon="6.77137">
        <ele>499.7</ele>
        <time>2022-09-13T12:20:53Z</time>
      </trkpt>
      <trkpt lat="47.87534" lon="6.77142">
        <ele>499.9</ele>
        <time>2022-09-13T12:20:54Z</time>
      </trkpt>
      <trkpt lat="47.87535" lon="6.77147">
        <ele>500</ele>
        <time>2022-09-13T12:20:55Z</time>
      </trkpt>
      <trkpt lat="47.87535" lon="6.77151">
        <ele>500.2</ele>
        <time>2022-09-13T12:20:56Z</time>
      </trkpt>
      <trkpt lat="47.87535" lon="6.77156">
        <ele>500.4</ele>
        <time>2022-09-13T12:20:57Z</time>
      </trkpt>
      <trkpt lat="47.87536" lon="6.7716">
        <ele>500.5</ele>
        <time>2022-09-13T12:20:58Z</time>
      </trkpt>
      <trkpt lat="47.87536" lon="6.77165">
        <ele>500.6</ele>
        <time>2022-09-13T12:20:59Z</time>
      </trkpt>
      <trkpt lat="47.87537" lon="6.7717">
        <ele>500.8</ele>
        <time>2022-09-13T12:21:00Z</time>
      </trkpt>
      <trkpt lat="47.87537" lon="6.77174">
        <ele>500.9</ele>
        <time>2022-09-13T12:21:01Z</time>
      </trkpt>
      <trkpt lat="47.87537" lon="6.77179">
        <ele>501.1</ele>
        <time>2022-09-13T12:21:02Z</time>
      </trkpt>
      <trkpt lat="47.87537" lon="6.77183">
        <ele>501.3</ele>
        <time>2022-09-13T12:21:03Z</time>
      </trkpt>
      <trkpt lat="47.87538" lon="6.77188">
        <ele>501.4</ele>
        <time>2022-09-13T12:21:04Z</time>
      </trkpt>
      <trkpt lat="47.87538" lon="6.77192">
        <ele>501.5</ele>
        <time>2022-09-13T12:21:05Z</time>
      </trkpt>
      <trkpt lat="47.87538" lon="6.77197">
        <ele>501.7</ele>
        <time>2022-09-13T12:21:06Z</time>
      </trkpt>
      <trkpt lat="47.87539" lon="6.77202">
        <ele>501.7</ele>
        <time>2022-09-13T12:21:07Z</time>
      </trkpt>
      <trkpt lat="47.87539" lon="6.77206">
        <ele>501.8</ele>
        <time>2022-09-13T12:21:08Z</time>
      </trkpt>
      <trkpt lat="47.87539" lon="6.77211">
        <ele>501.8</ele>
        <time>2022-09-13T12:21:09Z</time>
      </trkpt>
      <trkpt lat="47.87539" lon="6.77215">
        <ele>501.9</ele>
        <time>2022-09-13T12:21:10Z</time>
      </trkpt>
      <trkpt lat="47.87539" lon="6.7722">
        <ele>502</ele>
        <time>2022-09-13T12:21:11Z</time>
      </trkpt>
      <trkpt lat="47.8754" lon="6.77224">
        <ele>502</ele>
        <time>2022-09-13T12:21:12Z</time>
      </trkpt>
      <trkpt lat="47.8754" lon="6.77229">
        <ele>502</ele>
        <time>2022-09-13T12:21:13Z</time>
      </trkpt>
      <trkpt lat="47.8754" lon="6.77234">
        <ele>502</ele>
        <time>2022-09-13T12:21:14Z</time>
      </trkpt>
      <trkpt lat="47.8754" lon="6.77238">
        <ele>502</ele>
        <time>2022-09-13T12:21:15Z</time>
      </trkpt>
      <trkpt lat="47.8754" lon="6.77243">
        <ele>502</ele>
        <time>2022-09-13T12:21:16Z</time>
      </trkpt>
      <trkpt lat="47.87541" lon="6.77248">
        <ele>502</ele>
        <time>2022-09-13T12:21:17Z</time>
      </trkpt>
      <trkpt lat="47.87541" lon="6.77252">
        <ele>502</ele>
        <time>2022-09-13T12:21:18Z</time>
      </trkpt>
      <trkpt lat="47.87541" lon="6.77257">
        <ele>502.1</ele>
        <time>2022-09-13T12:21:19Z</time>
      </trkpt>
      <trkpt lat="47.87542" lon="6.77261">
        <ele>502.2</ele>
        <time>2022-09-13T12:21:20Z</time>
      </trkpt>
      <trkpt lat="47.87542" lon="6.77266">
        <ele>502.3</ele>
        <time>2022-09-13T12:21:21Z</time>
      </trkpt>
      <trkpt lat="47.87542" lon="6.77271">
        <ele>502.4</ele>
        <time>2022-09-13T12:21:22Z</time>
      </trkpt>
      <trkpt lat="47.87543" lon="6.77276">
        <ele>502.4</ele>
        <time>2022-09-13T12:21:23Z</time>
      </trkpt>
      <trkpt lat="47.87543" lon="6.7728">
        <ele>502.5</ele>
        <time>2022-09-13T12:21:24Z</time>
      </trkpt>
      <trkpt lat="47.87543" lon="6.77286">
        <ele>502.6</ele>
        <time>2022-09-13T12:21:25Z</time>
      </trkpt>
      <trkpt lat="47.87544" lon="6.7729">
        <ele>502.7</ele>
        <time>2022-09-13T12:21:26Z</time>
      </trkpt>
      <trkpt lat="47.87544" lon="6.77295">
        <ele>502.8</ele>
        <time>2022-09-13T12:21:27Z</time>
      </trkpt>
      <trkpt lat="47.87545" lon="6.773">
        <ele>502.9</ele>
        <time>2022-09-13T12:21:28Z</time>
      </trkpt>
      <trkpt lat="47.87545" lon="6.77304">
        <ele>503</ele>
        <time>2022-09-13T12:21:29Z</time>
      </trkpt>
      <trkpt lat="47.87545" lon="6.77309">
        <ele>502.9</ele>
        <time>2022-09-13T12:21:30Z</time>
      </trkpt>
      <trkpt lat="47.87545" lon="6.77314">
        <ele>502.8</ele>
        <time>2022-09-13T12:21:31Z</time>
      </trkpt>
      <trkpt lat="47.87545" lon="6.77319">
        <ele>502.7</ele>
        <time>2022-09-13T12:21:32Z</time>
      </trkpt>
      <trkpt lat="47.87546" lon="6.77324">
        <ele>502.6</ele>
        <time>2022-09-13T12:21:33Z</time>
      </trkpt>
      <trkpt lat="47.87546" lon="6.77329">
        <ele>502.4</ele>
        <time>2022-09-13T12:21:34Z</time>
      </trkpt>
      <trkpt lat="47.87546" lon="6.77334">
        <ele>502.3</ele>
        <time>2022-09-13T12:21:35Z</time>
      </trkpt>
      <trkpt lat="47.87546" lon="6.77339">
        <ele>502.3</ele>
        <time>2022-09-13T12:21:36Z</time>
      </trkpt>
      <trkpt lat="47.87546" lon="6.77343">
        <ele>502.3</ele>
        <time>2022-09-13T12:21:37Z</time>
      </trkpt>
      <trkpt lat="47.87547" lon="6.77348">
        <ele>502.3</ele>
        <time>2022-09-13T12:21:38Z</time>
      </trkpt>
      <trkpt lat="47.87547" lon="6.77353">
        <ele>502.3</ele>
        <time>2022-09-13T12:21:39Z</time>
      </trkpt>
      <trkpt lat="47.87547" lon="6.77358">
        <ele>502.3</ele>
        <time>2022-09-13T12:21:40Z</time>
      </trkpt>
      <trkpt lat="47.87547" lon="6.77363">
        <ele>502.3</ele>
        <time>2022-09-13T12:21:41Z</time>
      </trkpt>
      <trkpt lat="47.87548" lon="6.77368">
        <ele>502.3</ele>
        <time>2022-09-13T12:21:42Z</time>
      </trkpt>
      <trkpt lat="47.87548" lon="6.77373">
        <ele>502.3</ele>
        <time>2022-09-13T12:21:43Z</time>
      </trkpt>
      <trkpt lat="47.87548" lon="6.77378">
        <ele>502.3</ele>
        <time>2022-09-13T12:21:44Z</time>
      </trkpt>
      <trkpt lat="47.87548" lon="6.77382">
        <ele>502.3</ele>
        <time>2022-09-13T12:21:45Z</time>
      </trkpt>
      <trkpt lat="47.87549" lon="6.77387">
        <ele>502.2</ele>
        <time>2022-09-13T12:21:46Z</time>
      </trkpt>
      <trkpt lat="47.87549" lon="6.77392">
        <ele>502.3</ele>
        <time>2022-09-13T12:21:47Z</time>
      </trkpt>
      <trkpt lat="47.87549" lon="6.77396">
        <ele>502.4</ele>
        <time>2022-09-13T12:21:48Z</time>
      </trkpt>
      <trkpt lat="47.87549" lon="6.77401">
        <ele>502.6</ele>
        <time>2022-09-13T12:21:49Z</time>
      </trkpt>
      <trkpt lat="47.8755" lon="6.77406">
        <ele>502.7</ele>
        <time>2022-09-13T12:21:50Z</time>
      </trkpt>
      <trkpt lat="47.8755" lon="6.77411">
        <ele>502.8</ele>
        <time>2022-09-13T12:21:51Z</time>
      </trkpt>
      <trkpt lat="47.8755" lon="6.77416">
        <ele>503</ele>
        <time>2022-09-13T12:21:52Z</time>
      </trkpt>
      <trkpt lat="47.87551" lon="6.77421">
        <ele>503</ele>
        <time>2022-09-13T12:21:53Z</time>
      </trkpt>
      <trkpt lat="47.87551" lon="6.77425">
        <ele>503</ele>
        <time>2022-09-13T12:21:54Z</time>
      </trkpt>
      <trkpt lat="47.87552" lon="6.7743">
        <ele>503</ele>
        <time>2022-09-13T12:21:55Z</time>
      </trkpt>
      <trkpt lat="47.87552" lon="6.77434">
        <ele>503</ele>
        <time>2022-09-13T12:21:56Z</time>
      </trkpt>
      <trkpt lat="47.87552" lon="6.77439">
        <ele>503</ele>
        <time>2022-09-13T12:21:57Z</time>
      </trkpt>
      <trkpt lat="47.87553" lon="6.77444">
        <ele>503</ele>
        <time>2022-09-13T12:21:58Z</time>
      </trkpt>
      <trkpt lat="47.87553" lon="6.77448">
        <ele>503</ele>
        <time>2022-09-13T12:21:59Z</time>
      </trkpt>
      <trkpt lat="47.87553" lon="6.77453">
        <ele>503</ele>
        <time>2022-09-13T12:22:00Z</time>
      </trkpt>
      <trkpt lat="47.87553" lon="6.77456">
        <ele>503</ele>
        <time>2022-09-13T12:22:01Z</time>
      </trkpt>
      <trkpt lat="47.87553" lon="6.77458">
        <ele>503</ele>
        <time>2022-09-13T12:22:02Z</time>
      </trkpt>
      <trkpt lat="47.87553" lon="6.77461">
        <ele>503</ele>
        <time>2022-09-13T12:22:03Z</time>
      </trkpt>
      <trkpt lat="47.87553" lon="6.77464">
        <ele>503</ele>
        <time>2022-09-13T12:22:04Z</time>
      </trkpt>
      <trkpt lat="47.87553" lon="6.77467">
        <ele>503</ele>
        <time>2022-09-13T12:22:05Z</time>
      </trkpt>
      <trkpt lat="47.87554" lon="6.7747">
        <ele>503</ele>
        <time>2022-09-13T12:22:06Z</time>
      </trkpt>
      <trkpt lat="47.87554" lon="6.77474">
        <ele>503.1</ele>
        <time>2022-09-13T12:22:07Z</time>
      </trkpt>
      <trkpt lat="47.87554" lon="6.77478">
        <ele>503.2</ele>
        <time>2022-09-13T12:22:08Z</time>
      </trkpt>
      <trkpt lat="47.87555" lon="6.77484">
        <ele>503.4</ele>
        <time>2022-09-13T12:22:09Z</time>
      </trkpt>
      <trkpt lat="47.87556" lon="6.77486">
        <ele>503.4</ele>
        <time>2022-09-13T12:22:10Z</time>
      </trkpt>
      <trkpt lat="47.87557" lon="6.77489">
        <ele>503.4</ele>
        <time>2022-09-13T12:22:11Z</time>
      </trkpt>
      <trkpt lat="47.87557" lon="6.77492">
        <ele>503.5</ele>
        <time>2022-09-13T12:22:12Z</time>
      </trkpt>
      <trkpt lat="47.87558" lon="6.77496">
        <ele>503.4</ele>
        <time>2022-09-13T12:22:13Z</time>
      </trkpt>
      <trkpt lat="47.87558" lon="6.77499">
        <ele>503.4</ele>
        <time>2022-09-13T12:22:14Z</time>
      </trkpt>
      <trkpt lat="47.87558" lon="6.77503">
        <ele>503.5</ele>
        <time>2022-09-13T12:22:15Z</time>
      </trkpt>
      <trkpt lat="47.87558" lon="6.77506">
        <ele>503.5</ele>
        <time>2022-09-13T12:22:16Z</time>
      </trkpt>
      <trkpt lat="47.87558" lon="6.7751">
        <ele>503.5</ele>
        <time>2022-09-13T12:22:17Z</time>
      </trkpt>
      <trkpt lat="47.87557" lon="6.77514">
        <ele>503.7</ele>
        <time>2022-09-13T12:22:18Z</time>
      </trkpt>
      <trkpt lat="47.87557" lon="6.77518">
        <ele>503.7</ele>
        <time>2022-09-13T12:22:19Z</time>
      </trkpt>
      <trkpt lat="47.87557" lon="6.77525">
        <ele>503.7</ele>
        <time>2022-09-13T12:22:20Z</time>
      </trkpt>
      <trkpt lat="47.87557" lon="6.77529">
        <ele>503.7</ele>
        <time>2022-09-13T12:22:21Z</time>
      </trkpt>
      <trkpt lat="47.87557" lon="6.77534">
        <ele>503.5</ele>
        <time>2022-09-13T12:22:22Z</time>
      </trkpt>
      <trkpt lat="47.87558" lon="6.77539">
        <ele>503.2</ele>
        <time>2022-09-13T12:22:23Z</time>
      </trkpt>
      <trkpt lat="47.87558" lon="6.77543">
        <ele>503.1</ele>
        <time>2022-09-13T12:22:24Z</time>
      </trkpt>
      <trkpt lat="47.87558" lon="6.77548">
        <ele>502.9</ele>
        <time>2022-09-13T12:22:25Z</time>
      </trkpt>
      <trkpt lat="47.87558" lon="6.77553">
        <ele>502.7</ele>
        <time>2022-09-13T12:22:26Z</time>
      </trkpt>
      <trkpt lat="47.87559" lon="6.77557">
        <ele>502.5</ele>
        <time>2022-09-13T12:22:27Z</time>
      </trkpt>
      <trkpt lat="47.87559" lon="6.77561">
        <ele>502.5</ele>
        <time>2022-09-13T12:22:28Z</time>
      </trkpt>
      <trkpt lat="47.87559" lon="6.77566">
        <ele>502.6</ele>
        <time>2022-09-13T12:22:29Z</time>
      </trkpt>
      <trkpt lat="47.8756" lon="6.77571">
        <ele>502.4</ele>
        <time>2022-09-13T12:22:30Z</time>
      </trkpt>
      <trkpt lat="47.8756" lon="6.77576">
        <ele>502.5</ele>
        <time>2022-09-13T12:22:31Z</time>
      </trkpt>
      <trkpt lat="47.8756" lon="6.7758">
        <ele>502.5</ele>
        <time>2022-09-13T12:22:32Z</time>
      </trkpt>
      <trkpt lat="47.8756" lon="6.77585">
        <ele>502.6</ele>
        <time>2022-09-13T12:22:33Z</time>
      </trkpt>
      <trkpt lat="47.8756" lon="6.7759">
        <ele>502.7</ele>
        <time>2022-09-13T12:22:34Z</time>
      </trkpt>
      <trkpt lat="47.87561" lon="6.77595">
        <ele>502.7</ele>
        <time>2022-09-13T12:22:35Z</time>
      </trkpt>
      <trkpt lat="47.87561" lon="6.77599">
        <ele>502.9</ele>
        <time>2022-09-13T12:22:36Z</time>
      </trkpt>
      <trkpt lat="47.87561" lon="6.77604">
        <ele>503</ele>
        <time>2022-09-13T12:22:37Z</time>
      </trkpt>
      <trkpt lat="47.87561" lon="6.77609">
        <ele>503.2</ele>
        <time>2022-09-13T12:22:38Z</time>
      </trkpt>
      <trkpt lat="47.87561" lon="6.77613">
        <ele>503.2</ele>
        <time>2022-09-13T12:22:39Z</time>
      </trkpt>
      <trkpt lat="47.87562" lon="6.77618">
        <ele>503.1</ele>
        <time>2022-09-13T12:22:40Z</time>
      </trkpt>
      <trkpt lat="47.87562" lon="6.77623">
        <ele>503.2</ele>
        <time>2022-09-13T12:22:41Z</time>
      </trkpt>
      <trkpt lat="47.87562" lon="6.77628">
        <ele>503.2</ele>
        <time>2022-09-13T12:22:42Z</time>
      </trkpt>
      <trkpt lat="47.87563" lon="6.77633">
        <ele>503.1</ele>
        <time>2022-09-13T12:22:43Z</time>
      </trkpt>
      <trkpt lat="47.87563" lon="6.77638">
        <ele>503.2</ele>
        <time>2022-09-13T12:22:44Z</time>
      </trkpt>
      <trkpt lat="47.87563" lon="6.77643">
        <ele>503.2</ele>
        <time>2022-09-13T12:22:45Z</time>
      </trkpt>
      <trkpt lat="47.87564" lon="6.77648">
        <ele>503.1</ele>
        <time>2022-09-13T12:22:46Z</time>
      </trkpt>
      <trkpt lat="47.87564" lon="6.77653">
        <ele>503.1</ele>
        <time>2022-09-13T12:22:47Z</time>
      </trkpt>
      <trkpt lat="47.87564" lon="6.77658">
        <ele>503.1</ele>
        <time>2022-09-13T12:22:48Z</time>
      </trkpt>
      <trkpt lat="47.87565" lon="6.77663">
        <ele>503</ele>
        <time>2022-09-13T12:22:49Z</time>
      </trkpt>
      <trkpt lat="47.87565" lon="6.77668">
        <ele>503</ele>
        <time>2022-09-13T12:22:50Z</time>
      </trkpt>
      <trkpt lat="47.87565" lon="6.77674">
        <ele>503.2</ele>
        <time>2022-09-13T12:22:51Z</time>
      </trkpt>
      <trkpt lat="47.87566" lon="6.77679">
        <ele>503.1</ele>
        <time>2022-09-13T12:22:52Z</time>
      </trkpt>
      <trkpt lat="47.87566" lon="6.77684">
        <ele>503.3</ele>
        <time>2022-09-13T12:22:53Z</time>
      </trkpt>
      <trkpt lat="47.87566" lon="6.77689">
        <ele>503.4</ele>
        <time>2022-09-13T12:22:54Z</time>
      </trkpt>
      <trkpt lat="47.87567" lon="6.77694">
        <ele>503.3</ele>
        <time>2022-09-13T12:22:55Z</time>
      </trkpt>
      <trkpt lat="47.87567" lon="6.777">
        <ele>503.4</ele>
        <time>2022-09-13T12:22:56Z</time>
      </trkpt>
      <trkpt lat="47.87567" lon="6.77705">
        <ele>503.5</ele>
        <time>2022-09-13T12:22:57Z</time>
      </trkpt>
      <trkpt lat="47.87568" lon="6.7771">
        <ele>503.5</ele>
        <time>2022-09-13T12:22:58Z</time>
      </trkpt>
      <trkpt lat="47.87568" lon="6.77716">
        <ele>503.6</ele>
        <time>2022-09-13T12:22:59Z</time>
      </trkpt>
      <trkpt lat="47.87568" lon="6.77721">
        <ele>503.6</ele>
        <time>2022-09-13T12:23:00Z</time>
      </trkpt>
      <trkpt lat="47.87569" lon="6.77726">
        <ele>503.5</ele>
        <time>2022-09-13T12:23:01Z</time>
      </trkpt>
      <trkpt lat="47.87569" lon="6.77732">
        <ele>503.4</ele>
        <time>2022-09-13T12:23:02Z</time>
      </trkpt>
      <trkpt lat="47.87569" lon="6.77737">
        <ele>503.3</ele>
        <time>2022-09-13T12:23:03Z</time>
      </trkpt>
      <trkpt lat="47.8757" lon="6.77742">
        <ele>503.1</ele>
        <time>2022-09-13T12:23:04Z</time>
      </trkpt>
      <trkpt lat="47.8757" lon="6.77748">
        <ele>503</ele>
        <time>2022-09-13T12:23:05Z</time>
      </trkpt>
      <trkpt lat="47.8757" lon="6.77753">
        <ele>503.1</ele>
        <time>2022-09-13T12:23:06Z</time>
      </trkpt>
      <trkpt lat="47.8757" lon="6.77758">
        <ele>503.4</ele>
        <time>2022-09-13T12:23:07Z</time>
      </trkpt>
      <trkpt lat="47.87571" lon="6.77764">
        <ele>503.6</ele>
        <time>2022-09-13T12:23:08Z</time>
      </trkpt>
      <trkpt lat="47.87571" lon="6.77769">
        <ele>503.9</ele>
        <time>2022-09-13T12:23:09Z</time>
      </trkpt>
      <trkpt lat="47.87572" lon="6.77774">
        <ele>504.2</ele>
        <time>2022-09-13T12:23:10Z</time>
      </trkpt>
      <trkpt lat="47.87572" lon="6.77779">
        <ele>504.4</ele>
        <time>2022-09-13T12:23:11Z</time>
      </trkpt>
      <trkpt lat="47.87573" lon="6.77785">
        <ele>504.1</ele>
        <time>2022-09-13T12:23:12Z</time>
      </trkpt>
      <trkpt lat="47.87573" lon="6.7779">
        <ele>504</ele>
        <time>2022-09-13T12:23:13Z</time>
      </trkpt>
      <trkpt lat="47.87574" lon="6.77795">
        <ele>503.7</ele>
        <time>2022-09-13T12:23:14Z</time>
      </trkpt>
      <trkpt lat="47.87574" lon="6.77801">
        <ele>503.5</ele>
        <time>2022-09-13T12:23:15Z</time>
      </trkpt>
      <trkpt lat="47.87574" lon="6.77807">
        <ele>503.4</ele>
        <time>2022-09-13T12:23:16Z</time>
      </trkpt>
      <trkpt lat="47.87575" lon="6.77812">
        <ele>503.4</ele>
        <time>2022-09-13T12:23:17Z</time>
      </trkpt>
      <trkpt lat="47.87575" lon="6.77817">
        <ele>503.5</ele>
        <time>2022-09-13T12:23:18Z</time>
      </trkpt>
      <trkpt lat="47.87575" lon="6.77823">
        <ele>503.6</ele>
        <time>2022-09-13T12:23:19Z</time>
      </trkpt>
      <trkpt lat="47.87575" lon="6.77828">
        <ele>503.8</ele>
        <time>2022-09-13T12:23:20Z</time>
      </trkpt>
      <trkpt lat="47.87575" lon="6.77833">
        <ele>503.9</ele>
        <time>2022-09-13T12:23:21Z</time>
      </trkpt>
      <trkpt lat="47.87575" lon="6.77838">
        <ele>503.9</ele>
        <time>2022-09-13T12:23:22Z</time>
      </trkpt>
      <trkpt lat="47.87575" lon="6.77844">
        <ele>503.9</ele>
        <time>2022-09-13T12:23:23Z</time>
      </trkpt>
      <trkpt lat="47.87575" lon="6.77849">
        <ele>503.9</ele>
        <time>2022-09-13T12:23:24Z</time>
      </trkpt>
      <trkpt lat="47.87575" lon="6.77854">
        <ele>503.9</ele>
        <time>2022-09-13T12:23:25Z</time>
      </trkpt>
      <trkpt lat="47.87575" lon="6.7786">
        <ele>503.9</ele>
        <time>2022-09-13T12:23:26Z</time>
      </trkpt>
      <trkpt lat="47.87575" lon="6.77865">
        <ele>503.9</ele>
        <time>2022-09-13T12:23:27Z</time>
      </trkpt>
      <trkpt lat="47.87575" lon="6.77871">
        <ele>503.9</ele>
        <time>2022-09-13T12:23:28Z</time>
      </trkpt>
      <trkpt lat="47.87575" lon="6.77876">
        <ele>503.9</ele>
        <time>2022-09-13T12:23:29Z</time>
      </trkpt>
      <trkpt lat="47.87575" lon="6.77881">
        <ele>503.9</ele>
        <time>2022-09-13T12:23:30Z</time>
      </trkpt>
      <trkpt lat="47.87574" lon="6.77887">
        <ele>504</ele>
        <time>2022-09-13T12:23:31Z</time>
      </trkpt>
      <trkpt lat="47.87574" lon="6.77892">
        <ele>503.9</ele>
        <time>2022-09-13T12:23:32Z</time>
      </trkpt>
      <trkpt lat="47.87574" lon="6.77897">
        <ele>503.8</ele>
        <time>2022-09-13T12:23:33Z</time>
      </trkpt>
      <trkpt lat="47.87574" lon="6.77903">
        <ele>503.7</ele>
        <time>2022-09-13T12:23:34Z</time>
      </trkpt>
      <trkpt lat="47.87574" lon="6.77908">
        <ele>503.6</ele>
        <time>2022-09-13T12:23:35Z</time>
      </trkpt>
      <trkpt lat="47.87574" lon="6.77914">
        <ele>503.4</ele>
        <time>2022-09-13T12:23:36Z</time>
      </trkpt>
      <trkpt lat="47.87573" lon="6.77919">
        <ele>503.5</ele>
        <time>2022-09-13T12:23:37Z</time>
      </trkpt>
      <trkpt lat="47.87573" lon="6.77924">
        <ele>503.5</ele>
        <time>2022-09-13T12:23:38Z</time>
      </trkpt>
      <trkpt lat="47.87572" lon="6.7793">
        <ele>503.6</ele>
        <time>2022-09-13T12:23:39Z</time>
      </trkpt>
      <trkpt lat="47.87572" lon="6.77935">
        <ele>503.6</ele>
        <time>2022-09-13T12:23:40Z</time>
      </trkpt>
      <trkpt lat="47.87572" lon="6.7794">
        <ele>503.6</ele>
        <time>2022-09-13T12:23:41Z</time>
      </trkpt>
      <trkpt lat="47.87571" lon="6.77946">
        <ele>503.7</ele>
        <time>2022-09-13T12:23:42Z</time>
      </trkpt>
      <trkpt lat="47.87571" lon="6.77951">
        <ele>503.6</ele>
        <time>2022-09-13T12:23:43Z</time>
      </trkpt>
      <trkpt lat="47.8757" lon="6.77956">
        <ele>503.7</ele>
        <time>2022-09-13T12:23:44Z</time>
      </trkpt>
      <trkpt lat="47.8757" lon="6.77962">
        <ele>503.6</ele>
        <time>2022-09-13T12:23:45Z</time>
      </trkpt>
      <trkpt lat="47.87569" lon="6.77967">
        <ele>503.7</ele>
        <time>2022-09-13T12:23:46Z</time>
      </trkpt>
      <trkpt lat="47.87568" lon="6.77972">
        <ele>503.8</ele>
        <time>2022-09-13T12:23:47Z</time>
      </trkpt>
      <trkpt lat="47.87568" lon="6.77977">
        <ele>503.9</ele>
        <time>2022-09-13T12:23:48Z</time>
      </trkpt>
      <trkpt lat="47.87567" lon="6.77983">
        <ele>504.4</ele>
        <time>2022-09-13T12:23:49Z</time>
      </trkpt>
      <trkpt lat="47.87567" lon="6.77988">
        <ele>504.6</ele>
        <time>2022-09-13T12:23:50Z</time>
      </trkpt>
      <trkpt lat="47.87566" lon="6.77993">
        <ele>505.1</ele>
        <time>2022-09-13T12:23:51Z</time>
      </trkpt>
      <trkpt lat="47.87565" lon="6.77998">
        <ele>505.5</ele>
        <time>2022-09-13T12:23:52Z</time>
      </trkpt>
      <trkpt lat="47.87565" lon="6.78004">
        <ele>505.5</ele>
        <time>2022-09-13T12:23:53Z</time>
      </trkpt>
      <trkpt lat="47.87564" lon="6.78009">
        <ele>505.5</ele>
        <time>2022-09-13T12:23:54Z</time>
      </trkpt>
      <trkpt lat="47.87563" lon="6.78014">
        <ele>505.6</ele>
        <time>2022-09-13T12:23:55Z</time>
      </trkpt>
      <trkpt lat="47.87562" lon="6.78019">
        <ele>505.7</ele>
        <time>2022-09-13T12:23:56Z</time>
      </trkpt>
      <trkpt lat="47.87562" lon="6.78024">
        <ele>505.5</ele>
        <time>2022-09-13T12:23:57Z</time>
      </trkpt>
      <trkpt lat="47.87561" lon="6.78029">
        <ele>505.6</ele>
        <time>2022-09-13T12:23:58Z</time>
      </trkpt>
      <trkpt lat="47.8756" lon="6.78034">
        <ele>505.9</ele>
        <time>2022-09-13T12:23:59Z</time>
      </trkpt>
      <trkpt lat="47.87559" lon="6.78039">
        <ele>506.2</ele>
        <time>2022-09-13T12:24:00Z</time>
      </trkpt>
      <trkpt lat="47.87558" lon="6.78044">
        <ele>506.4</ele>
        <time>2022-09-13T12:24:01Z</time>
      </trkpt>
      <trkpt lat="47.87557" lon="6.78049">
        <ele>506.7</ele>
        <time>2022-09-13T12:24:02Z</time>
      </trkpt>
      <trkpt lat="47.87556" lon="6.78054">
        <ele>506.9</ele>
        <time>2022-09-13T12:24:03Z</time>
      </trkpt>
      <trkpt lat="47.87555" lon="6.78059">
        <ele>506.9</ele>
        <time>2022-09-13T12:24:04Z</time>
      </trkpt>
      <trkpt lat="47.87554" lon="6.78064">
        <ele>506.8</ele>
        <time>2022-09-13T12:24:05Z</time>
      </trkpt>
      <trkpt lat="47.87553" lon="6.78069">
        <ele>506.7</ele>
        <time>2022-09-13T12:24:06Z</time>
      </trkpt>
      <trkpt lat="47.87552" lon="6.78074">
        <ele>506.5</ele>
        <time>2022-09-13T12:24:07Z</time>
      </trkpt>
      <trkpt lat="47.87551" lon="6.78079">
        <ele>506.5</ele>
        <time>2022-09-13T12:24:08Z</time>
      </trkpt>
      <trkpt lat="47.8755" lon="6.78084">
        <ele>506.4</ele>
        <time>2022-09-13T12:24:09Z</time>
      </trkpt>
      <trkpt lat="47.87549" lon="6.78089">
        <ele>506.2</ele>
        <time>2022-09-13T12:24:10Z</time>
      </trkpt>
      <trkpt lat="47.87548" lon="6.78094">
        <ele>506</ele>
        <time>2022-09-13T12:24:11Z</time>
      </trkpt>
      <trkpt lat="47.87546" lon="6.78099">
        <ele>505.9</ele>
        <time>2022-09-13T12:24:12Z</time>
      </trkpt>
      <trkpt lat="47.87545" lon="6.78104">
        <ele>505.8</ele>
        <time>2022-09-13T12:24:13Z</time>
      </trkpt>
      <trkpt lat="47.87544" lon="6.78109">
        <ele>505.8</ele>
        <time>2022-09-13T12:24:14Z</time>
      </trkpt>
      <trkpt lat="47.87543" lon="6.78114">
        <ele>505.7</ele>
        <time>2022-09-13T12:24:15Z</time>
      </trkpt>
      <trkpt lat="47.87542" lon="6.78119">
        <ele>505.7</ele>
        <time>2022-09-13T12:24:16Z</time>
      </trkpt>
      <trkpt lat="47.87541" lon="6.78124">
        <ele>505.7</ele>
        <time>2022-09-13T12:24:17Z</time>
      </trkpt>
      <trkpt lat="47.8754" lon="6.78129">
        <ele>505.7</ele>
        <time>2022-09-13T12:24:18Z</time>
      </trkpt>
      <trkpt lat="47.87538" lon="6.78134">
        <ele>505.9</ele>
        <time>2022-09-13T12:24:19Z</time>
      </trkpt>
      <trkpt lat="47.87537" lon="6.78139">
        <ele>506</ele>
        <time>2022-09-13T12:24:20Z</time>
      </trkpt>
      <trkpt lat="47.87536" lon="6.78144">
        <ele>506.1</ele>
        <time>2022-09-13T12:24:21Z</time>
      </trkpt>
      <trkpt lat="47.87534" lon="6.78149">
        <ele>506.5</ele>
        <time>2022-09-13T12:24:22Z</time>
      </trkpt>
      <trkpt lat="47.87533" lon="6.78154">
        <ele>506.7</ele>
        <time>2022-09-13T12:24:23Z</time>
      </trkpt>
      <trkpt lat="47.87532" lon="6.78159">
        <ele>506.9</ele>
        <time>2022-09-13T12:24:24Z</time>
      </trkpt>
      <trkpt lat="47.8753" lon="6.78164">
        <ele>507.4</ele>
        <time>2022-09-13T12:24:25Z</time>
      </trkpt>
      <trkpt lat="47.87529" lon="6.78169">
        <ele>507.6</ele>
        <time>2022-09-13T12:24:26Z</time>
      </trkpt>
      <trkpt lat="47.87527" lon="6.78174">
        <ele>507.7</ele>
        <time>2022-09-13T12:24:27Z</time>
      </trkpt>
      <trkpt lat="47.87526" lon="6.78179">
        <ele>507.6</ele>
        <time>2022-09-13T12:24:28Z</time>
      </trkpt>
      <trkpt lat="47.87524" lon="6.78183">
        <ele>507.5</ele>
        <time>2022-09-13T12:24:29Z</time>
      </trkpt>
      <trkpt lat="47.87522" lon="6.78188">
        <ele>507.4</ele>
        <time>2022-09-13T12:24:30Z</time>
      </trkpt>
      <trkpt lat="47.87521" lon="6.78193">
        <ele>507.3</ele>
        <time>2022-09-13T12:24:31Z</time>
      </trkpt>
      <trkpt lat="47.8752" lon="6.78198">
        <ele>507.1</ele>
        <time>2022-09-13T12:24:32Z</time>
      </trkpt>
      <trkpt lat="47.87518" lon="6.78202">
        <ele>507</ele>
        <time>2022-09-13T12:24:33Z</time>
      </trkpt>
      <trkpt lat="47.87516" lon="6.78207">
        <ele>506.9</ele>
        <time>2022-09-13T12:24:34Z</time>
      </trkpt>
      <trkpt lat="47.87515" lon="6.78212">
        <ele>506.8</ele>
        <time>2022-09-13T12:24:35Z</time>
      </trkpt>
      <trkpt lat="47.87513" lon="6.78217">
        <ele>506.8</ele>
        <time>2022-09-13T12:24:36Z</time>
      </trkpt>
      <trkpt lat="47.87511" lon="6.78221">
        <ele>506.8</ele>
        <time>2022-09-13T12:24:37Z</time>
      </trkpt>
      <trkpt lat="47.87509" lon="6.78226">
        <ele>506.9</ele>
        <time>2022-09-13T12:24:38Z</time>
      </trkpt>
      <trkpt lat="47.87507" lon="6.78231">
        <ele>507.1</ele>
        <time>2022-09-13T12:24:39Z</time>
      </trkpt>
      <trkpt lat="47.87505" lon="6.78235">
        <ele>507.3</ele>
        <time>2022-09-13T12:24:40Z</time>
      </trkpt>
      <trkpt lat="47.87503" lon="6.7824">
        <ele>507.5</ele>
        <time>2022-09-13T12:24:41Z</time>
      </trkpt>
      <trkpt lat="47.87502" lon="6.78244">
        <ele>507.7</ele>
        <time>2022-09-13T12:24:42Z</time>
      </trkpt>
      <trkpt lat="47.875" lon="6.78249">
        <ele>508</ele>
        <time>2022-09-13T12:24:43Z</time>
      </trkpt>
      <trkpt lat="47.87498" lon="6.78253">
        <ele>508.1</ele>
        <time>2022-09-13T12:24:44Z</time>
      </trkpt>
      <trkpt lat="47.87495" lon="6.78257">
        <ele>508.3</ele>
        <time>2022-09-13T12:24:45Z</time>
      </trkpt>
      <trkpt lat="47.87493" lon="6.78262">
        <ele>508.3</ele>
        <time>2022-09-13T12:24:46Z</time>
      </trkpt>
      <trkpt lat="47.87491" lon="6.78266">
        <ele>508.4</ele>
        <time>2022-09-13T12:24:47Z</time>
      </trkpt>
      <trkpt lat="47.87489" lon="6.78271">
        <ele>508.4</ele>
        <time>2022-09-13T12:24:48Z</time>
      </trkpt>
      <trkpt lat="47.87487" lon="6.78275">
        <ele>508.5</ele>
        <time>2022-09-13T12:24:49Z</time>
      </trkpt>
      <trkpt lat="47.87485" lon="6.78279">
        <ele>508.5</ele>
        <time>2022-09-13T12:24:50Z</time>
      </trkpt>
      <trkpt lat="47.87482" lon="6.78283">
        <ele>508.5</ele>
        <time>2022-09-13T12:24:51Z</time>
      </trkpt>
      <trkpt lat="47.8748" lon="6.78287">
        <ele>508.4</ele>
        <time>2022-09-13T12:24:52Z</time>
      </trkpt>
      <trkpt lat="47.87478" lon="6.78292">
        <ele>508.2</ele>
        <time>2022-09-13T12:24:53Z</time>
      </trkpt>
      <trkpt lat="47.87476" lon="6.78296">
        <ele>508.2</ele>
        <time>2022-09-13T12:24:54Z</time>
      </trkpt>
      <trkpt lat="47.87473" lon="6.783">
        <ele>508.3</ele>
        <time>2022-09-13T12:24:55Z</time>
      </trkpt>
      <trkpt lat="47.87471" lon="6.78304">
        <ele>508.3</ele>
        <time>2022-09-13T12:24:56Z</time>
      </trkpt>
      <trkpt lat="47.87469" lon="6.78308">
        <ele>508.3</ele>
        <time>2022-09-13T12:24:57Z</time>
      </trkpt>
      <trkpt lat="47.87467" lon="6.78312">
        <ele>508.3</ele>
        <time>2022-09-13T12:24:58Z</time>
      </trkpt>
      <trkpt lat="47.87464" lon="6.78316">
        <ele>508.4</ele>
        <time>2022-09-13T12:24:59Z</time>
      </trkpt>
      <trkpt lat="47.87462" lon="6.7832">
        <ele>508.4</ele>
        <time>2022-09-13T12:25:00Z</time>
      </trkpt>
      <trkpt lat="47.8746" lon="6.78324">
        <ele>508.4</ele>
        <time>2022-09-13T12:25:01Z</time>
      </trkpt>
      <trkpt lat="47.87457" lon="6.78328">
        <ele>508.6</ele>
        <time>2022-09-13T12:25:02Z</time>
      </trkpt>
      <trkpt lat="47.87455" lon="6.78332">
        <ele>508.6</ele>
        <time>2022-09-13T12:25:03Z</time>
      </trkpt>
      <trkpt lat="47.87452" lon="6.78336">
        <ele>508.6</ele>
        <time>2022-09-13T12:25:04Z</time>
      </trkpt>
      <trkpt lat="47.8745" lon="6.7834">
        <ele>508.5</ele>
        <time>2022-09-13T12:25:05Z</time>
      </trkpt>
      <trkpt lat="47.87447" lon="6.78343">
        <ele>508.6</ele>
        <time>2022-09-13T12:25:06Z</time>
      </trkpt>
      <trkpt lat="47.87445" lon="6.78347">
        <ele>508.4</ele>
        <time>2022-09-13T12:25:07Z</time>
      </trkpt>
      <trkpt lat="47.87442" lon="6.78351">
        <ele>508.4</ele>
        <time>2022-09-13T12:25:08Z</time>
      </trkpt>
      <trkpt lat="47.8744" lon="6.78355">
        <ele>508.2</ele>
        <time>2022-09-13T12:25:09Z</time>
      </trkpt>
      <trkpt lat="47.87437" lon="6.78359">
        <ele>508.1</ele>
        <time>2022-09-13T12:25:10Z</time>
      </trkpt>
      <trkpt lat="47.87434" lon="6.78363">
        <ele>507.9</ele>
        <time>2022-09-13T12:25:11Z</time>
      </trkpt>
      <trkpt lat="47.87431" lon="6.78367">
        <ele>507.9</ele>
        <time>2022-09-13T12:25:12Z</time>
      </trkpt>
      <trkpt lat="47.87428" lon="6.78371">
        <ele>507.9</ele>
        <time>2022-09-13T12:25:13Z</time>
      </trkpt>
      <trkpt lat="47.87426" lon="6.78375">
        <ele>507.8</ele>
        <time>2022-09-13T12:25:14Z</time>
      </trkpt>
      <trkpt lat="47.87423" lon="6.78379">
        <ele>507.9</ele>
        <time>2022-09-13T12:25:15Z</time>
      </trkpt>
      <trkpt lat="47.8742" lon="6.78383">
        <ele>508</ele>
        <time>2022-09-13T12:25:16Z</time>
      </trkpt>
      <trkpt lat="47.87417" lon="6.78387">
        <ele>508.1</ele>
        <time>2022-09-13T12:25:17Z</time>
      </trkpt>
      <trkpt lat="47.87414" lon="6.7839">
        <ele>508.3</ele>
        <time>2022-09-13T12:25:18Z</time>
      </trkpt>
      <trkpt lat="47.87411" lon="6.78395">
        <ele>508.2</ele>
        <time>2022-09-13T12:25:19Z</time>
      </trkpt>
      <trkpt lat="47.87409" lon="6.78399">
        <ele>508.1</ele>
        <time>2022-09-13T12:25:20Z</time>
      </trkpt>
      <trkpt lat="47.87406" lon="6.78403">
        <ele>508.2</ele>
        <time>2022-09-13T12:25:21Z</time>
      </trkpt>
      <trkpt lat="47.87403" lon="6.78407">
        <ele>508.3</ele>
        <time>2022-09-13T12:25:22Z</time>
      </trkpt>
      <trkpt lat="47.87401" lon="6.78411">
        <ele>508.3</ele>
        <time>2022-09-13T12:25:23Z</time>
      </trkpt>
      <trkpt lat="47.87398" lon="6.78415">
        <ele>508.5</ele>
        <time>2022-09-13T12:25:24Z</time>
      </trkpt>
      <trkpt lat="47.87396" lon="6.78419">
        <ele>508.5</ele>
        <time>2022-09-13T12:25:25Z</time>
      </trkpt>
      <trkpt lat="47.87393" lon="6.78423">
        <ele>508.8</ele>
        <time>2022-09-13T12:25:26Z</time>
      </trkpt>
      <trkpt lat="47.8739" lon="6.78427">
        <ele>509</ele>
        <time>2022-09-13T12:25:27Z</time>
      </trkpt>
      <trkpt lat="47.87388" lon="6.78431">
        <ele>509</ele>
        <time>2022-09-13T12:25:28Z</time>
      </trkpt>
      <trkpt lat="47.87385" lon="6.78435">
        <ele>508.9</ele>
        <time>2022-09-13T12:25:29Z</time>
      </trkpt>
      <trkpt lat="47.87383" lon="6.78439">
        <ele>508.6</ele>
        <time>2022-09-13T12:25:30Z</time>
      </trkpt>
      <trkpt lat="47.8738" lon="6.78444">
        <ele>508.4</ele>
        <time>2022-09-13T12:25:31Z</time>
      </trkpt>
      <trkpt lat="47.87377" lon="6.78448">
        <ele>507.9</ele>
        <time>2022-09-13T12:25:32Z</time>
      </trkpt>
      <trkpt lat="47.87374" lon="6.78453">
        <ele>507.5</ele>
        <time>2022-09-13T12:25:33Z</time>
      </trkpt>
      <trkpt lat="47.87371" lon="6.78458">
        <ele>507.3</ele>
        <time>2022-09-13T12:25:34Z</time>
      </trkpt>
      <trkpt lat="47.87369" lon="6.78463">
        <ele>507.1</ele>
        <time>2022-09-13T12:25:35Z</time>
      </trkpt>
      <trkpt lat="47.87366" lon="6.78467">
        <ele>507.3</ele>
        <time>2022-09-13T12:25:36Z</time>
      </trkpt>
      <trkpt lat="47.87363" lon="6.78472">
        <ele>507.6</ele>
        <time>2022-09-13T12:25:37Z</time>
      </trkpt>
      <trkpt lat="47.87361" lon="6.78477">
        <ele>507.3</ele>
        <time>2022-09-13T12:25:38Z</time>
      </trkpt>
      <trkpt lat="47.87358" lon="6.78482">
        <ele>507</ele>
        <time>2022-09-13T12:25:39Z</time>
      </trkpt>
      <trkpt lat="47.87355" lon="6.78487">
        <ele>506.6</ele>
        <time>2022-09-13T12:25:40Z</time>
      </trkpt>
      <trkpt lat="47.87353" lon="6.78492">
        <ele>506.2</ele>
        <time>2022-09-13T12:25:41Z</time>
      </trkpt>
      <trkpt lat="47.8735" lon="6.78497">
        <ele>506</ele>
        <time>2022-09-13T12:25:42Z</time>
      </trkpt>
      <trkpt lat="47.87348" lon="6.78503">
        <ele>505.7</ele>
        <time>2022-09-13T12:25:43Z</time>
      </trkpt>
      <trkpt lat="47.87345" lon="6.78508">
        <ele>505.8</ele>
        <time>2022-09-13T12:25:44Z</time>
      </trkpt>
      <trkpt lat="47.87343" lon="6.78513">
        <ele>506</ele>
        <time>2022-09-13T12:25:45Z</time>
      </trkpt>
      <trkpt lat="47.87341" lon="6.78519">
        <ele>506.1</ele>
        <time>2022-09-13T12:25:46Z</time>
      </trkpt>
      <trkpt lat="47.87338" lon="6.78524">
        <ele>506.7</ele>
        <time>2022-09-13T12:25:47Z</time>
      </trkpt>
      <trkpt lat="47.87336" lon="6.7853">
        <ele>507.2</ele>
        <time>2022-09-13T12:25:48Z</time>
      </trkpt>
      <trkpt lat="47.87334" lon="6.78535">
        <ele>507.6</ele>
        <time>2022-09-13T12:25:49Z</time>
      </trkpt>
      <trkpt lat="47.87332" lon="6.7854">
        <ele>507.8</ele>
        <time>2022-09-13T12:25:50Z</time>
      </trkpt>
      <trkpt lat="47.8733" lon="6.78546">
        <ele>507.8</ele>
        <time>2022-09-13T12:25:51Z</time>
      </trkpt>
      <trkpt lat="47.87329" lon="6.78551">
        <ele>507.7</ele>
        <time>2022-09-13T12:25:52Z</time>
      </trkpt>
      <trkpt lat="47.87327" lon="6.78556">
        <ele>507.7</ele>
        <time>2022-09-13T12:25:53Z</time>
      </trkpt>
      <trkpt lat="47.87325" lon="6.78562">
        <ele>507.5</ele>
        <time>2022-09-13T12:25:54Z</time>
      </trkpt>
      <trkpt lat="47.87323" lon="6.78568">
        <ele>507.4</ele>
        <time>2022-09-13T12:25:55Z</time>
      </trkpt>
      <trkpt lat="47.87321" lon="6.78574">
        <ele>507.3</ele>
        <time>2022-09-13T12:25:56Z</time>
      </trkpt>
      <trkpt lat="47.87319" lon="6.78579">
        <ele>507.3</ele>
        <time>2022-09-13T12:25:57Z</time>
      </trkpt>
      <trkpt lat="47.87318" lon="6.78585">
        <ele>507.2</ele>
        <time>2022-09-13T12:25:58Z</time>
      </trkpt>
      <trkpt lat="47.87316" lon="6.78591">
        <ele>507.5</ele>
        <time>2022-09-13T12:25:59Z</time>
      </trkpt>
      <trkpt lat="47.87314" lon="6.78596">
        <ele>507.8</ele>
        <time>2022-09-13T12:26:00Z</time>
      </trkpt>
      <trkpt lat="47.87312" lon="6.78602">
        <ele>508.1</ele>
        <time>2022-09-13T12:26:01Z</time>
      </trkpt>
      <trkpt lat="47.8731" lon="6.78607">
        <ele>508.4</ele>
        <time>2022-09-13T12:26:02Z</time>
      </trkpt>
      <trkpt lat="47.87309" lon="6.78613">
        <ele>508.5</ele>
        <time>2022-09-13T12:26:03Z</time>
      </trkpt>
      <trkpt lat="47.87307" lon="6.78619">
        <ele>508.8</ele>
        <time>2022-09-13T12:26:04Z</time>
      </trkpt>
      <trkpt lat="47.87305" lon="6.78624">
        <ele>509.1</ele>
        <time>2022-09-13T12:26:05Z</time>
      </trkpt>
      <trkpt lat="47.87303" lon="6.7863">
        <ele>509.2</ele>
        <time>2022-09-13T12:26:06Z</time>
      </trkpt>
      <trkpt lat="47.87302" lon="6.78635">
        <ele>509.3</ele>
        <time>2022-09-13T12:26:07Z</time>
      </trkpt>
      <trkpt lat="47.873" lon="6.78641">
        <ele>509.3</ele>
        <time>2022-09-13T12:26:08Z</time>
      </trkpt>
      <trkpt lat="47.87299" lon="6.78647">
        <ele>509.2</ele>
        <time>2022-09-13T12:26:09Z</time>
      </trkpt>
      <trkpt lat="47.87297" lon="6.78652">
        <ele>509.3</ele>
        <time>2022-09-13T12:26:10Z</time>
      </trkpt>
      <trkpt lat="47.87295" lon="6.78658">
        <ele>509.3</ele>
        <time>2022-09-13T12:26:11Z</time>
      </trkpt>
      <trkpt lat="47.87294" lon="6.78664">
        <ele>509.3</ele>
        <time>2022-09-13T12:26:12Z</time>
      </trkpt>
      <trkpt lat="47.87292" lon="6.7867">
        <ele>509.4</ele>
        <time>2022-09-13T12:26:13Z</time>
      </trkpt>
      <trkpt lat="47.8729" lon="6.78676">
        <ele>509.5</ele>
        <time>2022-09-13T12:26:14Z</time>
      </trkpt>
      <trkpt lat="47.87289" lon="6.78681">
        <ele>509.5</ele>
        <time>2022-09-13T12:26:15Z</time>
      </trkpt>
      <trkpt lat="47.87287" lon="6.78687">
        <ele>509.5</ele>
        <time>2022-09-13T12:26:16Z</time>
      </trkpt>
      <trkpt lat="47.87286" lon="6.78693">
        <ele>509.4</ele>
        <time>2022-09-13T12:26:17Z</time>
      </trkpt>
      <trkpt lat="47.87284" lon="6.78699">
        <ele>509.4</ele>
        <time>2022-09-13T12:26:18Z</time>
      </trkpt>
      <trkpt lat="47.87282" lon="6.78704">
        <ele>509.4</ele>
        <time>2022-09-13T12:26:19Z</time>
      </trkpt>
      <trkpt lat="47.8728" lon="6.78709">
        <ele>509.4</ele>
        <time>2022-09-13T12:26:20Z</time>
      </trkpt>
      <trkpt lat="47.87279" lon="6.78714">
        <ele>509.2</ele>
        <time>2022-09-13T12:26:21Z</time>
      </trkpt>
      <trkpt lat="47.87277" lon="6.78719">
        <ele>509.2</ele>
        <time>2022-09-13T12:26:22Z</time>
      </trkpt>
      <trkpt lat="47.87275" lon="6.78725">
        <ele>509.3</ele>
        <time>2022-09-13T12:26:23Z</time>
      </trkpt>
      <trkpt lat="47.87274" lon="6.7873">
        <ele>509.4</ele>
        <time>2022-09-13T12:26:24Z</time>
      </trkpt>
      <trkpt lat="47.87272" lon="6.78735">
        <ele>509.5</ele>
        <time>2022-09-13T12:26:25Z</time>
      </trkpt>
      <trkpt lat="47.87271" lon="6.7874">
        <ele>509.6</ele>
        <time>2022-09-13T12:26:26Z</time>
      </trkpt>
      <trkpt lat="47.8727" lon="6.78745">
        <ele>509.6</ele>
        <time>2022-09-13T12:26:27Z</time>
      </trkpt>
      <trkpt lat="47.87268" lon="6.7875">
        <ele>509.7</ele>
        <time>2022-09-13T12:26:28Z</time>
      </trkpt>
      <trkpt lat="47.87267" lon="6.78755">
        <ele>509.7</ele>
        <time>2022-09-13T12:26:29Z</time>
      </trkpt>
      <trkpt lat="47.87266" lon="6.78759">
        <ele>509.7</ele>
        <time>2022-09-13T12:26:30Z</time>
      </trkpt>
      <trkpt lat="47.87264" lon="6.78762">
        <ele>509.8</ele>
        <time>2022-09-13T12:26:31Z</time>
      </trkpt>
      <trkpt lat="47.87262" lon="6.78766">
        <ele>509.8</ele>
        <time>2022-09-13T12:26:32Z</time>
      </trkpt>
      <trkpt lat="47.8726" lon="6.78769">
        <ele>509.8</ele>
        <time>2022-09-13T12:26:33Z</time>
      </trkpt>
      <trkpt lat="47.87258" lon="6.78773">
        <ele>509.8</ele>
        <time>2022-09-13T12:26:34Z</time>
      </trkpt>
      <trkpt lat="47.87256" lon="6.78777">
        <ele>509.8</ele>
        <time>2022-09-13T12:26:35Z</time>
      </trkpt>
      <trkpt lat="47.87254" lon="6.78781">
        <ele>509.8</ele>
        <time>2022-09-13T12:26:36Z</time>
      </trkpt>
      <trkpt lat="47.87252" lon="6.78785">
        <ele>509.9</ele>
        <time>2022-09-13T12:26:37Z</time>
      </trkpt>
      <trkpt lat="47.8725" lon="6.78789">
        <ele>510</ele>
        <time>2022-09-13T12:26:38Z</time>
      </trkpt>
      <trkpt lat="47.87248" lon="6.78793">
        <ele>510.1</ele>
        <time>2022-09-13T12:26:39Z</time>
      </trkpt>
      <trkpt lat="47.87245" lon="6.78796">
        <ele>510.2</ele>
        <time>2022-09-13T12:26:40Z</time>
      </trkpt>
      <trkpt lat="47.87243" lon="6.788">
        <ele>510.3</ele>
        <time>2022-09-13T12:26:41Z</time>
      </trkpt>
      <trkpt lat="47.87241" lon="6.78804">
        <ele>510.3</ele>
        <time>2022-09-13T12:26:42Z</time>
      </trkpt>
      <trkpt lat="47.87238" lon="6.78808">
        <ele>510.3</ele>
        <time>2022-09-13T12:26:43Z</time>
      </trkpt>
      <trkpt lat="47.87236" lon="6.78811">
        <ele>510.2</ele>
        <time>2022-09-13T12:26:44Z</time>
      </trkpt>
      <trkpt lat="47.87234" lon="6.78814">
        <ele>510.1</ele>
        <time>2022-09-13T12:26:45Z</time>
      </trkpt>
      <trkpt lat="47.87232" lon="6.78818">
        <ele>510</ele>
        <time>2022-09-13T12:26:46Z</time>
      </trkpt>
      <trkpt lat="47.8723" lon="6.78822">
        <ele>510</ele>
        <time>2022-09-13T12:26:47Z</time>
      </trkpt>
      <trkpt lat="47.87228" lon="6.78826">
        <ele>509.9</ele>
        <time>2022-09-13T12:26:48Z</time>
      </trkpt>
      <trkpt lat="47.87226" lon="6.7883">
        <ele>509.9</ele>
        <time>2022-09-13T12:26:49Z</time>
      </trkpt>
      <trkpt lat="47.87224" lon="6.78835">
        <ele>509.8</ele>
        <time>2022-09-13T12:26:50Z</time>
      </trkpt>
      <trkpt lat="47.87222" lon="6.78839">
        <ele>509.8</ele>
        <time>2022-09-13T12:26:51Z</time>
      </trkpt>
      <trkpt lat="47.8722" lon="6.78844">
        <ele>509.6</ele>
        <time>2022-09-13T12:26:52Z</time>
      </trkpt>
      <trkpt lat="47.87218" lon="6.78848">
        <ele>509.5</ele>
        <time>2022-09-13T12:26:53Z</time>
      </trkpt>
      <trkpt lat="47.87215" lon="6.78852">
        <ele>509.3</ele>
        <time>2022-09-13T12:26:54Z</time>
      </trkpt>
      <trkpt lat="47.87213" lon="6.78856">
        <ele>509.2</ele>
        <time>2022-09-13T12:26:55Z</time>
      </trkpt>
      <trkpt lat="47.87211" lon="6.7886">
        <ele>509</ele>
        <time>2022-09-13T12:26:56Z</time>
      </trkpt>
      <trkpt lat="47.87208" lon="6.78864">
        <ele>508.9</ele>
        <time>2022-09-13T12:26:57Z</time>
      </trkpt>
      <trkpt lat="47.87205" lon="6.78868">
        <ele>508.9</ele>
        <time>2022-09-13T12:26:58Z</time>
      </trkpt>
      <trkpt lat="47.87203" lon="6.78871">
        <ele>508.9</ele>
        <time>2022-09-13T12:26:59Z</time>
      </trkpt>
      <trkpt lat="47.872" lon="6.78875">
        <ele>508.9</ele>
        <time>2022-09-13T12:27:00Z</time>
      </trkpt>
      <trkpt lat="47.87197" lon="6.78879">
        <ele>508.9</ele>
        <time>2022-09-13T12:27:01Z</time>
      </trkpt>
      <trkpt lat="47.87194" lon="6.78882">
        <ele>509</ele>
        <time>2022-09-13T12:27:02Z</time>
      </trkpt>
      <trkpt lat="47.87192" lon="6.78886">
        <ele>509</ele>
        <time>2022-09-13T12:27:03Z</time>
      </trkpt>
      <trkpt lat="47.87189" lon="6.7889">
        <ele>508.9</ele>
        <time>2022-09-13T12:27:04Z</time>
      </trkpt>
      <trkpt lat="47.87186" lon="6.78893">
        <ele>508.8</ele>
        <time>2022-09-13T12:27:05Z</time>
      </trkpt>
      <trkpt lat="47.87183" lon="6.78897">
        <ele>508.8</ele>
        <time>2022-09-13T12:27:06Z</time>
      </trkpt>
      <trkpt lat="47.8718" lon="6.789">
        <ele>508.8</ele>
        <time>2022-09-13T12:27:07Z</time>
      </trkpt>
      <trkpt lat="47.87178" lon="6.78904">
        <ele>508.9</ele>
        <time>2022-09-13T12:27:08Z</time>
      </trkpt>
      <trkpt lat="47.87175" lon="6.78907">
        <ele>509.1</ele>
        <time>2022-09-13T12:27:09Z</time>
      </trkpt>
      <trkpt lat="47.87172" lon="6.78911">
        <ele>509.3</ele>
        <time>2022-09-13T12:27:10Z</time>
      </trkpt>
      <trkpt lat="47.87169" lon="6.78914">
        <ele>509.7</ele>
        <time>2022-09-13T12:27:11Z</time>
      </trkpt>
      <trkpt lat="47.87166" lon="6.78918">
        <ele>509.9</ele>
        <time>2022-09-13T12:27:12Z</time>
      </trkpt>
      <trkpt lat="47.87163" lon="6.78921">
        <ele>509.7</ele>
        <time>2022-09-13T12:27:13Z</time>
      </trkpt>
      <trkpt lat="47.8716" lon="6.78924">
        <ele>509.6</ele>
        <time>2022-09-13T12:27:14Z</time>
      </trkpt>
      <trkpt lat="47.87157" lon="6.78927">
        <ele>509.5</ele>
        <time>2022-09-13T12:27:15Z</time>
      </trkpt>
      <trkpt lat="47.87154" lon="6.78931">
        <ele>509.4</ele>
        <time>2022-09-13T12:27:16Z</time>
      </trkpt>
      <trkpt lat="47.87152" lon="6.78934">
        <ele>509.3</ele>
        <time>2022-09-13T12:27:17Z</time>
      </trkpt>
      <trkpt lat="47.87148" lon="6.78937">
        <ele>509.5</ele>
        <time>2022-09-13T12:27:18Z</time>
      </trkpt>
      <trkpt lat="47.87145" lon="6.7894">
        <ele>509.6</ele>
        <time>2022-09-13T12:27:19Z</time>
      </trkpt>
      <trkpt lat="47.87142" lon="6.78943">
        <ele>509.7</ele>
        <time>2022-09-13T12:27:20Z</time>
      </trkpt>
      <trkpt lat="47.87139" lon="6.78946">
        <ele>509.8</ele>
        <time>2022-09-13T12:27:21Z</time>
      </trkpt>
      <trkpt lat="47.87137" lon="6.7895">
        <ele>509.6</ele>
        <time>2022-09-13T12:27:22Z</time>
      </trkpt>
      <trkpt lat="47.87134" lon="6.78953">
        <ele>509.5</ele>
        <time>2022-09-13T12:27:23Z</time>
      </trkpt>
      <trkpt lat="47.87131" lon="6.78956">
        <ele>509.6</ele>
        <time>2022-09-13T12:27:24Z</time>
      </trkpt>
      <trkpt lat="47.87127" lon="6.7896">
        <ele>509.7</ele>
        <time>2022-09-13T12:27:25Z</time>
      </trkpt>
      <trkpt lat="47.87125" lon="6.78963">
        <ele>509.7</ele>
        <time>2022-09-13T12:27:26Z</time>
      </trkpt>
      <trkpt lat="47.87121" lon="6.78966">
        <ele>510</ele>
        <time>2022-09-13T12:27:27Z</time>
      </trkpt>
      <trkpt lat="47.87118" lon="6.78969">
        <ele>510.2</ele>
        <time>2022-09-13T12:27:28Z</time>
      </trkpt>
      <trkpt lat="47.87115" lon="6.78972">
        <ele>510.5</ele>
        <time>2022-09-13T12:27:29Z</time>
      </trkpt>
      <trkpt lat="47.87113" lon="6.78975">
        <ele>510.6</ele>
        <time>2022-09-13T12:27:30Z</time>
      </trkpt>
      <trkpt lat="47.8711" lon="6.78979">
        <ele>510.8</ele>
        <time>2022-09-13T12:27:31Z</time>
      </trkpt>
      <trkpt lat="47.87107" lon="6.78982">
        <ele>510.9</ele>
        <time>2022-09-13T12:27:32Z</time>
      </trkpt>
      <trkpt lat="47.87104" lon="6.78985">
        <ele>510.9</ele>
        <time>2022-09-13T12:27:33Z</time>
      </trkpt>
      <trkpt lat="47.87101" lon="6.78989">
        <ele>510.9</ele>
        <time>2022-09-13T12:27:34Z</time>
      </trkpt>
      <trkpt lat="47.87098" lon="6.78992">
        <ele>510.9</ele>
        <time>2022-09-13T12:27:35Z</time>
      </trkpt>
      <trkpt lat="47.87095" lon="6.78995">
        <ele>510.9</ele>
        <time>2022-09-13T12:27:36Z</time>
      </trkpt>
      <trkpt lat="47.87092" lon="6.78998">
        <ele>510.8</ele>
        <time>2022-09-13T12:27:37Z</time>
      </trkpt>
      <trkpt lat="47.8709" lon="6.79001">
        <ele>510.7</ele>
        <time>2022-09-13T12:27:38Z</time>
      </trkpt>
      <trkpt lat="47.87087" lon="6.79005">
        <ele>510.7</ele>
        <time>2022-09-13T12:27:39Z</time>
      </trkpt>
      <trkpt lat="47.87084" lon="6.79008">
        <ele>510.7</ele>
        <time>2022-09-13T12:27:40Z</time>
      </trkpt>
      <trkpt lat="47.87081" lon="6.79011">
        <ele>510.7</ele>
        <time>2022-09-13T12:27:41Z</time>
      </trkpt>
      <trkpt lat="47.87078" lon="6.79014">
        <ele>510.8</ele>
        <time>2022-09-13T12:27:42Z</time>
      </trkpt>
      <trkpt lat="47.87074" lon="6.79017">
        <ele>510.9</ele>
        <time>2022-09-13T12:27:43Z</time>
      </trkpt>
      <trkpt lat="47.87071" lon="6.79019">
        <ele>511.1</ele>
        <time>2022-09-13T12:27:44Z</time>
      </trkpt>
      <trkpt lat="47.87068" lon="6.79022">
        <ele>511.2</ele>
        <time>2022-09-13T12:27:45Z</time>
      </trkpt>
      <trkpt lat="47.87064" lon="6.79025">
        <ele>511.4</ele>
        <time>2022-09-13T12:27:46Z</time>
      </trkpt>
      <trkpt lat="47.87061" lon="6.79028">
        <ele>511.6</ele>
        <time>2022-09-13T12:27:47Z</time>
      </trkpt>
      <trkpt lat="47.87058" lon="6.79031">
        <ele>511.6</ele>
        <time>2022-09-13T12:27:48Z</time>
      </trkpt>
      <trkpt lat="47.87055" lon="6.79034">
        <ele>511.6</ele>
        <time>2022-09-13T12:27:49Z</time>
      </trkpt>
      <trkpt lat="47.87051" lon="6.79036">
        <ele>511.6</ele>
        <time>2022-09-13T12:27:50Z</time>
      </trkpt>
      <trkpt lat="47.87048" lon="6.79039">
        <ele>511.6</ele>
        <time>2022-09-13T12:27:51Z</time>
      </trkpt>
      <trkpt lat="47.87045" lon="6.79041">
        <ele>511.6</ele>
        <time>2022-09-13T12:27:52Z</time>
      </trkpt>
      <trkpt lat="47.87041" lon="6.79044">
        <ele>511.7</ele>
        <time>2022-09-13T12:27:53Z</time>
      </trkpt>
      <trkpt lat="47.87038" lon="6.79046">
        <ele>511.7</ele>
        <time>2022-09-13T12:27:54Z</time>
      </trkpt>
      <trkpt lat="47.87035" lon="6.79049">
        <ele>511.8</ele>
        <time>2022-09-13T12:27:55Z</time>
      </trkpt>
      <trkpt lat="47.87031" lon="6.79051">
        <ele>512</ele>
        <time>2022-09-13T12:27:56Z</time>
      </trkpt>
      <trkpt lat="47.87028" lon="6.79054">
        <ele>512</ele>
        <time>2022-09-13T12:27:57Z</time>
      </trkpt>
      <trkpt lat="47.87025" lon="6.79056">
        <ele>512.1</ele>
        <time>2022-09-13T12:27:58Z</time>
      </trkpt>
      <trkpt lat="47.87022" lon="6.79058">
        <ele>512.1</ele>
        <time>2022-09-13T12:27:59Z</time>
      </trkpt>
      <trkpt lat="47.87019" lon="6.79061">
        <ele>512</ele>
        <time>2022-09-13T12:28:00Z</time>
      </trkpt>
      <trkpt lat="47.87015" lon="6.79063">
        <ele>512</ele>
        <time>2022-09-13T12:28:01Z</time>
      </trkpt>
      <trkpt lat="47.87012" lon="6.79065">
        <ele>512.1</ele>
        <time>2022-09-13T12:28:02Z</time>
      </trkpt>
      <trkpt lat="47.87008" lon="6.79067">
        <ele>512.2</ele>
        <time>2022-09-13T12:28:03Z</time>
      </trkpt>
      <trkpt lat="47.87005" lon="6.7907">
        <ele>512.2</ele>
        <time>2022-09-13T12:28:04Z</time>
      </trkpt>
      <trkpt lat="47.87002" lon="6.79072">
        <ele>512.3</ele>
        <time>2022-09-13T12:28:05Z</time>
      </trkpt>
      <trkpt lat="47.86998" lon="6.79074">
        <ele>512.4</ele>
        <time>2022-09-13T12:28:06Z</time>
      </trkpt>
      <trkpt lat="47.86995" lon="6.79076">
        <ele>512.5</ele>
        <time>2022-09-13T12:28:07Z</time>
      </trkpt>
      <trkpt lat="47.86992" lon="6.79078">
        <ele>512.5</ele>
        <time>2022-09-13T12:28:08Z</time>
      </trkpt>
      <trkpt lat="47.86988" lon="6.79081">
        <ele>512.6</ele>
        <time>2022-09-13T12:28:09Z</time>
      </trkpt>
      <trkpt lat="47.86985" lon="6.79083">
        <ele>512.6</ele>
        <time>2022-09-13T12:28:10Z</time>
      </trkpt>
      <trkpt lat="47.86982" lon="6.79085">
        <ele>512.6</ele>
        <time>2022-09-13T12:28:11Z</time>
      </trkpt>
      <trkpt lat="47.86978" lon="6.79087">
        <ele>512.6</ele>
        <time>2022-09-13T12:28:12Z</time>
      </trkpt>
      <trkpt lat="47.86975" lon="6.79089">
        <ele>512.7</ele>
        <time>2022-09-13T12:28:13Z</time>
      </trkpt>
      <trkpt lat="47.86972" lon="6.79091">
        <ele>512.7</ele>
        <time>2022-09-13T12:28:14Z</time>
      </trkpt>
      <trkpt lat="47.86968" lon="6.79093">
        <ele>513.1</ele>
        <time>2022-09-13T12:28:15Z</time>
      </trkpt>
      <trkpt lat="47.86965" lon="6.79095">
        <ele>513.3</ele>
        <time>2022-09-13T12:28:16Z</time>
      </trkpt>
      <trkpt lat="47.86962" lon="6.79098">
        <ele>513.4</ele>
        <time>2022-09-13T12:28:17Z</time>
      </trkpt>
      <trkpt lat="47.86959" lon="6.791">
        <ele>513.5</ele>
        <time>2022-09-13T12:28:18Z</time>
      </trkpt>
      <trkpt lat="47.86955" lon="6.79102">
        <ele>513.8</ele>
        <time>2022-09-13T12:28:19Z</time>
      </trkpt>
      <trkpt lat="47.86952" lon="6.79104">
        <ele>513.9</ele>
        <time>2022-09-13T12:28:20Z</time>
      </trkpt>
      <trkpt lat="47.86949" lon="6.79107">
        <ele>513.9</ele>
        <time>2022-09-13T12:28:21Z</time>
      </trkpt>
      <trkpt lat="47.86945" lon="6.79109">
        <ele>514.1</ele>
        <time>2022-09-13T12:28:22Z</time>
      </trkpt>
      <trkpt lat="47.86942" lon="6.79112">
        <ele>514</ele>
        <time>2022-09-13T12:28:23Z</time>
      </trkpt>
      <trkpt lat="47.86939" lon="6.79114">
        <ele>513.9</ele>
        <time>2022-09-13T12:28:24Z</time>
      </trkpt>
      <trkpt lat="47.86935" lon="6.79116">
        <ele>513.9</ele>
        <time>2022-09-13T12:28:25Z</time>
      </trkpt>
      <trkpt lat="47.86932" lon="6.79118">
        <ele>513.8</ele>
        <time>2022-09-13T12:28:26Z</time>
      </trkpt>
      <trkpt lat="47.86928" lon="6.7912">
        <ele>513.8</ele>
        <time>2022-09-13T12:28:27Z</time>
      </trkpt>
      <trkpt lat="47.86924" lon="6.79122">
        <ele>513.8</ele>
        <time>2022-09-13T12:28:28Z</time>
      </trkpt>
      <trkpt lat="47.86921" lon="6.79124">
        <ele>513.8</ele>
        <time>2022-09-13T12:28:29Z</time>
      </trkpt>
      <trkpt lat="47.86918" lon="6.79126">
        <ele>513.9</ele>
        <time>2022-09-13T12:28:30Z</time>
      </trkpt>
      <trkpt lat="47.86914" lon="6.79128">
        <ele>514</ele>
        <time>2022-09-13T12:28:31Z</time>
      </trkpt>
      <trkpt lat="47.86911" lon="6.7913">
        <ele>514</ele>
        <time>2022-09-13T12:28:32Z</time>
      </trkpt>
      <trkpt lat="47.86907" lon="6.79132">
        <ele>514</ele>
        <time>2022-09-13T12:28:33Z</time>
      </trkpt>
      <trkpt lat="47.86904" lon="6.79134">
        <ele>514</ele>
        <time>2022-09-13T12:28:34Z</time>
      </trkpt>
      <trkpt lat="47.869" lon="6.79136">
        <ele>513.9</ele>
        <time>2022-09-13T12:28:35Z</time>
      </trkpt>
      <trkpt lat="47.86897" lon="6.79137">
        <ele>513.9</ele>
        <time>2022-09-13T12:28:36Z</time>
      </trkpt>
      <trkpt lat="47.86894" lon="6.7914">
        <ele>513.7</ele>
        <time>2022-09-13T12:28:37Z</time>
      </trkpt>
      <trkpt lat="47.8689" lon="6.79142">
        <ele>513.6</ele>
        <time>2022-09-13T12:28:38Z</time>
      </trkpt>
      <trkpt lat="47.86887" lon="6.79144">
        <ele>513.7</ele>
        <time>2022-09-13T12:28:39Z</time>
      </trkpt>
      <trkpt lat="47.86884" lon="6.79146">
        <ele>513.8</ele>
        <time>2022-09-13T12:28:40Z</time>
      </trkpt>
      <trkpt lat="47.86881" lon="6.79149">
        <ele>513.8</ele>
        <time>2022-09-13T12:28:41Z</time>
      </trkpt>
      <trkpt lat="47.86877" lon="6.79151">
        <ele>514</ele>
        <time>2022-09-13T12:28:42Z</time>
      </trkpt>
      <trkpt lat="47.86874" lon="6.79153">
        <ele>514.1</ele>
        <time>2022-09-13T12:28:43Z</time>
      </trkpt>
      <trkpt lat="47.8687" lon="6.79155">
        <ele>514.3</ele>
        <time>2022-09-13T12:28:44Z</time>
      </trkpt>
      <trkpt lat="47.86867" lon="6.79158">
        <ele>514.3</ele>
        <time>2022-09-13T12:28:45Z</time>
      </trkpt>
      <trkpt lat="47.86863" lon="6.7916">
        <ele>514.5</ele>
        <time>2022-09-13T12:28:46Z</time>
      </trkpt>
      <trkpt lat="47.86859" lon="6.79162">
        <ele>514.7</ele>
        <time>2022-09-13T12:28:47Z</time>
      </trkpt>
      <trkpt lat="47.86856" lon="6.79165">
        <ele>514.5</ele>
        <time>2022-09-13T12:28:48Z</time>
      </trkpt>
      <trkpt lat="47.86853" lon="6.79167">
        <ele>514.6</ele>
        <time>2022-09-13T12:28:49Z</time>
      </trkpt>
      <trkpt lat="47.8685" lon="6.79169">
        <ele>514.6</ele>
        <time>2022-09-13T12:28:50Z</time>
      </trkpt>
      <trkpt lat="47.86847" lon="6.79171">
        <ele>514.6</ele>
        <time>2022-09-13T12:28:51Z</time>
      </trkpt>
      <trkpt lat="47.86843" lon="6.79174">
        <ele>514.7</ele>
        <time>2022-09-13T12:28:52Z</time>
      </trkpt>
      <trkpt lat="47.8684" lon="6.79176">
        <ele>514.8</ele>
        <time>2022-09-13T12:28:53Z</time>
      </trkpt>
      <trkpt lat="47.86837" lon="6.79179">
        <ele>514.8</ele>
        <time>2022-09-13T12:28:54Z</time>
      </trkpt>
      <trkpt lat="47.86833" lon="6.79181">
        <ele>515</ele>
        <time>2022-09-13T12:28:55Z</time>
      </trkpt>
      <trkpt lat="47.8683" lon="6.79184">
        <ele>515</ele>
        <time>2022-09-13T12:28:56Z</time>
      </trkpt>
      <trkpt lat="47.86827" lon="6.79187">
        <ele>515.1</ele>
        <time>2022-09-13T12:28:57Z</time>
      </trkpt>
      <trkpt lat="47.86824" lon="6.7919">
        <ele>515</ele>
        <time>2022-09-13T12:28:58Z</time>
      </trkpt>
      <trkpt lat="47.86821" lon="6.79193">
        <ele>515</ele>
        <time>2022-09-13T12:28:59Z</time>
      </trkpt>
      <trkpt lat="47.86817" lon="6.79196">
        <ele>515.1</ele>
        <time>2022-09-13T12:29:00Z</time>
      </trkpt>
      <trkpt lat="47.86814" lon="6.79199">
        <ele>515.1</ele>
        <time>2022-09-13T12:29:01Z</time>
      </trkpt>
      <trkpt lat="47.86811" lon="6.79202">
        <ele>515.1</ele>
        <time>2022-09-13T12:29:02Z</time>
      </trkpt>
      <trkpt lat="47.86808" lon="6.79205">
        <ele>515.1</ele>
        <time>2022-09-13T12:29:03Z</time>
      </trkpt>
      <trkpt lat="47.86804" lon="6.79208">
        <ele>515.2</ele>
        <time>2022-09-13T12:29:04Z</time>
      </trkpt>
      <trkpt lat="47.86801" lon="6.79211">
        <ele>515.2</ele>
        <time>2022-09-13T12:29:05Z</time>
      </trkpt>
      <trkpt lat="47.86798" lon="6.79214">
        <ele>515.2</ele>
        <time>2022-09-13T12:29:06Z</time>
      </trkpt>
      <trkpt lat="47.86796" lon="6.79217">
        <ele>515.1</ele>
        <time>2022-09-13T12:29:07Z</time>
      </trkpt>
      <trkpt lat="47.86793" lon="6.7922">
        <ele>515.1</ele>
        <time>2022-09-13T12:29:08Z</time>
      </trkpt>
      <trkpt lat="47.86789" lon="6.79224">
        <ele>515.1</ele>
        <time>2022-09-13T12:29:09Z</time>
      </trkpt>
      <trkpt lat="47.86786" lon="6.79227">
        <ele>515.1</ele>
        <time>2022-09-13T12:29:10Z</time>
      </trkpt>
      <trkpt lat="47.86783" lon="6.79231">
        <ele>515</ele>
        <time>2022-09-13T12:29:11Z</time>
      </trkpt>
      <trkpt lat="47.8678" lon="6.79235">
        <ele>514.9</ele>
        <time>2022-09-13T12:29:12Z</time>
      </trkpt>
      <trkpt lat="47.86777" lon="6.79239">
        <ele>514.9</ele>
        <time>2022-09-13T12:29:13Z</time>
      </trkpt>
      <trkpt lat="47.86774" lon="6.79243">
        <ele>515.2</ele>
        <time>2022-09-13T12:29:14Z</time>
      </trkpt>
      <trkpt lat="47.86771" lon="6.79246">
        <ele>515.5</ele>
        <time>2022-09-13T12:29:15Z</time>
      </trkpt>
      <trkpt lat="47.86768" lon="6.7925">
        <ele>515.8</ele>
        <time>2022-09-13T12:29:16Z</time>
      </trkpt>
      <trkpt lat="47.86765" lon="6.79254">
        <ele>515.7</ele>
        <time>2022-09-13T12:29:17Z</time>
      </trkpt>
      <trkpt lat="47.86762" lon="6.79258">
        <ele>515.7</ele>
        <time>2022-09-13T12:29:18Z</time>
      </trkpt>
      <trkpt lat="47.86759" lon="6.79262">
        <ele>515.7</ele>
        <time>2022-09-13T12:29:19Z</time>
      </trkpt>
      <trkpt lat="47.86756" lon="6.79267">
        <ele>515.5</ele>
        <time>2022-09-13T12:29:20Z</time>
      </trkpt>
      <trkpt lat="47.86753" lon="6.79271">
        <ele>515.4</ele>
        <time>2022-09-13T12:29:21Z</time>
      </trkpt>
      <trkpt lat="47.8675" lon="6.79276">
        <ele>515.3</ele>
        <time>2022-09-13T12:29:22Z</time>
      </trkpt>
      <trkpt lat="47.86747" lon="6.7928">
        <ele>515.3</ele>
        <time>2022-09-13T12:29:23Z</time>
      </trkpt>
      <trkpt lat="47.86744" lon="6.79285">
        <ele>515.1</ele>
        <time>2022-09-13T12:29:24Z</time>
      </trkpt>
      <trkpt lat="47.86742" lon="6.7929">
        <ele>514.7</ele>
        <time>2022-09-13T12:29:25Z</time>
      </trkpt>
      <trkpt lat="47.86739" lon="6.79295">
        <ele>514.4</ele>
        <time>2022-09-13T12:29:26Z</time>
      </trkpt>
      <trkpt lat="47.86736" lon="6.793">
        <ele>514</ele>
        <time>2022-09-13T12:29:27Z</time>
      </trkpt>
      <trkpt lat="47.86734" lon="6.79305">
        <ele>513.4</ele>
        <time>2022-09-13T12:29:28Z</time>
      </trkpt>
      <trkpt lat="47.86731" lon="6.7931">
        <ele>513.8</ele>
        <time>2022-09-13T12:29:29Z</time>
      </trkpt>
      <trkpt lat="47.86729" lon="6.79315">
        <ele>514.2</ele>
        <time>2022-09-13T12:29:30Z</time>
      </trkpt>
      <trkpt lat="47.86726" lon="6.7932">
        <ele>514.6</ele>
        <time>2022-09-13T12:29:31Z</time>
      </trkpt>
      <trkpt lat="47.86723" lon="6.79325">
        <ele>514.9</ele>
        <time>2022-09-13T12:29:32Z</time>
      </trkpt>
      <trkpt lat="47.86721" lon="6.7933">
        <ele>515.1</ele>
        <time>2022-09-13T12:29:33Z</time>
      </trkpt>
      <trkpt lat="47.86718" lon="6.79335">
        <ele>515.1</ele>
        <time>2022-09-13T12:29:34Z</time>
      </trkpt>
      <trkpt lat="47.86716" lon="6.7934">
        <ele>514.8</ele>
        <time>2022-09-13T12:29:35Z</time>
      </trkpt>
      <trkpt lat="47.86714" lon="6.79344">
        <ele>514.7</ele>
        <time>2022-09-13T12:29:36Z</time>
      </trkpt>
      <trkpt lat="47.86711" lon="6.79349">
        <ele>514.6</ele>
        <time>2022-09-13T12:29:37Z</time>
      </trkpt>
      <trkpt lat="47.86709" lon="6.79355">
        <ele>514.4</ele>
        <time>2022-09-13T12:29:38Z</time>
      </trkpt>
      <trkpt lat="47.86707" lon="6.7936">
        <ele>514.3</ele>
        <time>2022-09-13T12:29:39Z</time>
      </trkpt>
      <trkpt lat="47.86705" lon="6.79365">
        <ele>514.5</ele>
        <time>2022-09-13T12:29:40Z</time>
      </trkpt>
      <trkpt lat="47.86703" lon="6.7937">
        <ele>514.9</ele>
        <time>2022-09-13T12:29:41Z</time>
      </trkpt>
      <trkpt lat="47.86701" lon="6.79375">
        <ele>515.2</ele>
        <time>2022-09-13T12:29:42Z</time>
      </trkpt>
      <trkpt lat="47.86699" lon="6.7938">
        <ele>515.5</ele>
        <time>2022-09-13T12:29:43Z</time>
      </trkpt>
      <trkpt lat="47.86697" lon="6.79385">
        <ele>515.7</ele>
        <time>2022-09-13T12:29:44Z</time>
      </trkpt>
      <trkpt lat="47.86695" lon="6.7939">
        <ele>515.8</ele>
        <time>2022-09-13T12:29:45Z</time>
      </trkpt>
      <trkpt lat="47.86693" lon="6.79394">
        <ele>515.5</ele>
        <time>2022-09-13T12:29:46Z</time>
      </trkpt>
      <trkpt lat="47.86691" lon="6.79399">
        <ele>515</ele>
        <time>2022-09-13T12:29:47Z</time>
      </trkpt>
      <trkpt lat="47.86689" lon="6.79404">
        <ele>514.6</ele>
        <time>2022-09-13T12:29:48Z</time>
      </trkpt>
      <trkpt lat="47.86688" lon="6.79409">
        <ele>514.2</ele>
        <time>2022-09-13T12:29:49Z</time>
      </trkpt>
      <trkpt lat="47.86686" lon="6.79414">
        <ele>513.8</ele>
        <time>2022-09-13T12:29:50Z</time>
      </trkpt>
      <trkpt lat="47.86684" lon="6.79419">
        <ele>513.6</ele>
        <time>2022-09-13T12:29:51Z</time>
      </trkpt>
      <trkpt lat="47.86683" lon="6.79424">
        <ele>513.5</ele>
        <time>2022-09-13T12:29:52Z</time>
      </trkpt>
      <trkpt lat="47.86681" lon="6.79429">
        <ele>513.5</ele>
        <time>2022-09-13T12:29:53Z</time>
      </trkpt>
      <trkpt lat="47.86679" lon="6.79434">
        <ele>513.6</ele>
        <time>2022-09-13T12:29:54Z</time>
      </trkpt>
      <trkpt lat="47.86678" lon="6.79439">
        <ele>513.5</ele>
        <time>2022-09-13T12:29:55Z</time>
      </trkpt>
      <trkpt lat="47.86676" lon="6.79444">
        <ele>513.7</ele>
        <time>2022-09-13T12:29:56Z</time>
      </trkpt>
      <trkpt lat="47.86675" lon="6.79449">
        <ele>514.1</ele>
        <time>2022-09-13T12:29:57Z</time>
      </trkpt>
      <trkpt lat="47.86673" lon="6.79454">
        <ele>514.7</ele>
        <time>2022-09-13T12:29:58Z</time>
      </trkpt>
      <trkpt lat="47.86672" lon="6.79459">
        <ele>515.2</ele>
        <time>2022-09-13T12:29:59Z</time>
      </trkpt>
      <trkpt lat="47.86671" lon="6.79464">
        <ele>515.7</ele>
        <time>2022-09-13T12:30:00Z</time>
      </trkpt>
      <trkpt lat="47.86669" lon="6.79469">
        <ele>516.4</ele>
        <time>2022-09-13T12:30:01Z</time>
      </trkpt>
      <trkpt lat="47.86668" lon="6.79474">
        <ele>516.7</ele>
        <time>2022-09-13T12:30:02Z</time>
      </trkpt>
      <trkpt lat="47.86667" lon="6.79479">
        <ele>516.7</ele>
        <time>2022-09-13T12:30:03Z</time>
      </trkpt>
      <trkpt lat="47.86665" lon="6.79484">
        <ele>516.6</ele>
        <time>2022-09-13T12:30:04Z</time>
      </trkpt>
      <trkpt lat="47.86665" lon="6.79489">
        <ele>516.5</ele>
        <time>2022-09-13T12:30:05Z</time>
      </trkpt>
      <trkpt lat="47.86664" lon="6.79494">
        <ele>516.4</ele>
        <time>2022-09-13T12:30:06Z</time>
      </trkpt>
      <trkpt lat="47.86663" lon="6.79499">
        <ele>516.3</ele>
        <time>2022-09-13T12:30:07Z</time>
      </trkpt>
      <trkpt lat="47.86662" lon="6.79504">
        <ele>516.4</ele>
        <time>2022-09-13T12:30:08Z</time>
      </trkpt>
      <trkpt lat="47.86662" lon="6.79509">
        <ele>516.4</ele>
        <time>2022-09-13T12:30:09Z</time>
      </trkpt>
      <trkpt lat="47.86661" lon="6.79513">
        <ele>516.6</ele>
        <time>2022-09-13T12:30:10Z</time>
      </trkpt>
      <trkpt lat="47.86661" lon="6.79517">
        <ele>516.7</ele>
        <time>2022-09-13T12:30:11Z</time>
      </trkpt>
      <trkpt lat="47.8666" lon="6.79521">
        <ele>516.8</ele>
        <time>2022-09-13T12:30:12Z</time>
      </trkpt>
      <trkpt lat="47.86659" lon="6.79525">
        <ele>517</ele>
        <time>2022-09-13T12:30:13Z</time>
      </trkpt>
      <trkpt lat="47.86659" lon="6.79527">
        <ele>517.1</ele>
        <time>2022-09-13T12:30:14Z</time>
      </trkpt>
      <trkpt lat="47.86659" lon="6.7953">
        <ele>517.2</ele>
        <time>2022-09-13T12:30:15Z</time>
      </trkpt>
      <trkpt lat="47.86658" lon="6.79533">
        <ele>517.4</ele>
        <time>2022-09-13T12:30:16Z</time>
      </trkpt>
      <trkpt lat="47.86658" lon="6.79537">
        <ele>517.5</ele>
        <time>2022-09-13T12:30:17Z</time>
      </trkpt>
      <trkpt lat="47.86658" lon="6.79541">
        <ele>517.6</ele>
        <time>2022-09-13T12:30:18Z</time>
      </trkpt>
      <trkpt lat="47.86657" lon="6.79547">
        <ele>517.8</ele>
        <time>2022-09-13T12:30:19Z</time>
      </trkpt>
      <trkpt lat="47.86656" lon="6.7955">
        <ele>518</ele>
        <time>2022-09-13T12:30:20Z</time>
      </trkpt>
      <trkpt lat="47.86656" lon="6.79556">
        <ele>518.1</ele>
        <time>2022-09-13T12:30:21Z</time>
      </trkpt>
      <trkpt lat="47.86655" lon="6.7956">
        <ele>518.2</ele>
        <time>2022-09-13T12:30:22Z</time>
      </trkpt>
      <trkpt lat="47.86654" lon="6.79565">
        <ele>518.2</ele>
        <time>2022-09-13T12:30:23Z</time>
      </trkpt>
      <trkpt lat="47.86654" lon="6.79569">
        <ele>518.1</ele>
        <time>2022-09-13T12:30:24Z</time>
      </trkpt>
      <trkpt lat="47.86653" lon="6.79574">
        <ele>518.1</ele>
        <time>2022-09-13T12:30:25Z</time>
      </trkpt>
      <trkpt lat="47.86653" lon="6.79579">
        <ele>518</ele>
        <time>2022-09-13T12:30:26Z</time>
      </trkpt>
      <trkpt lat="47.86652" lon="6.79583">
        <ele>518.1</ele>
        <time>2022-09-13T12:30:27Z</time>
      </trkpt>
      <trkpt lat="47.86652" lon="6.79589">
        <ele>517.8</ele>
        <time>2022-09-13T12:30:28Z</time>
      </trkpt>
      <trkpt lat="47.86651" lon="6.79594">
        <ele>517.7</ele>
        <time>2022-09-13T12:30:29Z</time>
      </trkpt>
      <trkpt lat="47.86651" lon="6.79599">
        <ele>517.4</ele>
        <time>2022-09-13T12:30:30Z</time>
      </trkpt>
      <trkpt lat="47.8665" lon="6.79604">
        <ele>517.2</ele>
        <time>2022-09-13T12:30:31Z</time>
      </trkpt>
      <trkpt lat="47.8665" lon="6.79609">
        <ele>516.9</ele>
        <time>2022-09-13T12:30:32Z</time>
      </trkpt>
      <trkpt lat="47.8665" lon="6.79615">
        <ele>516.9</ele>
        <time>2022-09-13T12:30:33Z</time>
      </trkpt>
      <trkpt lat="47.86649" lon="6.7962">
        <ele>517.2</ele>
        <time>2022-09-13T12:30:34Z</time>
      </trkpt>
      <trkpt lat="47.86649" lon="6.79625">
        <ele>517.4</ele>
        <time>2022-09-13T12:30:35Z</time>
      </trkpt>
      <trkpt lat="47.86649" lon="6.7963">
        <ele>517.6</ele>
        <time>2022-09-13T12:30:36Z</time>
      </trkpt>
      <trkpt lat="47.86648" lon="6.79635">
        <ele>517.9</ele>
        <time>2022-09-13T12:30:37Z</time>
      </trkpt>
      <trkpt lat="47.86648" lon="6.7964">
        <ele>518</ele>
        <time>2022-09-13T12:30:38Z</time>
      </trkpt>
      <trkpt lat="47.86647" lon="6.79646">
        <ele>518.2</ele>
        <time>2022-09-13T12:30:39Z</time>
      </trkpt>
      <trkpt lat="47.86647" lon="6.79651">
        <ele>518.3</ele>
        <time>2022-09-13T12:30:40Z</time>
      </trkpt>
      <trkpt lat="47.86646" lon="6.79656">
        <ele>518.5</ele>
        <time>2022-09-13T12:30:41Z</time>
      </trkpt>
      <trkpt lat="47.86646" lon="6.79662">
        <ele>518.6</ele>
        <time>2022-09-13T12:30:42Z</time>
      </trkpt>
      <trkpt lat="47.86646" lon="6.79667">
        <ele>518.7</ele>
        <time>2022-09-13T12:30:43Z</time>
      </trkpt>
      <trkpt lat="47.86645" lon="6.79672">
        <ele>518.8</ele>
        <time>2022-09-13T12:30:44Z</time>
      </trkpt>
      <trkpt lat="47.86645" lon="6.79677">
        <ele>518.6</ele>
        <time>2022-09-13T12:30:45Z</time>
      </trkpt>
      <trkpt lat="47.86644" lon="6.79683">
        <ele>518.6</ele>
        <time>2022-09-13T12:30:46Z</time>
      </trkpt>
      <trkpt lat="47.86644" lon="6.79688">
        <ele>518.5</ele>
        <time>2022-09-13T12:30:47Z</time>
      </trkpt>
      <trkpt lat="47.86644" lon="6.79693">
        <ele>518.3</ele>
        <time>2022-09-13T12:30:48Z</time>
      </trkpt>
      <trkpt lat="47.86643" lon="6.79698">
        <ele>518.4</ele>
        <time>2022-09-13T12:30:49Z</time>
      </trkpt>
      <trkpt lat="47.86643" lon="6.79703">
        <ele>518.5</ele>
        <time>2022-09-13T12:30:50Z</time>
      </trkpt>
      <trkpt lat="47.86643" lon="6.79709">
        <ele>518.5</ele>
        <time>2022-09-13T12:30:51Z</time>
      </trkpt>
      <trkpt lat="47.86642" lon="6.79714">
        <ele>518.6</ele>
        <time>2022-09-13T12:30:52Z</time>
      </trkpt>
      <trkpt lat="47.86642" lon="6.79719">
        <ele>518.7</ele>
        <time>2022-09-13T12:30:53Z</time>
      </trkpt>
      <trkpt lat="47.86641" lon="6.79724">
        <ele>518.8</ele>
        <time>2022-09-13T12:30:54Z</time>
      </trkpt>
      <trkpt lat="47.86641" lon="6.7973">
        <ele>518.8</ele>
        <time>2022-09-13T12:30:55Z</time>
      </trkpt>
      <trkpt lat="47.86641" lon="6.79735">
        <ele>518.8</ele>
        <time>2022-09-13T12:30:56Z</time>
      </trkpt>
      <trkpt lat="47.8664" lon="6.7974">
        <ele>518.9</ele>
        <time>2022-09-13T12:30:57Z</time>
      </trkpt>
      <trkpt lat="47.8664" lon="6.79745">
        <ele>518.9</ele>
        <time>2022-09-13T12:30:58Z</time>
      </trkpt>
      <trkpt lat="47.8664" lon="6.7975">
        <ele>518.9</ele>
        <time>2022-09-13T12:30:59Z</time>
      </trkpt>
      <trkpt lat="47.8664" lon="6.79756">
        <ele>518.9</ele>
        <time>2022-09-13T12:31:00Z</time>
      </trkpt>
      <trkpt lat="47.86639" lon="6.79761">
        <ele>519</ele>
        <time>2022-09-13T12:31:01Z</time>
      </trkpt>
      <trkpt lat="47.86639" lon="6.79767">
        <ele>519</ele>
        <time>2022-09-13T12:31:02Z</time>
      </trkpt>
      <trkpt lat="47.86639" lon="6.79772">
        <ele>519</ele>
        <time>2022-09-13T12:31:03Z</time>
      </trkpt>
      <trkpt lat="47.86638" lon="6.79777">
        <ele>519.2</ele>
        <time>2022-09-13T12:31:04Z</time>
      </trkpt>
      <trkpt lat="47.86638" lon="6.79783">
        <ele>519.4</ele>
        <time>2022-09-13T12:31:05Z</time>
      </trkpt>
      <trkpt lat="47.86637" lon="6.79788">
        <ele>519.8</ele>
        <time>2022-09-13T12:31:06Z</time>
      </trkpt>
      <trkpt lat="47.86637" lon="6.79793">
        <ele>519.9</ele>
        <time>2022-09-13T12:31:07Z</time>
      </trkpt>
      <trkpt lat="47.86637" lon="6.79799">
        <ele>520.1</ele>
        <time>2022-09-13T12:31:08Z</time>
      </trkpt>
      <trkpt lat="47.86636" lon="6.79804">
        <ele>520.5</ele>
        <time>2022-09-13T12:31:09Z</time>
      </trkpt>
      <trkpt lat="47.86636" lon="6.79809">
        <ele>520.5</ele>
        <time>2022-09-13T12:31:10Z</time>
      </trkpt>
      <trkpt lat="47.86636" lon="6.79814">
        <ele>520.5</ele>
        <time>2022-09-13T12:31:11Z</time>
      </trkpt>
      <trkpt lat="47.86636" lon="6.7982">
        <ele>520.5</ele>
        <time>2022-09-13T12:31:12Z</time>
      </trkpt>
      <trkpt lat="47.86636" lon="6.79825">
        <ele>520.5</ele>
        <time>2022-09-13T12:31:13Z</time>
      </trkpt>
      <trkpt lat="47.86635" lon="6.7983">
        <ele>520.7</ele>
        <time>2022-09-13T12:31:14Z</time>
      </trkpt>
      <trkpt lat="47.86635" lon="6.79836">
        <ele>520.7</ele>
        <time>2022-09-13T12:31:15Z</time>
      </trkpt>
      <trkpt lat="47.86635" lon="6.79841">
        <ele>520.6</ele>
        <time>2022-09-13T12:31:16Z</time>
      </trkpt>
      <trkpt lat="47.86635" lon="6.79847">
        <ele>520.6</ele>
        <time>2022-09-13T12:31:17Z</time>
      </trkpt>
      <trkpt lat="47.86634" lon="6.79852">
        <ele>520.6</ele>
        <time>2022-09-13T12:31:18Z</time>
      </trkpt>
      <trkpt lat="47.86634" lon="6.79858">
        <ele>520.6</ele>
        <time>2022-09-13T12:31:19Z</time>
      </trkpt>
      <trkpt lat="47.86634" lon="6.79863">
        <ele>520.6</ele>
        <time>2022-09-13T12:31:20Z</time>
      </trkpt>
      <trkpt lat="47.86634" lon="6.79868">
        <ele>520.7</ele>
        <time>2022-09-13T12:31:21Z</time>
      </trkpt>
      <trkpt lat="47.86633" lon="6.79872">
        <ele>520.9</ele>
        <time>2022-09-13T12:31:22Z</time>
      </trkpt>
      <trkpt lat="47.86633" lon="6.79876">
        <ele>520.9</ele>
        <time>2022-09-13T12:31:23Z</time>
      </trkpt>
      <trkpt lat="47.86632" lon="6.7988">
        <ele>521.1</ele>
        <time>2022-09-13T12:31:24Z</time>
      </trkpt>
      <trkpt lat="47.86632" lon="6.79882">
        <ele>521.1</ele>
        <time>2022-09-13T12:31:25Z</time>
      </trkpt>
      <trkpt lat="47.86631" lon="6.79885">
        <ele>521.2</ele>
        <time>2022-09-13T12:31:26Z</time>
      </trkpt>
      <trkpt lat="47.86631" lon="6.79888">
        <ele>521.3</ele>
        <time>2022-09-13T12:31:27Z</time>
      </trkpt>
      <trkpt lat="47.86631" lon="6.79892">
        <ele>521.1</ele>
        <time>2022-09-13T12:31:28Z</time>
      </trkpt>
      <trkpt lat="47.86631" lon="6.79896">
        <ele>520.9</ele>
        <time>2022-09-13T12:31:29Z</time>
      </trkpt>
      <trkpt lat="47.8663" lon="6.799">
        <ele>520.8</ele>
        <time>2022-09-13T12:31:30Z</time>
      </trkpt>
      <trkpt lat="47.8663" lon="6.79906">
        <ele>520.5</ele>
        <time>2022-09-13T12:31:31Z</time>
      </trkpt>
      <trkpt lat="47.86631" lon="6.79911">
        <ele>520.1</ele>
        <time>2022-09-13T12:31:32Z</time>
      </trkpt>
      <trkpt lat="47.8663" lon="6.79915">
        <ele>520</ele>
        <time>2022-09-13T12:31:33Z</time>
      </trkpt>
      <trkpt lat="47.8663" lon="6.79918">
        <ele>519.9</ele>
        <time>2022-09-13T12:31:34Z</time>
      </trkpt>
      <trkpt lat="47.86629" lon="6.79921">
        <ele>520</ele>
        <time>2022-09-13T12:31:35Z</time>
      </trkpt>
      <trkpt lat="47.86629" lon="6.79924">
        <ele>520</ele>
        <time>2022-09-13T12:31:36Z</time>
      </trkpt>
      <trkpt lat="47.86628" lon="6.79931">
        <ele>520</ele>
        <time>2022-09-13T12:31:37Z</time>
      </trkpt>
      <trkpt lat="47.86628" lon="6.79935">
        <ele>519.9</ele>
        <time>2022-09-13T12:31:38Z</time>
      </trkpt>
      <trkpt lat="47.86627" lon="6.7994">
        <ele>519.9</ele>
        <time>2022-09-13T12:31:39Z</time>
      </trkpt>
      <trkpt lat="47.86627" lon="6.79945">
        <ele>519.9</ele>
        <time>2022-09-13T12:31:40Z</time>
      </trkpt>
      <trkpt lat="47.86626" lon="6.7995">
        <ele>519.9</ele>
        <time>2022-09-13T12:31:41Z</time>
      </trkpt>
      <trkpt lat="47.86626" lon="6.79955">
        <ele>519.9</ele>
        <time>2022-09-13T12:31:42Z</time>
      </trkpt>
      <trkpt lat="47.86626" lon="6.7996">
        <ele>519.9</ele>
        <time>2022-09-13T12:31:43Z</time>
      </trkpt>
      <trkpt lat="47.86625" lon="6.79965">
        <ele>520</ele>
        <time>2022-09-13T12:31:44Z</time>
      </trkpt>
      <trkpt lat="47.86625" lon="6.7997">
        <ele>520</ele>
        <time>2022-09-13T12:31:45Z</time>
      </trkpt>
      <trkpt lat="47.86624" lon="6.79975">
        <ele>520.1</ele>
        <time>2022-09-13T12:31:46Z</time>
      </trkpt>
      <trkpt lat="47.86624" lon="6.79981">
        <ele>520.2</ele>
        <time>2022-09-13T12:31:47Z</time>
      </trkpt>
      <trkpt lat="47.86624" lon="6.79986">
        <ele>520.3</ele>
        <time>2022-09-13T12:31:48Z</time>
      </trkpt>
      <trkpt lat="47.86623" lon="6.79992">
        <ele>520.6</ele>
        <time>2022-09-13T12:31:49Z</time>
      </trkpt>
      <trkpt lat="47.86623" lon="6.79997">
        <ele>520.7</ele>
        <time>2022-09-13T12:31:50Z</time>
      </trkpt>
      <trkpt lat="47.86623" lon="6.80002">
        <ele>520.7</ele>
        <time>2022-09-13T12:31:51Z</time>
      </trkpt>
      <trkpt lat="47.86622" lon="6.80008">
        <ele>520.8</ele>
        <time>2022-09-13T12:31:52Z</time>
      </trkpt>
      <trkpt lat="47.86622" lon="6.80013">
        <ele>520.8</ele>
        <time>2022-09-13T12:31:53Z</time>
      </trkpt>
      <trkpt lat="47.86622" lon="6.80018">
        <ele>520.8</ele>
        <time>2022-09-13T12:31:54Z</time>
      </trkpt>
      <trkpt lat="47.86621" lon="6.80024">
        <ele>520.9</ele>
        <time>2022-09-13T12:31:55Z</time>
      </trkpt>
      <trkpt lat="47.86621" lon="6.80029">
        <ele>520.9</ele>
        <time>2022-09-13T12:31:56Z</time>
      </trkpt>
      <trkpt lat="47.8662" lon="6.80035">
        <ele>521.1</ele>
        <time>2022-09-13T12:31:57Z</time>
      </trkpt>
      <trkpt lat="47.8662" lon="6.8004">
        <ele>521.2</ele>
        <time>2022-09-13T12:31:58Z</time>
      </trkpt>
      <trkpt lat="47.86619" lon="6.80046">
        <ele>521.3</ele>
        <time>2022-09-13T12:31:59Z</time>
      </trkpt>
      <trkpt lat="47.86619" lon="6.80051">
        <ele>521.4</ele>
        <time>2022-09-13T12:32:00Z</time>
      </trkpt>
      <trkpt lat="47.86618" lon="6.80057">
        <ele>521.5</ele>
        <time>2022-09-13T12:32:01Z</time>
      </trkpt>
      <trkpt lat="47.86617" lon="6.80062">
        <ele>521.6</ele>
        <time>2022-09-13T12:32:02Z</time>
      </trkpt>
      <trkpt lat="47.86617" lon="6.80067">
        <ele>521.6</ele>
        <time>2022-09-13T12:32:03Z</time>
      </trkpt>
      <trkpt lat="47.86616" lon="6.80072">
        <ele>521.6</ele>
        <time>2022-09-13T12:32:04Z</time>
      </trkpt>
      <trkpt lat="47.86616" lon="6.80078">
        <ele>521.6</ele>
        <time>2022-09-13T12:32:05Z</time>
      </trkpt>
      <trkpt lat="47.86615" lon="6.80083">
        <ele>521.7</ele>
        <time>2022-09-13T12:32:06Z</time>
      </trkpt>
      <trkpt lat="47.86614" lon="6.80088">
        <ele>521.8</ele>
        <time>2022-09-13T12:32:07Z</time>
      </trkpt>
      <trkpt lat="47.86613" lon="6.80094">
        <ele>521.9</ele>
        <time>2022-09-13T12:32:08Z</time>
      </trkpt>
      <trkpt lat="47.86612" lon="6.80099">
        <ele>521.9</ele>
        <time>2022-09-13T12:32:09Z</time>
      </trkpt>
      <trkpt lat="47.86612" lon="6.80104">
        <ele>521.9</ele>
        <time>2022-09-13T12:32:10Z</time>
      </trkpt>
      <trkpt lat="47.86611" lon="6.8011">
        <ele>522</ele>
        <time>2022-09-13T12:32:11Z</time>
      </trkpt>
      <trkpt lat="47.8661" lon="6.80115">
        <ele>521.9</ele>
        <time>2022-09-13T12:32:12Z</time>
      </trkpt>
      <trkpt lat="47.86609" lon="6.8012">
        <ele>521.8</ele>
        <time>2022-09-13T12:32:13Z</time>
      </trkpt>
      <trkpt lat="47.86608" lon="6.80125">
        <ele>521.7</ele>
        <time>2022-09-13T12:32:14Z</time>
      </trkpt>
      <trkpt lat="47.86607" lon="6.8013">
        <ele>521.6</ele>
        <time>2022-09-13T12:32:15Z</time>
      </trkpt>
      <trkpt lat="47.86606" lon="6.80135">
        <ele>521.5</ele>
        <time>2022-09-13T12:32:16Z</time>
      </trkpt>
      <trkpt lat="47.86605" lon="6.8014">
        <ele>521.5</ele>
        <time>2022-09-13T12:32:17Z</time>
      </trkpt>
      <trkpt lat="47.86603" lon="6.80145">
        <ele>521.7</ele>
        <time>2022-09-13T12:32:18Z</time>
      </trkpt>
      <trkpt lat="47.86602" lon="6.80151">
        <ele>521.8</ele>
        <time>2022-09-13T12:32:19Z</time>
      </trkpt>
      <trkpt lat="47.86601" lon="6.80156">
        <ele>521.9</ele>
        <time>2022-09-13T12:32:20Z</time>
      </trkpt>
      <trkpt lat="47.866" lon="6.80161">
        <ele>522</ele>
        <time>2022-09-13T12:32:21Z</time>
      </trkpt>
      <trkpt lat="47.86598" lon="6.80166">
        <ele>522</ele>
        <time>2022-09-13T12:32:22Z</time>
      </trkpt>
      <trkpt lat="47.86597" lon="6.80171">
        <ele>522.1</ele>
        <time>2022-09-13T12:32:23Z</time>
      </trkpt>
      <trkpt lat="47.86596" lon="6.80176">
        <ele>522.2</ele>
        <time>2022-09-13T12:32:24Z</time>
      </trkpt>
      <trkpt lat="47.86594" lon="6.80181">
        <ele>522.3</ele>
        <time>2022-09-13T12:32:25Z</time>
      </trkpt>
      <trkpt lat="47.86593" lon="6.80186">
        <ele>522.5</ele>
        <time>2022-09-13T12:32:26Z</time>
      </trkpt>
      <trkpt lat="47.86591" lon="6.80191">
        <ele>522.6</ele>
        <time>2022-09-13T12:32:27Z</time>
      </trkpt>
      <trkpt lat="47.8659" lon="6.80196">
        <ele>522.8</ele>
        <time>2022-09-13T12:32:28Z</time>
      </trkpt>
      <trkpt lat="47.86589" lon="6.80201">
        <ele>522.9</ele>
        <time>2022-09-13T12:32:29Z</time>
      </trkpt>
      <trkpt lat="47.86587" lon="6.80206">
        <ele>523</ele>
        <time>2022-09-13T12:32:30Z</time>
      </trkpt>
      <trkpt lat="47.86586" lon="6.8021">
        <ele>523</ele>
        <time>2022-09-13T12:32:31Z</time>
      </trkpt>
      <trkpt lat="47.86584" lon="6.80215">
        <ele>523</ele>
        <time>2022-09-13T12:32:32Z</time>
      </trkpt>
      <trkpt lat="47.86582" lon="6.8022">
        <ele>523.1</ele>
        <time>2022-09-13T12:32:33Z</time>
      </trkpt>
      <trkpt lat="47.86581" lon="6.80225">
        <ele>523.1</ele>
        <time>2022-09-13T12:32:34Z</time>
      </trkpt>
      <trkpt lat="47.86579" lon="6.8023">
        <ele>522.9</ele>
        <time>2022-09-13T12:32:35Z</time>
      </trkpt>
      <trkpt lat="47.86577" lon="6.80235">
        <ele>522.8</ele>
        <time>2022-09-13T12:32:36Z</time>
      </trkpt>
      <trkpt lat="47.86575" lon="6.80239">
        <ele>522.7</ele>
        <time>2022-09-13T12:32:37Z</time>
      </trkpt>
      <trkpt lat="47.86573" lon="6.80244">
        <ele>522.5</ele>
        <time>2022-09-13T12:32:38Z</time>
      </trkpt>
      <trkpt lat="47.86571" lon="6.80248">
        <ele>522.5</ele>
        <time>2022-09-13T12:32:39Z</time>
      </trkpt>
      <trkpt lat="47.8657" lon="6.80253">
        <ele>522.5</ele>
        <time>2022-09-13T12:32:40Z</time>
      </trkpt>
      <trkpt lat="47.86568" lon="6.80258">
        <ele>522.9</ele>
        <time>2022-09-13T12:32:41Z</time>
      </trkpt>
      <trkpt lat="47.86566" lon="6.80262">
        <ele>523.3</ele>
        <time>2022-09-13T12:32:42Z</time>
      </trkpt>
      <trkpt lat="47.86563" lon="6.80267">
        <ele>523.8</ele>
        <time>2022-09-13T12:32:43Z</time>
      </trkpt>
      <trkpt lat="47.86561" lon="6.80271">
        <ele>524.2</ele>
        <time>2022-09-13T12:32:44Z</time>
      </trkpt>
      <trkpt lat="47.86559" lon="6.80276">
        <ele>524.6</ele>
        <time>2022-09-13T12:32:45Z</time>
      </trkpt>
      <trkpt lat="47.86557" lon="6.8028">
        <ele>524.6</ele>
        <time>2022-09-13T12:32:46Z</time>
      </trkpt>
      <trkpt lat="47.86555" lon="6.80285">
        <ele>524.3</ele>
        <time>2022-09-13T12:32:47Z</time>
      </trkpt>
      <trkpt lat="47.86553" lon="6.80289">
        <ele>524</ele>
        <time>2022-09-13T12:32:48Z</time>
      </trkpt>
      <trkpt lat="47.86551" lon="6.80294">
        <ele>523.6</ele>
        <time>2022-09-13T12:32:49Z</time>
      </trkpt>
      <trkpt lat="47.86549" lon="6.80298">
        <ele>523.4</ele>
        <time>2022-09-13T12:32:50Z</time>
      </trkpt>
      <trkpt lat="47.86547" lon="6.80302">
        <ele>523</ele>
        <time>2022-09-13T12:32:51Z</time>
      </trkpt>
      <trkpt lat="47.86544" lon="6.80307">
        <ele>522.9</ele>
        <time>2022-09-13T12:32:52Z</time>
      </trkpt>
      <trkpt lat="47.86542" lon="6.80311">
        <ele>523.2</ele>
        <time>2022-09-13T12:32:53Z</time>
      </trkpt>
      <trkpt lat="47.8654" lon="6.80315">
        <ele>523.5</ele>
        <time>2022-09-13T12:32:54Z</time>
      </trkpt>
      <trkpt lat="47.86538" lon="6.80319">
        <ele>523.7</ele>
        <time>2022-09-13T12:32:55Z</time>
      </trkpt>
      <trkpt lat="47.86535" lon="6.80323">
        <ele>524.1</ele>
        <time>2022-09-13T12:32:56Z</time>
      </trkpt>
      <trkpt lat="47.86533" lon="6.80327">
        <ele>524.4</ele>
        <time>2022-09-13T12:32:57Z</time>
      </trkpt>
      <trkpt lat="47.8653" lon="6.80331">
        <ele>524.8</ele>
        <time>2022-09-13T12:32:58Z</time>
      </trkpt>
      <trkpt lat="47.86528" lon="6.80335">
        <ele>524.9</ele>
        <time>2022-09-13T12:32:59Z</time>
      </trkpt>
      <trkpt lat="47.86525" lon="6.80339">
        <ele>524.7</ele>
        <time>2022-09-13T12:33:00Z</time>
      </trkpt>
      <trkpt lat="47.86523" lon="6.80343">
        <ele>524.5</ele>
        <time>2022-09-13T12:33:01Z</time>
      </trkpt>
      <trkpt lat="47.8652" lon="6.80347">
        <ele>524.4</ele>
        <time>2022-09-13T12:33:02Z</time>
      </trkpt>
      <trkpt lat="47.86517" lon="6.80351">
        <ele>524.4</ele>
        <time>2022-09-13T12:33:03Z</time>
      </trkpt>
      <trkpt lat="47.86515" lon="6.80355">
        <ele>524.3</ele>
        <time>2022-09-13T12:33:04Z</time>
      </trkpt>
      <trkpt lat="47.86512" lon="6.80359">
        <ele>524.2</ele>
        <time>2022-09-13T12:33:05Z</time>
      </trkpt>
      <trkpt lat="47.86509" lon="6.80362">
        <ele>524.3</ele>
        <time>2022-09-13T12:33:06Z</time>
      </trkpt>
      <trkpt lat="47.86506" lon="6.80366">
        <ele>524.4</ele>
        <time>2022-09-13T12:33:07Z</time>
      </trkpt>
      <trkpt lat="47.86504" lon="6.8037">
        <ele>524.4</ele>
        <time>2022-09-13T12:33:08Z</time>
      </trkpt>
      <trkpt lat="47.86501" lon="6.80373">
        <ele>524.5</ele>
        <time>2022-09-13T12:33:09Z</time>
      </trkpt>
      <trkpt lat="47.86498" lon="6.80376">
        <ele>524.6</ele>
        <time>2022-09-13T12:33:10Z</time>
      </trkpt>
      <trkpt lat="47.86495" lon="6.8038">
        <ele>524.8</ele>
        <time>2022-09-13T12:33:11Z</time>
      </trkpt>
      <trkpt lat="47.86492" lon="6.80384">
        <ele>525</ele>
        <time>2022-09-13T12:33:12Z</time>
      </trkpt>
      <trkpt lat="47.86489" lon="6.80387">
        <ele>525.2</ele>
        <time>2022-09-13T12:33:13Z</time>
      </trkpt>
      <trkpt lat="47.86486" lon="6.8039">
        <ele>525.5</ele>
        <time>2022-09-13T12:33:14Z</time>
      </trkpt>
      <trkpt lat="47.86483" lon="6.80394">
        <ele>525.7</ele>
        <time>2022-09-13T12:33:15Z</time>
      </trkpt>
      <trkpt lat="47.8648" lon="6.80397">
        <ele>525.9</ele>
        <time>2022-09-13T12:33:16Z</time>
      </trkpt>
      <trkpt lat="47.86477" lon="6.804">
        <ele>526.2</ele>
        <time>2022-09-13T12:33:17Z</time>
      </trkpt>
      <trkpt lat="47.86474" lon="6.80404">
        <ele>526.3</ele>
        <time>2022-09-13T12:33:18Z</time>
      </trkpt>
      <trkpt lat="47.86471" lon="6.80407">
        <ele>526.4</ele>
        <time>2022-09-13T12:33:19Z</time>
      </trkpt>
      <trkpt lat="47.86468" lon="6.8041">
        <ele>526.5</ele>
        <time>2022-09-13T12:33:20Z</time>
      </trkpt>
      <trkpt lat="47.86465" lon="6.80413">
        <ele>526.7</ele>
        <time>2022-09-13T12:33:21Z</time>
      </trkpt>
      <trkpt lat="47.86462" lon="6.80416">
        <ele>526.8</ele>
        <time>2022-09-13T12:33:22Z</time>
      </trkpt>
      <trkpt lat="47.86459" lon="6.80419">
        <ele>526.9</ele>
        <time>2022-09-13T12:33:23Z</time>
      </trkpt>
      <trkpt lat="47.86456" lon="6.80422">
        <ele>527</ele>
        <time>2022-09-13T12:33:24Z</time>
      </trkpt>
      <trkpt lat="47.86453" lon="6.80425">
        <ele>527.1</ele>
        <time>2022-09-13T12:33:25Z</time>
      </trkpt>
      <trkpt lat="47.8645" lon="6.80428">
        <ele>527.2</ele>
        <time>2022-09-13T12:33:26Z</time>
      </trkpt>
      <trkpt lat="47.86447" lon="6.80431">
        <ele>527.3</ele>
        <time>2022-09-13T12:33:27Z</time>
      </trkpt>
      <trkpt lat="47.86444" lon="6.80434">
        <ele>527.4</ele>
        <time>2022-09-13T12:33:28Z</time>
      </trkpt>
      <trkpt lat="47.8644" lon="6.80437">
        <ele>527.6</ele>
        <time>2022-09-13T12:33:29Z</time>
      </trkpt>
      <trkpt lat="47.86437" lon="6.80439">
        <ele>527.6</ele>
        <time>2022-09-13T12:33:30Z</time>
      </trkpt>
      <trkpt lat="47.86434" lon="6.80442">
        <ele>527.6</ele>
        <time>2022-09-13T12:33:31Z</time>
      </trkpt>
      <trkpt lat="47.86431" lon="6.80444">
        <ele>527.5</ele>
        <time>2022-09-13T12:33:32Z</time>
      </trkpt>
      <trkpt lat="47.86428" lon="6.80447">
        <ele>527.4</ele>
        <time>2022-09-13T12:33:33Z</time>
      </trkpt>
      <trkpt lat="47.86424" lon="6.80449">
        <ele>527.4</ele>
        <time>2022-09-13T12:33:34Z</time>
      </trkpt>
      <trkpt lat="47.86421" lon="6.80451">
        <ele>527.3</ele>
        <time>2022-09-13T12:33:35Z</time>
      </trkpt>
      <trkpt lat="47.86418" lon="6.80454">
        <ele>527.2</ele>
        <time>2022-09-13T12:33:36Z</time>
      </trkpt>
      <trkpt lat="47.86414" lon="6.80456">
        <ele>527.3</ele>
        <time>2022-09-13T12:33:37Z</time>
      </trkpt>
      <trkpt lat="47.86411" lon="6.80458">
        <ele>527.3</ele>
        <time>2022-09-13T12:33:38Z</time>
      </trkpt>
      <trkpt lat="47.86408" lon="6.8046">
        <ele>527.4</ele>
        <time>2022-09-13T12:33:39Z</time>
      </trkpt>
      <trkpt lat="47.86404" lon="6.80463">
        <ele>527.4</ele>
        <time>2022-09-13T12:33:40Z</time>
      </trkpt>
      <trkpt lat="47.86401" lon="6.80465">
        <ele>527.5</ele>
        <time>2022-09-13T12:33:41Z</time>
      </trkpt>
      <trkpt lat="47.86397" lon="6.80467">
        <ele>527.7</ele>
        <time>2022-09-13T12:33:42Z</time>
      </trkpt>
      <trkpt lat="47.86394" lon="6.80469">
        <ele>527.8</ele>
        <time>2022-09-13T12:33:43Z</time>
      </trkpt>
      <trkpt lat="47.8639" lon="6.80472">
        <ele>527.9</ele>
        <time>2022-09-13T12:33:44Z</time>
      </trkpt>
      <trkpt lat="47.86387" lon="6.80474">
        <ele>528</ele>
        <time>2022-09-13T12:33:45Z</time>
      </trkpt>
      <trkpt lat="47.86383" lon="6.80476">
        <ele>528.1</ele>
        <time>2022-09-13T12:33:46Z</time>
      </trkpt>
      <trkpt lat="47.8638" lon="6.80477">
        <ele>528.2</ele>
        <time>2022-09-13T12:33:47Z</time>
      </trkpt>
      <trkpt lat="47.86376" lon="6.80479">
        <ele>528.3</ele>
        <time>2022-09-13T12:33:48Z</time>
      </trkpt>
      <trkpt lat="47.86372" lon="6.80481">
        <ele>528.4</ele>
        <time>2022-09-13T12:33:49Z</time>
      </trkpt>
      <trkpt lat="47.86369" lon="6.80483">
        <ele>528.4</ele>
        <time>2022-09-13T12:33:50Z</time>
      </trkpt>
      <trkpt lat="47.86365" lon="6.80484">
        <ele>528.5</ele>
        <time>2022-09-13T12:33:51Z</time>
      </trkpt>
      <trkpt lat="47.86361" lon="6.80486">
        <ele>528.5</ele>
        <time>2022-09-13T12:33:52Z</time>
      </trkpt>
      <trkpt lat="47.86358" lon="6.80488">
        <ele>528.6</ele>
        <time>2022-09-13T12:33:53Z</time>
      </trkpt>
      <trkpt lat="47.86354" lon="6.80489">
        <ele>528.8</ele>
        <time>2022-09-13T12:33:54Z</time>
      </trkpt>
      <trkpt lat="47.8635" lon="6.80491">
        <ele>528.9</ele>
        <time>2022-09-13T12:33:55Z</time>
      </trkpt>
      <trkpt lat="47.86347" lon="6.80492">
        <ele>529</ele>
        <time>2022-09-13T12:33:56Z</time>
      </trkpt>
      <trkpt lat="47.86343" lon="6.80494">
        <ele>529.1</ele>
        <time>2022-09-13T12:33:57Z</time>
      </trkpt>
      <trkpt lat="47.8634" lon="6.80495">
        <ele>529.2</ele>
        <time>2022-09-13T12:33:58Z</time>
      </trkpt>
      <trkpt lat="47.86336" lon="6.80496">
        <ele>529.4</ele>
        <time>2022-09-13T12:33:59Z</time>
      </trkpt>
      <trkpt lat="47.86332" lon="6.80498">
        <ele>529.3</ele>
        <time>2022-09-13T12:34:00Z</time>
      </trkpt>
      <trkpt lat="47.86329" lon="6.80499">
        <ele>529.3</ele>
        <time>2022-09-13T12:34:01Z</time>
      </trkpt>
      <trkpt lat="47.86325" lon="6.805">
        <ele>529.3</ele>
        <time>2022-09-13T12:34:02Z</time>
      </trkpt>
      <trkpt lat="47.86322" lon="6.805">
        <ele>529.4</ele>
        <time>2022-09-13T12:34:03Z</time>
      </trkpt>
      <trkpt lat="47.86318" lon="6.80501">
        <ele>529.5</ele>
        <time>2022-09-13T12:34:04Z</time>
      </trkpt>
      <trkpt lat="47.86315" lon="6.80502">
        <ele>529.7</ele>
        <time>2022-09-13T12:34:05Z</time>
      </trkpt>
      <trkpt lat="47.86311" lon="6.80503">
        <ele>529.8</ele>
        <time>2022-09-13T12:34:06Z</time>
      </trkpt>
      <trkpt lat="47.86307" lon="6.80504">
        <ele>530.1</ele>
        <time>2022-09-13T12:34:07Z</time>
      </trkpt>
      <trkpt lat="47.86304" lon="6.80504">
        <ele>530.1</ele>
        <time>2022-09-13T12:34:08Z</time>
      </trkpt>
      <trkpt lat="47.863" lon="6.80504">
        <ele>530.1</ele>
        <time>2022-09-13T12:34:09Z</time>
      </trkpt>
      <trkpt lat="47.86297" lon="6.80505">
        <ele>530.1</ele>
        <time>2022-09-13T12:34:10Z</time>
      </trkpt>
      <trkpt lat="47.86293" lon="6.80505">
        <ele>530.1</ele>
        <time>2022-09-13T12:34:11Z</time>
      </trkpt>
      <trkpt lat="47.86289" lon="6.80506">
        <ele>530.1</ele>
        <time>2022-09-13T12:34:12Z</time>
      </trkpt>
      <trkpt lat="47.86286" lon="6.80506">
        <ele>530.1</ele>
        <time>2022-09-13T12:34:13Z</time>
      </trkpt>
      <trkpt lat="47.86282" lon="6.80506">
        <ele>530.1</ele>
        <time>2022-09-13T12:34:14Z</time>
      </trkpt>
      <trkpt lat="47.86278" lon="6.80507">
        <ele>530.3</ele>
        <time>2022-09-13T12:34:15Z</time>
      </trkpt>
      <trkpt lat="47.86275" lon="6.80507">
        <ele>530.5</ele>
        <time>2022-09-13T12:34:16Z</time>
      </trkpt>
      <trkpt lat="47.86271" lon="6.80508">
        <ele>531</ele>
        <time>2022-09-13T12:34:17Z</time>
      </trkpt>
      <trkpt lat="47.86267" lon="6.80508">
        <ele>531.3</ele>
        <time>2022-09-13T12:34:18Z</time>
      </trkpt>
      <trkpt lat="47.86263" lon="6.80508">
        <ele>531.6</ele>
        <time>2022-09-13T12:34:19Z</time>
      </trkpt>
      <trkpt lat="47.8626" lon="6.80508">
        <ele>531.9</ele>
        <time>2022-09-13T12:34:20Z</time>
      </trkpt>
      <trkpt lat="47.86256" lon="6.80508">
        <ele>532.2</ele>
        <time>2022-09-13T12:34:21Z</time>
      </trkpt>
      <trkpt lat="47.86252" lon="6.80507">
        <ele>532.6</ele>
        <time>2022-09-13T12:34:22Z</time>
      </trkpt>
      <trkpt lat="47.86249" lon="6.80507">
        <ele>532.6</ele>
        <time>2022-09-13T12:34:23Z</time>
      </trkpt>
      <trkpt lat="47.86245" lon="6.80506">
        <ele>532.2</ele>
        <time>2022-09-13T12:34:24Z</time>
      </trkpt>
      <trkpt lat="47.86242" lon="6.80505">
        <ele>531.9</ele>
        <time>2022-09-13T12:34:25Z</time>
      </trkpt>
      <trkpt lat="47.86238" lon="6.80505">
        <ele>531.4</ele>
        <time>2022-09-13T12:34:26Z</time>
      </trkpt>
      <trkpt lat="47.86234" lon="6.80505">
        <ele>530.9</ele>
        <time>2022-09-13T12:34:27Z</time>
      </trkpt>
      <trkpt lat="47.86231" lon="6.80504">
        <ele>530.8</ele>
        <time>2022-09-13T12:34:28Z</time>
      </trkpt>
      <trkpt lat="47.86227" lon="6.80504">
        <ele>530.4</ele>
        <time>2022-09-13T12:34:29Z</time>
      </trkpt>
      <trkpt lat="47.86223" lon="6.80503">
        <ele>530.2</ele>
        <time>2022-09-13T12:34:30Z</time>
      </trkpt>
      <trkpt lat="47.86219" lon="6.80503">
        <ele>529.8</ele>
        <time>2022-09-13T12:34:31Z</time>
      </trkpt>
      <trkpt lat="47.86216" lon="6.80502">
        <ele>529.8</ele>
        <time>2022-09-13T12:34:32Z</time>
      </trkpt>
      <trkpt lat="47.86212" lon="6.80502">
        <ele>529.4</ele>
        <time>2022-09-13T12:34:33Z</time>
      </trkpt>
      <trkpt lat="47.86208" lon="6.80501">
        <ele>529.2</ele>
        <time>2022-09-13T12:34:34Z</time>
      </trkpt>
      <trkpt lat="47.86205" lon="6.805">
        <ele>529.1</ele>
        <time>2022-09-13T12:34:35Z</time>
      </trkpt>
      <trkpt lat="47.86201" lon="6.80499">
        <ele>528.8</ele>
        <time>2022-09-13T12:34:36Z</time>
      </trkpt>
      <trkpt lat="47.86197" lon="6.80498">
        <ele>528.5</ele>
        <time>2022-09-13T12:34:37Z</time>
      </trkpt>
      <trkpt lat="47.86194" lon="6.80497">
        <ele>528.4</ele>
        <time>2022-09-13T12:34:38Z</time>
      </trkpt>
      <trkpt lat="47.8619" lon="6.80497">
        <ele>528.8</ele>
        <time>2022-09-13T12:34:39Z</time>
      </trkpt>
      <trkpt lat="47.86186" lon="6.80496">
        <ele>529.3</ele>
        <time>2022-09-13T12:34:40Z</time>
      </trkpt>
      <trkpt lat="47.86183" lon="6.80495">
        <ele>529.7</ele>
        <time>2022-09-13T12:34:41Z</time>
      </trkpt>
      <trkpt lat="47.86179" lon="6.80494">
        <ele>530</ele>
        <time>2022-09-13T12:34:42Z</time>
      </trkpt>
      <trkpt lat="47.86175" lon="6.80493">
        <ele>530.3</ele>
        <time>2022-09-13T12:34:43Z</time>
      </trkpt>
      <trkpt lat="47.86172" lon="6.80491">
        <ele>530.4</ele>
        <time>2022-09-13T12:34:44Z</time>
      </trkpt>
      <trkpt lat="47.86168" lon="6.8049">
        <ele>530.5</ele>
        <time>2022-09-13T12:34:45Z</time>
      </trkpt>
      <trkpt lat="47.86164" lon="6.80489">
        <ele>530.5</ele>
        <time>2022-09-13T12:34:46Z</time>
      </trkpt>
      <trkpt lat="47.8616" lon="6.80489">
        <ele>530.6</ele>
        <time>2022-09-13T12:34:47Z</time>
      </trkpt>
      <trkpt lat="47.86157" lon="6.80488">
        <ele>530.6</ele>
        <time>2022-09-13T12:34:48Z</time>
      </trkpt>
      <trkpt lat="47.86153" lon="6.80487">
        <ele>530.6</ele>
        <time>2022-09-13T12:34:49Z</time>
      </trkpt>
      <trkpt lat="47.86149" lon="6.80486">
        <ele>530.6</ele>
        <time>2022-09-13T12:34:50Z</time>
      </trkpt>
      <trkpt lat="47.86145" lon="6.80485">
        <ele>530.7</ele>
        <time>2022-09-13T12:34:51Z</time>
      </trkpt>
      <trkpt lat="47.86142" lon="6.80484">
        <ele>530.7</ele>
        <time>2022-09-13T12:34:52Z</time>
      </trkpt>
      <trkpt lat="47.86138" lon="6.80483">
        <ele>530.8</ele>
        <time>2022-09-13T12:34:53Z</time>
      </trkpt>
      <trkpt lat="47.86134" lon="6.80483">
        <ele>530.9</ele>
        <time>2022-09-13T12:34:54Z</time>
      </trkpt>
      <trkpt lat="47.86131" lon="6.80482">
        <ele>530.9</ele>
        <time>2022-09-13T12:34:55Z</time>
      </trkpt>
      <trkpt lat="47.86127" lon="6.80481">
        <ele>530.9</ele>
        <time>2022-09-13T12:34:56Z</time>
      </trkpt>
      <trkpt lat="47.86123" lon="6.8048">
        <ele>531</ele>
        <time>2022-09-13T12:34:57Z</time>
      </trkpt>
      <trkpt lat="47.8612" lon="6.80479">
        <ele>531</ele>
        <time>2022-09-13T12:34:58Z</time>
      </trkpt>
      <trkpt lat="47.86116" lon="6.80479">
        <ele>531.1</ele>
        <time>2022-09-13T12:34:59Z</time>
      </trkpt>
      <trkpt lat="47.86112" lon="6.80478">
        <ele>531.2</ele>
        <time>2022-09-13T12:35:00Z</time>
      </trkpt>
      <trkpt lat="47.86108" lon="6.80477">
        <ele>531.2</ele>
        <time>2022-09-13T12:35:01Z</time>
      </trkpt>
      <trkpt lat="47.86105" lon="6.80476">
        <ele>531.1</ele>
        <time>2022-09-13T12:35:02Z</time>
      </trkpt>
      <trkpt lat="47.86101" lon="6.80475">
        <ele>531.1</ele>
        <time>2022-09-13T12:35:03Z</time>
      </trkpt>
      <trkpt lat="47.86098" lon="6.80475">
        <ele>531.1</ele>
        <time>2022-09-13T12:35:04Z</time>
      </trkpt>
      <trkpt lat="47.86094" lon="6.80474">
        <ele>531</ele>
        <time>2022-09-13T12:35:05Z</time>
      </trkpt>
      <trkpt lat="47.86091" lon="6.80473">
        <ele>531</ele>
        <time>2022-09-13T12:35:06Z</time>
      </trkpt>
      <trkpt lat="47.86087" lon="6.80473">
        <ele>531</ele>
        <time>2022-09-13T12:35:07Z</time>
      </trkpt>
      <trkpt lat="47.86083" lon="6.80473">
        <ele>531</ele>
        <time>2022-09-13T12:35:08Z</time>
      </trkpt>
      <trkpt lat="47.8608" lon="6.80472">
        <ele>531.1</ele>
        <time>2022-09-13T12:35:09Z</time>
      </trkpt>
      <trkpt lat="47.86076" lon="6.80472">
        <ele>531.3</ele>
        <time>2022-09-13T12:35:10Z</time>
      </trkpt>
      <trkpt lat="47.86072" lon="6.80472">
        <ele>531.4</ele>
        <time>2022-09-13T12:35:11Z</time>
      </trkpt>
      <trkpt lat="47.86069" lon="6.80472">
        <ele>531.5</ele>
        <time>2022-09-13T12:35:12Z</time>
      </trkpt>
      <trkpt lat="47.86065" lon="6.80473">
        <ele>531.6</ele>
        <time>2022-09-13T12:35:13Z</time>
      </trkpt>
      <trkpt lat="47.86061" lon="6.80473">
        <ele>531.7</ele>
        <time>2022-09-13T12:35:14Z</time>
      </trkpt>
      <trkpt lat="47.86057" lon="6.80473">
        <ele>531.9</ele>
        <time>2022-09-13T12:35:15Z</time>
      </trkpt>
      <trkpt lat="47.86054" lon="6.80473">
        <ele>531.9</ele>
        <time>2022-09-13T12:35:16Z</time>
      </trkpt>
      <trkpt lat="47.8605" lon="6.80474">
        <ele>531.8</ele>
        <time>2022-09-13T12:35:17Z</time>
      </trkpt>
      <trkpt lat="47.86046" lon="6.80474">
        <ele>531.8</ele>
        <time>2022-09-13T12:35:18Z</time>
      </trkpt>
      <trkpt lat="47.86042" lon="6.80475">
        <ele>531.7</ele>
        <time>2022-09-13T12:35:19Z</time>
      </trkpt>
      <trkpt lat="47.86038" lon="6.80475">
        <ele>531.8</ele>
        <time>2022-09-13T12:35:20Z</time>
      </trkpt>
      <trkpt lat="47.86034" lon="6.80476">
        <ele>531.7</ele>
        <time>2022-09-13T12:35:21Z</time>
      </trkpt>
      <trkpt lat="47.86031" lon="6.80476">
        <ele>531.7</ele>
        <time>2022-09-13T12:35:22Z</time>
      </trkpt>
      <trkpt lat="47.86027" lon="6.80477">
        <ele>531.7</ele>
        <time>2022-09-13T12:35:23Z</time>
      </trkpt>
      <trkpt lat="47.86023" lon="6.80477">
        <ele>531.7</ele>
        <time>2022-09-13T12:35:24Z</time>
      </trkpt>
      <trkpt lat="47.86019" lon="6.80478">
        <ele>531.6</ele>
        <time>2022-09-13T12:35:25Z</time>
      </trkpt>
      <trkpt lat="47.86015" lon="6.80479">
        <ele>531.5</ele>
        <time>2022-09-13T12:35:26Z</time>
      </trkpt>
      <trkpt lat="47.86012" lon="6.8048">
        <ele>531.4</ele>
        <time>2022-09-13T12:35:27Z</time>
      </trkpt>
      <trkpt lat="47.86008" lon="6.8048">
        <ele>531.4</ele>
        <time>2022-09-13T12:35:28Z</time>
      </trkpt>
      <trkpt lat="47.86004" lon="6.80481">
        <ele>531.4</ele>
        <time>2022-09-13T12:35:29Z</time>
      </trkpt>
      <trkpt lat="47.86" lon="6.80482">
        <ele>531.3</ele>
        <time>2022-09-13T12:35:30Z</time>
      </trkpt>
      <trkpt lat="47.85996" lon="6.80483">
        <ele>531</ele>
        <time>2022-09-13T12:35:31Z</time>
      </trkpt>
      <trkpt lat="47.85992" lon="6.80484">
        <ele>530.8</ele>
        <time>2022-09-13T12:35:32Z</time>
      </trkpt>
      <trkpt lat="47.85989" lon="6.80485">
        <ele>530.6</ele>
        <time>2022-09-13T12:35:33Z</time>
      </trkpt>
      <trkpt lat="47.85985" lon="6.80486">
        <ele>530.5</ele>
        <time>2022-09-13T12:35:34Z</time>
      </trkpt>
      <trkpt lat="47.85981" lon="6.80488">
        <ele>530.4</ele>
        <time>2022-09-13T12:35:35Z</time>
      </trkpt>
      <trkpt lat="47.85978" lon="6.80489">
        <ele>530.3</ele>
        <time>2022-09-13T12:35:36Z</time>
      </trkpt>
      <trkpt lat="47.85974" lon="6.8049">
        <ele>530.3</ele>
        <time>2022-09-13T12:35:37Z</time>
      </trkpt>
      <trkpt lat="47.8597" lon="6.80492">
        <ele>530.6</ele>
        <time>2022-09-13T12:35:38Z</time>
      </trkpt>
      <trkpt lat="47.85966" lon="6.80493">
        <ele>531.1</ele>
        <time>2022-09-13T12:35:39Z</time>
      </trkpt>
      <trkpt lat="47.85963" lon="6.80495">
        <ele>531.4</ele>
        <time>2022-09-13T12:35:40Z</time>
      </trkpt>
      <trkpt lat="47.85959" lon="6.80496">
        <ele>531.8</ele>
        <time>2022-09-13T12:35:41Z</time>
      </trkpt>
      <trkpt lat="47.85956" lon="6.80498">
        <ele>532.1</ele>
        <time>2022-09-13T12:35:42Z</time>
      </trkpt>
      <trkpt lat="47.85952" lon="6.805">
        <ele>532.5</ele>
        <time>2022-09-13T12:35:43Z</time>
      </trkpt>
      <trkpt lat="47.85948" lon="6.80502">
        <ele>532.5</ele>
        <time>2022-09-13T12:35:44Z</time>
      </trkpt>
      <trkpt lat="47.85945" lon="6.80504">
        <ele>532.5</ele>
        <time>2022-09-13T12:35:45Z</time>
      </trkpt>
      <trkpt lat="47.85941" lon="6.80505">
        <ele>532.7</ele>
        <time>2022-09-13T12:35:46Z</time>
      </trkpt>
      <trkpt lat="47.85938" lon="6.80507">
        <ele>532.8</ele>
        <time>2022-09-13T12:35:47Z</time>
      </trkpt>
      <trkpt lat="47.85935" lon="6.80509">
        <ele>532.8</ele>
        <time>2022-09-13T12:35:48Z</time>
      </trkpt>
      <trkpt lat="47.85931" lon="6.8051">
        <ele>533.1</ele>
        <time>2022-09-13T12:35:49Z</time>
      </trkpt>
      <trkpt lat="47.85928" lon="6.80512">
        <ele>533.1</ele>
        <time>2022-09-13T12:35:50Z</time>
      </trkpt>
      <trkpt lat="47.85925" lon="6.80514">
        <ele>533.2</ele>
        <time>2022-09-13T12:35:51Z</time>
      </trkpt>
      <trkpt lat="47.85921" lon="6.80516">
        <ele>533.4</ele>
        <time>2022-09-13T12:35:52Z</time>
      </trkpt>
      <trkpt lat="47.85918" lon="6.80517">
        <ele>533.7</ele>
        <time>2022-09-13T12:35:53Z</time>
      </trkpt>
      <trkpt lat="47.85916" lon="6.80519">
        <ele>533.6</ele>
        <time>2022-09-13T12:35:54Z</time>
      </trkpt>
      <trkpt lat="47.85913" lon="6.80519">
        <ele>533.7</ele>
        <time>2022-09-13T12:35:55Z</time>
      </trkpt>
      <trkpt lat="47.85912" lon="6.8052">
        <ele>533.6</ele>
        <time>2022-09-13T12:35:56Z</time>
      </trkpt>
      <trkpt lat="47.8591" lon="6.80521">
        <ele>533.5</ele>
        <time>2022-09-13T12:35:57Z</time>
      </trkpt>
      <trkpt lat="47.85908" lon="6.80521">
        <ele>533.6</ele>
        <time>2022-09-13T12:35:58Z</time>
      </trkpt>
      <trkpt lat="47.85906" lon="6.80522">
        <ele>533.5</ele>
        <time>2022-09-13T12:35:59Z</time>
      </trkpt>
      <trkpt lat="47.85904" lon="6.80523">
        <ele>533.4</ele>
        <time>2022-09-13T12:36:00Z</time>
      </trkpt>
      <trkpt lat="47.85902" lon="6.80525">
        <ele>533.3</ele>
        <time>2022-09-13T12:36:01Z</time>
      </trkpt>
      <trkpt lat="47.859" lon="6.80526">
        <ele>533.2</ele>
        <time>2022-09-13T12:36:02Z</time>
      </trkpt>
      <trkpt lat="47.85898" lon="6.80527">
        <ele>533.1</ele>
        <time>2022-09-13T12:36:03Z</time>
      </trkpt>
      <trkpt lat="47.85895" lon="6.80528">
        <ele>533</ele>
        <time>2022-09-13T12:36:04Z</time>
      </trkpt>
      <trkpt lat="47.85893" lon="6.80529">
        <ele>532.8</ele>
        <time>2022-09-13T12:36:05Z</time>
      </trkpt>
      <trkpt lat="47.8589" lon="6.8053">
        <ele>532.7</ele>
        <time>2022-09-13T12:36:06Z</time>
      </trkpt>
      <trkpt lat="47.85888" lon="6.80531">
        <ele>532.6</ele>
        <time>2022-09-13T12:36:07Z</time>
      </trkpt>
      <trkpt lat="47.85883" lon="6.80532">
        <ele>532.8</ele>
        <time>2022-09-13T12:36:08Z</time>
      </trkpt>
      <trkpt lat="47.8588" lon="6.80534">
        <ele>532.7</ele>
        <time>2022-09-13T12:36:09Z</time>
      </trkpt>
      <trkpt lat="47.85877" lon="6.80535">
        <ele>532.7</ele>
        <time>2022-09-13T12:36:10Z</time>
      </trkpt>
      <trkpt lat="47.85873" lon="6.80537">
        <ele>532.6</ele>
        <time>2022-09-13T12:36:11Z</time>
      </trkpt>
      <trkpt lat="47.8587" lon="6.80539">
        <ele>532.5</ele>
        <time>2022-09-13T12:36:12Z</time>
      </trkpt>
      <trkpt lat="47.85867" lon="6.8054">
        <ele>532.5</ele>
        <time>2022-09-13T12:36:13Z</time>
      </trkpt>
      <trkpt lat="47.85863" lon="6.80542">
        <ele>532.3</ele>
        <time>2022-09-13T12:36:14Z</time>
      </trkpt>
      <trkpt lat="47.8586" lon="6.80544">
        <ele>532.2</ele>
        <time>2022-09-13T12:36:15Z</time>
      </trkpt>
      <trkpt lat="47.85856" lon="6.80546">
        <ele>532.5</ele>
        <time>2022-09-13T12:36:16Z</time>
      </trkpt>
      <trkpt lat="47.85853" lon="6.80547">
        <ele>532.7</ele>
        <time>2022-09-13T12:36:17Z</time>
      </trkpt>
      <trkpt lat="47.8585" lon="6.80549">
        <ele>532.7</ele>
        <time>2022-09-13T12:36:18Z</time>
      </trkpt>
      <trkpt lat="47.85847" lon="6.8055">
        <ele>532.8</ele>
        <time>2022-09-13T12:36:19Z</time>
      </trkpt>
      <trkpt lat="47.85843" lon="6.80552">
        <ele>532.8</ele>
        <time>2022-09-13T12:36:20Z</time>
      </trkpt>
      <trkpt lat="47.8584" lon="6.80553">
        <ele>532.9</ele>
        <time>2022-09-13T12:36:21Z</time>
      </trkpt>
      <trkpt lat="47.85837" lon="6.80555">
        <ele>532.8</ele>
        <time>2022-09-13T12:36:22Z</time>
      </trkpt>
      <trkpt lat="47.85834" lon="6.80557">
        <ele>532.6</ele>
        <time>2022-09-13T12:36:23Z</time>
      </trkpt>
      <trkpt lat="47.8583" lon="6.80558">
        <ele>533.2</ele>
        <time>2022-09-13T12:36:24Z</time>
      </trkpt>
      <trkpt lat="47.85827" lon="6.80559">
        <ele>533.7</ele>
        <time>2022-09-13T12:36:25Z</time>
      </trkpt>
      <trkpt lat="47.85824" lon="6.80561">
        <ele>533.8</ele>
        <time>2022-09-13T12:36:26Z</time>
      </trkpt>
      <trkpt lat="47.8582" lon="6.80563">
        <ele>534</ele>
        <time>2022-09-13T12:36:27Z</time>
      </trkpt>
      <trkpt lat="47.85817" lon="6.80565">
        <ele>533.9</ele>
        <time>2022-09-13T12:36:28Z</time>
      </trkpt>
      <trkpt lat="47.85813" lon="6.80566">
        <ele>534.2</ele>
        <time>2022-09-13T12:36:29Z</time>
      </trkpt>
      <trkpt lat="47.8581" lon="6.80568">
        <ele>533.9</ele>
        <time>2022-09-13T12:36:30Z</time>
      </trkpt>
      <trkpt lat="47.85806" lon="6.80569">
        <ele>534.1</ele>
        <time>2022-09-13T12:36:31Z</time>
      </trkpt>
      <trkpt lat="47.85803" lon="6.80571">
        <ele>533.8</ele>
        <time>2022-09-13T12:36:32Z</time>
      </trkpt>
      <trkpt lat="47.858" lon="6.80572">
        <ele>533.9</ele>
        <time>2022-09-13T12:36:33Z</time>
      </trkpt>
      <trkpt lat="47.85796" lon="6.80574">
        <ele>533.7</ele>
        <time>2022-09-13T12:36:34Z</time>
      </trkpt>
      <trkpt lat="47.85793" lon="6.80575">
        <ele>533.9</ele>
        <time>2022-09-13T12:36:35Z</time>
      </trkpt>
      <trkpt lat="47.8579" lon="6.80577">
        <ele>533.7</ele>
        <time>2022-09-13T12:36:36Z</time>
      </trkpt>
      <trkpt lat="47.85786" lon="6.80579">
        <ele>533.8</ele>
        <time>2022-09-13T12:36:37Z</time>
      </trkpt>
      <trkpt lat="47.85782" lon="6.80581">
        <ele>533.9</ele>
        <time>2022-09-13T12:36:38Z</time>
      </trkpt>
      <trkpt lat="47.85779" lon="6.80583">
        <ele>533.8</ele>
        <time>2022-09-13T12:36:39Z</time>
      </trkpt>
      <trkpt lat="47.85775" lon="6.80585">
        <ele>534</ele>
        <time>2022-09-13T12:36:40Z</time>
      </trkpt>
      <trkpt lat="47.85771" lon="6.80587">
        <ele>534</ele>
        <time>2022-09-13T12:36:41Z</time>
      </trkpt>
      <trkpt lat="47.85768" lon="6.80588">
        <ele>534.2</ele>
        <time>2022-09-13T12:36:42Z</time>
      </trkpt>
      <trkpt lat="47.85764" lon="6.8059">
        <ele>534.2</ele>
        <time>2022-09-13T12:36:43Z</time>
      </trkpt>
      <trkpt lat="47.8576" lon="6.80591">
        <ele>534.5</ele>
        <time>2022-09-13T12:36:44Z</time>
      </trkpt>
      <trkpt lat="47.85756" lon="6.80593">
        <ele>534.4</ele>
        <time>2022-09-13T12:36:45Z</time>
      </trkpt>
      <trkpt lat="47.85753" lon="6.80594">
        <ele>534.5</ele>
        <time>2022-09-13T12:36:46Z</time>
      </trkpt>
      <trkpt lat="47.85749" lon="6.80596">
        <ele>534.4</ele>
        <time>2022-09-13T12:36:47Z</time>
      </trkpt>
      <trkpt lat="47.85745" lon="6.80598">
        <ele>534.2</ele>
        <time>2022-09-13T12:36:48Z</time>
      </trkpt>
      <trkpt lat="47.85742" lon="6.80599">
        <ele>534.3</ele>
        <time>2022-09-13T12:36:49Z</time>
      </trkpt>
      <trkpt lat="47.85738" lon="6.80601">
        <ele>534.2</ele>
        <time>2022-09-13T12:36:50Z</time>
      </trkpt>
      <trkpt lat="47.85734" lon="6.80603">
        <ele>534.1</ele>
        <time>2022-09-13T12:36:51Z</time>
      </trkpt>
      <trkpt lat="47.85731" lon="6.80604">
        <ele>534.3</ele>
        <time>2022-09-13T12:36:52Z</time>
      </trkpt>
      <trkpt lat="47.85727" lon="6.80606">
        <ele>534.3</ele>
        <time>2022-09-13T12:36:53Z</time>
      </trkpt>
      <trkpt lat="47.85723" lon="6.80607">
        <ele>534.6</ele>
        <time>2022-09-13T12:36:54Z</time>
      </trkpt>
      <trkpt lat="47.8572" lon="6.80609">
        <ele>534.5</ele>
        <time>2022-09-13T12:36:55Z</time>
      </trkpt>
      <trkpt lat="47.85716" lon="6.80611">
        <ele>534.5</ele>
        <time>2022-09-13T12:36:56Z</time>
      </trkpt>
      <trkpt lat="47.85713" lon="6.80612">
        <ele>534.5</ele>
        <time>2022-09-13T12:36:57Z</time>
      </trkpt>
      <trkpt lat="47.85709" lon="6.80614">
        <ele>534.6</ele>
        <time>2022-09-13T12:36:58Z</time>
      </trkpt>
      <trkpt lat="47.85706" lon="6.80616">
        <ele>534.6</ele>
        <time>2022-09-13T12:36:59Z</time>
      </trkpt>
      <trkpt lat="47.85702" lon="6.80618">
        <ele>534.6</ele>
        <time>2022-09-13T12:37:00Z</time>
      </trkpt>
      <trkpt lat="47.85699" lon="6.80619">
        <ele>534.8</ele>
        <time>2022-09-13T12:37:01Z</time>
      </trkpt>
      <trkpt lat="47.85695" lon="6.80621">
        <ele>534.9</ele>
        <time>2022-09-13T12:37:02Z</time>
      </trkpt>
      <trkpt lat="47.85692" lon="6.80623">
        <ele>534.8</ele>
        <time>2022-09-13T12:37:03Z</time>
      </trkpt>
      <trkpt lat="47.85689" lon="6.80624">
        <ele>534.9</ele>
        <time>2022-09-13T12:37:04Z</time>
      </trkpt>
      <trkpt lat="47.85685" lon="6.80626">
        <ele>534.9</ele>
        <time>2022-09-13T12:37:05Z</time>
      </trkpt>
      <trkpt lat="47.85681" lon="6.80628">
        <ele>535</ele>
        <time>2022-09-13T12:37:06Z</time>
      </trkpt>
      <trkpt lat="47.85678" lon="6.80629">
        <ele>535</ele>
        <time>2022-09-13T12:37:07Z</time>
      </trkpt>
      <trkpt lat="47.85674" lon="6.80631">
        <ele>535.1</ele>
        <time>2022-09-13T12:37:08Z</time>
      </trkpt>
      <trkpt lat="47.85671" lon="6.80632">
        <ele>535.2</ele>
        <time>2022-09-13T12:37:09Z</time>
      </trkpt>
      <trkpt lat="47.85667" lon="6.80634">
        <ele>535.3</ele>
        <time>2022-09-13T12:37:10Z</time>
      </trkpt>
      <trkpt lat="47.85664" lon="6.80635">
        <ele>535.5</ele>
        <time>2022-09-13T12:37:11Z</time>
      </trkpt>
      <trkpt lat="47.8566" lon="6.80637">
        <ele>535.6</ele>
        <time>2022-09-13T12:37:12Z</time>
      </trkpt>
      <trkpt lat="47.85657" lon="6.80638">
        <ele>535.8</ele>
        <time>2022-09-13T12:37:13Z</time>
      </trkpt>
      <trkpt lat="47.85653" lon="6.8064">
        <ele>535.9</ele>
        <time>2022-09-13T12:37:14Z</time>
      </trkpt>
      <trkpt lat="47.8565" lon="6.80642">
        <ele>535.9</ele>
        <time>2022-09-13T12:37:15Z</time>
      </trkpt>
      <trkpt lat="47.85646" lon="6.80643">
        <ele>536.1</ele>
        <time>2022-09-13T12:37:16Z</time>
      </trkpt>
      <trkpt lat="47.85643" lon="6.80645">
        <ele>536.1</ele>
        <time>2022-09-13T12:37:17Z</time>
      </trkpt>
      <trkpt lat="47.85639" lon="6.80647">
        <ele>536.1</ele>
        <time>2022-09-13T12:37:18Z</time>
      </trkpt>
      <trkpt lat="47.85636" lon="6.80649">
        <ele>536.1</ele>
        <time>2022-09-13T12:37:19Z</time>
      </trkpt>
      <trkpt lat="47.85632" lon="6.8065">
        <ele>536.3</ele>
        <time>2022-09-13T12:37:20Z</time>
      </trkpt>
      <trkpt lat="47.85629" lon="6.80652">
        <ele>536.3</ele>
        <time>2022-09-13T12:37:21Z</time>
      </trkpt>
      <trkpt lat="47.85626" lon="6.80653">
        <ele>536.4</ele>
        <time>2022-09-13T12:37:22Z</time>
      </trkpt>
      <trkpt lat="47.85622" lon="6.80655">
        <ele>536.5</ele>
        <time>2022-09-13T12:37:23Z</time>
      </trkpt>
      <trkpt lat="47.85619" lon="6.80656">
        <ele>536.6</ele>
        <time>2022-09-13T12:37:24Z</time>
      </trkpt>
      <trkpt lat="47.85615" lon="6.80658">
        <ele>536.7</ele>
        <time>2022-09-13T12:37:25Z</time>
      </trkpt>
      <trkpt lat="47.85612" lon="6.80659">
        <ele>536.8</ele>
        <time>2022-09-13T12:37:26Z</time>
      </trkpt>
      <trkpt lat="47.85609" lon="6.80661">
        <ele>536.7</ele>
        <time>2022-09-13T12:37:27Z</time>
      </trkpt>
      <trkpt lat="47.85605" lon="6.80663">
        <ele>536.6</ele>
        <time>2022-09-13T12:37:28Z</time>
      </trkpt>
      <trkpt lat="47.85602" lon="6.80664">
        <ele>536.6</ele>
        <time>2022-09-13T12:37:29Z</time>
      </trkpt>
      <trkpt lat="47.85598" lon="6.80666">
        <ele>536.5</ele>
        <time>2022-09-13T12:37:30Z</time>
      </trkpt>
      <trkpt lat="47.85595" lon="6.80668">
        <ele>536.5</ele>
        <time>2022-09-13T12:37:31Z</time>
      </trkpt>
      <trkpt lat="47.85591" lon="6.80669">
        <ele>536.6</ele>
        <time>2022-09-13T12:37:32Z</time>
      </trkpt>
      <trkpt lat="47.85588" lon="6.80671">
        <ele>536.6</ele>
        <time>2022-09-13T12:37:33Z</time>
      </trkpt>
      <trkpt lat="47.85585" lon="6.80673">
        <ele>536.7</ele>
        <time>2022-09-13T12:37:34Z</time>
      </trkpt>
      <trkpt lat="47.85581" lon="6.80675">
        <ele>536.8</ele>
        <time>2022-09-13T12:37:35Z</time>
      </trkpt>
      <trkpt lat="47.85578" lon="6.80677">
        <ele>536.9</ele>
        <time>2022-09-13T12:37:36Z</time>
      </trkpt>
      <trkpt lat="47.85574" lon="6.80679">
        <ele>537</ele>
        <time>2022-09-13T12:37:37Z</time>
      </trkpt>
      <trkpt lat="47.85571" lon="6.80681">
        <ele>537.2</ele>
        <time>2022-09-13T12:37:38Z</time>
      </trkpt>
      <trkpt lat="47.85567" lon="6.80684">
        <ele>537.3</ele>
        <time>2022-09-13T12:37:39Z</time>
      </trkpt>
      <trkpt lat="47.85563" lon="6.80686">
        <ele>537.5</ele>
        <time>2022-09-13T12:37:40Z</time>
      </trkpt>
      <trkpt lat="47.8556" lon="6.80688">
        <ele>537.7</ele>
        <time>2022-09-13T12:37:41Z</time>
      </trkpt>
      <trkpt lat="47.85557" lon="6.8069">
        <ele>537.9</ele>
        <time>2022-09-13T12:37:42Z</time>
      </trkpt>
      <trkpt lat="47.85554" lon="6.80693">
        <ele>538.1</ele>
        <time>2022-09-13T12:37:43Z</time>
      </trkpt>
      <trkpt lat="47.85551" lon="6.80695">
        <ele>538.1</ele>
        <time>2022-09-13T12:37:44Z</time>
      </trkpt>
      <trkpt lat="47.85548" lon="6.80698">
        <ele>538.1</ele>
        <time>2022-09-13T12:37:45Z</time>
      </trkpt>
      <trkpt lat="47.85545" lon="6.80701">
        <ele>538.1</ele>
        <time>2022-09-13T12:37:46Z</time>
      </trkpt>
      <trkpt lat="47.85542" lon="6.80703">
        <ele>538.2</ele>
        <time>2022-09-13T12:37:47Z</time>
      </trkpt>
      <trkpt lat="47.85539" lon="6.80706">
        <ele>538.2</ele>
        <time>2022-09-13T12:37:48Z</time>
      </trkpt>
      <trkpt lat="47.85537" lon="6.80708">
        <ele>538.2</ele>
        <time>2022-09-13T12:37:49Z</time>
      </trkpt>
      <trkpt lat="47.85534" lon="6.8071">
        <ele>538.2</ele>
        <time>2022-09-13T12:37:50Z</time>
      </trkpt>
      <trkpt lat="47.85532" lon="6.80711">
        <ele>538.3</ele>
        <time>2022-09-13T12:37:51Z</time>
      </trkpt>
      <trkpt lat="47.8553" lon="6.80712">
        <ele>538.3</ele>
        <time>2022-09-13T12:37:52Z</time>
      </trkpt>
      <trkpt lat="47.85527" lon="6.80714">
        <ele>538.4</ele>
        <time>2022-09-13T12:37:53Z</time>
      </trkpt>
      <trkpt lat="47.85526" lon="6.80716">
        <ele>538.4</ele>
        <time>2022-09-13T12:37:54Z</time>
      </trkpt>
      <trkpt lat="47.85524" lon="6.80718">
        <ele>538.5</ele>
        <time>2022-09-13T12:37:55Z</time>
      </trkpt>
      <trkpt lat="47.8552" lon="6.80721">
        <ele>538.6</ele>
        <time>2022-09-13T12:37:56Z</time>
      </trkpt>
      <trkpt lat="47.85517" lon="6.80724">
        <ele>538.6</ele>
        <time>2022-09-13T12:37:57Z</time>
      </trkpt>
      <trkpt lat="47.85515" lon="6.80726">
        <ele>538.5</ele>
        <time>2022-09-13T12:37:58Z</time>
      </trkpt>
      <trkpt lat="47.85512" lon="6.80728">
        <ele>538.5</ele>
        <time>2022-09-13T12:37:59Z</time>
      </trkpt>
      <trkpt lat="47.8551" lon="6.8073">
        <ele>538.4</ele>
        <time>2022-09-13T12:38:00Z</time>
      </trkpt>
      <trkpt lat="47.85507" lon="6.80732">
        <ele>538.4</ele>
        <time>2022-09-13T12:38:01Z</time>
      </trkpt>
      <trkpt lat="47.85505" lon="6.80734">
        <ele>538.4</ele>
        <time>2022-09-13T12:38:02Z</time>
      </trkpt>
      <trkpt lat="47.85502" lon="6.80737">
        <ele>538.3</ele>
        <time>2022-09-13T12:38:03Z</time>
      </trkpt>
      <trkpt lat="47.85499" lon="6.8074">
        <ele>538.2</ele>
        <time>2022-09-13T12:38:04Z</time>
      </trkpt>
      <trkpt lat="47.85496" lon="6.80743">
        <ele>538.3</ele>
        <time>2022-09-13T12:38:05Z</time>
      </trkpt>
      <trkpt lat="47.85494" lon="6.80746">
        <ele>538.3</ele>
        <time>2022-09-13T12:38:06Z</time>
      </trkpt>
      <trkpt lat="47.85491" lon="6.80749">
        <ele>538.4</ele>
        <time>2022-09-13T12:38:07Z</time>
      </trkpt>
      <trkpt lat="47.85488" lon="6.80752">
        <ele>538.6</ele>
        <time>2022-09-13T12:38:08Z</time>
      </trkpt>
      <trkpt lat="47.85485" lon="6.80755">
        <ele>538.8</ele>
        <time>2022-09-13T12:38:09Z</time>
      </trkpt>
      <trkpt lat="47.85482" lon="6.80758">
        <ele>538.9</ele>
        <time>2022-09-13T12:38:10Z</time>
      </trkpt>
      <trkpt lat="47.85479" lon="6.80762">
        <ele>538.9</ele>
        <time>2022-09-13T12:38:11Z</time>
      </trkpt>
      <trkpt lat="47.85476" lon="6.80765">
        <ele>539</ele>
        <time>2022-09-13T12:38:12Z</time>
      </trkpt>
      <trkpt lat="47.85473" lon="6.80769">
        <ele>538.9</ele>
        <time>2022-09-13T12:38:13Z</time>
      </trkpt>
      <trkpt lat="47.85471" lon="6.80772">
        <ele>538.7</ele>
        <time>2022-09-13T12:38:14Z</time>
      </trkpt>
      <trkpt lat="47.85468" lon="6.80775">
        <ele>538.7</ele>
        <time>2022-09-13T12:38:15Z</time>
      </trkpt>
      <trkpt lat="47.85465" lon="6.80779">
        <ele>538.7</ele>
        <time>2022-09-13T12:38:16Z</time>
      </trkpt>
      <trkpt lat="47.85463" lon="6.80783">
        <ele>538.8</ele>
        <time>2022-09-13T12:38:17Z</time>
      </trkpt>
      <trkpt lat="47.8546" lon="6.80786">
        <ele>539</ele>
        <time>2022-09-13T12:38:18Z</time>
      </trkpt>
      <trkpt lat="47.85458" lon="6.8079">
        <ele>539.1</ele>
        <time>2022-09-13T12:38:19Z</time>
      </trkpt>
      <trkpt lat="47.85455" lon="6.80794">
        <ele>539.3</ele>
        <time>2022-09-13T12:38:20Z</time>
      </trkpt>
      <trkpt lat="47.85453" lon="6.80798">
        <ele>539.3</ele>
        <time>2022-09-13T12:38:21Z</time>
      </trkpt>
      <trkpt lat="47.8545" lon="6.80801">
        <ele>539.6</ele>
        <time>2022-09-13T12:38:22Z</time>
      </trkpt>
      <trkpt lat="47.85448" lon="6.80805">
        <ele>539.6</ele>
        <time>2022-09-13T12:38:23Z</time>
      </trkpt>
      <trkpt lat="47.85445" lon="6.80809">
        <ele>539.7</ele>
        <time>2022-09-13T12:38:24Z</time>
      </trkpt>
      <trkpt lat="47.85443" lon="6.80814">
        <ele>539.4</ele>
        <time>2022-09-13T12:38:25Z</time>
      </trkpt>
      <trkpt lat="47.85441" lon="6.80818">
        <ele>539.2</ele>
        <time>2022-09-13T12:38:26Z</time>
      </trkpt>
      <trkpt lat="47.85438" lon="6.80822">
        <ele>539</ele>
        <time>2022-09-13T12:38:27Z</time>
      </trkpt>
      <trkpt lat="47.85436" lon="6.80826">
        <ele>538.8</ele>
        <time>2022-09-13T12:38:28Z</time>
      </trkpt>
      <trkpt lat="47.85434" lon="6.8083">
        <ele>538.6</ele>
        <time>2022-09-13T12:38:29Z</time>
      </trkpt>
      <trkpt lat="47.85432" lon="6.80834">
        <ele>538.4</ele>
        <time>2022-09-13T12:38:30Z</time>
      </trkpt>
      <trkpt lat="47.8543" lon="6.80838">
        <ele>538.4</ele>
        <time>2022-09-13T12:38:31Z</time>
      </trkpt>
      <trkpt lat="47.85427" lon="6.80842">
        <ele>538.6</ele>
        <time>2022-09-13T12:38:32Z</time>
      </trkpt>
      <trkpt lat="47.85425" lon="6.80846">
        <ele>538.7</ele>
        <time>2022-09-13T12:38:33Z</time>
      </trkpt>
      <trkpt lat="47.85423" lon="6.80851">
        <ele>539</ele>
        <time>2022-09-13T12:38:34Z</time>
      </trkpt>
      <trkpt lat="47.85421" lon="6.80855">
        <ele>539.3</ele>
        <time>2022-09-13T12:38:35Z</time>
      </trkpt>
      <trkpt lat="47.85419" lon="6.80859">
        <ele>539.6</ele>
        <time>2022-09-13T12:38:36Z</time>
      </trkpt>
      <trkpt lat="47.85416" lon="6.80864">
        <ele>539.8</ele>
        <time>2022-09-13T12:38:37Z</time>
      </trkpt>
      <trkpt lat="47.85414" lon="6.80869">
        <ele>539.6</ele>
        <time>2022-09-13T12:38:38Z</time>
      </trkpt>
      <trkpt lat="47.85412" lon="6.80873">
        <ele>539.5</ele>
        <time>2022-09-13T12:38:39Z</time>
      </trkpt>
      <trkpt lat="47.85409" lon="6.80878">
        <ele>539.6</ele>
        <time>2022-09-13T12:38:40Z</time>
      </trkpt>
      <trkpt lat="47.85407" lon="6.80882">
        <ele>539.6</ele>
        <time>2022-09-13T12:38:41Z</time>
      </trkpt>
      <trkpt lat="47.85405" lon="6.80887">
        <ele>539.7</ele>
        <time>2022-09-13T12:38:42Z</time>
      </trkpt>
      <trkpt lat="47.85403" lon="6.80891">
        <ele>539.9</ele>
        <time>2022-09-13T12:38:43Z</time>
      </trkpt>
      <trkpt lat="47.85401" lon="6.80896">
        <ele>540</ele>
        <time>2022-09-13T12:38:44Z</time>
      </trkpt>
      <trkpt lat="47.85399" lon="6.809">
        <ele>540.1</ele>
        <time>2022-09-13T12:38:45Z</time>
      </trkpt>
      <trkpt lat="47.85398" lon="6.80905">
        <ele>540.1</ele>
        <time>2022-09-13T12:38:46Z</time>
      </trkpt>
      <trkpt lat="47.85396" lon="6.8091">
        <ele>540.2</ele>
        <time>2022-09-13T12:38:47Z</time>
      </trkpt>
      <trkpt lat="47.85394" lon="6.80915">
        <ele>540.3</ele>
        <time>2022-09-13T12:38:48Z</time>
      </trkpt>
      <trkpt lat="47.85392" lon="6.80919">
        <ele>540.5</ele>
        <time>2022-09-13T12:38:49Z</time>
      </trkpt>
      <trkpt lat="47.8539" lon="6.80924">
        <ele>540.8</ele>
        <time>2022-09-13T12:38:50Z</time>
      </trkpt>
      <trkpt lat="47.85389" lon="6.80929">
        <ele>541</ele>
        <time>2022-09-13T12:38:51Z</time>
      </trkpt>
      <trkpt lat="47.85387" lon="6.80935">
        <ele>541.3</ele>
        <time>2022-09-13T12:38:52Z</time>
      </trkpt>
      <trkpt lat="47.85385" lon="6.8094">
        <ele>541.7</ele>
        <time>2022-09-13T12:38:53Z</time>
      </trkpt>
      <trkpt lat="47.85384" lon="6.80945">
        <ele>541.8</ele>
        <time>2022-09-13T12:38:54Z</time>
      </trkpt>
      <trkpt lat="47.85382" lon="6.80951">
        <ele>541.8</ele>
        <time>2022-09-13T12:38:55Z</time>
      </trkpt>
      <trkpt lat="47.85381" lon="6.80956">
        <ele>541.6</ele>
        <time>2022-09-13T12:38:56Z</time>
      </trkpt>
      <trkpt lat="47.8538" lon="6.80961">
        <ele>541.4</ele>
        <time>2022-09-13T12:38:57Z</time>
      </trkpt>
      <trkpt lat="47.85378" lon="6.80966">
        <ele>541.3</ele>
        <time>2022-09-13T12:38:58Z</time>
      </trkpt>
      <trkpt lat="47.85377" lon="6.80971">
        <ele>541</ele>
        <time>2022-09-13T12:38:59Z</time>
      </trkpt>
      <trkpt lat="47.85375" lon="6.80976">
        <ele>540.7</ele>
        <time>2022-09-13T12:39:00Z</time>
      </trkpt>
      <trkpt lat="47.85374" lon="6.80981">
        <ele>540.5</ele>
        <time>2022-09-13T12:39:01Z</time>
      </trkpt>
      <trkpt lat="47.85373" lon="6.80987">
        <ele>540.2</ele>
        <time>2022-09-13T12:39:02Z</time>
      </trkpt>
      <trkpt lat="47.85372" lon="6.80992">
        <ele>539.9</ele>
        <time>2022-09-13T12:39:03Z</time>
      </trkpt>
      <trkpt lat="47.85371" lon="6.80997">
        <ele>539.8</ele>
        <time>2022-09-13T12:39:04Z</time>
      </trkpt>
      <trkpt lat="47.85369" lon="6.81003">
        <ele>539.8</ele>
        <time>2022-09-13T12:39:05Z</time>
      </trkpt>
      <trkpt lat="47.85368" lon="6.81009">
        <ele>539.8</ele>
        <time>2022-09-13T12:39:06Z</time>
      </trkpt>
      <trkpt lat="47.85367" lon="6.81014">
        <ele>539.8</ele>
        <time>2022-09-13T12:39:07Z</time>
      </trkpt>
      <trkpt lat="47.85366" lon="6.81019">
        <ele>539.7</ele>
        <time>2022-09-13T12:39:08Z</time>
      </trkpt>
      <trkpt lat="47.85364" lon="6.81025">
        <ele>539.8</ele>
        <time>2022-09-13T12:39:09Z</time>
      </trkpt>
      <trkpt lat="47.85363" lon="6.8103">
        <ele>539.9</ele>
        <time>2022-09-13T12:39:10Z</time>
      </trkpt>
      <trkpt lat="47.85362" lon="6.81035">
        <ele>540.2</ele>
        <time>2022-09-13T12:39:11Z</time>
      </trkpt>
      <trkpt lat="47.85361" lon="6.8104">
        <ele>540.4</ele>
        <time>2022-09-13T12:39:12Z</time>
      </trkpt>
      <trkpt lat="47.85361" lon="6.81046">
        <ele>540.7</ele>
        <time>2022-09-13T12:39:13Z</time>
      </trkpt>
      <trkpt lat="47.8536" lon="6.81051">
        <ele>540.8</ele>
        <time>2022-09-13T12:39:14Z</time>
      </trkpt>
      <trkpt lat="47.85359" lon="6.81057">
        <ele>540.9</ele>
        <time>2022-09-13T12:39:15Z</time>
      </trkpt>
      <trkpt lat="47.85358" lon="6.81062">
        <ele>540.9</ele>
        <time>2022-09-13T12:39:16Z</time>
      </trkpt>
      <trkpt lat="47.85357" lon="6.81068">
        <ele>540.9</ele>
        <time>2022-09-13T12:39:17Z</time>
      </trkpt>
      <trkpt lat="47.85356" lon="6.81073">
        <ele>540.9</ele>
        <time>2022-09-13T12:39:18Z</time>
      </trkpt>
      <trkpt lat="47.85356" lon="6.81078">
        <ele>541</ele>
        <time>2022-09-13T12:39:19Z</time>
      </trkpt>
      <trkpt lat="47.85355" lon="6.81083">
        <ele>541</ele>
        <time>2022-09-13T12:39:20Z</time>
      </trkpt>
      <trkpt lat="47.85354" lon="6.81089">
        <ele>540.6</ele>
        <time>2022-09-13T12:39:21Z</time>
      </trkpt>
      <trkpt lat="47.85353" lon="6.81094">
        <ele>540.3</ele>
        <time>2022-09-13T12:39:22Z</time>
      </trkpt>
      <trkpt lat="47.85353" lon="6.811">
        <ele>540</ele>
        <time>2022-09-13T12:39:23Z</time>
      </trkpt>
      <trkpt lat="47.85352" lon="6.81106">
        <ele>539.6</ele>
        <time>2022-09-13T12:39:24Z</time>
      </trkpt>
      <trkpt lat="47.85352" lon="6.81111">
        <ele>539.3</ele>
        <time>2022-09-13T12:39:25Z</time>
      </trkpt>
      <trkpt lat="47.85351" lon="6.81117">
        <ele>539.6</ele>
        <time>2022-09-13T12:39:26Z</time>
      </trkpt>
      <trkpt lat="47.85351" lon="6.81122">
        <ele>539.9</ele>
        <time>2022-09-13T12:39:27Z</time>
      </trkpt>
      <trkpt lat="47.8535" lon="6.81128">
        <ele>540.1</ele>
        <time>2022-09-13T12:39:28Z</time>
      </trkpt>
      <trkpt lat="47.8535" lon="6.81133">
        <ele>540.3</ele>
        <time>2022-09-13T12:39:29Z</time>
      </trkpt>
      <trkpt lat="47.8535" lon="6.81139">
        <ele>540.6</ele>
        <time>2022-09-13T12:39:30Z</time>
      </trkpt>
      <trkpt lat="47.85349" lon="6.81144">
        <ele>540.6</ele>
        <time>2022-09-13T12:39:31Z</time>
      </trkpt>
      <trkpt lat="47.85349" lon="6.8115">
        <ele>540.7</ele>
        <time>2022-09-13T12:39:32Z</time>
      </trkpt>
      <trkpt lat="47.85349" lon="6.81156">
        <ele>540.8</ele>
        <time>2022-09-13T12:39:33Z</time>
      </trkpt>
      <trkpt lat="47.85349" lon="6.81161">
        <ele>540.9</ele>
        <time>2022-09-13T12:39:34Z</time>
      </trkpt>
      <trkpt lat="47.85349" lon="6.81167">
        <ele>541</ele>
        <time>2022-09-13T12:39:35Z</time>
      </trkpt>
      <trkpt lat="47.85349" lon="6.81172">
        <ele>541.1</ele>
        <time>2022-09-13T12:39:36Z</time>
      </trkpt>
      <trkpt lat="47.85349" lon="6.81177">
        <ele>541.2</ele>
        <time>2022-09-13T12:39:37Z</time>
      </trkpt>
      <trkpt lat="47.85349" lon="6.81183">
        <ele>541.3</ele>
        <time>2022-09-13T12:39:38Z</time>
      </trkpt>
      <trkpt lat="47.85349" lon="6.81189">
        <ele>541.4</ele>
        <time>2022-09-13T12:39:39Z</time>
      </trkpt>
      <trkpt lat="47.85349" lon="6.81195">
        <ele>541.5</ele>
        <time>2022-09-13T12:39:40Z</time>
      </trkpt>
      <trkpt lat="47.8535" lon="6.812">
        <ele>541.6</ele>
        <time>2022-09-13T12:39:41Z</time>
      </trkpt>
      <trkpt lat="47.8535" lon="6.81206">
        <ele>541.8</ele>
        <time>2022-09-13T12:39:42Z</time>
      </trkpt>
      <trkpt lat="47.8535" lon="6.81212">
        <ele>542</ele>
        <time>2022-09-13T12:39:43Z</time>
      </trkpt>
      <trkpt lat="47.8535" lon="6.81217">
        <ele>542.2</ele>
        <time>2022-09-13T12:39:44Z</time>
      </trkpt>
      <trkpt lat="47.85351" lon="6.81223">
        <ele>542.4</ele>
        <time>2022-09-13T12:39:45Z</time>
      </trkpt>
      <trkpt lat="47.85351" lon="6.81228">
        <ele>542.7</ele>
        <time>2022-09-13T12:39:46Z</time>
      </trkpt>
      <trkpt lat="47.85352" lon="6.81233">
        <ele>543</ele>
        <time>2022-09-13T12:39:47Z</time>
      </trkpt>
      <trkpt lat="47.85353" lon="6.81238">
        <ele>543.3</ele>
        <time>2022-09-13T12:39:48Z</time>
      </trkpt>
      <trkpt lat="47.85354" lon="6.81243">
        <ele>543.6</ele>
        <time>2022-09-13T12:39:49Z</time>
      </trkpt>
      <trkpt lat="47.85354" lon="6.81247">
        <ele>543.8</ele>
        <time>2022-09-13T12:39:50Z</time>
      </trkpt>
      <trkpt lat="47.85354" lon="6.81252">
        <ele>544</ele>
        <time>2022-09-13T12:39:51Z</time>
      </trkpt>
      <trkpt lat="47.85355" lon="6.81255">
        <ele>544</ele>
        <time>2022-09-13T12:39:52Z</time>
      </trkpt>
      <trkpt lat="47.85355" lon="6.81258">
        <ele>544</ele>
        <time>2022-09-13T12:39:53Z</time>
      </trkpt>
      <trkpt lat="47.85355" lon="6.8126">
        <ele>544</ele>
        <time>2022-09-13T12:39:54Z</time>
      </trkpt>
      <trkpt lat="47.85355" lon="6.81264">
        <ele>544</ele>
        <time>2022-09-13T12:39:55Z</time>
      </trkpt>
      <trkpt lat="47.85356" lon="6.81268">
        <ele>544</ele>
        <time>2022-09-13T12:39:56Z</time>
      </trkpt>
      <trkpt lat="47.85357" lon="6.81274">
        <ele>544</ele>
        <time>2022-09-13T12:39:57Z</time>
      </trkpt>
      <trkpt lat="47.85357" lon="6.81276">
        <ele>544</ele>
        <time>2022-09-13T12:39:58Z</time>
      </trkpt>
      <trkpt lat="47.85358" lon="6.8128">
        <ele>544</ele>
        <time>2022-09-13T12:39:59Z</time>
      </trkpt>
      <trkpt lat="47.85358" lon="6.81286">
        <ele>544</ele>
        <time>2022-09-13T12:40:00Z</time>
      </trkpt>
      <trkpt lat="47.85359" lon="6.81288">
        <ele>544</ele>
        <time>2022-09-13T12:40:01Z</time>
      </trkpt>
      <trkpt lat="47.85359" lon="6.81292">
        <ele>544</ele>
        <time>2022-09-13T12:40:02Z</time>
      </trkpt>
      <trkpt lat="47.85359" lon="6.81298">
        <ele>543.9</ele>
        <time>2022-09-13T12:40:03Z</time>
      </trkpt>
      <trkpt lat="47.85359" lon="6.81303">
        <ele>543.9</ele>
        <time>2022-09-13T12:40:04Z</time>
      </trkpt>
      <trkpt lat="47.8536" lon="6.81308">
        <ele>544</ele>
        <time>2022-09-13T12:40:05Z</time>
      </trkpt>
      <trkpt lat="47.8536" lon="6.81313">
        <ele>544</ele>
        <time>2022-09-13T12:40:06Z</time>
      </trkpt>
      <trkpt lat="47.85361" lon="6.81318">
        <ele>544</ele>
        <time>2022-09-13T12:40:07Z</time>
      </trkpt>
      <trkpt lat="47.85362" lon="6.81323">
        <ele>544</ele>
        <time>2022-09-13T12:40:08Z</time>
      </trkpt>
      <trkpt lat="47.85362" lon="6.81328">
        <ele>544</ele>
        <time>2022-09-13T12:40:09Z</time>
      </trkpt>
      <trkpt lat="47.85362" lon="6.81333">
        <ele>544</ele>
        <time>2022-09-13T12:40:10Z</time>
      </trkpt>
      <trkpt lat="47.85363" lon="6.81338">
        <ele>544</ele>
        <time>2022-09-13T12:40:11Z</time>
      </trkpt>
      <trkpt lat="47.85363" lon="6.81343">
        <ele>544</ele>
        <time>2022-09-13T12:40:12Z</time>
      </trkpt>
      <trkpt lat="47.85364" lon="6.81348">
        <ele>544</ele>
        <time>2022-09-13T12:40:13Z</time>
      </trkpt>
      <trkpt lat="47.85364" lon="6.81354">
        <ele>544</ele>
        <time>2022-09-13T12:40:14Z</time>
      </trkpt>
      <trkpt lat="47.85365" lon="6.8136">
        <ele>544</ele>
        <time>2022-09-13T12:40:15Z</time>
      </trkpt>
      <trkpt lat="47.85366" lon="6.81365">
        <ele>544.1</ele>
        <time>2022-09-13T12:40:16Z</time>
      </trkpt>
      <trkpt lat="47.85366" lon="6.81371">
        <ele>544.4</ele>
        <time>2022-09-13T12:40:17Z</time>
      </trkpt>
      <trkpt lat="47.85367" lon="6.81376">
        <ele>544.5</ele>
        <time>2022-09-13T12:40:18Z</time>
      </trkpt>
      <trkpt lat="47.85367" lon="6.81382">
        <ele>544.8</ele>
        <time>2022-09-13T12:40:19Z</time>
      </trkpt>
      <trkpt lat="47.85368" lon="6.81386">
        <ele>544.9</ele>
        <time>2022-09-13T12:40:20Z</time>
      </trkpt>
      <trkpt lat="47.85369" lon="6.81392">
        <ele>545</ele>
        <time>2022-09-13T12:40:21Z</time>
      </trkpt>
      <trkpt lat="47.85369" lon="6.81397">
        <ele>545</ele>
        <time>2022-09-13T12:40:22Z</time>
      </trkpt>
      <trkpt lat="47.8537" lon="6.81402">
        <ele>545</ele>
        <time>2022-09-13T12:40:23Z</time>
      </trkpt>
      <trkpt lat="47.85371" lon="6.81407">
        <ele>545</ele>
        <time>2022-09-13T12:40:24Z</time>
      </trkpt>
      <trkpt lat="47.85372" lon="6.81413">
        <ele>545</ele>
        <time>2022-09-13T12:40:25Z</time>
      </trkpt>
      <trkpt lat="47.85373" lon="6.81418">
        <ele>545</ele>
        <time>2022-09-13T12:40:26Z</time>
      </trkpt>
      <trkpt lat="47.85373" lon="6.81424">
        <ele>545.2</ele>
        <time>2022-09-13T12:40:27Z</time>
      </trkpt>
      <trkpt lat="47.85374" lon="6.81429">
        <ele>545.2</ele>
        <time>2022-09-13T12:40:28Z</time>
      </trkpt>
      <trkpt lat="47.85375" lon="6.81435">
        <ele>545.3</ele>
        <time>2022-09-13T12:40:29Z</time>
      </trkpt>
      <trkpt lat="47.85375" lon="6.8144">
        <ele>545.4</ele>
        <time>2022-09-13T12:40:30Z</time>
      </trkpt>
      <trkpt lat="47.85376" lon="6.81446">
        <ele>545.5</ele>
        <time>2022-09-13T12:40:31Z</time>
      </trkpt>
      <trkpt lat="47.85377" lon="6.81451">
        <ele>545.8</ele>
        <time>2022-09-13T12:40:32Z</time>
      </trkpt>
      <trkpt lat="47.85377" lon="6.81456">
        <ele>546</ele>
        <time>2022-09-13T12:40:33Z</time>
      </trkpt>
      <trkpt lat="47.85378" lon="6.81462">
        <ele>546.3</ele>
        <time>2022-09-13T12:40:34Z</time>
      </trkpt>
      <trkpt lat="47.85379" lon="6.81467">
        <ele>546.5</ele>
        <time>2022-09-13T12:40:35Z</time>
      </trkpt>
      <trkpt lat="47.85379" lon="6.81472">
        <ele>546.7</ele>
        <time>2022-09-13T12:40:36Z</time>
      </trkpt>
      <trkpt lat="47.8538" lon="6.81477">
        <ele>546.7</ele>
        <time>2022-09-13T12:40:37Z</time>
      </trkpt>
      <trkpt lat="47.85381" lon="6.81482">
        <ele>546.7</ele>
        <time>2022-09-13T12:40:38Z</time>
      </trkpt>
      <trkpt lat="47.85382" lon="6.81488">
        <ele>546.6</ele>
        <time>2022-09-13T12:40:39Z</time>
      </trkpt>
      <trkpt lat="47.85383" lon="6.81494">
        <ele>546.6</ele>
        <time>2022-09-13T12:40:40Z</time>
      </trkpt>
      <trkpt lat="47.85383" lon="6.815">
        <ele>546.6</ele>
        <time>2022-09-13T12:40:41Z</time>
      </trkpt>
      <trkpt lat="47.85384" lon="6.81506">
        <ele>546.4</ele>
        <time>2022-09-13T12:40:42Z</time>
      </trkpt>
      <trkpt lat="47.85385" lon="6.81513">
        <ele>546.1</ele>
        <time>2022-09-13T12:40:43Z</time>
      </trkpt>
      <trkpt lat="47.85386" lon="6.8152">
        <ele>545.7</ele>
        <time>2022-09-13T12:40:44Z</time>
      </trkpt>
      <trkpt lat="47.85387" lon="6.81528">
        <ele>545.4</ele>
        <time>2022-09-13T12:40:45Z</time>
      </trkpt>
      <trkpt lat="47.85388" lon="6.81535">
        <ele>545.7</ele>
        <time>2022-09-13T12:40:46Z</time>
      </trkpt>
      <trkpt lat="47.85389" lon="6.81542">
        <ele>546</ele>
        <time>2022-09-13T12:40:47Z</time>
      </trkpt>
      <trkpt lat="47.8539" lon="6.81548">
        <ele>546.3</ele>
        <time>2022-09-13T12:40:48Z</time>
      </trkpt>
      <trkpt lat="47.85392" lon="6.81555">
        <ele>546.5</ele>
        <time>2022-09-13T12:40:49Z</time>
      </trkpt>
      <trkpt lat="47.85393" lon="6.81562">
        <ele>546.6</ele>
        <time>2022-09-13T12:40:50Z</time>
      </trkpt>
      <trkpt lat="47.85395" lon="6.81568">
        <ele>546.5</ele>
        <time>2022-09-13T12:40:51Z</time>
      </trkpt>
      <trkpt lat="47.85396" lon="6.81573">
        <ele>546.4</ele>
        <time>2022-09-13T12:40:52Z</time>
      </trkpt>
      <trkpt lat="47.85398" lon="6.81578">
        <ele>546.2</ele>
        <time>2022-09-13T12:40:53Z</time>
      </trkpt>
      <trkpt lat="47.85399" lon="6.81582">
        <ele>546.1</ele>
        <time>2022-09-13T12:40:54Z</time>
      </trkpt>
      <trkpt lat="47.854" lon="6.81588">
        <ele>546.1</ele>
        <time>2022-09-13T12:40:55Z</time>
      </trkpt>
      <trkpt lat="47.85401" lon="6.81594">
        <ele>546</ele>
        <time>2022-09-13T12:40:56Z</time>
      </trkpt>
      <trkpt lat="47.85402" lon="6.816">
        <ele>545.9</ele>
        <time>2022-09-13T12:40:57Z</time>
      </trkpt>
      <trkpt lat="47.85403" lon="6.81606">
        <ele>545.9</ele>
        <time>2022-09-13T12:40:58Z</time>
      </trkpt>
      <trkpt lat="47.85404" lon="6.81612">
        <ele>545.9</ele>
        <time>2022-09-13T12:40:59Z</time>
      </trkpt>
      <trkpt lat="47.85405" lon="6.81618">
        <ele>545.9</ele>
        <time>2022-09-13T12:41:00Z</time>
      </trkpt>
      <trkpt lat="47.85406" lon="6.81624">
        <ele>546</ele>
        <time>2022-09-13T12:41:01Z</time>
      </trkpt>
      <trkpt lat="47.85407" lon="6.81629">
        <ele>546</ele>
        <time>2022-09-13T12:41:02Z</time>
      </trkpt>
      <trkpt lat="47.85408" lon="6.81634">
        <ele>546.1</ele>
        <time>2022-09-13T12:41:03Z</time>
      </trkpt>
      <trkpt lat="47.85409" lon="6.8164">
        <ele>546.2</ele>
        <time>2022-09-13T12:41:04Z</time>
      </trkpt>
      <trkpt lat="47.8541" lon="6.81645">
        <ele>546.5</ele>
        <time>2022-09-13T12:41:05Z</time>
      </trkpt>
      <trkpt lat="47.85411" lon="6.81651">
        <ele>546.9</ele>
        <time>2022-09-13T12:41:06Z</time>
      </trkpt>
      <trkpt lat="47.85412" lon="6.81656">
        <ele>547.3</ele>
        <time>2022-09-13T12:41:07Z</time>
      </trkpt>
      <trkpt lat="47.85413" lon="6.81662">
        <ele>547.8</ele>
        <time>2022-09-13T12:41:08Z</time>
      </trkpt>
      <trkpt lat="47.85415" lon="6.81667">
        <ele>548.1</ele>
        <time>2022-09-13T12:41:09Z</time>
      </trkpt>
      <trkpt lat="47.85416" lon="6.81673">
        <ele>548.5</ele>
        <time>2022-09-13T12:41:10Z</time>
      </trkpt>
      <trkpt lat="47.85418" lon="6.81678">
        <ele>548.5</ele>
        <time>2022-09-13T12:41:11Z</time>
      </trkpt>
      <trkpt lat="47.85419" lon="6.81683">
        <ele>548.7</ele>
        <time>2022-09-13T12:41:12Z</time>
      </trkpt>
      <trkpt lat="47.85421" lon="6.81688">
        <ele>548.8</ele>
        <time>2022-09-13T12:41:13Z</time>
      </trkpt>
      <trkpt lat="47.85422" lon="6.81693">
        <ele>549.1</ele>
        <time>2022-09-13T12:41:14Z</time>
      </trkpt>
      <trkpt lat="47.85424" lon="6.81697">
        <ele>549.1</ele>
        <time>2022-09-13T12:41:15Z</time>
      </trkpt>
      <trkpt lat="47.85426" lon="6.81702">
        <ele>549</ele>
        <time>2022-09-13T12:41:16Z</time>
      </trkpt>
      <trkpt lat="47.85428" lon="6.81707">
        <ele>549</ele>
        <time>2022-09-13T12:41:17Z</time>
      </trkpt>
      <trkpt lat="47.8543" lon="6.81712">
        <ele>549</ele>
        <time>2022-09-13T12:41:18Z</time>
      </trkpt>
      <trkpt lat="47.85432" lon="6.81717">
        <ele>549.1</ele>
        <time>2022-09-13T12:41:19Z</time>
      </trkpt>
      <trkpt lat="47.85434" lon="6.81722">
        <ele>549.1</ele>
        <time>2022-09-13T12:41:20Z</time>
      </trkpt>
      <trkpt lat="47.85436" lon="6.81727">
        <ele>549.1</ele>
        <time>2022-09-13T12:41:21Z</time>
      </trkpt>
      <trkpt lat="47.85438" lon="6.81732">
        <ele>549</ele>
        <time>2022-09-13T12:41:22Z</time>
      </trkpt>
      <trkpt lat="47.8544" lon="6.81737">
        <ele>549</ele>
        <time>2022-09-13T12:41:23Z</time>
      </trkpt>
      <trkpt lat="47.85442" lon="6.81741">
        <ele>548.9</ele>
        <time>2022-09-13T12:41:24Z</time>
      </trkpt>
      <trkpt lat="47.85444" lon="6.81746">
        <ele>548.9</ele>
        <time>2022-09-13T12:41:25Z</time>
      </trkpt>
      <trkpt lat="47.85446" lon="6.81751">
        <ele>548.6</ele>
        <time>2022-09-13T12:41:26Z</time>
      </trkpt>
      <trkpt lat="47.85448" lon="6.81755">
        <ele>548.5</ele>
        <time>2022-09-13T12:41:27Z</time>
      </trkpt>
      <trkpt lat="47.8545" lon="6.8176">
        <ele>548.6</ele>
        <time>2022-09-13T12:41:28Z</time>
      </trkpt>
      <trkpt lat="47.85453" lon="6.81764">
        <ele>548.4</ele>
        <time>2022-09-13T12:41:29Z</time>
      </trkpt>
      <trkpt lat="47.85455" lon="6.81768">
        <ele>548.5</ele>
        <time>2022-09-13T12:41:30Z</time>
      </trkpt>
      <trkpt lat="47.85458" lon="6.81772">
        <ele>548.5</ele>
        <time>2022-09-13T12:41:31Z</time>
      </trkpt>
      <trkpt lat="47.8546" lon="6.81777">
        <ele>549.1</ele>
        <time>2022-09-13T12:41:32Z</time>
      </trkpt>
      <trkpt lat="47.85463" lon="6.81781">
        <ele>548.8</ele>
        <time>2022-09-13T12:41:33Z</time>
      </trkpt>
      <trkpt lat="47.85465" lon="6.81785">
        <ele>548.7</ele>
        <time>2022-09-13T12:41:34Z</time>
      </trkpt>
      <trkpt lat="47.85468" lon="6.81789">
        <ele>548.4</ele>
        <time>2022-09-13T12:41:35Z</time>
      </trkpt>
      <trkpt lat="47.85471" lon="6.81793">
        <ele>548.3</ele>
        <time>2022-09-13T12:41:36Z</time>
      </trkpt>
      <trkpt lat="47.85473" lon="6.81796">
        <ele>548.1</ele>
        <time>2022-09-13T12:41:37Z</time>
      </trkpt>
      <trkpt lat="47.85476" lon="6.818">
        <ele>547.8</ele>
        <time>2022-09-13T12:41:38Z</time>
      </trkpt>
      <trkpt lat="47.85479" lon="6.81804">
        <ele>547.6</ele>
        <time>2022-09-13T12:41:39Z</time>
      </trkpt>
      <trkpt lat="47.85481" lon="6.81807">
        <ele>547.4</ele>
        <time>2022-09-13T12:41:40Z</time>
      </trkpt>
      <trkpt lat="47.85484" lon="6.81811">
        <ele>546.8</ele>
        <time>2022-09-13T12:41:41Z</time>
      </trkpt>
      <trkpt lat="47.85487" lon="6.81814">
        <ele>546.6</ele>
        <time>2022-09-13T12:41:42Z</time>
      </trkpt>
      <trkpt lat="47.8549" lon="6.81818">
        <ele>546.6</ele>
        <time>2022-09-13T12:41:43Z</time>
      </trkpt>
      <trkpt lat="47.85492" lon="6.81821">
        <ele>546.8</ele>
        <time>2022-09-13T12:41:44Z</time>
      </trkpt>
      <trkpt lat="47.85495" lon="6.81824">
        <ele>547.1</ele>
        <time>2022-09-13T12:41:45Z</time>
      </trkpt>
      <trkpt lat="47.85497" lon="6.81827">
        <ele>547.6</ele>
        <time>2022-09-13T12:41:46Z</time>
      </trkpt>
      <trkpt lat="47.855" lon="6.8183">
        <ele>548.4</ele>
        <time>2022-09-13T12:41:47Z</time>
      </trkpt>
      <trkpt lat="47.85503" lon="6.81834">
        <ele>548.4</ele>
        <time>2022-09-13T12:41:48Z</time>
      </trkpt>
      <trkpt lat="47.85505" lon="6.81837">
        <ele>548.1</ele>
        <time>2022-09-13T12:41:49Z</time>
      </trkpt>
      <trkpt lat="47.85508" lon="6.81841">
        <ele>547.7</ele>
        <time>2022-09-13T12:41:50Z</time>
      </trkpt>
      <trkpt lat="47.85511" lon="6.81844">
        <ele>547.5</ele>
        <time>2022-09-13T12:41:51Z</time>
      </trkpt>
      <trkpt lat="47.85514" lon="6.81847">
        <ele>547.5</ele>
        <time>2022-09-13T12:41:52Z</time>
      </trkpt>
      <trkpt lat="47.85517" lon="6.8185">
        <ele>547.5</ele>
        <time>2022-09-13T12:41:53Z</time>
      </trkpt>
      <trkpt lat="47.8552" lon="6.81853">
        <ele>547.7</ele>
        <time>2022-09-13T12:41:54Z</time>
      </trkpt>
      <trkpt lat="47.85524" lon="6.81856">
        <ele>548</ele>
        <time>2022-09-13T12:41:55Z</time>
      </trkpt>
      <trkpt lat="47.85527" lon="6.81859">
        <ele>548.6</ele>
        <time>2022-09-13T12:41:56Z</time>
      </trkpt>
      <trkpt lat="47.8553" lon="6.81862">
        <ele>548.8</ele>
        <time>2022-09-13T12:41:57Z</time>
      </trkpt>
      <trkpt lat="47.85534" lon="6.81865">
        <ele>548.5</ele>
        <time>2022-09-13T12:41:58Z</time>
      </trkpt>
      <trkpt lat="47.85537" lon="6.81868">
        <ele>548.4</ele>
        <time>2022-09-13T12:41:59Z</time>
      </trkpt>
      <trkpt lat="47.8554" lon="6.81871">
        <ele>548.3</ele>
        <time>2022-09-13T12:42:00Z</time>
      </trkpt>
      <trkpt lat="47.85543" lon="6.81873">
        <ele>548.3</ele>
        <time>2022-09-13T12:42:01Z</time>
      </trkpt>
      <trkpt lat="47.85546" lon="6.81876">
        <ele>548.3</ele>
        <time>2022-09-13T12:42:02Z</time>
      </trkpt>
      <trkpt lat="47.8555" lon="6.81878">
        <ele>548.2</ele>
        <time>2022-09-13T12:42:03Z</time>
      </trkpt>
      <trkpt lat="47.85553" lon="6.81881">
        <ele>548.3</ele>
        <time>2022-09-13T12:42:04Z</time>
      </trkpt>
      <trkpt lat="47.85556" lon="6.81884">
        <ele>548.5</ele>
        <time>2022-09-13T12:42:05Z</time>
      </trkpt>
      <trkpt lat="47.85559" lon="6.81886">
        <ele>548.6</ele>
        <time>2022-09-13T12:42:06Z</time>
      </trkpt>
      <trkpt lat="47.85563" lon="6.81889">
        <ele>549</ele>
        <time>2022-09-13T12:42:07Z</time>
      </trkpt>
      <trkpt lat="47.85566" lon="6.81891">
        <ele>549</ele>
        <time>2022-09-13T12:42:08Z</time>
      </trkpt>
      <trkpt lat="47.85569" lon="6.81894">
        <ele>549.1</ele>
        <time>2022-09-13T12:42:09Z</time>
      </trkpt>
      <trkpt lat="47.85573" lon="6.81896">
        <ele>549.1</ele>
        <time>2022-09-13T12:42:10Z</time>
      </trkpt>
      <trkpt lat="47.85576" lon="6.81898">
        <ele>549.1</ele>
        <time>2022-09-13T12:42:11Z</time>
      </trkpt>
      <trkpt lat="47.8558" lon="6.81901">
        <ele>549.1</ele>
        <time>2022-09-13T12:42:12Z</time>
      </trkpt>
      <trkpt lat="47.85583" lon="6.81903">
        <ele>549</ele>
        <time>2022-09-13T12:42:13Z</time>
      </trkpt>
      <trkpt lat="47.85586" lon="6.81906">
        <ele>549</ele>
        <time>2022-09-13T12:42:14Z</time>
      </trkpt>
      <trkpt lat="47.8559" lon="6.81909">
        <ele>548.9</ele>
        <time>2022-09-13T12:42:15Z</time>
      </trkpt>
      <trkpt lat="47.85593" lon="6.81912">
        <ele>548.9</ele>
        <time>2022-09-13T12:42:16Z</time>
      </trkpt>
      <trkpt lat="47.85596" lon="6.81914">
        <ele>549</ele>
        <time>2022-09-13T12:42:17Z</time>
      </trkpt>
      <trkpt lat="47.856" lon="6.81916">
        <ele>549</ele>
        <time>2022-09-13T12:42:18Z</time>
      </trkpt>
      <trkpt lat="47.85604" lon="6.81918">
        <ele>549</ele>
        <time>2022-09-13T12:42:19Z</time>
      </trkpt>
      <trkpt lat="47.85607" lon="6.8192">
        <ele>549.1</ele>
        <time>2022-09-13T12:42:20Z</time>
      </trkpt>
      <trkpt lat="47.85611" lon="6.81922">
        <ele>549.2</ele>
        <time>2022-09-13T12:42:21Z</time>
      </trkpt>
      <trkpt lat="47.85614" lon="6.81924">
        <ele>549.2</ele>
        <time>2022-09-13T12:42:22Z</time>
      </trkpt>
      <trkpt lat="47.85617" lon="6.81927">
        <ele>549.3</ele>
        <time>2022-09-13T12:42:23Z</time>
      </trkpt>
      <trkpt lat="47.8562" lon="6.81929">
        <ele>549.3</ele>
        <time>2022-09-13T12:42:24Z</time>
      </trkpt>
      <trkpt lat="47.85624" lon="6.81931">
        <ele>549.3</ele>
        <time>2022-09-13T12:42:25Z</time>
      </trkpt>
      <trkpt lat="47.85627" lon="6.81933">
        <ele>549.3</ele>
        <time>2022-09-13T12:42:26Z</time>
      </trkpt>
      <trkpt lat="47.85631" lon="6.81935">
        <ele>549.2</ele>
        <time>2022-09-13T12:42:27Z</time>
      </trkpt>
      <trkpt lat="47.85634" lon="6.81937">
        <ele>549.1</ele>
        <time>2022-09-13T12:42:28Z</time>
      </trkpt>
      <trkpt lat="47.85638" lon="6.81939">
        <ele>549</ele>
        <time>2022-09-13T12:42:29Z</time>
      </trkpt>
      <trkpt lat="47.85641" lon="6.81941">
        <ele>549</ele>
        <time>2022-09-13T12:42:30Z</time>
      </trkpt>
      <trkpt lat="47.85645" lon="6.81943">
        <ele>549</ele>
        <time>2022-09-13T12:42:31Z</time>
      </trkpt>
      <trkpt lat="47.85648" lon="6.81946">
        <ele>549.1</ele>
        <time>2022-09-13T12:42:32Z</time>
      </trkpt>
      <trkpt lat="47.85652" lon="6.81948">
        <ele>549.2</ele>
        <time>2022-09-13T12:42:33Z</time>
      </trkpt>
      <trkpt lat="47.85655" lon="6.8195">
        <ele>549.3</ele>
        <time>2022-09-13T12:42:34Z</time>
      </trkpt>
      <trkpt lat="47.85658" lon="6.81953">
        <ele>549.5</ele>
        <time>2022-09-13T12:42:35Z</time>
      </trkpt>
      <trkpt lat="47.85662" lon="6.81955">
        <ele>549.7</ele>
        <time>2022-09-13T12:42:36Z</time>
      </trkpt>
      <trkpt lat="47.85665" lon="6.81957">
        <ele>549.9</ele>
        <time>2022-09-13T12:42:37Z</time>
      </trkpt>
      <trkpt lat="47.85669" lon="6.8196">
        <ele>550</ele>
        <time>2022-09-13T12:42:38Z</time>
      </trkpt>
      <trkpt lat="47.85672" lon="6.81962">
        <ele>550</ele>
        <time>2022-09-13T12:42:39Z</time>
      </trkpt>
      <trkpt lat="47.85675" lon="6.81964">
        <ele>550</ele>
        <time>2022-09-13T12:42:40Z</time>
      </trkpt>
      <trkpt lat="47.85679" lon="6.81967">
        <ele>549.9</ele>
        <time>2022-09-13T12:42:41Z</time>
      </trkpt>
      <trkpt lat="47.85682" lon="6.81969">
        <ele>549.8</ele>
        <time>2022-09-13T12:42:42Z</time>
      </trkpt>
      <trkpt lat="47.85686" lon="6.81971">
        <ele>549.6</ele>
        <time>2022-09-13T12:42:43Z</time>
      </trkpt>
      <trkpt lat="47.85689" lon="6.81974">
        <ele>549.6</ele>
        <time>2022-09-13T12:42:44Z</time>
      </trkpt>
      <trkpt lat="47.85693" lon="6.81976">
        <ele>549.5</ele>
        <time>2022-09-13T12:42:45Z</time>
      </trkpt>
      <trkpt lat="47.85696" lon="6.81979">
        <ele>549.7</ele>
        <time>2022-09-13T12:42:46Z</time>
      </trkpt>
      <trkpt lat="47.857" lon="6.81982">
        <ele>550</ele>
        <time>2022-09-13T12:42:47Z</time>
      </trkpt>
      <trkpt lat="47.85703" lon="6.81985">
        <ele>550.1</ele>
        <time>2022-09-13T12:42:48Z</time>
      </trkpt>
      <trkpt lat="47.85706" lon="6.81987">
        <ele>550.1</ele>
        <time>2022-09-13T12:42:49Z</time>
      </trkpt>
      <trkpt lat="47.85709" lon="6.8199">
        <ele>550.1</ele>
        <time>2022-09-13T12:42:50Z</time>
      </trkpt>
      <trkpt lat="47.85712" lon="6.81993">
        <ele>550</ele>
        <time>2022-09-13T12:42:51Z</time>
      </trkpt>
      <trkpt lat="47.85715" lon="6.81996">
        <ele>549.8</ele>
        <time>2022-09-13T12:42:52Z</time>
      </trkpt>
      <trkpt lat="47.85718" lon="6.81999">
        <ele>549.5</ele>
        <time>2022-09-13T12:42:53Z</time>
      </trkpt>
      <trkpt lat="47.8572" lon="6.82002">
        <ele>549.4</ele>
        <time>2022-09-13T12:42:54Z</time>
      </trkpt>
      <trkpt lat="47.85723" lon="6.82004">
        <ele>549.3</ele>
        <time>2022-09-13T12:42:55Z</time>
      </trkpt>
      <trkpt lat="47.85725" lon="6.82006">
        <ele>549.4</ele>
        <time>2022-09-13T12:42:56Z</time>
      </trkpt>
      <trkpt lat="47.85728" lon="6.82008">
        <ele>549.5</ele>
        <time>2022-09-13T12:42:57Z</time>
      </trkpt>
      <trkpt lat="47.8573" lon="6.8201">
        <ele>549.5</ele>
        <time>2022-09-13T12:42:58Z</time>
      </trkpt>
      <trkpt lat="47.85731" lon="6.82011">
        <ele>549.5</ele>
        <time>2022-09-13T12:42:59Z</time>
      </trkpt>
      <trkpt lat="47.85733" lon="6.82013">
        <ele>549.6</ele>
        <time>2022-09-13T12:43:00Z</time>
      </trkpt>
      <trkpt lat="47.85735" lon="6.82015">
        <ele>549.6</ele>
        <time>2022-09-13T12:43:01Z</time>
      </trkpt>
      <trkpt lat="47.85736" lon="6.82017">
        <ele>549.6</ele>
        <time>2022-09-13T12:43:02Z</time>
      </trkpt>
      <trkpt lat="47.85738" lon="6.82019">
        <ele>549.6</ele>
        <time>2022-09-13T12:43:03Z</time>
      </trkpt>
      <trkpt lat="47.85739" lon="6.8202">
        <ele>549.6</ele>
        <time>2022-09-13T12:43:04Z</time>
      </trkpt>
      <trkpt lat="47.8574" lon="6.82021">
        <ele>549.5</ele>
        <time>2022-09-13T12:43:43Z</time>
      </trkpt>
      <trkpt lat="47.8574" lon="6.82022">
        <ele>549.6</ele>
        <time>2022-09-13T12:43:44Z</time>
      </trkpt>
      <trkpt lat="47.85741" lon="6.82023">
        <ele>549.5</ele>
        <time>2022-09-13T12:43:45Z</time>
      </trkpt>
      <trkpt lat="47.85742" lon="6.82024">
        <ele>549.5</ele>
        <time>2022-09-13T12:43:46Z</time>
      </trkpt>
      <trkpt lat="47.85742" lon="6.82025">
        <ele>549.5</ele>
        <time>2022-09-13T12:43:47Z</time>
      </trkpt>
      <trkpt lat="47.85743" lon="6.82026">
        <ele>549.5</ele>
        <time>2022-09-13T12:43:48Z</time>
      </trkpt>
      <trkpt lat="47.85744" lon="6.82027">
        <ele>549.4</ele>
        <time>2022-09-13T12:43:49Z</time>
      </trkpt>
      <trkpt lat="47.85746" lon="6.82028">
        <ele>549.3</ele>
        <time>2022-09-13T12:43:50Z</time>
      </trkpt>
      <trkpt lat="47.85747" lon="6.82028">
        <ele>549.3</ele>
        <time>2022-09-13T12:43:51Z</time>
      </trkpt>
      <trkpt lat="47.8575" lon="6.8203">
        <ele>549.6</ele>
        <time>2022-09-13T12:43:52Z</time>
      </trkpt>
      <trkpt lat="47.85752" lon="6.82031">
        <ele>549.5</ele>
        <time>2022-09-13T12:43:53Z</time>
      </trkpt>
      <trkpt lat="47.85754" lon="6.82033">
        <ele>549.5</ele>
        <time>2022-09-13T12:43:54Z</time>
      </trkpt>
      <trkpt lat="47.85756" lon="6.82036">
        <ele>549.7</ele>
        <time>2022-09-13T12:43:55Z</time>
      </trkpt>
      <trkpt lat="47.85758" lon="6.82038">
        <ele>549.6</ele>
        <time>2022-09-13T12:43:56Z</time>
      </trkpt>
      <trkpt lat="47.8576" lon="6.82041">
        <ele>549.5</ele>
        <time>2022-09-13T12:43:57Z</time>
      </trkpt>
      <trkpt lat="47.85761" lon="6.82044">
        <ele>549.7</ele>
        <time>2022-09-13T12:43:58Z</time>
      </trkpt>
      <trkpt lat="47.85765" lon="6.82049">
        <ele>548.9</ele>
        <time>2022-09-13T12:43:59Z</time>
      </trkpt>
      <trkpt lat="47.85768" lon="6.82052">
        <ele>548</ele>
        <time>2022-09-13T12:44:00Z</time>
      </trkpt>
      <trkpt lat="47.85771" lon="6.82056">
        <ele>546.9</ele>
        <time>2022-09-13T12:44:01Z</time>
      </trkpt>
      <trkpt lat="47.85774" lon="6.82059">
        <ele>545.7</ele>
        <time>2022-09-13T12:44:02Z</time>
      </trkpt>
      <trkpt lat="47.85776" lon="6.82062">
        <ele>545</ele>
        <time>2022-09-13T12:44:03Z</time>
      </trkpt>
      <trkpt lat="47.85779" lon="6.82066">
        <ele>544.8</ele>
        <time>2022-09-13T12:44:04Z</time>
      </trkpt>
      <trkpt lat="47.85782" lon="6.82069">
        <ele>545.9</ele>
        <time>2022-09-13T12:44:05Z</time>
      </trkpt>
      <trkpt lat="47.85785" lon="6.82072">
        <ele>546.9</ele>
        <time>2022-09-13T12:44:06Z</time>
      </trkpt>
      <trkpt lat="47.85788" lon="6.82075">
        <ele>547.9</ele>
        <time>2022-09-13T12:44:07Z</time>
      </trkpt>
      <trkpt lat="47.8579" lon="6.82079">
        <ele>548.5</ele>
        <time>2022-09-13T12:44:08Z</time>
      </trkpt>
      <trkpt lat="47.85793" lon="6.82082">
        <ele>549.4</ele>
        <time>2022-09-13T12:44:09Z</time>
      </trkpt>
      <trkpt lat="47.85796" lon="6.82086">
        <ele>550.3</ele>
        <time>2022-09-13T12:44:10Z</time>
      </trkpt>
      <trkpt lat="47.85799" lon="6.82089">
        <ele>551.1</ele>
        <time>2022-09-13T12:44:11Z</time>
      </trkpt>
      <trkpt lat="47.85801" lon="6.82092">
        <ele>551.5</ele>
        <time>2022-09-13T12:44:12Z</time>
      </trkpt>
      <trkpt lat="47.85804" lon="6.82096">
        <ele>552.2</ele>
        <time>2022-09-13T12:44:13Z</time>
      </trkpt>
      <trkpt lat="47.85807" lon="6.82099">
        <ele>552.7</ele>
        <time>2022-09-13T12:44:14Z</time>
      </trkpt>
      <trkpt lat="47.8581" lon="6.82102">
        <ele>553</ele>
        <time>2022-09-13T12:44:15Z</time>
      </trkpt>
      <trkpt lat="47.85813" lon="6.82106">
        <ele>553.3</ele>
        <time>2022-09-13T12:44:16Z</time>
      </trkpt>
      <trkpt lat="47.85816" lon="6.82109">
        <ele>553.6</ele>
        <time>2022-09-13T12:44:17Z</time>
      </trkpt>
      <trkpt lat="47.85819" lon="6.82113">
        <ele>553.7</ele>
        <time>2022-09-13T12:44:18Z</time>
      </trkpt>
      <trkpt lat="47.85822" lon="6.82116">
        <ele>553.8</ele>
        <time>2022-09-13T12:44:19Z</time>
      </trkpt>
      <trkpt lat="47.85825" lon="6.82119">
        <ele>553.9</ele>
        <time>2022-09-13T12:44:20Z</time>
      </trkpt>
      <trkpt lat="47.85828" lon="6.82123">
        <ele>553.9</ele>
        <time>2022-09-13T12:44:21Z</time>
      </trkpt>
      <trkpt lat="47.85831" lon="6.82127">
        <ele>553.9</ele>
        <time>2022-09-13T12:44:22Z</time>
      </trkpt>
      <trkpt lat="47.85835" lon="6.8213">
        <ele>554.2</ele>
        <time>2022-09-13T12:44:23Z</time>
      </trkpt>
      <trkpt lat="47.85838" lon="6.82134">
        <ele>554</ele>
        <time>2022-09-13T12:44:24Z</time>
      </trkpt>
      <trkpt lat="47.85841" lon="6.82137">
        <ele>553.8</ele>
        <time>2022-09-13T12:44:25Z</time>
      </trkpt>
      <trkpt lat="47.85844" lon="6.82141">
        <ele>553.5</ele>
        <time>2022-09-13T12:44:26Z</time>
      </trkpt>
      <trkpt lat="47.85847" lon="6.82145">
        <ele>553.1</ele>
        <time>2022-09-13T12:44:27Z</time>
      </trkpt>
      <trkpt lat="47.8585" lon="6.82148">
        <ele>552.9</ele>
        <time>2022-09-13T12:44:28Z</time>
      </trkpt>
      <trkpt lat="47.85854" lon="6.82152">
        <ele>552.6</ele>
        <time>2022-09-13T12:44:29Z</time>
      </trkpt>
      <trkpt lat="47.85857" lon="6.82155">
        <ele>552.4</ele>
        <time>2022-09-13T12:44:30Z</time>
      </trkpt>
      <trkpt lat="47.8586" lon="6.82159">
        <ele>552</ele>
        <time>2022-09-13T12:44:31Z</time>
      </trkpt>
      <trkpt lat="47.85863" lon="6.82163">
        <ele>551.5</ele>
        <time>2022-09-13T12:44:32Z</time>
      </trkpt>
      <trkpt lat="47.85866" lon="6.82166">
        <ele>550.9</ele>
        <time>2022-09-13T12:44:33Z</time>
      </trkpt>
      <trkpt lat="47.85869" lon="6.8217">
        <ele>550.3</ele>
        <time>2022-09-13T12:44:34Z</time>
      </trkpt>
      <trkpt lat="47.85873" lon="6.82174">
        <ele>549.9</ele>
        <time>2022-09-13T12:44:35Z</time>
      </trkpt>
      <trkpt lat="47.85876" lon="6.82177">
        <ele>549.8</ele>
        <time>2022-09-13T12:44:36Z</time>
      </trkpt>
      <trkpt lat="47.85879" lon="6.82181">
        <ele>549.8</ele>
        <time>2022-09-13T12:44:37Z</time>
      </trkpt>
      <trkpt lat="47.85882" lon="6.82184">
        <ele>549.9</ele>
        <time>2022-09-13T12:44:38Z</time>
      </trkpt>
      <trkpt lat="47.85886" lon="6.82188">
        <ele>550.4</ele>
        <time>2022-09-13T12:44:39Z</time>
      </trkpt>
      <trkpt lat="47.85889" lon="6.82191">
        <ele>550.9</ele>
        <time>2022-09-13T12:44:40Z</time>
      </trkpt>
      <trkpt lat="47.85892" lon="6.82195">
        <ele>551.1</ele>
        <time>2022-09-13T12:44:41Z</time>
      </trkpt>
      <trkpt lat="47.85895" lon="6.82198">
        <ele>550.9</ele>
        <time>2022-09-13T12:44:42Z</time>
      </trkpt>
      <trkpt lat="47.85898" lon="6.82202">
        <ele>550.7</ele>
        <time>2022-09-13T12:44:43Z</time>
      </trkpt>
      <trkpt lat="47.85901" lon="6.82205">
        <ele>550.6</ele>
        <time>2022-09-13T12:44:44Z</time>
      </trkpt>
      <trkpt lat="47.85904" lon="6.82209">
        <ele>550.6</ele>
        <time>2022-09-13T12:44:45Z</time>
      </trkpt>
      <trkpt lat="47.85907" lon="6.82212">
        <ele>550.8</ele>
        <time>2022-09-13T12:44:46Z</time>
      </trkpt>
      <trkpt lat="47.85911" lon="6.82216">
        <ele>551.2</ele>
        <time>2022-09-13T12:44:47Z</time>
      </trkpt>
      <trkpt lat="47.85914" lon="6.8222">
        <ele>551.5</ele>
        <time>2022-09-13T12:44:48Z</time>
      </trkpt>
      <trkpt lat="47.85917" lon="6.82223">
        <ele>552</ele>
        <time>2022-09-13T12:44:49Z</time>
      </trkpt>
      <trkpt lat="47.8592" lon="6.82227">
        <ele>552</ele>
        <time>2022-09-13T12:44:50Z</time>
      </trkpt>
      <trkpt lat="47.85923" lon="6.82231">
        <ele>552</ele>
        <time>2022-09-13T12:44:51Z</time>
      </trkpt>
      <trkpt lat="47.85926" lon="6.82235">
        <ele>552</ele>
        <time>2022-09-13T12:44:52Z</time>
      </trkpt>
      <trkpt lat="47.85929" lon="6.82239">
        <ele>552</ele>
        <time>2022-09-13T12:44:53Z</time>
      </trkpt>
      <trkpt lat="47.85933" lon="6.82242">
        <ele>552.2</ele>
        <time>2022-09-13T12:44:54Z</time>
      </trkpt>
      <trkpt lat="47.85936" lon="6.82246">
        <ele>552.2</ele>
        <time>2022-09-13T12:44:55Z</time>
      </trkpt>
      <trkpt lat="47.85939" lon="6.8225">
        <ele>552.2</ele>
        <time>2022-09-13T12:44:56Z</time>
      </trkpt>
      <trkpt lat="47.85942" lon="6.82254">
        <ele>552.3</ele>
        <time>2022-09-13T12:44:57Z</time>
      </trkpt>
      <trkpt lat="47.85945" lon="6.82258">
        <ele>552.2</ele>
        <time>2022-09-13T12:44:58Z</time>
      </trkpt>
      <trkpt lat="47.85948" lon="6.82261">
        <ele>552.3</ele>
        <time>2022-09-13T12:44:59Z</time>
      </trkpt>
      <trkpt lat="47.85951" lon="6.82265">
        <ele>552.3</ele>
        <time>2022-09-13T12:45:00Z</time>
      </trkpt>
      <trkpt lat="47.85954" lon="6.82268">
        <ele>552.4</ele>
        <time>2022-09-13T12:45:01Z</time>
      </trkpt>
      <trkpt lat="47.85957" lon="6.82271">
        <ele>552.5</ele>
        <time>2022-09-13T12:45:02Z</time>
      </trkpt>
      <trkpt lat="47.8596" lon="6.82274">
        <ele>552.6</ele>
        <time>2022-09-13T12:45:03Z</time>
      </trkpt>
      <trkpt lat="47.85963" lon="6.82277">
        <ele>552.8</ele>
        <time>2022-09-13T12:45:04Z</time>
      </trkpt>
      <trkpt lat="47.85966" lon="6.8228">
        <ele>553</ele>
        <time>2022-09-13T12:45:05Z</time>
      </trkpt>
      <trkpt lat="47.85969" lon="6.82282">
        <ele>553.2</ele>
        <time>2022-09-13T12:45:06Z</time>
      </trkpt>
      <trkpt lat="47.85971" lon="6.82284">
        <ele>553.4</ele>
        <time>2022-09-13T12:45:07Z</time>
      </trkpt>
      <trkpt lat="47.85973" lon="6.82286">
        <ele>553.5</ele>
        <time>2022-09-13T12:45:08Z</time>
      </trkpt>
      <trkpt lat="47.85974" lon="6.82287">
        <ele>553.5</ele>
        <time>2022-09-13T12:45:09Z</time>
      </trkpt>
      <trkpt lat="47.85975" lon="6.82288">
        <ele>553.5</ele>
        <time>2022-09-13T12:45:10Z</time>
      </trkpt>
      <trkpt lat="47.85977" lon="6.8229">
        <ele>553.5</ele>
        <time>2022-09-13T12:45:11Z</time>
      </trkpt>
      <trkpt lat="47.85977" lon="6.82291">
        <ele>553.5</ele>
        <time>2022-09-13T12:45:12Z</time>
      </trkpt>
      <trkpt lat="47.85978" lon="6.82293">
        <ele>553.4</ele>
        <time>2022-09-13T12:45:13Z</time>
      </trkpt>
      <trkpt lat="47.85979" lon="6.82294">
        <ele>553.5</ele>
        <time>2022-09-13T12:45:14Z</time>
      </trkpt>
      <trkpt lat="47.85981" lon="6.82296">
        <ele>553.5</ele>
        <time>2022-09-13T12:45:15Z</time>
      </trkpt>
      <trkpt lat="47.85982" lon="6.82296">
        <ele>553.6</ele>
        <time>2022-09-13T12:45:16Z</time>
      </trkpt>
      <trkpt lat="47.85985" lon="6.82296">
        <ele>553.9</ele>
        <time>2022-09-13T12:45:17Z</time>
      </trkpt>
      <trkpt lat="47.85987" lon="6.82294">
        <ele>554.2</ele>
        <time>2022-09-13T12:45:18Z</time>
      </trkpt>
      <trkpt lat="47.85988" lon="6.82292">
        <ele>554.4</ele>
        <time>2022-09-13T12:45:19Z</time>
      </trkpt>
      <trkpt lat="47.85989" lon="6.82289">
        <ele>554.6</ele>
        <time>2022-09-13T12:45:20Z</time>
      </trkpt>
      <trkpt lat="47.8599" lon="6.82286">
        <ele>554.9</ele>
        <time>2022-09-13T12:45:21Z</time>
      </trkpt>
      <trkpt lat="47.85991" lon="6.82283">
        <ele>555.1</ele>
        <time>2022-09-13T12:45:22Z</time>
      </trkpt>
      <trkpt lat="47.85991" lon="6.82279">
        <ele>555.3</ele>
        <time>2022-09-13T12:45:23Z</time>
      </trkpt>
      <trkpt lat="47.85991" lon="6.82275">
        <ele>555.7</ele>
        <time>2022-09-13T12:45:24Z</time>
      </trkpt>
      <trkpt lat="47.85991" lon="6.82271">
        <ele>556.1</ele>
        <time>2022-09-13T12:45:25Z</time>
      </trkpt>
      <trkpt lat="47.85991" lon="6.82268">
        <ele>556.4</ele>
        <time>2022-09-13T12:45:26Z</time>
      </trkpt>
      <trkpt lat="47.8599" lon="6.82264">
        <ele>556.8</ele>
        <time>2022-09-13T12:45:27Z</time>
      </trkpt>
      <trkpt lat="47.8599" lon="6.8226">
        <ele>557.2</ele>
        <time>2022-09-13T12:45:28Z</time>
      </trkpt>
      <trkpt lat="47.85989" lon="6.82256">
        <ele>557.6</ele>
        <time>2022-09-13T12:45:29Z</time>
      </trkpt>
      <trkpt lat="47.85989" lon="6.82253">
        <ele>557.9</ele>
        <time>2022-09-13T12:45:30Z</time>
      </trkpt>
      <trkpt lat="47.85989" lon="6.82249">
        <ele>558.3</ele>
        <time>2022-09-13T12:45:31Z</time>
      </trkpt>
      <trkpt lat="47.8599" lon="6.82245">
        <ele>558.6</ele>
        <time>2022-09-13T12:45:32Z</time>
      </trkpt>
      <trkpt lat="47.8599" lon="6.82241">
        <ele>558.8</ele>
        <time>2022-09-13T12:45:33Z</time>
      </trkpt>
      <trkpt lat="47.85991" lon="6.82238">
        <ele>559.1</ele>
        <time>2022-09-13T12:45:34Z</time>
      </trkpt>
      <trkpt lat="47.85992" lon="6.82235">
        <ele>559.3</ele>
        <time>2022-09-13T12:45:35Z</time>
      </trkpt>
      <trkpt lat="47.85993" lon="6.82232">
        <ele>559.6</ele>
        <time>2022-09-13T12:45:36Z</time>
      </trkpt>
      <trkpt lat="47.85994" lon="6.82228">
        <ele>560</ele>
        <time>2022-09-13T12:45:37Z</time>
      </trkpt>
      <trkpt lat="47.85995" lon="6.82225">
        <ele>560.3</ele>
        <time>2022-09-13T12:45:38Z</time>
      </trkpt>
      <trkpt lat="47.85996" lon="6.82222">
        <ele>560.6</ele>
        <time>2022-09-13T12:45:39Z</time>
      </trkpt>
      <trkpt lat="47.85998" lon="6.82219">
        <ele>561</ele>
        <time>2022-09-13T12:45:40Z</time>
      </trkpt>
      <trkpt lat="47.85999" lon="6.82217">
        <ele>561.3</ele>
        <time>2022-09-13T12:45:41Z</time>
      </trkpt>
      <trkpt lat="47.86" lon="6.82214">
        <ele>561.6</ele>
        <time>2022-09-13T12:45:42Z</time>
      </trkpt>
      <trkpt lat="47.86001" lon="6.82211">
        <ele>561.9</ele>
        <time>2022-09-13T12:45:43Z</time>
      </trkpt>
      <trkpt lat="47.86002" lon="6.82207">
        <ele>562.3</ele>
        <time>2022-09-13T12:45:44Z</time>
      </trkpt>
      <trkpt lat="47.86004" lon="6.82204">
        <ele>562.6</ele>
        <time>2022-09-13T12:45:45Z</time>
      </trkpt>
      <trkpt lat="47.86005" lon="6.82201">
        <ele>562.9</ele>
        <time>2022-09-13T12:45:46Z</time>
      </trkpt>
      <trkpt lat="47.86006" lon="6.82198">
        <ele>563.2</ele>
        <time>2022-09-13T12:45:47Z</time>
      </trkpt>
      <trkpt lat="47.86007" lon="6.82196">
        <ele>563.4</ele>
        <time>2022-09-13T12:45:48Z</time>
      </trkpt>
      <trkpt lat="47.86008" lon="6.82193">
        <ele>563.7</ele>
        <time>2022-09-13T12:45:49Z</time>
      </trkpt>
      <trkpt lat="47.86009" lon="6.8219">
        <ele>564</ele>
        <time>2022-09-13T12:45:50Z</time>
      </trkpt>
      <trkpt lat="47.8601" lon="6.82187">
        <ele>564.3</ele>
        <time>2022-09-13T12:45:51Z</time>
      </trkpt>
      <trkpt lat="47.86011" lon="6.82184">
        <ele>564.6</ele>
        <time>2022-09-13T12:45:52Z</time>
      </trkpt>
      <trkpt lat="47.86011" lon="6.8218">
        <ele>564.9</ele>
        <time>2022-09-13T12:45:53Z</time>
      </trkpt>
      <trkpt lat="47.86012" lon="6.82177">
        <ele>565.2</ele>
        <time>2022-09-13T12:45:54Z</time>
      </trkpt>
      <trkpt lat="47.86012" lon="6.82174">
        <ele>565.4</ele>
        <time>2022-09-13T12:45:55Z</time>
      </trkpt>
      <trkpt lat="47.86013" lon="6.82171">
        <ele>565.7</ele>
        <time>2022-09-13T12:45:56Z</time>
      </trkpt>
      <trkpt lat="47.86013" lon="6.82167">
        <ele>566</ele>
        <time>2022-09-13T12:45:57Z</time>
      </trkpt>
      <trkpt lat="47.86014" lon="6.82164">
        <ele>566.1</ele>
        <time>2022-09-13T12:45:58Z</time>
      </trkpt>
      <trkpt lat="47.86014" lon="6.82161">
        <ele>566.2</ele>
        <time>2022-09-13T12:45:59Z</time>
      </trkpt>
      <trkpt lat="47.86014" lon="6.82157">
        <ele>566.3</ele>
        <time>2022-09-13T12:46:00Z</time>
      </trkpt>
      <trkpt lat="47.86014" lon="6.82154">
        <ele>566.5</ele>
        <time>2022-09-13T12:46:01Z</time>
      </trkpt>
      <trkpt lat="47.86014" lon="6.8215">
        <ele>566.6</ele>
        <time>2022-09-13T12:46:02Z</time>
      </trkpt>
      <trkpt lat="47.86015" lon="6.82146">
        <ele>566.7</ele>
        <time>2022-09-13T12:46:03Z</time>
      </trkpt>
      <trkpt lat="47.86015" lon="6.82142">
        <ele>566.9</ele>
        <time>2022-09-13T12:46:04Z</time>
      </trkpt>
      <trkpt lat="47.86015" lon="6.82139">
        <ele>567</ele>
        <time>2022-09-13T12:46:05Z</time>
      </trkpt>
      <trkpt lat="47.86015" lon="6.82135">
        <ele>567.3</ele>
        <time>2022-09-13T12:46:06Z</time>
      </trkpt>
      <trkpt lat="47.86015" lon="6.82131">
        <ele>567.6</ele>
        <time>2022-09-13T12:46:07Z</time>
      </trkpt>
      <trkpt lat="47.86014" lon="6.82128">
        <ele>567.8</ele>
        <time>2022-09-13T12:46:08Z</time>
      </trkpt>
      <trkpt lat="47.86014" lon="6.82124">
        <ele>568.1</ele>
        <time>2022-09-13T12:46:09Z</time>
      </trkpt>
      <trkpt lat="47.86014" lon="6.82121">
        <ele>568.3</ele>
        <time>2022-09-13T12:46:10Z</time>
      </trkpt>
      <trkpt lat="47.86013" lon="6.82117">
        <ele>568.6</ele>
        <time>2022-09-13T12:46:11Z</time>
      </trkpt>
      <trkpt lat="47.86013" lon="6.82114">
        <ele>568.8</ele>
        <time>2022-09-13T12:46:12Z</time>
      </trkpt>
      <trkpt lat="47.86012" lon="6.8211">
        <ele>569.1</ele>
        <time>2022-09-13T12:46:13Z</time>
      </trkpt>
      <trkpt lat="47.86011" lon="6.82107">
        <ele>569.2</ele>
        <time>2022-09-13T12:46:14Z</time>
      </trkpt>
      <trkpt lat="47.86011" lon="6.82104">
        <ele>569.4</ele>
        <time>2022-09-13T12:46:15Z</time>
      </trkpt>
      <trkpt lat="47.8601" lon="6.821">
        <ele>569.6</ele>
        <time>2022-09-13T12:46:16Z</time>
      </trkpt>
      <trkpt lat="47.86009" lon="6.82097">
        <ele>569.7</ele>
        <time>2022-09-13T12:46:17Z</time>
      </trkpt>
      <trkpt lat="47.86007" lon="6.82094">
        <ele>569.6</ele>
        <time>2022-09-13T12:46:18Z</time>
      </trkpt>
      <trkpt lat="47.86006" lon="6.82091">
        <ele>569.6</ele>
        <time>2022-09-13T12:46:19Z</time>
      </trkpt>
      <trkpt lat="47.86005" lon="6.82088">
        <ele>569.6</ele>
        <time>2022-09-13T12:46:20Z</time>
      </trkpt>
      <trkpt lat="47.86004" lon="6.82085">
        <ele>569.5</ele>
        <time>2022-09-13T12:46:21Z</time>
      </trkpt>
      <trkpt lat="47.86002" lon="6.82082">
        <ele>569.4</ele>
        <time>2022-09-13T12:46:22Z</time>
      </trkpt>
      <trkpt lat="47.86001" lon="6.82079">
        <ele>569.5</ele>
        <time>2022-09-13T12:46:23Z</time>
      </trkpt>
      <trkpt lat="47.86" lon="6.82076">
        <ele>569.5</ele>
        <time>2022-09-13T12:46:24Z</time>
      </trkpt>
      <trkpt lat="47.85998" lon="6.82073">
        <ele>569.7</ele>
        <time>2022-09-13T12:46:25Z</time>
      </trkpt>
      <trkpt lat="47.85997" lon="6.8207">
        <ele>569.9</ele>
        <time>2022-09-13T12:46:26Z</time>
      </trkpt>
      <trkpt lat="47.85996" lon="6.82067">
        <ele>570.1</ele>
        <time>2022-09-13T12:46:27Z</time>
      </trkpt>
      <trkpt lat="47.85994" lon="6.82064">
        <ele>570.2</ele>
        <time>2022-09-13T12:46:28Z</time>
      </trkpt>
      <trkpt lat="47.85992" lon="6.82061">
        <ele>570.2</ele>
        <time>2022-09-13T12:46:29Z</time>
      </trkpt>
      <trkpt lat="47.85989" lon="6.82055">
        <ele>570.3</ele>
        <time>2022-09-13T12:46:30Z</time>
      </trkpt>
      <trkpt lat="47.85987" lon="6.82051">
        <ele>570.4</ele>
        <time>2022-09-13T12:46:31Z</time>
      </trkpt>
      <trkpt lat="47.85985" lon="6.82048">
        <ele>570.4</ele>
        <time>2022-09-13T12:46:32Z</time>
      </trkpt>
      <trkpt lat="47.85982" lon="6.82044">
        <ele>570.3</ele>
        <time>2022-09-13T12:46:33Z</time>
      </trkpt>
      <trkpt lat="47.8598" lon="6.82041">
        <ele>570.1</ele>
        <time>2022-09-13T12:46:34Z</time>
      </trkpt>
      <trkpt lat="47.85978" lon="6.82038">
        <ele>569.9</ele>
        <time>2022-09-13T12:46:35Z</time>
      </trkpt>
      <trkpt lat="47.85976" lon="6.82035">
        <ele>569.7</ele>
        <time>2022-09-13T12:46:36Z</time>
      </trkpt>
      <trkpt lat="47.85974" lon="6.82032">
        <ele>569.3</ele>
        <time>2022-09-13T12:46:37Z</time>
      </trkpt>
      <trkpt lat="47.85972" lon="6.82029">
        <ele>569</ele>
        <time>2022-09-13T12:46:38Z</time>
      </trkpt>
      <trkpt lat="47.8597" lon="6.82026">
        <ele>569.2</ele>
        <time>2022-09-13T12:46:39Z</time>
      </trkpt>
      <trkpt lat="47.85969" lon="6.82025">
        <ele>569.2</ele>
        <time>2022-09-13T12:46:40Z</time>
      </trkpt>
      <trkpt lat="47.85968" lon="6.82024">
        <ele>569.3</ele>
        <time>2022-09-13T12:46:41Z</time>
      </trkpt>
      <trkpt lat="47.85966" lon="6.82022">
        <ele>569.4</ele>
        <time>2022-09-13T12:46:42Z</time>
      </trkpt>
      <trkpt lat="47.85965" lon="6.8202">
        <ele>569.6</ele>
        <time>2022-09-13T12:46:43Z</time>
      </trkpt>
      <trkpt lat="47.85963" lon="6.82017">
        <ele>569.7</ele>
        <time>2022-09-13T12:46:44Z</time>
      </trkpt>
      <trkpt lat="47.85962" lon="6.82015">
        <ele>569.8</ele>
        <time>2022-09-13T12:46:45Z</time>
      </trkpt>
      <trkpt lat="47.8596" lon="6.82012">
        <ele>569.8</ele>
        <time>2022-09-13T12:46:46Z</time>
      </trkpt>
      <trkpt lat="47.85959" lon="6.8201">
        <ele>569.9</ele>
        <time>2022-09-13T12:46:47Z</time>
      </trkpt>
      <trkpt lat="47.85957" lon="6.82007">
        <ele>569.8</ele>
        <time>2022-09-13T12:46:48Z</time>
      </trkpt>
      <trkpt lat="47.85957" lon="6.82003">
        <ele>570.1</ele>
        <time>2022-09-13T12:46:49Z</time>
      </trkpt>
      <trkpt lat="47.85957" lon="6.82">
        <ele>570.3</ele>
        <time>2022-09-13T12:46:50Z</time>
      </trkpt>
      <trkpt lat="47.85957" lon="6.81997">
        <ele>570.7</ele>
        <time>2022-09-13T12:46:51Z</time>
      </trkpt>
      <trkpt lat="47.85959" lon="6.81995">
        <ele>571.4</ele>
        <time>2022-09-13T12:46:52Z</time>
      </trkpt>
      <trkpt lat="47.8596" lon="6.81994">
        <ele>571.7</ele>
        <time>2022-09-13T12:46:53Z</time>
      </trkpt>
      <trkpt lat="47.85962" lon="6.81994">
        <ele>572.1</ele>
        <time>2022-09-13T12:46:54Z</time>
      </trkpt>
      <trkpt lat="47.85964" lon="6.81994">
        <ele>572.6</ele>
        <time>2022-09-13T12:46:55Z</time>
      </trkpt>
      <trkpt lat="47.85966" lon="6.81994">
        <ele>573</ele>
        <time>2022-09-13T12:46:56Z</time>
      </trkpt>
      <trkpt lat="47.85968" lon="6.81995">
        <ele>573.2</ele>
        <time>2022-09-13T12:46:57Z</time>
      </trkpt>
      <trkpt lat="47.8597" lon="6.81996">
        <ele>573.4</ele>
        <time>2022-09-13T12:46:58Z</time>
      </trkpt>
      <trkpt lat="47.85971" lon="6.81997">
        <ele>573.4</ele>
        <time>2022-09-13T12:46:59Z</time>
      </trkpt>
      <trkpt lat="47.85973" lon="6.81998">
        <ele>573.7</ele>
        <time>2022-09-13T12:47:00Z</time>
      </trkpt>
      <trkpt lat="47.85975" lon="6.81999">
        <ele>574.1</ele>
        <time>2022-09-13T12:47:01Z</time>
      </trkpt>
      <trkpt lat="47.85977" lon="6.82001">
        <ele>574.4</ele>
        <time>2022-09-13T12:47:02Z</time>
      </trkpt>
      <trkpt lat="47.85979" lon="6.82002">
        <ele>574.9</ele>
        <time>2022-09-13T12:47:03Z</time>
      </trkpt>
      <trkpt lat="47.85981" lon="6.82003">
        <ele>575.3</ele>
        <time>2022-09-13T12:47:04Z</time>
      </trkpt>
      <trkpt lat="47.85983" lon="6.82004">
        <ele>575.7</ele>
        <time>2022-09-13T12:47:05Z</time>
      </trkpt>
      <trkpt lat="47.85985" lon="6.82006">
        <ele>576</ele>
        <time>2022-09-13T12:47:06Z</time>
      </trkpt>
      <trkpt lat="47.85987" lon="6.82007">
        <ele>576.4</ele>
        <time>2022-09-13T12:47:07Z</time>
      </trkpt>
      <trkpt lat="47.85989" lon="6.82008">
        <ele>576.8</ele>
        <time>2022-09-13T12:47:08Z</time>
      </trkpt>
      <trkpt lat="47.8599" lon="6.82009">
        <ele>576.8</ele>
        <time>2022-09-13T12:47:09Z</time>
      </trkpt>
      <trkpt lat="47.85992" lon="6.82011">
        <ele>577</ele>
        <time>2022-09-13T12:47:10Z</time>
      </trkpt>
      <trkpt lat="47.85994" lon="6.82012">
        <ele>577.3</ele>
        <time>2022-09-13T12:47:11Z</time>
      </trkpt>
      <trkpt lat="47.85996" lon="6.82013">
        <ele>577.6</ele>
        <time>2022-09-13T12:47:12Z</time>
      </trkpt>
      <trkpt lat="47.85998" lon="6.82015">
        <ele>577.7</ele>
        <time>2022-09-13T12:47:13Z</time>
      </trkpt>
      <trkpt lat="47.86" lon="6.82016">
        <ele>578</ele>
        <time>2022-09-13T12:47:14Z</time>
      </trkpt>
      <trkpt lat="47.86003" lon="6.82017">
        <ele>578.8</ele>
        <time>2022-09-13T12:47:15Z</time>
      </trkpt>
      <trkpt lat="47.86005" lon="6.82019">
        <ele>579.1</ele>
        <time>2022-09-13T12:47:16Z</time>
      </trkpt>
      <trkpt lat="47.86007" lon="6.8202">
        <ele>579.6</ele>
        <time>2022-09-13T12:47:17Z</time>
      </trkpt>
      <trkpt lat="47.86009" lon="6.82022">
        <ele>579.8</ele>
        <time>2022-09-13T12:47:18Z</time>
      </trkpt>
      <trkpt lat="47.86011" lon="6.82023">
        <ele>580.2</ele>
        <time>2022-09-13T12:47:19Z</time>
      </trkpt>
      <trkpt lat="47.86013" lon="6.82025">
        <ele>580.4</ele>
        <time>2022-09-13T12:47:20Z</time>
      </trkpt>
      <trkpt lat="47.86016" lon="6.82027">
        <ele>581</ele>
        <time>2022-09-13T12:47:21Z</time>
      </trkpt>
      <trkpt lat="47.8602" lon="6.82029">
        <ele>582</ele>
        <time>2022-09-13T12:47:22Z</time>
      </trkpt>
      <trkpt lat="47.86022" lon="6.82031">
        <ele>582.3</ele>
        <time>2022-09-13T12:47:23Z</time>
      </trkpt>
      <trkpt lat="47.86025" lon="6.82033">
        <ele>582.9</ele>
        <time>2022-09-13T12:47:24Z</time>
      </trkpt>
      <trkpt lat="47.86026" lon="6.82034">
        <ele>583</ele>
        <time>2022-09-13T12:47:25Z</time>
      </trkpt>
      <trkpt lat="47.86027" lon="6.82036">
        <ele>583</ele>
        <time>2022-09-13T12:47:26Z</time>
      </trkpt>
      <trkpt lat="47.86029" lon="6.82037">
        <ele>583.4</ele>
        <time>2022-09-13T12:47:27Z</time>
      </trkpt>
      <trkpt lat="47.86031" lon="6.82039">
        <ele>583.6</ele>
        <time>2022-09-13T12:47:28Z</time>
      </trkpt>
      <trkpt lat="47.86032" lon="6.8204">
        <ele>583.7</ele>
        <time>2022-09-13T12:47:29Z</time>
      </trkpt>
      <trkpt lat="47.86034" lon="6.82041">
        <ele>584.1</ele>
        <time>2022-09-13T12:47:30Z</time>
      </trkpt>
      <trkpt lat="47.86036" lon="6.82043">
        <ele>584.2</ele>
        <time>2022-09-13T12:47:31Z</time>
      </trkpt>
      <trkpt lat="47.86038" lon="6.82044">
        <ele>584.6</ele>
        <time>2022-09-13T12:47:32Z</time>
      </trkpt>
      <trkpt lat="47.86039" lon="6.82046">
        <ele>584.4</ele>
        <time>2022-09-13T12:47:33Z</time>
      </trkpt>
      <trkpt lat="47.86041" lon="6.82047">
        <ele>584.8</ele>
        <time>2022-09-13T12:47:34Z</time>
      </trkpt>
      <trkpt lat="47.86043" lon="6.82048">
        <ele>585.2</ele>
        <time>2022-09-13T12:47:35Z</time>
      </trkpt>
      <trkpt lat="47.86045" lon="6.82049">
        <ele>585.5</ele>
        <time>2022-09-13T12:47:36Z</time>
      </trkpt>
      <trkpt lat="47.86047" lon="6.8205">
        <ele>585.9</ele>
        <time>2022-09-13T12:47:37Z</time>
      </trkpt>
      <trkpt lat="47.86049" lon="6.82051">
        <ele>586.2</ele>
        <time>2022-09-13T12:47:38Z</time>
      </trkpt>
      <trkpt lat="47.8605" lon="6.82052">
        <ele>586.3</ele>
        <time>2022-09-13T12:47:39Z</time>
      </trkpt>
      <trkpt lat="47.86052" lon="6.82053">
        <ele>586.6</ele>
        <time>2022-09-13T12:47:40Z</time>
      </trkpt>
      <trkpt lat="47.86054" lon="6.82054">
        <ele>586.9</ele>
        <time>2022-09-13T12:47:41Z</time>
      </trkpt>
      <trkpt lat="47.86056" lon="6.82055">
        <ele>587.3</ele>
        <time>2022-09-13T12:47:42Z</time>
      </trkpt>
      <trkpt lat="47.86058" lon="6.82057">
        <ele>587.5</ele>
        <time>2022-09-13T12:47:43Z</time>
      </trkpt>
      <trkpt lat="47.8606" lon="6.82058">
        <ele>587.9</ele>
        <time>2022-09-13T12:47:44Z</time>
      </trkpt>
      <trkpt lat="47.86062" lon="6.82059">
        <ele>588.3</ele>
        <time>2022-09-13T12:47:45Z</time>
      </trkpt>
      <trkpt lat="47.86064" lon="6.8206">
        <ele>588.7</ele>
        <time>2022-09-13T12:47:46Z</time>
      </trkpt>
      <trkpt lat="47.86066" lon="6.82061">
        <ele>589.1</ele>
        <time>2022-09-13T12:47:47Z</time>
      </trkpt>
      <trkpt lat="47.86068" lon="6.82062">
        <ele>589.4</ele>
        <time>2022-09-13T12:47:48Z</time>
      </trkpt>
      <trkpt lat="47.8607" lon="6.82063">
        <ele>589.8</ele>
        <time>2022-09-13T12:47:49Z</time>
      </trkpt>
      <trkpt lat="47.86072" lon="6.82064">
        <ele>590.1</ele>
        <time>2022-09-13T12:47:50Z</time>
      </trkpt>
      <trkpt lat="47.86073" lon="6.82064">
        <ele>590.4</ele>
        <time>2022-09-13T12:47:51Z</time>
      </trkpt>
      <trkpt lat="47.86075" lon="6.82065">
        <ele>590.8</ele>
        <time>2022-09-13T12:47:52Z</time>
      </trkpt>
      <trkpt lat="47.86077" lon="6.82066">
        <ele>591.1</ele>
        <time>2022-09-13T12:47:53Z</time>
      </trkpt>
      <trkpt lat="47.86079" lon="6.82067">
        <ele>591.4</ele>
        <time>2022-09-13T12:47:54Z</time>
      </trkpt>
      <trkpt lat="47.86081" lon="6.82068">
        <ele>591.7</ele>
        <time>2022-09-13T12:47:55Z</time>
      </trkpt>
      <trkpt lat="47.86083" lon="6.82069">
        <ele>592</ele>
        <time>2022-09-13T12:47:56Z</time>
      </trkpt>
      <trkpt lat="47.86084" lon="6.8207">
        <ele>592.1</ele>
        <time>2022-09-13T12:47:57Z</time>
      </trkpt>
      <trkpt lat="47.86086" lon="6.82071">
        <ele>592.4</ele>
        <time>2022-09-13T12:47:58Z</time>
      </trkpt>
      <trkpt lat="47.86088" lon="6.82072">
        <ele>592.7</ele>
        <time>2022-09-13T12:47:59Z</time>
      </trkpt>
      <trkpt lat="47.86089" lon="6.82073">
        <ele>592.8</ele>
        <time>2022-09-13T12:48:00Z</time>
      </trkpt>
      <trkpt lat="47.8609" lon="6.82074">
        <ele>592.8</ele>
        <time>2022-09-13T12:48:01Z</time>
      </trkpt>
      <trkpt lat="47.86093" lon="6.82075">
        <ele>593.4</ele>
        <time>2022-09-13T12:48:02Z</time>
      </trkpt>
      <trkpt lat="47.86095" lon="6.82076">
        <ele>593.7</ele>
        <time>2022-09-13T12:48:03Z</time>
      </trkpt>
      <trkpt lat="47.86097" lon="6.82077">
        <ele>594</ele>
        <time>2022-09-13T12:48:04Z</time>
      </trkpt>
      <trkpt lat="47.86099" lon="6.82078">
        <ele>594.3</ele>
        <time>2022-09-13T12:48:05Z</time>
      </trkpt>
      <trkpt lat="47.86101" lon="6.8208">
        <ele>594.2</ele>
        <time>2022-09-13T12:48:06Z</time>
      </trkpt>
      <trkpt lat="47.86103" lon="6.82082">
        <ele>594.1</ele>
        <time>2022-09-13T12:48:07Z</time>
      </trkpt>
      <trkpt lat="47.86104" lon="6.82083">
        <ele>594.1</ele>
        <time>2022-09-13T12:48:08Z</time>
      </trkpt>
      <trkpt lat="47.86106" lon="6.82085">
        <ele>594.2</ele>
        <time>2022-09-13T12:48:09Z</time>
      </trkpt>
      <trkpt lat="47.86107" lon="6.82087">
        <ele>594</ele>
        <time>2022-09-13T12:48:10Z</time>
      </trkpt>
      <trkpt lat="47.86109" lon="6.82088">
        <ele>594.4</ele>
        <time>2022-09-13T12:48:11Z</time>
      </trkpt>
      <trkpt lat="47.8611" lon="6.82089">
        <ele>594.4</ele>
        <time>2022-09-13T12:48:12Z</time>
      </trkpt>
      <trkpt lat="47.86111" lon="6.82091">
        <ele>594.3</ele>
        <time>2022-09-13T12:48:13Z</time>
      </trkpt>
      <trkpt lat="47.86113" lon="6.82093">
        <ele>594.7</ele>
        <time>2022-09-13T12:48:14Z</time>
      </trkpt>
      <trkpt lat="47.86115" lon="6.82095">
        <ele>595.1</ele>
        <time>2022-09-13T12:48:15Z</time>
      </trkpt>
      <trkpt lat="47.86116" lon="6.82096">
        <ele>595.2</ele>
        <time>2022-09-13T12:48:16Z</time>
      </trkpt>
      <trkpt lat="47.86118" lon="6.82098">
        <ele>595.5</ele>
        <time>2022-09-13T12:48:17Z</time>
      </trkpt>
      <trkpt lat="47.86119" lon="6.821">
        <ele>595.4</ele>
        <time>2022-09-13T12:48:18Z</time>
      </trkpt>
      <trkpt lat="47.86121" lon="6.82102">
        <ele>595.6</ele>
        <time>2022-09-13T12:48:19Z</time>
      </trkpt>
      <trkpt lat="47.86122" lon="6.82103">
        <ele>595.7</ele>
        <time>2022-09-13T12:48:20Z</time>
      </trkpt>
      <trkpt lat="47.86124" lon="6.82105">
        <ele>595.9</ele>
        <time>2022-09-13T12:48:21Z</time>
      </trkpt>
      <trkpt lat="47.86126" lon="6.82106">
        <ele>596.3</ele>
        <time>2022-09-13T12:48:22Z</time>
      </trkpt>
      <trkpt lat="47.86127" lon="6.82108">
        <ele>596.1</ele>
        <time>2022-09-13T12:48:23Z</time>
      </trkpt>
      <trkpt lat="47.86129" lon="6.82109">
        <ele>596.4</ele>
        <time>2022-09-13T12:48:24Z</time>
      </trkpt>
      <trkpt lat="47.86131" lon="6.82111">
        <ele>596.5</ele>
        <time>2022-09-13T12:48:25Z</time>
      </trkpt>
      <trkpt lat="47.86133" lon="6.82112">
        <ele>596.9</ele>
        <time>2022-09-13T12:48:26Z</time>
      </trkpt>
      <trkpt lat="47.86135" lon="6.82113">
        <ele>597.3</ele>
        <time>2022-09-13T12:48:27Z</time>
      </trkpt>
      <trkpt lat="47.86137" lon="6.82115">
        <ele>597.4</ele>
        <time>2022-09-13T12:48:28Z</time>
      </trkpt>
      <trkpt lat="47.86139" lon="6.82116">
        <ele>597.8</ele>
        <time>2022-09-13T12:48:29Z</time>
      </trkpt>
      <trkpt lat="47.86141" lon="6.82117">
        <ele>598.2</ele>
        <time>2022-09-13T12:48:30Z</time>
      </trkpt>
      <trkpt lat="47.86143" lon="6.82118">
        <ele>598.5</ele>
        <time>2022-09-13T12:48:31Z</time>
      </trkpt>
      <trkpt lat="47.86145" lon="6.82119">
        <ele>598.9</ele>
        <time>2022-09-13T12:48:32Z</time>
      </trkpt>
      <trkpt lat="47.86147" lon="6.8212">
        <ele>599.2</ele>
        <time>2022-09-13T12:48:33Z</time>
      </trkpt>
      <trkpt lat="47.8615" lon="6.82121">
        <ele>599.8</ele>
        <time>2022-09-13T12:48:34Z</time>
      </trkpt>
      <trkpt lat="47.86152" lon="6.82122">
        <ele>600.1</ele>
        <time>2022-09-13T12:48:35Z</time>
      </trkpt>
      <trkpt lat="47.86154" lon="6.82123">
        <ele>600.4</ele>
        <time>2022-09-13T12:48:36Z</time>
      </trkpt>
      <trkpt lat="47.86156" lon="6.82125">
        <ele>600.4</ele>
        <time>2022-09-13T12:48:37Z</time>
      </trkpt>
      <trkpt lat="47.86158" lon="6.82126">
        <ele>600.7</ele>
        <time>2022-09-13T12:48:38Z</time>
      </trkpt>
      <trkpt lat="47.8616" lon="6.82127">
        <ele>601</ele>
        <time>2022-09-13T12:48:39Z</time>
      </trkpt>
      <trkpt lat="47.86162" lon="6.82128">
        <ele>601.2</ele>
        <time>2022-09-13T12:48:40Z</time>
      </trkpt>
      <trkpt lat="47.86164" lon="6.82129">
        <ele>601.5</ele>
        <time>2022-09-13T12:48:41Z</time>
      </trkpt>
      <trkpt lat="47.86166" lon="6.8213">
        <ele>601.7</ele>
        <time>2022-09-13T12:48:42Z</time>
      </trkpt>
      <trkpt lat="47.86169" lon="6.82131">
        <ele>602</ele>
        <time>2022-09-13T12:48:43Z</time>
      </trkpt>
      <trkpt lat="47.86171" lon="6.82132">
        <ele>602.1</ele>
        <time>2022-09-13T12:48:44Z</time>
      </trkpt>
      <trkpt lat="47.86173" lon="6.82133">
        <ele>602.1</ele>
        <time>2022-09-13T12:48:45Z</time>
      </trkpt>
      <trkpt lat="47.86175" lon="6.82133">
        <ele>602.5</ele>
        <time>2022-09-13T12:48:46Z</time>
      </trkpt>
      <trkpt lat="47.86178" lon="6.82134">
        <ele>602.7</ele>
        <time>2022-09-13T12:48:47Z</time>
      </trkpt>
      <trkpt lat="47.8618" lon="6.82135">
        <ele>602.7</ele>
        <time>2022-09-13T12:48:48Z</time>
      </trkpt>
      <trkpt lat="47.86182" lon="6.82136">
        <ele>602.8</ele>
        <time>2022-09-13T12:48:49Z</time>
      </trkpt>
      <trkpt lat="47.86184" lon="6.82137">
        <ele>602.8</ele>
        <time>2022-09-13T12:48:50Z</time>
      </trkpt>
      <trkpt lat="47.86187" lon="6.82138">
        <ele>603</ele>
        <time>2022-09-13T12:48:51Z</time>
      </trkpt>
      <trkpt lat="47.86189" lon="6.82139">
        <ele>603</ele>
        <time>2022-09-13T12:48:52Z</time>
      </trkpt>
      <trkpt lat="47.86191" lon="6.82139">
        <ele>603.4</ele>
        <time>2022-09-13T12:48:53Z</time>
      </trkpt>
      <trkpt lat="47.86194" lon="6.8214">
        <ele>603.8</ele>
        <time>2022-09-13T12:48:54Z</time>
      </trkpt>
      <trkpt lat="47.86196" lon="6.8214">
        <ele>604</ele>
        <time>2022-09-13T12:48:55Z</time>
      </trkpt>
      <trkpt lat="47.86199" lon="6.8214">
        <ele>604.3</ele>
        <time>2022-09-13T12:48:56Z</time>
      </trkpt>
      <trkpt lat="47.86201" lon="6.82141">
        <ele>604.4</ele>
        <time>2022-09-13T12:48:57Z</time>
      </trkpt>
      <trkpt lat="47.86204" lon="6.82141">
        <ele>604.7</ele>
        <time>2022-09-13T12:48:58Z</time>
      </trkpt>
      <trkpt lat="47.86206" lon="6.82141">
        <ele>604.9</ele>
        <time>2022-09-13T12:48:59Z</time>
      </trkpt>
      <trkpt lat="47.86208" lon="6.8214">
        <ele>605.3</ele>
        <time>2022-09-13T12:49:00Z</time>
      </trkpt>
      <trkpt lat="47.8621" lon="6.8214">
        <ele>605.5</ele>
        <time>2022-09-13T12:49:01Z</time>
      </trkpt>
      <trkpt lat="47.86213" lon="6.8214">
        <ele>605.8</ele>
        <time>2022-09-13T12:49:02Z</time>
      </trkpt>
      <trkpt lat="47.86215" lon="6.8214">
        <ele>606</ele>
        <time>2022-09-13T12:49:03Z</time>
      </trkpt>
      <trkpt lat="47.86218" lon="6.8214">
        <ele>606.3</ele>
        <time>2022-09-13T12:49:04Z</time>
      </trkpt>
      <trkpt lat="47.8622" lon="6.82139">
        <ele>606.7</ele>
        <time>2022-09-13T12:49:05Z</time>
      </trkpt>
      <trkpt lat="47.86225" lon="6.82138">
        <ele>607.1</ele>
        <time>2022-09-13T12:49:06Z</time>
      </trkpt>
      <trkpt lat="47.86226" lon="6.82137">
        <ele>607.3</ele>
        <time>2022-09-13T12:49:07Z</time>
      </trkpt>
      <trkpt lat="47.86228" lon="6.82137">
        <ele>607.3</ele>
        <time>2022-09-13T12:49:08Z</time>
      </trkpt>
      <trkpt lat="47.86231" lon="6.82136">
        <ele>607.4</ele>
        <time>2022-09-13T12:49:09Z</time>
      </trkpt>
      <trkpt lat="47.86233" lon="6.82135">
        <ele>607.5</ele>
        <time>2022-09-13T12:49:10Z</time>
      </trkpt>
      <trkpt lat="47.86235" lon="6.82134">
        <ele>607.7</ele>
        <time>2022-09-13T12:49:11Z</time>
      </trkpt>
      <trkpt lat="47.86237" lon="6.82133">
        <ele>607.8</ele>
        <time>2022-09-13T12:49:12Z</time>
      </trkpt>
      <trkpt lat="47.86239" lon="6.82131">
        <ele>608.2</ele>
        <time>2022-09-13T12:49:13Z</time>
      </trkpt>
      <trkpt lat="47.86241" lon="6.8213">
        <ele>608.3</ele>
        <time>2022-09-13T12:49:14Z</time>
      </trkpt>
      <trkpt lat="47.86243" lon="6.82128">
        <ele>608.7</ele>
        <time>2022-09-13T12:49:15Z</time>
      </trkpt>
      <trkpt lat="47.86245" lon="6.82126">
        <ele>609</ele>
        <time>2022-09-13T12:49:16Z</time>
      </trkpt>
      <trkpt lat="47.86247" lon="6.82124">
        <ele>609.4</ele>
        <time>2022-09-13T12:49:17Z</time>
      </trkpt>
      <trkpt lat="47.86249" lon="6.82122">
        <ele>609.7</ele>
        <time>2022-09-13T12:49:18Z</time>
      </trkpt>
      <trkpt lat="47.86251" lon="6.8212">
        <ele>610.1</ele>
        <time>2022-09-13T12:49:19Z</time>
      </trkpt>
      <trkpt lat="47.86252" lon="6.82118">
        <ele>610.5</ele>
        <time>2022-09-13T12:49:20Z</time>
      </trkpt>
      <trkpt lat="47.86254" lon="6.82116">
        <ele>610.9</ele>
        <time>2022-09-13T12:49:21Z</time>
      </trkpt>
      <trkpt lat="47.86256" lon="6.82115">
        <ele>611.2</ele>
        <time>2022-09-13T12:49:22Z</time>
      </trkpt>
      <trkpt lat="47.86258" lon="6.82113">
        <ele>611.6</ele>
        <time>2022-09-13T12:49:23Z</time>
      </trkpt>
      <trkpt lat="47.8626" lon="6.82112">
        <ele>611.8</ele>
        <time>2022-09-13T12:49:24Z</time>
      </trkpt>
      <trkpt lat="47.86262" lon="6.8211">
        <ele>612.3</ele>
        <time>2022-09-13T12:49:25Z</time>
      </trkpt>
      <trkpt lat="47.86264" lon="6.82108">
        <ele>612.7</ele>
        <time>2022-09-13T12:49:26Z</time>
      </trkpt>
      <trkpt lat="47.86266" lon="6.82107">
        <ele>613</ele>
        <time>2022-09-13T12:49:27Z</time>
      </trkpt>
      <trkpt lat="47.86267" lon="6.82105">
        <ele>613.4</ele>
        <time>2022-09-13T12:49:28Z</time>
      </trkpt>
      <trkpt lat="47.86269" lon="6.82104">
        <ele>613.6</ele>
        <time>2022-09-13T12:49:29Z</time>
      </trkpt>
      <trkpt lat="47.86271" lon="6.82103">
        <ele>613.8</ele>
        <time>2022-09-13T12:49:30Z</time>
      </trkpt>
      <trkpt lat="47.86273" lon="6.82101">
        <ele>614.2</ele>
        <time>2022-09-13T12:49:31Z</time>
      </trkpt>
      <trkpt lat="47.86275" lon="6.821">
        <ele>614.4</ele>
        <time>2022-09-13T12:49:32Z</time>
      </trkpt>
      <trkpt lat="47.86277" lon="6.82099">
        <ele>614.6</ele>
        <time>2022-09-13T12:49:33Z</time>
      </trkpt>
      <trkpt lat="47.86279" lon="6.82098">
        <ele>614.8</ele>
        <time>2022-09-13T12:49:34Z</time>
      </trkpt>
      <trkpt lat="47.86282" lon="6.82097">
        <ele>614.9</ele>
        <time>2022-09-13T12:49:35Z</time>
      </trkpt>
      <trkpt lat="47.86284" lon="6.82096">
        <ele>615</ele>
        <time>2022-09-13T12:49:36Z</time>
      </trkpt>
      <trkpt lat="47.86286" lon="6.82096">
        <ele>615</ele>
        <time>2022-09-13T12:49:37Z</time>
      </trkpt>
      <trkpt lat="47.86288" lon="6.82095">
        <ele>615.1</ele>
        <time>2022-09-13T12:49:38Z</time>
      </trkpt>
      <trkpt lat="47.8629" lon="6.82094">
        <ele>615.3</ele>
        <time>2022-09-13T12:49:39Z</time>
      </trkpt>
      <trkpt lat="47.86292" lon="6.82093">
        <ele>615.4</ele>
        <time>2022-09-13T12:49:40Z</time>
      </trkpt>
      <trkpt lat="47.86294" lon="6.82092">
        <ele>615.5</ele>
        <time>2022-09-13T12:49:41Z</time>
      </trkpt>
      <trkpt lat="47.86296" lon="6.82091">
        <ele>615.7</ele>
        <time>2022-09-13T12:49:42Z</time>
      </trkpt>
      <trkpt lat="47.86298" lon="6.82091">
        <ele>615.6</ele>
        <time>2022-09-13T12:49:43Z</time>
      </trkpt>
      <trkpt lat="47.86301" lon="6.82091">
        <ele>615.5</ele>
        <time>2022-09-13T12:49:44Z</time>
      </trkpt>
      <trkpt lat="47.86303" lon="6.82091">
        <ele>615.4</ele>
        <time>2022-09-13T12:49:45Z</time>
      </trkpt>
      <trkpt lat="47.86305" lon="6.82091">
        <ele>615.4</ele>
        <time>2022-09-13T12:49:46Z</time>
      </trkpt>
      <trkpt lat="47.86307" lon="6.82092">
        <ele>615.5</ele>
        <time>2022-09-13T12:49:47Z</time>
      </trkpt>
      <trkpt lat="47.86309" lon="6.82093">
        <ele>615.8</ele>
        <time>2022-09-13T12:49:48Z</time>
      </trkpt>
      <trkpt lat="47.86311" lon="6.82094">
        <ele>616.1</ele>
        <time>2022-09-13T12:49:49Z</time>
      </trkpt>
      <trkpt lat="47.86314" lon="6.82096">
        <ele>616.4</ele>
        <time>2022-09-13T12:49:50Z</time>
      </trkpt>
      <trkpt lat="47.86316" lon="6.82098">
        <ele>616.4</ele>
        <time>2022-09-13T12:49:51Z</time>
      </trkpt>
      <trkpt lat="47.86318" lon="6.821">
        <ele>616.4</ele>
        <time>2022-09-13T12:49:52Z</time>
      </trkpt>
      <trkpt lat="47.86322" lon="6.82104">
        <ele>616.4</ele>
        <time>2022-09-13T12:49:53Z</time>
      </trkpt>
      <trkpt lat="47.86324" lon="6.82106">
        <ele>616.3</ele>
        <time>2022-09-13T12:49:54Z</time>
      </trkpt>
      <trkpt lat="47.86327" lon="6.82109">
        <ele>616.2</ele>
        <time>2022-09-13T12:49:55Z</time>
      </trkpt>
      <trkpt lat="47.86329" lon="6.82111">
        <ele>616.1</ele>
        <time>2022-09-13T12:49:56Z</time>
      </trkpt>
      <trkpt lat="47.86332" lon="6.82114">
        <ele>616.5</ele>
        <time>2022-09-13T12:49:57Z</time>
      </trkpt>
      <trkpt lat="47.86334" lon="6.82116">
        <ele>616.8</ele>
        <time>2022-09-13T12:49:58Z</time>
      </trkpt>
      <trkpt lat="47.86336" lon="6.82119">
        <ele>617</ele>
        <time>2022-09-13T12:49:59Z</time>
      </trkpt>
      <trkpt lat="47.86338" lon="6.82121">
        <ele>617.2</ele>
        <time>2022-09-13T12:50:00Z</time>
      </trkpt>
      <trkpt lat="47.86339" lon="6.82123">
        <ele>617.2</ele>
        <time>2022-09-13T12:50:01Z</time>
      </trkpt>
      <trkpt lat="47.86341" lon="6.82125">
        <ele>617.4</ele>
        <time>2022-09-13T12:50:02Z</time>
      </trkpt>
      <trkpt lat="47.86342" lon="6.82127">
        <ele>617.3</ele>
        <time>2022-09-13T12:50:03Z</time>
      </trkpt>
      <trkpt lat="47.86344" lon="6.82129">
        <ele>617.4</ele>
        <time>2022-09-13T12:50:04Z</time>
      </trkpt>
      <trkpt lat="47.86346" lon="6.82131">
        <ele>617.5</ele>
        <time>2022-09-13T12:50:05Z</time>
      </trkpt>
      <trkpt lat="47.86349" lon="6.82134">
        <ele>617.4</ele>
        <time>2022-09-13T12:50:06Z</time>
      </trkpt>
      <trkpt lat="47.86351" lon="6.82136">
        <ele>617.4</ele>
        <time>2022-09-13T12:50:07Z</time>
      </trkpt>
      <trkpt lat="47.86354" lon="6.82141">
        <ele>616.8</ele>
        <time>2022-09-13T12:50:08Z</time>
      </trkpt>
      <trkpt lat="47.86357" lon="6.82144">
        <ele>616.7</ele>
        <time>2022-09-13T12:50:09Z</time>
      </trkpt>
      <trkpt lat="47.86359" lon="6.82147">
        <ele>616.5</ele>
        <time>2022-09-13T12:50:10Z</time>
      </trkpt>
      <trkpt lat="47.86361" lon="6.82149">
        <ele>616.5</ele>
        <time>2022-09-13T12:50:11Z</time>
      </trkpt>
      <trkpt lat="47.86363" lon="6.82152">
        <ele>616.7</ele>
        <time>2022-09-13T12:50:12Z</time>
      </trkpt>
      <trkpt lat="47.86365" lon="6.82155">
        <ele>616.9</ele>
        <time>2022-09-13T12:50:13Z</time>
      </trkpt>
      <trkpt lat="47.86367" lon="6.82158">
        <ele>617.2</ele>
        <time>2022-09-13T12:50:14Z</time>
      </trkpt>
      <trkpt lat="47.86369" lon="6.82161">
        <ele>617.4</ele>
        <time>2022-09-13T12:50:15Z</time>
      </trkpt>
      <trkpt lat="47.86371" lon="6.82164">
        <ele>617.6</ele>
        <time>2022-09-13T12:50:16Z</time>
      </trkpt>
      <trkpt lat="47.86373" lon="6.82166">
        <ele>617.9</ele>
        <time>2022-09-13T12:50:17Z</time>
      </trkpt>
      <trkpt lat="47.86375" lon="6.82169">
        <ele>618.1</ele>
        <time>2022-09-13T12:50:18Z</time>
      </trkpt>
      <trkpt lat="47.86378" lon="6.82172">
        <ele>618.5</ele>
        <time>2022-09-13T12:50:19Z</time>
      </trkpt>
      <trkpt lat="47.8638" lon="6.82175">
        <ele>618.6</ele>
        <time>2022-09-13T12:50:20Z</time>
      </trkpt>
      <trkpt lat="47.86383" lon="6.82178">
        <ele>619.1</ele>
        <time>2022-09-13T12:50:21Z</time>
      </trkpt>
      <trkpt lat="47.86385" lon="6.8218">
        <ele>619.3</ele>
        <time>2022-09-13T12:50:22Z</time>
      </trkpt>
      <trkpt lat="47.86387" lon="6.82183">
        <ele>619.4</ele>
        <time>2022-09-13T12:50:23Z</time>
      </trkpt>
      <trkpt lat="47.8639" lon="6.82186">
        <ele>619.8</ele>
        <time>2022-09-13T12:50:24Z</time>
      </trkpt>
      <trkpt lat="47.86392" lon="6.82188">
        <ele>619.8</ele>
        <time>2022-09-13T12:50:25Z</time>
      </trkpt>
      <trkpt lat="47.86394" lon="6.82191">
        <ele>619.7</ele>
        <time>2022-09-13T12:50:26Z</time>
      </trkpt>
      <trkpt lat="47.86397" lon="6.82193">
        <ele>620</ele>
        <time>2022-09-13T12:50:27Z</time>
      </trkpt>
      <trkpt lat="47.86399" lon="6.82196">
        <ele>619.8</ele>
        <time>2022-09-13T12:50:28Z</time>
      </trkpt>
      <trkpt lat="47.86401" lon="6.82199">
        <ele>619.6</ele>
        <time>2022-09-13T12:50:29Z</time>
      </trkpt>
      <trkpt lat="47.86403" lon="6.82201">
        <ele>619.6</ele>
        <time>2022-09-13T12:50:30Z</time>
      </trkpt>
      <trkpt lat="47.86405" lon="6.82204">
        <ele>619.5</ele>
        <time>2022-09-13T12:50:31Z</time>
      </trkpt>
      <trkpt lat="47.86406" lon="6.82206">
        <ele>619.3</ele>
        <time>2022-09-13T12:50:32Z</time>
      </trkpt>
      <trkpt lat="47.86409" lon="6.82209">
        <ele>619.4</ele>
        <time>2022-09-13T12:50:33Z</time>
      </trkpt>
      <trkpt lat="47.86412" lon="6.82211">
        <ele>619.8</ele>
        <time>2022-09-13T12:50:34Z</time>
      </trkpt>
      <trkpt lat="47.86414" lon="6.82213">
        <ele>620</ele>
        <time>2022-09-13T12:50:35Z</time>
      </trkpt>
      <trkpt lat="47.86417" lon="6.82215">
        <ele>620.4</ele>
        <time>2022-09-13T12:50:36Z</time>
      </trkpt>
      <trkpt lat="47.86419" lon="6.82217">
        <ele>620.5</ele>
        <time>2022-09-13T12:50:37Z</time>
      </trkpt>
      <trkpt lat="47.86422" lon="6.82219">
        <ele>620.9</ele>
        <time>2022-09-13T12:50:38Z</time>
      </trkpt>
      <trkpt lat="47.86424" lon="6.82222">
        <ele>620.9</ele>
        <time>2022-09-13T12:50:39Z</time>
      </trkpt>
      <trkpt lat="47.86427" lon="6.82224">
        <ele>621.3</ele>
        <time>2022-09-13T12:50:40Z</time>
      </trkpt>
      <trkpt lat="47.8643" lon="6.82226">
        <ele>621.8</ele>
        <time>2022-09-13T12:50:41Z</time>
      </trkpt>
      <trkpt lat="47.86432" lon="6.82229">
        <ele>621.8</ele>
        <time>2022-09-13T12:50:42Z</time>
      </trkpt>
      <trkpt lat="47.86435" lon="6.82231">
        <ele>622.1</ele>
        <time>2022-09-13T12:50:43Z</time>
      </trkpt>
      <trkpt lat="47.86436" lon="6.82232">
        <ele>622.2</ele>
        <time>2022-09-13T12:50:44Z</time>
      </trkpt>
      <trkpt lat="47.86438" lon="6.82234">
        <ele>622.4</ele>
        <time>2022-09-13T12:50:45Z</time>
      </trkpt>
      <trkpt lat="47.8644" lon="6.82236">
        <ele>622.5</ele>
        <time>2022-09-13T12:50:46Z</time>
      </trkpt>
      <trkpt lat="47.86442" lon="6.82238">
        <ele>622.6</ele>
        <time>2022-09-13T12:50:47Z</time>
      </trkpt>
      <trkpt lat="47.86444" lon="6.8224">
        <ele>622.7</ele>
        <time>2022-09-13T12:50:48Z</time>
      </trkpt>
      <trkpt lat="47.86448" lon="6.82244">
        <ele>622.9</ele>
        <time>2022-09-13T12:50:49Z</time>
      </trkpt>
      <trkpt lat="47.8645" lon="6.82246">
        <ele>622.9</ele>
        <time>2022-09-13T12:50:50Z</time>
      </trkpt>
      <trkpt lat="47.86452" lon="6.82249">
        <ele>622.8</ele>
        <time>2022-09-13T12:50:51Z</time>
      </trkpt>
      <trkpt lat="47.86454" lon="6.8225">
        <ele>623.1</ele>
        <time>2022-09-13T12:50:52Z</time>
      </trkpt>
      <trkpt lat="47.86455" lon="6.82252">
        <ele>622.9</ele>
        <time>2022-09-13T12:50:53Z</time>
      </trkpt>
      <trkpt lat="47.86457" lon="6.82254">
        <ele>622.9</ele>
        <time>2022-09-13T12:50:54Z</time>
      </trkpt>
      <trkpt lat="47.86459" lon="6.82256">
        <ele>623</ele>
        <time>2022-09-13T12:50:55Z</time>
      </trkpt>
      <trkpt lat="47.86463" lon="6.8226">
        <ele>623.1</ele>
        <time>2022-09-13T12:50:56Z</time>
      </trkpt>
      <trkpt lat="47.86464" lon="6.82261">
        <ele>623.1</ele>
        <time>2022-09-13T12:50:57Z</time>
      </trkpt>
      <trkpt lat="47.86466" lon="6.82263">
        <ele>623.2</ele>
        <time>2022-09-13T12:50:58Z</time>
      </trkpt>
      <trkpt lat="47.86468" lon="6.82265">
        <ele>623.3</ele>
        <time>2022-09-13T12:50:59Z</time>
      </trkpt>
      <trkpt lat="47.8647" lon="6.82266">
        <ele>623.6</ele>
        <time>2022-09-13T12:51:00Z</time>
      </trkpt>
      <trkpt lat="47.86471" lon="6.82268">
        <ele>623.5</ele>
        <time>2022-09-13T12:51:01Z</time>
      </trkpt>
      <trkpt lat="47.86473" lon="6.82271">
        <ele>623.3</ele>
        <time>2022-09-13T12:51:02Z</time>
      </trkpt>
      <trkpt lat="47.86476" lon="6.82273">
        <ele>623.5</ele>
        <time>2022-09-13T12:51:03Z</time>
      </trkpt>
      <trkpt lat="47.86478" lon="6.82275">
        <ele>623.4</ele>
        <time>2022-09-13T12:51:04Z</time>
      </trkpt>
      <trkpt lat="47.8648" lon="6.82277">
        <ele>623.3</ele>
        <time>2022-09-13T12:51:05Z</time>
      </trkpt>
      <trkpt lat="47.86482" lon="6.82279">
        <ele>623.2</ele>
        <time>2022-09-13T12:51:06Z</time>
      </trkpt>
      <trkpt lat="47.86484" lon="6.82282">
        <ele>622.9</ele>
        <time>2022-09-13T12:51:07Z</time>
      </trkpt>
      <trkpt lat="47.86486" lon="6.82283">
        <ele>623</ele>
        <time>2022-09-13T12:51:08Z</time>
      </trkpt>
      <trkpt lat="47.86488" lon="6.82284">
        <ele>623.2</ele>
        <time>2022-09-13T12:51:09Z</time>
      </trkpt>
      <trkpt lat="47.8649" lon="6.82284">
        <ele>623.5</ele>
        <time>2022-09-13T12:51:10Z</time>
      </trkpt>
      <trkpt lat="47.86491" lon="6.82283">
        <ele>623.8</ele>
        <time>2022-09-13T12:51:11Z</time>
      </trkpt>
      <trkpt lat="47.86492" lon="6.82281">
        <ele>624.3</ele>
        <time>2022-09-13T12:51:12Z</time>
      </trkpt>
      <trkpt lat="47.86493" lon="6.82278">
        <ele>625</ele>
        <time>2022-09-13T12:51:13Z</time>
      </trkpt>
      <trkpt lat="47.86493" lon="6.82276">
        <ele>625.4</ele>
        <time>2022-09-13T12:51:14Z</time>
      </trkpt>
      <trkpt lat="47.86492" lon="6.82273">
        <ele>626</ele>
        <time>2022-09-13T12:51:15Z</time>
      </trkpt>
      <trkpt lat="47.86491" lon="6.82271">
        <ele>626.3</ele>
        <time>2022-09-13T12:51:16Z</time>
      </trkpt>
      <trkpt lat="47.8649" lon="6.82268">
        <ele>626.8</ele>
        <time>2022-09-13T12:51:17Z</time>
      </trkpt>
      <trkpt lat="47.86489" lon="6.82265">
        <ele>627.3</ele>
        <time>2022-09-13T12:51:18Z</time>
      </trkpt>
      <trkpt lat="47.86487" lon="6.82263">
        <ele>627.4</ele>
        <time>2022-09-13T12:51:19Z</time>
      </trkpt>
      <trkpt lat="47.86486" lon="6.82261">
        <ele>627.6</ele>
        <time>2022-09-13T12:51:20Z</time>
      </trkpt>
      <trkpt lat="47.86485" lon="6.82258">
        <ele>628.1</ele>
        <time>2022-09-13T12:51:21Z</time>
      </trkpt>
      <trkpt lat="47.86483" lon="6.82256">
        <ele>628.1</ele>
        <time>2022-09-13T12:51:22Z</time>
      </trkpt>
      <trkpt lat="47.86481" lon="6.82254">
        <ele>628.1</ele>
        <time>2022-09-13T12:51:23Z</time>
      </trkpt>
      <trkpt lat="47.8648" lon="6.82252">
        <ele>628.3</ele>
        <time>2022-09-13T12:51:24Z</time>
      </trkpt>
      <trkpt lat="47.86478" lon="6.8225">
        <ele>628.2</ele>
        <time>2022-09-13T12:51:25Z</time>
      </trkpt>
      <trkpt lat="47.86476" lon="6.82249">
        <ele>628</ele>
        <time>2022-09-13T12:51:26Z</time>
      </trkpt>
      <trkpt lat="47.86475" lon="6.82247">
        <ele>628.3</ele>
        <time>2022-09-13T12:51:27Z</time>
      </trkpt>
      <trkpt lat="47.86473" lon="6.82245">
        <ele>628.3</ele>
        <time>2022-09-13T12:51:28Z</time>
      </trkpt>
      <trkpt lat="47.86471" lon="6.82243">
        <ele>628.2</ele>
        <time>2022-09-13T12:51:29Z</time>
      </trkpt>
      <trkpt lat="47.86469" lon="6.82241">
        <ele>628.2</ele>
        <time>2022-09-13T12:51:30Z</time>
      </trkpt>
      <trkpt lat="47.86468" lon="6.82239">
        <ele>628.4</ele>
        <time>2022-09-13T12:51:31Z</time>
      </trkpt>
      <trkpt lat="47.86466" lon="6.82237">
        <ele>628.4</ele>
        <time>2022-09-13T12:51:32Z</time>
      </trkpt>
      <trkpt lat="47.86465" lon="6.82235">
        <ele>628.5</ele>
        <time>2022-09-13T12:51:33Z</time>
      </trkpt>
      <trkpt lat="47.86463" lon="6.82233">
        <ele>628.5</ele>
        <time>2022-09-13T12:51:34Z</time>
      </trkpt>
      <trkpt lat="47.86462" lon="6.82231">
        <ele>628.6</ele>
        <time>2022-09-13T12:51:35Z</time>
      </trkpt>
      <trkpt lat="47.8646" lon="6.82228">
        <ele>628.8</ele>
        <time>2022-09-13T12:51:36Z</time>
      </trkpt>
      <trkpt lat="47.86459" lon="6.82226">
        <ele>628.9</ele>
        <time>2022-09-13T12:51:37Z</time>
      </trkpt>
      <trkpt lat="47.86458" lon="6.82223">
        <ele>629.3</ele>
        <time>2022-09-13T12:51:38Z</time>
      </trkpt>
      <trkpt lat="47.86456" lon="6.8222">
        <ele>629.3</ele>
        <time>2022-09-13T12:51:39Z</time>
      </trkpt>
      <trkpt lat="47.86455" lon="6.82217">
        <ele>629.6</ele>
        <time>2022-09-13T12:51:40Z</time>
      </trkpt>
      <trkpt lat="47.86454" lon="6.82215">
        <ele>629.7</ele>
        <time>2022-09-13T12:51:41Z</time>
      </trkpt>
      <trkpt lat="47.86453" lon="6.82212">
        <ele>630</ele>
        <time>2022-09-13T12:51:42Z</time>
      </trkpt>
      <trkpt lat="47.86452" lon="6.82209">
        <ele>630.3</ele>
        <time>2022-09-13T12:51:43Z</time>
      </trkpt>
      <trkpt lat="47.86451" lon="6.82207">
        <ele>630.4</ele>
        <time>2022-09-13T12:51:44Z</time>
      </trkpt>
      <trkpt lat="47.8645" lon="6.82204">
        <ele>630.7</ele>
        <time>2022-09-13T12:51:45Z</time>
      </trkpt>
      <trkpt lat="47.86449" lon="6.82201">
        <ele>631</ele>
        <time>2022-09-13T12:51:46Z</time>
      </trkpt>
      <trkpt lat="47.86448" lon="6.82199">
        <ele>631.1</ele>
        <time>2022-09-13T12:51:47Z</time>
      </trkpt>
      <trkpt lat="47.86447" lon="6.82196">
        <ele>631.4</ele>
        <time>2022-09-13T12:51:48Z</time>
      </trkpt>
      <trkpt lat="47.86446" lon="6.82193">
        <ele>631.7</ele>
        <time>2022-09-13T12:51:49Z</time>
      </trkpt>
      <trkpt lat="47.86444" lon="6.82191">
        <ele>631.6</ele>
        <time>2022-09-13T12:51:50Z</time>
      </trkpt>
      <trkpt lat="47.86443" lon="6.82188">
        <ele>632</ele>
        <time>2022-09-13T12:51:51Z</time>
      </trkpt>
      <trkpt lat="47.86442" lon="6.82185">
        <ele>632.4</ele>
        <time>2022-09-13T12:51:52Z</time>
      </trkpt>
      <trkpt lat="47.86441" lon="6.82182">
        <ele>632.8</ele>
        <time>2022-09-13T12:51:53Z</time>
      </trkpt>
      <trkpt lat="47.8644" lon="6.8218">
        <ele>632.9</ele>
        <time>2022-09-13T12:51:54Z</time>
      </trkpt>
      <trkpt lat="47.86439" lon="6.82177">
        <ele>633.3</ele>
        <time>2022-09-13T12:51:55Z</time>
      </trkpt>
      <trkpt lat="47.86438" lon="6.82174">
        <ele>633.6</ele>
        <time>2022-09-13T12:51:56Z</time>
      </trkpt>
      <trkpt lat="47.86437" lon="6.82171">
        <ele>634</ele>
        <time>2022-09-13T12:51:57Z</time>
      </trkpt>
      <trkpt lat="47.86436" lon="6.82169">
        <ele>634.1</ele>
        <time>2022-09-13T12:51:58Z</time>
      </trkpt>
      <trkpt lat="47.86435" lon="6.82166">
        <ele>634.5</ele>
        <time>2022-09-13T12:51:59Z</time>
      </trkpt>
      <trkpt lat="47.86434" lon="6.82164">
        <ele>634.7</ele>
        <time>2022-09-13T12:52:00Z</time>
      </trkpt>
      <trkpt lat="47.86433" lon="6.82161">
        <ele>635.2</ele>
        <time>2022-09-13T12:52:01Z</time>
      </trkpt>
      <trkpt lat="47.86432" lon="6.82159">
        <ele>635.5</ele>
        <time>2022-09-13T12:52:02Z</time>
      </trkpt>
      <trkpt lat="47.86431" lon="6.82157">
        <ele>635.7</ele>
        <time>2022-09-13T12:52:03Z</time>
      </trkpt>
      <trkpt lat="47.86429" lon="6.82155">
        <ele>635.7</ele>
        <time>2022-09-13T12:52:04Z</time>
      </trkpt>
      <trkpt lat="47.86428" lon="6.82152">
        <ele>636.3</ele>
        <time>2022-09-13T12:52:05Z</time>
      </trkpt>
      <trkpt lat="47.86427" lon="6.8215">
        <ele>636.6</ele>
        <time>2022-09-13T12:52:06Z</time>
      </trkpt>
      <trkpt lat="47.86426" lon="6.82148">
        <ele>636.8</ele>
        <time>2022-09-13T12:52:07Z</time>
      </trkpt>
      <trkpt lat="47.86425" lon="6.82146">
        <ele>637.1</ele>
        <time>2022-09-13T12:52:08Z</time>
      </trkpt>
      <trkpt lat="47.86424" lon="6.82143">
        <ele>637.7</ele>
        <time>2022-09-13T12:52:09Z</time>
      </trkpt>
      <trkpt lat="47.86423" lon="6.82141">
        <ele>638</ele>
        <time>2022-09-13T12:52:10Z</time>
      </trkpt>
      <trkpt lat="47.86422" lon="6.82138">
        <ele>638.5</ele>
        <time>2022-09-13T12:52:11Z</time>
      </trkpt>
      <trkpt lat="47.86421" lon="6.82136">
        <ele>638.6</ele>
        <time>2022-09-13T12:52:12Z</time>
      </trkpt>
      <trkpt lat="47.8642" lon="6.82134">
        <ele>638.8</ele>
        <time>2022-09-13T12:52:13Z</time>
      </trkpt>
      <trkpt lat="47.86419" lon="6.82132">
        <ele>638.9</ele>
        <time>2022-09-13T12:52:14Z</time>
      </trkpt>
      <trkpt lat="47.86417" lon="6.82129">
        <ele>638.9</ele>
        <time>2022-09-13T12:52:15Z</time>
      </trkpt>
      <trkpt lat="47.86416" lon="6.82127">
        <ele>638.9</ele>
        <time>2022-09-13T12:52:16Z</time>
      </trkpt>
      <trkpt lat="47.86415" lon="6.82124">
        <ele>639</ele>
        <time>2022-09-13T12:52:17Z</time>
      </trkpt>
      <trkpt lat="47.86414" lon="6.82122">
        <ele>639</ele>
        <time>2022-09-13T12:52:18Z</time>
      </trkpt>
      <trkpt lat="47.86413" lon="6.82119">
        <ele>639.2</ele>
        <time>2022-09-13T12:52:19Z</time>
      </trkpt>
      <trkpt lat="47.86412" lon="6.82117">
        <ele>639.1</ele>
        <time>2022-09-13T12:52:20Z</time>
      </trkpt>
      <trkpt lat="47.86411" lon="6.82114">
        <ele>639.3</ele>
        <time>2022-09-13T12:52:21Z</time>
      </trkpt>
      <trkpt lat="47.8641" lon="6.82111">
        <ele>639.4</ele>
        <time>2022-09-13T12:52:22Z</time>
      </trkpt>
      <trkpt lat="47.86409" lon="6.82109">
        <ele>639.4</ele>
        <time>2022-09-13T12:52:23Z</time>
      </trkpt>
      <trkpt lat="47.86409" lon="6.82106">
        <ele>639.9</ele>
        <time>2022-09-13T12:52:24Z</time>
      </trkpt>
      <trkpt lat="47.86408" lon="6.82103">
        <ele>640.1</ele>
        <time>2022-09-13T12:52:25Z</time>
      </trkpt>
      <trkpt lat="47.86408" lon="6.821">
        <ele>640.7</ele>
        <time>2022-09-13T12:52:26Z</time>
      </trkpt>
      <trkpt lat="47.86407" lon="6.82097">
        <ele>640.9</ele>
        <time>2022-09-13T12:52:27Z</time>
      </trkpt>
      <trkpt lat="47.86407" lon="6.82094">
        <ele>641.5</ele>
        <time>2022-09-13T12:52:28Z</time>
      </trkpt>
      <trkpt lat="47.86407" lon="6.82091">
        <ele>642</ele>
        <time>2022-09-13T12:52:29Z</time>
      </trkpt>
      <trkpt lat="47.86406" lon="6.82089">
        <ele>642.1</ele>
        <time>2022-09-13T12:52:30Z</time>
      </trkpt>
      <trkpt lat="47.86405" lon="6.82086">
        <ele>642.3</ele>
        <time>2022-09-13T12:52:31Z</time>
      </trkpt>
      <trkpt lat="47.86405" lon="6.82083">
        <ele>642.9</ele>
        <time>2022-09-13T12:52:32Z</time>
      </trkpt>
      <trkpt lat="47.86404" lon="6.8208">
        <ele>643.1</ele>
        <time>2022-09-13T12:52:33Z</time>
      </trkpt>
      <trkpt lat="47.86403" lon="6.82078">
        <ele>643.2</ele>
        <time>2022-09-13T12:52:34Z</time>
      </trkpt>
      <trkpt lat="47.86402" lon="6.82075">
        <ele>643.5</ele>
        <time>2022-09-13T12:52:35Z</time>
      </trkpt>
      <trkpt lat="47.86401" lon="6.82072">
        <ele>643.9</ele>
        <time>2022-09-13T12:52:36Z</time>
      </trkpt>
      <trkpt lat="47.86401" lon="6.8207">
        <ele>644.3</ele>
        <time>2022-09-13T12:52:37Z</time>
      </trkpt>
      <trkpt lat="47.864" lon="6.82067">
        <ele>644.6</ele>
        <time>2022-09-13T12:52:38Z</time>
      </trkpt>
      <trkpt lat="47.86399" lon="6.82064">
        <ele>645</ele>
        <time>2022-09-13T12:52:39Z</time>
      </trkpt>
      <trkpt lat="47.86398" lon="6.82062">
        <ele>645.2</ele>
        <time>2022-09-13T12:52:40Z</time>
      </trkpt>
      <trkpt lat="47.86397" lon="6.82059">
        <ele>645.5</ele>
        <time>2022-09-13T12:52:41Z</time>
      </trkpt>
      <trkpt lat="47.86396" lon="6.82057">
        <ele>645.7</ele>
        <time>2022-09-13T12:52:42Z</time>
      </trkpt>
      <trkpt lat="47.86395" lon="6.82055">
        <ele>645.9</ele>
        <time>2022-09-13T12:52:43Z</time>
      </trkpt>
      <trkpt lat="47.86393" lon="6.82053">
        <ele>646</ele>
        <time>2022-09-13T12:52:44Z</time>
      </trkpt>
      <trkpt lat="47.86392" lon="6.82051">
        <ele>646.3</ele>
        <time>2022-09-13T12:52:45Z</time>
      </trkpt>
      <trkpt lat="47.86391" lon="6.82049">
        <ele>646.7</ele>
        <time>2022-09-13T12:52:46Z</time>
      </trkpt>
      <trkpt lat="47.8639" lon="6.82047">
        <ele>647.1</ele>
        <time>2022-09-13T12:52:47Z</time>
      </trkpt>
      <trkpt lat="47.86388" lon="6.82045">
        <ele>647.2</ele>
        <time>2022-09-13T12:52:48Z</time>
      </trkpt>
      <trkpt lat="47.86387" lon="6.82043">
        <ele>647.6</ele>
        <time>2022-09-13T12:52:49Z</time>
      </trkpt>
      <trkpt lat="47.86386" lon="6.82041">
        <ele>648</ele>
        <time>2022-09-13T12:52:50Z</time>
      </trkpt>
      <trkpt lat="47.86384" lon="6.82039">
        <ele>648.2</ele>
        <time>2022-09-13T12:52:51Z</time>
      </trkpt>
      <trkpt lat="47.86383" lon="6.82037">
        <ele>648.6</ele>
        <time>2022-09-13T12:52:52Z</time>
      </trkpt>
      <trkpt lat="47.86381" lon="6.82035">
        <ele>648.7</ele>
        <time>2022-09-13T12:52:53Z</time>
      </trkpt>
      <trkpt lat="47.8638" lon="6.82034">
        <ele>648.8</ele>
        <time>2022-09-13T12:52:54Z</time>
      </trkpt>
      <trkpt lat="47.86378" lon="6.82032">
        <ele>648.9</ele>
        <time>2022-09-13T12:52:55Z</time>
      </trkpt>
      <trkpt lat="47.86376" lon="6.8203">
        <ele>649.1</ele>
        <time>2022-09-13T12:52:56Z</time>
      </trkpt>
      <trkpt lat="47.86375" lon="6.82028">
        <ele>649.4</ele>
        <time>2022-09-13T12:52:57Z</time>
      </trkpt>
      <trkpt lat="47.86373" lon="6.82026">
        <ele>649.5</ele>
        <time>2022-09-13T12:52:58Z</time>
      </trkpt>
      <trkpt lat="47.86372" lon="6.82025">
        <ele>649.5</ele>
        <time>2022-09-13T12:52:59Z</time>
      </trkpt>
      <trkpt lat="47.8637" lon="6.82023">
        <ele>649.6</ele>
        <time>2022-09-13T12:53:00Z</time>
      </trkpt>
      <trkpt lat="47.86369" lon="6.82021">
        <ele>649.8</ele>
        <time>2022-09-13T12:53:01Z</time>
      </trkpt>
      <trkpt lat="47.86367" lon="6.82019">
        <ele>649.8</ele>
        <time>2022-09-13T12:53:02Z</time>
      </trkpt>
      <trkpt lat="47.86366" lon="6.82017">
        <ele>650.1</ele>
        <time>2022-09-13T12:53:03Z</time>
      </trkpt>
      <trkpt lat="47.86365" lon="6.82015">
        <ele>650.3</ele>
        <time>2022-09-13T12:53:04Z</time>
      </trkpt>
      <trkpt lat="47.86363" lon="6.82013">
        <ele>650.3</ele>
        <time>2022-09-13T12:53:05Z</time>
      </trkpt>
      <trkpt lat="47.86362" lon="6.82011">
        <ele>650.5</ele>
        <time>2022-09-13T12:53:06Z</time>
      </trkpt>
      <trkpt lat="47.86361" lon="6.82009">
        <ele>650.7</ele>
        <time>2022-09-13T12:53:07Z</time>
      </trkpt>
      <trkpt lat="47.86359" lon="6.82007">
        <ele>650.7</ele>
        <time>2022-09-13T12:53:08Z</time>
      </trkpt>
      <trkpt lat="47.86358" lon="6.82005">
        <ele>650.9</ele>
        <time>2022-09-13T12:53:09Z</time>
      </trkpt>
      <trkpt lat="47.86357" lon="6.82004">
        <ele>650.9</ele>
        <time>2022-09-13T12:53:10Z</time>
      </trkpt>
      <trkpt lat="47.86356" lon="6.82002">
        <ele>651.2</ele>
        <time>2022-09-13T12:53:11Z</time>
      </trkpt>
      <trkpt lat="47.86354" lon="6.82">
        <ele>651.2</ele>
        <time>2022-09-13T12:53:12Z</time>
      </trkpt>
      <trkpt lat="47.86352" lon="6.81998">
        <ele>651.3</ele>
        <time>2022-09-13T12:53:13Z</time>
      </trkpt>
      <trkpt lat="47.86351" lon="6.81996">
        <ele>651.6</ele>
        <time>2022-09-13T12:53:14Z</time>
      </trkpt>
      <trkpt lat="47.8635" lon="6.81994">
        <ele>651.9</ele>
        <time>2022-09-13T12:53:15Z</time>
      </trkpt>
      <trkpt lat="47.86348" lon="6.81992">
        <ele>652</ele>
        <time>2022-09-13T12:53:16Z</time>
      </trkpt>
      <trkpt lat="47.86347" lon="6.8199">
        <ele>652.3</ele>
        <time>2022-09-13T12:53:17Z</time>
      </trkpt>
      <trkpt lat="47.86346" lon="6.81988">
        <ele>652.6</ele>
        <time>2022-09-13T12:53:18Z</time>
      </trkpt>
      <trkpt lat="47.86345" lon="6.81986">
        <ele>653</ele>
        <time>2022-09-13T12:53:19Z</time>
      </trkpt>
      <trkpt lat="47.86343" lon="6.81984">
        <ele>653</ele>
        <time>2022-09-13T12:53:20Z</time>
      </trkpt>
      <trkpt lat="47.86342" lon="6.81982">
        <ele>653.4</ele>
        <time>2022-09-13T12:53:21Z</time>
      </trkpt>
      <trkpt lat="47.86341" lon="6.8198">
        <ele>653.7</ele>
        <time>2022-09-13T12:53:22Z</time>
      </trkpt>
      <trkpt lat="47.86339" lon="6.81978">
        <ele>653.8</ele>
        <time>2022-09-13T12:53:23Z</time>
      </trkpt>
      <trkpt lat="47.86338" lon="6.81976">
        <ele>654.1</ele>
        <time>2022-09-13T12:53:24Z</time>
      </trkpt>
      <trkpt lat="47.86337" lon="6.81975">
        <ele>654.1</ele>
        <time>2022-09-13T12:53:25Z</time>
      </trkpt>
      <trkpt lat="47.86336" lon="6.81973">
        <ele>654.4</ele>
        <time>2022-09-13T12:53:26Z</time>
      </trkpt>
      <trkpt lat="47.86335" lon="6.81971">
        <ele>654.6</ele>
        <time>2022-09-13T12:53:27Z</time>
      </trkpt>
      <trkpt lat="47.86334" lon="6.81969">
        <ele>654.8</ele>
        <time>2022-09-13T12:53:28Z</time>
      </trkpt>
      <trkpt lat="47.86333" lon="6.81967">
        <ele>654.8</ele>
        <time>2022-09-13T12:53:29Z</time>
      </trkpt>
      <trkpt lat="47.86332" lon="6.81964">
        <ele>655.1</ele>
        <time>2022-09-13T12:53:30Z</time>
      </trkpt>
      <trkpt lat="47.86331" lon="6.81962">
        <ele>655.1</ele>
        <time>2022-09-13T12:53:31Z</time>
      </trkpt>
      <trkpt lat="47.8633" lon="6.81959">
        <ele>655.4</ele>
        <time>2022-09-13T12:53:32Z</time>
      </trkpt>
      <trkpt lat="47.86329" lon="6.81958">
        <ele>655.2</ele>
        <time>2022-09-13T12:53:33Z</time>
      </trkpt>
      <trkpt lat="47.86328" lon="6.81956">
        <ele>655.3</ele>
        <time>2022-09-13T12:53:34Z</time>
      </trkpt>
      <trkpt lat="47.86327" lon="6.81953">
        <ele>655.6</ele>
        <time>2022-09-13T12:53:35Z</time>
      </trkpt>
      <trkpt lat="47.86326" lon="6.8195">
        <ele>655.8</ele>
        <time>2022-09-13T12:53:36Z</time>
      </trkpt>
      <trkpt lat="47.86324" lon="6.81948">
        <ele>655.6</ele>
        <time>2022-09-13T12:53:37Z</time>
      </trkpt>
      <trkpt lat="47.86323" lon="6.81946">
        <ele>655.7</ele>
        <time>2022-09-13T12:53:38Z</time>
      </trkpt>
      <trkpt lat="47.86323" lon="6.81943">
        <ele>656.3</ele>
        <time>2022-09-13T12:53:39Z</time>
      </trkpt>
      <trkpt lat="47.86322" lon="6.81941">
        <ele>656.5</ele>
        <time>2022-09-13T12:53:40Z</time>
      </trkpt>
      <trkpt lat="47.86321" lon="6.81939">
        <ele>656.6</ele>
        <time>2022-09-13T12:53:41Z</time>
      </trkpt>
      <trkpt lat="47.86321" lon="6.81936">
        <ele>657.2</ele>
        <time>2022-09-13T12:53:42Z</time>
      </trkpt>
      <trkpt lat="47.8632" lon="6.81933">
        <ele>657.5</ele>
        <time>2022-09-13T12:53:43Z</time>
      </trkpt>
      <trkpt lat="47.86319" lon="6.8193">
        <ele>657.7</ele>
        <time>2022-09-13T12:53:44Z</time>
      </trkpt>
      <trkpt lat="47.86319" lon="6.81928">
        <ele>658.1</ele>
        <time>2022-09-13T12:53:45Z</time>
      </trkpt>
      <trkpt lat="47.86318" lon="6.81925">
        <ele>658.3</ele>
        <time>2022-09-13T12:53:46Z</time>
      </trkpt>
      <trkpt lat="47.86318" lon="6.81922">
        <ele>658.9</ele>
        <time>2022-09-13T12:53:47Z</time>
      </trkpt>
      <trkpt lat="47.86318" lon="6.81919">
        <ele>659.5</ele>
        <time>2022-09-13T12:53:48Z</time>
      </trkpt>
      <trkpt lat="47.86317" lon="6.81917">
        <ele>659.5</ele>
        <time>2022-09-13T12:53:49Z</time>
      </trkpt>
      <trkpt lat="47.86317" lon="6.81914">
        <ele>660.1</ele>
        <time>2022-09-13T12:53:50Z</time>
      </trkpt>
      <trkpt lat="47.86316" lon="6.81911">
        <ele>660.3</ele>
        <time>2022-09-13T12:53:51Z</time>
      </trkpt>
      <trkpt lat="47.86316" lon="6.81908">
        <ele>660.9</ele>
        <time>2022-09-13T12:53:52Z</time>
      </trkpt>
      <trkpt lat="47.86315" lon="6.81906">
        <ele>660.9</ele>
        <time>2022-09-13T12:53:53Z</time>
      </trkpt>
      <trkpt lat="47.86315" lon="6.81903">
        <ele>661.5</ele>
        <time>2022-09-13T12:53:54Z</time>
      </trkpt>
      <trkpt lat="47.86314" lon="6.819">
        <ele>661.8</ele>
        <time>2022-09-13T12:53:55Z</time>
      </trkpt>
      <trkpt lat="47.86314" lon="6.81897">
        <ele>662.4</ele>
        <time>2022-09-13T12:53:56Z</time>
      </trkpt>
      <trkpt lat="47.86314" lon="6.81895">
        <ele>662.8</ele>
        <time>2022-09-13T12:53:57Z</time>
      </trkpt>
      <trkpt lat="47.86313" lon="6.81892">
        <ele>663</ele>
        <time>2022-09-13T12:53:58Z</time>
      </trkpt>
      <trkpt lat="47.86313" lon="6.81889">
        <ele>663.7</ele>
        <time>2022-09-13T12:53:59Z</time>
      </trkpt>
      <trkpt lat="47.86313" lon="6.81886">
        <ele>664</ele>
        <time>2022-09-13T12:54:00Z</time>
      </trkpt>
      <trkpt lat="47.86313" lon="6.81882">
        <ele>664.4</ele>
        <time>2022-09-13T12:54:01Z</time>
      </trkpt>
      <trkpt lat="47.86313" lon="6.81879">
        <ele>664.7</ele>
        <time>2022-09-13T12:54:02Z</time>
      </trkpt>
      <trkpt lat="47.86313" lon="6.81876">
        <ele>664.9</ele>
        <time>2022-09-13T12:54:03Z</time>
      </trkpt>
      <trkpt lat="47.86313" lon="6.81873">
        <ele>665.2</ele>
        <time>2022-09-13T12:54:04Z</time>
      </trkpt>
      <trkpt lat="47.86313" lon="6.81871">
        <ele>665.4</ele>
        <time>2022-09-13T12:54:05Z</time>
      </trkpt>
      <trkpt lat="47.86313" lon="6.81868">
        <ele>665.7</ele>
        <time>2022-09-13T12:54:06Z</time>
      </trkpt>
      <trkpt lat="47.86313" lon="6.81865">
        <ele>666</ele>
        <time>2022-09-13T12:54:07Z</time>
      </trkpt>
      <trkpt lat="47.86313" lon="6.81862">
        <ele>666.3</ele>
        <time>2022-09-13T12:54:08Z</time>
      </trkpt>
      <trkpt lat="47.86313" lon="6.8186">
        <ele>666.6</ele>
        <time>2022-09-13T12:54:09Z</time>
      </trkpt>
      <trkpt lat="47.86313" lon="6.81858">
        <ele>666.9</ele>
        <time>2022-09-13T12:54:10Z</time>
      </trkpt>
      <trkpt lat="47.86314" lon="6.81856">
        <ele>667.4</ele>
        <time>2022-09-13T12:54:11Z</time>
      </trkpt>
      <trkpt lat="47.86314" lon="6.81853">
        <ele>667.8</ele>
        <time>2022-09-13T12:54:12Z</time>
      </trkpt>
      <trkpt lat="47.86314" lon="6.81851">
        <ele>668.1</ele>
        <time>2022-09-13T12:54:13Z</time>
      </trkpt>
      <trkpt lat="47.86315" lon="6.81848">
        <ele>668.8</ele>
        <time>2022-09-13T12:54:14Z</time>
      </trkpt>
      <trkpt lat="47.86315" lon="6.81846">
        <ele>669</ele>
        <time>2022-09-13T12:54:15Z</time>
      </trkpt>
      <trkpt lat="47.86315" lon="6.81844">
        <ele>669.3</ele>
        <time>2022-09-13T12:54:16Z</time>
      </trkpt>
      <trkpt lat="47.86316" lon="6.81841">
        <ele>669.9</ele>
        <time>2022-09-13T12:54:17Z</time>
      </trkpt>
      <trkpt lat="47.86316" lon="6.81839">
        <ele>670.2</ele>
        <time>2022-09-13T12:54:18Z</time>
      </trkpt>
      <trkpt lat="47.86316" lon="6.81837">
        <ele>670.4</ele>
        <time>2022-09-13T12:54:19Z</time>
      </trkpt>
      <trkpt lat="47.86317" lon="6.81834">
        <ele>671</ele>
        <time>2022-09-13T12:54:20Z</time>
      </trkpt>
      <trkpt lat="47.86317" lon="6.81832">
        <ele>671.1</ele>
        <time>2022-09-13T12:54:21Z</time>
      </trkpt>
      <trkpt lat="47.86318" lon="6.8183">
        <ele>671.4</ele>
        <time>2022-09-13T12:54:22Z</time>
      </trkpt>
      <trkpt lat="47.86318" lon="6.81827">
        <ele>671.5</ele>
        <time>2022-09-13T12:54:23Z</time>
      </trkpt>
      <trkpt lat="47.86318" lon="6.81825">
        <ele>671.6</ele>
        <time>2022-09-13T12:54:24Z</time>
      </trkpt>
      <trkpt lat="47.86318" lon="6.81823">
        <ele>671.7</ele>
        <time>2022-09-13T12:54:25Z</time>
      </trkpt>
      <trkpt lat="47.86319" lon="6.81821">
        <ele>671.9</ele>
        <time>2022-09-13T12:54:26Z</time>
      </trkpt>
      <trkpt lat="47.86319" lon="6.81819">
        <ele>672</ele>
        <time>2022-09-13T12:54:27Z</time>
      </trkpt>
      <trkpt lat="47.8632" lon="6.81817">
        <ele>672.2</ele>
        <time>2022-09-13T12:54:28Z</time>
      </trkpt>
      <trkpt lat="47.8632" lon="6.81815">
        <ele>672.2</ele>
        <time>2022-09-13T12:55:10Z</time>
      </trkpt>
      <trkpt lat="47.86321" lon="6.81814">
        <ele>672.4</ele>
        <time>2022-09-13T12:55:11Z</time>
      </trkpt>
      <trkpt lat="47.86321" lon="6.81812">
        <ele>672.5</ele>
        <time>2022-09-13T12:55:12Z</time>
      </trkpt>
      <trkpt lat="47.86321" lon="6.81811">
        <ele>672.5</ele>
        <time>2022-09-13T12:55:13Z</time>
      </trkpt>
      <trkpt lat="47.8632" lon="6.8181">
        <ele>672.4</ele>
        <time>2022-09-13T12:55:14Z</time>
      </trkpt>
      <trkpt lat="47.86319" lon="6.81809">
        <ele>672.3</ele>
        <time>2022-09-13T12:55:15Z</time>
      </trkpt>
      <trkpt lat="47.86318" lon="6.81809">
        <ele>672.2</ele>
        <time>2022-09-13T12:55:16Z</time>
      </trkpt>
      <trkpt lat="47.86315" lon="6.81808">
        <ele>671.9</ele>
        <time>2022-09-13T12:55:17Z</time>
      </trkpt>
      <trkpt lat="47.86313" lon="6.81808">
        <ele>671.7</ele>
        <time>2022-09-13T12:55:18Z</time>
      </trkpt>
      <trkpt lat="47.86311" lon="6.81808">
        <ele>671.4</ele>
        <time>2022-09-13T12:55:19Z</time>
      </trkpt>
      <trkpt lat="47.8631" lon="6.81807">
        <ele>671.4</ele>
        <time>2022-09-13T12:55:20Z</time>
      </trkpt>
      <trkpt lat="47.86309" lon="6.81807">
        <ele>671.3</ele>
        <time>2022-09-13T12:55:21Z</time>
      </trkpt>
      <trkpt lat="47.86308" lon="6.81807">
        <ele>671.2</ele>
        <time>2022-09-13T12:55:53Z</time>
      </trkpt>
      <trkpt lat="47.86308" lon="6.81806">
        <ele>671.2</ele>
        <time>2022-09-13T12:55:54Z</time>
      </trkpt>
      <trkpt lat="47.86308" lon="6.81805">
        <ele>671.3</ele>
        <time>2022-09-13T12:55:55Z</time>
      </trkpt>
      <trkpt lat="47.86309" lon="6.81805">
        <ele>671.4</ele>
        <time>2022-09-13T12:55:56Z</time>
      </trkpt>
      <trkpt lat="47.8631" lon="6.81804">
        <ele>671.5</ele>
        <time>2022-09-13T12:55:57Z</time>
      </trkpt>
      <trkpt lat="47.86311" lon="6.81803">
        <ele>671.6</ele>
        <time>2022-09-13T12:55:58Z</time>
      </trkpt>
      <trkpt lat="47.86312" lon="6.81802">
        <ele>671.7</ele>
        <time>2022-09-13T12:55:59Z</time>
      </trkpt>
      <trkpt lat="47.86313" lon="6.81801">
        <ele>671.8</ele>
        <time>2022-09-13T12:56:00Z</time>
      </trkpt>
      <trkpt lat="47.86315" lon="6.81798">
        <ele>672</ele>
        <time>2022-09-13T12:56:01Z</time>
      </trkpt>
      <trkpt lat="47.86316" lon="6.81796">
        <ele>672.1</ele>
        <time>2022-09-13T12:56:02Z</time>
      </trkpt>
      <trkpt lat="47.86318" lon="6.81794">
        <ele>672.2</ele>
        <time>2022-09-13T12:56:03Z</time>
      </trkpt>
      <trkpt lat="47.86319" lon="6.81792">
        <ele>672.2</ele>
        <time>2022-09-13T12:56:04Z</time>
      </trkpt>
      <trkpt lat="47.8632" lon="6.81789">
        <ele>672.2</ele>
        <time>2022-09-13T12:56:05Z</time>
      </trkpt>
      <trkpt lat="47.86321" lon="6.81787">
        <ele>672.2</ele>
        <time>2022-09-13T12:56:06Z</time>
      </trkpt>
      <trkpt lat="47.86322" lon="6.81784">
        <ele>672.2</ele>
        <time>2022-09-13T12:56:07Z</time>
      </trkpt>
      <trkpt lat="47.86322" lon="6.81781">
        <ele>672.1</ele>
        <time>2022-09-13T12:56:08Z</time>
      </trkpt>
      <trkpt lat="47.86323" lon="6.81778">
        <ele>672</ele>
        <time>2022-09-13T12:56:09Z</time>
      </trkpt>
      <trkpt lat="47.86324" lon="6.81776">
        <ele>672</ele>
        <time>2022-09-13T12:56:10Z</time>
      </trkpt>
      <trkpt lat="47.86324" lon="6.81773">
        <ele>671.9</ele>
        <time>2022-09-13T12:56:11Z</time>
      </trkpt>
      <trkpt lat="47.86325" lon="6.8177">
        <ele>671.9</ele>
        <time>2022-09-13T12:56:12Z</time>
      </trkpt>
      <trkpt lat="47.86325" lon="6.81767">
        <ele>671.8</ele>
        <time>2022-09-13T12:56:13Z</time>
      </trkpt>
      <trkpt lat="47.86325" lon="6.81763">
        <ele>671.8</ele>
        <time>2022-09-13T12:56:14Z</time>
      </trkpt>
      <trkpt lat="47.86326" lon="6.8176">
        <ele>671.7</ele>
        <time>2022-09-13T12:56:15Z</time>
      </trkpt>
      <trkpt lat="47.86326" lon="6.81757">
        <ele>671.6</ele>
        <time>2022-09-13T12:56:16Z</time>
      </trkpt>
      <trkpt lat="47.86327" lon="6.81755">
        <ele>671.6</ele>
        <time>2022-09-13T12:56:17Z</time>
      </trkpt>
      <trkpt lat="47.86327" lon="6.81752">
        <ele>671.5</ele>
        <time>2022-09-13T12:56:18Z</time>
      </trkpt>
      <trkpt lat="47.86328" lon="6.81749">
        <ele>671.3</ele>
        <time>2022-09-13T12:56:19Z</time>
      </trkpt>
      <trkpt lat="47.86329" lon="6.81747">
        <ele>671.1</ele>
        <time>2022-09-13T12:56:20Z</time>
      </trkpt>
      <trkpt lat="47.8633" lon="6.81744">
        <ele>670.8</ele>
        <time>2022-09-13T12:56:21Z</time>
      </trkpt>
      <trkpt lat="47.86331" lon="6.81742">
        <ele>670.6</ele>
        <time>2022-09-13T12:56:22Z</time>
      </trkpt>
      <trkpt lat="47.86332" lon="6.81739">
        <ele>670.3</ele>
        <time>2022-09-13T12:56:23Z</time>
      </trkpt>
      <trkpt lat="47.86334" lon="6.81737">
        <ele>670.3</ele>
        <time>2022-09-13T12:56:24Z</time>
      </trkpt>
      <trkpt lat="47.86335" lon="6.81735">
        <ele>670.5</ele>
        <time>2022-09-13T12:56:25Z</time>
      </trkpt>
      <trkpt lat="47.86337" lon="6.81732">
        <ele>670.9</ele>
        <time>2022-09-13T12:56:26Z</time>
      </trkpt>
      <trkpt lat="47.86338" lon="6.81729">
        <ele>671.1</ele>
        <time>2022-09-13T12:56:27Z</time>
      </trkpt>
      <trkpt lat="47.86339" lon="6.81726">
        <ele>671.3</ele>
        <time>2022-09-13T12:56:28Z</time>
      </trkpt>
      <trkpt lat="47.8634" lon="6.81723">
        <ele>671.4</ele>
        <time>2022-09-13T12:56:29Z</time>
      </trkpt>
      <trkpt lat="47.86341" lon="6.8172">
        <ele>671.6</ele>
        <time>2022-09-13T12:56:30Z</time>
      </trkpt>
      <trkpt lat="47.86342" lon="6.81718">
        <ele>671.8</ele>
        <time>2022-09-13T12:56:31Z</time>
      </trkpt>
      <trkpt lat="47.86343" lon="6.81714">
        <ele>671.8</ele>
        <time>2022-09-13T12:56:32Z</time>
      </trkpt>
      <trkpt lat="47.86344" lon="6.81711">
        <ele>671.9</ele>
        <time>2022-09-13T12:56:33Z</time>
      </trkpt>
      <trkpt lat="47.86346" lon="6.81708">
        <ele>672.3</ele>
        <time>2022-09-13T12:56:34Z</time>
      </trkpt>
      <trkpt lat="47.86347" lon="6.81705">
        <ele>672.4</ele>
        <time>2022-09-13T12:56:35Z</time>
      </trkpt>
      <trkpt lat="47.86348" lon="6.81702">
        <ele>672.4</ele>
        <time>2022-09-13T12:56:36Z</time>
      </trkpt>
      <trkpt lat="47.8635" lon="6.81699">
        <ele>672.8</ele>
        <time>2022-09-13T12:56:37Z</time>
      </trkpt>
      <trkpt lat="47.86351" lon="6.81696">
        <ele>672.9</ele>
        <time>2022-09-13T12:56:38Z</time>
      </trkpt>
      <trkpt lat="47.86352" lon="6.81693">
        <ele>672.9</ele>
        <time>2022-09-13T12:56:39Z</time>
      </trkpt>
      <trkpt lat="47.86353" lon="6.81691">
        <ele>672.9</ele>
        <time>2022-09-13T12:56:40Z</time>
      </trkpt>
      <trkpt lat="47.86354" lon="6.81688">
        <ele>672.8</ele>
        <time>2022-09-13T12:56:41Z</time>
      </trkpt>
      <trkpt lat="47.86355" lon="6.81685">
        <ele>672.6</ele>
        <time>2022-09-13T12:56:42Z</time>
      </trkpt>
      <trkpt lat="47.86357" lon="6.81682">
        <ele>672.7</ele>
        <time>2022-09-13T12:56:43Z</time>
      </trkpt>
      <trkpt lat="47.86358" lon="6.81679">
        <ele>672.5</ele>
        <time>2022-09-13T12:56:44Z</time>
      </trkpt>
      <trkpt lat="47.86359" lon="6.81677">
        <ele>672.4</ele>
        <time>2022-09-13T12:56:45Z</time>
      </trkpt>
      <trkpt lat="47.86361" lon="6.81674">
        <ele>672.3</ele>
        <time>2022-09-13T12:56:46Z</time>
      </trkpt>
      <trkpt lat="47.86362" lon="6.81672">
        <ele>672.3</ele>
        <time>2022-09-13T12:56:47Z</time>
      </trkpt>
      <trkpt lat="47.86363" lon="6.8167">
        <ele>672.4</ele>
        <time>2022-09-13T12:56:48Z</time>
      </trkpt>
      <trkpt lat="47.86365" lon="6.81667">
        <ele>672.6</ele>
        <time>2022-09-13T12:56:49Z</time>
      </trkpt>
      <trkpt lat="47.86366" lon="6.81664">
        <ele>672.4</ele>
        <time>2022-09-13T12:56:50Z</time>
      </trkpt>
      <trkpt lat="47.86368" lon="6.81662">
        <ele>672.8</ele>
        <time>2022-09-13T12:56:51Z</time>
      </trkpt>
      <trkpt lat="47.8637" lon="6.8166">
        <ele>673.2</ele>
        <time>2022-09-13T12:56:52Z</time>
      </trkpt>
      <trkpt lat="47.86372" lon="6.81658">
        <ele>673.6</ele>
        <time>2022-09-13T12:56:53Z</time>
      </trkpt>
      <trkpt lat="47.86373" lon="6.81656">
        <ele>673.6</ele>
        <time>2022-09-13T12:56:54Z</time>
      </trkpt>
      <trkpt lat="47.86375" lon="6.81654">
        <ele>674</ele>
        <time>2022-09-13T12:56:55Z</time>
      </trkpt>
      <trkpt lat="47.86377" lon="6.81651">
        <ele>674.2</ele>
        <time>2022-09-13T12:56:56Z</time>
      </trkpt>
      <trkpt lat="47.86378" lon="6.81649">
        <ele>674.3</ele>
        <time>2022-09-13T12:56:57Z</time>
      </trkpt>
      <trkpt lat="47.8638" lon="6.81647">
        <ele>674.7</ele>
        <time>2022-09-13T12:56:58Z</time>
      </trkpt>
      <trkpt lat="47.86382" lon="6.81645">
        <ele>675.2</ele>
        <time>2022-09-13T12:56:59Z</time>
      </trkpt>
      <trkpt lat="47.86384" lon="6.81643">
        <ele>675.7</ele>
        <time>2022-09-13T12:57:00Z</time>
      </trkpt>
      <trkpt lat="47.86385" lon="6.81641">
        <ele>675.7</ele>
        <time>2022-09-13T12:57:01Z</time>
      </trkpt>
      <trkpt lat="47.86387" lon="6.81639">
        <ele>676.2</ele>
        <time>2022-09-13T12:57:02Z</time>
      </trkpt>
      <trkpt lat="47.86389" lon="6.81637">
        <ele>676.6</ele>
        <time>2022-09-13T12:57:03Z</time>
      </trkpt>
      <trkpt lat="47.8639" lon="6.81634">
        <ele>676.3</ele>
        <time>2022-09-13T12:57:04Z</time>
      </trkpt>
      <trkpt lat="47.86392" lon="6.81632">
        <ele>676.6</ele>
        <time>2022-09-13T12:57:05Z</time>
      </trkpt>
      <trkpt lat="47.86394" lon="6.8163">
        <ele>676.9</ele>
        <time>2022-09-13T12:57:06Z</time>
      </trkpt>
      <trkpt lat="47.86395" lon="6.81628">
        <ele>676.8</ele>
        <time>2022-09-13T12:57:07Z</time>
      </trkpt>
      <trkpt lat="47.86397" lon="6.81626">
        <ele>677.1</ele>
        <time>2022-09-13T12:57:08Z</time>
      </trkpt>
      <trkpt lat="47.86399" lon="6.81623">
        <ele>677.2</ele>
        <time>2022-09-13T12:57:09Z</time>
      </trkpt>
      <trkpt lat="47.864" lon="6.81621">
        <ele>677.1</ele>
        <time>2022-09-13T12:57:10Z</time>
      </trkpt>
      <trkpt lat="47.86402" lon="6.81618">
        <ele>677.2</ele>
        <time>2022-09-13T12:57:11Z</time>
      </trkpt>
      <trkpt lat="47.86403" lon="6.81616">
        <ele>677.1</ele>
        <time>2022-09-13T12:57:12Z</time>
      </trkpt>
      <trkpt lat="47.86405" lon="6.81613">
        <ele>677.2</ele>
        <time>2022-09-13T12:57:13Z</time>
      </trkpt>
      <trkpt lat="47.86406" lon="6.81611">
        <ele>677.1</ele>
        <time>2022-09-13T12:57:14Z</time>
      </trkpt>
      <trkpt lat="47.86408" lon="6.81608">
        <ele>677.4</ele>
        <time>2022-09-13T12:57:15Z</time>
      </trkpt>
      <trkpt lat="47.8641" lon="6.81606">
        <ele>677.8</ele>
        <time>2022-09-13T12:57:16Z</time>
      </trkpt>
      <trkpt lat="47.86411" lon="6.81604">
        <ele>677.8</ele>
        <time>2022-09-13T12:57:17Z</time>
      </trkpt>
      <trkpt lat="47.86413" lon="6.81601">
        <ele>678.1</ele>
        <time>2022-09-13T12:57:18Z</time>
      </trkpt>
      <trkpt lat="47.86414" lon="6.81599">
        <ele>678.2</ele>
        <time>2022-09-13T12:57:19Z</time>
      </trkpt>
      <trkpt lat="47.86416" lon="6.81597">
        <ele>678.7</ele>
        <time>2022-09-13T12:57:20Z</time>
      </trkpt>
      <trkpt lat="47.86417" lon="6.81595">
        <ele>678.7</ele>
        <time>2022-09-13T12:57:21Z</time>
      </trkpt>
      <trkpt lat="47.86419" lon="6.81593">
        <ele>678.8</ele>
        <time>2022-09-13T12:57:22Z</time>
      </trkpt>
      <trkpt lat="47.86421" lon="6.81591">
        <ele>678.9</ele>
        <time>2022-09-13T12:57:23Z</time>
      </trkpt>
      <trkpt lat="47.86423" lon="6.81588">
        <ele>678.7</ele>
        <time>2022-09-13T12:57:24Z</time>
      </trkpt>
      <trkpt lat="47.86425" lon="6.81586">
        <ele>678.7</ele>
        <time>2022-09-13T12:57:25Z</time>
      </trkpt>
      <trkpt lat="47.86427" lon="6.81584">
        <ele>678.6</ele>
        <time>2022-09-13T12:57:26Z</time>
      </trkpt>
      <trkpt lat="47.86429" lon="6.81583">
        <ele>678.7</ele>
        <time>2022-09-13T12:57:27Z</time>
      </trkpt>
      <trkpt lat="47.86431" lon="6.81581">
        <ele>678.5</ele>
        <time>2022-09-13T12:57:28Z</time>
      </trkpt>
      <trkpt lat="47.86433" lon="6.81579">
        <ele>678.4</ele>
        <time>2022-09-13T12:57:29Z</time>
      </trkpt>
      <trkpt lat="47.86436" lon="6.81578">
        <ele>678.6</ele>
        <time>2022-09-13T12:57:30Z</time>
      </trkpt>
      <trkpt lat="47.86438" lon="6.81576">
        <ele>678.6</ele>
        <time>2022-09-13T12:57:31Z</time>
      </trkpt>
      <trkpt lat="47.8644" lon="6.81574">
        <ele>678.5</ele>
        <time>2022-09-13T12:57:32Z</time>
      </trkpt>
      <trkpt lat="47.86443" lon="6.8157">
        <ele>678.3</ele>
        <time>2022-09-13T12:57:33Z</time>
      </trkpt>
      <trkpt lat="47.86445" lon="6.81567">
        <ele>678.3</ele>
        <time>2022-09-13T12:57:34Z</time>
      </trkpt>
      <trkpt lat="47.86446" lon="6.81565">
        <ele>678.3</ele>
        <time>2022-09-13T12:57:35Z</time>
      </trkpt>
      <trkpt lat="47.86448" lon="6.81563">
        <ele>678.7</ele>
        <time>2022-09-13T12:57:36Z</time>
      </trkpt>
      <trkpt lat="47.86449" lon="6.81561">
        <ele>678.7</ele>
        <time>2022-09-13T12:57:37Z</time>
      </trkpt>
      <trkpt lat="47.86451" lon="6.81559">
        <ele>679</ele>
        <time>2022-09-13T12:57:38Z</time>
      </trkpt>
      <trkpt lat="47.86452" lon="6.81557">
        <ele>679</ele>
        <time>2022-09-13T12:57:39Z</time>
      </trkpt>
      <trkpt lat="47.86454" lon="6.81554">
        <ele>679.1</ele>
        <time>2022-09-13T12:57:40Z</time>
      </trkpt>
      <trkpt lat="47.86456" lon="6.81552">
        <ele>679.4</ele>
        <time>2022-09-13T12:57:41Z</time>
      </trkpt>
      <trkpt lat="47.86457" lon="6.81549">
        <ele>679.1</ele>
        <time>2022-09-13T12:57:42Z</time>
      </trkpt>
      <trkpt lat="47.86459" lon="6.81545">
        <ele>679</ele>
        <time>2022-09-13T12:57:43Z</time>
      </trkpt>
      <trkpt lat="47.8646" lon="6.81542">
        <ele>678.7</ele>
        <time>2022-09-13T12:57:44Z</time>
      </trkpt>
      <trkpt lat="47.86462" lon="6.81539">
        <ele>678.9</ele>
        <time>2022-09-13T12:57:45Z</time>
      </trkpt>
      <trkpt lat="47.86463" lon="6.81536">
        <ele>678.7</ele>
        <time>2022-09-13T12:57:46Z</time>
      </trkpt>
      <trkpt lat="47.86465" lon="6.81533">
        <ele>678.9</ele>
        <time>2022-09-13T12:57:47Z</time>
      </trkpt>
      <trkpt lat="47.86466" lon="6.8153">
        <ele>678.7</ele>
        <time>2022-09-13T12:57:48Z</time>
      </trkpt>
      <trkpt lat="47.86468" lon="6.81527">
        <ele>679</ele>
        <time>2022-09-13T12:57:49Z</time>
      </trkpt>
      <trkpt lat="47.86469" lon="6.81524">
        <ele>678.9</ele>
        <time>2022-09-13T12:57:50Z</time>
      </trkpt>
      <trkpt lat="47.8647" lon="6.8152">
        <ele>678.6</ele>
        <time>2022-09-13T12:57:51Z</time>
      </trkpt>
      <trkpt lat="47.86471" lon="6.81517">
        <ele>678.5</ele>
        <time>2022-09-13T12:57:52Z</time>
      </trkpt>
      <trkpt lat="47.86472" lon="6.81513">
        <ele>678.2</ele>
        <time>2022-09-13T12:57:53Z</time>
      </trkpt>
      <trkpt lat="47.86473" lon="6.8151">
        <ele>678.2</ele>
        <time>2022-09-13T12:57:54Z</time>
      </trkpt>
      <trkpt lat="47.86474" lon="6.81503">
        <ele>677.5</ele>
        <time>2022-09-13T12:57:55Z</time>
      </trkpt>
      <trkpt lat="47.86475" lon="6.81499">
        <ele>677.3</ele>
        <time>2022-09-13T12:57:56Z</time>
      </trkpt>
      <trkpt lat="47.86476" lon="6.81497">
        <ele>677.5</ele>
        <time>2022-09-13T12:57:57Z</time>
      </trkpt>
      <trkpt lat="47.86477" lon="6.81495">
        <ele>677.7</ele>
        <time>2022-09-13T12:57:58Z</time>
      </trkpt>
      <trkpt lat="47.86478" lon="6.81493">
        <ele>677.9</ele>
        <time>2022-09-13T12:57:59Z</time>
      </trkpt>
      <trkpt lat="47.86479" lon="6.8149">
        <ele>677.9</ele>
        <time>2022-09-13T12:58:00Z</time>
      </trkpt>
      <trkpt lat="47.86481" lon="6.81488">
        <ele>678.6</ele>
        <time>2022-09-13T12:58:01Z</time>
      </trkpt>
      <trkpt lat="47.86482" lon="6.81485">
        <ele>678.6</ele>
        <time>2022-09-13T12:58:02Z</time>
      </trkpt>
      <trkpt lat="47.86483" lon="6.81482">
        <ele>678.6</ele>
        <time>2022-09-13T12:58:03Z</time>
      </trkpt>
      <trkpt lat="47.86484" lon="6.81479">
        <ele>678.6</ele>
        <time>2022-09-13T12:58:04Z</time>
      </trkpt>
      <trkpt lat="47.86485" lon="6.81475">
        <ele>678.4</ele>
        <time>2022-09-13T12:58:05Z</time>
      </trkpt>
      <trkpt lat="47.86486" lon="6.81472">
        <ele>678.4</ele>
        <time>2022-09-13T12:58:06Z</time>
      </trkpt>
      <trkpt lat="47.86487" lon="6.81469">
        <ele>678.5</ele>
        <time>2022-09-13T12:58:07Z</time>
      </trkpt>
      <trkpt lat="47.86488" lon="6.81466">
        <ele>678.6</ele>
        <time>2022-09-13T12:58:08Z</time>
      </trkpt>
      <trkpt lat="47.86489" lon="6.81462">
        <ele>678.6</ele>
        <time>2022-09-13T12:58:09Z</time>
      </trkpt>
      <trkpt lat="47.8649" lon="6.81459">
        <ele>678.7</ele>
        <time>2022-09-13T12:58:10Z</time>
      </trkpt>
      <trkpt lat="47.86491" lon="6.81456">
        <ele>678.8</ele>
        <time>2022-09-13T12:58:11Z</time>
      </trkpt>
      <trkpt lat="47.86492" lon="6.81452">
        <ele>678.8</ele>
        <time>2022-09-13T12:58:12Z</time>
      </trkpt>
      <trkpt lat="47.86493" lon="6.81448">
        <ele>678.7</ele>
        <time>2022-09-13T12:58:13Z</time>
      </trkpt>
      <trkpt lat="47.86493" lon="6.81445">
        <ele>678.3</ele>
        <time>2022-09-13T12:58:14Z</time>
      </trkpt>
      <trkpt lat="47.86494" lon="6.81441">
        <ele>678.6</ele>
        <time>2022-09-13T12:58:15Z</time>
      </trkpt>
      <trkpt lat="47.86495" lon="6.81438">
        <ele>679</ele>
        <time>2022-09-13T12:58:16Z</time>
      </trkpt>
      <trkpt lat="47.86495" lon="6.81434">
        <ele>678.8</ele>
        <time>2022-09-13T12:58:17Z</time>
      </trkpt>
      <trkpt lat="47.86496" lon="6.81431">
        <ele>679.2</ele>
        <time>2022-09-13T12:58:18Z</time>
      </trkpt>
      <trkpt lat="47.86497" lon="6.81427">
        <ele>679.6</ele>
        <time>2022-09-13T12:58:19Z</time>
      </trkpt>
      <trkpt lat="47.86498" lon="6.81424">
        <ele>680.1</ele>
        <time>2022-09-13T12:58:20Z</time>
      </trkpt>
      <trkpt lat="47.86498" lon="6.81421">
        <ele>680</ele>
        <time>2022-09-13T12:58:21Z</time>
      </trkpt>
      <trkpt lat="47.86499" lon="6.81417">
        <ele>680.4</ele>
        <time>2022-09-13T12:58:22Z</time>
      </trkpt>
      <trkpt lat="47.865" lon="6.81414">
        <ele>680.6</ele>
        <time>2022-09-13T12:58:23Z</time>
      </trkpt>
      <trkpt lat="47.86501" lon="6.8141">
        <ele>680.6</ele>
        <time>2022-09-13T12:58:24Z</time>
      </trkpt>
      <trkpt lat="47.86502" lon="6.81407">
        <ele>680.7</ele>
        <time>2022-09-13T12:58:25Z</time>
      </trkpt>
      <trkpt lat="47.86503" lon="6.81404">
        <ele>680.8</ele>
        <time>2022-09-13T12:58:26Z</time>
      </trkpt>
      <trkpt lat="47.86503" lon="6.814">
        <ele>680.2</ele>
        <time>2022-09-13T12:58:27Z</time>
      </trkpt>
      <trkpt lat="47.86504" lon="6.81397">
        <ele>680.4</ele>
        <time>2022-09-13T12:58:28Z</time>
      </trkpt>
      <trkpt lat="47.86505" lon="6.81393">
        <ele>680.4</ele>
        <time>2022-09-13T12:58:29Z</time>
      </trkpt>
      <trkpt lat="47.86506" lon="6.8139">
        <ele>680.6</ele>
        <time>2022-09-13T12:58:30Z</time>
      </trkpt>
      <trkpt lat="47.86507" lon="6.81384">
        <ele>680.3</ele>
        <time>2022-09-13T12:58:31Z</time>
      </trkpt>
      <trkpt lat="47.86509" lon="6.8138">
        <ele>680.8</ele>
        <time>2022-09-13T12:58:32Z</time>
      </trkpt>
      <trkpt lat="47.86509" lon="6.81378">
        <ele>680.5</ele>
        <time>2022-09-13T12:58:33Z</time>
      </trkpt>
      <trkpt lat="47.8651" lon="6.81375">
        <ele>680.6</ele>
        <time>2022-09-13T12:58:34Z</time>
      </trkpt>
      <trkpt lat="47.86511" lon="6.81372">
        <ele>680.7</ele>
        <time>2022-09-13T12:58:35Z</time>
      </trkpt>
      <trkpt lat="47.86511" lon="6.81368">
        <ele>680</ele>
        <time>2022-09-13T12:58:36Z</time>
      </trkpt>
      <trkpt lat="47.86512" lon="6.81365">
        <ele>680.1</ele>
        <time>2022-09-13T12:58:37Z</time>
      </trkpt>
      <trkpt lat="47.86513" lon="6.81361">
        <ele>680</ele>
        <time>2022-09-13T12:58:38Z</time>
      </trkpt>
      <trkpt lat="47.86514" lon="6.81357">
        <ele>680</ele>
        <time>2022-09-13T12:58:39Z</time>
      </trkpt>
      <trkpt lat="47.86514" lon="6.81354">
        <ele>679.7</ele>
        <time>2022-09-13T12:58:40Z</time>
      </trkpt>
      <trkpt lat="47.86515" lon="6.8135">
        <ele>679.7</ele>
        <time>2022-09-13T12:58:41Z</time>
      </trkpt>
      <trkpt lat="47.86516" lon="6.81347">
        <ele>679.8</ele>
        <time>2022-09-13T12:58:42Z</time>
      </trkpt>
      <trkpt lat="47.86516" lon="6.81343">
        <ele>679.3</ele>
        <time>2022-09-13T12:58:43Z</time>
      </trkpt>
      <trkpt lat="47.86517" lon="6.81339">
        <ele>679.3</ele>
        <time>2022-09-13T12:58:44Z</time>
      </trkpt>
      <trkpt lat="47.86517" lon="6.81335">
        <ele>678.8</ele>
        <time>2022-09-13T12:58:45Z</time>
      </trkpt>
      <trkpt lat="47.86518" lon="6.81332">
        <ele>678.9</ele>
        <time>2022-09-13T12:58:46Z</time>
      </trkpt>
      <trkpt lat="47.8652" lon="6.81325">
        <ele>679.2</ele>
        <time>2022-09-13T12:58:47Z</time>
      </trkpt>
      <trkpt lat="47.86521" lon="6.81321">
        <ele>679.3</ele>
        <time>2022-09-13T12:58:48Z</time>
      </trkpt>
      <trkpt lat="47.86522" lon="6.81317">
        <ele>679.3</ele>
        <time>2022-09-13T12:58:49Z</time>
      </trkpt>
      <trkpt lat="47.86523" lon="6.81314">
        <ele>679.5</ele>
        <time>2022-09-13T12:58:50Z</time>
      </trkpt>
      <trkpt lat="47.86524" lon="6.81312">
        <ele>679.8</ele>
        <time>2022-09-13T12:58:51Z</time>
      </trkpt>
      <trkpt lat="47.86525" lon="6.81309">
        <ele>680</ele>
        <time>2022-09-13T12:58:52Z</time>
      </trkpt>
      <trkpt lat="47.86526" lon="6.81306">
        <ele>680.2</ele>
        <time>2022-09-13T12:58:53Z</time>
      </trkpt>
      <trkpt lat="47.86528" lon="6.81303">
        <ele>680.6</ele>
        <time>2022-09-13T12:58:54Z</time>
      </trkpt>
      <trkpt lat="47.86529" lon="6.81299">
        <ele>680.3</ele>
        <time>2022-09-13T12:58:55Z</time>
      </trkpt>
      <trkpt lat="47.86531" lon="6.81294">
        <ele>680.1</ele>
        <time>2022-09-13T12:58:56Z</time>
      </trkpt>
      <trkpt lat="47.86533" lon="6.81289">
        <ele>680</ele>
        <time>2022-09-13T12:58:57Z</time>
      </trkpt>
      <trkpt lat="47.86534" lon="6.81286">
        <ele>679.8</ele>
        <time>2022-09-13T12:58:58Z</time>
      </trkpt>
      <trkpt lat="47.86535" lon="6.81283">
        <ele>679.6</ele>
        <time>2022-09-13T12:58:59Z</time>
      </trkpt>
      <trkpt lat="47.86536" lon="6.81281">
        <ele>679.6</ele>
        <time>2022-09-13T12:59:00Z</time>
      </trkpt>
      <trkpt lat="47.86539" lon="6.81276">
        <ele>679.7</ele>
        <time>2022-09-13T12:59:01Z</time>
      </trkpt>
      <trkpt lat="47.8654" lon="6.81273">
        <ele>679.4</ele>
        <time>2022-09-13T12:59:02Z</time>
      </trkpt>
      <trkpt lat="47.86542" lon="6.81269">
        <ele>679.4</ele>
        <time>2022-09-13T12:59:03Z</time>
      </trkpt>
      <trkpt lat="47.86544" lon="6.81266">
        <ele>679.5</ele>
        <time>2022-09-13T12:59:04Z</time>
      </trkpt>
      <trkpt lat="47.86545" lon="6.81263">
        <ele>679.3</ele>
        <time>2022-09-13T12:59:05Z</time>
      </trkpt>
      <trkpt lat="47.86546" lon="6.81262">
        <ele>679.5</ele>
        <time>2022-09-13T12:59:06Z</time>
      </trkpt>
      <trkpt lat="47.86548" lon="6.8126">
        <ele>679.9</ele>
        <time>2022-09-13T12:59:07Z</time>
      </trkpt>
      <trkpt lat="47.8655" lon="6.81258">
        <ele>680.3</ele>
        <time>2022-09-13T12:59:08Z</time>
      </trkpt>
      <trkpt lat="47.86552" lon="6.81256">
        <ele>680.7</ele>
        <time>2022-09-13T12:59:09Z</time>
      </trkpt>
      <trkpt lat="47.86553" lon="6.81253">
        <ele>680.5</ele>
        <time>2022-09-13T12:59:10Z</time>
      </trkpt>
      <trkpt lat="47.86555" lon="6.81251">
        <ele>681</ele>
        <time>2022-09-13T12:59:11Z</time>
      </trkpt>
      <trkpt lat="47.86557" lon="6.81249">
        <ele>681.2</ele>
        <time>2022-09-13T12:59:12Z</time>
      </trkpt>
      <trkpt lat="47.86559" lon="6.81246">
        <ele>681</ele>
        <time>2022-09-13T12:59:13Z</time>
      </trkpt>
      <trkpt lat="47.86561" lon="6.81244">
        <ele>681.1</ele>
        <time>2022-09-13T12:59:14Z</time>
      </trkpt>
      <trkpt lat="47.86563" lon="6.81241">
        <ele>681</ele>
        <time>2022-09-13T12:59:15Z</time>
      </trkpt>
      <trkpt lat="47.86565" lon="6.81239">
        <ele>681.2</ele>
        <time>2022-09-13T12:59:16Z</time>
      </trkpt>
      <trkpt lat="47.86567" lon="6.81236">
        <ele>681.2</ele>
        <time>2022-09-13T12:59:17Z</time>
      </trkpt>
      <trkpt lat="47.86568" lon="6.81233">
        <ele>680.8</ele>
        <time>2022-09-13T12:59:18Z</time>
      </trkpt>
      <trkpt lat="47.86571" lon="6.81229">
        <ele>681</ele>
        <time>2022-09-13T12:59:19Z</time>
      </trkpt>
      <trkpt lat="47.86572" lon="6.81227">
        <ele>680.9</ele>
        <time>2022-09-13T12:59:20Z</time>
      </trkpt>
      <trkpt lat="47.86573" lon="6.81224">
        <ele>680.6</ele>
        <time>2022-09-13T12:59:21Z</time>
      </trkpt>
      <trkpt lat="47.86575" lon="6.81221">
        <ele>680.9</ele>
        <time>2022-09-13T12:59:22Z</time>
      </trkpt>
      <trkpt lat="47.86576" lon="6.81218">
        <ele>680.8</ele>
        <time>2022-09-13T12:59:23Z</time>
      </trkpt>
      <trkpt lat="47.86577" lon="6.81215">
        <ele>680.7</ele>
        <time>2022-09-13T12:59:24Z</time>
      </trkpt>
      <trkpt lat="47.86578" lon="6.81212">
        <ele>680.6</ele>
        <time>2022-09-13T12:59:25Z</time>
      </trkpt>
      <trkpt lat="47.86579" lon="6.8121">
        <ele>680.7</ele>
        <time>2022-09-13T12:59:26Z</time>
      </trkpt>
      <trkpt lat="47.8658" lon="6.81207">
        <ele>680.6</ele>
        <time>2022-09-13T12:59:27Z</time>
      </trkpt>
      <trkpt lat="47.86581" lon="6.81206">
        <ele>680.9</ele>
        <time>2022-09-13T12:59:28Z</time>
      </trkpt>
      <trkpt lat="47.86582" lon="6.81204">
        <ele>681.1</ele>
        <time>2022-09-13T12:59:29Z</time>
      </trkpt>
      <trkpt lat="47.86583" lon="6.81201">
        <ele>681</ele>
        <time>2022-09-13T12:59:30Z</time>
      </trkpt>
      <trkpt lat="47.86584" lon="6.812">
        <ele>681.1</ele>
        <time>2022-09-13T12:59:31Z</time>
      </trkpt>
      <trkpt lat="47.86585" lon="6.81198">
        <ele>681</ele>
        <time>2022-09-13T12:59:32Z</time>
      </trkpt>
      <trkpt lat="47.86586" lon="6.81197">
        <ele>681</ele>
        <time>2022-09-13T12:59:33Z</time>
      </trkpt>
      <trkpt lat="47.86588" lon="6.81195">
        <ele>680.9</ele>
        <time>2022-09-13T12:59:34Z</time>
      </trkpt>
      <trkpt lat="47.8659" lon="6.81193">
        <ele>680.7</ele>
        <time>2022-09-13T12:59:35Z</time>
      </trkpt>
      <trkpt lat="47.86592" lon="6.81191">
        <ele>680.4</ele>
        <time>2022-09-13T12:59:36Z</time>
      </trkpt>
      <trkpt lat="47.86594" lon="6.81189">
        <ele>680.2</ele>
        <time>2022-09-13T12:59:37Z</time>
      </trkpt>
      <trkpt lat="47.86595" lon="6.81188">
        <ele>680.1</ele>
        <time>2022-09-13T12:59:38Z</time>
      </trkpt>
      <trkpt lat="47.86597" lon="6.81186">
        <ele>680</ele>
        <time>2022-09-13T12:59:39Z</time>
      </trkpt>
      <trkpt lat="47.86599" lon="6.81185">
        <ele>680.2</ele>
        <time>2022-09-13T12:59:40Z</time>
      </trkpt>
      <trkpt lat="47.86601" lon="6.81183">
        <ele>680.2</ele>
        <time>2022-09-13T12:59:41Z</time>
      </trkpt>
      <trkpt lat="47.86603" lon="6.81182">
        <ele>680.5</ele>
        <time>2022-09-13T12:59:42Z</time>
      </trkpt>
      <trkpt lat="47.86606" lon="6.81181">
        <ele>681.1</ele>
        <time>2022-09-13T12:59:43Z</time>
      </trkpt>
      <trkpt lat="47.86608" lon="6.81179">
        <ele>681.3</ele>
        <time>2022-09-13T12:59:44Z</time>
      </trkpt>
      <trkpt lat="47.8661" lon="6.81178">
        <ele>681.7</ele>
        <time>2022-09-13T12:59:45Z</time>
      </trkpt>
      <trkpt lat="47.86613" lon="6.81176">
        <ele>682</ele>
        <time>2022-09-13T12:59:46Z</time>
      </trkpt>
      <trkpt lat="47.86615" lon="6.81175">
        <ele>682</ele>
        <time>2022-09-13T12:59:47Z</time>
      </trkpt>
      <trkpt lat="47.8662" lon="6.81173">
        <ele>682.2</ele>
        <time>2022-09-13T12:59:48Z</time>
      </trkpt>
      <trkpt lat="47.86623" lon="6.81171">
        <ele>682</ele>
        <time>2022-09-13T12:59:49Z</time>
      </trkpt>
      <trkpt lat="47.86626" lon="6.81169">
        <ele>681.8</ele>
        <time>2022-09-13T12:59:50Z</time>
      </trkpt>
      <trkpt lat="47.86628" lon="6.81167">
        <ele>681.3</ele>
        <time>2022-09-13T12:59:51Z</time>
      </trkpt>
      <trkpt lat="47.86631" lon="6.81164">
        <ele>680.7</ele>
        <time>2022-09-13T12:59:52Z</time>
      </trkpt>
      <trkpt lat="47.86633" lon="6.81162">
        <ele>680.4</ele>
        <time>2022-09-13T12:59:53Z</time>
      </trkpt>
      <trkpt lat="47.86636" lon="6.81159">
        <ele>680</ele>
        <time>2022-09-13T12:59:54Z</time>
      </trkpt>
      <trkpt lat="47.86638" lon="6.81157">
        <ele>679.8</ele>
        <time>2022-09-13T12:59:55Z</time>
      </trkpt>
      <trkpt lat="47.8664" lon="6.81154">
        <ele>679.7</ele>
        <time>2022-09-13T12:59:56Z</time>
      </trkpt>
      <trkpt lat="47.86642" lon="6.81151">
        <ele>679.8</ele>
        <time>2022-09-13T12:59:57Z</time>
      </trkpt>
      <trkpt lat="47.86644" lon="6.81149">
        <ele>680.1</ele>
        <time>2022-09-13T12:59:58Z</time>
      </trkpt>
      <trkpt lat="47.86646" lon="6.81146">
        <ele>680.3</ele>
        <time>2022-09-13T12:59:59Z</time>
      </trkpt>
      <trkpt lat="47.86649" lon="6.81143">
        <ele>680.8</ele>
        <time>2022-09-13T13:00:00Z</time>
      </trkpt>
      <trkpt lat="47.86651" lon="6.8114">
        <ele>681</ele>
        <time>2022-09-13T13:00:01Z</time>
      </trkpt>
      <trkpt lat="47.86653" lon="6.81137">
        <ele>681.3</ele>
        <time>2022-09-13T13:00:02Z</time>
      </trkpt>
      <trkpt lat="47.86654" lon="6.81134">
        <ele>681.2</ele>
        <time>2022-09-13T13:00:03Z</time>
      </trkpt>
      <trkpt lat="47.86656" lon="6.81131">
        <ele>681.5</ele>
        <time>2022-09-13T13:00:04Z</time>
      </trkpt>
      <trkpt lat="47.86657" lon="6.81129">
        <ele>681.5</ele>
        <time>2022-09-13T13:00:05Z</time>
      </trkpt>
      <trkpt lat="47.86658" lon="6.81127">
        <ele>681.6</ele>
        <time>2022-09-13T13:00:06Z</time>
      </trkpt>
      <trkpt lat="47.8666" lon="6.81125">
        <ele>682</ele>
        <time>2022-09-13T13:00:07Z</time>
      </trkpt>
      <trkpt lat="47.86662" lon="6.81122">
        <ele>682.2</ele>
        <time>2022-09-13T13:00:08Z</time>
      </trkpt>
      <trkpt lat="47.86663" lon="6.81119">
        <ele>682.1</ele>
        <time>2022-09-13T13:00:09Z</time>
      </trkpt>
      <trkpt lat="47.86666" lon="6.81114">
        <ele>682.3</ele>
        <time>2022-09-13T13:00:10Z</time>
      </trkpt>
      <trkpt lat="47.86668" lon="6.8111">
        <ele>682.2</ele>
        <time>2022-09-13T13:00:11Z</time>
      </trkpt>
      <trkpt lat="47.8667" lon="6.81107">
        <ele>682.3</ele>
        <time>2022-09-13T13:00:12Z</time>
      </trkpt>
      <trkpt lat="47.86672" lon="6.81104">
        <ele>682.4</ele>
        <time>2022-09-13T13:00:13Z</time>
      </trkpt>
      <trkpt lat="47.86674" lon="6.81101">
        <ele>682.6</ele>
        <time>2022-09-13T13:00:14Z</time>
      </trkpt>
      <trkpt lat="47.86676" lon="6.81098">
        <ele>682.8</ele>
        <time>2022-09-13T13:00:15Z</time>
      </trkpt>
      <trkpt lat="47.86677" lon="6.81097">
        <ele>683</ele>
        <time>2022-09-13T13:00:16Z</time>
      </trkpt>
      <trkpt lat="47.86678" lon="6.81095">
        <ele>683.1</ele>
        <time>2022-09-13T13:00:17Z</time>
      </trkpt>
      <trkpt lat="47.8668" lon="6.81092">
        <ele>683.4</ele>
        <time>2022-09-13T13:00:18Z</time>
      </trkpt>
      <trkpt lat="47.86681" lon="6.81089">
        <ele>683.4</ele>
        <time>2022-09-13T13:00:19Z</time>
      </trkpt>
      <trkpt lat="47.86682" lon="6.81086">
        <ele>683.4</ele>
        <time>2022-09-13T13:00:20Z</time>
      </trkpt>
      <trkpt lat="47.86684" lon="6.81083">
        <ele>683.8</ele>
        <time>2022-09-13T13:00:21Z</time>
      </trkpt>
      <trkpt lat="47.86685" lon="6.8108">
        <ele>684</ele>
        <time>2022-09-13T13:00:22Z</time>
      </trkpt>
      <trkpt lat="47.86687" lon="6.81077">
        <ele>684.6</ele>
        <time>2022-09-13T13:00:23Z</time>
      </trkpt>
      <trkpt lat="47.86688" lon="6.81074">
        <ele>684.8</ele>
        <time>2022-09-13T13:00:24Z</time>
      </trkpt>
      <trkpt lat="47.8669" lon="6.81071">
        <ele>685.4</ele>
        <time>2022-09-13T13:00:25Z</time>
      </trkpt>
      <trkpt lat="47.86692" lon="6.81065">
        <ele>685.7</ele>
        <time>2022-09-13T13:00:26Z</time>
      </trkpt>
      <trkpt lat="47.86693" lon="6.81063">
        <ele>686</ele>
        <time>2022-09-13T13:00:27Z</time>
      </trkpt>
      <trkpt lat="47.86695" lon="6.81058">
        <ele>686.3</ele>
        <time>2022-09-13T13:00:28Z</time>
      </trkpt>
      <trkpt lat="47.86697" lon="6.81055">
        <ele>686.7</ele>
        <time>2022-09-13T13:00:29Z</time>
      </trkpt>
      <trkpt lat="47.86698" lon="6.81053">
        <ele>686.7</ele>
        <time>2022-09-13T13:00:30Z</time>
      </trkpt>
      <trkpt lat="47.86699" lon="6.8105">
        <ele>686.5</ele>
        <time>2022-09-13T13:00:31Z</time>
      </trkpt>
      <trkpt lat="47.867" lon="6.81047">
        <ele>686.4</ele>
        <time>2022-09-13T13:00:32Z</time>
      </trkpt>
      <trkpt lat="47.86702" lon="6.81042">
        <ele>686.2</ele>
        <time>2022-09-13T13:00:33Z</time>
      </trkpt>
      <trkpt lat="47.86704" lon="6.81038">
        <ele>686.2</ele>
        <time>2022-09-13T13:00:34Z</time>
      </trkpt>
      <trkpt lat="47.86706" lon="6.81035">
        <ele>686.4</ele>
        <time>2022-09-13T13:00:35Z</time>
      </trkpt>
      <trkpt lat="47.86707" lon="6.81033">
        <ele>686.4</ele>
        <time>2022-09-13T13:00:36Z</time>
      </trkpt>
      <trkpt lat="47.86708" lon="6.8103">
        <ele>686.2</ele>
        <time>2022-09-13T13:00:37Z</time>
      </trkpt>
      <trkpt lat="47.8671" lon="6.81028">
        <ele>686.5</ele>
        <time>2022-09-13T13:00:38Z</time>
      </trkpt>
      <trkpt lat="47.86711" lon="6.81025">
        <ele>686.3</ele>
        <time>2022-09-13T13:00:39Z</time>
      </trkpt>
      <trkpt lat="47.86714" lon="6.8102">
        <ele>686.3</ele>
        <time>2022-09-13T13:00:40Z</time>
      </trkpt>
      <trkpt lat="47.86715" lon="6.81018">
        <ele>686.3</ele>
        <time>2022-09-13T13:00:41Z</time>
      </trkpt>
      <trkpt lat="47.86717" lon="6.81016">
        <ele>686.5</ele>
        <time>2022-09-13T13:00:42Z</time>
      </trkpt>
      <trkpt lat="47.86718" lon="6.81013">
        <ele>686.2</ele>
        <time>2022-09-13T13:00:43Z</time>
      </trkpt>
      <trkpt lat="47.8672" lon="6.81011">
        <ele>686.4</ele>
        <time>2022-09-13T13:00:44Z</time>
      </trkpt>
      <trkpt lat="47.86723" lon="6.81009">
        <ele>686.7</ele>
        <time>2022-09-13T13:00:45Z</time>
      </trkpt>
      <trkpt lat="47.86725" lon="6.81007">
        <ele>686.5</ele>
        <time>2022-09-13T13:00:46Z</time>
      </trkpt>
      <trkpt lat="47.86727" lon="6.81004">
        <ele>686.2</ele>
        <time>2022-09-13T13:00:47Z</time>
      </trkpt>
      <trkpt lat="47.86729" lon="6.81002">
        <ele>686.1</ele>
        <time>2022-09-13T13:00:48Z</time>
      </trkpt>
      <trkpt lat="47.86731" lon="6.81">
        <ele>685.9</ele>
        <time>2022-09-13T13:00:49Z</time>
      </trkpt>
      <trkpt lat="47.86734" lon="6.80999">
        <ele>686.1</ele>
        <time>2022-09-13T13:00:50Z</time>
      </trkpt>
      <trkpt lat="47.86737" lon="6.80998">
        <ele>686.2</ele>
        <time>2022-09-13T13:00:51Z</time>
      </trkpt>
      <trkpt lat="47.86739" lon="6.80998">
        <ele>686.5</ele>
        <time>2022-09-13T13:00:52Z</time>
      </trkpt>
      <trkpt lat="47.86744" lon="6.80998">
        <ele>687</ele>
        <time>2022-09-13T13:00:53Z</time>
      </trkpt>
      <trkpt lat="47.86747" lon="6.80998">
        <ele>687.3</ele>
        <time>2022-09-13T13:00:54Z</time>
      </trkpt>
      <trkpt lat="47.86749" lon="6.80999">
        <ele>687.7</ele>
        <time>2022-09-13T13:00:55Z</time>
      </trkpt>
      <trkpt lat="47.86752" lon="6.81">
        <ele>687.9</ele>
        <time>2022-09-13T13:00:56Z</time>
      </trkpt>
      <trkpt lat="47.86755" lon="6.81002">
        <ele>687.8</ele>
        <time>2022-09-13T13:00:57Z</time>
      </trkpt>
      <trkpt lat="47.86758" lon="6.81003">
        <ele>687.7</ele>
        <time>2022-09-13T13:00:58Z</time>
      </trkpt>
      <trkpt lat="47.8676" lon="6.81005">
        <ele>687.8</ele>
        <time>2022-09-13T13:00:59Z</time>
      </trkpt>
      <trkpt lat="47.86763" lon="6.81006">
        <ele>687.6</ele>
        <time>2022-09-13T13:01:00Z</time>
      </trkpt>
      <trkpt lat="47.86765" lon="6.81008">
        <ele>687.6</ele>
        <time>2022-09-13T13:01:01Z</time>
      </trkpt>
      <trkpt lat="47.86767" lon="6.8101">
        <ele>687.6</ele>
        <time>2022-09-13T13:01:02Z</time>
      </trkpt>
      <trkpt lat="47.8677" lon="6.81013">
        <ele>687.6</ele>
        <time>2022-09-13T13:01:03Z</time>
      </trkpt>
      <trkpt lat="47.86772" lon="6.81015">
        <ele>687.6</ele>
        <time>2022-09-13T13:01:04Z</time>
      </trkpt>
      <trkpt lat="47.86774" lon="6.81017">
        <ele>687.6</ele>
        <time>2022-09-13T13:01:05Z</time>
      </trkpt>
      <trkpt lat="47.86777" lon="6.8102">
        <ele>687.5</ele>
        <time>2022-09-13T13:01:06Z</time>
      </trkpt>
      <trkpt lat="47.86779" lon="6.81022">
        <ele>687.5</ele>
        <time>2022-09-13T13:01:07Z</time>
      </trkpt>
      <trkpt lat="47.86781" lon="6.81025">
        <ele>687.5</ele>
        <time>2022-09-13T13:01:08Z</time>
      </trkpt>
      <trkpt lat="47.86784" lon="6.81028">
        <ele>687.3</ele>
        <time>2022-09-13T13:01:09Z</time>
      </trkpt>
      <trkpt lat="47.86786" lon="6.81032">
        <ele>687.4</ele>
        <time>2022-09-13T13:01:10Z</time>
      </trkpt>
      <trkpt lat="47.86788" lon="6.81035">
        <ele>687.3</ele>
        <time>2022-09-13T13:01:11Z</time>
      </trkpt>
      <trkpt lat="47.8679" lon="6.81038">
        <ele>687.3</ele>
        <time>2022-09-13T13:01:12Z</time>
      </trkpt>
      <trkpt lat="47.86792" lon="6.81041">
        <ele>687.2</ele>
        <time>2022-09-13T13:01:13Z</time>
      </trkpt>
      <trkpt lat="47.86794" lon="6.81044">
        <ele>687.1</ele>
        <time>2022-09-13T13:01:14Z</time>
      </trkpt>
      <trkpt lat="47.86796" lon="6.81047">
        <ele>687</ele>
        <time>2022-09-13T13:01:15Z</time>
      </trkpt>
      <trkpt lat="47.86797" lon="6.81048">
        <ele>686.9</ele>
        <time>2022-09-13T13:01:16Z</time>
      </trkpt>
      <trkpt lat="47.86798" lon="6.8105">
        <ele>686.8</ele>
        <time>2022-09-13T13:01:17Z</time>
      </trkpt>
      <trkpt lat="47.86799" lon="6.81052">
        <ele>686.8</ele>
        <time>2022-09-13T13:01:18Z</time>
      </trkpt>
      <trkpt lat="47.868" lon="6.81053">
        <ele>686.7</ele>
        <time>2022-09-13T13:01:19Z</time>
      </trkpt>
      <trkpt lat="47.86801" lon="6.81054">
        <ele>686.6</ele>
        <time>2022-09-13T13:01:56Z</time>
      </trkpt>
      <trkpt lat="47.86802" lon="6.81055">
        <ele>686.5</ele>
        <time>2022-09-13T13:01:57Z</time>
      </trkpt>
      <trkpt lat="47.86802" lon="6.81056">
        <ele>686.6</ele>
        <time>2022-09-13T13:01:58Z</time>
      </trkpt>
      <trkpt lat="47.86803" lon="6.81057">
        <ele>686.5</ele>
        <time>2022-09-13T13:01:59Z</time>
      </trkpt>
      <trkpt lat="47.86804" lon="6.81058">
        <ele>686.5</ele>
        <time>2022-09-13T13:02:00Z</time>
      </trkpt>
      <trkpt lat="47.86805" lon="6.8106">
        <ele>686.6</ele>
        <time>2022-09-13T13:02:01Z</time>
      </trkpt>
      <trkpt lat="47.86806" lon="6.81062">
        <ele>686.6</ele>
        <time>2022-09-13T13:02:02Z</time>
      </trkpt>
      <trkpt lat="47.86807" lon="6.81065">
        <ele>686.7</ele>
        <time>2022-09-13T13:02:03Z</time>
      </trkpt>
      <trkpt lat="47.86809" lon="6.81067">
        <ele>686.4</ele>
        <time>2022-09-13T13:02:04Z</time>
      </trkpt>
      <trkpt lat="47.86811" lon="6.8107">
        <ele>686.3</ele>
        <time>2022-09-13T13:02:05Z</time>
      </trkpt>
      <trkpt lat="47.86812" lon="6.81073">
        <ele>686.4</ele>
        <time>2022-09-13T13:02:06Z</time>
      </trkpt>
      <trkpt lat="47.86814" lon="6.81076">
        <ele>686.3</ele>
        <time>2022-09-13T13:02:07Z</time>
      </trkpt>
      <trkpt lat="47.86815" lon="6.81079">
        <ele>686.4</ele>
        <time>2022-09-13T13:02:08Z</time>
      </trkpt>
      <trkpt lat="47.86816" lon="6.81082">
        <ele>686.6</ele>
        <time>2022-09-13T13:02:09Z</time>
      </trkpt>
      <trkpt lat="47.86818" lon="6.81085">
        <ele>686.4</ele>
        <time>2022-09-13T13:02:10Z</time>
      </trkpt>
      <trkpt lat="47.86819" lon="6.81089">
        <ele>686.4</ele>
        <time>2022-09-13T13:02:11Z</time>
      </trkpt>
      <trkpt lat="47.86821" lon="6.81092">
        <ele>686.1</ele>
        <time>2022-09-13T13:02:12Z</time>
      </trkpt>
      <trkpt lat="47.86822" lon="6.81095">
        <ele>686.1</ele>
        <time>2022-09-13T13:02:13Z</time>
      </trkpt>
      <trkpt lat="47.86825" lon="6.81101">
        <ele>685.9</ele>
        <time>2022-09-13T13:02:14Z</time>
      </trkpt>
      <trkpt lat="47.86826" lon="6.81105">
        <ele>685.9</ele>
        <time>2022-09-13T13:02:15Z</time>
      </trkpt>
      <trkpt lat="47.86828" lon="6.81108">
        <ele>685.8</ele>
        <time>2022-09-13T13:02:16Z</time>
      </trkpt>
      <trkpt lat="47.8683" lon="6.81112">
        <ele>685.8</ele>
        <time>2022-09-13T13:02:17Z</time>
      </trkpt>
      <trkpt lat="47.86832" lon="6.81115">
        <ele>685.9</ele>
        <time>2022-09-13T13:02:18Z</time>
      </trkpt>
      <trkpt lat="47.86834" lon="6.81118">
        <ele>686.1</ele>
        <time>2022-09-13T13:02:19Z</time>
      </trkpt>
      <trkpt lat="47.86835" lon="6.81121">
        <ele>686.4</ele>
        <time>2022-09-13T13:02:20Z</time>
      </trkpt>
      <trkpt lat="47.86837" lon="6.81124">
        <ele>686.4</ele>
        <time>2022-09-13T13:02:21Z</time>
      </trkpt>
      <trkpt lat="47.86839" lon="6.81127">
        <ele>686.4</ele>
        <time>2022-09-13T13:02:22Z</time>
      </trkpt>
      <trkpt lat="47.8684" lon="6.81129">
        <ele>686.5</ele>
        <time>2022-09-13T13:02:23Z</time>
      </trkpt>
      <trkpt lat="47.86841" lon="6.81131">
        <ele>686.6</ele>
        <time>2022-09-13T13:02:24Z</time>
      </trkpt>
      <trkpt lat="47.86843" lon="6.81134">
        <ele>686.7</ele>
        <time>2022-09-13T13:02:25Z</time>
      </trkpt>
      <trkpt lat="47.86846" lon="6.81139">
        <ele>686.8</ele>
        <time>2022-09-13T13:02:26Z</time>
      </trkpt>
      <trkpt lat="47.86848" lon="6.81142">
        <ele>686.7</ele>
        <time>2022-09-13T13:02:27Z</time>
      </trkpt>
      <trkpt lat="47.86849" lon="6.81145">
        <ele>686.8</ele>
        <time>2022-09-13T13:02:28Z</time>
      </trkpt>
      <trkpt lat="47.86851" lon="6.81149">
        <ele>686.9</ele>
        <time>2022-09-13T13:02:29Z</time>
      </trkpt>
      <trkpt lat="47.86853" lon="6.81151">
        <ele>686.7</ele>
        <time>2022-09-13T13:02:30Z</time>
      </trkpt>
      <trkpt lat="47.86854" lon="6.81153">
        <ele>686.7</ele>
        <time>2022-09-13T13:02:31Z</time>
      </trkpt>
      <trkpt lat="47.86855" lon="6.81155">
        <ele>686.7</ele>
        <time>2022-09-13T13:02:32Z</time>
      </trkpt>
      <trkpt lat="47.86857" lon="6.81158">
        <ele>686.7</ele>
        <time>2022-09-13T13:02:33Z</time>
      </trkpt>
      <trkpt lat="47.86858" lon="6.8116">
        <ele>686.7</ele>
        <time>2022-09-13T13:02:34Z</time>
      </trkpt>
      <trkpt lat="47.8686" lon="6.81163">
        <ele>686.7</ele>
        <time>2022-09-13T13:02:35Z</time>
      </trkpt>
      <trkpt lat="47.86862" lon="6.81165">
        <ele>686.6</ele>
        <time>2022-09-13T13:02:36Z</time>
      </trkpt>
      <trkpt lat="47.86863" lon="6.81168">
        <ele>686.9</ele>
        <time>2022-09-13T13:02:37Z</time>
      </trkpt>
      <trkpt lat="47.86865" lon="6.81171">
        <ele>687.2</ele>
        <time>2022-09-13T13:02:38Z</time>
      </trkpt>
      <trkpt lat="47.86867" lon="6.81174">
        <ele>687.5</ele>
        <time>2022-09-13T13:02:39Z</time>
      </trkpt>
      <trkpt lat="47.86868" lon="6.81177">
        <ele>687.9</ele>
        <time>2022-09-13T13:02:40Z</time>
      </trkpt>
      <trkpt lat="47.8687" lon="6.81181">
        <ele>688.3</ele>
        <time>2022-09-13T13:02:41Z</time>
      </trkpt>
      <trkpt lat="47.86872" lon="6.81184">
        <ele>688.5</ele>
        <time>2022-09-13T13:02:42Z</time>
      </trkpt>
      <trkpt lat="47.86873" lon="6.81187">
        <ele>688.9</ele>
        <time>2022-09-13T13:02:43Z</time>
      </trkpt>
      <trkpt lat="47.86875" lon="6.8119">
        <ele>689.1</ele>
        <time>2022-09-13T13:02:44Z</time>
      </trkpt>
      <trkpt lat="47.86877" lon="6.81195">
        <ele>689.7</ele>
        <time>2022-09-13T13:02:45Z</time>
      </trkpt>
      <trkpt lat="47.86879" lon="6.81199">
        <ele>689.9</ele>
        <time>2022-09-13T13:02:46Z</time>
      </trkpt>
      <trkpt lat="47.86879" lon="6.81201">
        <ele>690.2</ele>
        <time>2022-09-13T13:02:47Z</time>
      </trkpt>
      <trkpt lat="47.8688" lon="6.81204">
        <ele>690.4</ele>
        <time>2022-09-13T13:02:48Z</time>
      </trkpt>
      <trkpt lat="47.86881" lon="6.81206">
        <ele>690.5</ele>
        <time>2022-09-13T13:02:49Z</time>
      </trkpt>
      <trkpt lat="47.86883" lon="6.81209">
        <ele>690.5</ele>
        <time>2022-09-13T13:02:50Z</time>
      </trkpt>
      <trkpt lat="47.86885" lon="6.81212">
        <ele>690.5</ele>
        <time>2022-09-13T13:02:51Z</time>
      </trkpt>
      <trkpt lat="47.86886" lon="6.81215">
        <ele>690.7</ele>
        <time>2022-09-13T13:02:52Z</time>
      </trkpt>
      <trkpt lat="47.8689" lon="6.8122">
        <ele>690.6</ele>
        <time>2022-09-13T13:02:53Z</time>
      </trkpt>
      <trkpt lat="47.86893" lon="6.81223">
        <ele>690.9</ele>
        <time>2022-09-13T13:02:54Z</time>
      </trkpt>
      <trkpt lat="47.86896" lon="6.81225">
        <ele>691.1</ele>
        <time>2022-09-13T13:02:55Z</time>
      </trkpt>
      <trkpt lat="47.86898" lon="6.81227">
        <ele>691.2</ele>
        <time>2022-09-13T13:02:56Z</time>
      </trkpt>
      <trkpt lat="47.86899" lon="6.81228">
        <ele>691.3</ele>
        <time>2022-09-13T13:02:57Z</time>
      </trkpt>
      <trkpt lat="47.86901" lon="6.81229">
        <ele>691.4</ele>
        <time>2022-09-13T13:02:58Z</time>
      </trkpt>
      <trkpt lat="47.86902" lon="6.81229">
        <ele>691.4</ele>
        <time>2022-09-13T13:02:59Z</time>
      </trkpt>
      <trkpt lat="47.86904" lon="6.8123">
        <ele>691.4</ele>
        <time>2022-09-13T13:03:00Z</time>
      </trkpt>
      <trkpt lat="47.86906" lon="6.81232">
        <ele>691.7</ele>
        <time>2022-09-13T13:03:01Z</time>
      </trkpt>
      <trkpt lat="47.86908" lon="6.81233">
        <ele>691.7</ele>
        <time>2022-09-13T13:03:02Z</time>
      </trkpt>
      <trkpt lat="47.8691" lon="6.81235">
        <ele>692</ele>
        <time>2022-09-13T13:03:03Z</time>
      </trkpt>
      <trkpt lat="47.86912" lon="6.81238">
        <ele>692.3</ele>
        <time>2022-09-13T13:03:04Z</time>
      </trkpt>
      <trkpt lat="47.86916" lon="6.81241">
        <ele>692.7</ele>
        <time>2022-09-13T13:03:05Z</time>
      </trkpt>
      <trkpt lat="47.86918" lon="6.81244">
        <ele>693</ele>
        <time>2022-09-13T13:03:06Z</time>
      </trkpt>
      <trkpt lat="47.8692" lon="6.81247">
        <ele>693.1</ele>
        <time>2022-09-13T13:03:07Z</time>
      </trkpt>
      <trkpt lat="47.86921" lon="6.81249">
        <ele>693.2</ele>
        <time>2022-09-13T13:03:08Z</time>
      </trkpt>
      <trkpt lat="47.86922" lon="6.81251">
        <ele>693.3</ele>
        <time>2022-09-13T13:03:09Z</time>
      </trkpt>
      <trkpt lat="47.86924" lon="6.81254">
        <ele>693.3</ele>
        <time>2022-09-13T13:03:10Z</time>
      </trkpt>
      <trkpt lat="47.86925" lon="6.81257">
        <ele>693.5</ele>
        <time>2022-09-13T13:03:11Z</time>
      </trkpt>
      <trkpt lat="47.86926" lon="6.81261">
        <ele>693.7</ele>
        <time>2022-09-13T13:03:12Z</time>
      </trkpt>
      <trkpt lat="47.86928" lon="6.81267">
        <ele>694</ele>
        <time>2022-09-13T13:03:13Z</time>
      </trkpt>
      <trkpt lat="47.86928" lon="6.81269">
        <ele>694.1</ele>
        <time>2022-09-13T13:03:14Z</time>
      </trkpt>
      <trkpt lat="47.86929" lon="6.81272">
        <ele>694.2</ele>
        <time>2022-09-13T13:03:15Z</time>
      </trkpt>
      <trkpt lat="47.8693" lon="6.81275">
        <ele>694.3</ele>
        <time>2022-09-13T13:03:16Z</time>
      </trkpt>
      <trkpt lat="47.86931" lon="6.81278">
        <ele>694.4</ele>
        <time>2022-09-13T13:03:17Z</time>
      </trkpt>
      <trkpt lat="47.86932" lon="6.81282">
        <ele>694.8</ele>
        <time>2022-09-13T13:03:18Z</time>
      </trkpt>
      <trkpt lat="47.86933" lon="6.81286">
        <ele>695.1</ele>
        <time>2022-09-13T13:03:19Z</time>
      </trkpt>
      <trkpt lat="47.86933" lon="6.81289">
        <ele>695.5</ele>
        <time>2022-09-13T13:03:20Z</time>
      </trkpt>
      <trkpt lat="47.86935" lon="6.81292">
        <ele>695.6</ele>
        <time>2022-09-13T13:03:21Z</time>
      </trkpt>
      <trkpt lat="47.86936" lon="6.81295">
        <ele>695.8</ele>
        <time>2022-09-13T13:03:22Z</time>
      </trkpt>
      <trkpt lat="47.86937" lon="6.81298">
        <ele>696.1</ele>
        <time>2022-09-13T13:03:23Z</time>
      </trkpt>
      <trkpt lat="47.86939" lon="6.81301">
        <ele>696.2</ele>
        <time>2022-09-13T13:03:24Z</time>
      </trkpt>
      <trkpt lat="47.8694" lon="6.81304">
        <ele>696.4</ele>
        <time>2022-09-13T13:03:25Z</time>
      </trkpt>
      <trkpt lat="47.86942" lon="6.81307">
        <ele>696.6</ele>
        <time>2022-09-13T13:03:26Z</time>
      </trkpt>
      <trkpt lat="47.86944" lon="6.8131">
        <ele>696.7</ele>
        <time>2022-09-13T13:03:27Z</time>
      </trkpt>
      <trkpt lat="47.86945" lon="6.81313">
        <ele>696.9</ele>
        <time>2022-09-13T13:03:28Z</time>
      </trkpt>
      <trkpt lat="47.86947" lon="6.81315">
        <ele>696.4</ele>
        <time>2022-09-13T13:03:29Z</time>
      </trkpt>
      <trkpt lat="47.86948" lon="6.81318">
        <ele>696.4</ele>
        <time>2022-09-13T13:03:30Z</time>
      </trkpt>
      <trkpt lat="47.8695" lon="6.81321">
        <ele>696.1</ele>
        <time>2022-09-13T13:03:31Z</time>
      </trkpt>
      <trkpt lat="47.86951" lon="6.81323">
        <ele>696.1</ele>
        <time>2022-09-13T13:03:32Z</time>
      </trkpt>
      <trkpt lat="47.86951" lon="6.81326">
        <ele>696.5</ele>
        <time>2022-09-13T13:03:33Z</time>
      </trkpt>
      <trkpt lat="47.86952" lon="6.81329">
        <ele>696.6</ele>
        <time>2022-09-13T13:03:34Z</time>
      </trkpt>
      <trkpt lat="47.86953" lon="6.81332">
        <ele>696.7</ele>
        <time>2022-09-13T13:03:35Z</time>
      </trkpt>
      <trkpt lat="47.86953" lon="6.81335">
        <ele>697.2</ele>
        <time>2022-09-13T13:03:36Z</time>
      </trkpt>
      <trkpt lat="47.86952" lon="6.81338">
        <ele>697.9</ele>
        <time>2022-09-13T13:03:37Z</time>
      </trkpt>
      <trkpt lat="47.86951" lon="6.81341">
        <ele>698.7</ele>
        <time>2022-09-13T13:03:38Z</time>
      </trkpt>
      <trkpt lat="47.8695" lon="6.81344">
        <ele>699.4</ele>
        <time>2022-09-13T13:03:39Z</time>
      </trkpt>
      <trkpt lat="47.86949" lon="6.81346">
        <ele>700</ele>
        <time>2022-09-13T13:03:40Z</time>
      </trkpt>
      <trkpt lat="47.86947" lon="6.81348">
        <ele>700.8</ele>
        <time>2022-09-13T13:03:41Z</time>
      </trkpt>
      <trkpt lat="47.86945" lon="6.81349">
        <ele>701.5</ele>
        <time>2022-09-13T13:03:42Z</time>
      </trkpt>
      <trkpt lat="47.86943" lon="6.81351">
        <ele>702</ele>
        <time>2022-09-13T13:03:43Z</time>
      </trkpt>
      <trkpt lat="47.86941" lon="6.81352">
        <ele>702.3</ele>
        <time>2022-09-13T13:03:44Z</time>
      </trkpt>
      <trkpt lat="47.86939" lon="6.81352">
        <ele>702.5</ele>
        <time>2022-09-13T13:03:45Z</time>
      </trkpt>
      <trkpt lat="47.86937" lon="6.81353">
        <ele>702.8</ele>
        <time>2022-09-13T13:03:46Z</time>
      </trkpt>
      <trkpt lat="47.86935" lon="6.81353">
        <ele>703</ele>
        <time>2022-09-13T13:03:47Z</time>
      </trkpt>
      <trkpt lat="47.86932" lon="6.81353">
        <ele>703.3</ele>
        <time>2022-09-13T13:03:48Z</time>
      </trkpt>
      <trkpt lat="47.8693" lon="6.81353">
        <ele>703.5</ele>
        <time>2022-09-13T13:03:49Z</time>
      </trkpt>
      <trkpt lat="47.86928" lon="6.81353">
        <ele>703.7</ele>
        <time>2022-09-13T13:03:50Z</time>
      </trkpt>
      <trkpt lat="47.86926" lon="6.81353">
        <ele>703.9</ele>
        <time>2022-09-13T13:03:51Z</time>
      </trkpt>
      <trkpt lat="47.86924" lon="6.81352">
        <ele>704</ele>
        <time>2022-09-13T13:03:52Z</time>
      </trkpt>
      <trkpt lat="47.86921" lon="6.81352">
        <ele>704.3</ele>
        <time>2022-09-13T13:03:53Z</time>
      </trkpt>
      <trkpt lat="47.86919" lon="6.81351">
        <ele>704.3</ele>
        <time>2022-09-13T13:03:54Z</time>
      </trkpt>
      <trkpt lat="47.86918" lon="6.81351">
        <ele>704.4</ele>
        <time>2022-09-13T13:03:55Z</time>
      </trkpt>
      <trkpt lat="47.86916" lon="6.8135">
        <ele>704.5</ele>
        <time>2022-09-13T13:03:56Z</time>
      </trkpt>
      <trkpt lat="47.86914" lon="6.8135">
        <ele>704.7</ele>
        <time>2022-09-13T13:03:57Z</time>
      </trkpt>
      <trkpt lat="47.86912" lon="6.81349">
        <ele>704.8</ele>
        <time>2022-09-13T13:03:58Z</time>
      </trkpt>
      <trkpt lat="47.8691" lon="6.81348">
        <ele>704.8</ele>
        <time>2022-09-13T13:03:59Z</time>
      </trkpt>
      <trkpt lat="47.86908" lon="6.81348">
        <ele>705</ele>
        <time>2022-09-13T13:04:00Z</time>
      </trkpt>
      <trkpt lat="47.86906" lon="6.81347">
        <ele>705.1</ele>
        <time>2022-09-13T13:04:01Z</time>
      </trkpt>
      <trkpt lat="47.86903" lon="6.81347">
        <ele>705.4</ele>
        <time>2022-09-13T13:04:02Z</time>
      </trkpt>
      <trkpt lat="47.86901" lon="6.81347">
        <ele>705.7</ele>
        <time>2022-09-13T13:04:03Z</time>
      </trkpt>
      <trkpt lat="47.86899" lon="6.81346">
        <ele>705.7</ele>
        <time>2022-09-13T13:04:04Z</time>
      </trkpt>
      <trkpt lat="47.86896" lon="6.81345">
        <ele>705.9</ele>
        <time>2022-09-13T13:04:05Z</time>
      </trkpt>
      <trkpt lat="47.86894" lon="6.81344">
        <ele>706</ele>
        <time>2022-09-13T13:04:06Z</time>
      </trkpt>
      <trkpt lat="47.86892" lon="6.81343">
        <ele>706.1</ele>
        <time>2022-09-13T13:04:07Z</time>
      </trkpt>
      <trkpt lat="47.8689" lon="6.81341">
        <ele>706</ele>
        <time>2022-09-13T13:04:08Z</time>
      </trkpt>
      <trkpt lat="47.86888" lon="6.8134">
        <ele>706.2</ele>
        <time>2022-09-13T13:04:09Z</time>
      </trkpt>
      <trkpt lat="47.86886" lon="6.81339">
        <ele>706.5</ele>
        <time>2022-09-13T13:04:10Z</time>
      </trkpt>
      <trkpt lat="47.86884" lon="6.81338">
        <ele>706.9</ele>
        <time>2022-09-13T13:04:11Z</time>
      </trkpt>
      <trkpt lat="47.86882" lon="6.81337">
        <ele>707.3</ele>
        <time>2022-09-13T13:04:12Z</time>
      </trkpt>
      <trkpt lat="47.8688" lon="6.81336">
        <ele>707.6</ele>
        <time>2022-09-13T13:04:13Z</time>
      </trkpt>
      <trkpt lat="47.86878" lon="6.81334">
        <ele>707.8</ele>
        <time>2022-09-13T13:04:14Z</time>
      </trkpt>
      <trkpt lat="47.86876" lon="6.81333">
        <ele>708.2</ele>
        <time>2022-09-13T13:04:15Z</time>
      </trkpt>
      <trkpt lat="47.86874" lon="6.81331">
        <ele>708.4</ele>
        <time>2022-09-13T13:04:16Z</time>
      </trkpt>
      <trkpt lat="47.86872" lon="6.81329">
        <ele>708.6</ele>
        <time>2022-09-13T13:04:17Z</time>
      </trkpt>
      <trkpt lat="47.8687" lon="6.81327">
        <ele>708.8</ele>
        <time>2022-09-13T13:04:18Z</time>
      </trkpt>
      <trkpt lat="47.86868" lon="6.81326">
        <ele>709.2</ele>
        <time>2022-09-13T13:04:19Z</time>
      </trkpt>
      <trkpt lat="47.86867" lon="6.81324">
        <ele>709.2</ele>
        <time>2022-09-13T13:04:20Z</time>
      </trkpt>
      <trkpt lat="47.86865" lon="6.81322">
        <ele>709.4</ele>
        <time>2022-09-13T13:04:21Z</time>
      </trkpt>
      <trkpt lat="47.86863" lon="6.8132">
        <ele>709.6</ele>
        <time>2022-09-13T13:04:22Z</time>
      </trkpt>
      <trkpt lat="47.86861" lon="6.81318">
        <ele>709.8</ele>
        <time>2022-09-13T13:04:23Z</time>
      </trkpt>
      <trkpt lat="47.86859" lon="6.81317">
        <ele>709.9</ele>
        <time>2022-09-13T13:04:24Z</time>
      </trkpt>
      <trkpt lat="47.86857" lon="6.81316">
        <ele>710.1</ele>
        <time>2022-09-13T13:04:25Z</time>
      </trkpt>
      <trkpt lat="47.86855" lon="6.81315">
        <ele>710.2</ele>
        <time>2022-09-13T13:04:26Z</time>
      </trkpt>
      <trkpt lat="47.86853" lon="6.81314">
        <ele>710.3</ele>
        <time>2022-09-13T13:04:27Z</time>
      </trkpt>
      <trkpt lat="47.86851" lon="6.81314">
        <ele>710.5</ele>
        <time>2022-09-13T13:04:28Z</time>
      </trkpt>
      <trkpt lat="47.86849" lon="6.81313">
        <ele>710.6</ele>
        <time>2022-09-13T13:04:29Z</time>
      </trkpt>
      <trkpt lat="47.86847" lon="6.81312">
        <ele>710.7</ele>
        <time>2022-09-13T13:04:30Z</time>
      </trkpt>
      <trkpt lat="47.86845" lon="6.81311">
        <ele>710.8</ele>
        <time>2022-09-13T13:04:31Z</time>
      </trkpt>
      <trkpt lat="47.86843" lon="6.81311">
        <ele>711</ele>
        <time>2022-09-13T13:04:32Z</time>
      </trkpt>
      <trkpt lat="47.86841" lon="6.81311">
        <ele>711.2</ele>
        <time>2022-09-13T13:04:33Z</time>
      </trkpt>
      <trkpt lat="47.86839" lon="6.8131">
        <ele>711.3</ele>
        <time>2022-09-13T13:04:34Z</time>
      </trkpt>
      <trkpt lat="47.86837" lon="6.8131">
        <ele>711.5</ele>
        <time>2022-09-13T13:04:35Z</time>
      </trkpt>
      <trkpt lat="47.86835" lon="6.8131">
        <ele>711.8</ele>
        <time>2022-09-13T13:04:36Z</time>
      </trkpt>
      <trkpt lat="47.86832" lon="6.81309">
        <ele>712</ele>
        <time>2022-09-13T13:04:37Z</time>
      </trkpt>
      <trkpt lat="47.8683" lon="6.81309">
        <ele>712.3</ele>
        <time>2022-09-13T13:04:38Z</time>
      </trkpt>
      <trkpt lat="47.86828" lon="6.81309">
        <ele>712.7</ele>
        <time>2022-09-13T13:04:39Z</time>
      </trkpt>
      <trkpt lat="47.86826" lon="6.81308">
        <ele>712.8</ele>
        <time>2022-09-13T13:04:40Z</time>
      </trkpt>
      <trkpt lat="47.86824" lon="6.81308">
        <ele>713.1</ele>
        <time>2022-09-13T13:04:41Z</time>
      </trkpt>
      <trkpt lat="47.86822" lon="6.81307">
        <ele>713.3</ele>
        <time>2022-09-13T13:04:42Z</time>
      </trkpt>
      <trkpt lat="47.86819" lon="6.81307">
        <ele>713.8</ele>
        <time>2022-09-13T13:04:43Z</time>
      </trkpt>
      <trkpt lat="47.86817" lon="6.81307">
        <ele>714.2</ele>
        <time>2022-09-13T13:04:44Z</time>
      </trkpt>
      <trkpt lat="47.86815" lon="6.81306">
        <ele>714.4</ele>
        <time>2022-09-13T13:04:45Z</time>
      </trkpt>
      <trkpt lat="47.86813" lon="6.81306">
        <ele>714.7</ele>
        <time>2022-09-13T13:04:46Z</time>
      </trkpt>
      <trkpt lat="47.86812" lon="6.81305">
        <ele>714.8</ele>
        <time>2022-09-13T13:04:47Z</time>
      </trkpt>
      <trkpt lat="47.8681" lon="6.81304">
        <ele>715</ele>
        <time>2022-09-13T13:04:48Z</time>
      </trkpt>
      <trkpt lat="47.86809" lon="6.81304">
        <ele>715.1</ele>
        <time>2022-09-13T13:04:49Z</time>
      </trkpt>
      <trkpt lat="47.86807" lon="6.81303">
        <ele>715.4</ele>
        <time>2022-09-13T13:04:50Z</time>
      </trkpt>
      <trkpt lat="47.86805" lon="6.81302">
        <ele>715.6</ele>
        <time>2022-09-13T13:04:51Z</time>
      </trkpt>
      <trkpt lat="47.86803" lon="6.81301">
        <ele>715.9</ele>
        <time>2022-09-13T13:04:52Z</time>
      </trkpt>
      <trkpt lat="47.86801" lon="6.813">
        <ele>716.2</ele>
        <time>2022-09-13T13:04:53Z</time>
      </trkpt>
      <trkpt lat="47.868" lon="6.81299">
        <ele>716.3</ele>
        <time>2022-09-13T13:04:54Z</time>
      </trkpt>
      <trkpt lat="47.86798" lon="6.81298">
        <ele>716.5</ele>
        <time>2022-09-13T13:04:55Z</time>
      </trkpt>
      <trkpt lat="47.86797" lon="6.81297">
        <ele>716.6</ele>
        <time>2022-09-13T13:04:56Z</time>
      </trkpt>
      <trkpt lat="47.86795" lon="6.81296">
        <ele>716.9</ele>
        <time>2022-09-13T13:04:57Z</time>
      </trkpt>
      <trkpt lat="47.86793" lon="6.81295">
        <ele>717.2</ele>
        <time>2022-09-13T13:04:58Z</time>
      </trkpt>
      <trkpt lat="47.86792" lon="6.81294">
        <ele>717.3</ele>
        <time>2022-09-13T13:04:59Z</time>
      </trkpt>
      <trkpt lat="47.8679" lon="6.81293">
        <ele>717.6</ele>
        <time>2022-09-13T13:05:00Z</time>
      </trkpt>
      <trkpt lat="47.86788" lon="6.81292">
        <ele>717.8</ele>
        <time>2022-09-13T13:05:01Z</time>
      </trkpt>
      <trkpt lat="47.86787" lon="6.81291">
        <ele>717.9</ele>
        <time>2022-09-13T13:05:02Z</time>
      </trkpt>
      <trkpt lat="47.86785" lon="6.81289">
        <ele>718.1</ele>
        <time>2022-09-13T13:05:03Z</time>
      </trkpt>
      <trkpt lat="47.86783" lon="6.81288">
        <ele>718.3</ele>
        <time>2022-09-13T13:05:04Z</time>
      </trkpt>
      <trkpt lat="47.86781" lon="6.81287">
        <ele>718.6</ele>
        <time>2022-09-13T13:05:05Z</time>
      </trkpt>
      <trkpt lat="47.86779" lon="6.81285">
        <ele>718.8</ele>
        <time>2022-09-13T13:05:06Z</time>
      </trkpt>
      <trkpt lat="47.86777" lon="6.81284">
        <ele>719</ele>
        <time>2022-09-13T13:05:07Z</time>
      </trkpt>
      <trkpt lat="47.86776" lon="6.81283">
        <ele>719.1</ele>
        <time>2022-09-13T13:05:08Z</time>
      </trkpt>
      <trkpt lat="47.86774" lon="6.81282">
        <ele>719.3</ele>
        <time>2022-09-13T13:05:09Z</time>
      </trkpt>
      <trkpt lat="47.86772" lon="6.81281">
        <ele>719.5</ele>
        <time>2022-09-13T13:05:10Z</time>
      </trkpt>
      <trkpt lat="47.8677" lon="6.81279">
        <ele>719.6</ele>
        <time>2022-09-13T13:05:11Z</time>
      </trkpt>
      <trkpt lat="47.86768" lon="6.81278">
        <ele>719.8</ele>
        <time>2022-09-13T13:05:12Z</time>
      </trkpt>
      <trkpt lat="47.86766" lon="6.81277">
        <ele>720</ele>
        <time>2022-09-13T13:05:13Z</time>
      </trkpt>
      <trkpt lat="47.86764" lon="6.81275">
        <ele>720.1</ele>
        <time>2022-09-13T13:05:14Z</time>
      </trkpt>
      <trkpt lat="47.86762" lon="6.81273">
        <ele>720.1</ele>
        <time>2022-09-13T13:05:15Z</time>
      </trkpt>
      <trkpt lat="47.8676" lon="6.81272">
        <ele>720.3</ele>
        <time>2022-09-13T13:05:16Z</time>
      </trkpt>
      <trkpt lat="47.86758" lon="6.8127">
        <ele>720.3</ele>
        <time>2022-09-13T13:05:17Z</time>
      </trkpt>
      <trkpt lat="47.86756" lon="6.81269">
        <ele>720.5</ele>
        <time>2022-09-13T13:05:18Z</time>
      </trkpt>
      <trkpt lat="47.86754" lon="6.81268">
        <ele>720.6</ele>
        <time>2022-09-13T13:05:19Z</time>
      </trkpt>
      <trkpt lat="47.86752" lon="6.81267">
        <ele>720.8</ele>
        <time>2022-09-13T13:05:20Z</time>
      </trkpt>
      <trkpt lat="47.86751" lon="6.81267">
        <ele>720.9</ele>
        <time>2022-09-13T13:05:21Z</time>
      </trkpt>
      <trkpt lat="47.86749" lon="6.81266">
        <ele>721</ele>
        <time>2022-09-13T13:05:22Z</time>
      </trkpt>
      <trkpt lat="47.86746" lon="6.81265">
        <ele>721.1</ele>
        <time>2022-09-13T13:05:23Z</time>
      </trkpt>
      <trkpt lat="47.86741" lon="6.81263">
        <ele>721.2</ele>
        <time>2022-09-13T13:05:24Z</time>
      </trkpt>
      <trkpt lat="47.86738" lon="6.81261">
        <ele>721.1</ele>
        <time>2022-09-13T13:05:25Z</time>
      </trkpt>
      <trkpt lat="47.86735" lon="6.8126">
        <ele>721.2</ele>
        <time>2022-09-13T13:05:26Z</time>
      </trkpt>
      <trkpt lat="47.86732" lon="6.81259">
        <ele>721.4</ele>
        <time>2022-09-13T13:05:27Z</time>
      </trkpt>
      <trkpt lat="47.86729" lon="6.81258">
        <ele>721.5</ele>
        <time>2022-09-13T13:05:28Z</time>
      </trkpt>
      <trkpt lat="47.86726" lon="6.81258">
        <ele>721.8</ele>
        <time>2022-09-13T13:05:29Z</time>
      </trkpt>
      <trkpt lat="47.86724" lon="6.81258">
        <ele>722</ele>
        <time>2022-09-13T13:05:30Z</time>
      </trkpt>
      <trkpt lat="47.86722" lon="6.81258">
        <ele>722.2</ele>
        <time>2022-09-13T13:05:31Z</time>
      </trkpt>
      <trkpt lat="47.8672" lon="6.81257">
        <ele>722.1</ele>
        <time>2022-09-13T13:05:32Z</time>
      </trkpt>
      <trkpt lat="47.86718" lon="6.81257">
        <ele>722.2</ele>
        <time>2022-09-13T13:05:33Z</time>
      </trkpt>
      <trkpt lat="47.86716" lon="6.81256">
        <ele>722.1</ele>
        <time>2022-09-13T13:05:34Z</time>
      </trkpt>
      <trkpt lat="47.86714" lon="6.81256">
        <ele>722.2</ele>
        <time>2022-09-13T13:05:35Z</time>
      </trkpt>
      <trkpt lat="47.86712" lon="6.81256">
        <ele>722.2</ele>
        <time>2022-09-13T13:05:36Z</time>
      </trkpt>
      <trkpt lat="47.8671" lon="6.81256">
        <ele>722.3</ele>
        <time>2022-09-13T13:05:37Z</time>
      </trkpt>
      <trkpt lat="47.86709" lon="6.81255">
        <ele>722.2</ele>
        <time>2022-09-13T13:05:38Z</time>
      </trkpt>
      <trkpt lat="47.86708" lon="6.81255">
        <ele>722.2</ele>
        <time>2022-09-13T13:05:39Z</time>
      </trkpt>
      <trkpt lat="47.86706" lon="6.81256">
        <ele>722.4</ele>
        <time>2022-09-13T13:05:40Z</time>
      </trkpt>
      <trkpt lat="47.86704" lon="6.81256">
        <ele>722.5</ele>
        <time>2022-09-13T13:05:41Z</time>
      </trkpt>
      <trkpt lat="47.86702" lon="6.81256">
        <ele>722.6</ele>
        <time>2022-09-13T13:05:42Z</time>
      </trkpt>
      <trkpt lat="47.867" lon="6.81257">
        <ele>722.8</ele>
        <time>2022-09-13T13:05:43Z</time>
      </trkpt>
      <trkpt lat="47.86697" lon="6.81258">
        <ele>723.1</ele>
        <time>2022-09-13T13:05:44Z</time>
      </trkpt>
      <trkpt lat="47.86695" lon="6.81259">
        <ele>723.3</ele>
        <time>2022-09-13T13:05:45Z</time>
      </trkpt>
      <trkpt lat="47.86693" lon="6.8126">
        <ele>723.2</ele>
        <time>2022-09-13T13:05:46Z</time>
      </trkpt>
      <trkpt lat="47.86691" lon="6.81262">
        <ele>723.3</ele>
        <time>2022-09-13T13:05:47Z</time>
      </trkpt>
      <trkpt lat="47.86689" lon="6.81264">
        <ele>723.3</ele>
        <time>2022-09-13T13:05:48Z</time>
      </trkpt>
      <trkpt lat="47.86688" lon="6.81266">
        <ele>723.5</ele>
        <time>2022-09-13T13:05:49Z</time>
      </trkpt>
      <trkpt lat="47.86686" lon="6.81268">
        <ele>723.7</ele>
        <time>2022-09-13T13:05:50Z</time>
      </trkpt>
      <trkpt lat="47.86684" lon="6.81269">
        <ele>723.6</ele>
        <time>2022-09-13T13:05:51Z</time>
      </trkpt>
      <trkpt lat="47.86683" lon="6.8127">
        <ele>723.7</ele>
        <time>2022-09-13T13:05:52Z</time>
      </trkpt>
      <trkpt lat="47.86682" lon="6.81271">
        <ele>723.8</ele>
        <time>2022-09-13T13:05:53Z</time>
      </trkpt>
      <trkpt lat="47.8668" lon="6.81272">
        <ele>723.8</ele>
        <time>2022-09-13T13:05:54Z</time>
      </trkpt>
      <trkpt lat="47.86679" lon="6.81273">
        <ele>723.9</ele>
        <time>2022-09-13T13:05:55Z</time>
      </trkpt>
      <trkpt lat="47.86677" lon="6.81275">
        <ele>724.2</ele>
        <time>2022-09-13T13:05:56Z</time>
      </trkpt>
      <trkpt lat="47.86675" lon="6.81277">
        <ele>724.4</ele>
        <time>2022-09-13T13:05:57Z</time>
      </trkpt>
      <trkpt lat="47.86674" lon="6.81278">
        <ele>724.6</ele>
        <time>2022-09-13T13:05:58Z</time>
      </trkpt>
      <trkpt lat="47.86673" lon="6.81279">
        <ele>724.6</ele>
        <time>2022-09-13T13:05:59Z</time>
      </trkpt>
      <trkpt lat="47.86672" lon="6.81281">
        <ele>724.8</ele>
        <time>2022-09-13T13:06:00Z</time>
      </trkpt>
      <trkpt lat="47.86671" lon="6.81283">
        <ele>724.9</ele>
        <time>2022-09-13T13:06:01Z</time>
      </trkpt>
      <trkpt lat="47.86671" lon="6.81285">
        <ele>725.1</ele>
        <time>2022-09-13T13:06:02Z</time>
      </trkpt>
      <trkpt lat="47.8667" lon="6.81288">
        <ele>725.4</ele>
        <time>2022-09-13T13:06:03Z</time>
      </trkpt>
      <trkpt lat="47.86669" lon="6.8129">
        <ele>725.5</ele>
        <time>2022-09-13T13:06:04Z</time>
      </trkpt>
      <trkpt lat="47.86669" lon="6.81292">
        <ele>725.7</ele>
        <time>2022-09-13T13:06:05Z</time>
      </trkpt>
      <trkpt lat="47.86668" lon="6.81295">
        <ele>726</ele>
        <time>2022-09-13T13:06:06Z</time>
      </trkpt>
      <trkpt lat="47.86667" lon="6.81298">
        <ele>726.2</ele>
        <time>2022-09-13T13:06:07Z</time>
      </trkpt>
      <trkpt lat="47.86666" lon="6.81301">
        <ele>726.4</ele>
        <time>2022-09-13T13:06:08Z</time>
      </trkpt>
      <trkpt lat="47.86665" lon="6.81304">
        <ele>726.7</ele>
        <time>2022-09-13T13:06:09Z</time>
      </trkpt>
      <trkpt lat="47.86664" lon="6.81306">
        <ele>726.9</ele>
        <time>2022-09-13T13:06:10Z</time>
      </trkpt>
      <trkpt lat="47.86663" lon="6.81309">
        <ele>727.2</ele>
        <time>2022-09-13T13:06:11Z</time>
      </trkpt>
      <trkpt lat="47.86662" lon="6.81312">
        <ele>727.6</ele>
        <time>2022-09-13T13:06:12Z</time>
      </trkpt>
      <trkpt lat="47.86661" lon="6.81314">
        <ele>727.7</ele>
        <time>2022-09-13T13:06:13Z</time>
      </trkpt>
      <trkpt lat="47.8666" lon="6.81317">
        <ele>728.1</ele>
        <time>2022-09-13T13:06:14Z</time>
      </trkpt>
      <trkpt lat="47.86659" lon="6.81319">
        <ele>728.3</ele>
        <time>2022-09-13T13:06:15Z</time>
      </trkpt>
      <trkpt lat="47.86657" lon="6.81321">
        <ele>728.3</ele>
        <time>2022-09-13T13:06:16Z</time>
      </trkpt>
      <trkpt lat="47.86656" lon="6.81324">
        <ele>728.6</ele>
        <time>2022-09-13T13:06:17Z</time>
      </trkpt>
      <trkpt lat="47.86656" lon="6.81326">
        <ele>728.9</ele>
        <time>2022-09-13T13:06:18Z</time>
      </trkpt>
      <trkpt lat="47.86655" lon="6.81329">
        <ele>729.2</ele>
        <time>2022-09-13T13:06:19Z</time>
      </trkpt>
      <trkpt lat="47.86655" lon="6.81332">
        <ele>729.6</ele>
        <time>2022-09-13T13:06:20Z</time>
      </trkpt>
      <trkpt lat="47.86655" lon="6.81333">
        <ele>729.7</ele>
        <time>2022-09-13T13:06:21Z</time>
      </trkpt>
      <trkpt lat="47.86654" lon="6.81336">
        <ele>729.9</ele>
        <time>2022-09-13T13:06:22Z</time>
      </trkpt>
      <trkpt lat="47.86655" lon="6.81338">
        <ele>730.2</ele>
        <time>2022-09-13T13:06:23Z</time>
      </trkpt>
      <trkpt lat="47.86655" lon="6.8134">
        <ele>730.5</ele>
        <time>2022-09-13T13:06:24Z</time>
      </trkpt>
      <trkpt lat="47.86656" lon="6.81342">
        <ele>730.8</ele>
        <time>2022-09-13T13:06:25Z</time>
      </trkpt>
      <trkpt lat="47.86657" lon="6.81344">
        <ele>731.1</ele>
        <time>2022-09-13T13:06:26Z</time>
      </trkpt>
      <trkpt lat="47.86658" lon="6.81345">
        <ele>731.3</ele>
        <time>2022-09-13T13:06:27Z</time>
      </trkpt>
      <trkpt lat="47.86659" lon="6.81346">
        <ele>731.5</ele>
        <time>2022-09-13T13:06:28Z</time>
      </trkpt>
      <trkpt lat="47.8666" lon="6.81347">
        <ele>731.8</ele>
        <time>2022-09-13T13:06:29Z</time>
      </trkpt>
      <trkpt lat="47.86661" lon="6.81347">
        <ele>731.9</ele>
        <time>2022-09-13T13:06:30Z</time>
      </trkpt>
      <trkpt lat="47.86663" lon="6.81347">
        <ele>732.1</ele>
        <time>2022-09-13T13:06:31Z</time>
      </trkpt>
      <trkpt lat="47.86664" lon="6.81347">
        <ele>732.2</ele>
        <time>2022-09-13T13:06:32Z</time>
      </trkpt>
      <trkpt lat="47.86666" lon="6.81347">
        <ele>732.4</ele>
        <time>2022-09-13T13:06:33Z</time>
      </trkpt>
      <trkpt lat="47.86667" lon="6.81347">
        <ele>732.5</ele>
        <time>2022-09-13T13:06:34Z</time>
      </trkpt>
      <trkpt lat="47.86669" lon="6.81346">
        <ele>732.7</ele>
        <time>2022-09-13T13:06:35Z</time>
      </trkpt>
      <trkpt lat="47.8667" lon="6.81345">
        <ele>732.7</ele>
        <time>2022-09-13T13:06:36Z</time>
      </trkpt>
      <trkpt lat="47.86672" lon="6.81344">
        <ele>732.8</ele>
        <time>2022-09-13T13:06:37Z</time>
      </trkpt>
      <trkpt lat="47.86673" lon="6.81342">
        <ele>732.7</ele>
        <time>2022-09-13T13:06:38Z</time>
      </trkpt>
      <trkpt lat="47.86674" lon="6.81341">
        <ele>732.6</ele>
        <time>2022-09-13T13:06:39Z</time>
      </trkpt>
      <trkpt lat="47.86676" lon="6.8134">
        <ele>732.7</ele>
        <time>2022-09-13T13:06:40Z</time>
      </trkpt>
      <trkpt lat="47.86677" lon="6.81339">
        <ele>732.7</ele>
        <time>2022-09-13T13:06:41Z</time>
      </trkpt>
      <trkpt lat="47.86679" lon="6.81339">
        <ele>732.9</ele>
        <time>2022-09-13T13:06:42Z</time>
      </trkpt>
      <trkpt lat="47.86681" lon="6.81339">
        <ele>733.1</ele>
        <time>2022-09-13T13:06:43Z</time>
      </trkpt>
      <trkpt lat="47.86684" lon="6.81338">
        <ele>733.2</ele>
        <time>2022-09-13T13:06:44Z</time>
      </trkpt>
      <trkpt lat="47.86686" lon="6.81338">
        <ele>733.4</ele>
        <time>2022-09-13T13:06:45Z</time>
      </trkpt>
      <trkpt lat="47.86688" lon="6.81337">
        <ele>733.3</ele>
        <time>2022-09-13T13:06:46Z</time>
      </trkpt>
      <trkpt lat="47.86689" lon="6.81337">
        <ele>733.4</ele>
        <time>2022-09-13T13:06:47Z</time>
      </trkpt>
      <trkpt lat="47.86691" lon="6.81337">
        <ele>733.6</ele>
        <time>2022-09-13T13:06:48Z</time>
      </trkpt>
      <trkpt lat="47.86693" lon="6.81338">
        <ele>734</ele>
        <time>2022-09-13T13:06:49Z</time>
      </trkpt>
      <trkpt lat="47.86694" lon="6.81338">
        <ele>734.1</ele>
        <time>2022-09-13T13:06:50Z</time>
      </trkpt>
      <trkpt lat="47.86696" lon="6.81339">
        <ele>734.5</ele>
        <time>2022-09-13T13:06:51Z</time>
      </trkpt>
      <trkpt lat="47.86699" lon="6.81339">
        <ele>734.7</ele>
        <time>2022-09-13T13:06:52Z</time>
      </trkpt>
      <trkpt lat="47.86701" lon="6.8134">
        <ele>735.1</ele>
        <time>2022-09-13T13:06:53Z</time>
      </trkpt>
      <trkpt lat="47.86703" lon="6.81341">
        <ele>735.5</ele>
        <time>2022-09-13T13:06:54Z</time>
      </trkpt>
      <trkpt lat="47.86705" lon="6.81341">
        <ele>735.6</ele>
        <time>2022-09-13T13:06:55Z</time>
      </trkpt>
      <trkpt lat="47.86706" lon="6.81342">
        <ele>735.9</ele>
        <time>2022-09-13T13:06:56Z</time>
      </trkpt>
      <trkpt lat="47.86708" lon="6.81343">
        <ele>736.2</ele>
        <time>2022-09-13T13:06:57Z</time>
      </trkpt>
      <trkpt lat="47.8671" lon="6.81344">
        <ele>736.6</ele>
        <time>2022-09-13T13:06:58Z</time>
      </trkpt>
      <trkpt lat="47.86712" lon="6.81346">
        <ele>737.2</ele>
        <time>2022-09-13T13:06:59Z</time>
      </trkpt>
      <trkpt lat="47.86715" lon="6.81347">
        <ele>737.6</ele>
        <time>2022-09-13T13:07:00Z</time>
      </trkpt>
      <trkpt lat="47.86717" lon="6.81349">
        <ele>738.1</ele>
        <time>2022-09-13T13:07:01Z</time>
      </trkpt>
      <trkpt lat="47.86719" lon="6.81351">
        <ele>738.7</ele>
        <time>2022-09-13T13:07:02Z</time>
      </trkpt>
      <trkpt lat="47.86721" lon="6.81354">
        <ele>739.4</ele>
        <time>2022-09-13T13:07:03Z</time>
      </trkpt>
      <trkpt lat="47.86722" lon="6.81356">
        <ele>739.9</ele>
        <time>2022-09-13T13:07:04Z</time>
      </trkpt>
      <trkpt lat="47.86724" lon="6.81359">
        <ele>740.2</ele>
        <time>2022-09-13T13:07:05Z</time>
      </trkpt>
      <trkpt lat="47.86726" lon="6.81361">
        <ele>740.3</ele>
        <time>2022-09-13T13:07:06Z</time>
      </trkpt>
      <trkpt lat="47.86727" lon="6.81364">
        <ele>740.6</ele>
        <time>2022-09-13T13:07:07Z</time>
      </trkpt>
      <trkpt lat="47.86728" lon="6.81366">
        <ele>740.8</ele>
        <time>2022-09-13T13:07:08Z</time>
      </trkpt>
      <trkpt lat="47.8673" lon="6.81368">
        <ele>740.8</ele>
        <time>2022-09-13T13:07:09Z</time>
      </trkpt>
      <trkpt lat="47.86731" lon="6.81371">
        <ele>741.1</ele>
        <time>2022-09-13T13:07:10Z</time>
      </trkpt>
      <trkpt lat="47.86732" lon="6.81373">
        <ele>741.2</ele>
        <time>2022-09-13T13:07:11Z</time>
      </trkpt>
      <trkpt lat="47.86732" lon="6.81375">
        <ele>741.6</ele>
        <time>2022-09-13T13:07:12Z</time>
      </trkpt>
      <trkpt lat="47.86734" lon="6.81378">
        <ele>741.7</ele>
        <time>2022-09-13T13:07:13Z</time>
      </trkpt>
      <trkpt lat="47.86734" lon="6.8138">
        <ele>742</ele>
        <time>2022-09-13T13:07:14Z</time>
      </trkpt>
      <trkpt lat="47.86735" lon="6.81382">
        <ele>742.1</ele>
        <time>2022-09-13T13:07:15Z</time>
      </trkpt>
      <trkpt lat="47.86735" lon="6.81384">
        <ele>742.4</ele>
        <time>2022-09-13T13:07:16Z</time>
      </trkpt>
      <trkpt lat="47.86736" lon="6.81387">
        <ele>742.7</ele>
        <time>2022-09-13T13:07:17Z</time>
      </trkpt>
      <trkpt lat="47.86737" lon="6.8139">
        <ele>743</ele>
        <time>2022-09-13T13:07:18Z</time>
      </trkpt>
      <trkpt lat="47.86737" lon="6.81393">
        <ele>743.5</ele>
        <time>2022-09-13T13:07:19Z</time>
      </trkpt>
      <trkpt lat="47.86738" lon="6.81396">
        <ele>743.9</ele>
        <time>2022-09-13T13:07:20Z</time>
      </trkpt>
      <trkpt lat="47.86739" lon="6.81398">
        <ele>744</ele>
        <time>2022-09-13T13:07:21Z</time>
      </trkpt>
      <trkpt lat="47.8674" lon="6.81401">
        <ele>744.3</ele>
        <time>2022-09-13T13:07:22Z</time>
      </trkpt>
      <trkpt lat="47.86741" lon="6.81404">
        <ele>744.7</ele>
        <time>2022-09-13T13:07:23Z</time>
      </trkpt>
      <trkpt lat="47.86742" lon="6.81406">
        <ele>744.8</ele>
        <time>2022-09-13T13:07:24Z</time>
      </trkpt>
      <trkpt lat="47.86744" lon="6.81409">
        <ele>744.9</ele>
        <time>2022-09-13T13:07:25Z</time>
      </trkpt>
      <trkpt lat="47.86745" lon="6.81411">
        <ele>745.1</ele>
        <time>2022-09-13T13:07:26Z</time>
      </trkpt>
      <trkpt lat="47.86747" lon="6.81414">
        <ele>745.2</ele>
        <time>2022-09-13T13:07:27Z</time>
      </trkpt>
      <trkpt lat="47.86748" lon="6.81416">
        <ele>745.3</ele>
        <time>2022-09-13T13:07:28Z</time>
      </trkpt>
      <trkpt lat="47.8675" lon="6.81418">
        <ele>745.3</ele>
        <time>2022-09-13T13:07:29Z</time>
      </trkpt>
      <trkpt lat="47.86751" lon="6.8142">
        <ele>745.7</ele>
        <time>2022-09-13T13:07:30Z</time>
      </trkpt>
      <trkpt lat="47.86753" lon="6.81422">
        <ele>746.1</ele>
        <time>2022-09-13T13:07:31Z</time>
      </trkpt>
      <trkpt lat="47.86754" lon="6.81423">
        <ele>746.2</ele>
        <time>2022-09-13T13:07:32Z</time>
      </trkpt>
      <trkpt lat="47.86755" lon="6.81423">
        <ele>746.1</ele>
        <time>2022-09-13T13:07:33Z</time>
      </trkpt>
      <trkpt lat="47.86756" lon="6.81424">
        <ele>746.3</ele>
        <time>2022-09-13T13:07:34Z</time>
      </trkpt>
      <trkpt lat="47.86758" lon="6.81425">
        <ele>746.4</ele>
        <time>2022-09-13T13:07:35Z</time>
      </trkpt>
      <trkpt lat="47.86759" lon="6.81426">
        <ele>746.6</ele>
        <time>2022-09-13T13:07:36Z</time>
      </trkpt>
      <trkpt lat="47.86761" lon="6.81427">
        <ele>746.7</ele>
        <time>2022-09-13T13:07:37Z</time>
      </trkpt>
      <trkpt lat="47.86763" lon="6.81428">
        <ele>746.8</ele>
        <time>2022-09-13T13:07:38Z</time>
      </trkpt>
      <trkpt lat="47.86765" lon="6.81429">
        <ele>747</ele>
        <time>2022-09-13T13:07:39Z</time>
      </trkpt>
      <trkpt lat="47.86767" lon="6.8143">
        <ele>747.1</ele>
        <time>2022-09-13T13:07:40Z</time>
      </trkpt>
      <trkpt lat="47.86769" lon="6.81431">
        <ele>747.3</ele>
        <time>2022-09-13T13:07:41Z</time>
      </trkpt>
      <trkpt lat="47.8677" lon="6.81432">
        <ele>747.5</ele>
        <time>2022-09-13T13:07:42Z</time>
      </trkpt>
      <trkpt lat="47.86772" lon="6.81433">
        <ele>747.7</ele>
        <time>2022-09-13T13:07:43Z</time>
      </trkpt>
      <trkpt lat="47.86774" lon="6.81434">
        <ele>747.9</ele>
        <time>2022-09-13T13:07:44Z</time>
      </trkpt>
      <trkpt lat="47.86776" lon="6.81435">
        <ele>748</ele>
        <time>2022-09-13T13:07:45Z</time>
      </trkpt>
      <trkpt lat="47.86777" lon="6.81435">
        <ele>748</ele>
        <time>2022-09-13T13:07:46Z</time>
      </trkpt>
      <trkpt lat="47.86778" lon="6.81436">
        <ele>748.3</ele>
        <time>2022-09-13T13:07:47Z</time>
      </trkpt>
      <trkpt lat="47.86779" lon="6.81436">
        <ele>748.2</ele>
        <time>2022-09-13T13:07:48Z</time>
      </trkpt>
      <trkpt lat="47.86781" lon="6.81436">
        <ele>748.1</ele>
        <time>2022-09-13T13:07:49Z</time>
      </trkpt>
      <trkpt lat="47.86782" lon="6.81436">
        <ele>748.1</ele>
        <time>2022-09-13T13:07:50Z</time>
      </trkpt>
      <trkpt lat="47.86784" lon="6.81436">
        <ele>748</ele>
        <time>2022-09-13T13:07:51Z</time>
      </trkpt>
      <trkpt lat="47.86786" lon="6.81437">
        <ele>748.3</ele>
        <time>2022-09-13T13:07:52Z</time>
      </trkpt>
      <trkpt lat="47.86788" lon="6.81439">
        <ele>748.9</ele>
        <time>2022-09-13T13:07:53Z</time>
      </trkpt>
      <trkpt lat="47.86791" lon="6.81441">
        <ele>749.6</ele>
        <time>2022-09-13T13:07:54Z</time>
      </trkpt>
      <trkpt lat="47.86793" lon="6.81442">
        <ele>750</ele>
        <time>2022-09-13T13:07:55Z</time>
      </trkpt>
      <trkpt lat="47.86794" lon="6.81444">
        <ele>750.8</ele>
        <time>2022-09-13T13:07:56Z</time>
      </trkpt>
      <trkpt lat="47.86796" lon="6.81445">
        <ele>751.1</ele>
        <time>2022-09-13T13:07:57Z</time>
      </trkpt>
      <trkpt lat="47.86797" lon="6.81447">
        <ele>751.6</ele>
        <time>2022-09-13T13:07:58Z</time>
      </trkpt>
      <trkpt lat="47.86799" lon="6.81449">
        <ele>752.1</ele>
        <time>2022-09-13T13:07:59Z</time>
      </trkpt>
      <trkpt lat="47.868" lon="6.81451">
        <ele>752.5</ele>
        <time>2022-09-13T13:08:00Z</time>
      </trkpt>
      <trkpt lat="47.86802" lon="6.81453">
        <ele>752.8</ele>
        <time>2022-09-13T13:08:01Z</time>
      </trkpt>
      <trkpt lat="47.86803" lon="6.81455">
        <ele>753.1</ele>
        <time>2022-09-13T13:08:02Z</time>
      </trkpt>
      <trkpt lat="47.86804" lon="6.81457">
        <ele>753.4</ele>
        <time>2022-09-13T13:08:03Z</time>
      </trkpt>
      <trkpt lat="47.86805" lon="6.81459">
        <ele>753.7</ele>
        <time>2022-09-13T13:08:04Z</time>
      </trkpt>
      <trkpt lat="47.86806" lon="6.81462">
        <ele>754</ele>
        <time>2022-09-13T13:08:05Z</time>
      </trkpt>
      <trkpt lat="47.86807" lon="6.81464">
        <ele>754.1</ele>
        <time>2022-09-13T13:08:06Z</time>
      </trkpt>
      <trkpt lat="47.86808" lon="6.81467">
        <ele>754.3</ele>
        <time>2022-09-13T13:08:07Z</time>
      </trkpt>
      <trkpt lat="47.86809" lon="6.81469">
        <ele>754.4</ele>
        <time>2022-09-13T13:08:08Z</time>
      </trkpt>
      <trkpt lat="47.8681" lon="6.81471">
        <ele>754.5</ele>
        <time>2022-09-13T13:08:09Z</time>
      </trkpt>
      <trkpt lat="47.86811" lon="6.81473">
        <ele>754.6</ele>
        <time>2022-09-13T13:08:10Z</time>
      </trkpt>
      <trkpt lat="47.86812" lon="6.81476">
        <ele>755.1</ele>
        <time>2022-09-13T13:08:11Z</time>
      </trkpt>
      <trkpt lat="47.86813" lon="6.81477">
        <ele>755</ele>
        <time>2022-09-13T13:08:12Z</time>
      </trkpt>
      <trkpt lat="47.86813" lon="6.81479">
        <ele>755.5</ele>
        <time>2022-09-13T13:08:13Z</time>
      </trkpt>
      <trkpt lat="47.86814" lon="6.81481">
        <ele>755.7</ele>
        <time>2022-09-13T13:08:14Z</time>
      </trkpt>
      <trkpt lat="47.86815" lon="6.81484">
        <ele>756.1</ele>
        <time>2022-09-13T13:08:15Z</time>
      </trkpt>
      <trkpt lat="47.86816" lon="6.81486">
        <ele>756.3</ele>
        <time>2022-09-13T13:08:16Z</time>
      </trkpt>
      <trkpt lat="47.86818" lon="6.81489">
        <ele>756.4</ele>
        <time>2022-09-13T13:08:17Z</time>
      </trkpt>
      <trkpt lat="47.86819" lon="6.81492">
        <ele>756.8</ele>
        <time>2022-09-13T13:08:18Z</time>
      </trkpt>
      <trkpt lat="47.8682" lon="6.81494">
        <ele>756.9</ele>
        <time>2022-09-13T13:08:19Z</time>
      </trkpt>
      <trkpt lat="47.86821" lon="6.81496">
        <ele>757.1</ele>
        <time>2022-09-13T13:08:20Z</time>
      </trkpt>
      <trkpt lat="47.86821" lon="6.81498">
        <ele>757.5</ele>
        <time>2022-09-13T13:08:21Z</time>
      </trkpt>
      <trkpt lat="47.86822" lon="6.815">
        <ele>757.7</ele>
        <time>2022-09-13T13:08:22Z</time>
      </trkpt>
      <trkpt lat="47.86823" lon="6.81502">
        <ele>758</ele>
        <time>2022-09-13T13:08:23Z</time>
      </trkpt>
      <trkpt lat="47.86824" lon="6.81504">
        <ele>758.4</ele>
        <time>2022-09-13T13:08:24Z</time>
      </trkpt>
      <trkpt lat="47.86825" lon="6.81506">
        <ele>758.7</ele>
        <time>2022-09-13T13:08:25Z</time>
      </trkpt>
      <trkpt lat="47.86826" lon="6.81508">
        <ele>759</ele>
        <time>2022-09-13T13:08:26Z</time>
      </trkpt>
      <trkpt lat="47.86827" lon="6.8151">
        <ele>759.4</ele>
        <time>2022-09-13T13:08:27Z</time>
      </trkpt>
      <trkpt lat="47.86829" lon="6.81512">
        <ele>759.4</ele>
        <time>2022-09-13T13:08:28Z</time>
      </trkpt>
      <trkpt lat="47.8683" lon="6.81513">
        <ele>759.3</ele>
        <time>2022-09-13T13:08:29Z</time>
      </trkpt>
      <trkpt lat="47.86831" lon="6.81515">
        <ele>759.7</ele>
        <time>2022-09-13T13:08:30Z</time>
      </trkpt>
      <trkpt lat="47.86832" lon="6.81517">
        <ele>760</ele>
        <time>2022-09-13T13:08:31Z</time>
      </trkpt>
      <trkpt lat="47.86833" lon="6.81519">
        <ele>760.3</ele>
        <time>2022-09-13T13:08:32Z</time>
      </trkpt>
      <trkpt lat="47.86835" lon="6.8152">
        <ele>760.1</ele>
        <time>2022-09-13T13:08:33Z</time>
      </trkpt>
      <trkpt lat="47.86836" lon="6.81522">
        <ele>760.6</ele>
        <time>2022-09-13T13:08:34Z</time>
      </trkpt>
      <trkpt lat="47.86837" lon="6.81523">
        <ele>760.7</ele>
        <time>2022-09-13T13:08:35Z</time>
      </trkpt>
      <trkpt lat="47.86838" lon="6.81525">
        <ele>761.1</ele>
        <time>2022-09-13T13:08:36Z</time>
      </trkpt>
      <trkpt lat="47.86839" lon="6.81527">
        <ele>761.5</ele>
        <time>2022-09-13T13:08:37Z</time>
      </trkpt>
      <trkpt lat="47.8684" lon="6.81528">
        <ele>761.6</ele>
        <time>2022-09-13T13:08:38Z</time>
      </trkpt>
      <trkpt lat="47.86842" lon="6.8153">
        <ele>761.7</ele>
        <time>2022-09-13T13:08:39Z</time>
      </trkpt>
      <trkpt lat="47.86843" lon="6.81532">
        <ele>762.1</ele>
        <time>2022-09-13T13:08:40Z</time>
      </trkpt>
      <trkpt lat="47.86844" lon="6.81534">
        <ele>762.4</ele>
        <time>2022-09-13T13:08:41Z</time>
      </trkpt>
      <trkpt lat="47.86845" lon="6.81536">
        <ele>762.7</ele>
        <time>2022-09-13T13:08:42Z</time>
      </trkpt>
      <trkpt lat="47.86846" lon="6.81537">
        <ele>762.8</ele>
        <time>2022-09-13T13:08:43Z</time>
      </trkpt>
      <trkpt lat="47.86847" lon="6.81539">
        <ele>763.1</ele>
        <time>2022-09-13T13:08:44Z</time>
      </trkpt>
      <trkpt lat="47.86849" lon="6.81542">
        <ele>763.4</ele>
        <time>2022-09-13T13:08:45Z</time>
      </trkpt>
      <trkpt lat="47.8685" lon="6.81544">
        <ele>763.7</ele>
        <time>2022-09-13T13:08:46Z</time>
      </trkpt>
      <trkpt lat="47.86851" lon="6.81547">
        <ele>764.3</ele>
        <time>2022-09-13T13:08:47Z</time>
      </trkpt>
      <trkpt lat="47.86853" lon="6.81549">
        <ele>764.3</ele>
        <time>2022-09-13T13:08:48Z</time>
      </trkpt>
      <trkpt lat="47.86854" lon="6.81551">
        <ele>764.6</ele>
        <time>2022-09-13T13:08:49Z</time>
      </trkpt>
      <trkpt lat="47.86855" lon="6.81553">
        <ele>764.9</ele>
        <time>2022-09-13T13:08:50Z</time>
      </trkpt>
      <trkpt lat="47.86856" lon="6.81556">
        <ele>765.4</ele>
        <time>2022-09-13T13:08:51Z</time>
      </trkpt>
      <trkpt lat="47.86857" lon="6.81558">
        <ele>765.6</ele>
        <time>2022-09-13T13:08:52Z</time>
      </trkpt>
      <trkpt lat="47.86857" lon="6.81559">
        <ele>765.8</ele>
        <time>2022-09-13T13:08:53Z</time>
      </trkpt>
      <trkpt lat="47.86858" lon="6.81561">
        <ele>766</ele>
        <time>2022-09-13T13:08:54Z</time>
      </trkpt>
      <trkpt lat="47.86859" lon="6.81563">
        <ele>766.2</ele>
        <time>2022-09-13T13:08:55Z</time>
      </trkpt>
      <trkpt lat="47.8686" lon="6.81565">
        <ele>766.3</ele>
        <time>2022-09-13T13:08:56Z</time>
      </trkpt>
      <trkpt lat="47.86861" lon="6.81567">
        <ele>766.5</ele>
        <time>2022-09-13T13:08:57Z</time>
      </trkpt>
      <trkpt lat="47.86863" lon="6.8157">
        <ele>766.4</ele>
        <time>2022-09-13T13:08:58Z</time>
      </trkpt>
      <trkpt lat="47.86864" lon="6.81572">
        <ele>766.5</ele>
        <time>2022-09-13T13:08:59Z</time>
      </trkpt>
      <trkpt lat="47.86866" lon="6.81574">
        <ele>766.1</ele>
        <time>2022-09-13T13:09:00Z</time>
      </trkpt>
      <trkpt lat="47.86866" lon="6.81576">
        <ele>766.5</ele>
        <time>2022-09-13T13:09:01Z</time>
      </trkpt>
      <trkpt lat="47.86867" lon="6.81578">
        <ele>766.6</ele>
        <time>2022-09-13T13:09:02Z</time>
      </trkpt>
      <trkpt lat="47.86868" lon="6.8158">
        <ele>766.6</ele>
        <time>2022-09-13T13:09:03Z</time>
      </trkpt>
      <trkpt lat="47.86869" lon="6.81583">
        <ele>766.8</ele>
        <time>2022-09-13T13:09:04Z</time>
      </trkpt>
      <trkpt lat="47.8687" lon="6.81584">
        <ele>766.6</ele>
        <time>2022-09-13T13:09:05Z</time>
      </trkpt>
      <trkpt lat="47.86871" lon="6.81586">
        <ele>766.7</ele>
        <time>2022-09-13T13:09:06Z</time>
      </trkpt>
      <trkpt lat="47.86872" lon="6.81588">
        <ele>766.8</ele>
        <time>2022-09-13T13:09:07Z</time>
      </trkpt>
      <trkpt lat="47.86873" lon="6.8159">
        <ele>766.9</ele>
        <time>2022-09-13T13:09:08Z</time>
      </trkpt>
      <trkpt lat="47.86874" lon="6.81593">
        <ele>767.2</ele>
        <time>2022-09-13T13:09:09Z</time>
      </trkpt>
      <trkpt lat="47.86875" lon="6.81595">
        <ele>767.2</ele>
        <time>2022-09-13T13:09:10Z</time>
      </trkpt>
      <trkpt lat="47.86876" lon="6.81597">
        <ele>767.3</ele>
        <time>2022-09-13T13:09:11Z</time>
      </trkpt>
      <trkpt lat="47.86877" lon="6.81599">
        <ele>767.3</ele>
        <time>2022-09-13T13:09:12Z</time>
      </trkpt>
      <trkpt lat="47.86878" lon="6.81603">
        <ele>767.8</ele>
        <time>2022-09-13T13:09:13Z</time>
      </trkpt>
      <trkpt lat="47.86879" lon="6.81605">
        <ele>767.9</ele>
        <time>2022-09-13T13:09:14Z</time>
      </trkpt>
      <trkpt lat="47.8688" lon="6.81608">
        <ele>768.1</ele>
        <time>2022-09-13T13:09:15Z</time>
      </trkpt>
      <trkpt lat="47.86881" lon="6.8161">
        <ele>768.2</ele>
        <time>2022-09-13T13:09:16Z</time>
      </trkpt>
      <trkpt lat="47.86882" lon="6.81613">
        <ele>768.4</ele>
        <time>2022-09-13T13:09:17Z</time>
      </trkpt>
      <trkpt lat="47.86883" lon="6.81614">
        <ele>768.2</ele>
        <time>2022-09-13T13:09:18Z</time>
      </trkpt>
      <trkpt lat="47.86883" lon="6.81616">
        <ele>768.7</ele>
        <time>2022-09-13T13:09:19Z</time>
      </trkpt>
      <trkpt lat="47.86884" lon="6.81618">
        <ele>768.8</ele>
        <time>2022-09-13T13:09:20Z</time>
      </trkpt>
      <trkpt lat="47.86885" lon="6.8162">
        <ele>768.9</ele>
        <time>2022-09-13T13:09:21Z</time>
      </trkpt>
      <trkpt lat="47.86887" lon="6.81623">
        <ele>768.8</ele>
        <time>2022-09-13T13:09:22Z</time>
      </trkpt>
      <trkpt lat="47.86888" lon="6.81625">
        <ele>768.9</ele>
        <time>2022-09-13T13:09:23Z</time>
      </trkpt>
      <trkpt lat="47.86889" lon="6.81628">
        <ele>769.2</ele>
        <time>2022-09-13T13:09:24Z</time>
      </trkpt>
      <trkpt lat="47.8689" lon="6.8163">
        <ele>769.3</ele>
        <time>2022-09-13T13:09:25Z</time>
      </trkpt>
      <trkpt lat="47.86891" lon="6.81633">
        <ele>769.5</ele>
        <time>2022-09-13T13:09:26Z</time>
      </trkpt>
      <trkpt lat="47.86893" lon="6.81635">
        <ele>769.1</ele>
        <time>2022-09-13T13:09:27Z</time>
      </trkpt>
      <trkpt lat="47.86894" lon="6.81637">
        <ele>769.1</ele>
        <time>2022-09-13T13:09:28Z</time>
      </trkpt>
      <trkpt lat="47.86895" lon="6.81639">
        <ele>769.2</ele>
        <time>2022-09-13T13:09:29Z</time>
      </trkpt>
      <trkpt lat="47.86896" lon="6.81641">
        <ele>769.2</ele>
        <time>2022-09-13T13:09:30Z</time>
      </trkpt>
      <trkpt lat="47.86897" lon="6.81642">
        <ele>769</ele>
        <time>2022-09-13T13:09:31Z</time>
      </trkpt>
      <trkpt lat="47.86898" lon="6.81645">
        <ele>769.2</ele>
        <time>2022-09-13T13:09:32Z</time>
      </trkpt>
      <trkpt lat="47.86899" lon="6.81648">
        <ele>769.4</ele>
        <time>2022-09-13T13:09:33Z</time>
      </trkpt>
      <trkpt lat="47.869" lon="6.81651">
        <ele>769.7</ele>
        <time>2022-09-13T13:09:34Z</time>
      </trkpt>
      <trkpt lat="47.86901" lon="6.81653">
        <ele>769.7</ele>
        <time>2022-09-13T13:09:35Z</time>
      </trkpt>
      <trkpt lat="47.86902" lon="6.81656">
        <ele>769.9</ele>
        <time>2022-09-13T13:09:36Z</time>
      </trkpt>
      <trkpt lat="47.86902" lon="6.81659">
        <ele>770.6</ele>
        <time>2022-09-13T13:09:37Z</time>
      </trkpt>
      <trkpt lat="47.86903" lon="6.81662">
        <ele>770.8</ele>
        <time>2022-09-13T13:09:38Z</time>
      </trkpt>
      <trkpt lat="47.86903" lon="6.81664">
        <ele>771.3</ele>
        <time>2022-09-13T13:09:39Z</time>
      </trkpt>
      <trkpt lat="47.86904" lon="6.81667">
        <ele>771.4</ele>
        <time>2022-09-13T13:09:40Z</time>
      </trkpt>
      <trkpt lat="47.86904" lon="6.8167">
        <ele>771.8</ele>
        <time>2022-09-13T13:09:41Z</time>
      </trkpt>
      <trkpt lat="47.86905" lon="6.81673">
        <ele>771.6</ele>
        <time>2022-09-13T13:09:42Z</time>
      </trkpt>
      <trkpt lat="47.86905" lon="6.81676">
        <ele>772</ele>
        <time>2022-09-13T13:09:43Z</time>
      </trkpt>
      <trkpt lat="47.86905" lon="6.81678">
        <ele>772.2</ele>
        <time>2022-09-13T13:09:44Z</time>
      </trkpt>
      <trkpt lat="47.86906" lon="6.8168">
        <ele>772</ele>
        <time>2022-09-13T13:09:45Z</time>
      </trkpt>
      <trkpt lat="47.86906" lon="6.81683">
        <ele>772.4</ele>
        <time>2022-09-13T13:09:46Z</time>
      </trkpt>
      <trkpt lat="47.86906" lon="6.81686">
        <ele>772.8</ele>
        <time>2022-09-13T13:09:47Z</time>
      </trkpt>
      <trkpt lat="47.86907" lon="6.81689">
        <ele>772.8</ele>
        <time>2022-09-13T13:09:48Z</time>
      </trkpt>
      <trkpt lat="47.86908" lon="6.81692">
        <ele>772.8</ele>
        <time>2022-09-13T13:09:49Z</time>
      </trkpt>
      <trkpt lat="47.86909" lon="6.81695">
        <ele>772.9</ele>
        <time>2022-09-13T13:09:50Z</time>
      </trkpt>
      <trkpt lat="47.8691" lon="6.81698">
        <ele>773.4</ele>
        <time>2022-09-13T13:09:51Z</time>
      </trkpt>
      <trkpt lat="47.86911" lon="6.817">
        <ele>773.6</ele>
        <time>2022-09-13T13:09:52Z</time>
      </trkpt>
      <trkpt lat="47.86912" lon="6.81703">
        <ele>774</ele>
        <time>2022-09-13T13:09:53Z</time>
      </trkpt>
      <trkpt lat="47.86913" lon="6.81705">
        <ele>774.3</ele>
        <time>2022-09-13T13:09:54Z</time>
      </trkpt>
      <trkpt lat="47.86914" lon="6.81707">
        <ele>774.5</ele>
        <time>2022-09-13T13:09:55Z</time>
      </trkpt>
      <trkpt lat="47.86916" lon="6.81709">
        <ele>774.4</ele>
        <time>2022-09-13T13:09:56Z</time>
      </trkpt>
      <trkpt lat="47.86917" lon="6.81711">
        <ele>774.7</ele>
        <time>2022-09-13T13:09:57Z</time>
      </trkpt>
      <trkpt lat="47.86918" lon="6.81714">
        <ele>775.3</ele>
        <time>2022-09-13T13:09:58Z</time>
      </trkpt>
      <trkpt lat="47.8692" lon="6.81716">
        <ele>775.4</ele>
        <time>2022-09-13T13:09:59Z</time>
      </trkpt>
      <trkpt lat="47.86921" lon="6.81718">
        <ele>775.7</ele>
        <time>2022-09-13T13:10:00Z</time>
      </trkpt>
      <trkpt lat="47.86922" lon="6.8172">
        <ele>776</ele>
        <time>2022-09-13T13:10:01Z</time>
      </trkpt>
      <trkpt lat="47.86924" lon="6.81722">
        <ele>776.1</ele>
        <time>2022-09-13T13:10:02Z</time>
      </trkpt>
      <trkpt lat="47.86925" lon="6.81724">
        <ele>776.3</ele>
        <time>2022-09-13T13:10:03Z</time>
      </trkpt>
      <trkpt lat="47.86926" lon="6.81727">
        <ele>776.6</ele>
        <time>2022-09-13T13:10:04Z</time>
      </trkpt>
      <trkpt lat="47.86927" lon="6.81729">
        <ele>776.8</ele>
        <time>2022-09-13T13:10:05Z</time>
      </trkpt>
      <trkpt lat="47.86927" lon="6.81731">
        <ele>777.2</ele>
        <time>2022-09-13T13:10:06Z</time>
      </trkpt>
      <trkpt lat="47.86928" lon="6.81733">
        <ele>777.4</ele>
        <time>2022-09-13T13:10:07Z</time>
      </trkpt>
      <trkpt lat="47.8693" lon="6.81736">
        <ele>777.6</ele>
        <time>2022-09-13T13:10:08Z</time>
      </trkpt>
      <trkpt lat="47.86931" lon="6.81738">
        <ele>777.8</ele>
        <time>2022-09-13T13:10:09Z</time>
      </trkpt>
      <trkpt lat="47.86932" lon="6.8174">
        <ele>778</ele>
        <time>2022-09-13T13:10:10Z</time>
      </trkpt>
      <trkpt lat="47.86933" lon="6.81743">
        <ele>778.5</ele>
        <time>2022-09-13T13:10:11Z</time>
      </trkpt>
      <trkpt lat="47.86934" lon="6.81745">
        <ele>778.8</ele>
        <time>2022-09-13T13:10:12Z</time>
      </trkpt>
      <trkpt lat="47.86935" lon="6.81747">
        <ele>779</ele>
        <time>2022-09-13T13:10:13Z</time>
      </trkpt>
      <trkpt lat="47.86937" lon="6.81749">
        <ele>779.1</ele>
        <time>2022-09-13T13:10:14Z</time>
      </trkpt>
      <trkpt lat="47.86938" lon="6.81751">
        <ele>779.4</ele>
        <time>2022-09-13T13:10:15Z</time>
      </trkpt>
      <trkpt lat="47.86939" lon="6.81752">
        <ele>779.4</ele>
        <time>2022-09-13T13:10:16Z</time>
      </trkpt>
      <trkpt lat="47.86941" lon="6.81754">
        <ele>779.6</ele>
        <time>2022-09-13T13:10:17Z</time>
      </trkpt>
      <trkpt lat="47.86942" lon="6.81756">
        <ele>779.9</ele>
        <time>2022-09-13T13:10:18Z</time>
      </trkpt>
      <trkpt lat="47.86943" lon="6.81757">
        <ele>780</ele>
        <time>2022-09-13T13:10:19Z</time>
      </trkpt>
      <trkpt lat="47.86944" lon="6.81758">
        <ele>780.1</ele>
        <time>2022-09-13T13:10:20Z</time>
      </trkpt>
      <trkpt lat="47.86946" lon="6.81759">
        <ele>779.9</ele>
        <time>2022-09-13T13:10:21Z</time>
      </trkpt>
      <trkpt lat="47.86947" lon="6.8176">
        <ele>779.9</ele>
        <time>2022-09-13T13:10:22Z</time>
      </trkpt>
      <trkpt lat="47.8695" lon="6.81762">
        <ele>779.8</ele>
        <time>2022-09-13T13:10:23Z</time>
      </trkpt>
      <trkpt lat="47.86951" lon="6.81764">
        <ele>780.1</ele>
        <time>2022-09-13T13:10:24Z</time>
      </trkpt>
      <trkpt lat="47.86953" lon="6.81765">
        <ele>780</ele>
        <time>2022-09-13T13:10:25Z</time>
      </trkpt>
      <trkpt lat="47.86955" lon="6.81767">
        <ele>780.1</ele>
        <time>2022-09-13T13:10:26Z</time>
      </trkpt>
      <trkpt lat="47.86957" lon="6.81769">
        <ele>780.2</ele>
        <time>2022-09-13T13:10:27Z</time>
      </trkpt>
      <trkpt lat="47.86958" lon="6.81771">
        <ele>780.6</ele>
        <time>2022-09-13T13:10:28Z</time>
      </trkpt>
      <trkpt lat="47.8696" lon="6.81773">
        <ele>780.8</ele>
        <time>2022-09-13T13:10:29Z</time>
      </trkpt>
      <trkpt lat="47.86961" lon="6.81775">
        <ele>781.2</ele>
        <time>2022-09-13T13:10:30Z</time>
      </trkpt>
      <trkpt lat="47.86962" lon="6.81776">
        <ele>781.3</ele>
        <time>2022-09-13T13:10:31Z</time>
      </trkpt>
      <trkpt lat="47.86963" lon="6.81777">
        <ele>781.4</ele>
        <time>2022-09-13T13:10:32Z</time>
      </trkpt>
      <trkpt lat="47.86966" lon="6.81779">
        <ele>781.4</ele>
        <time>2022-09-13T13:10:33Z</time>
      </trkpt>
      <trkpt lat="47.86967" lon="6.81781">
        <ele>781.6</ele>
        <time>2022-09-13T13:10:34Z</time>
      </trkpt>
      <trkpt lat="47.86969" lon="6.81783">
        <ele>781.6</ele>
        <time>2022-09-13T13:10:35Z</time>
      </trkpt>
      <trkpt lat="47.8697" lon="6.81785">
        <ele>781.7</ele>
        <time>2022-09-13T13:10:36Z</time>
      </trkpt>
      <trkpt lat="47.86972" lon="6.81788">
        <ele>781.9</ele>
        <time>2022-09-13T13:10:37Z</time>
      </trkpt>
      <trkpt lat="47.86973" lon="6.8179">
        <ele>782.1</ele>
        <time>2022-09-13T13:10:38Z</time>
      </trkpt>
      <trkpt lat="47.86974" lon="6.81791">
        <ele>782.2</ele>
        <time>2022-09-13T13:10:39Z</time>
      </trkpt>
      <trkpt lat="47.86976" lon="6.81793">
        <ele>782.3</ele>
        <time>2022-09-13T13:10:40Z</time>
      </trkpt>
      <trkpt lat="47.86977" lon="6.81795">
        <ele>782.6</ele>
        <time>2022-09-13T13:10:41Z</time>
      </trkpt>
      <trkpt lat="47.86978" lon="6.81796">
        <ele>782.6</ele>
        <time>2022-09-13T13:10:42Z</time>
      </trkpt>
      <trkpt lat="47.86979" lon="6.81798">
        <ele>783</ele>
        <time>2022-09-13T13:10:43Z</time>
      </trkpt>
      <trkpt lat="47.86981" lon="6.81801">
        <ele>783.4</ele>
        <time>2022-09-13T13:10:44Z</time>
      </trkpt>
      <trkpt lat="47.86983" lon="6.81803">
        <ele>783.7</ele>
        <time>2022-09-13T13:10:45Z</time>
      </trkpt>
      <trkpt lat="47.86985" lon="6.81805">
        <ele>784</ele>
        <time>2022-09-13T13:10:46Z</time>
      </trkpt>
      <trkpt lat="47.86987" lon="6.81806">
        <ele>784.1</ele>
        <time>2022-09-13T13:10:47Z</time>
      </trkpt>
      <trkpt lat="47.86989" lon="6.81807">
        <ele>784.2</ele>
        <time>2022-09-13T13:10:48Z</time>
      </trkpt>
      <trkpt lat="47.86991" lon="6.81808">
        <ele>784.3</ele>
        <time>2022-09-13T13:10:49Z</time>
      </trkpt>
      <trkpt lat="47.86993" lon="6.81809">
        <ele>784.5</ele>
        <time>2022-09-13T13:10:50Z</time>
      </trkpt>
      <trkpt lat="47.86995" lon="6.8181">
        <ele>784.6</ele>
        <time>2022-09-13T13:10:51Z</time>
      </trkpt>
      <trkpt lat="47.86997" lon="6.81809">
        <ele>784.2</ele>
        <time>2022-09-13T13:10:52Z</time>
      </trkpt>
      <trkpt lat="47.86999" lon="6.81809">
        <ele>784.1</ele>
        <time>2022-09-13T13:10:53Z</time>
      </trkpt>
      <trkpt lat="47.87001" lon="6.81808">
        <ele>783.8</ele>
        <time>2022-09-13T13:10:54Z</time>
      </trkpt>
      <trkpt lat="47.87003" lon="6.81808">
        <ele>784.1</ele>
        <time>2022-09-13T13:10:55Z</time>
      </trkpt>
      <trkpt lat="47.87005" lon="6.81807">
        <ele>784</ele>
        <time>2022-09-13T13:10:56Z</time>
      </trkpt>
      <trkpt lat="47.87006" lon="6.81806">
        <ele>783.8</ele>
        <time>2022-09-13T13:10:57Z</time>
      </trkpt>
      <trkpt lat="47.87008" lon="6.81805">
        <ele>783.7</ele>
        <time>2022-09-13T13:10:58Z</time>
      </trkpt>
      <trkpt lat="47.8701" lon="6.81804">
        <ele>783.6</ele>
        <time>2022-09-13T13:10:59Z</time>
      </trkpt>
      <trkpt lat="47.87012" lon="6.81803">
        <ele>783.5</ele>
        <time>2022-09-13T13:11:00Z</time>
      </trkpt>
      <trkpt lat="47.87014" lon="6.81802">
        <ele>783.4</ele>
        <time>2022-09-13T13:11:01Z</time>
      </trkpt>
      <trkpt lat="47.87016" lon="6.81802">
        <ele>783.6</ele>
        <time>2022-09-13T13:11:02Z</time>
      </trkpt>
      <trkpt lat="47.87019" lon="6.81801">
        <ele>783.5</ele>
        <time>2022-09-13T13:11:03Z</time>
      </trkpt>
      <trkpt lat="47.87021" lon="6.81801">
        <ele>783.7</ele>
        <time>2022-09-13T13:11:04Z</time>
      </trkpt>
      <trkpt lat="47.87023" lon="6.818">
        <ele>783.6</ele>
        <time>2022-09-13T13:11:05Z</time>
      </trkpt>
      <trkpt lat="47.87025" lon="6.818">
        <ele>783.7</ele>
        <time>2022-09-13T13:11:06Z</time>
      </trkpt>
      <trkpt lat="47.87027" lon="6.81799">
        <ele>783.6</ele>
        <time>2022-09-13T13:11:07Z</time>
      </trkpt>
      <trkpt lat="47.87029" lon="6.81798">
        <ele>783.4</ele>
        <time>2022-09-13T13:11:08Z</time>
      </trkpt>
      <trkpt lat="47.87031" lon="6.81797">
        <ele>783.2</ele>
        <time>2022-09-13T13:11:09Z</time>
      </trkpt>
      <trkpt lat="47.87033" lon="6.81796">
        <ele>783.1</ele>
        <time>2022-09-13T13:11:10Z</time>
      </trkpt>
      <trkpt lat="47.87035" lon="6.81796">
        <ele>783.3</ele>
        <time>2022-09-13T13:11:11Z</time>
      </trkpt>
      <trkpt lat="47.87037" lon="6.81795">
        <ele>783.1</ele>
        <time>2022-09-13T13:11:12Z</time>
      </trkpt>
      <trkpt lat="47.87039" lon="6.81795">
        <ele>783.3</ele>
        <time>2022-09-13T13:11:13Z</time>
      </trkpt>
      <trkpt lat="47.87041" lon="6.81795">
        <ele>783.4</ele>
        <time>2022-09-13T13:11:14Z</time>
      </trkpt>
      <trkpt lat="47.87043" lon="6.81795">
        <ele>783.6</ele>
        <time>2022-09-13T13:11:15Z</time>
      </trkpt>
      <trkpt lat="47.87045" lon="6.81795">
        <ele>783.8</ele>
        <time>2022-09-13T13:11:16Z</time>
      </trkpt>
      <trkpt lat="47.87047" lon="6.81795">
        <ele>784</ele>
        <time>2022-09-13T13:11:17Z</time>
      </trkpt>
      <trkpt lat="47.87049" lon="6.81795">
        <ele>784.2</ele>
        <time>2022-09-13T13:11:18Z</time>
      </trkpt>
      <trkpt lat="47.87051" lon="6.81795">
        <ele>784.4</ele>
        <time>2022-09-13T13:11:19Z</time>
      </trkpt>
      <trkpt lat="47.87053" lon="6.81795">
        <ele>784.6</ele>
        <time>2022-09-13T13:11:20Z</time>
      </trkpt>
      <trkpt lat="47.87055" lon="6.81795">
        <ele>784.8</ele>
        <time>2022-09-13T13:11:21Z</time>
      </trkpt>
      <trkpt lat="47.87057" lon="6.81795">
        <ele>784.9</ele>
        <time>2022-09-13T13:11:22Z</time>
      </trkpt>
      <trkpt lat="47.87059" lon="6.81795">
        <ele>785</ele>
        <time>2022-09-13T13:11:23Z</time>
      </trkpt>
      <trkpt lat="47.87062" lon="6.81795">
        <ele>785.1</ele>
        <time>2022-09-13T13:11:24Z</time>
      </trkpt>
      <trkpt lat="47.87064" lon="6.81794">
        <ele>784.9</ele>
        <time>2022-09-13T13:11:25Z</time>
      </trkpt>
      <trkpt lat="47.87066" lon="6.81794">
        <ele>785</ele>
        <time>2022-09-13T13:11:26Z</time>
      </trkpt>
      <trkpt lat="47.87068" lon="6.81794">
        <ele>785.1</ele>
        <time>2022-09-13T13:11:27Z</time>
      </trkpt>
      <trkpt lat="47.8707" lon="6.81794">
        <ele>785.2</ele>
        <time>2022-09-13T13:11:28Z</time>
      </trkpt>
      <trkpt lat="47.87072" lon="6.81793">
        <ele>784.9</ele>
        <time>2022-09-13T13:11:29Z</time>
      </trkpt>
      <trkpt lat="47.87074" lon="6.81793">
        <ele>785</ele>
        <time>2022-09-13T13:11:30Z</time>
      </trkpt>
      <trkpt lat="47.87076" lon="6.81793">
        <ele>785.1</ele>
        <time>2022-09-13T13:11:31Z</time>
      </trkpt>
      <trkpt lat="47.87079" lon="6.81792">
        <ele>784.9</ele>
        <time>2022-09-13T13:11:32Z</time>
      </trkpt>
      <trkpt lat="47.87081" lon="6.81792">
        <ele>785</ele>
        <time>2022-09-13T13:11:33Z</time>
      </trkpt>
      <trkpt lat="47.87083" lon="6.81792">
        <ele>785.1</ele>
        <time>2022-09-13T13:11:34Z</time>
      </trkpt>
      <trkpt lat="47.87084" lon="6.81792">
        <ele>785.2</ele>
        <time>2022-09-13T13:11:35Z</time>
      </trkpt>
      <trkpt lat="47.87086" lon="6.81792">
        <ele>785.5</ele>
        <time>2022-09-13T13:11:36Z</time>
      </trkpt>
      <trkpt lat="47.87087" lon="6.81793">
        <ele>786.1</ele>
        <time>2022-09-13T13:11:37Z</time>
      </trkpt>
      <trkpt lat="47.8709" lon="6.81793">
        <ele>786.5</ele>
        <time>2022-09-13T13:11:38Z</time>
      </trkpt>
      <trkpt lat="47.87092" lon="6.81793">
        <ele>786.8</ele>
        <time>2022-09-13T13:11:39Z</time>
      </trkpt>
      <trkpt lat="47.87094" lon="6.81793">
        <ele>787.2</ele>
        <time>2022-09-13T13:11:40Z</time>
      </trkpt>
      <trkpt lat="47.87096" lon="6.81793">
        <ele>787.5</ele>
        <time>2022-09-13T13:11:41Z</time>
      </trkpt>
      <trkpt lat="47.87097" lon="6.81793">
        <ele>787.6</ele>
        <time>2022-09-13T13:11:42Z</time>
      </trkpt>
      <trkpt lat="47.87099" lon="6.81793">
        <ele>787.9</ele>
        <time>2022-09-13T13:11:43Z</time>
      </trkpt>
      <trkpt lat="47.871" lon="6.81793">
        <ele>788.1</ele>
        <time>2022-09-13T13:11:44Z</time>
      </trkpt>
      <trkpt lat="47.87101" lon="6.81793">
        <ele>788.3</ele>
        <time>2022-09-13T13:11:45Z</time>
      </trkpt>
      <trkpt lat="47.87103" lon="6.81793">
        <ele>788.6</ele>
        <time>2022-09-13T13:11:46Z</time>
      </trkpt>
      <trkpt lat="47.87104" lon="6.81793">
        <ele>788.7</ele>
        <time>2022-09-13T13:11:47Z</time>
      </trkpt>
      <trkpt lat="47.87106" lon="6.81794">
        <ele>789.3</ele>
        <time>2022-09-13T13:11:48Z</time>
      </trkpt>
      <trkpt lat="47.87108" lon="6.81794">
        <ele>789.6</ele>
        <time>2022-09-13T13:11:49Z</time>
      </trkpt>
      <trkpt lat="47.87111" lon="6.81795">
        <ele>790.3</ele>
        <time>2022-09-13T13:11:50Z</time>
      </trkpt>
      <trkpt lat="47.87113" lon="6.81795">
        <ele>790.5</ele>
        <time>2022-09-13T13:11:51Z</time>
      </trkpt>
      <trkpt lat="47.87115" lon="6.81796">
        <ele>791</ele>
        <time>2022-09-13T13:11:52Z</time>
      </trkpt>
      <trkpt lat="47.87117" lon="6.81796">
        <ele>791.2</ele>
        <time>2022-09-13T13:11:53Z</time>
      </trkpt>
      <trkpt lat="47.87119" lon="6.81796">
        <ele>791.4</ele>
        <time>2022-09-13T13:11:54Z</time>
      </trkpt>
      <trkpt lat="47.8712" lon="6.81796">
        <ele>791.6</ele>
        <time>2022-09-13T13:11:55Z</time>
      </trkpt>
      <trkpt lat="47.87122" lon="6.81796">
        <ele>791.8</ele>
        <time>2022-09-13T13:11:56Z</time>
      </trkpt>
      <trkpt lat="47.87124" lon="6.81796">
        <ele>792</ele>
        <time>2022-09-13T13:11:57Z</time>
      </trkpt>
      <trkpt lat="47.87126" lon="6.81796">
        <ele>792.2</ele>
        <time>2022-09-13T13:11:58Z</time>
      </trkpt>
      <trkpt lat="47.87128" lon="6.81795">
        <ele>792.2</ele>
        <time>2022-09-13T13:11:59Z</time>
      </trkpt>
      <trkpt lat="47.87129" lon="6.81795">
        <ele>792.3</ele>
        <time>2022-09-13T13:12:00Z</time>
      </trkpt>
      <trkpt lat="47.87131" lon="6.81794">
        <ele>792.2</ele>
        <time>2022-09-13T13:12:01Z</time>
      </trkpt>
      <trkpt lat="47.87133" lon="6.81793">
        <ele>792.2</ele>
        <time>2022-09-13T13:12:02Z</time>
      </trkpt>
      <trkpt lat="47.87135" lon="6.81792">
        <ele>792.2</ele>
        <time>2022-09-13T13:12:03Z</time>
      </trkpt>
      <trkpt lat="47.87136" lon="6.81792">
        <ele>792.3</ele>
        <time>2022-09-13T13:12:04Z</time>
      </trkpt>
      <trkpt lat="47.87138" lon="6.81791">
        <ele>792.2</ele>
        <time>2022-09-13T13:12:05Z</time>
      </trkpt>
      <trkpt lat="47.8714" lon="6.8179">
        <ele>792.4</ele>
        <time>2022-09-13T13:12:06Z</time>
      </trkpt>
      <trkpt lat="47.87142" lon="6.81789">
        <ele>792.6</ele>
        <time>2022-09-13T13:12:07Z</time>
      </trkpt>
      <trkpt lat="47.87143" lon="6.81788">
        <ele>792.6</ele>
        <time>2022-09-13T13:12:08Z</time>
      </trkpt>
      <trkpt lat="47.87145" lon="6.81787">
        <ele>792.8</ele>
        <time>2022-09-13T13:12:09Z</time>
      </trkpt>
      <trkpt lat="47.87147" lon="6.81786">
        <ele>793</ele>
        <time>2022-09-13T13:12:10Z</time>
      </trkpt>
      <trkpt lat="47.87149" lon="6.81785">
        <ele>793.2</ele>
        <time>2022-09-13T13:12:11Z</time>
      </trkpt>
      <trkpt lat="47.8715" lon="6.81784">
        <ele>793.1</ele>
        <time>2022-09-13T13:12:12Z</time>
      </trkpt>
      <trkpt lat="47.87152" lon="6.81783">
        <ele>793.3</ele>
        <time>2022-09-13T13:12:13Z</time>
      </trkpt>
      <trkpt lat="47.87154" lon="6.81782">
        <ele>793.5</ele>
        <time>2022-09-13T13:12:14Z</time>
      </trkpt>
      <trkpt lat="47.87155" lon="6.81781">
        <ele>793.4</ele>
        <time>2022-09-13T13:12:15Z</time>
      </trkpt>
      <trkpt lat="47.87156" lon="6.81781">
        <ele>793.7</ele>
        <time>2022-09-13T13:12:16Z</time>
      </trkpt>
      <trkpt lat="47.87158" lon="6.8178">
        <ele>793.8</ele>
        <time>2022-09-13T13:12:17Z</time>
      </trkpt>
      <trkpt lat="47.8716" lon="6.8178">
        <ele>794.2</ele>
        <time>2022-09-13T13:12:18Z</time>
      </trkpt>
      <trkpt lat="47.87162" lon="6.81779">
        <ele>794.4</ele>
        <time>2022-09-13T13:12:19Z</time>
      </trkpt>
      <trkpt lat="47.87164" lon="6.81779">
        <ele>794.8</ele>
        <time>2022-09-13T13:12:20Z</time>
      </trkpt>
      <trkpt lat="47.87166" lon="6.81779">
        <ele>795.2</ele>
        <time>2022-09-13T13:12:21Z</time>
      </trkpt>
      <trkpt lat="47.87168" lon="6.81778">
        <ele>795.4</ele>
        <time>2022-09-13T13:12:22Z</time>
      </trkpt>
      <trkpt lat="47.8717" lon="6.81778">
        <ele>795.8</ele>
        <time>2022-09-13T13:12:23Z</time>
      </trkpt>
      <trkpt lat="47.87171" lon="6.81778">
        <ele>796</ele>
        <time>2022-09-13T13:12:24Z</time>
      </trkpt>
      <trkpt lat="47.87173" lon="6.81778">
        <ele>796.4</ele>
        <time>2022-09-13T13:12:25Z</time>
      </trkpt>
      <trkpt lat="47.87174" lon="6.81778">
        <ele>796.7</ele>
        <time>2022-09-13T13:12:26Z</time>
      </trkpt>
      <trkpt lat="47.87176" lon="6.81778">
        <ele>797.1</ele>
        <time>2022-09-13T13:12:27Z</time>
      </trkpt>
      <trkpt lat="47.87178" lon="6.81777">
        <ele>797.2</ele>
        <time>2022-09-13T13:12:28Z</time>
      </trkpt>
      <trkpt lat="47.87179" lon="6.81776">
        <ele>797.2</ele>
        <time>2022-09-13T13:12:29Z</time>
      </trkpt>
      <trkpt lat="47.87181" lon="6.81776">
        <ele>797.7</ele>
        <time>2022-09-13T13:12:30Z</time>
      </trkpt>
      <trkpt lat="47.87182" lon="6.81775">
        <ele>797.6</ele>
        <time>2022-09-13T13:12:31Z</time>
      </trkpt>
      <trkpt lat="47.87183" lon="6.81774">
        <ele>797.6</ele>
        <time>2022-09-13T13:12:32Z</time>
      </trkpt>
      <trkpt lat="47.87184" lon="6.81772">
        <ele>797.4</ele>
        <time>2022-09-13T13:12:33Z</time>
      </trkpt>
      <trkpt lat="47.87186" lon="6.81771">
        <ele>797.7</ele>
        <time>2022-09-13T13:12:34Z</time>
      </trkpt>
      <trkpt lat="47.87188" lon="6.81769">
        <ele>797.7</ele>
        <time>2022-09-13T13:12:35Z</time>
      </trkpt>
      <trkpt lat="47.8719" lon="6.81767">
        <ele>797.9</ele>
        <time>2022-09-13T13:12:36Z</time>
      </trkpt>
      <trkpt lat="47.87193" lon="6.81766">
        <ele>798.5</ele>
        <time>2022-09-13T13:12:37Z</time>
      </trkpt>
      <trkpt lat="47.87196" lon="6.81763">
        <ele>799</ele>
        <time>2022-09-13T13:12:38Z</time>
      </trkpt>
      <trkpt lat="47.87198" lon="6.81762">
        <ele>799.6</ele>
        <time>2022-09-13T13:12:39Z</time>
      </trkpt>
      <trkpt lat="47.872" lon="6.81761">
        <ele>800.3</ele>
        <time>2022-09-13T13:12:40Z</time>
      </trkpt>
      <trkpt lat="47.87202" lon="6.8176">
        <ele>801</ele>
        <time>2022-09-13T13:12:41Z</time>
      </trkpt>
      <trkpt lat="47.87205" lon="6.81759">
        <ele>802.1</ele>
        <time>2022-09-13T13:12:42Z</time>
      </trkpt>
      <trkpt lat="47.87207" lon="6.81757">
        <ele>802.6</ele>
        <time>2022-09-13T13:12:43Z</time>
      </trkpt>
      <trkpt lat="47.87208" lon="6.81756">
        <ele>802.8</ele>
        <time>2022-09-13T13:12:44Z</time>
      </trkpt>
      <trkpt lat="47.8721" lon="6.81754">
        <ele>803.4</ele>
        <time>2022-09-13T13:12:45Z</time>
      </trkpt>
      <trkpt lat="47.87211" lon="6.81752">
        <ele>803.5</ele>
        <time>2022-09-13T13:12:46Z</time>
      </trkpt>
      <trkpt lat="47.87213" lon="6.8175">
        <ele>804</ele>
        <time>2022-09-13T13:12:47Z</time>
      </trkpt>
      <trkpt lat="47.87214" lon="6.81749">
        <ele>804.3</ele>
        <time>2022-09-13T13:12:48Z</time>
      </trkpt>
      <trkpt lat="47.87215" lon="6.81747">
        <ele>804.3</ele>
        <time>2022-09-13T13:12:49Z</time>
      </trkpt>
      <trkpt lat="47.87217" lon="6.81744">
        <ele>804.5</ele>
        <time>2022-09-13T13:12:50Z</time>
      </trkpt>
      <trkpt lat="47.87218" lon="6.81742">
        <ele>804.5</ele>
        <time>2022-09-13T13:12:51Z</time>
      </trkpt>
      <trkpt lat="47.8722" lon="6.8174">
        <ele>804.9</ele>
        <time>2022-09-13T13:12:52Z</time>
      </trkpt>
      <trkpt lat="47.87221" lon="6.81738">
        <ele>804.9</ele>
        <time>2022-09-13T13:12:53Z</time>
      </trkpt>
      <trkpt lat="47.87223" lon="6.81735">
        <ele>805</ele>
        <time>2022-09-13T13:12:54Z</time>
      </trkpt>
      <trkpt lat="47.87224" lon="6.81733">
        <ele>804.8</ele>
        <time>2022-09-13T13:12:55Z</time>
      </trkpt>
      <trkpt lat="47.87225" lon="6.81731">
        <ele>804.6</ele>
        <time>2022-09-13T13:12:56Z</time>
      </trkpt>
      <trkpt lat="47.87226" lon="6.81729">
        <ele>804.4</ele>
        <time>2022-09-13T13:12:57Z</time>
      </trkpt>
      <trkpt lat="47.87227" lon="6.81728">
        <ele>804.5</ele>
        <time>2022-09-13T13:12:58Z</time>
      </trkpt>
      <trkpt lat="47.87228" lon="6.81726">
        <ele>804.3</ele>
        <time>2022-09-13T13:12:59Z</time>
      </trkpt>
      <trkpt lat="47.8723" lon="6.81725">
        <ele>804.6</ele>
        <time>2022-09-13T13:13:00Z</time>
      </trkpt>
      <trkpt lat="47.87231" lon="6.81722">
        <ele>804.2</ele>
        <time>2022-09-13T13:13:01Z</time>
      </trkpt>
      <trkpt lat="47.87232" lon="6.81721">
        <ele>804.2</ele>
        <time>2022-09-13T13:13:02Z</time>
      </trkpt>
      <trkpt lat="47.87234" lon="6.8172">
        <ele>804.4</ele>
        <time>2022-09-13T13:13:03Z</time>
      </trkpt>
      <trkpt lat="47.87235" lon="6.81719">
        <ele>804.5</ele>
        <time>2022-09-13T13:13:04Z</time>
      </trkpt>
      <trkpt lat="47.87237" lon="6.81718">
        <ele>804.7</ele>
        <time>2022-09-13T13:13:05Z</time>
      </trkpt>
      <trkpt lat="47.87239" lon="6.81716">
        <ele>804.8</ele>
        <time>2022-09-13T13:13:06Z</time>
      </trkpt>
      <trkpt lat="47.87241" lon="6.81714">
        <ele>804.9</ele>
        <time>2022-09-13T13:13:07Z</time>
      </trkpt>
      <trkpt lat="47.87243" lon="6.81713">
        <ele>805.2</ele>
        <time>2022-09-13T13:13:08Z</time>
      </trkpt>
      <trkpt lat="47.87245" lon="6.81711">
        <ele>805.2</ele>
        <time>2022-09-13T13:13:09Z</time>
      </trkpt>
      <trkpt lat="47.87246" lon="6.8171">
        <ele>805.3</ele>
        <time>2022-09-13T13:13:10Z</time>
      </trkpt>
      <trkpt lat="47.87247" lon="6.81709">
        <ele>805.3</ele>
        <time>2022-09-13T13:13:11Z</time>
      </trkpt>
      <trkpt lat="47.87248" lon="6.81708">
        <ele>805.4</ele>
        <time>2022-09-13T13:13:12Z</time>
      </trkpt>
      <trkpt lat="47.8725" lon="6.81706">
        <ele>805.5</ele>
        <time>2022-09-13T13:13:13Z</time>
      </trkpt>
      <trkpt lat="47.87251" lon="6.81705">
        <ele>805.6</ele>
        <time>2022-09-13T13:13:14Z</time>
      </trkpt>
      <trkpt lat="47.87253" lon="6.81703">
        <ele>805.9</ele>
        <time>2022-09-13T13:13:15Z</time>
      </trkpt>
      <trkpt lat="47.87255" lon="6.81702">
        <ele>806.4</ele>
        <time>2022-09-13T13:13:16Z</time>
      </trkpt>
      <trkpt lat="47.87256" lon="6.81701">
        <ele>806.6</ele>
        <time>2022-09-13T13:13:17Z</time>
      </trkpt>
      <trkpt lat="47.87258" lon="6.817">
        <ele>807.1</ele>
        <time>2022-09-13T13:13:18Z</time>
      </trkpt>
      <trkpt lat="47.8726" lon="6.81698">
        <ele>807.4</ele>
        <time>2022-09-13T13:13:19Z</time>
      </trkpt>
      <trkpt lat="47.87262" lon="6.81697">
        <ele>807.9</ele>
        <time>2022-09-13T13:13:20Z</time>
      </trkpt>
      <trkpt lat="47.87263" lon="6.81696">
        <ele>808</ele>
        <time>2022-09-13T13:13:21Z</time>
      </trkpt>
      <trkpt lat="47.87265" lon="6.81695">
        <ele>808.5</ele>
        <time>2022-09-13T13:13:22Z</time>
      </trkpt>
      <trkpt lat="47.87266" lon="6.81693">
        <ele>808.4</ele>
        <time>2022-09-13T13:13:23Z</time>
      </trkpt>
      <trkpt lat="47.87267" lon="6.81692">
        <ele>808.6</ele>
        <time>2022-09-13T13:13:24Z</time>
      </trkpt>
      <trkpt lat="47.87269" lon="6.8169">
        <ele>808.9</ele>
        <time>2022-09-13T13:13:25Z</time>
      </trkpt>
      <trkpt lat="47.87271" lon="6.81688">
        <ele>809.2</ele>
        <time>2022-09-13T13:13:26Z</time>
      </trkpt>
      <trkpt lat="47.87273" lon="6.81687">
        <ele>809.7</ele>
        <time>2022-09-13T13:13:27Z</time>
      </trkpt>
      <trkpt lat="47.87275" lon="6.81685">
        <ele>810</ele>
        <time>2022-09-13T13:13:28Z</time>
      </trkpt>
      <trkpt lat="47.87276" lon="6.81684">
        <ele>810.1</ele>
        <time>2022-09-13T13:13:29Z</time>
      </trkpt>
      <trkpt lat="47.87278" lon="6.81683">
        <ele>810.6</ele>
        <time>2022-09-13T13:13:30Z</time>
      </trkpt>
      <trkpt lat="47.8728" lon="6.81682">
        <ele>811.1</ele>
        <time>2022-09-13T13:13:31Z</time>
      </trkpt>
      <trkpt lat="47.87282" lon="6.81681">
        <ele>811.6</ele>
        <time>2022-09-13T13:13:32Z</time>
      </trkpt>
      <trkpt lat="47.87283" lon="6.81679">
        <ele>811.5</ele>
        <time>2022-09-13T13:13:33Z</time>
      </trkpt>
      <trkpt lat="47.87285" lon="6.81678">
        <ele>812</ele>
        <time>2022-09-13T13:13:34Z</time>
      </trkpt>
      <trkpt lat="47.87287" lon="6.81677">
        <ele>812.5</ele>
        <time>2022-09-13T13:13:35Z</time>
      </trkpt>
      <trkpt lat="47.87289" lon="6.81676">
        <ele>812.9</ele>
        <time>2022-09-13T13:13:36Z</time>
      </trkpt>
      <trkpt lat="47.87291" lon="6.81675">
        <ele>813.4</ele>
        <time>2022-09-13T13:13:37Z</time>
      </trkpt>
      <trkpt lat="47.87293" lon="6.81674">
        <ele>813.8</ele>
        <time>2022-09-13T13:13:38Z</time>
      </trkpt>
      <trkpt lat="47.87294" lon="6.81672">
        <ele>813.6</ele>
        <time>2022-09-13T13:13:39Z</time>
      </trkpt>
      <trkpt lat="47.87296" lon="6.81671">
        <ele>814</ele>
        <time>2022-09-13T13:13:40Z</time>
      </trkpt>
      <trkpt lat="47.87298" lon="6.8167">
        <ele>814.4</ele>
        <time>2022-09-13T13:13:41Z</time>
      </trkpt>
      <trkpt lat="47.873" lon="6.81668">
        <ele>814.6</ele>
        <time>2022-09-13T13:13:42Z</time>
      </trkpt>
      <trkpt lat="47.87302" lon="6.81667">
        <ele>814.9</ele>
        <time>2022-09-13T13:13:43Z</time>
      </trkpt>
      <trkpt lat="47.87304" lon="6.81665">
        <ele>815.2</ele>
        <time>2022-09-13T13:13:44Z</time>
      </trkpt>
      <trkpt lat="47.87305" lon="6.81663">
        <ele>815.2</ele>
        <time>2022-09-13T13:13:45Z</time>
      </trkpt>
      <trkpt lat="47.87307" lon="6.81661">
        <ele>815.5</ele>
        <time>2022-09-13T13:13:46Z</time>
      </trkpt>
      <trkpt lat="47.87309" lon="6.81659">
        <ele>815.9</ele>
        <time>2022-09-13T13:13:47Z</time>
      </trkpt>
      <trkpt lat="47.8731" lon="6.81657">
        <ele>815.9</ele>
        <time>2022-09-13T13:13:48Z</time>
      </trkpt>
      <trkpt lat="47.87312" lon="6.81655">
        <ele>816.2</ele>
        <time>2022-09-13T13:13:49Z</time>
      </trkpt>
      <trkpt lat="47.87313" lon="6.81653">
        <ele>816.2</ele>
        <time>2022-09-13T13:13:50Z</time>
      </trkpt>
      <trkpt lat="47.87315" lon="6.81651">
        <ele>816.6</ele>
        <time>2022-09-13T13:13:51Z</time>
      </trkpt>
      <trkpt lat="47.87316" lon="6.81649">
        <ele>816.6</ele>
        <time>2022-09-13T13:13:52Z</time>
      </trkpt>
      <trkpt lat="47.87318" lon="6.81647">
        <ele>816.9</ele>
        <time>2022-09-13T13:13:53Z</time>
      </trkpt>
      <trkpt lat="47.87319" lon="6.81644">
        <ele>816.8</ele>
        <time>2022-09-13T13:13:54Z</time>
      </trkpt>
      <trkpt lat="47.87321" lon="6.81642">
        <ele>817.1</ele>
        <time>2022-09-13T13:13:55Z</time>
      </trkpt>
      <trkpt lat="47.87322" lon="6.8164">
        <ele>817.1</ele>
        <time>2022-09-13T13:13:56Z</time>
      </trkpt>
      <trkpt lat="47.87323" lon="6.81638">
        <ele>817.2</ele>
        <time>2022-09-13T13:13:57Z</time>
      </trkpt>
      <trkpt lat="47.87325" lon="6.81636">
        <ele>817.8</ele>
        <time>2022-09-13T13:13:58Z</time>
      </trkpt>
      <trkpt lat="47.87326" lon="6.81633">
        <ele>817.9</ele>
        <time>2022-09-13T13:13:59Z</time>
      </trkpt>
      <trkpt lat="47.87328" lon="6.81632">
        <ele>818.5</ele>
        <time>2022-09-13T13:14:00Z</time>
      </trkpt>
      <trkpt lat="47.87329" lon="6.8163">
        <ele>818.8</ele>
        <time>2022-09-13T13:14:01Z</time>
      </trkpt>
      <trkpt lat="47.8733" lon="6.81628">
        <ele>819</ele>
        <time>2022-09-13T13:14:02Z</time>
      </trkpt>
      <trkpt lat="47.87331" lon="6.81626">
        <ele>819.2</ele>
        <time>2022-09-13T13:14:03Z</time>
      </trkpt>
      <trkpt lat="47.87333" lon="6.81624">
        <ele>819.8</ele>
        <time>2022-09-13T13:14:04Z</time>
      </trkpt>
      <trkpt lat="47.87334" lon="6.81621">
        <ele>819.9</ele>
        <time>2022-09-13T13:14:05Z</time>
      </trkpt>
      <trkpt lat="47.87335" lon="6.81618">
        <ele>820</ele>
        <time>2022-09-13T13:14:06Z</time>
      </trkpt>
      <trkpt lat="47.87336" lon="6.81615">
        <ele>820.1</ele>
        <time>2022-09-13T13:14:07Z</time>
      </trkpt>
      <trkpt lat="47.87337" lon="6.81612">
        <ele>820.3</ele>
        <time>2022-09-13T13:14:08Z</time>
      </trkpt>
      <trkpt lat="47.87337" lon="6.81609">
        <ele>819.9</ele>
        <time>2022-09-13T13:14:09Z</time>
      </trkpt>
      <trkpt lat="47.87338" lon="6.81606">
        <ele>819.9</ele>
        <time>2022-09-13T13:14:10Z</time>
      </trkpt>
      <trkpt lat="47.87339" lon="6.81603">
        <ele>819.8</ele>
        <time>2022-09-13T13:14:11Z</time>
      </trkpt>
      <trkpt lat="47.8734" lon="6.816">
        <ele>819.8</ele>
        <time>2022-09-13T13:14:12Z</time>
      </trkpt>
      <trkpt lat="47.87341" lon="6.81598">
        <ele>819.8</ele>
        <time>2022-09-13T13:14:13Z</time>
      </trkpt>
      <trkpt lat="47.87342" lon="6.81595">
        <ele>819.7</ele>
        <time>2022-09-13T13:14:14Z</time>
      </trkpt>
      <trkpt lat="47.87343" lon="6.81592">
        <ele>819.6</ele>
        <time>2022-09-13T13:14:15Z</time>
      </trkpt>
      <trkpt lat="47.87344" lon="6.8159">
        <ele>819.6</ele>
        <time>2022-09-13T13:14:16Z</time>
      </trkpt>
      <trkpt lat="47.87346" lon="6.81588">
        <ele>819.8</ele>
        <time>2022-09-13T13:14:17Z</time>
      </trkpt>
      <trkpt lat="47.87347" lon="6.81586">
        <ele>819.8</ele>
        <time>2022-09-13T13:14:18Z</time>
      </trkpt>
      <trkpt lat="47.87349" lon="6.81584">
        <ele>820</ele>
        <time>2022-09-13T13:14:19Z</time>
      </trkpt>
      <trkpt lat="47.8735" lon="6.81581">
        <ele>819.9</ele>
        <time>2022-09-13T13:14:20Z</time>
      </trkpt>
      <trkpt lat="47.87352" lon="6.81579">
        <ele>820.1</ele>
        <time>2022-09-13T13:14:21Z</time>
      </trkpt>
      <trkpt lat="47.87353" lon="6.81577">
        <ele>820</ele>
        <time>2022-09-13T13:14:22Z</time>
      </trkpt>
      <trkpt lat="47.87355" lon="6.81574">
        <ele>820.1</ele>
        <time>2022-09-13T13:14:23Z</time>
      </trkpt>
      <trkpt lat="47.87356" lon="6.81573">
        <ele>820.2</ele>
        <time>2022-09-13T13:14:24Z</time>
      </trkpt>
      <trkpt lat="47.87358" lon="6.81571">
        <ele>820.4</ele>
        <time>2022-09-13T13:14:25Z</time>
      </trkpt>
      <trkpt lat="47.8736" lon="6.8157">
        <ele>820.8</ele>
        <time>2022-09-13T13:14:26Z</time>
      </trkpt>
      <trkpt lat="47.87362" lon="6.81568">
        <ele>821</ele>
        <time>2022-09-13T13:14:27Z</time>
      </trkpt>
      <trkpt lat="47.87363" lon="6.81567">
        <ele>821.1</ele>
        <time>2022-09-13T13:14:28Z</time>
      </trkpt>
      <trkpt lat="47.87365" lon="6.81565">
        <ele>821.3</ele>
        <time>2022-09-13T13:14:29Z</time>
      </trkpt>
      <trkpt lat="47.87367" lon="6.81563">
        <ele>821.5</ele>
        <time>2022-09-13T13:14:30Z</time>
      </trkpt>
      <trkpt lat="47.87368" lon="6.81561">
        <ele>821.4</ele>
        <time>2022-09-13T13:14:31Z</time>
      </trkpt>
      <trkpt lat="47.8737" lon="6.8156">
        <ele>821.7</ele>
        <time>2022-09-13T13:14:32Z</time>
      </trkpt>
      <trkpt lat="47.87371" lon="6.81558">
        <ele>821.6</ele>
        <time>2022-09-13T13:14:33Z</time>
      </trkpt>
      <trkpt lat="47.87373" lon="6.81556">
        <ele>821.6</ele>
        <time>2022-09-13T13:14:34Z</time>
      </trkpt>
      <trkpt lat="47.87375" lon="6.81554">
        <ele>821.7</ele>
        <time>2022-09-13T13:14:35Z</time>
      </trkpt>
      <trkpt lat="47.87377" lon="6.81552">
        <ele>821.9</ele>
        <time>2022-09-13T13:14:36Z</time>
      </trkpt>
      <trkpt lat="47.87379" lon="6.81551">
        <ele>822.1</ele>
        <time>2022-09-13T13:14:37Z</time>
      </trkpt>
      <trkpt lat="47.87381" lon="6.81549">
        <ele>822.3</ele>
        <time>2022-09-13T13:14:38Z</time>
      </trkpt>
      <trkpt lat="47.87383" lon="6.81548">
        <ele>822.6</ele>
        <time>2022-09-13T13:14:39Z</time>
      </trkpt>
      <trkpt lat="47.87385" lon="6.81546">
        <ele>822.7</ele>
        <time>2022-09-13T13:14:40Z</time>
      </trkpt>
      <trkpt lat="47.87387" lon="6.81545">
        <ele>823</ele>
        <time>2022-09-13T13:14:41Z</time>
      </trkpt>
      <trkpt lat="47.87389" lon="6.81544">
        <ele>823.4</ele>
        <time>2022-09-13T13:14:42Z</time>
      </trkpt>
      <trkpt lat="47.87391" lon="6.81543">
        <ele>823.5</ele>
        <time>2022-09-13T13:14:43Z</time>
      </trkpt>
      <trkpt lat="47.87393" lon="6.81541">
        <ele>823.6</ele>
        <time>2022-09-13T13:14:44Z</time>
      </trkpt>
      <trkpt lat="47.87395" lon="6.8154">
        <ele>823.7</ele>
        <time>2022-09-13T13:14:45Z</time>
      </trkpt>
      <trkpt lat="47.87397" lon="6.8154">
        <ele>824.1</ele>
        <time>2022-09-13T13:14:46Z</time>
      </trkpt>
      <trkpt lat="47.87399" lon="6.81539">
        <ele>824.2</ele>
        <time>2022-09-13T13:14:47Z</time>
      </trkpt>
      <trkpt lat="47.87401" lon="6.81538">
        <ele>824.4</ele>
        <time>2022-09-13T13:14:48Z</time>
      </trkpt>
      <trkpt lat="47.87403" lon="6.81537">
        <ele>824.5</ele>
        <time>2022-09-13T13:14:49Z</time>
      </trkpt>
      <trkpt lat="47.87405" lon="6.81536">
        <ele>824.7</ele>
        <time>2022-09-13T13:14:50Z</time>
      </trkpt>
      <trkpt lat="47.87407" lon="6.81536">
        <ele>825</ele>
        <time>2022-09-13T13:14:51Z</time>
      </trkpt>
      <trkpt lat="47.87409" lon="6.81535">
        <ele>825.1</ele>
        <time>2022-09-13T13:14:52Z</time>
      </trkpt>
      <trkpt lat="47.87411" lon="6.81535">
        <ele>825.4</ele>
        <time>2022-09-13T13:14:53Z</time>
      </trkpt>
      <trkpt lat="47.87413" lon="6.81534">
        <ele>825.6</ele>
        <time>2022-09-13T13:14:54Z</time>
      </trkpt>
      <trkpt lat="47.87416" lon="6.81534">
        <ele>826</ele>
        <time>2022-09-13T13:14:55Z</time>
      </trkpt>
      <trkpt lat="47.87418" lon="6.81533">
        <ele>826.1</ele>
        <time>2022-09-13T13:14:56Z</time>
      </trkpt>
      <trkpt lat="47.8742" lon="6.81533">
        <ele>826.3</ele>
        <time>2022-09-13T13:14:57Z</time>
      </trkpt>
      <trkpt lat="47.87422" lon="6.81532">
        <ele>826.4</ele>
        <time>2022-09-13T13:14:58Z</time>
      </trkpt>
      <trkpt lat="47.87424" lon="6.81531">
        <ele>826.4</ele>
        <time>2022-09-13T13:14:59Z</time>
      </trkpt>
      <trkpt lat="47.87426" lon="6.8153">
        <ele>826.5</ele>
        <time>2022-09-13T13:15:00Z</time>
      </trkpt>
      <trkpt lat="47.87428" lon="6.81528">
        <ele>826.3</ele>
        <time>2022-09-13T13:15:01Z</time>
      </trkpt>
      <trkpt lat="47.8743" lon="6.81527">
        <ele>826.2</ele>
        <time>2022-09-13T13:15:02Z</time>
      </trkpt>
      <trkpt lat="47.87432" lon="6.81526">
        <ele>826.2</ele>
        <time>2022-09-13T13:15:03Z</time>
      </trkpt>
      <trkpt lat="47.87434" lon="6.81525">
        <ele>826.1</ele>
        <time>2022-09-13T13:15:04Z</time>
      </trkpt>
      <trkpt lat="47.87436" lon="6.81524">
        <ele>826.1</ele>
        <time>2022-09-13T13:15:05Z</time>
      </trkpt>
      <trkpt lat="47.87439" lon="6.81524">
        <ele>826.4</ele>
        <time>2022-09-13T13:15:06Z</time>
      </trkpt>
      <trkpt lat="47.87441" lon="6.81523">
        <ele>826.4</ele>
        <time>2022-09-13T13:15:07Z</time>
      </trkpt>
      <trkpt lat="47.87443" lon="6.81522">
        <ele>826.4</ele>
        <time>2022-09-13T13:15:08Z</time>
      </trkpt>
      <trkpt lat="47.87445" lon="6.81521">
        <ele>826.4</ele>
        <time>2022-09-13T13:15:09Z</time>
      </trkpt>
      <trkpt lat="47.87447" lon="6.8152">
        <ele>826.4</ele>
        <time>2022-09-13T13:15:10Z</time>
      </trkpt>
      <trkpt lat="47.87449" lon="6.81519">
        <ele>826.5</ele>
        <time>2022-09-13T13:15:11Z</time>
      </trkpt>
      <trkpt lat="47.87451" lon="6.81518">
        <ele>826.6</ele>
        <time>2022-09-13T13:15:12Z</time>
      </trkpt>
      <trkpt lat="47.87453" lon="6.81517">
        <ele>826.6</ele>
        <time>2022-09-13T13:15:13Z</time>
      </trkpt>
      <trkpt lat="47.87455" lon="6.81516">
        <ele>826.7</ele>
        <time>2022-09-13T13:15:14Z</time>
      </trkpt>
      <trkpt lat="47.87457" lon="6.81515">
        <ele>826.8</ele>
        <time>2022-09-13T13:15:15Z</time>
      </trkpt>
      <trkpt lat="47.87459" lon="6.81515">
        <ele>827.1</ele>
        <time>2022-09-13T13:15:16Z</time>
      </trkpt>
      <trkpt lat="47.87461" lon="6.81514">
        <ele>827.2</ele>
        <time>2022-09-13T13:15:17Z</time>
      </trkpt>
      <trkpt lat="47.87464" lon="6.81513">
        <ele>827.5</ele>
        <time>2022-09-13T13:15:18Z</time>
      </trkpt>
      <trkpt lat="47.87466" lon="6.81513">
        <ele>827.8</ele>
        <time>2022-09-13T13:15:19Z</time>
      </trkpt>
      <trkpt lat="47.87468" lon="6.81512">
        <ele>827.9</ele>
        <time>2022-09-13T13:15:20Z</time>
      </trkpt>
      <trkpt lat="47.8747" lon="6.81512">
        <ele>828.2</ele>
        <time>2022-09-13T13:15:21Z</time>
      </trkpt>
      <trkpt lat="47.87472" lon="6.81511">
        <ele>828.3</ele>
        <time>2022-09-13T13:15:22Z</time>
      </trkpt>
      <trkpt lat="47.87474" lon="6.81511">
        <ele>828.5</ele>
        <time>2022-09-13T13:15:23Z</time>
      </trkpt>
      <trkpt lat="47.87477" lon="6.8151">
        <ele>828.5</ele>
        <time>2022-09-13T13:15:24Z</time>
      </trkpt>
      <trkpt lat="47.87479" lon="6.8151">
        <ele>828.6</ele>
        <time>2022-09-13T13:15:25Z</time>
      </trkpt>
      <trkpt lat="47.87481" lon="6.8151">
        <ele>828.8</ele>
        <time>2022-09-13T13:15:26Z</time>
      </trkpt>
      <trkpt lat="47.87484" lon="6.8151">
        <ele>829</ele>
        <time>2022-09-13T13:15:27Z</time>
      </trkpt>
      <trkpt lat="47.87486" lon="6.8151">
        <ele>829.2</ele>
        <time>2022-09-13T13:15:28Z</time>
      </trkpt>
      <trkpt lat="47.87488" lon="6.8151">
        <ele>829.3</ele>
        <time>2022-09-13T13:15:29Z</time>
      </trkpt>
      <trkpt lat="47.8749" lon="6.8151">
        <ele>829.4</ele>
        <time>2022-09-13T13:15:30Z</time>
      </trkpt>
      <trkpt lat="47.87493" lon="6.8151">
        <ele>829.7</ele>
        <time>2022-09-13T13:15:31Z</time>
      </trkpt>
      <trkpt lat="47.87495" lon="6.8151">
        <ele>829.8</ele>
        <time>2022-09-13T13:15:32Z</time>
      </trkpt>
      <trkpt lat="47.87497" lon="6.81509">
        <ele>829.7</ele>
        <time>2022-09-13T13:15:33Z</time>
      </trkpt>
      <trkpt lat="47.87499" lon="6.81509">
        <ele>829.9</ele>
        <time>2022-09-13T13:15:34Z</time>
      </trkpt>
      <trkpt lat="47.87501" lon="6.81508">
        <ele>829.9</ele>
        <time>2022-09-13T13:15:35Z</time>
      </trkpt>
      <trkpt lat="47.87504" lon="6.81508">
        <ele>830.6</ele>
        <time>2022-09-13T13:15:36Z</time>
      </trkpt>
      <trkpt lat="47.87506" lon="6.81507">
        <ele>830.9</ele>
        <time>2022-09-13T13:15:37Z</time>
      </trkpt>
      <trkpt lat="47.87508" lon="6.81506">
        <ele>831.1</ele>
        <time>2022-09-13T13:15:38Z</time>
      </trkpt>
      <trkpt lat="47.8751" lon="6.81505">
        <ele>831.4</ele>
        <time>2022-09-13T13:15:39Z</time>
      </trkpt>
      <trkpt lat="47.87512" lon="6.81504">
        <ele>831.7</ele>
        <time>2022-09-13T13:15:40Z</time>
      </trkpt>
      <trkpt lat="47.87515" lon="6.81502">
        <ele>832.1</ele>
        <time>2022-09-13T13:15:41Z</time>
      </trkpt>
      <trkpt lat="47.87517" lon="6.81501">
        <ele>832.4</ele>
        <time>2022-09-13T13:15:42Z</time>
      </trkpt>
      <trkpt lat="47.87519" lon="6.81499">
        <ele>832.6</ele>
        <time>2022-09-13T13:15:43Z</time>
      </trkpt>
      <trkpt lat="47.87521" lon="6.81498">
        <ele>832.9</ele>
        <time>2022-09-13T13:15:44Z</time>
      </trkpt>
      <trkpt lat="47.87523" lon="6.81496">
        <ele>833</ele>
        <time>2022-09-13T13:15:45Z</time>
      </trkpt>
      <trkpt lat="47.87525" lon="6.81495">
        <ele>833.5</ele>
        <time>2022-09-13T13:15:46Z</time>
      </trkpt>
      <trkpt lat="47.87528" lon="6.81493">
        <ele>834</ele>
        <time>2022-09-13T13:15:47Z</time>
      </trkpt>
      <trkpt lat="47.8753" lon="6.81492">
        <ele>834.2</ele>
        <time>2022-09-13T13:15:48Z</time>
      </trkpt>
      <trkpt lat="47.87532" lon="6.8149">
        <ele>834.3</ele>
        <time>2022-09-13T13:15:49Z</time>
      </trkpt>
      <trkpt lat="47.87534" lon="6.81489">
        <ele>834.6</ele>
        <time>2022-09-13T13:15:50Z</time>
      </trkpt>
      <trkpt lat="47.87537" lon="6.81487">
        <ele>834.9</ele>
        <time>2022-09-13T13:15:51Z</time>
      </trkpt>
      <trkpt lat="47.87539" lon="6.81486">
        <ele>835.2</ele>
        <time>2022-09-13T13:15:52Z</time>
      </trkpt>
      <trkpt lat="47.87541" lon="6.81484">
        <ele>835.4</ele>
        <time>2022-09-13T13:15:53Z</time>
      </trkpt>
      <trkpt lat="47.87543" lon="6.81482">
        <ele>835.7</ele>
        <time>2022-09-13T13:15:54Z</time>
      </trkpt>
      <trkpt lat="47.87545" lon="6.8148">
        <ele>835.9</ele>
        <time>2022-09-13T13:15:55Z</time>
      </trkpt>
      <trkpt lat="47.87547" lon="6.81478">
        <ele>836.2</ele>
        <time>2022-09-13T13:15:56Z</time>
      </trkpt>
      <trkpt lat="47.87549" lon="6.81476">
        <ele>836.6</ele>
        <time>2022-09-13T13:15:57Z</time>
      </trkpt>
      <trkpt lat="47.8755" lon="6.81474">
        <ele>836.7</ele>
        <time>2022-09-13T13:15:58Z</time>
      </trkpt>
      <trkpt lat="47.87552" lon="6.81471">
        <ele>837</ele>
        <time>2022-09-13T13:15:59Z</time>
      </trkpt>
      <trkpt lat="47.87554" lon="6.81468">
        <ele>837.4</ele>
        <time>2022-09-13T13:16:00Z</time>
      </trkpt>
      <trkpt lat="47.87555" lon="6.81466">
        <ele>837.6</ele>
        <time>2022-09-13T13:16:01Z</time>
      </trkpt>
      <trkpt lat="47.87557" lon="6.81463">
        <ele>837.9</ele>
        <time>2022-09-13T13:16:02Z</time>
      </trkpt>
      <trkpt lat="47.87558" lon="6.8146">
        <ele>838</ele>
        <time>2022-09-13T13:16:03Z</time>
      </trkpt>
      <trkpt lat="47.87559" lon="6.81457">
        <ele>838</ele>
        <time>2022-09-13T13:16:04Z</time>
      </trkpt>
      <trkpt lat="47.87561" lon="6.81455">
        <ele>838.3</ele>
        <time>2022-09-13T13:16:05Z</time>
      </trkpt>
      <trkpt lat="47.87562" lon="6.81452">
        <ele>838.4</ele>
        <time>2022-09-13T13:16:06Z</time>
      </trkpt>
      <trkpt lat="47.87563" lon="6.81449">
        <ele>838.5</ele>
        <time>2022-09-13T13:16:07Z</time>
      </trkpt>
      <trkpt lat="47.87565" lon="6.81446">
        <ele>838.7</ele>
        <time>2022-09-13T13:16:08Z</time>
      </trkpt>
      <trkpt lat="47.87566" lon="6.81444">
        <ele>838.9</ele>
        <time>2022-09-13T13:16:09Z</time>
      </trkpt>
      <trkpt lat="47.87567" lon="6.81441">
        <ele>838.8</ele>
        <time>2022-09-13T13:16:10Z</time>
      </trkpt>
      <trkpt lat="47.87568" lon="6.81439">
        <ele>838.9</ele>
        <time>2022-09-13T13:16:11Z</time>
      </trkpt>
      <trkpt lat="47.87569" lon="6.81437">
        <ele>838.9</ele>
        <time>2022-09-13T13:16:12Z</time>
      </trkpt>
      <trkpt lat="47.8757" lon="6.81435">
        <ele>838.9</ele>
        <time>2022-09-13T13:16:13Z</time>
      </trkpt>
      <trkpt lat="47.87571" lon="6.81433">
        <ele>838.9</ele>
        <time>2022-09-13T13:16:14Z</time>
      </trkpt>
      <trkpt lat="47.87572" lon="6.81432">
        <ele>839</ele>
        <time>2022-09-13T13:16:15Z</time>
      </trkpt>
      <trkpt lat="47.87572" lon="6.8143">
        <ele>838.8</ele>
        <time>2022-09-13T13:18:11Z</time>
      </trkpt>
      <trkpt lat="47.87572" lon="6.81428">
        <ele>838.7</ele>
        <time>2022-09-13T13:18:12Z</time>
      </trkpt>
      <trkpt lat="47.87573" lon="6.81427">
        <ele>838.7</ele>
        <time>2022-09-13T13:18:13Z</time>
      </trkpt>
      <trkpt lat="47.87573" lon="6.81425">
        <ele>838.6</ele>
        <time>2022-09-13T13:18:14Z</time>
      </trkpt>
      <trkpt lat="47.87574" lon="6.81424">
        <ele>838.6</ele>
        <time>2022-09-13T13:18:15Z</time>
      </trkpt>
      <trkpt lat="47.87574" lon="6.81423">
        <ele>838.5</ele>
        <time>2022-09-13T13:18:16Z</time>
      </trkpt>
      <trkpt lat="47.87575" lon="6.81422">
        <ele>838.6</ele>
        <time>2022-09-13T13:18:17Z</time>
      </trkpt>
      <trkpt lat="47.87576" lon="6.8142">
        <ele>838.5</ele>
        <time>2022-09-13T13:18:18Z</time>
      </trkpt>
      <trkpt lat="47.87577" lon="6.81419">
        <ele>838.5</ele>
        <time>2022-09-13T13:18:19Z</time>
      </trkpt>
      <trkpt lat="47.87578" lon="6.81418">
        <ele>838.5</ele>
        <time>2022-09-13T13:18:20Z</time>
      </trkpt>
      <trkpt lat="47.87579" lon="6.81417">
        <ele>838.6</ele>
        <time>2022-09-13T13:18:21Z</time>
      </trkpt>
      <trkpt lat="47.87581" lon="6.81416">
        <ele>838.7</ele>
        <time>2022-09-13T13:18:22Z</time>
      </trkpt>
      <trkpt lat="47.87583" lon="6.81416">
        <ele>838.9</ele>
        <time>2022-09-13T13:18:23Z</time>
      </trkpt>
      <trkpt lat="47.87586" lon="6.81416">
        <ele>838.7</ele>
        <time>2022-09-13T13:18:24Z</time>
      </trkpt>
      <trkpt lat="47.87588" lon="6.81417">
        <ele>838.7</ele>
        <time>2022-09-13T13:18:25Z</time>
      </trkpt>
      <trkpt lat="47.8759" lon="6.81418">
        <ele>838.6</ele>
        <time>2022-09-13T13:18:26Z</time>
      </trkpt>
      <trkpt lat="47.87592" lon="6.81421">
        <ele>838.7</ele>
        <time>2022-09-13T13:18:27Z</time>
      </trkpt>
      <trkpt lat="47.87595" lon="6.81425">
        <ele>838.7</ele>
        <time>2022-09-13T13:18:28Z</time>
      </trkpt>
      <trkpt lat="47.87598" lon="6.8143">
        <ele>838.6</ele>
        <time>2022-09-13T13:18:29Z</time>
      </trkpt>
      <trkpt lat="47.876" lon="6.81434">
        <ele>838.5</ele>
        <time>2022-09-13T13:18:30Z</time>
      </trkpt>
      <trkpt lat="47.87601" lon="6.81439">
        <ele>838.6</ele>
        <time>2022-09-13T13:18:31Z</time>
      </trkpt>
      <trkpt lat="47.87603" lon="6.81443">
        <ele>838.4</ele>
        <time>2022-09-13T13:18:32Z</time>
      </trkpt>
      <trkpt lat="47.87604" lon="6.81448">
        <ele>838.3</ele>
        <time>2022-09-13T13:18:33Z</time>
      </trkpt>
      <trkpt lat="47.87605" lon="6.81453">
        <ele>838.1</ele>
        <time>2022-09-13T13:18:34Z</time>
      </trkpt>
      <trkpt lat="47.87606" lon="6.81458">
        <ele>837.9</ele>
        <time>2022-09-13T13:18:35Z</time>
      </trkpt>
      <trkpt lat="47.87607" lon="6.81462">
        <ele>837.7</ele>
        <time>2022-09-13T13:18:36Z</time>
      </trkpt>
      <trkpt lat="47.87608" lon="6.81467">
        <ele>837.6</ele>
        <time>2022-09-13T13:18:37Z</time>
      </trkpt>
      <trkpt lat="47.87609" lon="6.81472">
        <ele>837.4</ele>
        <time>2022-09-13T13:18:38Z</time>
      </trkpt>
      <trkpt lat="47.8761" lon="6.81476">
        <ele>837.3</ele>
        <time>2022-09-13T13:18:39Z</time>
      </trkpt>
      <trkpt lat="47.87611" lon="6.8148">
        <ele>837.3</ele>
        <time>2022-09-13T13:18:40Z</time>
      </trkpt>
      <trkpt lat="47.87611" lon="6.81482">
        <ele>837.4</ele>
        <time>2022-09-13T13:18:41Z</time>
      </trkpt>
      <trkpt lat="47.87611" lon="6.81485">
        <ele>837.5</ele>
        <time>2022-09-13T13:18:42Z</time>
      </trkpt>
      <trkpt lat="47.87611" lon="6.81488">
        <ele>837.6</ele>
        <time>2022-09-13T13:18:43Z</time>
      </trkpt>
      <trkpt lat="47.87611" lon="6.81492">
        <ele>837.7</ele>
        <time>2022-09-13T13:18:44Z</time>
      </trkpt>
      <trkpt lat="47.87611" lon="6.81495">
        <ele>837.8</ele>
        <time>2022-09-13T13:18:45Z</time>
      </trkpt>
      <trkpt lat="47.8761" lon="6.81499">
        <ele>838.1</ele>
        <time>2022-09-13T13:18:46Z</time>
      </trkpt>
      <trkpt lat="47.8761" lon="6.81502">
        <ele>838</ele>
        <time>2022-09-13T13:18:47Z</time>
      </trkpt>
      <trkpt lat="47.87609" lon="6.81506">
        <ele>837.9</ele>
        <time>2022-09-13T13:18:48Z</time>
      </trkpt>
      <trkpt lat="47.87608" lon="6.81512">
        <ele>837.6</ele>
        <time>2022-09-13T13:18:49Z</time>
      </trkpt>
      <trkpt lat="47.87608" lon="6.81514">
        <ele>837.5</ele>
        <time>2022-09-13T13:18:50Z</time>
      </trkpt>
      <trkpt lat="47.87607" lon="6.81517">
        <ele>837.5</ele>
        <time>2022-09-13T13:18:51Z</time>
      </trkpt>
      <trkpt lat="47.87606" lon="6.81521">
        <ele>837.4</ele>
        <time>2022-09-13T13:18:52Z</time>
      </trkpt>
      <trkpt lat="47.87605" lon="6.81524">
        <ele>837.3</ele>
        <time>2022-09-13T13:18:53Z</time>
      </trkpt>
      <trkpt lat="47.87604" lon="6.81527">
        <ele>837.3</ele>
        <time>2022-09-13T13:18:54Z</time>
      </trkpt>
      <trkpt lat="47.87604" lon="6.8153">
        <ele>837</ele>
        <time>2022-09-13T13:18:55Z</time>
      </trkpt>
      <trkpt lat="47.87603" lon="6.81533">
        <ele>836.7</ele>
        <time>2022-09-13T13:18:56Z</time>
      </trkpt>
      <trkpt lat="47.87602" lon="6.81536">
        <ele>836.5</ele>
        <time>2022-09-13T13:18:57Z</time>
      </trkpt>
      <trkpt lat="47.87601" lon="6.81538">
        <ele>836.3</ele>
        <time>2022-09-13T13:18:58Z</time>
      </trkpt>
      <trkpt lat="47.87601" lon="6.8154">
        <ele>836.1</ele>
        <time>2022-09-13T13:18:59Z</time>
      </trkpt>
      <trkpt lat="47.87599" lon="6.81542">
        <ele>836.1</ele>
        <time>2022-09-13T13:19:00Z</time>
      </trkpt>
      <trkpt lat="47.87597" lon="6.81544">
        <ele>836.2</ele>
        <time>2022-09-13T13:19:01Z</time>
      </trkpt>
      <trkpt lat="47.87594" lon="6.81546">
        <ele>836.5</ele>
        <time>2022-09-13T13:19:02Z</time>
      </trkpt>
      <trkpt lat="47.87589" lon="6.8155">
        <ele>836.8</ele>
        <time>2022-09-13T13:19:03Z</time>
      </trkpt>
      <trkpt lat="47.87586" lon="6.81553">
        <ele>836.9</ele>
        <time>2022-09-13T13:19:04Z</time>
      </trkpt>
      <trkpt lat="47.87584" lon="6.81554">
        <ele>837.1</ele>
        <time>2022-09-13T13:19:05Z</time>
      </trkpt>
      <trkpt lat="47.87581" lon="6.81556">
        <ele>837.2</ele>
        <time>2022-09-13T13:19:06Z</time>
      </trkpt>
      <trkpt lat="47.8758" lon="6.81556">
        <ele>837.3</ele>
        <time>2022-09-13T13:19:07Z</time>
      </trkpt>
      <trkpt lat="47.87578" lon="6.81556">
        <ele>837.5</ele>
        <time>2022-09-13T13:19:08Z</time>
      </trkpt>
      <trkpt lat="47.87576" lon="6.81556">
        <ele>837.7</ele>
        <time>2022-09-13T13:19:09Z</time>
      </trkpt>
      <trkpt lat="47.87574" lon="6.81555">
        <ele>838.1</ele>
        <time>2022-09-13T13:19:10Z</time>
      </trkpt>
      <trkpt lat="47.87572" lon="6.81555">
        <ele>838.3</ele>
        <time>2022-09-13T13:19:11Z</time>
      </trkpt>
      <trkpt lat="47.8757" lon="6.81554">
        <ele>838.6</ele>
        <time>2022-09-13T13:19:12Z</time>
      </trkpt>
      <trkpt lat="47.87567" lon="6.81554">
        <ele>838.9</ele>
        <time>2022-09-13T13:19:13Z</time>
      </trkpt>
      <trkpt lat="47.87565" lon="6.81554">
        <ele>839.1</ele>
        <time>2022-09-13T13:19:14Z</time>
      </trkpt>
      <trkpt lat="47.87563" lon="6.81554">
        <ele>839.3</ele>
        <time>2022-09-13T13:19:15Z</time>
      </trkpt>
      <trkpt lat="47.87561" lon="6.81554">
        <ele>839.5</ele>
        <time>2022-09-13T13:19:16Z</time>
      </trkpt>
      <trkpt lat="47.87559" lon="6.81555">
        <ele>839.6</ele>
        <time>2022-09-13T13:19:17Z</time>
      </trkpt>
      <trkpt lat="47.87558" lon="6.81555">
        <ele>839.7</ele>
        <time>2022-09-13T13:19:18Z</time>
      </trkpt>
      <trkpt lat="47.87557" lon="6.81556">
        <ele>839.9</ele>
        <time>2022-09-13T13:19:19Z</time>
      </trkpt>
      <trkpt lat="47.87556" lon="6.81556">
        <ele>840</ele>
        <time>2022-09-13T13:19:20Z</time>
      </trkpt>
      <trkpt lat="47.87555" lon="6.81558">
        <ele>840.1</ele>
        <time>2022-09-13T13:19:21Z</time>
      </trkpt>
      <trkpt lat="47.87554" lon="6.81559">
        <ele>840.1</ele>
        <time>2022-09-13T13:19:22Z</time>
      </trkpt>
      <trkpt lat="47.87553" lon="6.81561">
        <ele>840.2</ele>
        <time>2022-09-13T13:19:23Z</time>
      </trkpt>
      <trkpt lat="47.87552" lon="6.81563">
        <ele>840.3</ele>
        <time>2022-09-13T13:19:24Z</time>
      </trkpt>
      <trkpt lat="47.87552" lon="6.81565">
        <ele>840.4</ele>
        <time>2022-09-13T13:19:25Z</time>
      </trkpt>
      <trkpt lat="47.87551" lon="6.81567">
        <ele>840.5</ele>
        <time>2022-09-13T13:19:26Z</time>
      </trkpt>
      <trkpt lat="47.87551" lon="6.81569">
        <ele>840.6</ele>
        <time>2022-09-13T13:19:27Z</time>
      </trkpt>
      <trkpt lat="47.87551" lon="6.81571">
        <ele>840.7</ele>
        <time>2022-09-13T13:19:28Z</time>
      </trkpt>
      <trkpt lat="47.87551" lon="6.81573">
        <ele>840.8</ele>
        <time>2022-09-13T13:19:29Z</time>
      </trkpt>
      <trkpt lat="47.8755" lon="6.81576">
        <ele>841</ele>
        <time>2022-09-13T13:19:30Z</time>
      </trkpt>
      <trkpt lat="47.8755" lon="6.81578">
        <ele>841.1</ele>
        <time>2022-09-13T13:19:31Z</time>
      </trkpt>
      <trkpt lat="47.87549" lon="6.8158">
        <ele>841.3</ele>
        <time>2022-09-13T13:19:32Z</time>
      </trkpt>
      <trkpt lat="47.87548" lon="6.81583">
        <ele>841.5</ele>
        <time>2022-09-13T13:19:33Z</time>
      </trkpt>
      <trkpt lat="47.87547" lon="6.81586">
        <ele>841.7</ele>
        <time>2022-09-13T13:19:34Z</time>
      </trkpt>
      <trkpt lat="47.87546" lon="6.81589">
        <ele>842</ele>
        <time>2022-09-13T13:19:35Z</time>
      </trkpt>
      <trkpt lat="47.87546" lon="6.8159">
        <ele>842</ele>
        <time>2022-09-13T13:19:36Z</time>
      </trkpt>
      <trkpt lat="47.87545" lon="6.81592">
        <ele>842.2</ele>
        <time>2022-09-13T13:19:37Z</time>
      </trkpt>
      <trkpt lat="47.87544" lon="6.81594">
        <ele>842.4</ele>
        <time>2022-09-13T13:19:38Z</time>
      </trkpt>
      <trkpt lat="47.87543" lon="6.81597">
        <ele>842.6</ele>
        <time>2022-09-13T13:19:39Z</time>
      </trkpt>
      <trkpt lat="47.87543" lon="6.81599">
        <ele>842.7</ele>
        <time>2022-09-13T13:19:40Z</time>
      </trkpt>
      <trkpt lat="47.87542" lon="6.81601">
        <ele>842.9</ele>
        <time>2022-09-13T13:19:41Z</time>
      </trkpt>
      <trkpt lat="47.87541" lon="6.81604">
        <ele>843.2</ele>
        <time>2022-09-13T13:19:42Z</time>
      </trkpt>
      <trkpt lat="47.87541" lon="6.81607">
        <ele>843.3</ele>
        <time>2022-09-13T13:19:43Z</time>
      </trkpt>
      <trkpt lat="47.8754" lon="6.8161">
        <ele>843.6</ele>
        <time>2022-09-13T13:19:44Z</time>
      </trkpt>
      <trkpt lat="47.8754" lon="6.81613">
        <ele>843.7</ele>
        <time>2022-09-13T13:19:45Z</time>
      </trkpt>
      <trkpt lat="47.87539" lon="6.81616">
        <ele>844</ele>
        <time>2022-09-13T13:19:46Z</time>
      </trkpt>
      <trkpt lat="47.87539" lon="6.81619">
        <ele>844.1</ele>
        <time>2022-09-13T13:19:47Z</time>
      </trkpt>
      <trkpt lat="47.87538" lon="6.81621">
        <ele>844.3</ele>
        <time>2022-09-13T13:19:48Z</time>
      </trkpt>
      <trkpt lat="47.87537" lon="6.81623">
        <ele>844.6</ele>
        <time>2022-09-13T13:19:49Z</time>
      </trkpt>
      <trkpt lat="47.87536" lon="6.81626">
        <ele>844.9</ele>
        <time>2022-09-13T13:19:50Z</time>
      </trkpt>
      <trkpt lat="47.87536" lon="6.81629">
        <ele>845.1</ele>
        <time>2022-09-13T13:19:51Z</time>
      </trkpt>
      <trkpt lat="47.87535" lon="6.81631">
        <ele>845.4</ele>
        <time>2022-09-13T13:19:52Z</time>
      </trkpt>
      <trkpt lat="47.87534" lon="6.81634">
        <ele>845.9</ele>
        <time>2022-09-13T13:19:53Z</time>
      </trkpt>
      <trkpt lat="47.87533" lon="6.81637">
        <ele>846.4</ele>
        <time>2022-09-13T13:19:54Z</time>
      </trkpt>
      <trkpt lat="47.87532" lon="6.81639">
        <ele>846.8</ele>
        <time>2022-09-13T13:19:55Z</time>
      </trkpt>
      <trkpt lat="47.87532" lon="6.81641">
        <ele>846.7</ele>
        <time>2022-09-13T13:19:56Z</time>
      </trkpt>
      <trkpt lat="47.87531" lon="6.81644">
        <ele>847</ele>
        <time>2022-09-13T13:19:57Z</time>
      </trkpt>
      <trkpt lat="47.8753" lon="6.81645">
        <ele>847.3</ele>
        <time>2022-09-13T13:19:58Z</time>
      </trkpt>
      <trkpt lat="47.8753" lon="6.81648">
        <ele>847.3</ele>
        <time>2022-09-13T13:19:59Z</time>
      </trkpt>
      <trkpt lat="47.8753" lon="6.8165">
        <ele>847.2</ele>
        <time>2022-09-13T13:20:00Z</time>
      </trkpt>
      <trkpt lat="47.87529" lon="6.81652">
        <ele>847.6</ele>
        <time>2022-09-13T13:20:01Z</time>
      </trkpt>
      <trkpt lat="47.87529" lon="6.81654">
        <ele>847.6</ele>
        <time>2022-09-13T13:20:02Z</time>
      </trkpt>
      <trkpt lat="47.87528" lon="6.81656">
        <ele>847.9</ele>
        <time>2022-09-13T13:20:03Z</time>
      </trkpt>
      <trkpt lat="47.87527" lon="6.81659">
        <ele>848.2</ele>
        <time>2022-09-13T13:20:04Z</time>
      </trkpt>
      <trkpt lat="47.87527" lon="6.81661">
        <ele>848.2</ele>
        <time>2022-09-13T13:20:05Z</time>
      </trkpt>
      <trkpt lat="47.87526" lon="6.81663">
        <ele>848.4</ele>
        <time>2022-09-13T13:20:06Z</time>
      </trkpt>
      <trkpt lat="47.87525" lon="6.81665">
        <ele>848.7</ele>
        <time>2022-09-13T13:20:07Z</time>
      </trkpt>
      <trkpt lat="47.87525" lon="6.81667">
        <ele>848.7</ele>
        <time>2022-09-13T13:20:08Z</time>
      </trkpt>
      <trkpt lat="47.87524" lon="6.8167">
        <ele>848.6</ele>
        <time>2022-09-13T13:20:09Z</time>
      </trkpt>
      <trkpt lat="47.87523" lon="6.81673">
        <ele>848.6</ele>
        <time>2022-09-13T13:20:10Z</time>
      </trkpt>
      <trkpt lat="47.87523" lon="6.81676">
        <ele>848.4</ele>
        <time>2022-09-13T13:20:11Z</time>
      </trkpt>
      <trkpt lat="47.87522" lon="6.81678">
        <ele>848.5</ele>
        <time>2022-09-13T13:20:12Z</time>
      </trkpt>
      <trkpt lat="47.87522" lon="6.8168">
        <ele>848.3</ele>
        <time>2022-09-13T13:20:13Z</time>
      </trkpt>
      <trkpt lat="47.87522" lon="6.81682">
        <ele>848.1</ele>
        <time>2022-09-13T13:20:14Z</time>
      </trkpt>
      <trkpt lat="47.87521" lon="6.81684">
        <ele>848.3</ele>
        <time>2022-09-13T13:20:15Z</time>
      </trkpt>
      <trkpt lat="47.8752" lon="6.81686">
        <ele>848.5</ele>
        <time>2022-09-13T13:20:16Z</time>
      </trkpt>
      <trkpt lat="47.8752" lon="6.81689">
        <ele>848.2</ele>
        <time>2022-09-13T13:20:17Z</time>
      </trkpt>
      <trkpt lat="47.87519" lon="6.81692">
        <ele>848.3</ele>
        <time>2022-09-13T13:20:18Z</time>
      </trkpt>
      <trkpt lat="47.87518" lon="6.81695">
        <ele>848.5</ele>
        <time>2022-09-13T13:20:19Z</time>
      </trkpt>
      <trkpt lat="47.87516" lon="6.81698">
        <ele>848.8</ele>
        <time>2022-09-13T13:20:20Z</time>
      </trkpt>
      <trkpt lat="47.87515" lon="6.817">
        <ele>849</ele>
        <time>2022-09-13T13:20:21Z</time>
      </trkpt>
      <trkpt lat="47.87514" lon="6.81702">
        <ele>849.1</ele>
        <time>2022-09-13T13:20:22Z</time>
      </trkpt>
      <trkpt lat="47.87513" lon="6.81705">
        <ele>849.2</ele>
        <time>2022-09-13T13:20:23Z</time>
      </trkpt>
      <trkpt lat="47.87513" lon="6.81708">
        <ele>848.9</ele>
        <time>2022-09-13T13:20:24Z</time>
      </trkpt>
      <trkpt lat="47.87512" lon="6.81711">
        <ele>849</ele>
        <time>2022-09-13T13:20:25Z</time>
      </trkpt>
      <trkpt lat="47.87511" lon="6.81713">
        <ele>849.2</ele>
        <time>2022-09-13T13:20:26Z</time>
      </trkpt>
      <trkpt lat="47.8751" lon="6.81716">
        <ele>849.3</ele>
        <time>2022-09-13T13:20:27Z</time>
      </trkpt>
      <trkpt lat="47.8751" lon="6.81719">
        <ele>849</ele>
        <time>2022-09-13T13:20:28Z</time>
      </trkpt>
      <trkpt lat="47.87509" lon="6.81722">
        <ele>849.1</ele>
        <time>2022-09-13T13:20:29Z</time>
      </trkpt>
      <trkpt lat="47.87508" lon="6.81724">
        <ele>849.3</ele>
        <time>2022-09-13T13:20:30Z</time>
      </trkpt>
      <trkpt lat="47.87507" lon="6.81727">
        <ele>849.4</ele>
        <time>2022-09-13T13:20:31Z</time>
      </trkpt>
      <trkpt lat="47.87507" lon="6.8173">
        <ele>849.1</ele>
        <time>2022-09-13T13:20:32Z</time>
      </trkpt>
      <trkpt lat="47.87506" lon="6.81733">
        <ele>849.2</ele>
        <time>2022-09-13T13:20:33Z</time>
      </trkpt>
      <trkpt lat="47.87506" lon="6.81736">
        <ele>848.8</ele>
        <time>2022-09-13T13:20:34Z</time>
      </trkpt>
      <trkpt lat="47.87506" lon="6.81739">
        <ele>848.5</ele>
        <time>2022-09-13T13:20:35Z</time>
      </trkpt>
      <trkpt lat="47.87505" lon="6.81742">
        <ele>848.6</ele>
        <time>2022-09-13T13:20:36Z</time>
      </trkpt>
      <trkpt lat="47.87505" lon="6.81744">
        <ele>848.3</ele>
        <time>2022-09-13T13:20:37Z</time>
      </trkpt>
      <trkpt lat="47.87504" lon="6.81747">
        <ele>848.5</ele>
        <time>2022-09-13T13:20:38Z</time>
      </trkpt>
      <trkpt lat="47.87504" lon="6.81749">
        <ele>848.2</ele>
        <time>2022-09-13T13:20:39Z</time>
      </trkpt>
      <trkpt lat="47.87504" lon="6.81751">
        <ele>848</ele>
        <time>2022-09-13T13:20:40Z</time>
      </trkpt>
      <trkpt lat="47.87503" lon="6.81753">
        <ele>848.3</ele>
        <time>2022-09-13T13:20:41Z</time>
      </trkpt>
      <trkpt lat="47.87503" lon="6.81756">
        <ele>847.9</ele>
        <time>2022-09-13T13:20:42Z</time>
      </trkpt>
      <trkpt lat="47.87502" lon="6.81758">
        <ele>848.2</ele>
        <time>2022-09-13T13:20:43Z</time>
      </trkpt>
      <trkpt lat="47.87501" lon="6.81762">
        <ele>848.2</ele>
        <time>2022-09-13T13:20:44Z</time>
      </trkpt>
      <trkpt lat="47.875" lon="6.81765">
        <ele>848.4</ele>
        <time>2022-09-13T13:20:45Z</time>
      </trkpt>
      <trkpt lat="47.87499" lon="6.81768">
        <ele>848.4</ele>
        <time>2022-09-13T13:20:46Z</time>
      </trkpt>
      <trkpt lat="47.87498" lon="6.81771">
        <ele>848.4</ele>
        <time>2022-09-13T13:20:47Z</time>
      </trkpt>
      <trkpt lat="47.87497" lon="6.81774">
        <ele>848.4</ele>
        <time>2022-09-13T13:20:48Z</time>
      </trkpt>
      <trkpt lat="47.87496" lon="6.81776">
        <ele>848.5</ele>
        <time>2022-09-13T13:20:49Z</time>
      </trkpt>
      <trkpt lat="47.87495" lon="6.81779">
        <ele>848.5</ele>
        <time>2022-09-13T13:20:50Z</time>
      </trkpt>
      <trkpt lat="47.87494" lon="6.81782">
        <ele>848.7</ele>
        <time>2022-09-13T13:20:51Z</time>
      </trkpt>
      <trkpt lat="47.87494" lon="6.81785">
        <ele>848.5</ele>
        <time>2022-09-13T13:20:52Z</time>
      </trkpt>
      <trkpt lat="47.87493" lon="6.81788">
        <ele>848.7</ele>
        <time>2022-09-13T13:20:53Z</time>
      </trkpt>
      <trkpt lat="47.87492" lon="6.81791">
        <ele>848.9</ele>
        <time>2022-09-13T13:20:54Z</time>
      </trkpt>
      <trkpt lat="47.87491" lon="6.81795">
        <ele>849.1</ele>
        <time>2022-09-13T13:20:55Z</time>
      </trkpt>
      <trkpt lat="47.87491" lon="6.81797">
        <ele>849</ele>
        <time>2022-09-13T13:20:56Z</time>
      </trkpt>
      <trkpt lat="47.8749" lon="6.818">
        <ele>849.2</ele>
        <time>2022-09-13T13:20:57Z</time>
      </trkpt>
      <trkpt lat="47.8749" lon="6.81804">
        <ele>849</ele>
        <time>2022-09-13T13:20:58Z</time>
      </trkpt>
      <trkpt lat="47.8749" lon="6.81807">
        <ele>848.9</ele>
        <time>2022-09-13T13:20:59Z</time>
      </trkpt>
      <trkpt lat="47.8749" lon="6.8181">
        <ele>848.8</ele>
        <time>2022-09-13T13:21:00Z</time>
      </trkpt>
      <trkpt lat="47.8749" lon="6.81813">
        <ele>848.7</ele>
        <time>2022-09-13T13:21:01Z</time>
      </trkpt>
      <trkpt lat="47.87489" lon="6.81816">
        <ele>849</ele>
        <time>2022-09-13T13:21:02Z</time>
      </trkpt>
      <trkpt lat="47.87489" lon="6.81819">
        <ele>848.9</ele>
        <time>2022-09-13T13:21:03Z</time>
      </trkpt>
      <trkpt lat="47.87489" lon="6.81822">
        <ele>848.8</ele>
        <time>2022-09-13T13:21:04Z</time>
      </trkpt>
      <trkpt lat="47.87489" lon="6.81825">
        <ele>848.7</ele>
        <time>2022-09-13T13:21:05Z</time>
      </trkpt>
      <trkpt lat="47.87489" lon="6.81828">
        <ele>848.5</ele>
        <time>2022-09-13T13:21:06Z</time>
      </trkpt>
      <trkpt lat="47.87489" lon="6.81831">
        <ele>848.4</ele>
        <time>2022-09-13T13:21:07Z</time>
      </trkpt>
      <trkpt lat="47.87489" lon="6.81834">
        <ele>848.3</ele>
        <time>2022-09-13T13:21:08Z</time>
      </trkpt>
      <trkpt lat="47.87488" lon="6.81838">
        <ele>848.6</ele>
        <time>2022-09-13T13:21:09Z</time>
      </trkpt>
      <trkpt lat="47.87488" lon="6.81841">
        <ele>848.4</ele>
        <time>2022-09-13T13:21:10Z</time>
      </trkpt>
      <trkpt lat="47.87487" lon="6.81845">
        <ele>848.7</ele>
        <time>2022-09-13T13:21:11Z</time>
      </trkpt>
      <trkpt lat="47.87487" lon="6.81848">
        <ele>848.6</ele>
        <time>2022-09-13T13:21:12Z</time>
      </trkpt>
      <trkpt lat="47.87487" lon="6.81852">
        <ele>848.4</ele>
        <time>2022-09-13T13:21:13Z</time>
      </trkpt>
      <trkpt lat="47.87486" lon="6.81855">
        <ele>848.8</ele>
        <time>2022-09-13T13:21:14Z</time>
      </trkpt>
      <trkpt lat="47.87486" lon="6.81859">
        <ele>848.6</ele>
        <time>2022-09-13T13:21:15Z</time>
      </trkpt>
      <trkpt lat="47.87486" lon="6.81863">
        <ele>848.5</ele>
        <time>2022-09-13T13:21:16Z</time>
      </trkpt>
      <trkpt lat="47.87486" lon="6.81866">
        <ele>848.4</ele>
        <time>2022-09-13T13:21:17Z</time>
      </trkpt>
      <trkpt lat="47.87486" lon="6.8187">
        <ele>848.2</ele>
        <time>2022-09-13T13:21:18Z</time>
      </trkpt>
      <trkpt lat="47.87487" lon="6.81874">
        <ele>847.6</ele>
        <time>2022-09-13T13:21:19Z</time>
      </trkpt>
      <trkpt lat="47.87488" lon="6.81877">
        <ele>847</ele>
        <time>2022-09-13T13:21:20Z</time>
      </trkpt>
      <trkpt lat="47.87488" lon="6.8188">
        <ele>846.9</ele>
        <time>2022-09-13T13:21:21Z</time>
      </trkpt>
      <trkpt lat="47.87489" lon="6.81884">
        <ele>846.3</ele>
        <time>2022-09-13T13:21:22Z</time>
      </trkpt>
      <trkpt lat="47.87489" lon="6.81887">
        <ele>846.2</ele>
        <time>2022-09-13T13:21:23Z</time>
      </trkpt>
      <trkpt lat="47.87489" lon="6.8189">
        <ele>846.1</ele>
        <time>2022-09-13T13:21:24Z</time>
      </trkpt>
      <trkpt lat="47.87488" lon="6.81893">
        <ele>846.6</ele>
        <time>2022-09-13T13:21:25Z</time>
      </trkpt>
      <trkpt lat="47.87488" lon="6.81896">
        <ele>846.6</ele>
        <time>2022-09-13T13:21:26Z</time>
      </trkpt>
      <trkpt lat="47.87488" lon="6.81899">
        <ele>846.6</ele>
        <time>2022-09-13T13:21:27Z</time>
      </trkpt>
      <trkpt lat="47.87487" lon="6.81902">
        <ele>847.1</ele>
        <time>2022-09-13T13:21:28Z</time>
      </trkpt>
      <trkpt lat="47.87486" lon="6.81905">
        <ele>847.6</ele>
        <time>2022-09-13T13:21:29Z</time>
      </trkpt>
      <trkpt lat="47.87486" lon="6.81909">
        <ele>847.6</ele>
        <time>2022-09-13T13:21:30Z</time>
      </trkpt>
      <trkpt lat="47.87485" lon="6.81912">
        <ele>848</ele>
        <time>2022-09-13T13:21:31Z</time>
      </trkpt>
      <trkpt lat="47.87485" lon="6.81915">
        <ele>848</ele>
        <time>2022-09-13T13:21:32Z</time>
      </trkpt>
      <trkpt lat="47.87484" lon="6.81918">
        <ele>848.5</ele>
        <time>2022-09-13T13:21:33Z</time>
      </trkpt>
      <trkpt lat="47.87484" lon="6.81921">
        <ele>848.5</ele>
        <time>2022-09-13T13:21:34Z</time>
      </trkpt>
      <trkpt lat="47.87483" lon="6.81924">
        <ele>848.9</ele>
        <time>2022-09-13T13:21:35Z</time>
      </trkpt>
      <trkpt lat="47.87483" lon="6.81927">
        <ele>848.9</ele>
        <time>2022-09-13T13:21:36Z</time>
      </trkpt>
      <trkpt lat="47.87483" lon="6.8193">
        <ele>848.8</ele>
        <time>2022-09-13T13:21:37Z</time>
      </trkpt>
      <trkpt lat="47.87483" lon="6.81931">
        <ele>848.8</ele>
        <time>2022-09-13T13:21:38Z</time>
      </trkpt>
      <trkpt lat="47.87483" lon="6.81932">
        <ele>848.8</ele>
        <time>2022-09-13T13:21:48Z</time>
      </trkpt>
      <trkpt lat="47.87483" lon="6.81933">
        <ele>848.8</ele>
        <time>2022-09-13T13:21:49Z</time>
      </trkpt>
      <trkpt lat="47.87484" lon="6.81935">
        <ele>848.4</ele>
        <time>2022-09-13T13:21:50Z</time>
      </trkpt>
      <trkpt lat="47.87484" lon="6.81936">
        <ele>848.4</ele>
        <time>2022-09-13T13:21:51Z</time>
      </trkpt>
      <trkpt lat="47.87484" lon="6.81938">
        <ele>848.4</ele>
        <time>2022-09-13T13:21:52Z</time>
      </trkpt>
      <trkpt lat="47.87484" lon="6.81941">
        <ele>848.4</ele>
        <time>2022-09-13T13:21:53Z</time>
      </trkpt>
      <trkpt lat="47.87484" lon="6.81945">
        <ele>848.3</ele>
        <time>2022-09-13T13:21:54Z</time>
      </trkpt>
      <trkpt lat="47.87484" lon="6.81948">
        <ele>848.4</ele>
        <time>2022-09-13T13:21:55Z</time>
      </trkpt>
      <trkpt lat="47.87484" lon="6.81952">
        <ele>848.4</ele>
        <time>2022-09-13T13:21:56Z</time>
      </trkpt>
      <trkpt lat="47.87484" lon="6.81955">
        <ele>848.4</ele>
        <time>2022-09-13T13:21:57Z</time>
      </trkpt>
      <trkpt lat="47.87485" lon="6.81959">
        <ele>848.1</ele>
        <time>2022-09-13T13:21:58Z</time>
      </trkpt>
      <trkpt lat="47.87485" lon="6.81963">
        <ele>848.2</ele>
        <time>2022-09-13T13:21:59Z</time>
      </trkpt>
      <trkpt lat="47.87485" lon="6.8197">
        <ele>848.3</ele>
        <time>2022-09-13T13:22:00Z</time>
      </trkpt>
      <trkpt lat="47.87486" lon="6.81975">
        <ele>848.1</ele>
        <time>2022-09-13T13:22:01Z</time>
      </trkpt>
      <trkpt lat="47.87486" lon="6.8198">
        <ele>848.2</ele>
        <time>2022-09-13T13:22:02Z</time>
      </trkpt>
      <trkpt lat="47.87486" lon="6.81985">
        <ele>848.3</ele>
        <time>2022-09-13T13:22:03Z</time>
      </trkpt>
      <trkpt lat="47.87486" lon="6.81989">
        <ele>848.3</ele>
        <time>2022-09-13T13:22:04Z</time>
      </trkpt>
      <trkpt lat="47.87485" lon="6.81993">
        <ele>848.7</ele>
        <time>2022-09-13T13:22:05Z</time>
      </trkpt>
      <trkpt lat="47.87485" lon="6.81998">
        <ele>848.7</ele>
        <time>2022-09-13T13:22:06Z</time>
      </trkpt>
      <trkpt lat="47.87485" lon="6.82002">
        <ele>848.7</ele>
        <time>2022-09-13T13:22:07Z</time>
      </trkpt>
      <trkpt lat="47.87485" lon="6.82006">
        <ele>848.7</ele>
        <time>2022-09-13T13:22:08Z</time>
      </trkpt>
      <trkpt lat="47.87485" lon="6.8201">
        <ele>848.6</ele>
        <time>2022-09-13T13:22:09Z</time>
      </trkpt>
      <trkpt lat="47.87485" lon="6.82014">
        <ele>848.5</ele>
        <time>2022-09-13T13:22:10Z</time>
      </trkpt>
      <trkpt lat="47.87485" lon="6.82018">
        <ele>848.4</ele>
        <time>2022-09-13T13:22:11Z</time>
      </trkpt>
      <trkpt lat="47.87485" lon="6.8202">
        <ele>848.4</ele>
        <time>2022-09-13T13:22:12Z</time>
      </trkpt>
      <trkpt lat="47.87485" lon="6.82023">
        <ele>848.3</ele>
        <time>2022-09-13T13:22:13Z</time>
      </trkpt>
      <trkpt lat="47.87484" lon="6.82026">
        <ele>848.5</ele>
        <time>2022-09-13T13:22:14Z</time>
      </trkpt>
      <trkpt lat="47.87484" lon="6.82029">
        <ele>848.4</ele>
        <time>2022-09-13T13:22:15Z</time>
      </trkpt>
      <trkpt lat="47.87484" lon="6.82032">
        <ele>848.2</ele>
        <time>2022-09-13T13:22:16Z</time>
      </trkpt>
      <trkpt lat="47.87483" lon="6.82036">
        <ele>848.2</ele>
        <time>2022-09-13T13:22:17Z</time>
      </trkpt>
      <trkpt lat="47.87483" lon="6.82039">
        <ele>848</ele>
        <time>2022-09-13T13:22:18Z</time>
      </trkpt>
      <trkpt lat="47.87482" lon="6.82046">
        <ele>847.8</ele>
        <time>2022-09-13T13:22:19Z</time>
      </trkpt>
      <trkpt lat="47.87481" lon="6.82051">
        <ele>847.7</ele>
        <time>2022-09-13T13:22:20Z</time>
      </trkpt>
      <trkpt lat="47.87481" lon="6.82056">
        <ele>847.4</ele>
        <time>2022-09-13T13:22:21Z</time>
      </trkpt>
      <trkpt lat="47.8748" lon="6.82061">
        <ele>847.7</ele>
        <time>2022-09-13T13:22:22Z</time>
      </trkpt>
      <trkpt lat="47.8748" lon="6.82065">
        <ele>847.8</ele>
        <time>2022-09-13T13:22:23Z</time>
      </trkpt>
      <trkpt lat="47.8748" lon="6.8207">
        <ele>848</ele>
        <time>2022-09-13T13:22:24Z</time>
      </trkpt>
      <trkpt lat="47.8748" lon="6.82074">
        <ele>848.1</ele>
        <time>2022-09-13T13:22:25Z</time>
      </trkpt>
      <trkpt lat="47.8748" lon="6.82078">
        <ele>848.2</ele>
        <time>2022-09-13T13:22:26Z</time>
      </trkpt>
      <trkpt lat="47.8748" lon="6.8208">
        <ele>848.2</ele>
        <time>2022-09-13T13:22:27Z</time>
      </trkpt>
      <trkpt lat="47.8748" lon="6.82083">
        <ele>848.3</ele>
        <time>2022-09-13T13:22:28Z</time>
      </trkpt>
      <trkpt lat="47.8748" lon="6.82086">
        <ele>848.4</ele>
        <time>2022-09-13T13:22:29Z</time>
      </trkpt>
      <trkpt lat="47.8748" lon="6.8209">
        <ele>848.5</ele>
        <time>2022-09-13T13:22:30Z</time>
      </trkpt>
      <trkpt lat="47.8748" lon="6.82093">
        <ele>848.5</ele>
        <time>2022-09-13T13:22:31Z</time>
      </trkpt>
      <trkpt lat="47.8748" lon="6.82095">
        <ele>848.6</ele>
        <time>2022-09-13T13:22:32Z</time>
      </trkpt>
      <trkpt lat="47.8748" lon="6.82098">
        <ele>848.6</ele>
        <time>2022-09-13T13:22:33Z</time>
      </trkpt>
      <trkpt lat="47.8748" lon="6.82101">
        <ele>848.7</ele>
        <time>2022-09-13T13:22:34Z</time>
      </trkpt>
      <trkpt lat="47.87481" lon="6.82105">
        <ele>848.6</ele>
        <time>2022-09-13T13:22:35Z</time>
      </trkpt>
      <trkpt lat="47.87481" lon="6.82108">
        <ele>848.7</ele>
        <time>2022-09-13T13:22:36Z</time>
      </trkpt>
      <trkpt lat="47.87482" lon="6.82111">
        <ele>848.6</ele>
        <time>2022-09-13T13:22:37Z</time>
      </trkpt>
      <trkpt lat="47.87482" lon="6.82115">
        <ele>848.6</ele>
        <time>2022-09-13T13:22:38Z</time>
      </trkpt>
      <trkpt lat="47.87481" lon="6.82119">
        <ele>848.8</ele>
        <time>2022-09-13T13:22:39Z</time>
      </trkpt>
      <trkpt lat="47.87481" lon="6.82122">
        <ele>848.8</ele>
        <time>2022-09-13T13:22:40Z</time>
      </trkpt>
      <trkpt lat="47.8748" lon="6.82126">
        <ele>848.9</ele>
        <time>2022-09-13T13:22:41Z</time>
      </trkpt>
      <trkpt lat="47.87479" lon="6.82129">
        <ele>849</ele>
        <time>2022-09-13T13:22:42Z</time>
      </trkpt>
      <trkpt lat="47.87478" lon="6.82133">
        <ele>849</ele>
        <time>2022-09-13T13:22:43Z</time>
      </trkpt>
      <trkpt lat="47.87477" lon="6.82136">
        <ele>849</ele>
        <time>2022-09-13T13:22:44Z</time>
      </trkpt>
      <trkpt lat="47.87476" lon="6.82138">
        <ele>849</ele>
        <time>2022-09-13T13:22:45Z</time>
      </trkpt>
      <trkpt lat="47.87476" lon="6.82141">
        <ele>849</ele>
        <time>2022-09-13T13:22:46Z</time>
      </trkpt>
      <trkpt lat="47.87475" lon="6.82142">
        <ele>849</ele>
        <time>2022-09-13T13:22:47Z</time>
      </trkpt>
      <trkpt lat="47.87475" lon="6.82143">
        <ele>849</ele>
        <time>2022-09-13T13:23:17Z</time>
      </trkpt>
      <trkpt lat="47.87475" lon="6.82144">
        <ele>849</ele>
        <time>2022-09-13T13:23:18Z</time>
      </trkpt>
      <trkpt lat="47.87475" lon="6.82145">
        <ele>849</ele>
        <time>2022-09-13T13:23:19Z</time>
      </trkpt>
      <trkpt lat="47.87475" lon="6.82146">
        <ele>849</ele>
        <time>2022-09-13T13:23:21Z</time>
      </trkpt>
      <trkpt lat="47.87475" lon="6.82147">
        <ele>849</ele>
        <time>2022-09-13T13:23:22Z</time>
      </trkpt>
      <trkpt lat="47.87476" lon="6.82148">
        <ele>849</ele>
        <time>2022-09-13T13:23:23Z</time>
      </trkpt>
      <trkpt lat="47.87477" lon="6.82149">
        <ele>849.1</ele>
        <time>2022-09-13T13:23:25Z</time>
      </trkpt>
      <trkpt lat="47.87478" lon="6.8215">
        <ele>849.1</ele>
        <time>2022-09-13T13:23:26Z</time>
      </trkpt>
      <trkpt lat="47.87479" lon="6.82151">
        <ele>849.1</ele>
        <time>2022-09-13T13:23:28Z</time>
      </trkpt>
      <trkpt lat="47.8748" lon="6.82152">
        <ele>849.1</ele>
        <time>2022-09-13T13:23:29Z</time>
      </trkpt>
      <trkpt lat="47.87481" lon="6.82153">
        <ele>849.2</ele>
        <time>2022-09-13T13:23:30Z</time>
      </trkpt>
      <trkpt lat="47.87482" lon="6.82155">
        <ele>849.2</ele>
        <time>2022-09-13T13:23:31Z</time>
      </trkpt>
      <trkpt lat="47.87484" lon="6.82157">
        <ele>849.3</ele>
        <time>2022-09-13T13:23:32Z</time>
      </trkpt>
      <trkpt lat="47.87486" lon="6.82159">
        <ele>849.4</ele>
        <time>2022-09-13T13:23:33Z</time>
      </trkpt>
      <trkpt lat="47.87488" lon="6.82161">
        <ele>849.5</ele>
        <time>2022-09-13T13:23:34Z</time>
      </trkpt>
      <trkpt lat="47.8749" lon="6.82163">
        <ele>849.6</ele>
        <time>2022-09-13T13:23:35Z</time>
      </trkpt>
      <trkpt lat="47.87491" lon="6.82165">
        <ele>849.6</ele>
        <time>2022-09-13T13:23:36Z</time>
      </trkpt>
      <trkpt lat="47.87493" lon="6.82167">
        <ele>849.7</ele>
        <time>2022-09-13T13:23:37Z</time>
      </trkpt>
      <trkpt lat="47.87493" lon="6.82168">
        <ele>849.7</ele>
        <time>2022-09-13T13:23:38Z</time>
      </trkpt>
      <trkpt lat="47.87494" lon="6.8217">
        <ele>849.6</ele>
        <time>2022-09-13T13:23:39Z</time>
      </trkpt>
      <trkpt lat="47.87494" lon="6.82172">
        <ele>849.5</ele>
        <time>2022-09-13T13:23:40Z</time>
      </trkpt>
      <trkpt lat="47.87494" lon="6.82174">
        <ele>849.4</ele>
        <time>2022-09-13T13:23:41Z</time>
      </trkpt>
      <trkpt lat="47.87494" lon="6.82175">
        <ele>849.3</ele>
        <time>2022-09-13T13:23:42Z</time>
      </trkpt>
      <trkpt lat="47.87494" lon="6.82177">
        <ele>849.2</ele>
        <time>2022-09-13T13:23:48Z</time>
      </trkpt>
      <trkpt lat="47.87494" lon="6.82178">
        <ele>849.1</ele>
        <time>2022-09-13T13:23:49Z</time>
      </trkpt>
      <trkpt lat="47.87494" lon="6.82179">
        <ele>849.1</ele>
        <time>2022-09-13T13:23:50Z</time>
      </trkpt>
      <trkpt lat="47.87494" lon="6.8218">
        <ele>849</ele>
        <time>2022-09-13T13:23:51Z</time>
      </trkpt>
      <trkpt lat="47.87494" lon="6.82181">
        <ele>849</ele>
        <time>2022-09-13T13:23:52Z</time>
      </trkpt>
      <trkpt lat="47.87494" lon="6.82182">
        <ele>848.9</ele>
        <time>2022-09-13T13:23:53Z</time>
      </trkpt>
      <trkpt lat="47.87494" lon="6.82183">
        <ele>848.9</ele>
        <time>2022-09-13T13:23:54Z</time>
      </trkpt>
      <trkpt lat="47.87495" lon="6.82183">
        <ele>848.9</ele>
        <time>2022-09-13T13:23:55Z</time>
      </trkpt>
      <trkpt lat="47.87496" lon="6.82184">
        <ele>848.8</ele>
        <time>2022-09-13T13:23:56Z</time>
      </trkpt>
      <trkpt lat="47.87497" lon="6.82185">
        <ele>848.7</ele>
        <time>2022-09-13T13:23:57Z</time>
      </trkpt>
      <trkpt lat="47.87498" lon="6.82186">
        <ele>848.6</ele>
        <time>2022-09-13T13:23:58Z</time>
      </trkpt>
      <trkpt lat="47.87499" lon="6.82188">
        <ele>848.5</ele>
        <time>2022-09-13T13:23:59Z</time>
      </trkpt>
      <trkpt lat="47.875" lon="6.82189">
        <ele>848.4</ele>
        <time>2022-09-13T13:24:00Z</time>
      </trkpt>
      <trkpt lat="47.87501" lon="6.8219">
        <ele>848.4</ele>
        <time>2022-09-13T13:24:01Z</time>
      </trkpt>
      <trkpt lat="47.87502" lon="6.82191">
        <ele>848.3</ele>
        <time>2022-09-13T13:24:02Z</time>
      </trkpt>
      <trkpt lat="47.87504" lon="6.82191">
        <ele>848.4</ele>
        <time>2022-09-13T13:24:03Z</time>
      </trkpt>
      <trkpt lat="47.87505" lon="6.82192">
        <ele>848.3</ele>
        <time>2022-09-13T13:24:04Z</time>
      </trkpt>
      <trkpt lat="47.87507" lon="6.82192">
        <ele>848.4</ele>
        <time>2022-09-13T13:24:05Z</time>
      </trkpt>
      <trkpt lat="47.87508" lon="6.82193">
        <ele>848.4</ele>
        <time>2022-09-13T13:24:06Z</time>
      </trkpt>
      <trkpt lat="47.87511" lon="6.82195">
        <ele>848.3</ele>
        <time>2022-09-13T13:24:07Z</time>
      </trkpt>
      <trkpt lat="47.87513" lon="6.82197">
        <ele>848.1</ele>
        <time>2022-09-13T13:24:08Z</time>
      </trkpt>
      <trkpt lat="47.87516" lon="6.82199">
        <ele>848</ele>
        <time>2022-09-13T13:24:09Z</time>
      </trkpt>
      <trkpt lat="47.8752" lon="6.82202">
        <ele>847.7</ele>
        <time>2022-09-13T13:24:10Z</time>
      </trkpt>
      <trkpt lat="47.87523" lon="6.82204">
        <ele>847.5</ele>
        <time>2022-09-13T13:24:11Z</time>
      </trkpt>
      <trkpt lat="47.87525" lon="6.82206">
        <ele>847.3</ele>
        <time>2022-09-13T13:24:12Z</time>
      </trkpt>
      <trkpt lat="47.87526" lon="6.82207">
        <ele>847.2</ele>
        <time>2022-09-13T13:24:13Z</time>
      </trkpt>
      <trkpt lat="47.87528" lon="6.82208">
        <ele>847.1</ele>
        <time>2022-09-13T13:24:14Z</time>
      </trkpt>
      <trkpt lat="47.87529" lon="6.82209">
        <ele>847</ele>
        <time>2022-09-13T13:24:15Z</time>
      </trkpt>
      <trkpt lat="47.87531" lon="6.8221">
        <ele>847</ele>
        <time>2022-09-13T13:24:16Z</time>
      </trkpt>
      <trkpt lat="47.87533" lon="6.82211">
        <ele>847</ele>
        <time>2022-09-13T13:24:17Z</time>
      </trkpt>
      <trkpt lat="47.87534" lon="6.82212">
        <ele>847</ele>
        <time>2022-09-13T13:24:18Z</time>
      </trkpt>
      <trkpt lat="47.87535" lon="6.82213">
        <ele>846.9</ele>
        <time>2022-09-13T13:24:19Z</time>
      </trkpt>
      <trkpt lat="47.87536" lon="6.82215">
        <ele>846.8</ele>
        <time>2022-09-13T13:24:20Z</time>
      </trkpt>
      <trkpt lat="47.87538" lon="6.82216">
        <ele>846.8</ele>
        <time>2022-09-13T13:24:21Z</time>
      </trkpt>
      <trkpt lat="47.8754" lon="6.82217">
        <ele>846.9</ele>
        <time>2022-09-13T13:24:22Z</time>
      </trkpt>
      <trkpt lat="47.87542" lon="6.82219">
        <ele>846.9</ele>
        <time>2022-09-13T13:24:23Z</time>
      </trkpt>
      <trkpt lat="47.87544" lon="6.8222">
        <ele>847</ele>
        <time>2022-09-13T13:24:24Z</time>
      </trkpt>
      <trkpt lat="47.87546" lon="6.82222">
        <ele>847</ele>
        <time>2022-09-13T13:24:25Z</time>
      </trkpt>
      <trkpt lat="47.87547" lon="6.82223">
        <ele>847</ele>
        <time>2022-09-13T13:24:26Z</time>
      </trkpt>
      <trkpt lat="47.87548" lon="6.82225">
        <ele>846.9</ele>
        <time>2022-09-13T13:24:27Z</time>
      </trkpt>
      <trkpt lat="47.87549" lon="6.82226">
        <ele>846.9</ele>
        <time>2022-09-13T13:24:28Z</time>
      </trkpt>
      <trkpt lat="47.87551" lon="6.82228">
        <ele>846.8</ele>
        <time>2022-09-13T13:24:29Z</time>
      </trkpt>
      <trkpt lat="47.87552" lon="6.8223">
        <ele>846.7</ele>
        <time>2022-09-13T13:24:30Z</time>
      </trkpt>
      <trkpt lat="47.87553" lon="6.82232">
        <ele>846.6</ele>
        <time>2022-09-13T13:24:31Z</time>
      </trkpt>
      <trkpt lat="47.87554" lon="6.82234">
        <ele>846.5</ele>
        <time>2022-09-13T13:24:32Z</time>
      </trkpt>
      <trkpt lat="47.87556" lon="6.82236">
        <ele>846.6</ele>
        <time>2022-09-13T13:24:33Z</time>
      </trkpt>
      <trkpt lat="47.87558" lon="6.82238">
        <ele>846.7</ele>
        <time>2022-09-13T13:24:34Z</time>
      </trkpt>
      <trkpt lat="47.8756" lon="6.8224">
        <ele>846.8</ele>
        <time>2022-09-13T13:24:35Z</time>
      </trkpt>
      <trkpt lat="47.87562" lon="6.82241">
        <ele>847</ele>
        <time>2022-09-13T13:24:36Z</time>
      </trkpt>
      <trkpt lat="47.87564" lon="6.82242">
        <ele>847.2</ele>
        <time>2022-09-13T13:24:37Z</time>
      </trkpt>
      <trkpt lat="47.87566" lon="6.82243">
        <ele>847.4</ele>
        <time>2022-09-13T13:24:38Z</time>
      </trkpt>
      <trkpt lat="47.87568" lon="6.82245">
        <ele>847.6</ele>
        <time>2022-09-13T13:24:39Z</time>
      </trkpt>
      <trkpt lat="47.8757" lon="6.82246">
        <ele>847.9</ele>
        <time>2022-09-13T13:24:40Z</time>
      </trkpt>
      <trkpt lat="47.87572" lon="6.82248">
        <ele>848.1</ele>
        <time>2022-09-13T13:24:41Z</time>
      </trkpt>
      <trkpt lat="47.87573" lon="6.8225">
        <ele>848.1</ele>
        <time>2022-09-13T13:24:42Z</time>
      </trkpt>
      <trkpt lat="47.87575" lon="6.82252">
        <ele>848.3</ele>
        <time>2022-09-13T13:24:43Z</time>
      </trkpt>
      <trkpt lat="47.87577" lon="6.82253">
        <ele>848.6</ele>
        <time>2022-09-13T13:24:44Z</time>
      </trkpt>
      <trkpt lat="47.87579" lon="6.82255">
        <ele>848.8</ele>
        <time>2022-09-13T13:24:45Z</time>
      </trkpt>
      <trkpt lat="47.87581" lon="6.82257">
        <ele>849</ele>
        <time>2022-09-13T13:24:46Z</time>
      </trkpt>
      <trkpt lat="47.87583" lon="6.82258">
        <ele>849.4</ele>
        <time>2022-09-13T13:24:47Z</time>
      </trkpt>
      <trkpt lat="47.87584" lon="6.8226">
        <ele>849.4</ele>
        <time>2022-09-13T13:24:48Z</time>
      </trkpt>
      <trkpt lat="47.87585" lon="6.8226">
        <ele>849.6</ele>
        <time>2022-09-13T13:24:49Z</time>
      </trkpt>
      <trkpt lat="47.87586" lon="6.82261">
        <ele>849.7</ele>
        <time>2022-09-13T13:25:43Z</time>
      </trkpt>
      <trkpt lat="47.87587" lon="6.82261">
        <ele>849.9</ele>
        <time>2022-09-13T13:25:44Z</time>
      </trkpt>
      <trkpt lat="47.87588" lon="6.82261">
        <ele>850.1</ele>
        <time>2022-09-13T13:25:45Z</time>
      </trkpt>
      <trkpt lat="47.87589" lon="6.82261">
        <ele>850.3</ele>
        <time>2022-09-13T13:25:46Z</time>
      </trkpt>
      <trkpt lat="47.8759" lon="6.82263">
        <ele>850.4</ele>
        <time>2022-09-13T13:26:13Z</time>
      </trkpt>
      <trkpt lat="47.87591" lon="6.82264">
        <ele>850.5</ele>
        <time>2022-09-13T13:26:14Z</time>
      </trkpt>
      <trkpt lat="47.87592" lon="6.82264">
        <ele>850.7</ele>
        <time>2022-09-13T13:26:15Z</time>
      </trkpt>
      <trkpt lat="47.87593" lon="6.82265">
        <ele>850.9</ele>
        <time>2022-09-13T13:26:16Z</time>
      </trkpt>
      <trkpt lat="47.87593" lon="6.82266">
        <ele>850.8</ele>
        <time>2022-09-13T13:26:17Z</time>
      </trkpt>
      <trkpt lat="47.87594" lon="6.82267">
        <ele>851</ele>
        <time>2022-09-13T13:26:18Z</time>
      </trkpt>
      <trkpt lat="47.87594" lon="6.82268">
        <ele>851</ele>
        <time>2022-09-13T13:26:19Z</time>
      </trkpt>
      <trkpt lat="47.87595" lon="6.82269">
        <ele>851.2</ele>
        <time>2022-09-13T13:26:27Z</time>
      </trkpt>
      <trkpt lat="47.87595" lon="6.8227">
        <ele>851.1</ele>
        <time>2022-09-13T13:26:28Z</time>
      </trkpt>
      <trkpt lat="47.87596" lon="6.8227">
        <ele>851.4</ele>
        <time>2022-09-13T13:26:29Z</time>
      </trkpt>
      <trkpt lat="47.87597" lon="6.82271">
        <ele>851.6</ele>
        <time>2022-09-13T13:26:30Z</time>
      </trkpt>
      <trkpt lat="47.87598" lon="6.82271">
        <ele>851.8</ele>
        <time>2022-09-13T13:26:32Z</time>
      </trkpt>
      <trkpt lat="47.87598" lon="6.82272">
        <ele>851.8</ele>
        <time>2022-09-13T13:26:33Z</time>
      </trkpt>
      <trkpt lat="47.87599" lon="6.82272">
        <ele>852</ele>
        <time>2022-09-13T13:26:34Z</time>
      </trkpt>
      <trkpt lat="47.876" lon="6.82272">
        <ele>852.2</ele>
        <time>2022-09-13T13:26:35Z</time>
      </trkpt>
      <trkpt lat="47.876" lon="6.82273">
        <ele>852.2</ele>
        <time>2022-09-13T13:26:36Z</time>
      </trkpt>
      <trkpt lat="47.87601" lon="6.82273">
        <ele>852.5</ele>
        <time>2022-09-13T13:26:37Z</time>
      </trkpt>
      <trkpt lat="47.87601" lon="6.82274">
        <ele>852.5</ele>
        <time>2022-09-13T13:26:38Z</time>
      </trkpt>
      <trkpt lat="47.87602" lon="6.82274">
        <ele>852.7</ele>
        <time>2022-09-13T13:26:39Z</time>
      </trkpt>
      <trkpt lat="47.87602" lon="6.82275">
        <ele>852.7</ele>
        <time>2022-09-13T13:26:40Z</time>
      </trkpt>
      <trkpt lat="47.87603" lon="6.82275">
        <ele>852.9</ele>
        <time>2022-09-13T13:26:41Z</time>
      </trkpt>
      <trkpt lat="47.87603" lon="6.82276">
        <ele>852.9</ele>
        <time>2022-09-13T13:26:44Z</time>
      </trkpt>
      <trkpt lat="47.87604" lon="6.82276">
        <ele>853.2</ele>
        <time>2022-09-13T13:26:45Z</time>
      </trkpt>
      <trkpt lat="47.87605" lon="6.82277">
        <ele>853.5</ele>
        <time>2022-09-13T13:26:48Z</time>
      </trkpt>
      <trkpt lat="47.87606" lon="6.82277">
        <ele>853.7</ele>
        <time>2022-09-13T13:26:49Z</time>
      </trkpt>
      <trkpt lat="47.87607" lon="6.82278">
        <ele>854</ele>
        <time>2022-09-13T13:26:50Z</time>
      </trkpt>
      <trkpt lat="47.87608" lon="6.82278">
        <ele>854.2</ele>
        <time>2022-09-13T13:26:52Z</time>
      </trkpt>
      <trkpt lat="47.87608" lon="6.82279">
        <ele>854.2</ele>
        <time>2022-09-13T13:26:53Z</time>
      </trkpt>
      <trkpt lat="47.87609" lon="6.8228">
        <ele>854.4</ele>
        <time>2022-09-13T13:27:13Z</time>
      </trkpt>
      <trkpt lat="47.8761" lon="6.82281">
        <ele>854.6</ele>
        <time>2022-09-13T13:27:14Z</time>
      </trkpt>
      <trkpt lat="47.87611" lon="6.82281">
        <ele>854.9</ele>
        <time>2022-09-13T13:27:15Z</time>
      </trkpt>
      <trkpt lat="47.87612" lon="6.82282">
        <ele>855</ele>
        <time>2022-09-13T13:27:16Z</time>
      </trkpt>
      <trkpt lat="47.87613" lon="6.82283">
        <ele>855.2</ele>
        <time>2022-09-13T13:27:47Z</time>
      </trkpt>
      <trkpt lat="47.87614" lon="6.82284">
        <ele>855.3</ele>
        <time>2022-09-13T13:27:48Z</time>
      </trkpt>
      <trkpt lat="47.87615" lon="6.82285">
        <ele>855.5</ele>
        <time>2022-09-13T13:27:49Z</time>
      </trkpt>
      <trkpt lat="47.87616" lon="6.82286">
        <ele>855.7</ele>
        <time>2022-09-13T13:27:50Z</time>
      </trkpt>
      <trkpt lat="47.87617" lon="6.82287">
        <ele>855.9</ele>
        <time>2022-09-13T13:27:56Z</time>
      </trkpt>
      <trkpt lat="47.87618" lon="6.82288">
        <ele>856.1</ele>
        <time>2022-09-13T13:27:57Z</time>
      </trkpt>
      <trkpt lat="47.87618" lon="6.82289">
        <ele>856</ele>
        <time>2022-09-13T13:27:58Z</time>
      </trkpt>
      <trkpt lat="47.87619" lon="6.8229">
        <ele>856.2</ele>
        <time>2022-09-13T13:27:59Z</time>
      </trkpt>
      <trkpt lat="47.8762" lon="6.8229">
        <ele>856.4</ele>
        <time>2022-09-13T13:28:00Z</time>
      </trkpt>
      <trkpt lat="47.8762" lon="6.82291">
        <ele>856.4</ele>
        <time>2022-09-13T13:28:01Z</time>
      </trkpt>
      <trkpt lat="47.87621" lon="6.82291">
        <ele>856.6</ele>
        <time>2022-09-13T13:28:02Z</time>
      </trkpt>
      <trkpt lat="47.87622" lon="6.82292">
        <ele>856.8</ele>
        <time>2022-09-13T13:28:03Z</time>
      </trkpt>
      <trkpt lat="47.87623" lon="6.82293">
        <ele>857.1</ele>
        <time>2022-09-13T13:28:05Z</time>
      </trkpt>
      <trkpt lat="47.87624" lon="6.82294">
        <ele>857.3</ele>
        <time>2022-09-13T13:28:28Z</time>
      </trkpt>
      <trkpt lat="47.87625" lon="6.82296">
        <ele>857.5</ele>
        <time>2022-09-13T13:28:29Z</time>
      </trkpt>
      <trkpt lat="47.87626" lon="6.82297">
        <ele>857.7</ele>
        <time>2022-09-13T13:28:30Z</time>
      </trkpt>
      <trkpt lat="47.87627" lon="6.82297">
        <ele>858</ele>
        <time>2022-09-13T13:28:31Z</time>
      </trkpt>
      <trkpt lat="47.87628" lon="6.82298">
        <ele>858.2</ele>
        <time>2022-09-13T13:28:32Z</time>
      </trkpt>
      <trkpt lat="47.87629" lon="6.82299">
        <ele>858.4</ele>
        <time>2022-09-13T13:28:33Z</time>
      </trkpt>
      <trkpt lat="47.8763" lon="6.823">
        <ele>858.7</ele>
        <time>2022-09-13T13:28:34Z</time>
      </trkpt>
      <trkpt lat="47.8763" lon="6.82301">
        <ele>858.7</ele>
        <time>2022-09-13T13:28:35Z</time>
      </trkpt>
      <trkpt lat="47.87631" lon="6.82301">
        <ele>858.9</ele>
        <time>2022-09-13T13:28:36Z</time>
      </trkpt>
      <trkpt lat="47.87631" lon="6.82302">
        <ele>859</ele>
        <time>2022-09-13T13:28:37Z</time>
      </trkpt>
      <trkpt lat="47.87632" lon="6.82303">
        <ele>859.2</ele>
        <time>2022-09-13T13:28:38Z</time>
      </trkpt>
      <trkpt lat="47.87633" lon="6.82305">
        <ele>859.5</ele>
        <time>2022-09-13T13:28:39Z</time>
      </trkpt>
      <trkpt lat="47.87633" lon="6.82306">
        <ele>859.5</ele>
        <time>2022-09-13T13:28:40Z</time>
      </trkpt>
      <trkpt lat="47.87634" lon="6.82307">
        <ele>859.7</ele>
        <time>2022-09-13T13:28:41Z</time>
      </trkpt>
      <trkpt lat="47.87635" lon="6.82308">
        <ele>859.9</ele>
        <time>2022-09-13T13:28:42Z</time>
      </trkpt>
      <trkpt lat="47.87636" lon="6.82309">
        <ele>860.1</ele>
        <time>2022-09-13T13:29:30Z</time>
      </trkpt>
      <trkpt lat="47.87637" lon="6.82309">
        <ele>860.4</ele>
        <time>2022-09-13T13:29:31Z</time>
      </trkpt>
      <trkpt lat="47.87637" lon="6.8231">
        <ele>860.3</ele>
        <time>2022-09-13T13:29:32Z</time>
      </trkpt>
      <trkpt lat="47.87638" lon="6.82311">
        <ele>860.6</ele>
        <time>2022-09-13T13:29:33Z</time>
      </trkpt>
      <trkpt lat="47.87639" lon="6.82312">
        <ele>860.8</ele>
        <time>2022-09-13T13:29:34Z</time>
      </trkpt>
      <trkpt lat="47.87641" lon="6.82313">
        <ele>861</ele>
        <time>2022-09-13T13:29:35Z</time>
      </trkpt>
      <trkpt lat="47.87642" lon="6.82315">
        <ele>861.1</ele>
        <time>2022-09-13T13:29:36Z</time>
      </trkpt>
      <trkpt lat="47.87643" lon="6.82316">
        <ele>861.3</ele>
        <time>2022-09-13T13:29:37Z</time>
      </trkpt>
      <trkpt lat="47.87646" lon="6.82318">
        <ele>861.8</ele>
        <time>2022-09-13T13:29:38Z</time>
      </trkpt>
      <trkpt lat="47.87647" lon="6.8232">
        <ele>862</ele>
        <time>2022-09-13T13:29:39Z</time>
      </trkpt>
      <trkpt lat="47.87649" lon="6.82321">
        <ele>862.3</ele>
        <time>2022-09-13T13:29:40Z</time>
      </trkpt>
      <trkpt lat="47.8765" lon="6.82322">
        <ele>862.6</ele>
        <time>2022-09-13T13:29:41Z</time>
      </trkpt>
      <trkpt lat="47.87651" lon="6.82324">
        <ele>862.8</ele>
        <time>2022-09-13T13:29:42Z</time>
      </trkpt>
      <trkpt lat="47.87652" lon="6.82325">
        <ele>863</ele>
        <time>2022-09-13T13:29:43Z</time>
      </trkpt>
      <trkpt lat="47.87654" lon="6.82327">
        <ele>863.5</ele>
        <time>2022-09-13T13:29:44Z</time>
      </trkpt>
      <trkpt lat="47.87656" lon="6.82329">
        <ele>864.1</ele>
        <time>2022-09-13T13:29:45Z</time>
      </trkpt>
      <trkpt lat="47.87658" lon="6.8233">
        <ele>864.6</ele>
        <time>2022-09-13T13:29:46Z</time>
      </trkpt>
      <trkpt lat="47.8766" lon="6.82332">
        <ele>865.2</ele>
        <time>2022-09-13T13:29:47Z</time>
      </trkpt>
      <trkpt lat="47.87661" lon="6.82333">
        <ele>865.5</ele>
        <time>2022-09-13T13:29:48Z</time>
      </trkpt>
      <trkpt lat="47.87663" lon="6.82335">
        <ele>866.1</ele>
        <time>2022-09-13T13:29:49Z</time>
      </trkpt>
      <trkpt lat="47.87665" lon="6.82336">
        <ele>866.6</ele>
        <time>2022-09-13T13:29:50Z</time>
      </trkpt>
      <trkpt lat="47.87666" lon="6.82337">
        <ele>866.8</ele>
        <time>2022-09-13T13:29:51Z</time>
      </trkpt>
      <trkpt lat="47.87667" lon="6.82338">
        <ele>867</ele>
        <time>2022-09-13T13:29:52Z</time>
      </trkpt>
      <trkpt lat="47.87668" lon="6.82339">
        <ele>867</ele>
        <time>2022-09-13T13:29:53Z</time>
      </trkpt>
      <trkpt lat="47.87669" lon="6.8234">
        <ele>866.9</ele>
        <time>2022-09-13T13:29:54Z</time>
      </trkpt>
      <trkpt lat="47.8767" lon="6.82341">
        <ele>866.9</ele>
        <time>2022-09-13T13:36:49Z</time>
      </trkpt>
      <trkpt lat="47.87671" lon="6.82342">
        <ele>866.9</ele>
        <time>2022-09-13T13:36:50Z</time>
      </trkpt>
      <trkpt lat="47.87672" lon="6.82343">
        <ele>866.9</ele>
        <time>2022-09-13T13:36:51Z</time>
      </trkpt>
      <trkpt lat="47.87673" lon="6.82344">
        <ele>866.9</ele>
        <time>2022-09-13T13:36:52Z</time>
      </trkpt>
      <trkpt lat="47.87674" lon="6.82346">
        <ele>866.9</ele>
        <time>2022-09-13T13:36:53Z</time>
      </trkpt>
      <trkpt lat="47.87675" lon="6.82348">
        <ele>866.9</ele>
        <time>2022-09-13T13:36:54Z</time>
      </trkpt>
      <trkpt lat="47.87676" lon="6.82351">
        <ele>866.9</ele>
        <time>2022-09-13T13:36:55Z</time>
      </trkpt>
      <trkpt lat="47.87677" lon="6.82354">
        <ele>866.9</ele>
        <time>2022-09-13T13:36:56Z</time>
      </trkpt>
      <trkpt lat="47.87678" lon="6.82357">
        <ele>866.9</ele>
        <time>2022-09-13T13:36:57Z</time>
      </trkpt>
      <trkpt lat="47.87679" lon="6.8236">
        <ele>867</ele>
        <time>2022-09-13T13:36:58Z</time>
      </trkpt>
      <trkpt lat="47.8768" lon="6.82362">
        <ele>867</ele>
        <time>2022-09-13T13:36:59Z</time>
      </trkpt>
      <trkpt lat="47.87681" lon="6.82365">
        <ele>867</ele>
        <time>2022-09-13T13:37:00Z</time>
      </trkpt>
      <trkpt lat="47.87681" lon="6.82368">
        <ele>867</ele>
        <time>2022-09-13T13:37:01Z</time>
      </trkpt>
      <trkpt lat="47.87682" lon="6.8237">
        <ele>867.1</ele>
        <time>2022-09-13T13:37:02Z</time>
      </trkpt>
      <trkpt lat="47.87683" lon="6.82373">
        <ele>867.2</ele>
        <time>2022-09-13T13:37:03Z</time>
      </trkpt>
      <trkpt lat="47.87684" lon="6.82375">
        <ele>867.2</ele>
        <time>2022-09-13T13:37:04Z</time>
      </trkpt>
      <trkpt lat="47.87684" lon="6.82378">
        <ele>867.3</ele>
        <time>2022-09-13T13:37:05Z</time>
      </trkpt>
      <trkpt lat="47.87685" lon="6.82379">
        <ele>867.4</ele>
        <time>2022-09-13T13:37:06Z</time>
      </trkpt>
      <trkpt lat="47.87686" lon="6.82381">
        <ele>867.6</ele>
        <time>2022-09-13T13:37:07Z</time>
      </trkpt>
      <trkpt lat="47.87687" lon="6.82384">
        <ele>867.8</ele>
        <time>2022-09-13T13:37:08Z</time>
      </trkpt>
      <trkpt lat="47.87689" lon="6.82387">
        <ele>868.1</ele>
        <time>2022-09-13T13:37:09Z</time>
      </trkpt>
      <trkpt lat="47.8769" lon="6.82389">
        <ele>868.4</ele>
        <time>2022-09-13T13:37:10Z</time>
      </trkpt>
      <trkpt lat="47.87691" lon="6.82392">
        <ele>868.6</ele>
        <time>2022-09-13T13:37:11Z</time>
      </trkpt>
      <trkpt lat="47.87693" lon="6.82394">
        <ele>868.9</ele>
        <time>2022-09-13T13:37:12Z</time>
      </trkpt>
      <trkpt lat="47.87694" lon="6.82396">
        <ele>869.2</ele>
        <time>2022-09-13T13:37:13Z</time>
      </trkpt>
      <trkpt lat="47.87695" lon="6.82398">
        <ele>869.2</ele>
        <time>2022-09-13T13:37:14Z</time>
      </trkpt>
      <trkpt lat="47.87697" lon="6.82401">
        <ele>869.1</ele>
        <time>2022-09-13T13:37:15Z</time>
      </trkpt>
      <trkpt lat="47.87698" lon="6.82403">
        <ele>869</ele>
        <time>2022-09-13T13:37:16Z</time>
      </trkpt>
      <trkpt lat="47.87699" lon="6.82406">
        <ele>869</ele>
        <time>2022-09-13T13:37:17Z</time>
      </trkpt>
      <trkpt lat="47.877" lon="6.82409">
        <ele>868.9</ele>
        <time>2022-09-13T13:37:18Z</time>
      </trkpt>
      <trkpt lat="47.87701" lon="6.82411">
        <ele>868.9</ele>
        <time>2022-09-13T13:37:19Z</time>
      </trkpt>
      <trkpt lat="47.87702" lon="6.82414">
        <ele>868.8</ele>
        <time>2022-09-13T13:37:20Z</time>
      </trkpt>
      <trkpt lat="47.87703" lon="6.82416">
        <ele>868.7</ele>
        <time>2022-09-13T13:37:21Z</time>
      </trkpt>
      <trkpt lat="47.87704" lon="6.82418">
        <ele>868.6</ele>
        <time>2022-09-13T13:37:22Z</time>
      </trkpt>
      <trkpt lat="47.87705" lon="6.8242">
        <ele>868.4</ele>
        <time>2022-09-13T13:37:23Z</time>
      </trkpt>
      <trkpt lat="47.87706" lon="6.82422">
        <ele>868.2</ele>
        <time>2022-09-13T13:37:24Z</time>
      </trkpt>
      <trkpt lat="47.87707" lon="6.82423">
        <ele>868</ele>
        <time>2022-09-13T13:37:25Z</time>
      </trkpt>
      <trkpt lat="47.87708" lon="6.82425">
        <ele>867.9</ele>
        <time>2022-09-13T13:37:26Z</time>
      </trkpt>
      <trkpt lat="47.87709" lon="6.82427">
        <ele>867.7</ele>
        <time>2022-09-13T13:37:27Z</time>
      </trkpt>
      <trkpt lat="47.8771" lon="6.8243">
        <ele>867.6</ele>
        <time>2022-09-13T13:37:28Z</time>
      </trkpt>
      <trkpt lat="47.87711" lon="6.82433">
        <ele>867.5</ele>
        <time>2022-09-13T13:37:29Z</time>
      </trkpt>
      <trkpt lat="47.87712" lon="6.82437">
        <ele>867.4</ele>
        <time>2022-09-13T13:37:30Z</time>
      </trkpt>
      <trkpt lat="47.87713" lon="6.8244">
        <ele>867.3</ele>
        <time>2022-09-13T13:37:31Z</time>
      </trkpt>
      <trkpt lat="47.87714" lon="6.82444">
        <ele>867.3</ele>
        <time>2022-09-13T13:37:32Z</time>
      </trkpt>
      <trkpt lat="47.87714" lon="6.82448">
        <ele>867.1</ele>
        <time>2022-09-13T13:37:33Z</time>
      </trkpt>
      <trkpt lat="47.87714" lon="6.82452">
        <ele>866.9</ele>
        <time>2022-09-13T13:37:34Z</time>
      </trkpt>
      <trkpt lat="47.87715" lon="6.82456">
        <ele>866.7</ele>
        <time>2022-09-13T13:37:35Z</time>
      </trkpt>
      <trkpt lat="47.87716" lon="6.82462">
        <ele>866.5</ele>
        <time>2022-09-13T13:37:36Z</time>
      </trkpt>
      <trkpt lat="47.87717" lon="6.82467">
        <ele>866.2</ele>
        <time>2022-09-13T13:37:37Z</time>
      </trkpt>
      <trkpt lat="47.87717" lon="6.82471">
        <ele>866.1</ele>
        <time>2022-09-13T13:37:38Z</time>
      </trkpt>
      <trkpt lat="47.87718" lon="6.82475">
        <ele>865.8</ele>
        <time>2022-09-13T13:37:39Z</time>
      </trkpt>
      <trkpt lat="47.87718" lon="6.82479">
        <ele>865.5</ele>
        <time>2022-09-13T13:37:40Z</time>
      </trkpt>
      <trkpt lat="47.87718" lon="6.82481">
        <ele>865.3</ele>
        <time>2022-09-13T13:37:41Z</time>
      </trkpt>
      <trkpt lat="47.87719" lon="6.82484">
        <ele>865.1</ele>
        <time>2022-09-13T13:37:42Z</time>
      </trkpt>
      <trkpt lat="47.8772" lon="6.82491">
        <ele>864.6</ele>
        <time>2022-09-13T13:37:43Z</time>
      </trkpt>
      <trkpt lat="47.87721" lon="6.82496">
        <ele>864.3</ele>
        <time>2022-09-13T13:37:44Z</time>
      </trkpt>
      <trkpt lat="47.87722" lon="6.82501">
        <ele>864</ele>
        <time>2022-09-13T13:37:45Z</time>
      </trkpt>
      <trkpt lat="47.87723" lon="6.82506">
        <ele>863.8</ele>
        <time>2022-09-13T13:37:46Z</time>
      </trkpt>
      <trkpt lat="47.87725" lon="6.82511">
        <ele>863.5</ele>
        <time>2022-09-13T13:37:47Z</time>
      </trkpt>
      <trkpt lat="47.87726" lon="6.82516">
        <ele>863.4</ele>
        <time>2022-09-13T13:37:48Z</time>
      </trkpt>
      <trkpt lat="47.87728" lon="6.82521">
        <ele>863.2</ele>
        <time>2022-09-13T13:37:49Z</time>
      </trkpt>
      <trkpt lat="47.87729" lon="6.82526">
        <ele>863</ele>
        <time>2022-09-13T13:37:50Z</time>
      </trkpt>
      <trkpt lat="47.8773" lon="6.82532">
        <ele>863</ele>
        <time>2022-09-13T13:37:51Z</time>
      </trkpt>
      <trkpt lat="47.87731" lon="6.82537">
        <ele>863</ele>
        <time>2022-09-13T13:37:52Z</time>
      </trkpt>
      <trkpt lat="47.87731" lon="6.82541">
        <ele>863</ele>
        <time>2022-09-13T13:37:53Z</time>
      </trkpt>
      <trkpt lat="47.87732" lon="6.82545">
        <ele>863</ele>
        <time>2022-09-13T13:37:54Z</time>
      </trkpt>
      <trkpt lat="47.87732" lon="6.82547">
        <ele>863</ele>
        <time>2022-09-13T13:37:55Z</time>
      </trkpt>
      <trkpt lat="47.87732" lon="6.82549">
        <ele>863</ele>
        <time>2022-09-13T13:37:56Z</time>
      </trkpt>
      <trkpt lat="47.87733" lon="6.82551">
        <ele>863</ele>
        <time>2022-09-13T13:37:57Z</time>
      </trkpt>
      <trkpt lat="47.87733" lon="6.82553">
        <ele>863</ele>
        <time>2022-09-13T13:37:58Z</time>
      </trkpt>
      <trkpt lat="47.87733" lon="6.82555">
        <ele>863</ele>
        <time>2022-09-13T13:37:59Z</time>
      </trkpt>
      <trkpt lat="47.87734" lon="6.82557">
        <ele>863</ele>
        <time>2022-09-13T13:38:00Z</time>
      </trkpt>
      <trkpt lat="47.87735" lon="6.82559">
        <ele>863.1</ele>
        <time>2022-09-13T13:38:01Z</time>
      </trkpt>
      <trkpt lat="47.87737" lon="6.82562">
        <ele>863.1</ele>
        <time>2022-09-13T13:38:02Z</time>
      </trkpt>
      <trkpt lat="47.87738" lon="6.82564">
        <ele>863.2</ele>
        <time>2022-09-13T13:38:03Z</time>
      </trkpt>
      <trkpt lat="47.8774" lon="6.82566">
        <ele>863.2</ele>
        <time>2022-09-13T13:38:04Z</time>
      </trkpt>
      <trkpt lat="47.87741" lon="6.82568">
        <ele>863.3</ele>
        <time>2022-09-13T13:38:05Z</time>
      </trkpt>
      <trkpt lat="47.87743" lon="6.8257">
        <ele>863.4</ele>
        <time>2022-09-13T13:38:06Z</time>
      </trkpt>
      <trkpt lat="47.87744" lon="6.82571">
        <ele>863.4</ele>
        <time>2022-09-13T13:38:07Z</time>
      </trkpt>
      <trkpt lat="47.87746" lon="6.82572">
        <ele>863.5</ele>
        <time>2022-09-13T13:38:08Z</time>
      </trkpt>
      <trkpt lat="47.87747" lon="6.82573">
        <ele>863.6</ele>
        <time>2022-09-13T13:38:09Z</time>
      </trkpt>
      <trkpt lat="47.87749" lon="6.82574">
        <ele>863.6</ele>
        <time>2022-09-13T13:38:10Z</time>
      </trkpt>
      <trkpt lat="47.87751" lon="6.82576">
        <ele>863.7</ele>
        <time>2022-09-13T13:38:11Z</time>
      </trkpt>
      <trkpt lat="47.87752" lon="6.82578">
        <ele>863.7</ele>
        <time>2022-09-13T13:38:12Z</time>
      </trkpt>
      <trkpt lat="47.87754" lon="6.8258">
        <ele>863.7</ele>
        <time>2022-09-13T13:38:13Z</time>
      </trkpt>
      <trkpt lat="47.87755" lon="6.82582">
        <ele>863.8</ele>
        <time>2022-09-13T13:38:14Z</time>
      </trkpt>
      <trkpt lat="47.87757" lon="6.82584">
        <ele>863.7</ele>
        <time>2022-09-13T13:38:15Z</time>
      </trkpt>
      <trkpt lat="47.87758" lon="6.82586">
        <ele>863.6</ele>
        <time>2022-09-13T13:38:16Z</time>
      </trkpt>
      <trkpt lat="47.8776" lon="6.82587">
        <ele>863.5</ele>
        <time>2022-09-13T13:38:17Z</time>
      </trkpt>
      <trkpt lat="47.87762" lon="6.82588">
        <ele>863.4</ele>
        <time>2022-09-13T13:38:18Z</time>
      </trkpt>
      <trkpt lat="47.87764" lon="6.82588">
        <ele>863.3</ele>
        <time>2022-09-13T13:38:19Z</time>
      </trkpt>
      <trkpt lat="47.87767" lon="6.82588">
        <ele>863.2</ele>
        <time>2022-09-13T13:38:20Z</time>
      </trkpt>
      <trkpt lat="47.87769" lon="6.82589">
        <ele>863.1</ele>
        <time>2022-09-13T13:38:21Z</time>
      </trkpt>
      <trkpt lat="47.87773" lon="6.8259">
        <ele>862.9</ele>
        <time>2022-09-13T13:38:22Z</time>
      </trkpt>
      <trkpt lat="47.87775" lon="6.82591">
        <ele>862.8</ele>
        <time>2022-09-13T13:38:23Z</time>
      </trkpt>
      <trkpt lat="47.87776" lon="6.82592">
        <ele>862.8</ele>
        <time>2022-09-13T13:38:24Z</time>
      </trkpt>
      <trkpt lat="47.87778" lon="6.82594">
        <ele>862.7</ele>
        <time>2022-09-13T13:38:25Z</time>
      </trkpt>
      <trkpt lat="47.8778" lon="6.82596">
        <ele>863</ele>
        <time>2022-09-13T13:38:26Z</time>
      </trkpt>
      <trkpt lat="47.87781" lon="6.82598">
        <ele>863.2</ele>
        <time>2022-09-13T13:38:27Z</time>
      </trkpt>
      <trkpt lat="47.87782" lon="6.82601">
        <ele>863.4</ele>
        <time>2022-09-13T13:38:28Z</time>
      </trkpt>
      <trkpt lat="47.87784" lon="6.82603">
        <ele>863.8</ele>
        <time>2022-09-13T13:38:29Z</time>
      </trkpt>
      <trkpt lat="47.87785" lon="6.82606">
        <ele>864.1</ele>
        <time>2022-09-13T13:38:30Z</time>
      </trkpt>
      <trkpt lat="47.87786" lon="6.82608">
        <ele>864.3</ele>
        <time>2022-09-13T13:38:31Z</time>
      </trkpt>
      <trkpt lat="47.87786" lon="6.82611">
        <ele>864.4</ele>
        <time>2022-09-13T13:38:32Z</time>
      </trkpt>
      <trkpt lat="47.87787" lon="6.82614">
        <ele>864.6</ele>
        <time>2022-09-13T13:38:33Z</time>
      </trkpt>
      <trkpt lat="47.87788" lon="6.82617">
        <ele>864.8</ele>
        <time>2022-09-13T13:38:34Z</time>
      </trkpt>
      <trkpt lat="47.87789" lon="6.8262">
        <ele>865</ele>
        <time>2022-09-13T13:38:35Z</time>
      </trkpt>
      <trkpt lat="47.8779" lon="6.82622">
        <ele>865.3</ele>
        <time>2022-09-13T13:38:36Z</time>
      </trkpt>
      <trkpt lat="47.87791" lon="6.82624">
        <ele>865.6</ele>
        <time>2022-09-13T13:38:37Z</time>
      </trkpt>
      <trkpt lat="47.87792" lon="6.82627">
        <ele>865.8</ele>
        <time>2022-09-13T13:38:38Z</time>
      </trkpt>
      <trkpt lat="47.87793" lon="6.82629">
        <ele>866.1</ele>
        <time>2022-09-13T13:38:39Z</time>
      </trkpt>
      <trkpt lat="47.87794" lon="6.82632">
        <ele>866.4</ele>
        <time>2022-09-13T13:38:40Z</time>
      </trkpt>
      <trkpt lat="47.87794" lon="6.82635">
        <ele>866.3</ele>
        <time>2022-09-13T13:38:41Z</time>
      </trkpt>
      <trkpt lat="47.87795" lon="6.82638">
        <ele>866.6</ele>
        <time>2022-09-13T13:38:42Z</time>
      </trkpt>
      <trkpt lat="47.87796" lon="6.8264">
        <ele>866.8</ele>
        <time>2022-09-13T13:38:43Z</time>
      </trkpt>
      <trkpt lat="47.87797" lon="6.82643">
        <ele>866.8</ele>
        <time>2022-09-13T13:38:44Z</time>
      </trkpt>
      <trkpt lat="47.87798" lon="6.82646">
        <ele>866.9</ele>
        <time>2022-09-13T13:38:45Z</time>
      </trkpt>
      <trkpt lat="47.878" lon="6.82649">
        <ele>867.2</ele>
        <time>2022-09-13T13:38:46Z</time>
      </trkpt>
      <trkpt lat="47.87801" lon="6.82652">
        <ele>867.2</ele>
        <time>2022-09-13T13:38:47Z</time>
      </trkpt>
      <trkpt lat="47.87802" lon="6.82655">
        <ele>867.2</ele>
        <time>2022-09-13T13:38:48Z</time>
      </trkpt>
      <trkpt lat="47.87803" lon="6.82657">
        <ele>867.3</ele>
        <time>2022-09-13T13:38:49Z</time>
      </trkpt>
      <trkpt lat="47.87804" lon="6.8266">
        <ele>867.3</ele>
        <time>2022-09-13T13:38:50Z</time>
      </trkpt>
      <trkpt lat="47.87805" lon="6.82663">
        <ele>867.2</ele>
        <time>2022-09-13T13:38:51Z</time>
      </trkpt>
      <trkpt lat="47.87806" lon="6.82666">
        <ele>867.2</ele>
        <time>2022-09-13T13:38:52Z</time>
      </trkpt>
      <trkpt lat="47.87808" lon="6.82668">
        <ele>867.4</ele>
        <time>2022-09-13T13:38:53Z</time>
      </trkpt>
      <trkpt lat="47.87809" lon="6.8267">
        <ele>867.4</ele>
        <time>2022-09-13T13:38:54Z</time>
      </trkpt>
      <trkpt lat="47.87811" lon="6.82672">
        <ele>867.5</ele>
        <time>2022-09-13T13:38:55Z</time>
      </trkpt>
      <trkpt lat="47.87812" lon="6.82674">
        <ele>867.4</ele>
        <time>2022-09-13T13:38:56Z</time>
      </trkpt>
      <trkpt lat="47.87814" lon="6.82676">
        <ele>867.6</ele>
        <time>2022-09-13T13:38:57Z</time>
      </trkpt>
      <trkpt lat="47.87815" lon="6.82678">
        <ele>867.5</ele>
        <time>2022-09-13T13:38:58Z</time>
      </trkpt>
      <trkpt lat="47.87817" lon="6.8268">
        <ele>867.6</ele>
        <time>2022-09-13T13:38:59Z</time>
      </trkpt>
      <trkpt lat="47.87819" lon="6.82682">
        <ele>867.6</ele>
        <time>2022-09-13T13:39:00Z</time>
      </trkpt>
      <trkpt lat="47.8782" lon="6.82684">
        <ele>867.5</ele>
        <time>2022-09-13T13:39:01Z</time>
      </trkpt>
      <trkpt lat="47.87822" lon="6.82686">
        <ele>867.5</ele>
        <time>2022-09-13T13:39:02Z</time>
      </trkpt>
      <trkpt lat="47.87824" lon="6.82688">
        <ele>867.6</ele>
        <time>2022-09-13T13:39:03Z</time>
      </trkpt>
      <trkpt lat="47.87826" lon="6.8269">
        <ele>867.6</ele>
        <time>2022-09-13T13:39:04Z</time>
      </trkpt>
      <trkpt lat="47.8783" lon="6.82694">
        <ele>867.5</ele>
        <time>2022-09-13T13:39:05Z</time>
      </trkpt>
      <trkpt lat="47.87833" lon="6.82696">
        <ele>867.7</ele>
        <time>2022-09-13T13:39:06Z</time>
      </trkpt>
      <trkpt lat="47.87835" lon="6.82699">
        <ele>867.5</ele>
        <time>2022-09-13T13:39:07Z</time>
      </trkpt>
      <trkpt lat="47.87838" lon="6.82702">
        <ele>867.6</ele>
        <time>2022-09-13T13:39:08Z</time>
      </trkpt>
      <trkpt lat="47.8784" lon="6.82704">
        <ele>867.6</ele>
        <time>2022-09-13T13:39:09Z</time>
      </trkpt>
      <trkpt lat="47.87842" lon="6.82706">
        <ele>867.7</ele>
        <time>2022-09-13T13:39:10Z</time>
      </trkpt>
      <trkpt lat="47.87844" lon="6.82708">
        <ele>867.7</ele>
        <time>2022-09-13T13:39:11Z</time>
      </trkpt>
      <trkpt lat="47.87845" lon="6.8271">
        <ele>867.5</ele>
        <time>2022-09-13T13:39:12Z</time>
      </trkpt>
      <trkpt lat="47.87847" lon="6.82711">
        <ele>867.7</ele>
        <time>2022-09-13T13:39:13Z</time>
      </trkpt>
      <trkpt lat="47.87849" lon="6.82713">
        <ele>867.7</ele>
        <time>2022-09-13T13:39:14Z</time>
      </trkpt>
      <trkpt lat="47.87851" lon="6.82715">
        <ele>867.6</ele>
        <time>2022-09-13T13:39:15Z</time>
      </trkpt>
      <trkpt lat="47.87853" lon="6.82717">
        <ele>867.6</ele>
        <time>2022-09-13T13:39:16Z</time>
      </trkpt>
      <trkpt lat="47.87855" lon="6.82719">
        <ele>867.6</ele>
        <time>2022-09-13T13:39:17Z</time>
      </trkpt>
      <trkpt lat="47.87857" lon="6.82722">
        <ele>867.3</ele>
        <time>2022-09-13T13:39:18Z</time>
      </trkpt>
      <trkpt lat="47.8786" lon="6.82727">
        <ele>866.9</ele>
        <time>2022-09-13T13:39:19Z</time>
      </trkpt>
      <trkpt lat="47.87863" lon="6.8273">
        <ele>866.8</ele>
        <time>2022-09-13T13:39:20Z</time>
      </trkpt>
      <trkpt lat="47.87865" lon="6.82733">
        <ele>866.6</ele>
        <time>2022-09-13T13:39:21Z</time>
      </trkpt>
      <trkpt lat="47.87868" lon="6.82736">
        <ele>866.5</ele>
        <time>2022-09-13T13:39:22Z</time>
      </trkpt>
      <trkpt lat="47.8787" lon="6.82738">
        <ele>866.5</ele>
        <time>2022-09-13T13:39:23Z</time>
      </trkpt>
      <trkpt lat="47.87873" lon="6.82741">
        <ele>866.5</ele>
        <time>2022-09-13T13:39:24Z</time>
      </trkpt>
      <trkpt lat="47.87875" lon="6.82743">
        <ele>866.5</ele>
        <time>2022-09-13T13:39:25Z</time>
      </trkpt>
      <trkpt lat="47.87877" lon="6.82745">
        <ele>866.6</ele>
        <time>2022-09-13T13:39:26Z</time>
      </trkpt>
      <trkpt lat="47.87879" lon="6.82748">
        <ele>866.5</ele>
        <time>2022-09-13T13:39:27Z</time>
      </trkpt>
      <trkpt lat="47.8788" lon="6.82749">
        <ele>866.5</ele>
        <time>2022-09-13T13:39:28Z</time>
      </trkpt>
      <trkpt lat="47.87882" lon="6.82751">
        <ele>866.6</ele>
        <time>2022-09-13T13:39:29Z</time>
      </trkpt>
      <trkpt lat="47.87884" lon="6.82753">
        <ele>866.5</ele>
        <time>2022-09-13T13:39:30Z</time>
      </trkpt>
      <trkpt lat="47.87886" lon="6.82755">
        <ele>866.5</ele>
        <time>2022-09-13T13:39:31Z</time>
      </trkpt>
      <trkpt lat="47.87888" lon="6.82757">
        <ele>866.6</ele>
        <time>2022-09-13T13:39:32Z</time>
      </trkpt>
      <trkpt lat="47.8789" lon="6.82759">
        <ele>866.5</ele>
        <time>2022-09-13T13:39:33Z</time>
      </trkpt>
      <trkpt lat="47.87894" lon="6.82762">
        <ele>866.4</ele>
        <time>2022-09-13T13:39:34Z</time>
      </trkpt>
      <trkpt lat="47.87897" lon="6.82765">
        <ele>866.4</ele>
        <time>2022-09-13T13:39:35Z</time>
      </trkpt>
      <trkpt lat="47.87899" lon="6.82767">
        <ele>866.3</ele>
        <time>2022-09-13T13:39:36Z</time>
      </trkpt>
      <trkpt lat="47.87902" lon="6.82769">
        <ele>866.5</ele>
        <time>2022-09-13T13:39:37Z</time>
      </trkpt>
      <trkpt lat="47.87904" lon="6.82771">
        <ele>866.5</ele>
        <time>2022-09-13T13:39:38Z</time>
      </trkpt>
      <trkpt lat="47.87906" lon="6.82773">
        <ele>866.6</ele>
        <time>2022-09-13T13:39:39Z</time>
      </trkpt>
      <trkpt lat="47.87908" lon="6.82774">
        <ele>866.8</ele>
        <time>2022-09-13T13:39:40Z</time>
      </trkpt>
      <trkpt lat="47.87911" lon="6.82776">
        <ele>867.1</ele>
        <time>2022-09-13T13:39:41Z</time>
      </trkpt>
      <trkpt lat="47.87912" lon="6.82777">
        <ele>867.2</ele>
        <time>2022-09-13T13:39:42Z</time>
      </trkpt>
      <trkpt lat="47.87914" lon="6.82779">
        <ele>867.3</ele>
        <time>2022-09-13T13:39:43Z</time>
      </trkpt>
      <trkpt lat="47.87916" lon="6.82781">
        <ele>867.4</ele>
        <time>2022-09-13T13:39:44Z</time>
      </trkpt>
      <trkpt lat="47.87918" lon="6.82783">
        <ele>867.2</ele>
        <time>2022-09-13T13:39:45Z</time>
      </trkpt>
      <trkpt lat="47.8792" lon="6.82785">
        <ele>866.8</ele>
        <time>2022-09-13T13:39:46Z</time>
      </trkpt>
      <trkpt lat="47.87922" lon="6.82787">
        <ele>866.5</ele>
        <time>2022-09-13T13:39:47Z</time>
      </trkpt>
      <trkpt lat="47.87924" lon="6.8279">
        <ele>866.2</ele>
        <time>2022-09-13T13:39:48Z</time>
      </trkpt>
      <trkpt lat="47.87926" lon="6.82792">
        <ele>866</ele>
        <time>2022-09-13T13:39:49Z</time>
      </trkpt>
      <trkpt lat="47.87928" lon="6.82794">
        <ele>865.8</ele>
        <time>2022-09-13T13:39:50Z</time>
      </trkpt>
      <trkpt lat="47.87929" lon="6.82796">
        <ele>865.7</ele>
        <time>2022-09-13T13:39:51Z</time>
      </trkpt>
      <trkpt lat="47.87931" lon="6.82798">
        <ele>865.6</ele>
        <time>2022-09-13T13:39:52Z</time>
      </trkpt>
      <trkpt lat="47.87932" lon="6.828">
        <ele>865.5</ele>
        <time>2022-09-13T13:39:53Z</time>
      </trkpt>
      <trkpt lat="47.87934" lon="6.82801">
        <ele>865.5</ele>
        <time>2022-09-13T13:39:54Z</time>
      </trkpt>
      <trkpt lat="47.87935" lon="6.82802">
        <ele>865.5</ele>
        <time>2022-09-13T13:39:55Z</time>
      </trkpt>
      <trkpt lat="47.87937" lon="6.82804">
        <ele>865.5</ele>
        <time>2022-09-13T13:39:56Z</time>
      </trkpt>
      <trkpt lat="47.87939" lon="6.82807">
        <ele>865.5</ele>
        <time>2022-09-13T13:39:57Z</time>
      </trkpt>
      <trkpt lat="47.8794" lon="6.82809">
        <ele>865.5</ele>
        <time>2022-09-13T13:39:58Z</time>
      </trkpt>
      <trkpt lat="47.87942" lon="6.82811">
        <ele>865.6</ele>
        <time>2022-09-13T13:39:59Z</time>
      </trkpt>
      <trkpt lat="47.87944" lon="6.82813">
        <ele>865.7</ele>
        <time>2022-09-13T13:40:00Z</time>
      </trkpt>
      <trkpt lat="47.87946" lon="6.82815">
        <ele>865.6</ele>
        <time>2022-09-13T13:40:01Z</time>
      </trkpt>
      <trkpt lat="47.87948" lon="6.82817">
        <ele>865.6</ele>
        <time>2022-09-13T13:40:02Z</time>
      </trkpt>
      <trkpt lat="47.8795" lon="6.82819">
        <ele>865.5</ele>
        <time>2022-09-13T13:40:03Z</time>
      </trkpt>
      <trkpt lat="47.87953" lon="6.82821">
        <ele>865.5</ele>
        <time>2022-09-13T13:40:04Z</time>
      </trkpt>
      <trkpt lat="47.87955" lon="6.82823">
        <ele>865.5</ele>
        <time>2022-09-13T13:40:05Z</time>
      </trkpt>
      <trkpt lat="47.87957" lon="6.82826">
        <ele>865.5</ele>
        <time>2022-09-13T13:40:06Z</time>
      </trkpt>
      <trkpt lat="47.87959" lon="6.82828">
        <ele>865.5</ele>
        <time>2022-09-13T13:40:07Z</time>
      </trkpt>
      <trkpt lat="47.87961" lon="6.8283">
        <ele>865.6</ele>
        <time>2022-09-13T13:40:08Z</time>
      </trkpt>
      <trkpt lat="47.87963" lon="6.82833">
        <ele>865.7</ele>
        <time>2022-09-13T13:40:09Z</time>
      </trkpt>
      <trkpt lat="47.87966" lon="6.82838">
        <ele>865.6</ele>
        <time>2022-09-13T13:40:10Z</time>
      </trkpt>
      <trkpt lat="47.87968" lon="6.82841">
        <ele>865.6</ele>
        <time>2022-09-13T13:40:11Z</time>
      </trkpt>
      <trkpt lat="47.8797" lon="6.82844">
        <ele>865.8</ele>
        <time>2022-09-13T13:40:12Z</time>
      </trkpt>
      <trkpt lat="47.87972" lon="6.82847">
        <ele>866</ele>
        <time>2022-09-13T13:40:13Z</time>
      </trkpt>
      <trkpt lat="47.87974" lon="6.8285">
        <ele>865.9</ele>
        <time>2022-09-13T13:40:14Z</time>
      </trkpt>
      <trkpt lat="47.87976" lon="6.82853">
        <ele>865.9</ele>
        <time>2022-09-13T13:40:15Z</time>
      </trkpt>
      <trkpt lat="47.87978" lon="6.82857">
        <ele>865.9</ele>
        <time>2022-09-13T13:40:16Z</time>
      </trkpt>
      <trkpt lat="47.87979" lon="6.8286">
        <ele>866</ele>
        <time>2022-09-13T13:40:17Z</time>
      </trkpt>
      <trkpt lat="47.8798" lon="6.82861">
        <ele>866</ele>
        <time>2022-09-13T13:40:18Z</time>
      </trkpt>
      <trkpt lat="47.87982" lon="6.82864">
        <ele>865.8</ele>
        <time>2022-09-13T13:40:19Z</time>
      </trkpt>
      <trkpt lat="47.87983" lon="6.82866">
        <ele>865.6</ele>
        <time>2022-09-13T13:40:20Z</time>
      </trkpt>
      <trkpt lat="47.87985" lon="6.82869">
        <ele>865.5</ele>
        <time>2022-09-13T13:40:21Z</time>
      </trkpt>
      <trkpt lat="47.87986" lon="6.82872">
        <ele>865.4</ele>
        <time>2022-09-13T13:40:22Z</time>
      </trkpt>
      <trkpt lat="47.87988" lon="6.82874">
        <ele>865.5</ele>
        <time>2022-09-13T13:40:23Z</time>
      </trkpt>
      <trkpt lat="47.87989" lon="6.82876">
        <ele>865.5</ele>
        <time>2022-09-13T13:40:24Z</time>
      </trkpt>
      <trkpt lat="47.87991" lon="6.82879">
        <ele>865.6</ele>
        <time>2022-09-13T13:40:25Z</time>
      </trkpt>
      <trkpt lat="47.87993" lon="6.82881">
        <ele>865.8</ele>
        <time>2022-09-13T13:40:26Z</time>
      </trkpt>
      <trkpt lat="47.87995" lon="6.82884">
        <ele>866.1</ele>
        <time>2022-09-13T13:40:27Z</time>
      </trkpt>
      <trkpt lat="47.87996" lon="6.82886">
        <ele>866.3</ele>
        <time>2022-09-13T13:40:28Z</time>
      </trkpt>
      <trkpt lat="47.87998" lon="6.82889">
        <ele>866.6</ele>
        <time>2022-09-13T13:40:29Z</time>
      </trkpt>
      <trkpt lat="47.88" lon="6.82891">
        <ele>866.9</ele>
        <time>2022-09-13T13:40:30Z</time>
      </trkpt>
      <trkpt lat="47.88002" lon="6.82893">
        <ele>866.8</ele>
        <time>2022-09-13T13:40:31Z</time>
      </trkpt>
      <trkpt lat="47.88003" lon="6.82896">
        <ele>866.7</ele>
        <time>2022-09-13T13:40:32Z</time>
      </trkpt>
      <trkpt lat="47.88005" lon="6.82898">
        <ele>866.7</ele>
        <time>2022-09-13T13:40:33Z</time>
      </trkpt>
      <trkpt lat="47.88007" lon="6.82901">
        <ele>866.6</ele>
        <time>2022-09-13T13:40:34Z</time>
      </trkpt>
      <trkpt lat="47.88009" lon="6.82904">
        <ele>866.7</ele>
        <time>2022-09-13T13:40:35Z</time>
      </trkpt>
      <trkpt lat="47.88012" lon="6.82908">
        <ele>866.8</ele>
        <time>2022-09-13T13:40:36Z</time>
      </trkpt>
      <trkpt lat="47.88015" lon="6.82911">
        <ele>867</ele>
        <time>2022-09-13T13:40:37Z</time>
      </trkpt>
      <trkpt lat="47.88017" lon="6.82914">
        <ele>867.1</ele>
        <time>2022-09-13T13:40:38Z</time>
      </trkpt>
      <trkpt lat="47.88018" lon="6.82917">
        <ele>867.3</ele>
        <time>2022-09-13T13:40:39Z</time>
      </trkpt>
      <trkpt lat="47.8802" lon="6.8292">
        <ele>867.3</ele>
        <time>2022-09-13T13:40:40Z</time>
      </trkpt>
      <trkpt lat="47.88022" lon="6.82922">
        <ele>867.5</ele>
        <time>2022-09-13T13:40:41Z</time>
      </trkpt>
      <trkpt lat="47.88023" lon="6.82924">
        <ele>867.5</ele>
        <time>2022-09-13T13:40:42Z</time>
      </trkpt>
      <trkpt lat="47.88024" lon="6.82926">
        <ele>867.6</ele>
        <time>2022-09-13T13:40:43Z</time>
      </trkpt>
      <trkpt lat="47.88026" lon="6.82928">
        <ele>867.8</ele>
        <time>2022-09-13T13:40:44Z</time>
      </trkpt>
      <trkpt lat="47.88028" lon="6.8293">
        <ele>868</ele>
        <time>2022-09-13T13:40:45Z</time>
      </trkpt>
      <trkpt lat="47.88029" lon="6.82932">
        <ele>868</ele>
        <time>2022-09-13T13:40:46Z</time>
      </trkpt>
      <trkpt lat="47.88031" lon="6.82934">
        <ele>868.1</ele>
        <time>2022-09-13T13:40:47Z</time>
      </trkpt>
      <trkpt lat="47.88033" lon="6.82936">
        <ele>868.2</ele>
        <time>2022-09-13T13:40:48Z</time>
      </trkpt>
      <trkpt lat="47.88034" lon="6.82939">
        <ele>868.2</ele>
        <time>2022-09-13T13:40:49Z</time>
      </trkpt>
      <trkpt lat="47.88036" lon="6.82941">
        <ele>868.3</ele>
        <time>2022-09-13T13:40:50Z</time>
      </trkpt>
      <trkpt lat="47.88037" lon="6.82943">
        <ele>868.3</ele>
        <time>2022-09-13T13:40:51Z</time>
      </trkpt>
      <trkpt lat="47.88038" lon="6.82946">
        <ele>868.3</ele>
        <time>2022-09-13T13:40:52Z</time>
      </trkpt>
      <trkpt lat="47.8804" lon="6.82948">
        <ele>868.4</ele>
        <time>2022-09-13T13:40:53Z</time>
      </trkpt>
      <trkpt lat="47.88041" lon="6.8295">
        <ele>868.4</ele>
        <time>2022-09-13T13:40:54Z</time>
      </trkpt>
      <trkpt lat="47.88043" lon="6.82953">
        <ele>868.4</ele>
        <time>2022-09-13T13:40:55Z</time>
      </trkpt>
      <trkpt lat="47.88044" lon="6.82955">
        <ele>868.4</ele>
        <time>2022-09-13T13:40:56Z</time>
      </trkpt>
      <trkpt lat="47.88045" lon="6.82958">
        <ele>868.4</ele>
        <time>2022-09-13T13:40:57Z</time>
      </trkpt>
      <trkpt lat="47.88046" lon="6.8296">
        <ele>868.5</ele>
        <time>2022-09-13T13:40:58Z</time>
      </trkpt>
      <trkpt lat="47.88047" lon="6.82963">
        <ele>868.5</ele>
        <time>2022-09-13T13:40:59Z</time>
      </trkpt>
      <trkpt lat="47.88049" lon="6.82965">
        <ele>868.6</ele>
        <time>2022-09-13T13:41:00Z</time>
      </trkpt>
      <trkpt lat="47.8805" lon="6.82968">
        <ele>868.6</ele>
        <time>2022-09-13T13:41:01Z</time>
      </trkpt>
      <trkpt lat="47.88051" lon="6.8297">
        <ele>868.7</ele>
        <time>2022-09-13T13:41:02Z</time>
      </trkpt>
      <trkpt lat="47.88053" lon="6.82972">
        <ele>868.8</ele>
        <time>2022-09-13T13:41:03Z</time>
      </trkpt>
      <trkpt lat="47.88054" lon="6.82975">
        <ele>868.9</ele>
        <time>2022-09-13T13:41:04Z</time>
      </trkpt>
      <trkpt lat="47.88055" lon="6.82977">
        <ele>868.9</ele>
        <time>2022-09-13T13:41:05Z</time>
      </trkpt>
      <trkpt lat="47.88057" lon="6.82979">
        <ele>869</ele>
        <time>2022-09-13T13:41:06Z</time>
      </trkpt>
      <trkpt lat="47.88058" lon="6.8298">
        <ele>868.9</ele>
        <time>2022-09-13T13:41:07Z</time>
      </trkpt>
      <trkpt lat="47.8806" lon="6.82982">
        <ele>869</ele>
        <time>2022-09-13T13:41:08Z</time>
      </trkpt>
      <trkpt lat="47.88062" lon="6.82984">
        <ele>869</ele>
        <time>2022-09-13T13:41:09Z</time>
      </trkpt>
      <trkpt lat="47.88064" lon="6.82985">
        <ele>869.1</ele>
        <time>2022-09-13T13:41:10Z</time>
      </trkpt>
      <trkpt lat="47.88066" lon="6.82987">
        <ele>869.2</ele>
        <time>2022-09-13T13:41:11Z</time>
      </trkpt>
      <trkpt lat="47.88068" lon="6.82988">
        <ele>869.4</ele>
        <time>2022-09-13T13:41:12Z</time>
      </trkpt>
      <trkpt lat="47.8807" lon="6.8299">
        <ele>869.6</ele>
        <time>2022-09-13T13:41:13Z</time>
      </trkpt>
      <trkpt lat="47.88072" lon="6.82991">
        <ele>869.8</ele>
        <time>2022-09-13T13:41:14Z</time>
      </trkpt>
      <trkpt lat="47.88074" lon="6.82992">
        <ele>870</ele>
        <time>2022-09-13T13:41:15Z</time>
      </trkpt>
      <trkpt lat="47.88076" lon="6.82993">
        <ele>870.3</ele>
        <time>2022-09-13T13:41:16Z</time>
      </trkpt>
      <trkpt lat="47.88078" lon="6.82994">
        <ele>870.6</ele>
        <time>2022-09-13T13:41:17Z</time>
      </trkpt>
      <trkpt lat="47.8808" lon="6.82995">
        <ele>870.8</ele>
        <time>2022-09-13T13:41:18Z</time>
      </trkpt>
      <trkpt lat="47.88082" lon="6.82996">
        <ele>871.2</ele>
        <time>2022-09-13T13:41:19Z</time>
      </trkpt>
      <trkpt lat="47.88084" lon="6.82997">
        <ele>871.5</ele>
        <time>2022-09-13T13:41:20Z</time>
      </trkpt>
      <trkpt lat="47.88086" lon="6.82999">
        <ele>871.8</ele>
        <time>2022-09-13T13:41:21Z</time>
      </trkpt>
      <trkpt lat="47.88088" lon="6.83">
        <ele>872</ele>
        <time>2022-09-13T13:41:22Z</time>
      </trkpt>
      <trkpt lat="47.8809" lon="6.83001">
        <ele>872.1</ele>
        <time>2022-09-13T13:41:23Z</time>
      </trkpt>
      <trkpt lat="47.88092" lon="6.83002">
        <ele>872.2</ele>
        <time>2022-09-13T13:41:24Z</time>
      </trkpt>
      <trkpt lat="47.88094" lon="6.83004">
        <ele>872.4</ele>
        <time>2022-09-13T13:41:25Z</time>
      </trkpt>
      <trkpt lat="47.88096" lon="6.83006">
        <ele>872.5</ele>
        <time>2022-09-13T13:41:26Z</time>
      </trkpt>
      <trkpt lat="47.88098" lon="6.83007">
        <ele>872.6</ele>
        <time>2022-09-13T13:41:27Z</time>
      </trkpt>
      <trkpt lat="47.881" lon="6.83009">
        <ele>872.8</ele>
        <time>2022-09-13T13:41:28Z</time>
      </trkpt>
      <trkpt lat="47.88102" lon="6.83011">
        <ele>872.9</ele>
        <time>2022-09-13T13:41:29Z</time>
      </trkpt>
      <trkpt lat="47.88104" lon="6.83013">
        <ele>873.1</ele>
        <time>2022-09-13T13:41:30Z</time>
      </trkpt>
      <trkpt lat="47.88106" lon="6.83014">
        <ele>873.1</ele>
        <time>2022-09-13T13:41:31Z</time>
      </trkpt>
      <trkpt lat="47.88108" lon="6.83016">
        <ele>873.2</ele>
        <time>2022-09-13T13:41:32Z</time>
      </trkpt>
      <trkpt lat="47.8811" lon="6.83018">
        <ele>873.3</ele>
        <time>2022-09-13T13:41:33Z</time>
      </trkpt>
      <trkpt lat="47.88111" lon="6.8302">
        <ele>873.4</ele>
        <time>2022-09-13T13:41:34Z</time>
      </trkpt>
      <trkpt lat="47.88113" lon="6.83022">
        <ele>873.7</ele>
        <time>2022-09-13T13:41:35Z</time>
      </trkpt>
      <trkpt lat="47.88115" lon="6.83024">
        <ele>874</ele>
        <time>2022-09-13T13:41:36Z</time>
      </trkpt>
      <trkpt lat="47.88117" lon="6.83026">
        <ele>874.3</ele>
        <time>2022-09-13T13:41:37Z</time>
      </trkpt>
      <trkpt lat="47.88119" lon="6.83027">
        <ele>874.5</ele>
        <time>2022-09-13T13:41:38Z</time>
      </trkpt>
      <trkpt lat="47.88121" lon="6.83029">
        <ele>874.7</ele>
        <time>2022-09-13T13:41:39Z</time>
      </trkpt>
      <trkpt lat="47.88123" lon="6.83031">
        <ele>874.9</ele>
        <time>2022-09-13T13:41:40Z</time>
      </trkpt>
      <trkpt lat="47.88124" lon="6.83034">
        <ele>875</ele>
        <time>2022-09-13T13:41:41Z</time>
      </trkpt>
      <trkpt lat="47.88126" lon="6.83036">
        <ele>875.2</ele>
        <time>2022-09-13T13:41:42Z</time>
      </trkpt>
      <trkpt lat="47.88128" lon="6.83038">
        <ele>875.4</ele>
        <time>2022-09-13T13:41:43Z</time>
      </trkpt>
      <trkpt lat="47.88129" lon="6.8304">
        <ele>875.4</ele>
        <time>2022-09-13T13:41:44Z</time>
      </trkpt>
      <trkpt lat="47.88131" lon="6.83042">
        <ele>875.6</ele>
        <time>2022-09-13T13:41:45Z</time>
      </trkpt>
      <trkpt lat="47.88133" lon="6.83044">
        <ele>875.7</ele>
        <time>2022-09-13T13:41:46Z</time>
      </trkpt>
      <trkpt lat="47.88134" lon="6.83046">
        <ele>875.8</ele>
        <time>2022-09-13T13:41:47Z</time>
      </trkpt>
      <trkpt lat="47.88136" lon="6.83049">
        <ele>875.9</ele>
        <time>2022-09-13T13:41:48Z</time>
      </trkpt>
      <trkpt lat="47.88138" lon="6.83051">
        <ele>876</ele>
        <time>2022-09-13T13:41:49Z</time>
      </trkpt>
      <trkpt lat="47.88139" lon="6.83053">
        <ele>876</ele>
        <time>2022-09-13T13:41:50Z</time>
      </trkpt>
      <trkpt lat="47.88141" lon="6.83056">
        <ele>876.3</ele>
        <time>2022-09-13T13:41:51Z</time>
      </trkpt>
      <trkpt lat="47.88142" lon="6.83058">
        <ele>876.4</ele>
        <time>2022-09-13T13:41:52Z</time>
      </trkpt>
      <trkpt lat="47.88144" lon="6.8306">
        <ele>876.7</ele>
        <time>2022-09-13T13:41:53Z</time>
      </trkpt>
      <trkpt lat="47.88146" lon="6.83063">
        <ele>876.9</ele>
        <time>2022-09-13T13:41:54Z</time>
      </trkpt>
      <trkpt lat="47.88148" lon="6.83065">
        <ele>877.1</ele>
        <time>2022-09-13T13:41:55Z</time>
      </trkpt>
      <trkpt lat="47.88149" lon="6.83067">
        <ele>877.2</ele>
        <time>2022-09-13T13:41:56Z</time>
      </trkpt>
      <trkpt lat="47.88151" lon="6.83069">
        <ele>877.3</ele>
        <time>2022-09-13T13:41:57Z</time>
      </trkpt>
      <trkpt lat="47.88153" lon="6.83071">
        <ele>877.5</ele>
        <time>2022-09-13T13:41:58Z</time>
      </trkpt>
      <trkpt lat="47.88155" lon="6.83073">
        <ele>877.6</ele>
        <time>2022-09-13T13:41:59Z</time>
      </trkpt>
      <trkpt lat="47.88156" lon="6.83075">
        <ele>877.6</ele>
        <time>2022-09-13T13:42:00Z</time>
      </trkpt>
      <trkpt lat="47.88158" lon="6.83076">
        <ele>877.7</ele>
        <time>2022-09-13T13:42:01Z</time>
      </trkpt>
      <trkpt lat="47.8816" lon="6.83078">
        <ele>877.8</ele>
        <time>2022-09-13T13:42:02Z</time>
      </trkpt>
      <trkpt lat="47.88162" lon="6.8308">
        <ele>877.9</ele>
        <time>2022-09-13T13:42:03Z</time>
      </trkpt>
      <trkpt lat="47.88163" lon="6.83082">
        <ele>877.8</ele>
        <time>2022-09-13T13:42:04Z</time>
      </trkpt>
      <trkpt lat="47.88165" lon="6.83083">
        <ele>877.9</ele>
        <time>2022-09-13T13:42:05Z</time>
      </trkpt>
      <trkpt lat="47.88167" lon="6.83085">
        <ele>877.9</ele>
        <time>2022-09-13T13:42:06Z</time>
      </trkpt>
      <trkpt lat="47.88169" lon="6.83087">
        <ele>878.1</ele>
        <time>2022-09-13T13:42:07Z</time>
      </trkpt>
      <trkpt lat="47.88171" lon="6.83088">
        <ele>878.4</ele>
        <time>2022-09-13T13:42:08Z</time>
      </trkpt>
      <trkpt lat="47.88172" lon="6.8309">
        <ele>878.4</ele>
        <time>2022-09-13T13:42:09Z</time>
      </trkpt>
      <trkpt lat="47.88174" lon="6.83092">
        <ele>878.5</ele>
        <time>2022-09-13T13:42:10Z</time>
      </trkpt>
      <trkpt lat="47.88176" lon="6.83093">
        <ele>878.8</ele>
        <time>2022-09-13T13:42:11Z</time>
      </trkpt>
      <trkpt lat="47.88178" lon="6.83095">
        <ele>878.9</ele>
        <time>2022-09-13T13:42:12Z</time>
      </trkpt>
      <trkpt lat="47.8818" lon="6.83097">
        <ele>878.9</ele>
        <time>2022-09-13T13:42:13Z</time>
      </trkpt>
      <trkpt lat="47.88181" lon="6.83098">
        <ele>879</ele>
        <time>2022-09-13T13:42:14Z</time>
      </trkpt>
      <trkpt lat="47.88183" lon="6.831">
        <ele>879</ele>
        <time>2022-09-13T13:42:15Z</time>
      </trkpt>
      <trkpt lat="47.88185" lon="6.83102">
        <ele>879.1</ele>
        <time>2022-09-13T13:42:16Z</time>
      </trkpt>
      <trkpt lat="47.88187" lon="6.83103">
        <ele>879.2</ele>
        <time>2022-09-13T13:42:17Z</time>
      </trkpt>
      <trkpt lat="47.88188" lon="6.83105">
        <ele>879.1</ele>
        <time>2022-09-13T13:42:18Z</time>
      </trkpt>
      <trkpt lat="47.8819" lon="6.83107">
        <ele>879.1</ele>
        <time>2022-09-13T13:42:19Z</time>
      </trkpt>
      <trkpt lat="47.88192" lon="6.83108">
        <ele>879.2</ele>
        <time>2022-09-13T13:42:20Z</time>
      </trkpt>
      <trkpt lat="47.88194" lon="6.8311">
        <ele>879.1</ele>
        <time>2022-09-13T13:42:21Z</time>
      </trkpt>
      <trkpt lat="47.88196" lon="6.83112">
        <ele>879.1</ele>
        <time>2022-09-13T13:42:22Z</time>
      </trkpt>
      <trkpt lat="47.88198" lon="6.83113">
        <ele>879.3</ele>
        <time>2022-09-13T13:42:23Z</time>
      </trkpt>
      <trkpt lat="47.882" lon="6.83115">
        <ele>879.2</ele>
        <time>2022-09-13T13:42:24Z</time>
      </trkpt>
      <trkpt lat="47.88202" lon="6.83117">
        <ele>879.2</ele>
        <time>2022-09-13T13:42:25Z</time>
      </trkpt>
      <trkpt lat="47.88204" lon="6.83118">
        <ele>879.4</ele>
        <time>2022-09-13T13:42:26Z</time>
      </trkpt>
      <trkpt lat="47.88206" lon="6.8312">
        <ele>879.4</ele>
        <time>2022-09-13T13:42:27Z</time>
      </trkpt>
      <trkpt lat="47.88208" lon="6.83122">
        <ele>879.4</ele>
        <time>2022-09-13T13:42:28Z</time>
      </trkpt>
      <trkpt lat="47.8821" lon="6.83123">
        <ele>879.6</ele>
        <time>2022-09-13T13:42:29Z</time>
      </trkpt>
      <trkpt lat="47.88211" lon="6.83125">
        <ele>879.4</ele>
        <time>2022-09-13T13:42:30Z</time>
      </trkpt>
      <trkpt lat="47.88213" lon="6.83126">
        <ele>879.6</ele>
        <time>2022-09-13T13:42:31Z</time>
      </trkpt>
      <trkpt lat="47.88215" lon="6.83127">
        <ele>879.9</ele>
        <time>2022-09-13T13:42:32Z</time>
      </trkpt>
      <trkpt lat="47.88217" lon="6.83128">
        <ele>880.1</ele>
        <time>2022-09-13T13:42:33Z</time>
      </trkpt>
      <trkpt lat="47.88219" lon="6.8313">
        <ele>880.1</ele>
        <time>2022-09-13T13:42:34Z</time>
      </trkpt>
      <trkpt lat="47.88221" lon="6.83131">
        <ele>880.4</ele>
        <time>2022-09-13T13:42:35Z</time>
      </trkpt>
      <trkpt lat="47.88223" lon="6.83132">
        <ele>880.7</ele>
        <time>2022-09-13T13:42:36Z</time>
      </trkpt>
      <trkpt lat="47.88225" lon="6.83134">
        <ele>880.7</ele>
        <time>2022-09-13T13:42:37Z</time>
      </trkpt>
      <trkpt lat="47.88227" lon="6.83135">
        <ele>881</ele>
        <time>2022-09-13T13:42:38Z</time>
      </trkpt>
      <trkpt lat="47.88228" lon="6.83136">
        <ele>881</ele>
        <time>2022-09-13T13:42:39Z</time>
      </trkpt>
      <trkpt lat="47.8823" lon="6.83138">
        <ele>881.1</ele>
        <time>2022-09-13T13:42:40Z</time>
      </trkpt>
      <trkpt lat="47.88232" lon="6.83139">
        <ele>881.4</ele>
        <time>2022-09-13T13:42:41Z</time>
      </trkpt>
      <trkpt lat="47.88233" lon="6.83141">
        <ele>881</ele>
        <time>2022-09-13T13:42:42Z</time>
      </trkpt>
      <trkpt lat="47.88235" lon="6.83142">
        <ele>881.2</ele>
        <time>2022-09-13T13:42:43Z</time>
      </trkpt>
      <trkpt lat="47.88237" lon="6.83144">
        <ele>881.2</ele>
        <time>2022-09-13T13:42:44Z</time>
      </trkpt>
      <trkpt lat="47.88239" lon="6.83146">
        <ele>881.2</ele>
        <time>2022-09-13T13:42:45Z</time>
      </trkpt>
      <trkpt lat="47.88241" lon="6.83148">
        <ele>881.2</ele>
        <time>2022-09-13T13:42:46Z</time>
      </trkpt>
      <trkpt lat="47.88243" lon="6.8315">
        <ele>881.3</ele>
        <time>2022-09-13T13:42:47Z</time>
      </trkpt>
      <trkpt lat="47.88245" lon="6.83152">
        <ele>881.5</ele>
        <time>2022-09-13T13:42:48Z</time>
      </trkpt>
      <trkpt lat="47.88247" lon="6.83154">
        <ele>881.7</ele>
        <time>2022-09-13T13:42:49Z</time>
      </trkpt>
      <trkpt lat="47.88249" lon="6.83156">
        <ele>881.9</ele>
        <time>2022-09-13T13:42:50Z</time>
      </trkpt>
      <trkpt lat="47.88251" lon="6.83157">
        <ele>882.3</ele>
        <time>2022-09-13T13:42:51Z</time>
      </trkpt>
      <trkpt lat="47.88253" lon="6.8316">
        <ele>882.1</ele>
        <time>2022-09-13T13:42:52Z</time>
      </trkpt>
      <trkpt lat="47.88255" lon="6.83162">
        <ele>882.2</ele>
        <time>2022-09-13T13:42:53Z</time>
      </trkpt>
      <trkpt lat="47.88257" lon="6.83164">
        <ele>882.3</ele>
        <time>2022-09-13T13:42:54Z</time>
      </trkpt>
      <trkpt lat="47.88259" lon="6.83166">
        <ele>882.4</ele>
        <time>2022-09-13T13:42:55Z</time>
      </trkpt>
      <trkpt lat="47.88261" lon="6.83168">
        <ele>882.4</ele>
        <time>2022-09-13T13:42:56Z</time>
      </trkpt>
      <trkpt lat="47.88262" lon="6.8317">
        <ele>882.1</ele>
        <time>2022-09-13T13:42:57Z</time>
      </trkpt>
      <trkpt lat="47.88264" lon="6.83171">
        <ele>882.4</ele>
        <time>2022-09-13T13:42:58Z</time>
      </trkpt>
      <trkpt lat="47.88265" lon="6.83173">
        <ele>882.1</ele>
        <time>2022-09-13T13:42:59Z</time>
      </trkpt>
      <trkpt lat="47.88267" lon="6.83175">
        <ele>882.1</ele>
        <time>2022-09-13T13:43:00Z</time>
      </trkpt>
      <trkpt lat="47.88269" lon="6.83177">
        <ele>882.2</ele>
        <time>2022-09-13T13:43:01Z</time>
      </trkpt>
      <trkpt lat="47.8827" lon="6.83178">
        <ele>882.2</ele>
        <time>2022-09-13T13:43:02Z</time>
      </trkpt>
      <trkpt lat="47.88272" lon="6.8318">
        <ele>882.4</ele>
        <time>2022-09-13T13:43:03Z</time>
      </trkpt>
      <trkpt lat="47.88274" lon="6.83182">
        <ele>882.5</ele>
        <time>2022-09-13T13:43:04Z</time>
      </trkpt>
      <trkpt lat="47.88276" lon="6.83184">
        <ele>882.7</ele>
        <time>2022-09-13T13:43:05Z</time>
      </trkpt>
      <trkpt lat="47.88278" lon="6.83187">
        <ele>882.7</ele>
        <time>2022-09-13T13:43:06Z</time>
      </trkpt>
      <trkpt lat="47.88282" lon="6.83192">
        <ele>882.4</ele>
        <time>2022-09-13T13:43:07Z</time>
      </trkpt>
      <trkpt lat="47.88285" lon="6.83195">
        <ele>882.4</ele>
        <time>2022-09-13T13:43:08Z</time>
      </trkpt>
      <trkpt lat="47.88287" lon="6.83199">
        <ele>881.8</ele>
        <time>2022-09-13T13:43:09Z</time>
      </trkpt>
      <trkpt lat="47.88289" lon="6.83202">
        <ele>881.6</ele>
        <time>2022-09-13T13:43:10Z</time>
      </trkpt>
      <trkpt lat="47.88291" lon="6.83204">
        <ele>881.6</ele>
        <time>2022-09-13T13:43:11Z</time>
      </trkpt>
      <trkpt lat="47.88293" lon="6.83207">
        <ele>881.4</ele>
        <time>2022-09-13T13:43:12Z</time>
      </trkpt>
      <trkpt lat="47.88294" lon="6.83208">
        <ele>881.5</ele>
        <time>2022-09-13T13:43:13Z</time>
      </trkpt>
      <trkpt lat="47.88296" lon="6.8321">
        <ele>881.6</ele>
        <time>2022-09-13T13:43:14Z</time>
      </trkpt>
      <trkpt lat="47.88298" lon="6.83213">
        <ele>881.5</ele>
        <time>2022-09-13T13:43:15Z</time>
      </trkpt>
      <trkpt lat="47.883" lon="6.83215">
        <ele>881.7</ele>
        <time>2022-09-13T13:43:16Z</time>
      </trkpt>
      <trkpt lat="47.88302" lon="6.83218">
        <ele>881.7</ele>
        <time>2022-09-13T13:43:17Z</time>
      </trkpt>
      <trkpt lat="47.88305" lon="6.83222">
        <ele>881.9</ele>
        <time>2022-09-13T13:43:18Z</time>
      </trkpt>
      <trkpt lat="47.88306" lon="6.83223">
        <ele>881.9</ele>
        <time>2022-09-13T13:43:19Z</time>
      </trkpt>
      <trkpt lat="47.88308" lon="6.83225">
        <ele>881.8</ele>
        <time>2022-09-13T13:43:20Z</time>
      </trkpt>
      <trkpt lat="47.8831" lon="6.83227">
        <ele>881.7</ele>
        <time>2022-09-13T13:43:21Z</time>
      </trkpt>
      <trkpt lat="47.88312" lon="6.83229">
        <ele>881.6</ele>
        <time>2022-09-13T13:43:22Z</time>
      </trkpt>
      <trkpt lat="47.88316" lon="6.83233">
        <ele>881.5</ele>
        <time>2022-09-13T13:43:23Z</time>
      </trkpt>
      <trkpt lat="47.88319" lon="6.83236">
        <ele>881.5</ele>
        <time>2022-09-13T13:43:24Z</time>
      </trkpt>
      <trkpt lat="47.88321" lon="6.83239">
        <ele>881.3</ele>
        <time>2022-09-13T13:43:25Z</time>
      </trkpt>
      <trkpt lat="47.88324" lon="6.83242">
        <ele>881.4</ele>
        <time>2022-09-13T13:43:26Z</time>
      </trkpt>
      <trkpt lat="47.88326" lon="6.83244">
        <ele>881.4</ele>
        <time>2022-09-13T13:43:27Z</time>
      </trkpt>
      <trkpt lat="47.88329" lon="6.83246">
        <ele>881.7</ele>
        <time>2022-09-13T13:43:28Z</time>
      </trkpt>
      <trkpt lat="47.88331" lon="6.83248">
        <ele>881.8</ele>
        <time>2022-09-13T13:43:29Z</time>
      </trkpt>
      <trkpt lat="47.88333" lon="6.8325">
        <ele>881.9</ele>
        <time>2022-09-13T13:43:30Z</time>
      </trkpt>
      <trkpt lat="47.88336" lon="6.83252">
        <ele>881.8</ele>
        <time>2022-09-13T13:43:31Z</time>
      </trkpt>
      <trkpt lat="47.88338" lon="6.83254">
        <ele>881.6</ele>
        <time>2022-09-13T13:43:32Z</time>
      </trkpt>
      <trkpt lat="47.8834" lon="6.83257">
        <ele>881.4</ele>
        <time>2022-09-13T13:43:33Z</time>
      </trkpt>
      <trkpt lat="47.88343" lon="6.83259">
        <ele>881.3</ele>
        <time>2022-09-13T13:43:34Z</time>
      </trkpt>
      <trkpt lat="47.88344" lon="6.8326">
        <ele>881.2</ele>
        <time>2022-09-13T13:43:35Z</time>
      </trkpt>
      <trkpt lat="47.88346" lon="6.83262">
        <ele>881.1</ele>
        <time>2022-09-13T13:43:36Z</time>
      </trkpt>
      <trkpt lat="47.88347" lon="6.83264">
        <ele>881</ele>
        <time>2022-09-13T13:43:37Z</time>
      </trkpt>
      <trkpt lat="47.88349" lon="6.83266">
        <ele>880.9</ele>
        <time>2022-09-13T13:43:38Z</time>
      </trkpt>
      <trkpt lat="47.88351" lon="6.83268">
        <ele>880.9</ele>
        <time>2022-09-13T13:43:39Z</time>
      </trkpt>
      <trkpt lat="47.88354" lon="6.83271">
        <ele>880.9</ele>
        <time>2022-09-13T13:43:40Z</time>
      </trkpt>
      <trkpt lat="47.88355" lon="6.83273">
        <ele>880.8</ele>
        <time>2022-09-13T13:43:41Z</time>
      </trkpt>
      <trkpt lat="47.88357" lon="6.83276">
        <ele>880.8</ele>
        <time>2022-09-13T13:43:42Z</time>
      </trkpt>
      <trkpt lat="47.88359" lon="6.83278">
        <ele>880.8</ele>
        <time>2022-09-13T13:43:43Z</time>
      </trkpt>
      <trkpt lat="47.8836" lon="6.8328">
        <ele>880.8</ele>
        <time>2022-09-13T13:43:44Z</time>
      </trkpt>
      <trkpt lat="47.88362" lon="6.83283">
        <ele>880.7</ele>
        <time>2022-09-13T13:43:45Z</time>
      </trkpt>
      <trkpt lat="47.88363" lon="6.83285">
        <ele>880.6</ele>
        <time>2022-09-13T13:43:46Z</time>
      </trkpt>
      <trkpt lat="47.88365" lon="6.83288">
        <ele>880.3</ele>
        <time>2022-09-13T13:43:47Z</time>
      </trkpt>
      <trkpt lat="47.88366" lon="6.8329">
        <ele>880.2</ele>
        <time>2022-09-13T13:43:48Z</time>
      </trkpt>
      <trkpt lat="47.88368" lon="6.83293">
        <ele>880</ele>
        <time>2022-09-13T13:43:49Z</time>
      </trkpt>
      <trkpt lat="47.88369" lon="6.83295">
        <ele>879.9</ele>
        <time>2022-09-13T13:43:50Z</time>
      </trkpt>
      <trkpt lat="47.8837" lon="6.83298">
        <ele>879.8</ele>
        <time>2022-09-13T13:43:51Z</time>
      </trkpt>
      <trkpt lat="47.88372" lon="6.833">
        <ele>879.7</ele>
        <time>2022-09-13T13:43:52Z</time>
      </trkpt>
      <trkpt lat="47.88373" lon="6.83302">
        <ele>879.6</ele>
        <time>2022-09-13T13:43:53Z</time>
      </trkpt>
      <trkpt lat="47.88374" lon="6.83303">
        <ele>879.5</ele>
        <time>2022-09-13T13:43:54Z</time>
      </trkpt>
      <trkpt lat="47.88374" lon="6.83305">
        <ele>879.5</ele>
        <time>2022-09-13T13:43:55Z</time>
      </trkpt>
      <trkpt lat="47.88375" lon="6.83306">
        <ele>879.5</ele>
        <time>2022-09-13T13:43:56Z</time>
      </trkpt>
      <trkpt lat="47.88377" lon="6.83308">
        <ele>879.4</ele>
        <time>2022-09-13T13:43:57Z</time>
      </trkpt>
      <trkpt lat="47.88378" lon="6.8331">
        <ele>879.4</ele>
        <time>2022-09-13T13:43:58Z</time>
      </trkpt>
      <trkpt lat="47.8838" lon="6.83312">
        <ele>879.3</ele>
        <time>2022-09-13T13:43:59Z</time>
      </trkpt>
      <trkpt lat="47.88381" lon="6.83315">
        <ele>879.3</ele>
        <time>2022-09-13T13:44:00Z</time>
      </trkpt>
      <trkpt lat="47.88382" lon="6.83317">
        <ele>879.4</ele>
        <time>2022-09-13T13:44:01Z</time>
      </trkpt>
      <trkpt lat="47.88383" lon="6.8332">
        <ele>879.4</ele>
        <time>2022-09-13T13:44:02Z</time>
      </trkpt>
      <trkpt lat="47.88383" lon="6.83321">
        <ele>879.4</ele>
        <time>2022-09-13T13:44:03Z</time>
      </trkpt>
      <trkpt lat="47.88384" lon="6.83325">
        <ele>879.5</ele>
        <time>2022-09-13T13:44:04Z</time>
      </trkpt>
      <trkpt lat="47.88385" lon="6.83327">
        <ele>879.6</ele>
        <time>2022-09-13T13:44:05Z</time>
      </trkpt>
      <trkpt lat="47.88386" lon="6.8333">
        <ele>879.7</ele>
        <time>2022-09-13T13:44:06Z</time>
      </trkpt>
      <trkpt lat="47.88387" lon="6.83333">
        <ele>879.9</ele>
        <time>2022-09-13T13:44:07Z</time>
      </trkpt>
      <trkpt lat="47.88388" lon="6.83336">
        <ele>879.9</ele>
        <time>2022-09-13T13:44:08Z</time>
      </trkpt>
      <trkpt lat="47.88389" lon="6.83339">
        <ele>880</ele>
        <time>2022-09-13T13:44:09Z</time>
      </trkpt>
      <trkpt lat="47.88389" lon="6.83342">
        <ele>880</ele>
        <time>2022-09-13T13:44:10Z</time>
      </trkpt>
      <trkpt lat="47.8839" lon="6.83344">
        <ele>879.8</ele>
        <time>2022-09-13T13:44:11Z</time>
      </trkpt>
      <trkpt lat="47.88391" lon="6.83348">
        <ele>879.7</ele>
        <time>2022-09-13T13:44:12Z</time>
      </trkpt>
      <trkpt lat="47.88392" lon="6.83351">
        <ele>879.7</ele>
        <time>2022-09-13T13:44:13Z</time>
      </trkpt>
      <trkpt lat="47.88394" lon="6.83354">
        <ele>879.5</ele>
        <time>2022-09-13T13:44:14Z</time>
      </trkpt>
      <trkpt lat="47.88395" lon="6.83357">
        <ele>879.5</ele>
        <time>2022-09-13T13:44:15Z</time>
      </trkpt>
      <trkpt lat="47.88396" lon="6.8336">
        <ele>879.5</ele>
        <time>2022-09-13T13:44:16Z</time>
      </trkpt>
      <trkpt lat="47.88397" lon="6.83363">
        <ele>879.4</ele>
        <time>2022-09-13T13:44:17Z</time>
      </trkpt>
      <trkpt lat="47.88399" lon="6.83366">
        <ele>879.3</ele>
        <time>2022-09-13T13:44:18Z</time>
      </trkpt>
      <trkpt lat="47.884" lon="6.83369">
        <ele>879.3</ele>
        <time>2022-09-13T13:44:19Z</time>
      </trkpt>
      <trkpt lat="47.88402" lon="6.83373">
        <ele>879.2</ele>
        <time>2022-09-13T13:44:20Z</time>
      </trkpt>
      <trkpt lat="47.88405" lon="6.83378">
        <ele>879.3</ele>
        <time>2022-09-13T13:44:21Z</time>
      </trkpt>
      <trkpt lat="47.88407" lon="6.83382">
        <ele>879.4</ele>
        <time>2022-09-13T13:44:22Z</time>
      </trkpt>
      <trkpt lat="47.88409" lon="6.83384">
        <ele>879.5</ele>
        <time>2022-09-13T13:44:23Z</time>
      </trkpt>
      <trkpt lat="47.88412" lon="6.83386">
        <ele>879.7</ele>
        <time>2022-09-13T13:44:24Z</time>
      </trkpt>
      <trkpt lat="47.88414" lon="6.83388">
        <ele>879.8</ele>
        <time>2022-09-13T13:44:25Z</time>
      </trkpt>
      <trkpt lat="47.88416" lon="6.83389">
        <ele>880</ele>
        <time>2022-09-13T13:44:26Z</time>
      </trkpt>
      <trkpt lat="47.88418" lon="6.8339">
        <ele>879.9</ele>
        <time>2022-09-13T13:44:27Z</time>
      </trkpt>
      <trkpt lat="47.8842" lon="6.83391">
        <ele>879.6</ele>
        <time>2022-09-13T13:44:28Z</time>
      </trkpt>
      <trkpt lat="47.88422" lon="6.83392">
        <ele>879.4</ele>
        <time>2022-09-13T13:44:29Z</time>
      </trkpt>
      <trkpt lat="47.88425" lon="6.83393">
        <ele>879.1</ele>
        <time>2022-09-13T13:44:30Z</time>
      </trkpt>
      <trkpt lat="47.88427" lon="6.83395">
        <ele>879.1</ele>
        <time>2022-09-13T13:44:31Z</time>
      </trkpt>
      <trkpt lat="47.88431" lon="6.83398">
        <ele>878.9</ele>
        <time>2022-09-13T13:44:32Z</time>
      </trkpt>
      <trkpt lat="47.88432" lon="6.83399">
        <ele>879</ele>
        <time>2022-09-13T13:44:33Z</time>
      </trkpt>
      <trkpt lat="47.88435" lon="6.834">
        <ele>878.8</ele>
        <time>2022-09-13T13:44:34Z</time>
      </trkpt>
      <trkpt lat="47.88438" lon="6.83403">
        <ele>879</ele>
        <time>2022-09-13T13:44:35Z</time>
      </trkpt>
      <trkpt lat="47.88441" lon="6.83405">
        <ele>879.1</ele>
        <time>2022-09-13T13:44:36Z</time>
      </trkpt>
      <trkpt lat="47.88442" lon="6.83406">
        <ele>879.2</ele>
        <time>2022-09-13T13:44:37Z</time>
      </trkpt>
      <trkpt lat="47.88444" lon="6.83407">
        <ele>879.3</ele>
        <time>2022-09-13T13:44:38Z</time>
      </trkpt>
      <trkpt lat="47.88445" lon="6.83409">
        <ele>879.5</ele>
        <time>2022-09-13T13:44:39Z</time>
      </trkpt>
      <trkpt lat="47.88447" lon="6.8341">
        <ele>879.2</ele>
        <time>2022-09-13T13:44:40Z</time>
      </trkpt>
      <trkpt lat="47.88449" lon="6.83412">
        <ele>879.1</ele>
        <time>2022-09-13T13:44:41Z</time>
      </trkpt>
      <trkpt lat="47.88451" lon="6.83414">
        <ele>879.1</ele>
        <time>2022-09-13T13:44:42Z</time>
      </trkpt>
      <trkpt lat="47.88453" lon="6.83415">
        <ele>878.8</ele>
        <time>2022-09-13T13:44:43Z</time>
      </trkpt>
      <trkpt lat="47.88455" lon="6.83417">
        <ele>878.8</ele>
        <time>2022-09-13T13:44:44Z</time>
      </trkpt>
      <trkpt lat="47.88458" lon="6.83418">
        <ele>878.3</ele>
        <time>2022-09-13T13:44:45Z</time>
      </trkpt>
      <trkpt lat="47.8846" lon="6.8342">
        <ele>878.3</ele>
        <time>2022-09-13T13:44:46Z</time>
      </trkpt>
      <trkpt lat="47.88462" lon="6.83421">
        <ele>878.1</ele>
        <time>2022-09-13T13:44:47Z</time>
      </trkpt>
      <trkpt lat="47.88464" lon="6.83422">
        <ele>877.9</ele>
        <time>2022-09-13T13:44:48Z</time>
      </trkpt>
      <trkpt lat="47.88466" lon="6.83424">
        <ele>878</ele>
        <time>2022-09-13T13:44:49Z</time>
      </trkpt>
      <trkpt lat="47.88469" lon="6.83425">
        <ele>877.7</ele>
        <time>2022-09-13T13:44:50Z</time>
      </trkpt>
      <trkpt lat="47.88471" lon="6.83426">
        <ele>877.6</ele>
        <time>2022-09-13T13:44:51Z</time>
      </trkpt>
      <trkpt lat="47.88473" lon="6.83427">
        <ele>877.5</ele>
        <time>2022-09-13T13:44:52Z</time>
      </trkpt>
      <trkpt lat="47.88476" lon="6.83428">
        <ele>877.2</ele>
        <time>2022-09-13T13:44:53Z</time>
      </trkpt>
      <trkpt lat="47.88478" lon="6.83428">
        <ele>876.9</ele>
        <time>2022-09-13T13:44:54Z</time>
      </trkpt>
      <trkpt lat="47.8848" lon="6.83429">
        <ele>876.8</ele>
        <time>2022-09-13T13:44:55Z</time>
      </trkpt>
      <trkpt lat="47.88483" lon="6.8343">
        <ele>876.6</ele>
        <time>2022-09-13T13:44:56Z</time>
      </trkpt>
      <trkpt lat="47.88485" lon="6.8343">
        <ele>876.3</ele>
        <time>2022-09-13T13:44:57Z</time>
      </trkpt>
      <trkpt lat="47.88487" lon="6.83431">
        <ele>876.2</ele>
        <time>2022-09-13T13:44:58Z</time>
      </trkpt>
      <trkpt lat="47.88489" lon="6.83432">
        <ele>876.2</ele>
        <time>2022-09-13T13:44:59Z</time>
      </trkpt>
      <trkpt lat="47.88492" lon="6.83433">
        <ele>876</ele>
        <time>2022-09-13T13:45:00Z</time>
      </trkpt>
      <trkpt lat="47.88494" lon="6.83434">
        <ele>875.9</ele>
        <time>2022-09-13T13:45:01Z</time>
      </trkpt>
      <trkpt lat="47.88499" lon="6.83435">
        <ele>875.4</ele>
        <time>2022-09-13T13:45:02Z</time>
      </trkpt>
      <trkpt lat="47.88503" lon="6.83436">
        <ele>875</ele>
        <time>2022-09-13T13:45:03Z</time>
      </trkpt>
      <trkpt lat="47.88506" lon="6.83438">
        <ele>875</ele>
        <time>2022-09-13T13:45:04Z</time>
      </trkpt>
      <trkpt lat="47.88509" lon="6.83439">
        <ele>874.7</ele>
        <time>2022-09-13T13:45:05Z</time>
      </trkpt>
      <trkpt lat="47.88512" lon="6.8344">
        <ele>874.5</ele>
        <time>2022-09-13T13:45:06Z</time>
      </trkpt>
      <trkpt lat="47.88515" lon="6.83442">
        <ele>874.5</ele>
        <time>2022-09-13T13:45:07Z</time>
      </trkpt>
      <trkpt lat="47.88518" lon="6.83444">
        <ele>874.6</ele>
        <time>2022-09-13T13:45:08Z</time>
      </trkpt>
      <trkpt lat="47.88521" lon="6.83447">
        <ele>874.7</ele>
        <time>2022-09-13T13:45:09Z</time>
      </trkpt>
      <trkpt lat="47.88524" lon="6.83449">
        <ele>874.5</ele>
        <time>2022-09-13T13:45:10Z</time>
      </trkpt>
      <trkpt lat="47.88528" lon="6.83451">
        <ele>874.1</ele>
        <time>2022-09-13T13:45:11Z</time>
      </trkpt>
      <trkpt lat="47.88532" lon="6.83453">
        <ele>873.4</ele>
        <time>2022-09-13T13:45:12Z</time>
      </trkpt>
      <trkpt lat="47.88536" lon="6.83456">
        <ele>873</ele>
        <time>2022-09-13T13:45:13Z</time>
      </trkpt>
      <trkpt lat="47.8854" lon="6.83458">
        <ele>872.3</ele>
        <time>2022-09-13T13:45:14Z</time>
      </trkpt>
      <trkpt lat="47.88544" lon="6.8346">
        <ele>871.8</ele>
        <time>2022-09-13T13:45:15Z</time>
      </trkpt>
      <trkpt lat="47.88547" lon="6.83462">
        <ele>871.5</ele>
        <time>2022-09-13T13:45:16Z</time>
      </trkpt>
      <trkpt lat="47.88552" lon="6.83464">
        <ele>870.8</ele>
        <time>2022-09-13T13:45:17Z</time>
      </trkpt>
      <trkpt lat="47.88556" lon="6.83466">
        <ele>870.3</ele>
        <time>2022-09-13T13:45:18Z</time>
      </trkpt>
      <trkpt lat="47.8856" lon="6.83469">
        <ele>870.2</ele>
        <time>2022-09-13T13:45:19Z</time>
      </trkpt>
      <trkpt lat="47.88564" lon="6.83472">
        <ele>870.1</ele>
        <time>2022-09-13T13:45:20Z</time>
      </trkpt>
      <trkpt lat="47.88568" lon="6.83475">
        <ele>870.1</ele>
        <time>2022-09-13T13:45:21Z</time>
      </trkpt>
      <trkpt lat="47.88572" lon="6.83478">
        <ele>870</ele>
        <time>2022-09-13T13:45:22Z</time>
      </trkpt>
      <trkpt lat="47.88576" lon="6.83481">
        <ele>869.9</ele>
        <time>2022-09-13T13:45:23Z</time>
      </trkpt>
      <trkpt lat="47.8858" lon="6.83484">
        <ele>869.7</ele>
        <time>2022-09-13T13:45:24Z</time>
      </trkpt>
      <trkpt lat="47.88584" lon="6.83487">
        <ele>869.5</ele>
        <time>2022-09-13T13:45:25Z</time>
      </trkpt>
      <trkpt lat="47.88587" lon="6.8349">
        <ele>869.5</ele>
        <time>2022-09-13T13:45:26Z</time>
      </trkpt>
      <trkpt lat="47.88591" lon="6.83493">
        <ele>869.2</ele>
        <time>2022-09-13T13:45:27Z</time>
      </trkpt>
      <trkpt lat="47.88593" lon="6.83497">
        <ele>869.7</ele>
        <time>2022-09-13T13:45:28Z</time>
      </trkpt>
      <trkpt lat="47.88596" lon="6.83499">
        <ele>869.5</ele>
        <time>2022-09-13T13:45:29Z</time>
      </trkpt>
      <trkpt lat="47.88599" lon="6.83502">
        <ele>869.6</ele>
        <time>2022-09-13T13:45:30Z</time>
      </trkpt>
      <trkpt lat="47.88602" lon="6.83504">
        <ele>869.4</ele>
        <time>2022-09-13T13:45:31Z</time>
      </trkpt>
      <trkpt lat="47.88605" lon="6.83506">
        <ele>869.3</ele>
        <time>2022-09-13T13:45:32Z</time>
      </trkpt>
      <trkpt lat="47.88607" lon="6.83509">
        <ele>869.6</ele>
        <time>2022-09-13T13:45:33Z</time>
      </trkpt>
      <trkpt lat="47.88609" lon="6.83511">
        <ele>869.7</ele>
        <time>2022-09-13T13:45:34Z</time>
      </trkpt>
      <trkpt lat="47.88611" lon="6.83513">
        <ele>869.8</ele>
        <time>2022-09-13T13:45:35Z</time>
      </trkpt>
      <trkpt lat="47.88613" lon="6.83514">
        <ele>869.8</ele>
        <time>2022-09-13T13:45:36Z</time>
      </trkpt>
      <trkpt lat="47.88615" lon="6.83515">
        <ele>869.8</ele>
        <time>2022-09-13T13:45:37Z</time>
      </trkpt>
      <trkpt lat="47.88617" lon="6.83517">
        <ele>870.1</ele>
        <time>2022-09-13T13:45:38Z</time>
      </trkpt>
      <trkpt lat="47.8862" lon="6.83521">
        <ele>870.8</ele>
        <time>2022-09-13T13:45:39Z</time>
      </trkpt>
      <trkpt lat="47.88622" lon="6.83524">
        <ele>871.4</ele>
        <time>2022-09-13T13:45:40Z</time>
      </trkpt>
      <trkpt lat="47.88624" lon="6.83525">
        <ele>871.4</ele>
        <time>2022-09-13T13:45:41Z</time>
      </trkpt>
      <trkpt lat="47.88625" lon="6.83527">
        <ele>871.8</ele>
        <time>2022-09-13T13:45:42Z</time>
      </trkpt>
      <trkpt lat="47.88627" lon="6.83529">
        <ele>872</ele>
        <time>2022-09-13T13:45:43Z</time>
      </trkpt>
      <trkpt lat="47.88629" lon="6.83532">
        <ele>872.3</ele>
        <time>2022-09-13T13:45:44Z</time>
      </trkpt>
      <trkpt lat="47.88631" lon="6.83534">
        <ele>872.4</ele>
        <time>2022-09-13T13:45:45Z</time>
      </trkpt>
      <trkpt lat="47.88633" lon="6.83536">
        <ele>872.5</ele>
        <time>2022-09-13T13:45:46Z</time>
      </trkpt>
      <trkpt lat="47.88637" lon="6.8354">
        <ele>872.6</ele>
        <time>2022-09-13T13:45:47Z</time>
      </trkpt>
      <trkpt lat="47.88639" lon="6.83543">
        <ele>872.7</ele>
        <time>2022-09-13T13:45:48Z</time>
      </trkpt>
      <trkpt lat="47.8864" lon="6.83545">
        <ele>873.1</ele>
        <time>2022-09-13T13:45:49Z</time>
      </trkpt>
      <trkpt lat="47.88642" lon="6.83546">
        <ele>873.3</ele>
        <time>2022-09-13T13:45:50Z</time>
      </trkpt>
      <trkpt lat="47.88644" lon="6.83548">
        <ele>873.7</ele>
        <time>2022-09-13T13:45:51Z</time>
      </trkpt>
      <trkpt lat="47.88646" lon="6.8355">
        <ele>874.1</ele>
        <time>2022-09-13T13:45:52Z</time>
      </trkpt>
      <trkpt lat="47.88648" lon="6.83552">
        <ele>874.6</ele>
        <time>2022-09-13T13:45:53Z</time>
      </trkpt>
      <trkpt lat="47.88649" lon="6.83553">
        <ele>874.8</ele>
        <time>2022-09-13T13:45:54Z</time>
      </trkpt>
      <trkpt lat="47.88651" lon="6.83554">
        <ele>875.1</ele>
        <time>2022-09-13T13:45:55Z</time>
      </trkpt>
      <trkpt lat="47.88654" lon="6.83554">
        <ele>875.2</ele>
        <time>2022-09-13T13:45:56Z</time>
      </trkpt>
      <trkpt lat="47.88656" lon="6.83555">
        <ele>875.5</ele>
        <time>2022-09-13T13:45:57Z</time>
      </trkpt>
      <trkpt lat="47.88658" lon="6.83554">
        <ele>875.3</ele>
        <time>2022-09-13T13:45:58Z</time>
      </trkpt>
      <trkpt lat="47.88661" lon="6.83554">
        <ele>875.4</ele>
        <time>2022-09-13T13:45:59Z</time>
      </trkpt>
      <trkpt lat="47.88663" lon="6.83553">
        <ele>875.2</ele>
        <time>2022-09-13T13:46:00Z</time>
      </trkpt>
      <trkpt lat="47.88665" lon="6.83553">
        <ele>875.2</ele>
        <time>2022-09-13T13:46:01Z</time>
      </trkpt>
      <trkpt lat="47.88667" lon="6.83552">
        <ele>875</ele>
        <time>2022-09-13T13:46:02Z</time>
      </trkpt>
      <trkpt lat="47.8867" lon="6.83552">
        <ele>875.5</ele>
        <time>2022-09-13T13:46:03Z</time>
      </trkpt>
      <trkpt lat="47.88672" lon="6.83551">
        <ele>875.6</ele>
        <time>2022-09-13T13:46:04Z</time>
      </trkpt>
      <trkpt lat="47.88674" lon="6.83551">
        <ele>875.9</ele>
        <time>2022-09-13T13:46:05Z</time>
      </trkpt>
      <trkpt lat="47.88677" lon="6.8355">
        <ele>876.2</ele>
        <time>2022-09-13T13:46:06Z</time>
      </trkpt>
      <trkpt lat="47.88679" lon="6.83549">
        <ele>876.3</ele>
        <time>2022-09-13T13:46:07Z</time>
      </trkpt>
      <trkpt lat="47.88681" lon="6.83547">
        <ele>876.2</ele>
        <time>2022-09-13T13:46:08Z</time>
      </trkpt>
      <trkpt lat="47.88684" lon="6.83546">
        <ele>876.6</ele>
        <time>2022-09-13T13:46:09Z</time>
      </trkpt>
      <trkpt lat="47.88686" lon="6.83544">
        <ele>876.6</ele>
        <time>2022-09-13T13:46:10Z</time>
      </trkpt>
      <trkpt lat="47.88689" lon="6.8354">
        <ele>876.5</ele>
        <time>2022-09-13T13:46:11Z</time>
      </trkpt>
      <trkpt lat="47.88691" lon="6.83539">
        <ele>876.8</ele>
        <time>2022-09-13T13:46:12Z</time>
      </trkpt>
      <trkpt lat="47.88692" lon="6.83536">
        <ele>876.6</ele>
        <time>2022-09-13T13:46:13Z</time>
      </trkpt>
      <trkpt lat="47.88694" lon="6.83534">
        <ele>876.8</ele>
        <time>2022-09-13T13:46:14Z</time>
      </trkpt>
      <trkpt lat="47.88695" lon="6.83532">
        <ele>876.8</ele>
        <time>2022-09-13T13:46:15Z</time>
      </trkpt>
      <trkpt lat="47.88697" lon="6.83529">
        <ele>877.1</ele>
        <time>2022-09-13T13:46:16Z</time>
      </trkpt>
      <trkpt lat="47.88699" lon="6.83526">
        <ele>877.3</ele>
        <time>2022-09-13T13:46:17Z</time>
      </trkpt>
      <trkpt lat="47.887" lon="6.83523">
        <ele>877.2</ele>
        <time>2022-09-13T13:46:18Z</time>
      </trkpt>
      <trkpt lat="47.88702" lon="6.8352">
        <ele>877.4</ele>
        <time>2022-09-13T13:46:19Z</time>
      </trkpt>
      <trkpt lat="47.88704" lon="6.83517">
        <ele>877.6</ele>
        <time>2022-09-13T13:46:20Z</time>
      </trkpt>
      <trkpt lat="47.88705" lon="6.83514">
        <ele>877.5</ele>
        <time>2022-09-13T13:46:21Z</time>
      </trkpt>
      <trkpt lat="47.88708" lon="6.83509">
        <ele>877.8</ele>
        <time>2022-09-13T13:46:22Z</time>
      </trkpt>
      <trkpt lat="47.88709" lon="6.83507">
        <ele>877.9</ele>
        <time>2022-09-13T13:46:23Z</time>
      </trkpt>
      <trkpt lat="47.88711" lon="6.83505">
        <ele>878.3</ele>
        <time>2022-09-13T13:46:24Z</time>
      </trkpt>
      <trkpt lat="47.88712" lon="6.83502">
        <ele>878.3</ele>
        <time>2022-09-13T13:46:25Z</time>
      </trkpt>
      <trkpt lat="47.88714" lon="6.83499">
        <ele>878.6</ele>
        <time>2022-09-13T13:46:26Z</time>
      </trkpt>
      <trkpt lat="47.88715" lon="6.83496">
        <ele>878.5</ele>
        <time>2022-09-13T13:46:27Z</time>
      </trkpt>
      <trkpt lat="47.88717" lon="6.83493">
        <ele>878.9</ele>
        <time>2022-09-13T13:46:28Z</time>
      </trkpt>
      <trkpt lat="47.88719" lon="6.8349">
        <ele>879.2</ele>
        <time>2022-09-13T13:46:29Z</time>
      </trkpt>
      <trkpt lat="47.88721" lon="6.83485">
        <ele>879.3</ele>
        <time>2022-09-13T13:46:30Z</time>
      </trkpt>
      <trkpt lat="47.88722" lon="6.83484">
        <ele>879.6</ele>
        <time>2022-09-13T13:46:31Z</time>
      </trkpt>
      <trkpt lat="47.88723" lon="6.83481">
        <ele>879.5</ele>
        <time>2022-09-13T13:46:32Z</time>
      </trkpt>
      <trkpt lat="47.88725" lon="6.83478">
        <ele>879.7</ele>
        <time>2022-09-13T13:46:33Z</time>
      </trkpt>
      <trkpt lat="47.88726" lon="6.83476">
        <ele>879.7</ele>
        <time>2022-09-13T13:46:34Z</time>
      </trkpt>
      <trkpt lat="47.88728" lon="6.83473">
        <ele>880</ele>
        <time>2022-09-13T13:46:35Z</time>
      </trkpt>
      <trkpt lat="47.88729" lon="6.83471">
        <ele>880</ele>
        <time>2022-09-13T13:46:36Z</time>
      </trkpt>
      <trkpt lat="47.8873" lon="6.83468">
        <ele>879.8</ele>
        <time>2022-09-13T13:46:37Z</time>
      </trkpt>
      <trkpt lat="47.88732" lon="6.83466">
        <ele>880</ele>
        <time>2022-09-13T13:46:38Z</time>
      </trkpt>
      <trkpt lat="47.88733" lon="6.83463">
        <ele>879.8</ele>
        <time>2022-09-13T13:46:39Z</time>
      </trkpt>
      <trkpt lat="47.88735" lon="6.8346">
        <ele>879.9</ele>
        <time>2022-09-13T13:46:40Z</time>
      </trkpt>
      <trkpt lat="47.88736" lon="6.83458">
        <ele>879.9</ele>
        <time>2022-09-13T13:46:41Z</time>
      </trkpt>
      <trkpt lat="47.88738" lon="6.83455">
        <ele>880</ele>
        <time>2022-09-13T13:46:42Z</time>
      </trkpt>
      <trkpt lat="47.88739" lon="6.83452">
        <ele>879.8</ele>
        <time>2022-09-13T13:46:43Z</time>
      </trkpt>
      <trkpt lat="47.88741" lon="6.83449">
        <ele>879.9</ele>
        <time>2022-09-13T13:46:44Z</time>
      </trkpt>
      <trkpt lat="47.88743" lon="6.83446">
        <ele>880</ele>
        <time>2022-09-13T13:46:45Z</time>
      </trkpt>
      <trkpt lat="47.88745" lon="6.8344">
        <ele>879.7</ele>
        <time>2022-09-13T13:46:46Z</time>
      </trkpt>
      <trkpt lat="47.88747" lon="6.83437">
        <ele>879.9</ele>
        <time>2022-09-13T13:46:47Z</time>
      </trkpt>
      <trkpt lat="47.88748" lon="6.83435">
        <ele>880</ele>
        <time>2022-09-13T13:46:48Z</time>
      </trkpt>
      <trkpt lat="47.88749" lon="6.83433">
        <ele>880</ele>
        <time>2022-09-13T13:46:49Z</time>
      </trkpt>
      <trkpt lat="47.8875" lon="6.8343">
        <ele>879.9</ele>
        <time>2022-09-13T13:46:50Z</time>
      </trkpt>
      <trkpt lat="47.88752" lon="6.83427">
        <ele>880</ele>
        <time>2022-09-13T13:46:51Z</time>
      </trkpt>
      <trkpt lat="47.88753" lon="6.83425">
        <ele>880</ele>
        <time>2022-09-13T13:46:52Z</time>
      </trkpt>
      <trkpt lat="47.88754" lon="6.83422">
        <ele>879.8</ele>
        <time>2022-09-13T13:46:53Z</time>
      </trkpt>
      <trkpt lat="47.88756" lon="6.83419">
        <ele>879.9</ele>
        <time>2022-09-13T13:46:54Z</time>
      </trkpt>
      <trkpt lat="47.88757" lon="6.83416">
        <ele>879.6</ele>
        <time>2022-09-13T13:46:55Z</time>
      </trkpt>
      <trkpt lat="47.88759" lon="6.83413">
        <ele>879.6</ele>
        <time>2022-09-13T13:46:56Z</time>
      </trkpt>
      <trkpt lat="47.8876" lon="6.8341">
        <ele>879.3</ele>
        <time>2022-09-13T13:46:57Z</time>
      </trkpt>
      <trkpt lat="47.88762" lon="6.83407">
        <ele>879.3</ele>
        <time>2022-09-13T13:46:58Z</time>
      </trkpt>
      <trkpt lat="47.88763" lon="6.83404">
        <ele>879</ele>
        <time>2022-09-13T13:46:59Z</time>
      </trkpt>
      <trkpt lat="47.88766" lon="6.83398">
        <ele>878.7</ele>
        <time>2022-09-13T13:47:00Z</time>
      </trkpt>
      <trkpt lat="47.88769" lon="6.83395">
        <ele>878.9</ele>
        <time>2022-09-13T13:47:01Z</time>
      </trkpt>
      <trkpt lat="47.88771" lon="6.83391">
        <ele>878.7</ele>
        <time>2022-09-13T13:47:02Z</time>
      </trkpt>
      <trkpt lat="47.88773" lon="6.83387">
        <ele>878.5</ele>
        <time>2022-09-13T13:47:03Z</time>
      </trkpt>
      <trkpt lat="47.88776" lon="6.83383">
        <ele>878.5</ele>
        <time>2022-09-13T13:47:04Z</time>
      </trkpt>
      <trkpt lat="47.88779" lon="6.83379">
        <ele>878.4</ele>
        <time>2022-09-13T13:47:05Z</time>
      </trkpt>
      <trkpt lat="47.88782" lon="6.83375">
        <ele>878.3</ele>
        <time>2022-09-13T13:47:06Z</time>
      </trkpt>
      <trkpt lat="47.88784" lon="6.83371">
        <ele>877.9</ele>
        <time>2022-09-13T13:47:07Z</time>
      </trkpt>
      <trkpt lat="47.88787" lon="6.83368">
        <ele>877.9</ele>
        <time>2022-09-13T13:47:08Z</time>
      </trkpt>
      <trkpt lat="47.88791" lon="6.83364">
        <ele>877.9</ele>
        <time>2022-09-13T13:47:09Z</time>
      </trkpt>
      <trkpt lat="47.88793" lon="6.83361">
        <ele>877.7</ele>
        <time>2022-09-13T13:47:10Z</time>
      </trkpt>
      <trkpt lat="47.88796" lon="6.83359">
        <ele>877.9</ele>
        <time>2022-09-13T13:47:11Z</time>
      </trkpt>
      <trkpt lat="47.88799" lon="6.83357">
        <ele>878.1</ele>
        <time>2022-09-13T13:47:12Z</time>
      </trkpt>
      <trkpt lat="47.88801" lon="6.83355">
        <ele>878.1</ele>
        <time>2022-09-13T13:47:13Z</time>
      </trkpt>
      <trkpt lat="47.88804" lon="6.83354">
        <ele>878.4</ele>
        <time>2022-09-13T13:47:14Z</time>
      </trkpt>
      <trkpt lat="47.88806" lon="6.83353">
        <ele>878.5</ele>
        <time>2022-09-13T13:47:15Z</time>
      </trkpt>
      <trkpt lat="47.88807" lon="6.83352">
        <ele>878.2</ele>
        <time>2022-09-13T13:47:16Z</time>
      </trkpt>
      <trkpt lat="47.88809" lon="6.83352">
        <ele>878</ele>
        <time>2022-09-13T13:47:17Z</time>
      </trkpt>
      <trkpt lat="47.88811" lon="6.83352">
        <ele>877.8</ele>
        <time>2022-09-13T13:47:18Z</time>
      </trkpt>
      <trkpt lat="47.88814" lon="6.83352">
        <ele>877.4</ele>
        <time>2022-09-13T13:47:19Z</time>
      </trkpt>
      <trkpt lat="47.88816" lon="6.83352">
        <ele>877.2</ele>
        <time>2022-09-13T13:47:20Z</time>
      </trkpt>
      <trkpt lat="47.88819" lon="6.83352">
        <ele>876.9</ele>
        <time>2022-09-13T13:47:21Z</time>
      </trkpt>
      <trkpt lat="47.88821" lon="6.83353">
        <ele>876.9</ele>
        <time>2022-09-13T13:47:22Z</time>
      </trkpt>
      <trkpt lat="47.88824" lon="6.83353">
        <ele>876.5</ele>
        <time>2022-09-13T13:47:23Z</time>
      </trkpt>
      <trkpt lat="47.88828" lon="6.83355">
        <ele>876.5</ele>
        <time>2022-09-13T13:47:24Z</time>
      </trkpt>
      <trkpt lat="47.8883" lon="6.83356">
        <ele>876.4</ele>
        <time>2022-09-13T13:47:25Z</time>
      </trkpt>
      <trkpt lat="47.88833" lon="6.83359">
        <ele>876.7</ele>
        <time>2022-09-13T13:47:26Z</time>
      </trkpt>
      <trkpt lat="47.88836" lon="6.83362">
        <ele>876.4</ele>
        <time>2022-09-13T13:47:27Z</time>
      </trkpt>
      <trkpt lat="47.88838" lon="6.83365">
        <ele>876.4</ele>
        <time>2022-09-13T13:47:28Z</time>
      </trkpt>
      <trkpt lat="47.8884" lon="6.83368">
        <ele>876.3</ele>
        <time>2022-09-13T13:47:29Z</time>
      </trkpt>
      <trkpt lat="47.88843" lon="6.83371">
        <ele>876</ele>
        <time>2022-09-13T13:47:30Z</time>
      </trkpt>
      <trkpt lat="47.88845" lon="6.83374">
        <ele>876</ele>
        <time>2022-09-13T13:47:31Z</time>
      </trkpt>
      <trkpt lat="47.88847" lon="6.83378">
        <ele>876.1</ele>
        <time>2022-09-13T13:47:32Z</time>
      </trkpt>
      <trkpt lat="47.88849" lon="6.83382">
        <ele>876.2</ele>
        <time>2022-09-13T13:47:33Z</time>
      </trkpt>
      <trkpt lat="47.88851" lon="6.83386">
        <ele>876.4</ele>
        <time>2022-09-13T13:47:34Z</time>
      </trkpt>
      <trkpt lat="47.88853" lon="6.8339">
        <ele>876.5</ele>
        <time>2022-09-13T13:47:35Z</time>
      </trkpt>
      <trkpt lat="47.88855" lon="6.83395">
        <ele>876.5</ele>
        <time>2022-09-13T13:47:36Z</time>
      </trkpt>
      <trkpt lat="47.88857" lon="6.83399">
        <ele>876.4</ele>
        <time>2022-09-13T13:47:37Z</time>
      </trkpt>
      <trkpt lat="47.88859" lon="6.83403">
        <ele>876.2</ele>
        <time>2022-09-13T13:47:38Z</time>
      </trkpt>
      <trkpt lat="47.88861" lon="6.83408">
        <ele>876.1</ele>
        <time>2022-09-13T13:47:39Z</time>
      </trkpt>
      <trkpt lat="47.88863" lon="6.83412">
        <ele>875.7</ele>
        <time>2022-09-13T13:47:40Z</time>
      </trkpt>
      <trkpt lat="47.88864" lon="6.83416">
        <ele>875.8</ele>
        <time>2022-09-13T13:47:41Z</time>
      </trkpt>
      <trkpt lat="47.88866" lon="6.83421">
        <ele>875.7</ele>
        <time>2022-09-13T13:47:42Z</time>
      </trkpt>
      <trkpt lat="47.88868" lon="6.83425">
        <ele>875.4</ele>
        <time>2022-09-13T13:47:43Z</time>
      </trkpt>
      <trkpt lat="47.88869" lon="6.8343">
        <ele>875.7</ele>
        <time>2022-09-13T13:47:44Z</time>
      </trkpt>
      <trkpt lat="47.88871" lon="6.83434">
        <ele>875.4</ele>
        <time>2022-09-13T13:47:45Z</time>
      </trkpt>
      <trkpt lat="47.88872" lon="6.83437">
        <ele>875.3</ele>
        <time>2022-09-13T13:47:46Z</time>
      </trkpt>
      <trkpt lat="47.88873" lon="6.83441">
        <ele>875.4</ele>
        <time>2022-09-13T13:47:47Z</time>
      </trkpt>
      <trkpt lat="47.88874" lon="6.83445">
        <ele>875.5</ele>
        <time>2022-09-13T13:47:48Z</time>
      </trkpt>
      <trkpt lat="47.88876" lon="6.8345">
        <ele>875.4</ele>
        <time>2022-09-13T13:47:49Z</time>
      </trkpt>
      <trkpt lat="47.88877" lon="6.83454">
        <ele>875.5</ele>
        <time>2022-09-13T13:47:50Z</time>
      </trkpt>
      <trkpt lat="47.88879" lon="6.83459">
        <ele>875.4</ele>
        <time>2022-09-13T13:47:51Z</time>
      </trkpt>
      <trkpt lat="47.8888" lon="6.83463">
        <ele>875.5</ele>
        <time>2022-09-13T13:47:52Z</time>
      </trkpt>
      <trkpt lat="47.88882" lon="6.83468">
        <ele>875.4</ele>
        <time>2022-09-13T13:47:53Z</time>
      </trkpt>
      <trkpt lat="47.88883" lon="6.83472">
        <ele>875.5</ele>
        <time>2022-09-13T13:47:54Z</time>
      </trkpt>
      <trkpt lat="47.88885" lon="6.83476">
        <ele>875</ele>
        <time>2022-09-13T13:47:55Z</time>
      </trkpt>
      <trkpt lat="47.88886" lon="6.83481">
        <ele>874.9</ele>
        <time>2022-09-13T13:47:56Z</time>
      </trkpt>
      <trkpt lat="47.88887" lon="6.83486">
        <ele>874.8</ele>
        <time>2022-09-13T13:47:57Z</time>
      </trkpt>
      <trkpt lat="47.88888" lon="6.83491">
        <ele>874.7</ele>
        <time>2022-09-13T13:47:58Z</time>
      </trkpt>
      <trkpt lat="47.88889" lon="6.83497">
        <ele>874.7</ele>
        <time>2022-09-13T13:47:59Z</time>
      </trkpt>
      <trkpt lat="47.8889" lon="6.83502">
        <ele>874.5</ele>
        <time>2022-09-13T13:48:00Z</time>
      </trkpt>
      <trkpt lat="47.88891" lon="6.83508">
        <ele>874.2</ele>
        <time>2022-09-13T13:48:01Z</time>
      </trkpt>
      <trkpt lat="47.88892" lon="6.83513">
        <ele>873.9</ele>
        <time>2022-09-13T13:48:02Z</time>
      </trkpt>
      <trkpt lat="47.88893" lon="6.83518">
        <ele>873.7</ele>
        <time>2022-09-13T13:48:03Z</time>
      </trkpt>
      <trkpt lat="47.88894" lon="6.83524">
        <ele>873.6</ele>
        <time>2022-09-13T13:48:04Z</time>
      </trkpt>
      <trkpt lat="47.88895" lon="6.83529">
        <ele>873.5</ele>
        <time>2022-09-13T13:48:05Z</time>
      </trkpt>
      <trkpt lat="47.88896" lon="6.83534">
        <ele>873.5</ele>
        <time>2022-09-13T13:48:06Z</time>
      </trkpt>
      <trkpt lat="47.88897" lon="6.83539">
        <ele>873.6</ele>
        <time>2022-09-13T13:48:07Z</time>
      </trkpt>
      <trkpt lat="47.88898" lon="6.83544">
        <ele>873.6</ele>
        <time>2022-09-13T13:48:08Z</time>
      </trkpt>
      <trkpt lat="47.88899" lon="6.83549">
        <ele>873.6</ele>
        <time>2022-09-13T13:48:09Z</time>
      </trkpt>
      <trkpt lat="47.889" lon="6.83554">
        <ele>873.7</ele>
        <time>2022-09-13T13:48:10Z</time>
      </trkpt>
      <trkpt lat="47.88901" lon="6.83558">
        <ele>873.6</ele>
        <time>2022-09-13T13:48:11Z</time>
      </trkpt>
      <trkpt lat="47.88902" lon="6.83563">
        <ele>873.5</ele>
        <time>2022-09-13T13:48:12Z</time>
      </trkpt>
      <trkpt lat="47.88903" lon="6.83567">
        <ele>873.4</ele>
        <time>2022-09-13T13:48:13Z</time>
      </trkpt>
      <trkpt lat="47.88904" lon="6.83572">
        <ele>873.4</ele>
        <time>2022-09-13T13:48:14Z</time>
      </trkpt>
      <trkpt lat="47.88905" lon="6.83576">
        <ele>873.2</ele>
        <time>2022-09-13T13:48:15Z</time>
      </trkpt>
      <trkpt lat="47.88906" lon="6.83581">
        <ele>873.2</ele>
        <time>2022-09-13T13:48:16Z</time>
      </trkpt>
      <trkpt lat="47.88907" lon="6.83585">
        <ele>873</ele>
        <time>2022-09-13T13:48:17Z</time>
      </trkpt>
      <trkpt lat="47.88907" lon="6.8359">
        <ele>873.5</ele>
        <time>2022-09-13T13:48:18Z</time>
      </trkpt>
      <trkpt lat="47.88908" lon="6.83594">
        <ele>873.4</ele>
        <time>2022-09-13T13:48:19Z</time>
      </trkpt>
      <trkpt lat="47.88909" lon="6.83599">
        <ele>873.4</ele>
        <time>2022-09-13T13:48:20Z</time>
      </trkpt>
      <trkpt lat="47.8891" lon="6.83603">
        <ele>873.3</ele>
        <time>2022-09-13T13:48:21Z</time>
      </trkpt>
      <trkpt lat="47.88911" lon="6.83608">
        <ele>873.3</ele>
        <time>2022-09-13T13:48:22Z</time>
      </trkpt>
      <trkpt lat="47.88912" lon="6.83612">
        <ele>873.3</ele>
        <time>2022-09-13T13:48:23Z</time>
      </trkpt>
      <trkpt lat="47.88913" lon="6.83617">
        <ele>873.4</ele>
        <time>2022-09-13T13:48:24Z</time>
      </trkpt>
      <trkpt lat="47.88914" lon="6.83622">
        <ele>873.4</ele>
        <time>2022-09-13T13:48:25Z</time>
      </trkpt>
      <trkpt lat="47.88915" lon="6.83626">
        <ele>873.4</ele>
        <time>2022-09-13T13:48:26Z</time>
      </trkpt>
      <trkpt lat="47.88916" lon="6.8363">
        <ele>873.4</ele>
        <time>2022-09-13T13:48:27Z</time>
      </trkpt>
      <trkpt lat="47.88916" lon="6.83635">
        <ele>873.9</ele>
        <time>2022-09-13T13:48:28Z</time>
      </trkpt>
      <trkpt lat="47.88917" lon="6.83639">
        <ele>873.8</ele>
        <time>2022-09-13T13:48:29Z</time>
      </trkpt>
      <trkpt lat="47.88918" lon="6.83643">
        <ele>873.6</ele>
        <time>2022-09-13T13:48:30Z</time>
      </trkpt>
      <trkpt lat="47.88919" lon="6.83648">
        <ele>873.5</ele>
        <time>2022-09-13T13:48:31Z</time>
      </trkpt>
      <trkpt lat="47.8892" lon="6.83653">
        <ele>873.4</ele>
        <time>2022-09-13T13:48:32Z</time>
      </trkpt>
      <trkpt lat="47.88921" lon="6.83658">
        <ele>873.3</ele>
        <time>2022-09-13T13:48:33Z</time>
      </trkpt>
      <trkpt lat="47.88921" lon="6.83662">
        <ele>873.6</ele>
        <time>2022-09-13T13:48:34Z</time>
      </trkpt>
      <trkpt lat="47.88922" lon="6.83667">
        <ele>873.5</ele>
        <time>2022-09-13T13:48:35Z</time>
      </trkpt>
      <trkpt lat="47.88923" lon="6.83671">
        <ele>873.3</ele>
        <time>2022-09-13T13:48:36Z</time>
      </trkpt>
      <trkpt lat="47.88924" lon="6.83676">
        <ele>873.2</ele>
        <time>2022-09-13T13:48:37Z</time>
      </trkpt>
      <trkpt lat="47.88924" lon="6.8368">
        <ele>873.5</ele>
        <time>2022-09-13T13:48:38Z</time>
      </trkpt>
      <trkpt lat="47.88925" lon="6.83685">
        <ele>873.4</ele>
        <time>2022-09-13T13:48:39Z</time>
      </trkpt>
      <trkpt lat="47.88926" lon="6.83689">
        <ele>873.2</ele>
        <time>2022-09-13T13:48:40Z</time>
      </trkpt>
      <trkpt lat="47.88926" lon="6.83693">
        <ele>873.5</ele>
        <time>2022-09-13T13:48:41Z</time>
      </trkpt>
      <trkpt lat="47.88927" lon="6.83698">
        <ele>873.5</ele>
        <time>2022-09-13T13:48:42Z</time>
      </trkpt>
      <trkpt lat="47.88928" lon="6.83703">
        <ele>873.6</ele>
        <time>2022-09-13T13:48:43Z</time>
      </trkpt>
      <trkpt lat="47.88929" lon="6.83707">
        <ele>873.6</ele>
        <time>2022-09-13T13:48:44Z</time>
      </trkpt>
      <trkpt lat="47.88929" lon="6.83712">
        <ele>874.1</ele>
        <time>2022-09-13T13:48:45Z</time>
      </trkpt>
      <trkpt lat="47.8893" lon="6.83717">
        <ele>874.2</ele>
        <time>2022-09-13T13:48:46Z</time>
      </trkpt>
      <trkpt lat="47.8893" lon="6.83721">
        <ele>874.6</ele>
        <time>2022-09-13T13:48:47Z</time>
      </trkpt>
      <trkpt lat="47.88931" lon="6.83726">
        <ele>874.6</ele>
        <time>2022-09-13T13:48:48Z</time>
      </trkpt>
      <trkpt lat="47.88932" lon="6.83731">
        <ele>874.6</ele>
        <time>2022-09-13T13:48:49Z</time>
      </trkpt>
      <trkpt lat="47.88932" lon="6.83735">
        <ele>875</ele>
        <time>2022-09-13T13:48:50Z</time>
      </trkpt>
      <trkpt lat="47.88933" lon="6.83739">
        <ele>874.9</ele>
        <time>2022-09-13T13:48:51Z</time>
      </trkpt>
      <trkpt lat="47.88934" lon="6.83744">
        <ele>874.9</ele>
        <time>2022-09-13T13:48:52Z</time>
      </trkpt>
      <trkpt lat="47.88935" lon="6.83748">
        <ele>874.9</ele>
        <time>2022-09-13T13:48:53Z</time>
      </trkpt>
      <trkpt lat="47.88936" lon="6.83752">
        <ele>874.8</ele>
        <time>2022-09-13T13:48:54Z</time>
      </trkpt>
      <trkpt lat="47.88937" lon="6.83757">
        <ele>874.7</ele>
        <time>2022-09-13T13:48:55Z</time>
      </trkpt>
      <trkpt lat="47.88938" lon="6.83762">
        <ele>874.6</ele>
        <time>2022-09-13T13:48:56Z</time>
      </trkpt>
      <trkpt lat="47.88939" lon="6.83766">
        <ele>874.5</ele>
        <time>2022-09-13T13:48:57Z</time>
      </trkpt>
      <trkpt lat="47.8894" lon="6.83771">
        <ele>874.4</ele>
        <time>2022-09-13T13:48:58Z</time>
      </trkpt>
      <trkpt lat="47.88941" lon="6.83775">
        <ele>874.3</ele>
        <time>2022-09-13T13:48:59Z</time>
      </trkpt>
      <trkpt lat="47.88942" lon="6.8378">
        <ele>874.3</ele>
        <time>2022-09-13T13:49:00Z</time>
      </trkpt>
      <trkpt lat="47.88943" lon="6.83785">
        <ele>874.4</ele>
        <time>2022-09-13T13:49:01Z</time>
      </trkpt>
      <trkpt lat="47.88944" lon="6.8379">
        <ele>874.5</ele>
        <time>2022-09-13T13:49:02Z</time>
      </trkpt>
      <trkpt lat="47.88945" lon="6.83794">
        <ele>874.5</ele>
        <time>2022-09-13T13:49:03Z</time>
      </trkpt>
      <trkpt lat="47.88946" lon="6.83799">
        <ele>874.6</ele>
        <time>2022-09-13T13:49:04Z</time>
      </trkpt>
      <trkpt lat="47.88946" lon="6.83803">
        <ele>875.1</ele>
        <time>2022-09-13T13:49:05Z</time>
      </trkpt>
      <trkpt lat="47.88947" lon="6.83808">
        <ele>875</ele>
        <time>2022-09-13T13:49:06Z</time>
      </trkpt>
      <trkpt lat="47.88948" lon="6.83812">
        <ele>874.8</ele>
        <time>2022-09-13T13:49:07Z</time>
      </trkpt>
      <trkpt lat="47.88948" lon="6.83817">
        <ele>875</ele>
        <time>2022-09-13T13:49:08Z</time>
      </trkpt>
      <trkpt lat="47.88949" lon="6.83821">
        <ele>874.8</ele>
        <time>2022-09-13T13:49:09Z</time>
      </trkpt>
      <trkpt lat="47.88949" lon="6.83826">
        <ele>875</ele>
        <time>2022-09-13T13:49:10Z</time>
      </trkpt>
      <trkpt lat="47.8895" lon="6.8383">
        <ele>874.8</ele>
        <time>2022-09-13T13:49:11Z</time>
      </trkpt>
      <trkpt lat="47.8895" lon="6.83835">
        <ele>875.2</ele>
        <time>2022-09-13T13:49:12Z</time>
      </trkpt>
      <trkpt lat="47.8895" lon="6.8384">
        <ele>875.7</ele>
        <time>2022-09-13T13:49:13Z</time>
      </trkpt>
      <trkpt lat="47.88951" lon="6.83845">
        <ele>875.9</ele>
        <time>2022-09-13T13:49:14Z</time>
      </trkpt>
      <trkpt lat="47.88951" lon="6.8385">
        <ele>876.4</ele>
        <time>2022-09-13T13:49:15Z</time>
      </trkpt>
      <trkpt lat="47.88952" lon="6.83854">
        <ele>876.5</ele>
        <time>2022-09-13T13:49:16Z</time>
      </trkpt>
      <trkpt lat="47.88952" lon="6.83859">
        <ele>877.1</ele>
        <time>2022-09-13T13:49:17Z</time>
      </trkpt>
      <trkpt lat="47.88953" lon="6.83863">
        <ele>877.1</ele>
        <time>2022-09-13T13:49:18Z</time>
      </trkpt>
      <trkpt lat="47.88954" lon="6.83868">
        <ele>877.1</ele>
        <time>2022-09-13T13:49:19Z</time>
      </trkpt>
      <trkpt lat="47.88955" lon="6.83872">
        <ele>877.1</ele>
        <time>2022-09-13T13:49:20Z</time>
      </trkpt>
      <trkpt lat="47.88956" lon="6.83877">
        <ele>877.2</ele>
        <time>2022-09-13T13:49:21Z</time>
      </trkpt>
      <trkpt lat="47.88957" lon="6.83881">
        <ele>877.2</ele>
        <time>2022-09-13T13:49:22Z</time>
      </trkpt>
      <trkpt lat="47.88958" lon="6.83886">
        <ele>877.3</ele>
        <time>2022-09-13T13:49:23Z</time>
      </trkpt>
      <trkpt lat="47.88958" lon="6.8389">
        <ele>877.7</ele>
        <time>2022-09-13T13:49:24Z</time>
      </trkpt>
      <trkpt lat="47.88959" lon="6.83894">
        <ele>877.6</ele>
        <time>2022-09-13T13:49:25Z</time>
      </trkpt>
      <trkpt lat="47.8896" lon="6.83898">
        <ele>877.4</ele>
        <time>2022-09-13T13:49:26Z</time>
      </trkpt>
      <trkpt lat="47.88961" lon="6.83903">
        <ele>877.3</ele>
        <time>2022-09-13T13:49:27Z</time>
      </trkpt>
      <trkpt lat="47.88962" lon="6.83907">
        <ele>877.2</ele>
        <time>2022-09-13T13:49:28Z</time>
      </trkpt>
      <trkpt lat="47.88963" lon="6.83912">
        <ele>877.1</ele>
        <time>2022-09-13T13:49:29Z</time>
      </trkpt>
      <trkpt lat="47.88964" lon="6.83917">
        <ele>877</ele>
        <time>2022-09-13T13:49:30Z</time>
      </trkpt>
      <trkpt lat="47.88965" lon="6.83921">
        <ele>876.9</ele>
        <time>2022-09-13T13:49:31Z</time>
      </trkpt>
      <trkpt lat="47.88966" lon="6.83926">
        <ele>877</ele>
        <time>2022-09-13T13:49:32Z</time>
      </trkpt>
      <trkpt lat="47.88966" lon="6.8393">
        <ele>877.4</ele>
        <time>2022-09-13T13:49:33Z</time>
      </trkpt>
      <trkpt lat="47.88967" lon="6.83934">
        <ele>877.4</ele>
        <time>2022-09-13T13:49:34Z</time>
      </trkpt>
      <trkpt lat="47.88967" lon="6.83938">
        <ele>877.8</ele>
        <time>2022-09-13T13:49:35Z</time>
      </trkpt>
      <trkpt lat="47.88967" lon="6.8394">
        <ele>877.9</ele>
        <time>2022-09-13T13:49:36Z</time>
      </trkpt>
      <trkpt lat="47.88968" lon="6.83946">
        <ele>878.1</ele>
        <time>2022-09-13T13:49:37Z</time>
      </trkpt>
      <trkpt lat="47.88969" lon="6.8395">
        <ele>878</ele>
        <time>2022-09-13T13:49:38Z</time>
      </trkpt>
      <trkpt lat="47.88969" lon="6.83952">
        <ele>878.1</ele>
        <time>2022-09-13T13:49:39Z</time>
      </trkpt>
      <trkpt lat="47.88969" lon="6.83955">
        <ele>878.1</ele>
        <time>2022-09-13T13:49:40Z</time>
      </trkpt>
      <trkpt lat="47.8897" lon="6.83958">
        <ele>878</ele>
        <time>2022-09-13T13:49:41Z</time>
      </trkpt>
      <trkpt lat="47.8897" lon="6.83961">
        <ele>878.1</ele>
        <time>2022-09-13T13:49:42Z</time>
      </trkpt>
      <trkpt lat="47.88971" lon="6.83964">
        <ele>878</ele>
        <time>2022-09-13T13:49:43Z</time>
      </trkpt>
      <trkpt lat="47.88972" lon="6.83968">
        <ele>877.9</ele>
        <time>2022-09-13T13:49:44Z</time>
      </trkpt>
      <trkpt lat="47.88972" lon="6.83971">
        <ele>878</ele>
        <time>2022-09-13T13:49:45Z</time>
      </trkpt>
      <trkpt lat="47.88973" lon="6.83974">
        <ele>877.9</ele>
        <time>2022-09-13T13:49:46Z</time>
      </trkpt>
      <trkpt lat="47.88974" lon="6.83978">
        <ele>878</ele>
        <time>2022-09-13T13:49:47Z</time>
      </trkpt>
      <trkpt lat="47.88975" lon="6.83982">
        <ele>878.1</ele>
        <time>2022-09-13T13:49:48Z</time>
      </trkpt>
      <trkpt lat="47.88975" lon="6.83985">
        <ele>878.4</ele>
        <time>2022-09-13T13:49:49Z</time>
      </trkpt>
      <trkpt lat="47.88977" lon="6.83992">
        <ele>878.6</ele>
        <time>2022-09-13T13:49:50Z</time>
      </trkpt>
      <trkpt lat="47.88977" lon="6.83996">
        <ele>878.9</ele>
        <time>2022-09-13T13:49:51Z</time>
      </trkpt>
      <trkpt lat="47.88978" lon="6.83998">
        <ele>879</ele>
        <time>2022-09-13T13:49:52Z</time>
      </trkpt>
      <trkpt lat="47.88978" lon="6.84">
        <ele>879.2</ele>
        <time>2022-09-13T13:49:53Z</time>
      </trkpt>
      <trkpt lat="47.88978" lon="6.84003">
        <ele>879.3</ele>
        <time>2022-09-13T13:49:54Z</time>
      </trkpt>
      <trkpt lat="47.88979" lon="6.84006">
        <ele>879.2</ele>
        <time>2022-09-13T13:49:55Z</time>
      </trkpt>
      <trkpt lat="47.88979" lon="6.84007">
        <ele>879.3</ele>
        <time>2022-09-13T13:49:56Z</time>
      </trkpt>
      <trkpt lat="47.88979" lon="6.8401">
        <ele>879.4</ele>
        <time>2022-09-13T13:49:57Z</time>
      </trkpt>
      <trkpt lat="47.88979" lon="6.84012">
        <ele>879.4</ele>
        <time>2022-09-13T13:49:58Z</time>
      </trkpt>
      <trkpt lat="47.88979" lon="6.84014">
        <ele>879.5</ele>
        <time>2022-09-13T13:49:59Z</time>
      </trkpt>
      <trkpt lat="47.88979" lon="6.84016">
        <ele>879.6</ele>
        <time>2022-09-13T13:50:00Z</time>
      </trkpt>
      <trkpt lat="47.8898" lon="6.84018">
        <ele>879.6</ele>
        <time>2022-09-13T13:50:34Z</time>
      </trkpt>
      <trkpt lat="47.8898" lon="6.84019">
        <ele>879.6</ele>
        <time>2022-09-13T13:50:35Z</time>
      </trkpt>
      <trkpt lat="47.8898" lon="6.8402">
        <ele>879.7</ele>
        <time>2022-09-13T13:50:36Z</time>
      </trkpt>
      <trkpt lat="47.88981" lon="6.84022">
        <ele>879.7</ele>
        <time>2022-09-13T13:50:37Z</time>
      </trkpt>
      <trkpt lat="47.88982" lon="6.84024">
        <ele>879.8</ele>
        <time>2022-09-13T13:50:38Z</time>
      </trkpt>
      <trkpt lat="47.88983" lon="6.84025">
        <ele>879.8</ele>
        <time>2022-09-13T13:50:39Z</time>
      </trkpt>
      <trkpt lat="47.88984" lon="6.84027">
        <ele>880</ele>
        <time>2022-09-13T13:50:40Z</time>
      </trkpt>
      <trkpt lat="47.88986" lon="6.8403">
        <ele>880.2</ele>
        <time>2022-09-13T13:50:41Z</time>
      </trkpt>
      <trkpt lat="47.88988" lon="6.84031">
        <ele>880.3</ele>
        <time>2022-09-13T13:50:42Z</time>
      </trkpt>
      <trkpt lat="47.8899" lon="6.84033">
        <ele>880.5</ele>
        <time>2022-09-13T13:50:43Z</time>
      </trkpt>
      <trkpt lat="47.88992" lon="6.84034">
        <ele>880.6</ele>
        <time>2022-09-13T13:50:44Z</time>
      </trkpt>
      <trkpt lat="47.88994" lon="6.84036">
        <ele>880.8</ele>
        <time>2022-09-13T13:50:45Z</time>
      </trkpt>
      <trkpt lat="47.88996" lon="6.84037">
        <ele>880.9</ele>
        <time>2022-09-13T13:50:46Z</time>
      </trkpt>
      <trkpt lat="47.88998" lon="6.84038">
        <ele>881.1</ele>
        <time>2022-09-13T13:50:47Z</time>
      </trkpt>
      <trkpt lat="47.89" lon="6.84039">
        <ele>881.2</ele>
        <time>2022-09-13T13:50:48Z</time>
      </trkpt>
      <trkpt lat="47.89002" lon="6.8404">
        <ele>881.2</ele>
        <time>2022-09-13T13:50:49Z</time>
      </trkpt>
      <trkpt lat="47.89004" lon="6.84041">
        <ele>881.2</ele>
        <time>2022-09-13T13:50:50Z</time>
      </trkpt>
      <trkpt lat="47.89006" lon="6.84042">
        <ele>881.2</ele>
        <time>2022-09-13T13:50:51Z</time>
      </trkpt>
      <trkpt lat="47.89008" lon="6.84043">
        <ele>881.2</ele>
        <time>2022-09-13T13:50:52Z</time>
      </trkpt>
      <trkpt lat="47.89011" lon="6.84044">
        <ele>881.2</ele>
        <time>2022-09-13T13:50:53Z</time>
      </trkpt>
      <trkpt lat="47.89013" lon="6.84044">
        <ele>881.1</ele>
        <time>2022-09-13T13:50:54Z</time>
      </trkpt>
      <trkpt lat="47.89015" lon="6.84045">
        <ele>881.1</ele>
        <time>2022-09-13T13:50:55Z</time>
      </trkpt>
      <trkpt lat="47.89017" lon="6.84046">
        <ele>881.1</ele>
        <time>2022-09-13T13:50:56Z</time>
      </trkpt>
      <trkpt lat="47.89019" lon="6.84047">
        <ele>881.2</ele>
        <time>2022-09-13T13:50:57Z</time>
      </trkpt>
      <trkpt lat="47.89021" lon="6.84049">
        <ele>881.4</ele>
        <time>2022-09-13T13:50:58Z</time>
      </trkpt>
      <trkpt lat="47.89023" lon="6.84049">
        <ele>881.3</ele>
        <time>2022-09-13T13:50:59Z</time>
      </trkpt>
      <trkpt lat="47.89024" lon="6.8405">
        <ele>881.4</ele>
        <time>2022-09-13T13:51:00Z</time>
      </trkpt>
      <trkpt lat="47.89025" lon="6.84051">
        <ele>881.5</ele>
        <time>2022-09-13T13:51:30Z</time>
      </trkpt>
      <trkpt lat="47.89026" lon="6.84051">
        <ele>881.4</ele>
        <time>2022-09-13T13:51:32Z</time>
      </trkpt>
      <trkpt lat="47.89027" lon="6.84052">
        <ele>881.5</ele>
        <time>2022-09-13T13:51:34Z</time>
      </trkpt>
      <trkpt lat="47.89028" lon="6.84053">
        <ele>881.6</ele>
        <time>2022-09-13T13:51:36Z</time>
      </trkpt>
      <trkpt lat="47.89029" lon="6.84054">
        <ele>881.8</ele>
        <time>2022-09-13T13:51:38Z</time>
      </trkpt>
      <trkpt lat="47.89029" lon="6.84055">
        <ele>882</ele>
        <time>2022-09-13T13:51:39Z</time>
      </trkpt>
      <trkpt lat="47.89029" lon="6.84056">
        <ele>882.1</ele>
        <time>2022-09-13T13:51:40Z</time>
      </trkpt>
      <trkpt lat="47.8903" lon="6.84057">
        <ele>882.3</ele>
        <time>2022-09-13T13:51:41Z</time>
      </trkpt>
      <trkpt lat="47.89031" lon="6.84057">
        <ele>882.3</ele>
        <time>2022-09-13T13:51:42Z</time>
      </trkpt>
      <trkpt lat="47.89031" lon="6.84058">
        <ele>882.5</ele>
        <time>2022-09-13T13:51:43Z</time>
      </trkpt>
      <trkpt lat="47.89032" lon="6.84058">
        <ele>882.5</ele>
        <time>2022-09-13T13:51:44Z</time>
      </trkpt>
      <trkpt lat="47.89032" lon="6.84059">
        <ele>882.6</ele>
        <time>2022-09-13T13:51:45Z</time>
      </trkpt>
      <trkpt lat="47.89033" lon="6.8406">
        <ele>882.8</ele>
        <time>2022-09-13T13:51:46Z</time>
      </trkpt>
      <trkpt lat="47.89034" lon="6.84061">
        <ele>883</ele>
        <time>2022-09-13T13:52:09Z</time>
      </trkpt>
      <trkpt lat="47.89035" lon="6.84062">
        <ele>883.2</ele>
        <time>2022-09-13T13:52:10Z</time>
      </trkpt>
      <trkpt lat="47.89036" lon="6.84062">
        <ele>883.2</ele>
        <time>2022-09-13T13:52:11Z</time>
      </trkpt>
      <trkpt lat="47.89037" lon="6.84063">
        <ele>883.4</ele>
        <time>2022-09-13T13:52:12Z</time>
      </trkpt>
      <trkpt lat="47.89038" lon="6.84063">
        <ele>883.4</ele>
        <time>2022-09-13T13:52:13Z</time>
      </trkpt>
      <trkpt lat="47.89039" lon="6.84064">
        <ele>883.6</ele>
        <time>2022-09-13T13:52:14Z</time>
      </trkpt>
      <trkpt lat="47.89041" lon="6.84064">
        <ele>883.7</ele>
        <time>2022-09-13T13:52:15Z</time>
      </trkpt>
      <trkpt lat="47.89043" lon="6.84064">
        <ele>883.8</ele>
        <time>2022-09-13T13:52:16Z</time>
      </trkpt>
      <trkpt lat="47.89045" lon="6.84065">
        <ele>884</ele>
        <time>2022-09-13T13:52:17Z</time>
      </trkpt>
      <trkpt lat="47.89047" lon="6.84065">
        <ele>884.1</ele>
        <time>2022-09-13T13:52:18Z</time>
      </trkpt>
      <trkpt lat="47.89049" lon="6.84065">
        <ele>884.1</ele>
        <time>2022-09-13T13:52:19Z</time>
      </trkpt>
      <trkpt lat="47.89051" lon="6.84064">
        <ele>884.1</ele>
        <time>2022-09-13T13:52:20Z</time>
      </trkpt>
      <trkpt lat="47.89053" lon="6.84064">
        <ele>884.1</ele>
        <time>2022-09-13T13:52:21Z</time>
      </trkpt>
      <trkpt lat="47.89055" lon="6.84064">
        <ele>884.2</ele>
        <time>2022-09-13T13:52:22Z</time>
      </trkpt>
      <trkpt lat="47.89057" lon="6.84064">
        <ele>884.2</ele>
        <time>2022-09-13T13:52:23Z</time>
      </trkpt>
      <trkpt lat="47.8906" lon="6.84064">
        <ele>884.3</ele>
        <time>2022-09-13T13:52:24Z</time>
      </trkpt>
      <trkpt lat="47.89062" lon="6.84065">
        <ele>884.4</ele>
        <time>2022-09-13T13:52:25Z</time>
      </trkpt>
      <trkpt lat="47.89064" lon="6.84065">
        <ele>884.5</ele>
        <time>2022-09-13T13:52:26Z</time>
      </trkpt>
      <trkpt lat="47.89066" lon="6.84066">
        <ele>884.6</ele>
        <time>2022-09-13T13:52:27Z</time>
      </trkpt>
      <trkpt lat="47.89068" lon="6.84067">
        <ele>884.8</ele>
        <time>2022-09-13T13:52:28Z</time>
      </trkpt>
      <trkpt lat="47.8907" lon="6.84068">
        <ele>885</ele>
        <time>2022-09-13T13:52:29Z</time>
      </trkpt>
      <trkpt lat="47.89072" lon="6.84068">
        <ele>885.1</ele>
        <time>2022-09-13T13:52:30Z</time>
      </trkpt>
      <trkpt lat="47.89074" lon="6.84069">
        <ele>885.3</ele>
        <time>2022-09-13T13:52:31Z</time>
      </trkpt>
      <trkpt lat="47.89076" lon="6.8407">
        <ele>885.5</ele>
        <time>2022-09-13T13:52:32Z</time>
      </trkpt>
      <trkpt lat="47.89078" lon="6.84071">
        <ele>885.7</ele>
        <time>2022-09-13T13:52:33Z</time>
      </trkpt>
      <trkpt lat="47.8908" lon="6.84073">
        <ele>886.1</ele>
        <time>2022-09-13T13:52:34Z</time>
      </trkpt>
      <trkpt lat="47.89082" lon="6.84074">
        <ele>886.3</ele>
        <time>2022-09-13T13:52:35Z</time>
      </trkpt>
      <trkpt lat="47.89084" lon="6.84075">
        <ele>886.5</ele>
        <time>2022-09-13T13:52:36Z</time>
      </trkpt>
      <trkpt lat="47.89085" lon="6.84077">
        <ele>886.8</ele>
        <time>2022-09-13T13:52:37Z</time>
      </trkpt>
      <trkpt lat="47.89087" lon="6.84078">
        <ele>887</ele>
        <time>2022-09-13T13:52:38Z</time>
      </trkpt>
      <trkpt lat="47.8909" lon="6.8408">
        <ele>887.4</ele>
        <time>2022-09-13T13:52:39Z</time>
      </trkpt>
      <trkpt lat="47.89092" lon="6.84081">
        <ele>887.6</ele>
        <time>2022-09-13T13:52:40Z</time>
      </trkpt>
      <trkpt lat="47.89094" lon="6.84082">
        <ele>887.7</ele>
        <time>2022-09-13T13:52:41Z</time>
      </trkpt>
      <trkpt lat="47.89096" lon="6.84083">
        <ele>887.9</ele>
        <time>2022-09-13T13:52:42Z</time>
      </trkpt>
      <trkpt lat="47.89098" lon="6.84084">
        <ele>888.1</ele>
        <time>2022-09-13T13:52:43Z</time>
      </trkpt>
      <trkpt lat="47.891" lon="6.84085">
        <ele>888.3</ele>
        <time>2022-09-13T13:52:44Z</time>
      </trkpt>
      <trkpt lat="47.89102" lon="6.84085">
        <ele>888.3</ele>
        <time>2022-09-13T13:52:45Z</time>
      </trkpt>
      <trkpt lat="47.89104" lon="6.84086">
        <ele>888.6</ele>
        <time>2022-09-13T13:52:46Z</time>
      </trkpt>
      <trkpt lat="47.89106" lon="6.84087">
        <ele>888.8</ele>
        <time>2022-09-13T13:52:47Z</time>
      </trkpt>
      <trkpt lat="47.89108" lon="6.84088">
        <ele>889</ele>
        <time>2022-09-13T13:52:48Z</time>
      </trkpt>
      <trkpt lat="47.8911" lon="6.84089">
        <ele>889.2</ele>
        <time>2022-09-13T13:52:49Z</time>
      </trkpt>
      <trkpt lat="47.89112" lon="6.8409">
        <ele>889.4</ele>
        <time>2022-09-13T13:52:50Z</time>
      </trkpt>
      <trkpt lat="47.89114" lon="6.84091">
        <ele>889.4</ele>
        <time>2022-09-13T13:52:51Z</time>
      </trkpt>
      <trkpt lat="47.89116" lon="6.84093">
        <ele>889.6</ele>
        <time>2022-09-13T13:52:52Z</time>
      </trkpt>
      <trkpt lat="47.89118" lon="6.84094">
        <ele>889.7</ele>
        <time>2022-09-13T13:52:53Z</time>
      </trkpt>
      <trkpt lat="47.89119" lon="6.84096">
        <ele>890</ele>
        <time>2022-09-13T13:52:54Z</time>
      </trkpt>
      <trkpt lat="47.89121" lon="6.84097">
        <ele>890.1</ele>
        <time>2022-09-13T13:52:55Z</time>
      </trkpt>
      <trkpt lat="47.89123" lon="6.84099">
        <ele>890.3</ele>
        <time>2022-09-13T13:52:56Z</time>
      </trkpt>
      <trkpt lat="47.89125" lon="6.841">
        <ele>890.4</ele>
        <time>2022-09-13T13:52:57Z</time>
      </trkpt>
      <trkpt lat="47.89127" lon="6.84101">
        <ele>890.5</ele>
        <time>2022-09-13T13:52:58Z</time>
      </trkpt>
      <trkpt lat="47.89128" lon="6.84103">
        <ele>890.9</ele>
        <time>2022-09-13T13:52:59Z</time>
      </trkpt>
      <trkpt lat="47.8913" lon="6.84104">
        <ele>890.9</ele>
        <time>2022-09-13T13:53:00Z</time>
      </trkpt>
      <trkpt lat="47.89132" lon="6.84106">
        <ele>891.3</ele>
        <time>2022-09-13T13:53:01Z</time>
      </trkpt>
      <trkpt lat="47.89134" lon="6.84107">
        <ele>891.3</ele>
        <time>2022-09-13T13:53:02Z</time>
      </trkpt>
      <trkpt lat="47.89136" lon="6.84109">
        <ele>891.7</ele>
        <time>2022-09-13T13:53:03Z</time>
      </trkpt>
      <trkpt lat="47.89138" lon="6.84111">
        <ele>892</ele>
        <time>2022-09-13T13:53:04Z</time>
      </trkpt>
      <trkpt lat="47.89139" lon="6.84113">
        <ele>892.4</ele>
        <time>2022-09-13T13:53:05Z</time>
      </trkpt>
      <trkpt lat="47.89141" lon="6.84115">
        <ele>892.6</ele>
        <time>2022-09-13T13:53:06Z</time>
      </trkpt>
      <trkpt lat="47.89142" lon="6.84117">
        <ele>893</ele>
        <time>2022-09-13T13:53:07Z</time>
      </trkpt>
      <trkpt lat="47.89144" lon="6.84118">
        <ele>893</ele>
        <time>2022-09-13T13:53:08Z</time>
      </trkpt>
      <trkpt lat="47.89146" lon="6.8412">
        <ele>893.2</ele>
        <time>2022-09-13T13:53:09Z</time>
      </trkpt>
      <trkpt lat="47.89148" lon="6.84121">
        <ele>893.3</ele>
        <time>2022-09-13T13:53:10Z</time>
      </trkpt>
      <trkpt lat="47.89149" lon="6.84122">
        <ele>893.4</ele>
        <time>2022-09-13T13:53:11Z</time>
      </trkpt>
      <trkpt lat="47.89151" lon="6.84123">
        <ele>893.4</ele>
        <time>2022-09-13T13:53:12Z</time>
      </trkpt>
      <trkpt lat="47.89153" lon="6.84125">
        <ele>893.7</ele>
        <time>2022-09-13T13:53:13Z</time>
      </trkpt>
      <trkpt lat="47.89154" lon="6.84126">
        <ele>893.9</ele>
        <time>2022-09-13T13:53:14Z</time>
      </trkpt>
      <trkpt lat="47.89156" lon="6.84127">
        <ele>893.9</ele>
        <time>2022-09-13T13:53:15Z</time>
      </trkpt>
      <trkpt lat="47.89158" lon="6.84129">
        <ele>894.2</ele>
        <time>2022-09-13T13:53:16Z</time>
      </trkpt>
      <trkpt lat="47.89159" lon="6.84131">
        <ele>894.6</ele>
        <time>2022-09-13T13:53:17Z</time>
      </trkpt>
      <trkpt lat="47.89161" lon="6.84132">
        <ele>894.7</ele>
        <time>2022-09-13T13:53:18Z</time>
      </trkpt>
      <trkpt lat="47.89163" lon="6.84134">
        <ele>895.1</ele>
        <time>2022-09-13T13:53:19Z</time>
      </trkpt>
      <trkpt lat="47.89164" lon="6.84137">
        <ele>895.7</ele>
        <time>2022-09-13T13:53:20Z</time>
      </trkpt>
      <trkpt lat="47.89165" lon="6.84139">
        <ele>896.1</ele>
        <time>2022-09-13T13:53:21Z</time>
      </trkpt>
      <trkpt lat="47.89167" lon="6.84141">
        <ele>896.4</ele>
        <time>2022-09-13T13:53:22Z</time>
      </trkpt>
      <trkpt lat="47.89168" lon="6.84144">
        <ele>896.8</ele>
        <time>2022-09-13T13:53:23Z</time>
      </trkpt>
      <trkpt lat="47.89169" lon="6.84146">
        <ele>897</ele>
        <time>2022-09-13T13:53:24Z</time>
      </trkpt>
      <trkpt lat="47.8917" lon="6.84149">
        <ele>897.5</ele>
        <time>2022-09-13T13:53:25Z</time>
      </trkpt>
      <trkpt lat="47.89171" lon="6.84152">
        <ele>897.9</ele>
        <time>2022-09-13T13:53:26Z</time>
      </trkpt>
      <trkpt lat="47.89172" lon="6.84155">
        <ele>898.3</ele>
        <time>2022-09-13T13:53:27Z</time>
      </trkpt>
      <trkpt lat="47.89173" lon="6.84157">
        <ele>898.5</ele>
        <time>2022-09-13T13:53:28Z</time>
      </trkpt>
      <trkpt lat="47.89174" lon="6.8416">
        <ele>899</ele>
        <time>2022-09-13T13:53:29Z</time>
      </trkpt>
      <trkpt lat="47.89175" lon="6.84163">
        <ele>899.4</ele>
        <time>2022-09-13T13:53:30Z</time>
      </trkpt>
      <trkpt lat="47.89177" lon="6.84165">
        <ele>899.4</ele>
        <time>2022-09-13T13:53:31Z</time>
      </trkpt>
      <trkpt lat="47.89178" lon="6.84167">
        <ele>899.6</ele>
        <time>2022-09-13T13:53:32Z</time>
      </trkpt>
      <trkpt lat="47.8918" lon="6.84169">
        <ele>899.6</ele>
        <time>2022-09-13T13:53:33Z</time>
      </trkpt>
      <trkpt lat="47.89181" lon="6.84171">
        <ele>899.8</ele>
        <time>2022-09-13T13:53:34Z</time>
      </trkpt>
      <trkpt lat="47.89183" lon="6.84173">
        <ele>899.9</ele>
        <time>2022-09-13T13:53:35Z</time>
      </trkpt>
      <trkpt lat="47.89184" lon="6.84175">
        <ele>900.1</ele>
        <time>2022-09-13T13:53:36Z</time>
      </trkpt>
      <trkpt lat="47.89186" lon="6.84177">
        <ele>900.2</ele>
        <time>2022-09-13T13:53:37Z</time>
      </trkpt>
      <trkpt lat="47.89187" lon="6.84179">
        <ele>900.5</ele>
        <time>2022-09-13T13:53:38Z</time>
      </trkpt>
      <trkpt lat="47.89189" lon="6.84181">
        <ele>900.6</ele>
        <time>2022-09-13T13:53:39Z</time>
      </trkpt>
      <trkpt lat="47.8919" lon="6.84182">
        <ele>900.6</ele>
        <time>2022-09-13T13:53:40Z</time>
      </trkpt>
      <trkpt lat="47.89192" lon="6.84184">
        <ele>900.8</ele>
        <time>2022-09-13T13:53:41Z</time>
      </trkpt>
      <trkpt lat="47.89193" lon="6.84185">
        <ele>900.9</ele>
        <time>2022-09-13T13:53:42Z</time>
      </trkpt>
      <trkpt lat="47.89194" lon="6.84186">
        <ele>900.9</ele>
        <time>2022-09-13T13:53:43Z</time>
      </trkpt>
      <trkpt lat="47.89196" lon="6.84188">
        <ele>901.1</ele>
        <time>2022-09-13T13:53:44Z</time>
      </trkpt>
      <trkpt lat="47.89198" lon="6.8419">
        <ele>901.3</ele>
        <time>2022-09-13T13:53:45Z</time>
      </trkpt>
      <trkpt lat="47.892" lon="6.84191">
        <ele>901.3</ele>
        <time>2022-09-13T13:53:46Z</time>
      </trkpt>
      <trkpt lat="47.89201" lon="6.84193">
        <ele>901.7</ele>
        <time>2022-09-13T13:53:47Z</time>
      </trkpt>
      <trkpt lat="47.89203" lon="6.84195">
        <ele>901.9</ele>
        <time>2022-09-13T13:53:48Z</time>
      </trkpt>
      <trkpt lat="47.89204" lon="6.84196">
        <ele>902.1</ele>
        <time>2022-09-13T13:53:49Z</time>
      </trkpt>
      <trkpt lat="47.89206" lon="6.84198">
        <ele>902.3</ele>
        <time>2022-09-13T13:53:50Z</time>
      </trkpt>
      <trkpt lat="47.89207" lon="6.84199">
        <ele>902.4</ele>
        <time>2022-09-13T13:53:51Z</time>
      </trkpt>
      <trkpt lat="47.89208" lon="6.842">
        <ele>902.6</ele>
        <time>2022-09-13T13:53:52Z</time>
      </trkpt>
      <trkpt lat="47.89209" lon="6.84202">
        <ele>902.9</ele>
        <time>2022-09-13T13:53:53Z</time>
      </trkpt>
      <trkpt lat="47.89211" lon="6.84204">
        <ele>903.2</ele>
        <time>2022-09-13T13:53:54Z</time>
      </trkpt>
      <trkpt lat="47.89212" lon="6.84205">
        <ele>903.3</ele>
        <time>2022-09-13T13:53:55Z</time>
      </trkpt>
      <trkpt lat="47.89214" lon="6.84207">
        <ele>903.5</ele>
        <time>2022-09-13T13:53:56Z</time>
      </trkpt>
      <trkpt lat="47.89215" lon="6.84209">
        <ele>903.8</ele>
        <time>2022-09-13T13:53:57Z</time>
      </trkpt>
      <trkpt lat="47.89217" lon="6.8421">
        <ele>903.8</ele>
        <time>2022-09-13T13:53:58Z</time>
      </trkpt>
      <trkpt lat="47.89219" lon="6.84212">
        <ele>904</ele>
        <time>2022-09-13T13:53:59Z</time>
      </trkpt>
      <trkpt lat="47.8922" lon="6.84214">
        <ele>904.3</ele>
        <time>2022-09-13T13:54:00Z</time>
      </trkpt>
      <trkpt lat="47.89222" lon="6.84216">
        <ele>904.5</ele>
        <time>2022-09-13T13:54:01Z</time>
      </trkpt>
      <trkpt lat="47.89223" lon="6.84217">
        <ele>904.6</ele>
        <time>2022-09-13T13:54:02Z</time>
      </trkpt>
      <trkpt lat="47.89225" lon="6.84219">
        <ele>904.8</ele>
        <time>2022-09-13T13:54:03Z</time>
      </trkpt>
      <trkpt lat="47.89226" lon="6.84221">
        <ele>905.1</ele>
        <time>2022-09-13T13:54:04Z</time>
      </trkpt>
      <trkpt lat="47.89227" lon="6.84222">
        <ele>905.3</ele>
        <time>2022-09-13T13:54:05Z</time>
      </trkpt>
      <trkpt lat="47.89228" lon="6.84224">
        <ele>905.7</ele>
        <time>2022-09-13T13:54:06Z</time>
      </trkpt>
      <trkpt lat="47.89229" lon="6.84226">
        <ele>906.1</ele>
        <time>2022-09-13T13:54:07Z</time>
      </trkpt>
      <trkpt lat="47.8923" lon="6.84228">
        <ele>906.5</ele>
        <time>2022-09-13T13:54:08Z</time>
      </trkpt>
      <trkpt lat="47.89231" lon="6.84229">
        <ele>906.6</ele>
        <time>2022-09-13T13:54:09Z</time>
      </trkpt>
      <trkpt lat="47.89233" lon="6.84231">
        <ele>906.9</ele>
        <time>2022-09-13T13:54:10Z</time>
      </trkpt>
      <trkpt lat="47.89234" lon="6.84233">
        <ele>907.2</ele>
        <time>2022-09-13T13:54:11Z</time>
      </trkpt>
      <trkpt lat="47.89235" lon="6.84235">
        <ele>907.6</ele>
        <time>2022-09-13T13:54:12Z</time>
      </trkpt>
      <trkpt lat="47.89237" lon="6.84236">
        <ele>907.6</ele>
        <time>2022-09-13T13:54:13Z</time>
      </trkpt>
      <trkpt lat="47.89238" lon="6.84238">
        <ele>907.9</ele>
        <time>2022-09-13T13:54:14Z</time>
      </trkpt>
      <trkpt lat="47.89239" lon="6.84239">
        <ele>908.1</ele>
        <time>2022-09-13T13:54:15Z</time>
      </trkpt>
      <trkpt lat="47.89241" lon="6.84241">
        <ele>908.2</ele>
        <time>2022-09-13T13:54:16Z</time>
      </trkpt>
      <trkpt lat="47.89242" lon="6.84242">
        <ele>908.3</ele>
        <time>2022-09-13T13:54:17Z</time>
      </trkpt>
      <trkpt lat="47.89244" lon="6.84244">
        <ele>908.5</ele>
        <time>2022-09-13T13:54:18Z</time>
      </trkpt>
      <trkpt lat="47.89246" lon="6.84246">
        <ele>908.7</ele>
        <time>2022-09-13T13:54:19Z</time>
      </trkpt>
      <trkpt lat="47.89247" lon="6.84248">
        <ele>909</ele>
        <time>2022-09-13T13:54:20Z</time>
      </trkpt>
      <trkpt lat="47.89249" lon="6.84249">
        <ele>908.9</ele>
        <time>2022-09-13T13:54:21Z</time>
      </trkpt>
      <trkpt lat="47.89251" lon="6.84251">
        <ele>909</ele>
        <time>2022-09-13T13:54:22Z</time>
      </trkpt>
      <trkpt lat="47.89253" lon="6.84252">
        <ele>908.9</ele>
        <time>2022-09-13T13:54:23Z</time>
      </trkpt>
      <trkpt lat="47.89254" lon="6.84254">
        <ele>909.1</ele>
        <time>2022-09-13T13:54:24Z</time>
      </trkpt>
      <trkpt lat="47.89256" lon="6.84256">
        <ele>909.2</ele>
        <time>2022-09-13T13:54:25Z</time>
      </trkpt>
      <trkpt lat="47.89257" lon="6.84257">
        <ele>909.3</ele>
        <time>2022-09-13T13:54:26Z</time>
      </trkpt>
      <trkpt lat="47.89259" lon="6.84259">
        <ele>909.3</ele>
        <time>2022-09-13T13:54:27Z</time>
      </trkpt>
      <trkpt lat="47.8926" lon="6.84261">
        <ele>909.6</ele>
        <time>2022-09-13T13:54:28Z</time>
      </trkpt>
      <trkpt lat="47.89261" lon="6.84262">
        <ele>909.6</ele>
        <time>2022-09-13T13:54:29Z</time>
      </trkpt>
      <trkpt lat="47.89263" lon="6.84264">
        <ele>909.7</ele>
        <time>2022-09-13T13:54:30Z</time>
      </trkpt>
      <trkpt lat="47.89264" lon="6.84266">
        <ele>910</ele>
        <time>2022-09-13T13:54:31Z</time>
      </trkpt>
      <trkpt lat="47.89265" lon="6.84267">
        <ele>910</ele>
        <time>2022-09-13T13:54:32Z</time>
      </trkpt>
      <trkpt lat="47.89267" lon="6.84269">
        <ele>910.1</ele>
        <time>2022-09-13T13:54:33Z</time>
      </trkpt>
      <trkpt lat="47.89268" lon="6.84271">
        <ele>910.4</ele>
        <time>2022-09-13T13:54:34Z</time>
      </trkpt>
      <trkpt lat="47.8927" lon="6.84273">
        <ele>910.5</ele>
        <time>2022-09-13T13:54:35Z</time>
      </trkpt>
      <trkpt lat="47.89271" lon="6.84275">
        <ele>910.8</ele>
        <time>2022-09-13T13:54:36Z</time>
      </trkpt>
      <trkpt lat="47.89272" lon="6.84276">
        <ele>910.8</ele>
        <time>2022-09-13T13:54:37Z</time>
      </trkpt>
      <trkpt lat="47.89273" lon="6.84278">
        <ele>911.1</ele>
        <time>2022-09-13T13:54:38Z</time>
      </trkpt>
      <trkpt lat="47.89275" lon="6.84279">
        <ele>910.9</ele>
        <time>2022-09-13T13:54:39Z</time>
      </trkpt>
      <trkpt lat="47.89276" lon="6.84281">
        <ele>911.3</ele>
        <time>2022-09-13T13:54:40Z</time>
      </trkpt>
      <trkpt lat="47.89278" lon="6.84283">
        <ele>911.5</ele>
        <time>2022-09-13T13:54:41Z</time>
      </trkpt>
      <trkpt lat="47.8928" lon="6.84284">
        <ele>911.4</ele>
        <time>2022-09-13T13:54:42Z</time>
      </trkpt>
      <trkpt lat="47.89282" lon="6.84286">
        <ele>911.6</ele>
        <time>2022-09-13T13:54:43Z</time>
      </trkpt>
      <trkpt lat="47.89283" lon="6.84287">
        <ele>911.7</ele>
        <time>2022-09-13T13:54:44Z</time>
      </trkpt>
      <trkpt lat="47.89285" lon="6.84289">
        <ele>911.9</ele>
        <time>2022-09-13T13:54:45Z</time>
      </trkpt>
      <trkpt lat="47.89286" lon="6.8429">
        <ele>912</ele>
        <time>2022-09-13T13:54:46Z</time>
      </trkpt>
      <trkpt lat="47.89287" lon="6.84292">
        <ele>912.4</ele>
        <time>2022-09-13T13:54:47Z</time>
      </trkpt>
      <trkpt lat="47.89288" lon="6.84293">
        <ele>912.5</ele>
        <time>2022-09-13T13:54:48Z</time>
      </trkpt>
      <trkpt lat="47.8929" lon="6.84294">
        <ele>912.5</ele>
        <time>2022-09-13T13:54:49Z</time>
      </trkpt>
      <trkpt lat="47.89291" lon="6.84296">
        <ele>912.9</ele>
        <time>2022-09-13T13:54:50Z</time>
      </trkpt>
      <trkpt lat="47.89293" lon="6.84298">
        <ele>913.1</ele>
        <time>2022-09-13T13:54:51Z</time>
      </trkpt>
      <trkpt lat="47.89295" lon="6.843">
        <ele>913.3</ele>
        <time>2022-09-13T13:54:52Z</time>
      </trkpt>
      <trkpt lat="47.89296" lon="6.84302">
        <ele>913.7</ele>
        <time>2022-09-13T13:54:53Z</time>
      </trkpt>
      <trkpt lat="47.89297" lon="6.84304">
        <ele>914.1</ele>
        <time>2022-09-13T13:54:54Z</time>
      </trkpt>
      <trkpt lat="47.89298" lon="6.84305">
        <ele>914.2</ele>
        <time>2022-09-13T13:54:55Z</time>
      </trkpt>
      <trkpt lat="47.893" lon="6.84307">
        <ele>914.4</ele>
        <time>2022-09-13T13:54:56Z</time>
      </trkpt>
      <trkpt lat="47.89302" lon="6.84309">
        <ele>914.5</ele>
        <time>2022-09-13T13:54:57Z</time>
      </trkpt>
      <trkpt lat="47.89304" lon="6.84311">
        <ele>914.7</ele>
        <time>2022-09-13T13:54:58Z</time>
      </trkpt>
      <trkpt lat="47.89305" lon="6.84313">
        <ele>915</ele>
        <time>2022-09-13T13:54:59Z</time>
      </trkpt>
      <trkpt lat="47.89306" lon="6.84315">
        <ele>915.3</ele>
        <time>2022-09-13T13:55:00Z</time>
      </trkpt>
      <trkpt lat="47.89308" lon="6.84316">
        <ele>915.2</ele>
        <time>2022-09-13T13:55:01Z</time>
      </trkpt>
      <trkpt lat="47.89309" lon="6.84318">
        <ele>915.6</ele>
        <time>2022-09-13T13:55:02Z</time>
      </trkpt>
      <trkpt lat="47.8931" lon="6.8432">
        <ele>915.9</ele>
        <time>2022-09-13T13:55:03Z</time>
      </trkpt>
      <trkpt lat="47.89311" lon="6.84321">
        <ele>916</ele>
        <time>2022-09-13T13:55:04Z</time>
      </trkpt>
      <trkpt lat="47.89312" lon="6.84322">
        <ele>916.1</ele>
        <time>2022-09-13T13:55:05Z</time>
      </trkpt>
      <trkpt lat="47.89314" lon="6.84324">
        <ele>916.3</ele>
        <time>2022-09-13T13:55:06Z</time>
      </trkpt>
      <trkpt lat="47.89315" lon="6.84325">
        <ele>916.4</ele>
        <time>2022-09-13T13:55:07Z</time>
      </trkpt>
      <trkpt lat="47.89316" lon="6.84326">
        <ele>916.5</ele>
        <time>2022-09-13T13:55:08Z</time>
      </trkpt>
      <trkpt lat="47.89318" lon="6.84327">
        <ele>916.5</ele>
        <time>2022-09-13T13:55:09Z</time>
      </trkpt>
      <trkpt lat="47.8932" lon="6.84329">
        <ele>916.7</ele>
        <time>2022-09-13T13:55:10Z</time>
      </trkpt>
      <trkpt lat="47.89322" lon="6.84331">
        <ele>917</ele>
        <time>2022-09-13T13:55:11Z</time>
      </trkpt>
      <trkpt lat="47.89323" lon="6.84333">
        <ele>917.4</ele>
        <time>2022-09-13T13:55:12Z</time>
      </trkpt>
      <trkpt lat="47.89325" lon="6.84335">
        <ele>917.6</ele>
        <time>2022-09-13T13:55:13Z</time>
      </trkpt>
      <trkpt lat="47.89326" lon="6.84337">
        <ele>918</ele>
        <time>2022-09-13T13:55:14Z</time>
      </trkpt>
      <trkpt lat="47.89328" lon="6.84339">
        <ele>918.2</ele>
        <time>2022-09-13T13:55:15Z</time>
      </trkpt>
      <trkpt lat="47.89329" lon="6.8434">
        <ele>918.3</ele>
        <time>2022-09-13T13:55:16Z</time>
      </trkpt>
      <trkpt lat="47.89331" lon="6.84342">
        <ele>918.5</ele>
        <time>2022-09-13T13:55:17Z</time>
      </trkpt>
      <trkpt lat="47.89332" lon="6.84344">
        <ele>918.9</ele>
        <time>2022-09-13T13:55:18Z</time>
      </trkpt>
      <trkpt lat="47.89334" lon="6.84346">
        <ele>919</ele>
        <time>2022-09-13T13:55:19Z</time>
      </trkpt>
      <trkpt lat="47.89335" lon="6.84348">
        <ele>919.3</ele>
        <time>2022-09-13T13:55:20Z</time>
      </trkpt>
      <trkpt lat="47.89336" lon="6.8435">
        <ele>919.5</ele>
        <time>2022-09-13T13:55:21Z</time>
      </trkpt>
      <trkpt lat="47.89338" lon="6.84351">
        <ele>919.3</ele>
        <time>2022-09-13T13:55:22Z</time>
      </trkpt>
      <trkpt lat="47.89339" lon="6.84353">
        <ele>919.6</ele>
        <time>2022-09-13T13:55:23Z</time>
      </trkpt>
      <trkpt lat="47.89341" lon="6.84355">
        <ele>919.7</ele>
        <time>2022-09-13T13:55:24Z</time>
      </trkpt>
      <trkpt lat="47.89342" lon="6.84357">
        <ele>920</ele>
        <time>2022-09-13T13:55:25Z</time>
      </trkpt>
      <trkpt lat="47.89344" lon="6.84359">
        <ele>920.1</ele>
        <time>2022-09-13T13:55:26Z</time>
      </trkpt>
      <trkpt lat="47.89345" lon="6.84361">
        <ele>920.4</ele>
        <time>2022-09-13T13:55:27Z</time>
      </trkpt>
      <trkpt lat="47.89346" lon="6.84363">
        <ele>920.8</ele>
        <time>2022-09-13T13:55:28Z</time>
      </trkpt>
      <trkpt lat="47.89348" lon="6.84365">
        <ele>921</ele>
        <time>2022-09-13T13:55:29Z</time>
      </trkpt>
      <trkpt lat="47.8935" lon="6.84367">
        <ele>921.1</ele>
        <time>2022-09-13T13:55:30Z</time>
      </trkpt>
      <trkpt lat="47.89351" lon="6.84369">
        <ele>921.5</ele>
        <time>2022-09-13T13:55:31Z</time>
      </trkpt>
      <trkpt lat="47.89352" lon="6.8437">
        <ele>921.5</ele>
        <time>2022-09-13T13:55:32Z</time>
      </trkpt>
      <trkpt lat="47.89354" lon="6.84372">
        <ele>921.7</ele>
        <time>2022-09-13T13:55:33Z</time>
      </trkpt>
      <trkpt lat="47.89355" lon="6.84374">
        <ele>922</ele>
        <time>2022-09-13T13:55:34Z</time>
      </trkpt>
      <trkpt lat="47.89357" lon="6.84376">
        <ele>922.2</ele>
        <time>2022-09-13T13:55:35Z</time>
      </trkpt>
      <trkpt lat="47.89358" lon="6.84378">
        <ele>922.5</ele>
        <time>2022-09-13T13:55:36Z</time>
      </trkpt>
      <trkpt lat="47.89359" lon="6.84379">
        <ele>922.6</ele>
        <time>2022-09-13T13:55:37Z</time>
      </trkpt>
      <trkpt lat="47.8936" lon="6.8438">
        <ele>922.7</ele>
        <time>2022-09-13T13:55:38Z</time>
      </trkpt>
      <trkpt lat="47.89361" lon="6.84381">
        <ele>922.8</ele>
        <time>2022-09-13T13:55:39Z</time>
      </trkpt>
      <trkpt lat="47.89363" lon="6.84383">
        <ele>922.9</ele>
        <time>2022-09-13T13:55:40Z</time>
      </trkpt>
      <trkpt lat="47.89364" lon="6.84384">
        <ele>923</ele>
        <time>2022-09-13T13:55:41Z</time>
      </trkpt>
      <trkpt lat="47.89365" lon="6.84386">
        <ele>923.3</ele>
        <time>2022-09-13T13:55:42Z</time>
      </trkpt>
      <trkpt lat="47.89367" lon="6.84387">
        <ele>923.2</ele>
        <time>2022-09-13T13:55:43Z</time>
      </trkpt>
      <trkpt lat="47.89368" lon="6.84389">
        <ele>923.5</ele>
        <time>2022-09-13T13:55:44Z</time>
      </trkpt>
      <trkpt lat="47.8937" lon="6.84392">
        <ele>924</ele>
        <time>2022-09-13T13:55:45Z</time>
      </trkpt>
      <trkpt lat="47.89372" lon="6.84394">
        <ele>924.1</ele>
        <time>2022-09-13T13:55:46Z</time>
      </trkpt>
      <trkpt lat="47.89373" lon="6.84396">
        <ele>924.5</ele>
        <time>2022-09-13T13:55:47Z</time>
      </trkpt>
      <trkpt lat="47.89375" lon="6.84398">
        <ele>924.6</ele>
        <time>2022-09-13T13:55:48Z</time>
      </trkpt>
      <trkpt lat="47.89376" lon="6.84399">
        <ele>924.7</ele>
        <time>2022-09-13T13:55:49Z</time>
      </trkpt>
      <trkpt lat="47.89377" lon="6.844">
        <ele>924.8</ele>
        <time>2022-09-13T13:55:50Z</time>
      </trkpt>
      <trkpt lat="47.89378" lon="6.84401">
        <ele>924.8</ele>
        <time>2022-09-13T13:55:51Z</time>
      </trkpt>
      <trkpt lat="47.8938" lon="6.84403">
        <ele>925</ele>
        <time>2022-09-13T13:55:52Z</time>
      </trkpt>
      <trkpt lat="47.89381" lon="6.84404">
        <ele>925.1</ele>
        <time>2022-09-13T13:55:53Z</time>
      </trkpt>
      <trkpt lat="47.89383" lon="6.84407">
        <ele>925.5</ele>
        <time>2022-09-13T13:55:54Z</time>
      </trkpt>
      <trkpt lat="47.89385" lon="6.84409">
        <ele>925.6</ele>
        <time>2022-09-13T13:55:55Z</time>
      </trkpt>
      <trkpt lat="47.89386" lon="6.8441">
        <ele>925.7</ele>
        <time>2022-09-13T13:55:56Z</time>
      </trkpt>
      <trkpt lat="47.89388" lon="6.84412">
        <ele>925.8</ele>
        <time>2022-09-13T13:55:57Z</time>
      </trkpt>
      <trkpt lat="47.8939" lon="6.84414">
        <ele>926</ele>
        <time>2022-09-13T13:55:58Z</time>
      </trkpt>
      <trkpt lat="47.89391" lon="6.84416">
        <ele>926.3</ele>
        <time>2022-09-13T13:55:59Z</time>
      </trkpt>
      <trkpt lat="47.89393" lon="6.84418">
        <ele>926.4</ele>
        <time>2022-09-13T13:56:00Z</time>
      </trkpt>
      <trkpt lat="47.89395" lon="6.8442">
        <ele>926.4</ele>
        <time>2022-09-13T13:56:01Z</time>
      </trkpt>
      <trkpt lat="47.89396" lon="6.84422">
        <ele>926.8</ele>
        <time>2022-09-13T13:56:02Z</time>
      </trkpt>
      <trkpt lat="47.89398" lon="6.84424">
        <ele>926.9</ele>
        <time>2022-09-13T13:56:03Z</time>
      </trkpt>
      <trkpt lat="47.894" lon="6.84426">
        <ele>927</ele>
        <time>2022-09-13T13:56:04Z</time>
      </trkpt>
      <trkpt lat="47.89401" lon="6.84428">
        <ele>927.4</ele>
        <time>2022-09-13T13:56:05Z</time>
      </trkpt>
      <trkpt lat="47.89403" lon="6.8443">
        <ele>927.5</ele>
        <time>2022-09-13T13:56:06Z</time>
      </trkpt>
      <trkpt lat="47.89404" lon="6.84432">
        <ele>927.9</ele>
        <time>2022-09-13T13:56:07Z</time>
      </trkpt>
      <trkpt lat="47.89405" lon="6.84434">
        <ele>928.3</ele>
        <time>2022-09-13T13:56:08Z</time>
      </trkpt>
      <trkpt lat="47.89407" lon="6.84435">
        <ele>928.1</ele>
        <time>2022-09-13T13:56:09Z</time>
      </trkpt>
      <trkpt lat="47.89408" lon="6.84437">
        <ele>928.5</ele>
        <time>2022-09-13T13:56:10Z</time>
      </trkpt>
      <trkpt lat="47.8941" lon="6.84439">
        <ele>928.7</ele>
        <time>2022-09-13T13:56:11Z</time>
      </trkpt>
      <trkpt lat="47.89411" lon="6.8444">
        <ele>928.8</ele>
        <time>2022-09-13T13:56:12Z</time>
      </trkpt>
      <trkpt lat="47.89413" lon="6.84442">
        <ele>929</ele>
        <time>2022-09-13T13:56:13Z</time>
      </trkpt>
      <trkpt lat="47.89414" lon="6.84444">
        <ele>929.4</ele>
        <time>2022-09-13T13:56:14Z</time>
      </trkpt>
      <trkpt lat="47.89415" lon="6.84445">
        <ele>929.5</ele>
        <time>2022-09-13T13:56:15Z</time>
      </trkpt>
      <trkpt lat="47.89416" lon="6.84446">
        <ele>929.5</ele>
        <time>2022-09-13T13:56:16Z</time>
      </trkpt>
      <trkpt lat="47.89418" lon="6.84447">
        <ele>929.3</ele>
        <time>2022-09-13T13:56:17Z</time>
      </trkpt>
      <trkpt lat="47.89419" lon="6.84449">
        <ele>929.6</ele>
        <time>2022-09-13T13:56:18Z</time>
      </trkpt>
      <trkpt lat="47.8942" lon="6.8445">
        <ele>929.6</ele>
        <time>2022-09-13T13:56:19Z</time>
      </trkpt>
      <trkpt lat="47.89422" lon="6.84452">
        <ele>929.8</ele>
        <time>2022-09-13T13:56:20Z</time>
      </trkpt>
      <trkpt lat="47.89423" lon="6.84454">
        <ele>930.1</ele>
        <time>2022-09-13T13:56:21Z</time>
      </trkpt>
      <trkpt lat="47.89424" lon="6.84455">
        <ele>930.2</ele>
        <time>2022-09-13T13:56:22Z</time>
      </trkpt>
      <trkpt lat="47.89426" lon="6.84457">
        <ele>930.3</ele>
        <time>2022-09-13T13:56:23Z</time>
      </trkpt>
      <trkpt lat="47.89427" lon="6.84459">
        <ele>930.7</ele>
        <time>2022-09-13T13:56:24Z</time>
      </trkpt>
      <trkpt lat="47.89428" lon="6.8446">
        <ele>930.8</ele>
        <time>2022-09-13T13:56:25Z</time>
      </trkpt>
      <trkpt lat="47.89429" lon="6.84462">
        <ele>931.1</ele>
        <time>2022-09-13T13:56:26Z</time>
      </trkpt>
      <trkpt lat="47.89431" lon="6.84464">
        <ele>931.4</ele>
        <time>2022-09-13T13:56:27Z</time>
      </trkpt>
      <trkpt lat="47.89432" lon="6.84465">
        <ele>931.5</ele>
        <time>2022-09-13T13:56:28Z</time>
      </trkpt>
      <trkpt lat="47.89433" lon="6.84467">
        <ele>931.9</ele>
        <time>2022-09-13T13:56:29Z</time>
      </trkpt>
      <trkpt lat="47.89435" lon="6.84468">
        <ele>931.9</ele>
        <time>2022-09-13T13:56:30Z</time>
      </trkpt>
      <trkpt lat="47.89436" lon="6.8447">
        <ele>932.3</ele>
        <time>2022-09-13T13:56:31Z</time>
      </trkpt>
      <trkpt lat="47.89437" lon="6.84471">
        <ele>932.5</ele>
        <time>2022-09-13T13:56:32Z</time>
      </trkpt>
      <trkpt lat="47.89438" lon="6.84473">
        <ele>932.9</ele>
        <time>2022-09-13T13:56:33Z</time>
      </trkpt>
      <trkpt lat="47.8944" lon="6.84475">
        <ele>933.2</ele>
        <time>2022-09-13T13:56:34Z</time>
      </trkpt>
      <trkpt lat="47.89442" lon="6.84478">
        <ele>933.8</ele>
        <time>2022-09-13T13:56:35Z</time>
      </trkpt>
      <trkpt lat="47.89443" lon="6.8448">
        <ele>934.1</ele>
        <time>2022-09-13T13:56:36Z</time>
      </trkpt>
      <trkpt lat="47.89444" lon="6.84482">
        <ele>934.5</ele>
        <time>2022-09-13T13:56:37Z</time>
      </trkpt>
      <trkpt lat="47.89446" lon="6.84484">
        <ele>935</ele>
        <time>2022-09-13T13:56:38Z</time>
      </trkpt>
      <trkpt lat="47.89447" lon="6.84487">
        <ele>935.8</ele>
        <time>2022-09-13T13:56:39Z</time>
      </trkpt>
      <trkpt lat="47.89448" lon="6.84489">
        <ele>936.3</ele>
        <time>2022-09-13T13:56:40Z</time>
      </trkpt>
      <trkpt lat="47.89449" lon="6.84491">
        <ele>936.8</ele>
        <time>2022-09-13T13:56:41Z</time>
      </trkpt>
      <trkpt lat="47.8945" lon="6.84492">
        <ele>937</ele>
        <time>2022-09-13T13:56:42Z</time>
      </trkpt>
      <trkpt lat="47.89451" lon="6.84494">
        <ele>937.5</ele>
        <time>2022-09-13T13:56:43Z</time>
      </trkpt>
      <trkpt lat="47.89452" lon="6.84496">
        <ele>937.9</ele>
        <time>2022-09-13T13:56:44Z</time>
      </trkpt>
      <trkpt lat="47.89453" lon="6.84498">
        <ele>938.3</ele>
        <time>2022-09-13T13:56:45Z</time>
      </trkpt>
      <trkpt lat="47.89454" lon="6.84501">
        <ele>938.8</ele>
        <time>2022-09-13T13:56:46Z</time>
      </trkpt>
      <trkpt lat="47.89455" lon="6.84503">
        <ele>939.2</ele>
        <time>2022-09-13T13:56:47Z</time>
      </trkpt>
      <trkpt lat="47.89456" lon="6.84505">
        <ele>939.5</ele>
        <time>2022-09-13T13:56:48Z</time>
      </trkpt>
      <trkpt lat="47.89458" lon="6.84507">
        <ele>939.8</ele>
        <time>2022-09-13T13:56:49Z</time>
      </trkpt>
      <trkpt lat="47.89459" lon="6.8451">
        <ele>940.3</ele>
        <time>2022-09-13T13:56:50Z</time>
      </trkpt>
      <trkpt lat="47.8946" lon="6.84511">
        <ele>940.4</ele>
        <time>2022-09-13T13:56:51Z</time>
      </trkpt>
      <trkpt lat="47.89461" lon="6.84513">
        <ele>940.7</ele>
        <time>2022-09-13T13:56:52Z</time>
      </trkpt>
      <trkpt lat="47.89462" lon="6.84514">
        <ele>940.8</ele>
        <time>2022-09-13T13:56:53Z</time>
      </trkpt>
      <trkpt lat="47.89463" lon="6.84515">
        <ele>940.9</ele>
        <time>2022-09-13T13:56:54Z</time>
      </trkpt>
      <trkpt lat="47.89465" lon="6.84517">
        <ele>941</ele>
        <time>2022-09-13T13:56:55Z</time>
      </trkpt>
      <trkpt lat="47.89467" lon="6.84517">
        <ele>940.9</ele>
        <time>2022-09-13T13:56:56Z</time>
      </trkpt>
      <trkpt lat="47.89468" lon="6.84517">
        <ele>940.8</ele>
        <time>2022-09-13T13:56:57Z</time>
      </trkpt>
      <trkpt lat="47.89469" lon="6.84517">
        <ele>940.7</ele>
        <time>2022-09-13T13:56:58Z</time>
      </trkpt>
      <trkpt lat="47.8947" lon="6.84517">
        <ele>940.6</ele>
        <time>2022-09-13T13:56:59Z</time>
      </trkpt>
      <trkpt lat="47.89472" lon="6.84517">
        <ele>940.5</ele>
        <time>2022-09-13T13:57:00Z</time>
      </trkpt>
      <trkpt lat="47.89473" lon="6.84516">
        <ele>940.6</ele>
        <time>2022-09-13T13:57:01Z</time>
      </trkpt>
      <trkpt lat="47.89474" lon="6.84514">
        <ele>940.7</ele>
        <time>2022-09-13T13:57:02Z</time>
      </trkpt>
      <trkpt lat="47.89475" lon="6.84513">
        <ele>940.9</ele>
        <time>2022-09-13T13:57:03Z</time>
      </trkpt>
      <trkpt lat="47.89476" lon="6.84511">
        <ele>941</ele>
        <time>2022-09-13T13:57:04Z</time>
      </trkpt>
      <trkpt lat="47.89478" lon="6.84509">
        <ele>941.4</ele>
        <time>2022-09-13T13:57:05Z</time>
      </trkpt>
      <trkpt lat="47.89479" lon="6.84507">
        <ele>941.6</ele>
        <time>2022-09-13T13:57:06Z</time>
      </trkpt>
      <trkpt lat="47.8948" lon="6.84505">
        <ele>941.7</ele>
        <time>2022-09-13T13:57:07Z</time>
      </trkpt>
      <trkpt lat="47.89481" lon="6.84503">
        <ele>941.8</ele>
        <time>2022-09-13T13:57:08Z</time>
      </trkpt>
      <trkpt lat="47.89482" lon="6.84501">
        <ele>942</ele>
        <time>2022-09-13T13:57:09Z</time>
      </trkpt>
      <trkpt lat="47.89483" lon="6.84499">
        <ele>942.1</ele>
        <time>2022-09-13T13:57:10Z</time>
      </trkpt>
      <trkpt lat="47.89483" lon="6.84497">
        <ele>941.9</ele>
        <time>2022-09-13T13:57:11Z</time>
      </trkpt>
      <trkpt lat="47.89484" lon="6.84495">
        <ele>942</ele>
        <time>2022-09-13T13:57:12Z</time>
      </trkpt>
      <trkpt lat="47.89485" lon="6.84492">
        <ele>942.1</ele>
        <time>2022-09-13T13:57:13Z</time>
      </trkpt>
      <trkpt lat="47.89486" lon="6.8449">
        <ele>942.2</ele>
        <time>2022-09-13T13:57:14Z</time>
      </trkpt>
      <trkpt lat="47.89487" lon="6.84487">
        <ele>942.2</ele>
        <time>2022-09-13T13:57:15Z</time>
      </trkpt>
      <trkpt lat="47.89488" lon="6.84485">
        <ele>942.3</ele>
        <time>2022-09-13T13:57:16Z</time>
      </trkpt>
      <trkpt lat="47.89489" lon="6.84483">
        <ele>942.4</ele>
        <time>2022-09-13T13:57:17Z</time>
      </trkpt>
      <trkpt lat="47.8949" lon="6.84481">
        <ele>942.6</ele>
        <time>2022-09-13T13:57:18Z</time>
      </trkpt>
      <trkpt lat="47.89491" lon="6.84479">
        <ele>942.7</ele>
        <time>2022-09-13T13:57:19Z</time>
      </trkpt>
      <trkpt lat="47.89492" lon="6.84476">
        <ele>942.6</ele>
        <time>2022-09-13T13:57:20Z</time>
      </trkpt>
      <trkpt lat="47.89493" lon="6.84473">
        <ele>942.6</ele>
        <time>2022-09-13T13:57:21Z</time>
      </trkpt>
      <trkpt lat="47.89494" lon="6.84471">
        <ele>942.7</ele>
        <time>2022-09-13T13:57:22Z</time>
      </trkpt>
      <trkpt lat="47.89496" lon="6.84468">
        <ele>943.2</ele>
        <time>2022-09-13T13:57:23Z</time>
      </trkpt>
      <trkpt lat="47.89497" lon="6.84466">
        <ele>943.4</ele>
        <time>2022-09-13T13:57:24Z</time>
      </trkpt>
      <trkpt lat="47.89498" lon="6.84464">
        <ele>943.6</ele>
        <time>2022-09-13T13:57:25Z</time>
      </trkpt>
      <trkpt lat="47.89499" lon="6.84462">
        <ele>943.9</ele>
        <time>2022-09-13T13:57:26Z</time>
      </trkpt>
      <trkpt lat="47.89499" lon="6.8446">
        <ele>943.7</ele>
        <time>2022-09-13T13:57:27Z</time>
      </trkpt>
      <trkpt lat="47.89501" lon="6.84457">
        <ele>944.3</ele>
        <time>2022-09-13T13:57:28Z</time>
      </trkpt>
      <trkpt lat="47.89502" lon="6.84455">
        <ele>944.6</ele>
        <time>2022-09-13T13:57:29Z</time>
      </trkpt>
      <trkpt lat="47.89503" lon="6.84452">
        <ele>944.8</ele>
        <time>2022-09-13T13:57:30Z</time>
      </trkpt>
      <trkpt lat="47.89503" lon="6.84451">
        <ele>944.8</ele>
        <time>2022-09-13T13:57:31Z</time>
      </trkpt>
      <trkpt lat="47.89504" lon="6.84449">
        <ele>945.1</ele>
        <time>2022-09-13T13:57:32Z</time>
      </trkpt>
      <trkpt lat="47.89506" lon="6.84446">
        <ele>945.7</ele>
        <time>2022-09-13T13:57:33Z</time>
      </trkpt>
      <trkpt lat="47.89507" lon="6.84444">
        <ele>946</ele>
        <time>2022-09-13T13:57:34Z</time>
      </trkpt>
      <trkpt lat="47.89508" lon="6.84442">
        <ele>946.2</ele>
        <time>2022-09-13T13:57:35Z</time>
      </trkpt>
      <trkpt lat="47.89509" lon="6.8444">
        <ele>946.4</ele>
        <time>2022-09-13T13:57:36Z</time>
      </trkpt>
      <trkpt lat="47.8951" lon="6.84438">
        <ele>946.6</ele>
        <time>2022-09-13T13:57:37Z</time>
      </trkpt>
      <trkpt lat="47.89511" lon="6.84436">
        <ele>946.8</ele>
        <time>2022-09-13T13:57:38Z</time>
      </trkpt>
      <trkpt lat="47.89512" lon="6.84434">
        <ele>947.1</ele>
        <time>2022-09-13T13:57:39Z</time>
      </trkpt>
      <trkpt lat="47.89512" lon="6.84432">
        <ele>946.8</ele>
        <time>2022-09-13T13:57:40Z</time>
      </trkpt>
      <trkpt lat="47.89513" lon="6.8443">
        <ele>947.1</ele>
        <time>2022-09-13T13:57:41Z</time>
      </trkpt>
      <trkpt lat="47.89514" lon="6.84428">
        <ele>947.3</ele>
        <time>2022-09-13T13:57:42Z</time>
      </trkpt>
      <trkpt lat="47.89515" lon="6.84425">
        <ele>947.4</ele>
        <time>2022-09-13T13:57:43Z</time>
      </trkpt>
      <trkpt lat="47.89516" lon="6.84423">
        <ele>947.6</ele>
        <time>2022-09-13T13:57:44Z</time>
      </trkpt>
      <trkpt lat="47.89517" lon="6.84421">
        <ele>947.8</ele>
        <time>2022-09-13T13:57:45Z</time>
      </trkpt>
      <trkpt lat="47.89518" lon="6.84418">
        <ele>947.9</ele>
        <time>2022-09-13T13:57:46Z</time>
      </trkpt>
      <trkpt lat="47.89519" lon="6.84415">
        <ele>948</ele>
        <time>2022-09-13T13:57:47Z</time>
      </trkpt>
      <trkpt lat="47.8952" lon="6.84413">
        <ele>948.2</ele>
        <time>2022-09-13T13:57:48Z</time>
      </trkpt>
      <trkpt lat="47.89522" lon="6.84411">
        <ele>948.8</ele>
        <time>2022-09-13T13:57:49Z</time>
      </trkpt>
      <trkpt lat="47.89522" lon="6.84409">
        <ele>948.6</ele>
        <time>2022-09-13T13:57:50Z</time>
      </trkpt>
      <trkpt lat="47.89523" lon="6.84407">
        <ele>948.8</ele>
        <time>2022-09-13T13:57:51Z</time>
      </trkpt>
      <trkpt lat="47.89524" lon="6.84406">
        <ele>949.2</ele>
        <time>2022-09-13T13:57:52Z</time>
      </trkpt>
      <trkpt lat="47.89525" lon="6.84404">
        <ele>949.4</ele>
        <time>2022-09-13T13:57:53Z</time>
      </trkpt>
      <trkpt lat="47.89527" lon="6.84402">
        <ele>950.1</ele>
        <time>2022-09-13T13:57:54Z</time>
      </trkpt>
      <trkpt lat="47.89528" lon="6.84399">
        <ele>950.2</ele>
        <time>2022-09-13T13:57:55Z</time>
      </trkpt>
      <trkpt lat="47.8953" lon="6.84397">
        <ele>950.9</ele>
        <time>2022-09-13T13:57:56Z</time>
      </trkpt>
      <trkpt lat="47.89531" lon="6.84394">
        <ele>951.1</ele>
        <time>2022-09-13T13:57:57Z</time>
      </trkpt>
      <trkpt lat="47.89531" lon="6.84393">
        <ele>951</ele>
        <time>2022-09-13T13:57:58Z</time>
      </trkpt>
      <trkpt lat="47.89532" lon="6.84391">
        <ele>951.2</ele>
        <time>2022-09-13T13:57:59Z</time>
      </trkpt>
      <trkpt lat="47.89533" lon="6.84389">
        <ele>951.5</ele>
        <time>2022-09-13T13:58:00Z</time>
      </trkpt>
      <trkpt lat="47.89533" lon="6.84387">
        <ele>951.2</ele>
        <time>2022-09-13T13:58:01Z</time>
      </trkpt>
      <trkpt lat="47.89534" lon="6.84385">
        <ele>951.4</ele>
        <time>2022-09-13T13:58:02Z</time>
      </trkpt>
      <trkpt lat="47.89535" lon="6.84382">
        <ele>951.6</ele>
        <time>2022-09-13T13:58:03Z</time>
      </trkpt>
      <trkpt lat="47.89536" lon="6.84379">
        <ele>951.7</ele>
        <time>2022-09-13T13:58:04Z</time>
      </trkpt>
      <trkpt lat="47.89537" lon="6.84376">
        <ele>951.9</ele>
        <time>2022-09-13T13:58:05Z</time>
      </trkpt>
      <trkpt lat="47.89537" lon="6.84373">
        <ele>951.6</ele>
        <time>2022-09-13T13:58:06Z</time>
      </trkpt>
      <trkpt lat="47.89538" lon="6.8437">
        <ele>951.8</ele>
        <time>2022-09-13T13:58:07Z</time>
      </trkpt>
      <trkpt lat="47.89539" lon="6.84367">
        <ele>952.1</ele>
        <time>2022-09-13T13:58:08Z</time>
      </trkpt>
      <trkpt lat="47.8954" lon="6.84365">
        <ele>952.4</ele>
        <time>2022-09-13T13:58:09Z</time>
      </trkpt>
      <trkpt lat="47.89541" lon="6.84362">
        <ele>952.7</ele>
        <time>2022-09-13T13:58:10Z</time>
      </trkpt>
      <trkpt lat="47.89541" lon="6.84359">
        <ele>952.5</ele>
        <time>2022-09-13T13:58:11Z</time>
      </trkpt>
      <trkpt lat="47.89542" lon="6.84356">
        <ele>952.8</ele>
        <time>2022-09-13T13:58:12Z</time>
      </trkpt>
      <trkpt lat="47.89543" lon="6.84353">
        <ele>953.2</ele>
        <time>2022-09-13T13:58:13Z</time>
      </trkpt>
      <trkpt lat="47.89543" lon="6.84351">
        <ele>953</ele>
        <time>2022-09-13T13:58:14Z</time>
      </trkpt>
      <trkpt lat="47.89544" lon="6.84348">
        <ele>953.3</ele>
        <time>2022-09-13T13:58:15Z</time>
      </trkpt>
      <trkpt lat="47.89545" lon="6.84346">
        <ele>953.7</ele>
        <time>2022-09-13T13:58:16Z</time>
      </trkpt>
      <trkpt lat="47.89545" lon="6.84343">
        <ele>953.5</ele>
        <time>2022-09-13T13:58:17Z</time>
      </trkpt>
      <trkpt lat="47.89546" lon="6.8434">
        <ele>953.7</ele>
        <time>2022-09-13T13:58:18Z</time>
      </trkpt>
      <trkpt lat="47.89547" lon="6.84337">
        <ele>954</ele>
        <time>2022-09-13T13:58:19Z</time>
      </trkpt>
      <trkpt lat="47.89547" lon="6.84334">
        <ele>953.7</ele>
        <time>2022-09-13T13:58:20Z</time>
      </trkpt>
      <trkpt lat="47.89548" lon="6.84332">
        <ele>954.2</ele>
        <time>2022-09-13T13:58:21Z</time>
      </trkpt>
      <trkpt lat="47.89549" lon="6.84329">
        <ele>954.7</ele>
        <time>2022-09-13T13:58:22Z</time>
      </trkpt>
      <trkpt lat="47.89549" lon="6.84326">
        <ele>954.6</ele>
        <time>2022-09-13T13:58:23Z</time>
      </trkpt>
      <trkpt lat="47.89549" lon="6.84323">
        <ele>954.6</ele>
        <time>2022-09-13T13:58:24Z</time>
      </trkpt>
      <trkpt lat="47.8955" lon="6.8432">
        <ele>955.1</ele>
        <time>2022-09-13T13:58:25Z</time>
      </trkpt>
      <trkpt lat="47.89551" lon="6.84317">
        <ele>955.6</ele>
        <time>2022-09-13T13:58:26Z</time>
      </trkpt>
      <trkpt lat="47.89551" lon="6.84315">
        <ele>955.6</ele>
        <time>2022-09-13T13:58:27Z</time>
      </trkpt>
      <trkpt lat="47.89552" lon="6.84312">
        <ele>956.1</ele>
        <time>2022-09-13T13:58:28Z</time>
      </trkpt>
      <trkpt lat="47.89553" lon="6.84309">
        <ele>956.6</ele>
        <time>2022-09-13T13:58:29Z</time>
      </trkpt>
      <trkpt lat="47.89553" lon="6.84307">
        <ele>956.6</ele>
        <time>2022-09-13T13:58:30Z</time>
      </trkpt>
      <trkpt lat="47.89554" lon="6.84305">
        <ele>957.2</ele>
        <time>2022-09-13T13:58:31Z</time>
      </trkpt>
      <trkpt lat="47.89554" lon="6.84303">
        <ele>957.2</ele>
        <time>2022-09-13T13:58:32Z</time>
      </trkpt>
      <trkpt lat="47.89554" lon="6.84301">
        <ele>957.2</ele>
        <time>2022-09-13T13:58:33Z</time>
      </trkpt>
      <trkpt lat="47.89555" lon="6.84297">
        <ele>957.7</ele>
        <time>2022-09-13T13:58:34Z</time>
      </trkpt>
      <trkpt lat="47.89555" lon="6.84294">
        <ele>957.7</ele>
        <time>2022-09-13T13:58:35Z</time>
      </trkpt>
      <trkpt lat="47.89555" lon="6.84291">
        <ele>957.7</ele>
        <time>2022-09-13T13:58:36Z</time>
      </trkpt>
      <trkpt lat="47.89555" lon="6.84288">
        <ele>957.7</ele>
        <time>2022-09-13T13:58:37Z</time>
      </trkpt>
      <trkpt lat="47.89555" lon="6.84285">
        <ele>957.7</ele>
        <time>2022-09-13T13:58:38Z</time>
      </trkpt>
      <trkpt lat="47.89555" lon="6.84283">
        <ele>957.7</ele>
        <time>2022-09-13T13:58:39Z</time>
      </trkpt>
      <trkpt lat="47.89555" lon="6.84281">
        <ele>957.7</ele>
        <time>2022-09-13T13:58:40Z</time>
      </trkpt>
      <trkpt lat="47.89555" lon="6.84279">
        <ele>957.7</ele>
        <time>2022-09-13T13:58:41Z</time>
      </trkpt>
      <trkpt lat="47.89555" lon="6.84277">
        <ele>957.8</ele>
        <time>2022-09-13T13:58:42Z</time>
      </trkpt>
      <trkpt lat="47.89556" lon="6.84274">
        <ele>958.5</ele>
        <time>2022-09-13T13:58:43Z</time>
      </trkpt>
      <trkpt lat="47.89556" lon="6.84272">
        <ele>958.7</ele>
        <time>2022-09-13T13:58:44Z</time>
      </trkpt>
      <trkpt lat="47.89556" lon="6.84268">
        <ele>959</ele>
        <time>2022-09-13T13:58:45Z</time>
      </trkpt>
      <trkpt lat="47.89556" lon="6.84265">
        <ele>959.2</ele>
        <time>2022-09-13T13:58:46Z</time>
      </trkpt>
      <trkpt lat="47.89557" lon="6.84261">
        <ele>960</ele>
        <time>2022-09-13T13:58:47Z</time>
      </trkpt>
      <trkpt lat="47.89557" lon="6.84259">
        <ele>960.1</ele>
        <time>2022-09-13T13:58:48Z</time>
      </trkpt>
      <trkpt lat="47.89558" lon="6.84256">
        <ele>960.9</ele>
        <time>2022-09-13T13:58:49Z</time>
      </trkpt>
      <trkpt lat="47.89558" lon="6.84253">
        <ele>961.1</ele>
        <time>2022-09-13T13:58:50Z</time>
      </trkpt>
      <trkpt lat="47.89558" lon="6.84251">
        <ele>961.3</ele>
        <time>2022-09-13T13:58:51Z</time>
      </trkpt>
      <trkpt lat="47.89558" lon="6.84249">
        <ele>961.3</ele>
        <time>2022-09-13T13:58:52Z</time>
      </trkpt>
      <trkpt lat="47.89558" lon="6.84245">
        <ele>961.4</ele>
        <time>2022-09-13T13:58:53Z</time>
      </trkpt>
      <trkpt lat="47.89558" lon="6.84242">
        <ele>961.4</ele>
        <time>2022-09-13T13:58:54Z</time>
      </trkpt>
      <trkpt lat="47.89558" lon="6.84239">
        <ele>961.4</ele>
        <time>2022-09-13T13:58:55Z</time>
      </trkpt>
      <trkpt lat="47.89558" lon="6.84237">
        <ele>961.4</ele>
        <time>2022-09-13T13:58:56Z</time>
      </trkpt>
      <trkpt lat="47.89558" lon="6.84235">
        <ele>961.4</ele>
        <time>2022-09-13T13:58:57Z</time>
      </trkpt>
      <trkpt lat="47.89558" lon="6.84233">
        <ele>961.4</ele>
        <time>2022-09-13T13:58:58Z</time>
      </trkpt>
      <trkpt lat="47.89558" lon="6.8423">
        <ele>961.4</ele>
        <time>2022-09-13T13:58:59Z</time>
      </trkpt>
      <trkpt lat="47.89558" lon="6.84228">
        <ele>961.5</ele>
        <time>2022-09-13T13:59:00Z</time>
      </trkpt>
      <trkpt lat="47.89558" lon="6.84226">
        <ele>961.5</ele>
        <time>2022-09-13T13:59:01Z</time>
      </trkpt>
      <trkpt lat="47.89558" lon="6.84223">
        <ele>961.5</ele>
        <time>2022-09-13T13:59:02Z</time>
      </trkpt>
      <trkpt lat="47.89558" lon="6.8422">
        <ele>961.6</ele>
        <time>2022-09-13T13:59:03Z</time>
      </trkpt>
      <trkpt lat="47.89558" lon="6.84218">
        <ele>961.6</ele>
        <time>2022-09-13T13:59:04Z</time>
      </trkpt>
      <trkpt lat="47.89559" lon="6.84215">
        <ele>962.4</ele>
        <time>2022-09-13T13:59:05Z</time>
      </trkpt>
      <trkpt lat="47.89559" lon="6.84213">
        <ele>962.4</ele>
        <time>2022-09-13T13:59:06Z</time>
      </trkpt>
      <trkpt lat="47.89558" lon="6.8421">
        <ele>961.9</ele>
        <time>2022-09-13T13:59:07Z</time>
      </trkpt>
      <trkpt lat="47.89558" lon="6.84207">
        <ele>962</ele>
        <time>2022-09-13T13:59:08Z</time>
      </trkpt>
      <trkpt lat="47.89558" lon="6.84204">
        <ele>962.2</ele>
        <time>2022-09-13T13:59:09Z</time>
      </trkpt>
      <trkpt lat="47.89558" lon="6.842">
        <ele>962.3</ele>
        <time>2022-09-13T13:59:10Z</time>
      </trkpt>
      <trkpt lat="47.89558" lon="6.84197">
        <ele>962.4</ele>
        <time>2022-09-13T13:59:11Z</time>
      </trkpt>
      <trkpt lat="47.89558" lon="6.84195">
        <ele>962.5</ele>
        <time>2022-09-13T13:59:12Z</time>
      </trkpt>
      <trkpt lat="47.89558" lon="6.84192">
        <ele>962.6</ele>
        <time>2022-09-13T13:59:13Z</time>
      </trkpt>
      <trkpt lat="47.89559" lon="6.84189">
        <ele>963.3</ele>
        <time>2022-09-13T13:59:14Z</time>
      </trkpt>
      <trkpt lat="47.89559" lon="6.84186">
        <ele>963.4</ele>
        <time>2022-09-13T13:59:15Z</time>
      </trkpt>
      <trkpt lat="47.89559" lon="6.84183">
        <ele>963.5</ele>
        <time>2022-09-13T13:59:16Z</time>
      </trkpt>
      <trkpt lat="47.89559" lon="6.8418">
        <ele>963.6</ele>
        <time>2022-09-13T13:59:17Z</time>
      </trkpt>
      <trkpt lat="47.89559" lon="6.84178">
        <ele>963.7</ele>
        <time>2022-09-13T13:59:18Z</time>
      </trkpt>
      <trkpt lat="47.8956" lon="6.84175">
        <ele>964.4</ele>
        <time>2022-09-13T13:59:19Z</time>
      </trkpt>
      <trkpt lat="47.8956" lon="6.84172">
        <ele>964.5</ele>
        <time>2022-09-13T13:59:20Z</time>
      </trkpt>
      <trkpt lat="47.8956" lon="6.84169">
        <ele>964.6</ele>
        <time>2022-09-13T13:59:21Z</time>
      </trkpt>
      <trkpt lat="47.8956" lon="6.84166">
        <ele>964.7</ele>
        <time>2022-09-13T13:59:22Z</time>
      </trkpt>
      <trkpt lat="47.8956" lon="6.84164">
        <ele>964.7</ele>
        <time>2022-09-13T13:59:23Z</time>
      </trkpt>
      <trkpt lat="47.8956" lon="6.84161">
        <ele>964.7</ele>
        <time>2022-09-13T13:59:24Z</time>
      </trkpt>
      <trkpt lat="47.89561" lon="6.84158">
        <ele>965.3</ele>
        <time>2022-09-13T13:59:25Z</time>
      </trkpt>
      <trkpt lat="47.89561" lon="6.84155">
        <ele>965.3</ele>
        <time>2022-09-13T13:59:26Z</time>
      </trkpt>
      <trkpt lat="47.89561" lon="6.84152">
        <ele>965.3</ele>
        <time>2022-09-13T13:59:27Z</time>
      </trkpt>
      <trkpt lat="47.89561" lon="6.84149">
        <ele>965.3</ele>
        <time>2022-09-13T13:59:28Z</time>
      </trkpt>
      <trkpt lat="47.89561" lon="6.84146">
        <ele>965.3</ele>
        <time>2022-09-13T13:59:29Z</time>
      </trkpt>
      <trkpt lat="47.89562" lon="6.84143">
        <ele>965.9</ele>
        <time>2022-09-13T13:59:30Z</time>
      </trkpt>
      <trkpt lat="47.89562" lon="6.8414">
        <ele>965.9</ele>
        <time>2022-09-13T13:59:31Z</time>
      </trkpt>
      <trkpt lat="47.89562" lon="6.84138">
        <ele>966</ele>
        <time>2022-09-13T13:59:32Z</time>
      </trkpt>
      <trkpt lat="47.89562" lon="6.84135">
        <ele>966</ele>
        <time>2022-09-13T13:59:33Z</time>
      </trkpt>
      <trkpt lat="47.89563" lon="6.84132">
        <ele>966.6</ele>
        <time>2022-09-13T13:59:34Z</time>
      </trkpt>
      <trkpt lat="47.89563" lon="6.8413">
        <ele>966.6</ele>
        <time>2022-09-13T13:59:35Z</time>
      </trkpt>
      <trkpt lat="47.89564" lon="6.84127">
        <ele>967.3</ele>
        <time>2022-09-13T13:59:36Z</time>
      </trkpt>
      <trkpt lat="47.89564" lon="6.84124">
        <ele>967.3</ele>
        <time>2022-09-13T13:59:37Z</time>
      </trkpt>
      <trkpt lat="47.89564" lon="6.84121">
        <ele>967.4</ele>
        <time>2022-09-13T13:59:38Z</time>
      </trkpt>
      <trkpt lat="47.89564" lon="6.84118">
        <ele>967.4</ele>
        <time>2022-09-13T13:59:39Z</time>
      </trkpt>
      <trkpt lat="47.89565" lon="6.84116">
        <ele>968.1</ele>
        <time>2022-09-13T13:59:40Z</time>
      </trkpt>
      <trkpt lat="47.89565" lon="6.84113">
        <ele>968.1</ele>
        <time>2022-09-13T13:59:41Z</time>
      </trkpt>
      <trkpt lat="47.89565" lon="6.84111">
        <ele>968.1</ele>
        <time>2022-09-13T13:59:42Z</time>
      </trkpt>
      <trkpt lat="47.89565" lon="6.84109">
        <ele>968.1</ele>
        <time>2022-09-13T13:59:43Z</time>
      </trkpt>
      <trkpt lat="47.89566" lon="6.84105">
        <ele>968.8</ele>
        <time>2022-09-13T13:59:44Z</time>
      </trkpt>
      <trkpt lat="47.89566" lon="6.84102">
        <ele>968.8</ele>
        <time>2022-09-13T13:59:45Z</time>
      </trkpt>
      <trkpt lat="47.89566" lon="6.841">
        <ele>968.9</ele>
        <time>2022-09-13T13:59:46Z</time>
      </trkpt>
      <trkpt lat="47.89567" lon="6.84097">
        <ele>969.5</ele>
        <time>2022-09-13T13:59:47Z</time>
      </trkpt>
      <trkpt lat="47.89567" lon="6.84094">
        <ele>969.5</ele>
        <time>2022-09-13T13:59:48Z</time>
      </trkpt>
      <trkpt lat="47.89568" lon="6.84092">
        <ele>970.1</ele>
        <time>2022-09-13T13:59:49Z</time>
      </trkpt>
      <trkpt lat="47.89568" lon="6.84089">
        <ele>970.1</ele>
        <time>2022-09-13T13:59:50Z</time>
      </trkpt>
      <trkpt lat="47.89568" lon="6.84086">
        <ele>970.2</ele>
        <time>2022-09-13T13:59:51Z</time>
      </trkpt>
      <trkpt lat="47.89569" lon="6.84083">
        <ele>970.7</ele>
        <time>2022-09-13T13:59:52Z</time>
      </trkpt>
      <trkpt lat="47.89569" lon="6.84081">
        <ele>970.7</ele>
        <time>2022-09-13T13:59:53Z</time>
      </trkpt>
      <trkpt lat="47.8957" lon="6.84078">
        <ele>971.1</ele>
        <time>2022-09-13T13:59:54Z</time>
      </trkpt>
      <trkpt lat="47.8957" lon="6.84075">
        <ele>971</ele>
        <time>2022-09-13T13:59:55Z</time>
      </trkpt>
      <trkpt lat="47.89571" lon="6.84072">
        <ele>971.5</ele>
        <time>2022-09-13T13:59:56Z</time>
      </trkpt>
      <trkpt lat="47.89571" lon="6.84069">
        <ele>971.4</ele>
        <time>2022-09-13T13:59:57Z</time>
      </trkpt>
      <trkpt lat="47.89572" lon="6.84067">
        <ele>971.9</ele>
        <time>2022-09-13T13:59:58Z</time>
      </trkpt>
      <trkpt lat="47.89572" lon="6.84064">
        <ele>971.8</ele>
        <time>2022-09-13T13:59:59Z</time>
      </trkpt>
      <trkpt lat="47.89573" lon="6.84062">
        <ele>972.3</ele>
        <time>2022-09-13T14:00:00Z</time>
      </trkpt>
      <trkpt lat="47.89573" lon="6.84059">
        <ele>972.2</ele>
        <time>2022-09-13T14:00:01Z</time>
      </trkpt>
      <trkpt lat="47.89574" lon="6.84056">
        <ele>972.6</ele>
        <time>2022-09-13T14:00:02Z</time>
      </trkpt>
      <trkpt lat="47.89574" lon="6.84053">
        <ele>972.4</ele>
        <time>2022-09-13T14:00:03Z</time>
      </trkpt>
      <trkpt lat="47.89575" lon="6.8405">
        <ele>972.8</ele>
        <time>2022-09-13T14:00:04Z</time>
      </trkpt>
      <trkpt lat="47.89576" lon="6.84048">
        <ele>973.2</ele>
        <time>2022-09-13T14:00:05Z</time>
      </trkpt>
      <trkpt lat="47.89576" lon="6.84045">
        <ele>973</ele>
        <time>2022-09-13T14:00:06Z</time>
      </trkpt>
      <trkpt lat="47.89577" lon="6.84042">
        <ele>973.4</ele>
        <time>2022-09-13T14:00:07Z</time>
      </trkpt>
      <trkpt lat="47.89577" lon="6.84041">
        <ele>973.3</ele>
        <time>2022-09-13T14:00:08Z</time>
      </trkpt>
      <trkpt lat="47.89578" lon="6.84038">
        <ele>973.7</ele>
        <time>2022-09-13T14:00:09Z</time>
      </trkpt>
      <trkpt lat="47.89579" lon="6.84036">
        <ele>974.1</ele>
        <time>2022-09-13T14:00:10Z</time>
      </trkpt>
      <trkpt lat="47.8958" lon="6.84034">
        <ele>974.5</ele>
        <time>2022-09-13T14:00:11Z</time>
      </trkpt>
      <trkpt lat="47.89581" lon="6.84032">
        <ele>975</ele>
        <time>2022-09-13T14:00:12Z</time>
      </trkpt>
      <trkpt lat="47.89582" lon="6.84028">
        <ele>975.2</ele>
        <time>2022-09-13T14:00:13Z</time>
      </trkpt>
      <trkpt lat="47.89583" lon="6.84026">
        <ele>975.6</ele>
        <time>2022-09-13T14:00:14Z</time>
      </trkpt>
      <trkpt lat="47.89584" lon="6.84023">
        <ele>975.8</ele>
        <time>2022-09-13T14:00:15Z</time>
      </trkpt>
      <trkpt lat="47.89585" lon="6.8402">
        <ele>976</ele>
        <time>2022-09-13T14:00:16Z</time>
      </trkpt>
      <trkpt lat="47.89586" lon="6.84018">
        <ele>976.3</ele>
        <time>2022-09-13T14:00:17Z</time>
      </trkpt>
      <trkpt lat="47.89587" lon="6.84016">
        <ele>976.6</ele>
        <time>2022-09-13T14:00:18Z</time>
      </trkpt>
      <trkpt lat="47.89588" lon="6.84013">
        <ele>976.8</ele>
        <time>2022-09-13T14:00:19Z</time>
      </trkpt>
      <trkpt lat="47.8959" lon="6.8401">
        <ele>977.4</ele>
        <time>2022-09-13T14:00:20Z</time>
      </trkpt>
      <trkpt lat="47.89591" lon="6.84008">
        <ele>977.7</ele>
        <time>2022-09-13T14:00:21Z</time>
      </trkpt>
      <trkpt lat="47.89592" lon="6.84005">
        <ele>977.9</ele>
        <time>2022-09-13T14:00:22Z</time>
      </trkpt>
      <trkpt lat="47.89593" lon="6.84002">
        <ele>978.1</ele>
        <time>2022-09-13T14:00:23Z</time>
      </trkpt>
      <trkpt lat="47.89594" lon="6.84">
        <ele>978.4</ele>
        <time>2022-09-13T14:00:24Z</time>
      </trkpt>
      <trkpt lat="47.89595" lon="6.83997">
        <ele>978.5</ele>
        <time>2022-09-13T14:00:25Z</time>
      </trkpt>
      <trkpt lat="47.89596" lon="6.83995">
        <ele>978.7</ele>
        <time>2022-09-13T14:00:26Z</time>
      </trkpt>
      <trkpt lat="47.89597" lon="6.83992">
        <ele>978.9</ele>
        <time>2022-09-13T14:00:27Z</time>
      </trkpt>
      <trkpt lat="47.89598" lon="6.8399">
        <ele>979.1</ele>
        <time>2022-09-13T14:00:28Z</time>
      </trkpt>
      <trkpt lat="47.89599" lon="6.83987">
        <ele>979.3</ele>
        <time>2022-09-13T14:00:29Z</time>
      </trkpt>
      <trkpt lat="47.896" lon="6.83984">
        <ele>979.4</ele>
        <time>2022-09-13T14:00:30Z</time>
      </trkpt>
      <trkpt lat="47.89601" lon="6.83981">
        <ele>979.6</ele>
        <time>2022-09-13T14:00:31Z</time>
      </trkpt>
      <trkpt lat="47.89602" lon="6.83979">
        <ele>979.9</ele>
        <time>2022-09-13T14:00:32Z</time>
      </trkpt>
      <trkpt lat="47.89603" lon="6.83976">
        <ele>980.1</ele>
        <time>2022-09-13T14:00:33Z</time>
      </trkpt>
      <trkpt lat="47.89604" lon="6.83974">
        <ele>980.4</ele>
        <time>2022-09-13T14:00:34Z</time>
      </trkpt>
      <trkpt lat="47.89606" lon="6.83971">
        <ele>981.1</ele>
        <time>2022-09-13T14:00:35Z</time>
      </trkpt>
      <trkpt lat="47.89607" lon="6.83968">
        <ele>981.3</ele>
        <time>2022-09-13T14:00:36Z</time>
      </trkpt>
      <trkpt lat="47.89608" lon="6.83966">
        <ele>981.7</ele>
        <time>2022-09-13T14:00:37Z</time>
      </trkpt>
      <trkpt lat="47.89609" lon="6.83963">
        <ele>981.9</ele>
        <time>2022-09-13T14:00:38Z</time>
      </trkpt>
      <trkpt lat="47.8961" lon="6.8396">
        <ele>982.1</ele>
        <time>2022-09-13T14:00:39Z</time>
      </trkpt>
      <trkpt lat="47.89611" lon="6.83958">
        <ele>982.4</ele>
        <time>2022-09-13T14:00:40Z</time>
      </trkpt>
      <trkpt lat="47.89612" lon="6.83955">
        <ele>982.6</ele>
        <time>2022-09-13T14:00:41Z</time>
      </trkpt>
      <trkpt lat="47.89612" lon="6.83952">
        <ele>982.2</ele>
        <time>2022-09-13T14:00:42Z</time>
      </trkpt>
      <trkpt lat="47.89613" lon="6.83949">
        <ele>982.4</ele>
        <time>2022-09-13T14:00:43Z</time>
      </trkpt>
      <trkpt lat="47.89614" lon="6.83946">
        <ele>982.5</ele>
        <time>2022-09-13T14:00:44Z</time>
      </trkpt>
      <trkpt lat="47.89615" lon="6.83944">
        <ele>982.8</ele>
        <time>2022-09-13T14:00:45Z</time>
      </trkpt>
      <trkpt lat="47.89616" lon="6.83941">
        <ele>983</ele>
        <time>2022-09-13T14:00:46Z</time>
      </trkpt>
      <trkpt lat="47.89616" lon="6.83938">
        <ele>982.7</ele>
        <time>2022-09-13T14:00:47Z</time>
      </trkpt>
      <trkpt lat="47.89617" lon="6.83936">
        <ele>983</ele>
        <time>2022-09-13T14:00:48Z</time>
      </trkpt>
      <trkpt lat="47.89618" lon="6.83933">
        <ele>983.2</ele>
        <time>2022-09-13T14:00:49Z</time>
      </trkpt>
      <trkpt lat="47.89618" lon="6.83932">
        <ele>983.1</ele>
        <time>2022-09-13T14:00:50Z</time>
      </trkpt>
      <trkpt lat="47.89619" lon="6.8393">
        <ele>983.4</ele>
        <time>2022-09-13T14:00:51Z</time>
      </trkpt>
      <trkpt lat="47.8962" lon="6.83927">
        <ele>983.7</ele>
        <time>2022-09-13T14:00:52Z</time>
      </trkpt>
      <trkpt lat="47.89621" lon="6.83925">
        <ele>984</ele>
        <time>2022-09-13T14:00:53Z</time>
      </trkpt>
      <trkpt lat="47.89621" lon="6.83923">
        <ele>983.9</ele>
        <time>2022-09-13T14:00:54Z</time>
      </trkpt>
      <trkpt lat="47.89622" lon="6.8392">
        <ele>984.1</ele>
        <time>2022-09-13T14:00:55Z</time>
      </trkpt>
      <trkpt lat="47.89622" lon="6.83918">
        <ele>984</ele>
        <time>2022-09-13T14:00:56Z</time>
      </trkpt>
      <trkpt lat="47.89623" lon="6.83914">
        <ele>984.3</ele>
        <time>2022-09-13T14:00:57Z</time>
      </trkpt>
      <trkpt lat="47.89624" lon="6.83912">
        <ele>984.7</ele>
        <time>2022-09-13T14:00:58Z</time>
      </trkpt>
      <trkpt lat="47.89624" lon="6.8391">
        <ele>984.6</ele>
        <time>2022-09-13T14:00:59Z</time>
      </trkpt>
      <trkpt lat="47.89625" lon="6.83907">
        <ele>985</ele>
        <time>2022-09-13T14:01:00Z</time>
      </trkpt>
      <trkpt lat="47.89626" lon="6.83904">
        <ele>985.3</ele>
        <time>2022-09-13T14:01:01Z</time>
      </trkpt>
      <trkpt lat="47.89626" lon="6.839">
        <ele>985.1</ele>
        <time>2022-09-13T14:01:02Z</time>
      </trkpt>
      <trkpt lat="47.89627" lon="6.83898">
        <ele>985.5</ele>
        <time>2022-09-13T14:01:03Z</time>
      </trkpt>
      <trkpt lat="47.89627" lon="6.83895">
        <ele>985.4</ele>
        <time>2022-09-13T14:01:04Z</time>
      </trkpt>
      <trkpt lat="47.89628" lon="6.83892">
        <ele>985.7</ele>
        <time>2022-09-13T14:01:05Z</time>
      </trkpt>
      <trkpt lat="47.89628" lon="6.83889">
        <ele>985.5</ele>
        <time>2022-09-13T14:01:06Z</time>
      </trkpt>
      <trkpt lat="47.89629" lon="6.83886">
        <ele>986.1</ele>
        <time>2022-09-13T14:01:07Z</time>
      </trkpt>
      <trkpt lat="47.89629" lon="6.83883">
        <ele>986.2</ele>
        <time>2022-09-13T14:01:08Z</time>
      </trkpt>
      <trkpt lat="47.89629" lon="6.8388">
        <ele>986.2</ele>
        <time>2022-09-13T14:01:09Z</time>
      </trkpt>
      <trkpt lat="47.89629" lon="6.83878">
        <ele>986.3</ele>
        <time>2022-09-13T14:01:10Z</time>
      </trkpt>
      <trkpt lat="47.89629" lon="6.83876">
        <ele>986.3</ele>
        <time>2022-09-13T14:01:11Z</time>
      </trkpt>
      <trkpt lat="47.89629" lon="6.83874">
        <ele>986.4</ele>
        <time>2022-09-13T14:01:12Z</time>
      </trkpt>
      <trkpt lat="47.89629" lon="6.83872">
        <ele>986.4</ele>
        <time>2022-09-13T14:01:13Z</time>
      </trkpt>
      <trkpt lat="47.89629" lon="6.8387">
        <ele>986.5</ele>
        <time>2022-09-13T14:01:14Z</time>
      </trkpt>
      <trkpt lat="47.89629" lon="6.83867">
        <ele>986.6</ele>
        <time>2022-09-13T14:03:46Z</time>
      </trkpt>
      <trkpt lat="47.89629" lon="6.83866">
        <ele>986.6</ele>
        <time>2022-09-13T14:03:47Z</time>
      </trkpt>
      <trkpt lat="47.8963" lon="6.83864">
        <ele>987.1</ele>
        <time>2022-09-13T14:03:48Z</time>
      </trkpt>
      <trkpt lat="47.8963" lon="6.83863">
        <ele>987.1</ele>
        <time>2022-09-13T14:03:49Z</time>
      </trkpt>
      <trkpt lat="47.89631" lon="6.83863">
        <ele>987.6</ele>
        <time>2022-09-13T14:03:50Z</time>
      </trkpt>
      <trkpt lat="47.89632" lon="6.83862">
        <ele>988</ele>
        <time>2022-09-13T14:03:51Z</time>
      </trkpt>
      <trkpt lat="47.89633" lon="6.83862">
        <ele>988.4</ele>
        <time>2022-09-13T14:03:52Z</time>
      </trkpt>
      <trkpt lat="47.89634" lon="6.83863">
        <ele>988.9</ele>
        <time>2022-09-13T14:03:54Z</time>
      </trkpt>
      <trkpt lat="47.89635" lon="6.83863">
        <ele>989.3</ele>
        <time>2022-09-13T14:06:17Z</time>
      </trkpt>
      <trkpt lat="47.89635" lon="6.83864">
        <ele>989.3</ele>
        <time>2022-09-13T14:06:20Z</time>
      </trkpt>
      <trkpt lat="47.89635" lon="6.83862">
        <ele>989.3</ele>
        <time>2022-09-13T14:06:23Z</time>
      </trkpt>
      <trkpt lat="47.89635" lon="6.83861">
        <ele>989.3</ele>
        <time>2022-09-13T14:06:24Z</time>
      </trkpt>
      <trkpt lat="47.89635" lon="6.8386">
        <ele>989.4</ele>
        <time>2022-09-13T14:06:25Z</time>
      </trkpt>
      <trkpt lat="47.89635" lon="6.83859">
        <ele>989.4</ele>
        <time>2022-09-13T14:06:26Z</time>
      </trkpt>
      <trkpt lat="47.89636" lon="6.83858">
        <ele>989.9</ele>
        <time>2022-09-13T14:06:27Z</time>
      </trkpt>
      <trkpt lat="47.89636" lon="6.83857">
        <ele>989.9</ele>
        <time>2022-09-13T14:06:28Z</time>
      </trkpt>
      <trkpt lat="47.89636" lon="6.83856">
        <ele>989.9</ele>
        <time>2022-09-13T14:06:29Z</time>
      </trkpt>
      <trkpt lat="47.89636" lon="6.83855">
        <ele>990</ele>
        <time>2022-09-13T14:06:30Z</time>
      </trkpt>
      <trkpt lat="47.89637" lon="6.83853">
        <ele>990.5</ele>
        <time>2022-09-13T14:06:31Z</time>
      </trkpt>
      <trkpt lat="47.89637" lon="6.83852">
        <ele>990.5</ele>
        <time>2022-09-13T14:06:32Z</time>
      </trkpt>
      <trkpt lat="47.89637" lon="6.83851">
        <ele>990.5</ele>
        <time>2022-09-13T14:06:33Z</time>
      </trkpt>
      <trkpt lat="47.89637" lon="6.8385">
        <ele>990.6</ele>
        <time>2022-09-13T14:06:34Z</time>
      </trkpt>
      <trkpt lat="47.89637" lon="6.83849">
        <ele>990.6</ele>
        <time>2022-09-13T14:06:36Z</time>
      </trkpt>
      <trkpt lat="47.89637" lon="6.83848">
        <ele>990.7</ele>
        <time>2022-09-13T14:06:37Z</time>
      </trkpt>
      <trkpt lat="47.89637" lon="6.83846">
        <ele>990.7</ele>
        <time>2022-09-13T14:06:38Z</time>
      </trkpt>
      <trkpt lat="47.89637" lon="6.83845">
        <ele>990.8</ele>
        <time>2022-09-13T14:06:39Z</time>
      </trkpt>
      <trkpt lat="47.89637" lon="6.83844">
        <ele>990.8</ele>
        <time>2022-09-13T14:06:40Z</time>
      </trkpt>
      <trkpt lat="47.89637" lon="6.83843">
        <ele>990.8</ele>
        <time>2022-09-13T14:06:41Z</time>
      </trkpt>
      <trkpt lat="47.89637" lon="6.83842">
        <ele>990.9</ele>
        <time>2022-09-13T14:06:42Z</time>
      </trkpt>
      <trkpt lat="47.89637" lon="6.83841">
        <ele>990.9</ele>
        <time>2022-09-13T14:06:43Z</time>
      </trkpt>
      <trkpt lat="47.89638" lon="6.8384">
        <ele>991.4</ele>
        <time>2022-09-13T14:06:44Z</time>
      </trkpt>
      <trkpt lat="47.89638" lon="6.83839">
        <ele>991.4</ele>
        <time>2022-09-13T14:06:45Z</time>
      </trkpt>
      <trkpt lat="47.89638" lon="6.83837">
        <ele>991.5</ele>
        <time>2022-09-13T14:06:46Z</time>
      </trkpt>
      <trkpt lat="47.89638" lon="6.83836">
        <ele>991.5</ele>
        <time>2022-09-13T14:06:47Z</time>
      </trkpt>
      <trkpt lat="47.89638" lon="6.83835">
        <ele>991.6</ele>
        <time>2022-09-13T14:06:48Z</time>
      </trkpt>
      <trkpt lat="47.89638" lon="6.83834">
        <ele>991.6</ele>
        <time>2022-09-13T14:06:49Z</time>
      </trkpt>
      <trkpt lat="47.89638" lon="6.83833">
        <ele>991.6</ele>
        <time>2022-09-13T14:06:50Z</time>
      </trkpt>
      <trkpt lat="47.89638" lon="6.83832">
        <ele>991.6</ele>
        <time>2022-09-13T14:06:51Z</time>
      </trkpt>
      <trkpt lat="47.89638" lon="6.83831">
        <ele>991.5</ele>
        <time>2022-09-13T14:06:52Z</time>
      </trkpt>
      <trkpt lat="47.89638" lon="6.8383">
        <ele>991.5</ele>
        <time>2022-09-13T14:06:53Z</time>
      </trkpt>
      <trkpt lat="47.89638" lon="6.83829">
        <ele>991.5</ele>
        <time>2022-09-13T14:06:54Z</time>
      </trkpt>
      <trkpt lat="47.89638" lon="6.83828">
        <ele>991.4</ele>
        <time>2022-09-13T14:06:55Z</time>
      </trkpt>
      <trkpt lat="47.89638" lon="6.83827">
        <ele>991.4</ele>
        <time>2022-09-13T14:06:56Z</time>
      </trkpt>
      <trkpt lat="47.89638" lon="6.83826">
        <ele>991.4</ele>
        <time>2022-09-13T14:06:57Z</time>
      </trkpt>
      <trkpt lat="47.89639" lon="6.83824">
        <ele>991.7</ele>
        <time>2022-09-13T14:06:58Z</time>
      </trkpt>
      <trkpt lat="47.89639" lon="6.83823">
        <ele>991.7</ele>
        <time>2022-09-13T14:06:59Z</time>
      </trkpt>
      <trkpt lat="47.89639" lon="6.83822">
        <ele>991.6</ele>
        <time>2022-09-13T14:07:00Z</time>
      </trkpt>
      <trkpt lat="47.89639" lon="6.83821">
        <ele>991.6</ele>
        <time>2022-09-13T14:07:01Z</time>
      </trkpt>
      <trkpt lat="47.89639" lon="6.8382">
        <ele>991.6</ele>
        <time>2022-09-13T14:07:02Z</time>
      </trkpt>
      <trkpt lat="47.89639" lon="6.83819">
        <ele>991.5</ele>
        <time>2022-09-13T14:07:03Z</time>
      </trkpt>
      <trkpt lat="47.89639" lon="6.83818">
        <ele>991.5</ele>
        <time>2022-09-13T14:07:04Z</time>
      </trkpt>
      <trkpt lat="47.89639" lon="6.83817">
        <ele>991.5</ele>
        <time>2022-09-13T14:07:05Z</time>
      </trkpt>
      <trkpt lat="47.8964" lon="6.83817">
        <ele>991.9</ele>
        <time>2022-09-13T14:07:06Z</time>
      </trkpt>
      <trkpt lat="47.8964" lon="6.83816">
        <ele>991.9</ele>
        <time>2022-09-13T14:07:07Z</time>
      </trkpt>
      <trkpt lat="47.89641" lon="6.83816">
        <ele>992.3</ele>
        <time>2022-09-13T14:07:09Z</time>
      </trkpt>
      <trkpt lat="47.89641" lon="6.83815">
        <ele>992.3</ele>
        <time>2022-09-13T14:07:10Z</time>
      </trkpt>
      <trkpt lat="47.89642" lon="6.83815">
        <ele>992.8</ele>
        <time>2022-09-13T14:07:11Z</time>
      </trkpt>
      <trkpt lat="47.89643" lon="6.83814">
        <ele>993.2</ele>
        <time>2022-09-13T14:07:12Z</time>
      </trkpt>
      <trkpt lat="47.89644" lon="6.83813">
        <ele>993.6</ele>
        <time>2022-09-13T14:07:25Z</time>
      </trkpt>
      <trkpt lat="47.89644" lon="6.83812">
        <ele>993.5</ele>
        <time>2022-09-13T14:07:27Z</time>
      </trkpt>
      <trkpt lat="47.89645" lon="6.83811">
        <ele>993.9</ele>
        <time>2022-09-13T14:07:28Z</time>
      </trkpt>
      <trkpt lat="47.89645" lon="6.8381">
        <ele>993.9</ele>
        <time>2022-09-13T14:07:29Z</time>
      </trkpt>
      <trkpt lat="47.89645" lon="6.83809">
        <ele>993.8</ele>
        <time>2022-09-13T14:07:31Z</time>
      </trkpt>
      <trkpt lat="47.89645" lon="6.83808">
        <ele>993.8</ele>
        <time>2022-09-13T14:07:33Z</time>
      </trkpt>
      <trkpt lat="47.89646" lon="6.83807">
        <ele>994.2</ele>
        <time>2022-09-13T14:07:34Z</time>
      </trkpt>
      <trkpt lat="47.89646" lon="6.83806">
        <ele>994.1</ele>
        <time>2022-09-13T14:07:35Z</time>
      </trkpt>
      <trkpt lat="47.89646" lon="6.83805">
        <ele>994</ele>
        <time>2022-09-13T14:07:36Z</time>
      </trkpt>
      <trkpt lat="47.89646" lon="6.83804">
        <ele>993.8</ele>
        <time>2022-09-13T14:07:37Z</time>
      </trkpt>
      <trkpt lat="47.89646" lon="6.83803">
        <ele>993.6</ele>
        <time>2022-09-13T14:07:38Z</time>
      </trkpt>
      <trkpt lat="47.89646" lon="6.83802">
        <ele>993.4</ele>
        <time>2022-09-13T14:07:39Z</time>
      </trkpt>
      <trkpt lat="47.89647" lon="6.838">
        <ele>993.5</ele>
        <time>2022-09-13T14:07:40Z</time>
      </trkpt>
      <trkpt lat="47.89647" lon="6.83798">
        <ele>993.1</ele>
        <time>2022-09-13T14:07:41Z</time>
      </trkpt>
      <trkpt lat="47.89648" lon="6.83797">
        <ele>993.4</ele>
        <time>2022-09-13T14:07:42Z</time>
      </trkpt>
      <trkpt lat="47.89649" lon="6.83795">
        <ele>993.5</ele>
        <time>2022-09-13T14:07:43Z</time>
      </trkpt>
      <trkpt lat="47.8965" lon="6.83793">
        <ele>993.5</ele>
        <time>2022-09-13T14:07:44Z</time>
      </trkpt>
      <trkpt lat="47.89651" lon="6.8379">
        <ele>993.4</ele>
        <time>2022-09-13T14:07:45Z</time>
      </trkpt>
      <trkpt lat="47.89652" lon="6.83788">
        <ele>993.5</ele>
        <time>2022-09-13T14:07:46Z</time>
      </trkpt>
      <trkpt lat="47.89653" lon="6.83787">
        <ele>993.8</ele>
        <time>2022-09-13T14:07:47Z</time>
      </trkpt>
      <trkpt lat="47.89654" lon="6.83786">
        <ele>994</ele>
        <time>2022-09-13T14:07:48Z</time>
      </trkpt>
      <trkpt lat="47.89655" lon="6.83784">
        <ele>994.1</ele>
        <time>2022-09-13T14:07:49Z</time>
      </trkpt>
      <trkpt lat="47.89656" lon="6.83783">
        <ele>994.3</ele>
        <time>2022-09-13T14:07:50Z</time>
      </trkpt>
      <trkpt lat="47.89657" lon="6.83781">
        <ele>994.4</ele>
        <time>2022-09-13T14:07:51Z</time>
      </trkpt>
      <trkpt lat="47.89658" lon="6.8378">
        <ele>994.7</ele>
        <time>2022-09-13T14:07:52Z</time>
      </trkpt>
      <trkpt lat="47.8966" lon="6.83779">
        <ele>995.3</ele>
        <time>2022-09-13T14:07:53Z</time>
      </trkpt>
      <trkpt lat="47.89661" lon="6.83777">
        <ele>995.4</ele>
        <time>2022-09-13T14:07:54Z</time>
      </trkpt>
      <trkpt lat="47.89662" lon="6.83776">
        <ele>995.6</ele>
        <time>2022-09-13T14:07:55Z</time>
      </trkpt>
      <trkpt lat="47.89663" lon="6.83774">
        <ele>995.6</ele>
        <time>2022-09-13T14:07:56Z</time>
      </trkpt>
      <trkpt lat="47.89664" lon="6.83772">
        <ele>995.6</ele>
        <time>2022-09-13T14:07:57Z</time>
      </trkpt>
      <trkpt lat="47.89665" lon="6.83771">
        <ele>995.8</ele>
        <time>2022-09-13T14:07:58Z</time>
      </trkpt>
      <trkpt lat="47.89665" lon="6.83769">
        <ele>995.4</ele>
        <time>2022-09-13T14:07:59Z</time>
      </trkpt>
      <trkpt lat="47.89666" lon="6.83768">
        <ele>995.6</ele>
        <time>2022-09-13T14:08:00Z</time>
      </trkpt>
      <trkpt lat="47.89667" lon="6.83766">
        <ele>995.6</ele>
        <time>2022-09-13T14:08:01Z</time>
      </trkpt>
      <trkpt lat="47.89668" lon="6.83764">
        <ele>995.5</ele>
        <time>2022-09-13T14:08:02Z</time>
      </trkpt>
      <trkpt lat="47.89669" lon="6.83762">
        <ele>995.5</ele>
        <time>2022-09-13T14:08:03Z</time>
      </trkpt>
      <trkpt lat="47.8967" lon="6.83761">
        <ele>995.6</ele>
        <time>2022-09-13T14:08:04Z</time>
      </trkpt>
      <trkpt lat="47.89671" lon="6.83759">
        <ele>995.6</ele>
        <time>2022-09-13T14:08:05Z</time>
      </trkpt>
      <trkpt lat="47.89672" lon="6.83757">
        <ele>995.5</ele>
        <time>2022-09-13T14:08:06Z</time>
      </trkpt>
      <trkpt lat="47.89673" lon="6.83756">
        <ele>995.6</ele>
        <time>2022-09-13T14:08:07Z</time>
      </trkpt>
      <trkpt lat="47.89674" lon="6.83754">
        <ele>995.5</ele>
        <time>2022-09-13T14:08:08Z</time>
      </trkpt>
      <trkpt lat="47.89675" lon="6.83752">
        <ele>995.5</ele>
        <time>2022-09-13T14:08:09Z</time>
      </trkpt>
      <trkpt lat="47.89676" lon="6.8375">
        <ele>995.4</ele>
        <time>2022-09-13T14:08:10Z</time>
      </trkpt>
      <trkpt lat="47.89678" lon="6.83748">
        <ele>995.6</ele>
        <time>2022-09-13T14:08:11Z</time>
      </trkpt>
      <trkpt lat="47.89679" lon="6.83747">
        <ele>995.7</ele>
        <time>2022-09-13T14:08:12Z</time>
      </trkpt>
      <trkpt lat="47.8968" lon="6.83746">
        <ele>995.9</ele>
        <time>2022-09-13T14:08:13Z</time>
      </trkpt>
      <trkpt lat="47.89682" lon="6.83744">
        <ele>996.1</ele>
        <time>2022-09-13T14:08:14Z</time>
      </trkpt>
      <trkpt lat="47.89683" lon="6.83743">
        <ele>996.2</ele>
        <time>2022-09-13T14:08:15Z</time>
      </trkpt>
      <trkpt lat="47.89685" lon="6.83742">
        <ele>996.7</ele>
        <time>2022-09-13T14:08:16Z</time>
      </trkpt>
      <trkpt lat="47.89687" lon="6.8374">
        <ele>996.9</ele>
        <time>2022-09-13T14:08:17Z</time>
      </trkpt>
      <trkpt lat="47.89688" lon="6.83739">
        <ele>997</ele>
        <time>2022-09-13T14:08:18Z</time>
      </trkpt>
      <trkpt lat="47.8969" lon="6.83737">
        <ele>997.2</ele>
        <time>2022-09-13T14:08:19Z</time>
      </trkpt>
      <trkpt lat="47.89692" lon="6.83736">
        <ele>997.6</ele>
        <time>2022-09-13T14:08:20Z</time>
      </trkpt>
      <trkpt lat="47.89694" lon="6.83734">
        <ele>997.8</ele>
        <time>2022-09-13T14:08:21Z</time>
      </trkpt>
      <trkpt lat="47.89695" lon="6.83734">
        <ele>998.1</ele>
        <time>2022-09-13T14:08:22Z</time>
      </trkpt>
      <trkpt lat="47.89696" lon="6.83733">
        <ele>998.2</ele>
        <time>2022-09-13T14:08:23Z</time>
      </trkpt>
      <trkpt lat="47.89697" lon="6.83732">
        <ele>998.3</ele>
        <time>2022-09-13T14:08:24Z</time>
      </trkpt>
      <trkpt lat="47.89698" lon="6.8373">
        <ele>998.1</ele>
        <time>2022-09-13T14:08:25Z</time>
      </trkpt>
      <trkpt lat="47.89699" lon="6.83729">
        <ele>998.1</ele>
        <time>2022-09-13T14:08:26Z</time>
      </trkpt>
      <trkpt lat="47.897" lon="6.83727">
        <ele>997.9</ele>
        <time>2022-09-13T14:08:27Z</time>
      </trkpt>
      <trkpt lat="47.89702" lon="6.83725">
        <ele>997.9</ele>
        <time>2022-09-13T14:08:28Z</time>
      </trkpt>
      <trkpt lat="47.89703" lon="6.83723">
        <ele>997.7</ele>
        <time>2022-09-13T14:08:29Z</time>
      </trkpt>
      <trkpt lat="47.89704" lon="6.83722">
        <ele>997.7</ele>
        <time>2022-09-13T14:08:30Z</time>
      </trkpt>
      <trkpt lat="47.89705" lon="6.8372">
        <ele>997.2</ele>
        <time>2022-09-13T14:08:31Z</time>
      </trkpt>
      <trkpt lat="47.89707" lon="6.83719">
        <ele>997.5</ele>
        <time>2022-09-13T14:08:32Z</time>
      </trkpt>
      <trkpt lat="47.89708" lon="6.83717">
        <ele>997</ele>
        <time>2022-09-13T14:08:33Z</time>
      </trkpt>
      <trkpt lat="47.8971" lon="6.83716">
        <ele>997.2</ele>
        <time>2022-09-13T14:08:34Z</time>
      </trkpt>
      <trkpt lat="47.89712" lon="6.83715">
        <ele>997.5</ele>
        <time>2022-09-13T14:08:35Z</time>
      </trkpt>
      <trkpt lat="47.89713" lon="6.83714">
        <ele>997.4</ele>
        <time>2022-09-13T14:08:36Z</time>
      </trkpt>
      <trkpt lat="47.89715" lon="6.83713">
        <ele>997.6</ele>
        <time>2022-09-13T14:08:37Z</time>
      </trkpt>
      <trkpt lat="47.89716" lon="6.83713">
        <ele>997.9</ele>
        <time>2022-09-13T14:08:38Z</time>
      </trkpt>
      <trkpt lat="47.89719" lon="6.83712">
        <ele>998.4</ele>
        <time>2022-09-13T14:08:39Z</time>
      </trkpt>
      <trkpt lat="47.89721" lon="6.83712">
        <ele>999</ele>
        <time>2022-09-13T14:08:40Z</time>
      </trkpt>
      <trkpt lat="47.89723" lon="6.83712">
        <ele>999.5</ele>
        <time>2022-09-13T14:08:41Z</time>
      </trkpt>
      <trkpt lat="47.89725" lon="6.83711">
        <ele>999.5</ele>
        <time>2022-09-13T14:08:42Z</time>
      </trkpt>
      <trkpt lat="47.89726" lon="6.83711">
        <ele>999.7</ele>
        <time>2022-09-13T14:08:43Z</time>
      </trkpt>
      <trkpt lat="47.89728" lon="6.83711">
        <ele>1000.2</ele>
        <time>2022-09-13T14:08:44Z</time>
      </trkpt>
      <trkpt lat="47.8973" lon="6.8371">
        <ele>1000.2</ele>
        <time>2022-09-13T14:08:45Z</time>
      </trkpt>
      <trkpt lat="47.89732" lon="6.8371">
        <ele>1000.7</ele>
        <time>2022-09-13T14:08:46Z</time>
      </trkpt>
      <trkpt lat="47.89734" lon="6.8371">
        <ele>1001.1</ele>
        <time>2022-09-13T14:08:47Z</time>
      </trkpt>
      <trkpt lat="47.89736" lon="6.8371">
        <ele>1001.5</ele>
        <time>2022-09-13T14:08:48Z</time>
      </trkpt>
      <trkpt lat="47.89738" lon="6.83709">
        <ele>1001.6</ele>
        <time>2022-09-13T14:08:49Z</time>
      </trkpt>
      <trkpt lat="47.8974" lon="6.83709">
        <ele>1002</ele>
        <time>2022-09-13T14:08:50Z</time>
      </trkpt>
      <trkpt lat="47.89742" lon="6.83709">
        <ele>1002.5</ele>
        <time>2022-09-13T14:08:51Z</time>
      </trkpt>
      <trkpt lat="47.89744" lon="6.83709">
        <ele>1002.9</ele>
        <time>2022-09-13T14:08:52Z</time>
      </trkpt>
      <trkpt lat="47.89746" lon="6.83709">
        <ele>1003.3</ele>
        <time>2022-09-13T14:08:53Z</time>
      </trkpt>
      <trkpt lat="47.89748" lon="6.83709">
        <ele>1003.8</ele>
        <time>2022-09-13T14:08:54Z</time>
      </trkpt>
      <trkpt lat="47.8975" lon="6.83708">
        <ele>1003.9</ele>
        <time>2022-09-13T14:08:55Z</time>
      </trkpt>
      <trkpt lat="47.89752" lon="6.83708">
        <ele>1004.4</ele>
        <time>2022-09-13T14:08:56Z</time>
      </trkpt>
      <trkpt lat="47.89754" lon="6.83708">
        <ele>1004.9</ele>
        <time>2022-09-13T14:08:57Z</time>
      </trkpt>
      <trkpt lat="47.89756" lon="6.83707">
        <ele>1005.1</ele>
        <time>2022-09-13T14:08:58Z</time>
      </trkpt>
      <trkpt lat="47.89757" lon="6.83707">
        <ele>1005.4</ele>
        <time>2022-09-13T14:08:59Z</time>
      </trkpt>
      <trkpt lat="47.89759" lon="6.83707">
        <ele>1005.9</ele>
        <time>2022-09-13T14:09:00Z</time>
      </trkpt>
      <trkpt lat="47.8976" lon="6.83706">
        <ele>1005.8</ele>
        <time>2022-09-13T14:09:01Z</time>
      </trkpt>
      <trkpt lat="47.89762" lon="6.83706">
        <ele>1006.4</ele>
        <time>2022-09-13T14:09:02Z</time>
      </trkpt>
      <trkpt lat="47.89764" lon="6.83705">
        <ele>1006.6</ele>
        <time>2022-09-13T14:09:03Z</time>
      </trkpt>
      <trkpt lat="47.89765" lon="6.83705">
        <ele>1006.8</ele>
        <time>2022-09-13T14:09:04Z</time>
      </trkpt>
      <trkpt lat="47.89767" lon="6.83704">
        <ele>1007</ele>
        <time>2022-09-13T14:09:05Z</time>
      </trkpt>
      <trkpt lat="47.89768" lon="6.83704">
        <ele>1007.3</ele>
        <time>2022-09-13T14:09:06Z</time>
      </trkpt>
      <trkpt lat="47.89771" lon="6.83703">
        <ele>1007.8</ele>
        <time>2022-09-13T14:09:07Z</time>
      </trkpt>
      <trkpt lat="47.89772" lon="6.83702">
        <ele>1007.7</ele>
        <time>2022-09-13T14:09:08Z</time>
      </trkpt>
      <trkpt lat="47.89773" lon="6.83702">
        <ele>1008</ele>
        <time>2022-09-13T14:09:09Z</time>
      </trkpt>
      <trkpt lat="47.89775" lon="6.83701">
        <ele>1008.2</ele>
        <time>2022-09-13T14:09:10Z</time>
      </trkpt>
      <trkpt lat="47.89776" lon="6.837">
        <ele>1008.2</ele>
        <time>2022-09-13T14:09:11Z</time>
      </trkpt>
      <trkpt lat="47.89778" lon="6.837">
        <ele>1008.7</ele>
        <time>2022-09-13T14:09:12Z</time>
      </trkpt>
      <trkpt lat="47.89779" lon="6.83699">
        <ele>1008.6</ele>
        <time>2022-09-13T14:09:13Z</time>
      </trkpt>
      <trkpt lat="47.89781" lon="6.83699">
        <ele>1009.1</ele>
        <time>2022-09-13T14:09:14Z</time>
      </trkpt>
      <trkpt lat="47.89783" lon="6.83698">
        <ele>1009.3</ele>
        <time>2022-09-13T14:09:15Z</time>
      </trkpt>
      <trkpt lat="47.89785" lon="6.83697">
        <ele>1009.6</ele>
        <time>2022-09-13T14:09:16Z</time>
      </trkpt>
      <trkpt lat="47.89787" lon="6.83697">
        <ele>1010.1</ele>
        <time>2022-09-13T14:09:17Z</time>
      </trkpt>
      <trkpt lat="47.89788" lon="6.83696">
        <ele>1010</ele>
        <time>2022-09-13T14:09:18Z</time>
      </trkpt>
      <trkpt lat="47.89789" lon="6.83695">
        <ele>1010</ele>
        <time>2022-09-13T14:09:19Z</time>
      </trkpt>
      <trkpt lat="47.89792" lon="6.83694">
        <ele>1010.5</ele>
        <time>2022-09-13T14:09:20Z</time>
      </trkpt>
      <trkpt lat="47.89794" lon="6.83693">
        <ele>1010.7</ele>
        <time>2022-09-13T14:09:21Z</time>
      </trkpt>
      <trkpt lat="47.89795" lon="6.83692">
        <ele>1010.7</ele>
        <time>2022-09-13T14:09:22Z</time>
      </trkpt>
      <trkpt lat="47.89796" lon="6.83691">
        <ele>1010.6</ele>
        <time>2022-09-13T14:09:23Z</time>
      </trkpt>
      <trkpt lat="47.89798" lon="6.8369">
        <ele>1010.9</ele>
        <time>2022-09-13T14:09:24Z</time>
      </trkpt>
      <trkpt lat="47.898" lon="6.83689">
        <ele>1011.1</ele>
        <time>2022-09-13T14:09:25Z</time>
      </trkpt>
      <trkpt lat="47.89802" lon="6.83688">
        <ele>1011.4</ele>
        <time>2022-09-13T14:09:26Z</time>
      </trkpt>
      <trkpt lat="47.89804" lon="6.83687">
        <ele>1011.7</ele>
        <time>2022-09-13T14:09:27Z</time>
      </trkpt>
      <trkpt lat="47.89806" lon="6.83686">
        <ele>1011.9</ele>
        <time>2022-09-13T14:09:28Z</time>
      </trkpt>
      <trkpt lat="47.89807" lon="6.83684">
        <ele>1011.6</ele>
        <time>2022-09-13T14:09:29Z</time>
      </trkpt>
      <trkpt lat="47.89809" lon="6.83683">
        <ele>1011.7</ele>
        <time>2022-09-13T14:09:30Z</time>
      </trkpt>
      <trkpt lat="47.8981" lon="6.83683">
        <ele>1011.8</ele>
        <time>2022-09-13T14:09:31Z</time>
      </trkpt>
      <trkpt lat="47.89812" lon="6.83682">
        <ele>1011.9</ele>
        <time>2022-09-13T14:09:32Z</time>
      </trkpt>
      <trkpt lat="47.89814" lon="6.83682">
        <ele>1012.2</ele>
        <time>2022-09-13T14:09:33Z</time>
      </trkpt>
      <trkpt lat="47.89815" lon="6.83681">
        <ele>1012.1</ele>
        <time>2022-09-13T14:09:34Z</time>
      </trkpt>
      <trkpt lat="47.89817" lon="6.83681">
        <ele>1012.5</ele>
        <time>2022-09-13T14:09:35Z</time>
      </trkpt>
      <trkpt lat="47.89819" lon="6.83681">
        <ele>1012.8</ele>
        <time>2022-09-13T14:09:36Z</time>
      </trkpt>
      <trkpt lat="47.8982" lon="6.83681">
        <ele>1012.9</ele>
        <time>2022-09-13T14:09:37Z</time>
      </trkpt>
      <trkpt lat="47.89823" lon="6.83682">
        <ele>1013.7</ele>
        <time>2022-09-13T14:09:38Z</time>
      </trkpt>
      <trkpt lat="47.89825" lon="6.83682">
        <ele>1014</ele>
        <time>2022-09-13T14:09:39Z</time>
      </trkpt>
      <trkpt lat="47.89827" lon="6.83683">
        <ele>1014.5</ele>
        <time>2022-09-13T14:09:40Z</time>
      </trkpt>
      <trkpt lat="47.89829" lon="6.83683">
        <ele>1014.8</ele>
        <time>2022-09-13T14:09:41Z</time>
      </trkpt>
      <trkpt lat="47.89831" lon="6.83684">
        <ele>1015.4</ele>
        <time>2022-09-13T14:09:42Z</time>
      </trkpt>
      <trkpt lat="47.89833" lon="6.83685">
        <ele>1015.9</ele>
        <time>2022-09-13T14:09:43Z</time>
      </trkpt>
      <trkpt lat="47.89835" lon="6.83686">
        <ele>1016.5</ele>
        <time>2022-09-13T14:09:44Z</time>
      </trkpt>
      <trkpt lat="47.89837" lon="6.83687">
        <ele>1017.1</ele>
        <time>2022-09-13T14:09:45Z</time>
      </trkpt>
      <trkpt lat="47.89838" lon="6.83689">
        <ele>1017.7</ele>
        <time>2022-09-13T14:09:46Z</time>
      </trkpt>
      <trkpt lat="47.8984" lon="6.8369">
        <ele>1018.2</ele>
        <time>2022-09-13T14:09:47Z</time>
      </trkpt>
      <trkpt lat="47.89842" lon="6.83692">
        <ele>1018.9</ele>
        <time>2022-09-13T14:09:48Z</time>
      </trkpt>
      <trkpt lat="47.89844" lon="6.83694">
        <ele>1019.5</ele>
        <time>2022-09-13T14:09:49Z</time>
      </trkpt>
      <trkpt lat="47.89846" lon="6.83696">
        <ele>1020</ele>
        <time>2022-09-13T14:09:50Z</time>
      </trkpt>
      <trkpt lat="47.89847" lon="6.83698">
        <ele>1020.4</ele>
        <time>2022-09-13T14:09:51Z</time>
      </trkpt>
      <trkpt lat="47.89849" lon="6.837">
        <ele>1020.8</ele>
        <time>2022-09-13T14:09:52Z</time>
      </trkpt>
      <trkpt lat="47.89851" lon="6.83702">
        <ele>1021.1</ele>
        <time>2022-09-13T14:09:53Z</time>
      </trkpt>
      <trkpt lat="47.89852" lon="6.83704">
        <ele>1021.4</ele>
        <time>2022-09-13T14:09:54Z</time>
      </trkpt>
      <trkpt lat="47.89854" lon="6.83706">
        <ele>1021.6</ele>
        <time>2022-09-13T14:09:55Z</time>
      </trkpt>
      <trkpt lat="47.89856" lon="6.83708">
        <ele>1021.8</ele>
        <time>2022-09-13T14:09:56Z</time>
      </trkpt>
      <trkpt lat="47.89857" lon="6.8371">
        <ele>1021.9</ele>
        <time>2022-09-13T14:09:57Z</time>
      </trkpt>
      <trkpt lat="47.89859" lon="6.83712">
        <ele>1022</ele>
        <time>2022-09-13T14:09:58Z</time>
      </trkpt>
      <trkpt lat="47.8986" lon="6.83715">
        <ele>1022</ele>
        <time>2022-09-13T14:09:59Z</time>
      </trkpt>
      <trkpt lat="47.89861" lon="6.83717">
        <ele>1022</ele>
        <time>2022-09-13T14:10:00Z</time>
      </trkpt>
      <trkpt lat="47.89862" lon="6.8372">
        <ele>1021.8</ele>
        <time>2022-09-13T14:10:01Z</time>
      </trkpt>
      <trkpt lat="47.89863" lon="6.83723">
        <ele>1021.7</ele>
        <time>2022-09-13T14:10:02Z</time>
      </trkpt>
      <trkpt lat="47.89864" lon="6.83725">
        <ele>1021.6</ele>
        <time>2022-09-13T14:10:03Z</time>
      </trkpt>
      <trkpt lat="47.89865" lon="6.83728">
        <ele>1021.6</ele>
        <time>2022-09-13T14:10:04Z</time>
      </trkpt>
      <trkpt lat="47.89866" lon="6.83731">
        <ele>1021.6</ele>
        <time>2022-09-13T14:10:05Z</time>
      </trkpt>
      <trkpt lat="47.89866" lon="6.83734">
        <ele>1021.7</ele>
        <time>2022-09-13T14:10:06Z</time>
      </trkpt>
      <trkpt lat="47.89867" lon="6.83737">
        <ele>1021.7</ele>
        <time>2022-09-13T14:10:07Z</time>
      </trkpt>
      <trkpt lat="47.89868" lon="6.8374">
        <ele>1021.6</ele>
        <time>2022-09-13T14:10:08Z</time>
      </trkpt>
      <trkpt lat="47.89868" lon="6.83743">
        <ele>1021.7</ele>
        <time>2022-09-13T14:10:09Z</time>
      </trkpt>
      <trkpt lat="47.89868" lon="6.83747">
        <ele>1021.9</ele>
        <time>2022-09-13T14:10:10Z</time>
      </trkpt>
      <trkpt lat="47.89869" lon="6.8375">
        <ele>1021.7</ele>
        <time>2022-09-13T14:10:11Z</time>
      </trkpt>
      <trkpt lat="47.89869" lon="6.83753">
        <ele>1021.7</ele>
        <time>2022-09-13T14:10:12Z</time>
      </trkpt>
      <trkpt lat="47.89869" lon="6.83757">
        <ele>1021.8</ele>
        <time>2022-09-13T14:10:13Z</time>
      </trkpt>
      <trkpt lat="47.89869" lon="6.8376">
        <ele>1021.8</ele>
        <time>2022-09-13T14:10:14Z</time>
      </trkpt>
      <trkpt lat="47.89869" lon="6.83764">
        <ele>1021.8</ele>
        <time>2022-09-13T14:10:15Z</time>
      </trkpt>
      <trkpt lat="47.89869" lon="6.83767">
        <ele>1021.8</ele>
        <time>2022-09-13T14:10:16Z</time>
      </trkpt>
      <trkpt lat="47.8987" lon="6.8377">
        <ele>1021.5</ele>
        <time>2022-09-13T14:10:17Z</time>
      </trkpt>
      <trkpt lat="47.8987" lon="6.83774">
        <ele>1021.5</ele>
        <time>2022-09-13T14:10:18Z</time>
      </trkpt>
      <trkpt lat="47.89869" lon="6.83777">
        <ele>1021.9</ele>
        <time>2022-09-13T14:10:19Z</time>
      </trkpt>
      <trkpt lat="47.89869" lon="6.8378">
        <ele>1021.9</ele>
        <time>2022-09-13T14:10:20Z</time>
      </trkpt>
      <trkpt lat="47.89869" lon="6.83783">
        <ele>1022</ele>
        <time>2022-09-13T14:10:21Z</time>
      </trkpt>
      <trkpt lat="47.89869" lon="6.83787">
        <ele>1022</ele>
        <time>2022-09-13T14:10:22Z</time>
      </trkpt>
      <trkpt lat="47.89869" lon="6.8379">
        <ele>1022.1</ele>
        <time>2022-09-13T14:10:23Z</time>
      </trkpt>
      <trkpt lat="47.89868" lon="6.83793">
        <ele>1022.5</ele>
        <time>2022-09-13T14:10:24Z</time>
      </trkpt>
      <trkpt lat="47.89868" lon="6.83797">
        <ele>1022.6</ele>
        <time>2022-09-13T14:10:25Z</time>
      </trkpt>
      <trkpt lat="47.89868" lon="6.838">
        <ele>1022.7</ele>
        <time>2022-09-13T14:10:26Z</time>
      </trkpt>
      <trkpt lat="47.89868" lon="6.83804">
        <ele>1022.7</ele>
        <time>2022-09-13T14:10:27Z</time>
      </trkpt>
      <trkpt lat="47.89868" lon="6.83807">
        <ele>1022.8</ele>
        <time>2022-09-13T14:10:28Z</time>
      </trkpt>
      <trkpt lat="47.89869" lon="6.83811">
        <ele>1022.3</ele>
        <time>2022-09-13T14:10:29Z</time>
      </trkpt>
      <trkpt lat="47.89869" lon="6.83814">
        <ele>1022.2</ele>
        <time>2022-09-13T14:10:30Z</time>
      </trkpt>
      <trkpt lat="47.89868" lon="6.83818">
        <ele>1022.7</ele>
        <time>2022-09-13T14:10:31Z</time>
      </trkpt>
      <trkpt lat="47.89868" lon="6.83821">
        <ele>1022.6</ele>
        <time>2022-09-13T14:10:32Z</time>
      </trkpt>
      <trkpt lat="47.89868" lon="6.83825">
        <ele>1022.6</ele>
        <time>2022-09-13T14:10:33Z</time>
      </trkpt>
      <trkpt lat="47.89868" lon="6.83829">
        <ele>1022.6</ele>
        <time>2022-09-13T14:10:34Z</time>
      </trkpt>
      <trkpt lat="47.89868" lon="6.83833">
        <ele>1022.5</ele>
        <time>2022-09-13T14:10:35Z</time>
      </trkpt>
      <trkpt lat="47.89867" lon="6.83836">
        <ele>1022.9</ele>
        <time>2022-09-13T14:10:36Z</time>
      </trkpt>
      <trkpt lat="47.89867" lon="6.8384">
        <ele>1022.7</ele>
        <time>2022-09-13T14:10:37Z</time>
      </trkpt>
      <trkpt lat="47.89867" lon="6.83844">
        <ele>1022.6</ele>
        <time>2022-09-13T14:10:38Z</time>
      </trkpt>
      <trkpt lat="47.89868" lon="6.8385">
        <ele>1021.8</ele>
        <time>2022-09-13T14:10:39Z</time>
      </trkpt>
      <trkpt lat="47.89868" lon="6.83855">
        <ele>1021.6</ele>
        <time>2022-09-13T14:10:40Z</time>
      </trkpt>
      <trkpt lat="47.89869" lon="6.83859">
        <ele>1020.8</ele>
        <time>2022-09-13T14:10:41Z</time>
      </trkpt>
      <trkpt lat="47.89869" lon="6.83861">
        <ele>1020.7</ele>
        <time>2022-09-13T14:10:42Z</time>
      </trkpt>
      <trkpt lat="47.89869" lon="6.83864">
        <ele>1020.8</ele>
        <time>2022-09-13T14:10:43Z</time>
      </trkpt>
      <trkpt lat="47.89869" lon="6.83867">
        <ele>1020.8</ele>
        <time>2022-09-13T14:10:44Z</time>
      </trkpt>
      <trkpt lat="47.89869" lon="6.83871">
        <ele>1020.8</ele>
        <time>2022-09-13T14:10:45Z</time>
      </trkpt>
      <trkpt lat="47.89869" lon="6.83874">
        <ele>1020.9</ele>
        <time>2022-09-13T14:10:46Z</time>
      </trkpt>
      <trkpt lat="47.89869" lon="6.83878">
        <ele>1020.9</ele>
        <time>2022-09-13T14:10:47Z</time>
      </trkpt>
      <trkpt lat="47.89869" lon="6.83881">
        <ele>1020.9</ele>
        <time>2022-09-13T14:10:48Z</time>
      </trkpt>
      <trkpt lat="47.89869" lon="6.83885">
        <ele>1021</ele>
        <time>2022-09-13T14:10:49Z</time>
      </trkpt>
      <trkpt lat="47.8987" lon="6.83889">
        <ele>1020.5</ele>
        <time>2022-09-13T14:10:50Z</time>
      </trkpt>
      <trkpt lat="47.89871" lon="6.83896">
        <ele>1020.4</ele>
        <time>2022-09-13T14:10:51Z</time>
      </trkpt>
      <trkpt lat="47.89872" lon="6.83901">
        <ele>1020.1</ele>
        <time>2022-09-13T14:10:52Z</time>
      </trkpt>
      <trkpt lat="47.89873" lon="6.83905">
        <ele>1019.8</ele>
        <time>2022-09-13T14:10:53Z</time>
      </trkpt>
      <trkpt lat="47.89874" lon="6.8391">
        <ele>1019.6</ele>
        <time>2022-09-13T14:10:54Z</time>
      </trkpt>
      <trkpt lat="47.89876" lon="6.83916">
        <ele>1019</ele>
        <time>2022-09-13T14:10:55Z</time>
      </trkpt>
      <trkpt lat="47.89877" lon="6.83921">
        <ele>1018.7</ele>
        <time>2022-09-13T14:10:56Z</time>
      </trkpt>
      <trkpt lat="47.89879" lon="6.83927">
        <ele>1018</ele>
        <time>2022-09-13T14:10:57Z</time>
      </trkpt>
      <trkpt lat="47.89881" lon="6.83933">
        <ele>1017.3</ele>
        <time>2022-09-13T14:10:58Z</time>
      </trkpt>
      <trkpt lat="47.89882" lon="6.83939">
        <ele>1017</ele>
        <time>2022-09-13T14:10:59Z</time>
      </trkpt>
      <trkpt lat="47.89883" lon="6.83945">
        <ele>1016.8</ele>
        <time>2022-09-13T14:11:00Z</time>
      </trkpt>
      <trkpt lat="47.89884" lon="6.83951">
        <ele>1016.7</ele>
        <time>2022-09-13T14:11:01Z</time>
      </trkpt>
      <trkpt lat="47.89885" lon="6.83957">
        <ele>1016.7</ele>
        <time>2022-09-13T14:11:02Z</time>
      </trkpt>
      <trkpt lat="47.89886" lon="6.83964">
        <ele>1016.7</ele>
        <time>2022-09-13T14:11:03Z</time>
      </trkpt>
      <trkpt lat="47.89886" lon="6.8397">
        <ele>1017.1</ele>
        <time>2022-09-13T14:11:04Z</time>
      </trkpt>
      <trkpt lat="47.89888" lon="6.83977">
        <ele>1016.6</ele>
        <time>2022-09-13T14:11:05Z</time>
      </trkpt>
      <trkpt lat="47.89889" lon="6.83984">
        <ele>1016.4</ele>
        <time>2022-09-13T14:11:06Z</time>
      </trkpt>
      <trkpt lat="47.89889" lon="6.83991">
        <ele>1016.6</ele>
        <time>2022-09-13T14:11:07Z</time>
      </trkpt>
      <trkpt lat="47.8989" lon="6.83997">
        <ele>1016.5</ele>
        <time>2022-09-13T14:11:08Z</time>
      </trkpt>
      <trkpt lat="47.89891" lon="6.84004">
        <ele>1016.5</ele>
        <time>2022-09-13T14:11:09Z</time>
      </trkpt>
      <trkpt lat="47.89892" lon="6.8401">
        <ele>1016.4</ele>
        <time>2022-09-13T14:11:10Z</time>
      </trkpt>
      <trkpt lat="47.89893" lon="6.84016">
        <ele>1016.3</ele>
        <time>2022-09-13T14:11:11Z</time>
      </trkpt>
      <trkpt lat="47.89894" lon="6.84023">
        <ele>1016.3</ele>
        <time>2022-09-13T14:11:12Z</time>
      </trkpt>
      <trkpt lat="47.89894" lon="6.84029">
        <ele>1016.6</ele>
        <time>2022-09-13T14:11:13Z</time>
      </trkpt>
      <trkpt lat="47.89895" lon="6.84036">
        <ele>1016.5</ele>
        <time>2022-09-13T14:11:14Z</time>
      </trkpt>
      <trkpt lat="47.89896" lon="6.84044">
        <ele>1016.5</ele>
        <time>2022-09-13T14:11:15Z</time>
      </trkpt>
      <trkpt lat="47.89897" lon="6.8405">
        <ele>1016.5</ele>
        <time>2022-09-13T14:11:16Z</time>
      </trkpt>
      <trkpt lat="47.89898" lon="6.84057">
        <ele>1016.4</ele>
        <time>2022-09-13T14:11:17Z</time>
      </trkpt>
      <trkpt lat="47.89898" lon="6.84063">
        <ele>1016.6</ele>
        <time>2022-09-13T14:11:18Z</time>
      </trkpt>
      <trkpt lat="47.89899" lon="6.8407">
        <ele>1016.6</ele>
        <time>2022-09-13T14:11:19Z</time>
      </trkpt>
      <trkpt lat="47.89899" lon="6.84077">
        <ele>1016.9</ele>
        <time>2022-09-13T14:11:20Z</time>
      </trkpt>
      <trkpt lat="47.89899" lon="6.84085">
        <ele>1017</ele>
        <time>2022-09-13T14:11:21Z</time>
      </trkpt>
      <trkpt lat="47.899" lon="6.84092">
        <ele>1016.6</ele>
        <time>2022-09-13T14:11:22Z</time>
      </trkpt>
      <trkpt lat="47.899" lon="6.84099">
        <ele>1016.5</ele>
        <time>2022-09-13T14:11:23Z</time>
      </trkpt>
      <trkpt lat="47.899" lon="6.84106">
        <ele>1016.3</ele>
        <time>2022-09-13T14:11:24Z</time>
      </trkpt>
      <trkpt lat="47.899" lon="6.84112">
        <ele>1016.2</ele>
        <time>2022-09-13T14:11:25Z</time>
      </trkpt>
      <trkpt lat="47.899" lon="6.84118">
        <ele>1016.4</ele>
        <time>2022-09-13T14:11:26Z</time>
      </trkpt>
      <trkpt lat="47.89901" lon="6.84124">
        <ele>1016.4</ele>
        <time>2022-09-13T14:11:27Z</time>
      </trkpt>
      <trkpt lat="47.89901" lon="6.84129">
        <ele>1016.6</ele>
        <time>2022-09-13T14:11:28Z</time>
      </trkpt>
      <trkpt lat="47.89901" lon="6.84135">
        <ele>1016.8</ele>
        <time>2022-09-13T14:11:29Z</time>
      </trkpt>
      <trkpt lat="47.89901" lon="6.8414">
        <ele>1017</ele>
        <time>2022-09-13T14:11:30Z</time>
      </trkpt>
      <trkpt lat="47.89901" lon="6.84145">
        <ele>1017.2</ele>
        <time>2022-09-13T14:11:31Z</time>
      </trkpt>
      <trkpt lat="47.89901" lon="6.8415">
        <ele>1017.3</ele>
        <time>2022-09-13T14:11:32Z</time>
      </trkpt>
      <trkpt lat="47.89901" lon="6.84154">
        <ele>1017.5</ele>
        <time>2022-09-13T14:11:33Z</time>
      </trkpt>
      <trkpt lat="47.89902" lon="6.84158">
        <ele>1017.4</ele>
        <time>2022-09-13T14:11:34Z</time>
      </trkpt>
      <trkpt lat="47.89902" lon="6.84162">
        <ele>1017.5</ele>
        <time>2022-09-13T14:11:35Z</time>
      </trkpt>
      <trkpt lat="47.89903" lon="6.84166">
        <ele>1017.4</ele>
        <time>2022-09-13T14:11:36Z</time>
      </trkpt>
      <trkpt lat="47.89904" lon="6.84168">
        <ele>1017.3</ele>
        <time>2022-09-13T14:11:37Z</time>
      </trkpt>
      <trkpt lat="47.89904" lon="6.84171">
        <ele>1017.5</ele>
        <time>2022-09-13T14:11:38Z</time>
      </trkpt>
      <trkpt lat="47.89905" lon="6.84174">
        <ele>1017.5</ele>
        <time>2022-09-13T14:11:39Z</time>
      </trkpt>
      <trkpt lat="47.89906" lon="6.84177">
        <ele>1017.5</ele>
        <time>2022-09-13T14:11:40Z</time>
      </trkpt>
      <trkpt lat="47.89907" lon="6.8418">
        <ele>1017.5</ele>
        <time>2022-09-13T14:11:41Z</time>
      </trkpt>
      <trkpt lat="47.89908" lon="6.84183">
        <ele>1017.6</ele>
        <time>2022-09-13T14:11:42Z</time>
      </trkpt>
      <trkpt lat="47.8991" lon="6.84185">
        <ele>1017.3</ele>
        <time>2022-09-13T14:11:43Z</time>
      </trkpt>
      <trkpt lat="47.8991" lon="6.84186">
        <ele>1017.4</ele>
        <time>2022-09-13T14:11:44Z</time>
      </trkpt>
      <trkpt lat="47.89912" lon="6.84188">
        <ele>1017.2</ele>
        <time>2022-09-13T14:11:45Z</time>
      </trkpt>
      <trkpt lat="47.89913" lon="6.84189">
        <ele>1017.1</ele>
        <time>2022-09-13T14:11:46Z</time>
      </trkpt>
      <trkpt lat="47.89915" lon="6.84192">
        <ele>1017</ele>
        <time>2022-09-13T14:11:47Z</time>
      </trkpt>
      <trkpt lat="47.89916" lon="6.84193">
        <ele>1017</ele>
        <time>2022-09-13T14:11:48Z</time>
      </trkpt>
      <trkpt lat="47.89916" lon="6.84194">
        <ele>1017.1</ele>
        <time>2022-09-13T14:11:49Z</time>
      </trkpt>
      <trkpt lat="47.89917" lon="6.84194">
        <ele>1017</ele>
        <time>2022-09-13T14:12:05Z</time>
      </trkpt>
      <trkpt lat="47.89918" lon="6.84195">
        <ele>1017</ele>
        <time>2022-09-13T14:12:06Z</time>
      </trkpt>
      <trkpt lat="47.89919" lon="6.84195">
        <ele>1017</ele>
        <time>2022-09-13T14:12:08Z</time>
      </trkpt>
      <trkpt lat="47.89921" lon="6.84195">
        <ele>1017</ele>
        <time>2022-09-13T14:12:09Z</time>
      </trkpt>
      <trkpt lat="47.89922" lon="6.84196">
        <ele>1017.1</ele>
        <time>2022-09-13T14:12:10Z</time>
      </trkpt>
      <trkpt lat="47.89923" lon="6.84195">
        <ele>1017</ele>
        <time>2022-09-13T14:12:11Z</time>
      </trkpt>
      <trkpt lat="47.89924" lon="6.84195">
        <ele>1017</ele>
        <time>2022-09-13T14:12:12Z</time>
      </trkpt>
      <trkpt lat="47.89926" lon="6.84195">
        <ele>1017</ele>
        <time>2022-09-13T14:12:13Z</time>
      </trkpt>
      <trkpt lat="47.89927" lon="6.84194">
        <ele>1017</ele>
        <time>2022-09-13T14:12:14Z</time>
      </trkpt>
      <trkpt lat="47.89928" lon="6.84194">
        <ele>1017</ele>
        <time>2022-09-13T14:12:15Z</time>
      </trkpt>
      <trkpt lat="47.89929" lon="6.84194">
        <ele>1017</ele>
        <time>2022-09-13T14:12:36Z</time>
      </trkpt>
      <trkpt lat="47.8993" lon="6.84194">
        <ele>1017</ele>
        <time>2022-09-13T14:12:38Z</time>
      </trkpt>
      <trkpt lat="47.89931" lon="6.84194">
        <ele>1017</ele>
        <time>2022-09-13T14:12:39Z</time>
      </trkpt>
      <trkpt lat="47.89933" lon="6.84194">
        <ele>1017</ele>
        <time>2022-09-13T14:12:40Z</time>
      </trkpt>
      <trkpt lat="47.89934" lon="6.84194">
        <ele>1017</ele>
        <time>2022-09-13T14:12:41Z</time>
      </trkpt>
      <trkpt lat="47.89937" lon="6.84193">
        <ele>1016.9</ele>
        <time>2022-09-13T14:12:42Z</time>
      </trkpt>
      <trkpt lat="47.89939" lon="6.84193">
        <ele>1016.9</ele>
        <time>2022-09-13T14:12:43Z</time>
      </trkpt>
      <trkpt lat="47.89941" lon="6.84192">
        <ele>1016.8</ele>
        <time>2022-09-13T14:12:44Z</time>
      </trkpt>
      <trkpt lat="47.89944" lon="6.84191">
        <ele>1016.8</ele>
        <time>2022-09-13T14:12:45Z</time>
      </trkpt>
      <trkpt lat="47.89946" lon="6.84189">
        <ele>1016.9</ele>
        <time>2022-09-13T14:12:46Z</time>
      </trkpt>
      <trkpt lat="47.89948" lon="6.84188">
        <ele>1017.2</ele>
        <time>2022-09-13T14:12:47Z</time>
      </trkpt>
      <trkpt lat="47.89952" lon="6.84184">
        <ele>1017.6</ele>
        <time>2022-09-13T14:12:48Z</time>
      </trkpt>
      <trkpt lat="47.89955" lon="6.84181">
        <ele>1017.8</ele>
        <time>2022-09-13T14:12:49Z</time>
      </trkpt>
      <trkpt lat="47.89957" lon="6.84178">
        <ele>1017.7</ele>
        <time>2022-09-13T14:12:50Z</time>
      </trkpt>
      <trkpt lat="47.89959" lon="6.84175">
        <ele>1017.6</ele>
        <time>2022-09-13T14:12:51Z</time>
      </trkpt>
      <trkpt lat="47.89961" lon="6.84172">
        <ele>1017.5</ele>
        <time>2022-09-13T14:12:52Z</time>
      </trkpt>
      <trkpt lat="47.89963" lon="6.84169">
        <ele>1017.3</ele>
        <time>2022-09-13T14:12:53Z</time>
      </trkpt>
      <trkpt lat="47.89965" lon="6.84165">
        <ele>1017</ele>
        <time>2022-09-13T14:12:54Z</time>
      </trkpt>
      <trkpt lat="47.89967" lon="6.84162">
        <ele>1016.9</ele>
        <time>2022-09-13T14:12:55Z</time>
      </trkpt>
      <trkpt lat="47.89969" lon="6.84158">
        <ele>1016.7</ele>
        <time>2022-09-13T14:12:56Z</time>
      </trkpt>
      <trkpt lat="47.89972" lon="6.84155">
        <ele>1016.7</ele>
        <time>2022-09-13T14:12:57Z</time>
      </trkpt>
      <trkpt lat="47.89974" lon="6.84151">
        <ele>1016.7</ele>
        <time>2022-09-13T14:12:58Z</time>
      </trkpt>
      <trkpt lat="47.89976" lon="6.84147">
        <ele>1016.6</ele>
        <time>2022-09-13T14:12:59Z</time>
      </trkpt>
      <trkpt lat="47.89979" lon="6.84143">
        <ele>1016.7</ele>
        <time>2022-09-13T14:13:00Z</time>
      </trkpt>
      <trkpt lat="47.89981" lon="6.8414">
        <ele>1016.7</ele>
        <time>2022-09-13T14:13:01Z</time>
      </trkpt>
      <trkpt lat="47.89983" lon="6.84136">
        <ele>1016.5</ele>
        <time>2022-09-13T14:13:02Z</time>
      </trkpt>
      <trkpt lat="47.89986" lon="6.84133">
        <ele>1016.6</ele>
        <time>2022-09-13T14:13:03Z</time>
      </trkpt>
      <trkpt lat="47.89988" lon="6.84129">
        <ele>1016.4</ele>
        <time>2022-09-13T14:13:04Z</time>
      </trkpt>
      <trkpt lat="47.89991" lon="6.84125">
        <ele>1016.4</ele>
        <time>2022-09-13T14:13:05Z</time>
      </trkpt>
      <trkpt lat="47.89993" lon="6.84122">
        <ele>1016.3</ele>
        <time>2022-09-13T14:13:06Z</time>
      </trkpt>
      <trkpt lat="47.89995" lon="6.84118">
        <ele>1016.1</ele>
        <time>2022-09-13T14:13:07Z</time>
      </trkpt>
      <trkpt lat="47.89998" lon="6.84115">
        <ele>1016.2</ele>
        <time>2022-09-13T14:13:08Z</time>
      </trkpt>
      <trkpt lat="47.9" lon="6.84112">
        <ele>1016.1</ele>
        <time>2022-09-13T14:13:09Z</time>
      </trkpt>
      <trkpt lat="47.90002" lon="6.84108">
        <ele>1016.4</ele>
        <time>2022-09-13T14:13:10Z</time>
      </trkpt>
      <trkpt lat="47.90004" lon="6.84105">
        <ele>1016.7</ele>
        <time>2022-09-13T14:13:11Z</time>
      </trkpt>
      <trkpt lat="47.90006" lon="6.84101">
        <ele>1017</ele>
        <time>2022-09-13T14:13:12Z</time>
      </trkpt>
      <trkpt lat="47.90008" lon="6.84097">
        <ele>1017.3</ele>
        <time>2022-09-13T14:13:13Z</time>
      </trkpt>
      <trkpt lat="47.9001" lon="6.84093">
        <ele>1017.6</ele>
        <time>2022-09-13T14:13:14Z</time>
      </trkpt>
      <trkpt lat="47.90012" lon="6.8409">
        <ele>1017.9</ele>
        <time>2022-09-13T14:13:15Z</time>
      </trkpt>
      <trkpt lat="47.90014" lon="6.84086">
        <ele>1018.2</ele>
        <time>2022-09-13T14:13:16Z</time>
      </trkpt>
      <trkpt lat="47.90016" lon="6.84082">
        <ele>1018.4</ele>
        <time>2022-09-13T14:13:17Z</time>
      </trkpt>
      <trkpt lat="47.90017" lon="6.84078">
        <ele>1018.2</ele>
        <time>2022-09-13T14:13:18Z</time>
      </trkpt>
      <trkpt lat="47.90019" lon="6.84074">
        <ele>1018.4</ele>
        <time>2022-09-13T14:13:19Z</time>
      </trkpt>
      <trkpt lat="47.90021" lon="6.84071">
        <ele>1018.6</ele>
        <time>2022-09-13T14:13:20Z</time>
      </trkpt>
      <trkpt lat="47.90023" lon="6.84066">
        <ele>1018.6</ele>
        <time>2022-09-13T14:13:21Z</time>
      </trkpt>
      <trkpt lat="47.90024" lon="6.84062">
        <ele>1018.5</ele>
        <time>2022-09-13T14:13:22Z</time>
      </trkpt>
      <trkpt lat="47.90026" lon="6.84058">
        <ele>1018.7</ele>
        <time>2022-09-13T14:13:23Z</time>
      </trkpt>
      <trkpt lat="47.90027" lon="6.84055">
        <ele>1018.7</ele>
        <time>2022-09-13T14:13:24Z</time>
      </trkpt>
      <trkpt lat="47.90029" lon="6.84052">
        <ele>1019.2</ele>
        <time>2022-09-13T14:13:25Z</time>
      </trkpt>
      <trkpt lat="47.9003" lon="6.8405">
        <ele>1019.4</ele>
        <time>2022-09-13T14:13:26Z</time>
      </trkpt>
      <trkpt lat="47.90031" lon="6.84047">
        <ele>1019.5</ele>
        <time>2022-09-13T14:13:27Z</time>
      </trkpt>
      <trkpt lat="47.90032" lon="6.84044">
        <ele>1019.6</ele>
        <time>2022-09-13T14:13:28Z</time>
      </trkpt>
      <trkpt lat="47.90033" lon="6.84041">
        <ele>1019.7</ele>
        <time>2022-09-13T14:13:29Z</time>
      </trkpt>
      <trkpt lat="47.90036" lon="6.84035">
        <ele>1020.3</ele>
        <time>2022-09-13T14:13:30Z</time>
      </trkpt>
      <trkpt lat="47.90037" lon="6.84033">
        <ele>1020.4</ele>
        <time>2022-09-13T14:13:31Z</time>
      </trkpt>
      <trkpt lat="47.90038" lon="6.84028">
        <ele>1020.3</ele>
        <time>2022-09-13T14:13:32Z</time>
      </trkpt>
      <trkpt lat="47.9004" lon="6.84024">
        <ele>1020.6</ele>
        <time>2022-09-13T14:13:33Z</time>
      </trkpt>
      <trkpt lat="47.90041" lon="6.8402">
        <ele>1020.4</ele>
        <time>2022-09-13T14:13:34Z</time>
      </trkpt>
      <trkpt lat="47.90042" lon="6.84018">
        <ele>1020.6</ele>
        <time>2022-09-13T14:13:35Z</time>
      </trkpt>
      <trkpt lat="47.90043" lon="6.84013">
        <ele>1020.3</ele>
        <time>2022-09-13T14:13:36Z</time>
      </trkpt>
      <trkpt lat="47.90044" lon="6.84011">
        <ele>1020.4</ele>
        <time>2022-09-13T14:13:37Z</time>
      </trkpt>
      <trkpt lat="47.90046" lon="6.84006">
        <ele>1020.6</ele>
        <time>2022-09-13T14:13:38Z</time>
      </trkpt>
      <trkpt lat="47.90047" lon="6.84004">
        <ele>1020.7</ele>
        <time>2022-09-13T14:13:39Z</time>
      </trkpt>
      <trkpt lat="47.90048" lon="6.84001">
        <ele>1020.7</ele>
        <time>2022-09-13T14:13:40Z</time>
      </trkpt>
      <trkpt lat="47.9005" lon="6.83996">
        <ele>1020.9</ele>
        <time>2022-09-13T14:13:41Z</time>
      </trkpt>
      <trkpt lat="47.90052" lon="6.83992">
        <ele>1021.2</ele>
        <time>2022-09-13T14:13:42Z</time>
      </trkpt>
      <trkpt lat="47.90053" lon="6.83988">
        <ele>1021.3</ele>
        <time>2022-09-13T14:13:43Z</time>
      </trkpt>
      <trkpt lat="47.90055" lon="6.83985">
        <ele>1021.7</ele>
        <time>2022-09-13T14:13:44Z</time>
      </trkpt>
      <trkpt lat="47.90057" lon="6.83981">
        <ele>1022</ele>
        <time>2022-09-13T14:13:45Z</time>
      </trkpt>
      <trkpt lat="47.90059" lon="6.83978">
        <ele>1022.3</ele>
        <time>2022-09-13T14:13:46Z</time>
      </trkpt>
      <trkpt lat="47.90061" lon="6.83975">
        <ele>1022.6</ele>
        <time>2022-09-13T14:13:47Z</time>
      </trkpt>
      <trkpt lat="47.90063" lon="6.83972">
        <ele>1022.8</ele>
        <time>2022-09-13T14:13:48Z</time>
      </trkpt>
      <trkpt lat="47.90065" lon="6.8397">
        <ele>1023</ele>
        <time>2022-09-13T14:13:49Z</time>
      </trkpt>
      <trkpt lat="47.90067" lon="6.83967">
        <ele>1022.9</ele>
        <time>2022-09-13T14:13:50Z</time>
      </trkpt>
      <trkpt lat="47.90068" lon="6.83966">
        <ele>1023</ele>
        <time>2022-09-13T14:13:51Z</time>
      </trkpt>
      <trkpt lat="47.90069" lon="6.83965">
        <ele>1023.1</ele>
        <time>2022-09-13T14:13:52Z</time>
      </trkpt>
      <trkpt lat="47.90071" lon="6.83963">
        <ele>1023.2</ele>
        <time>2022-09-13T14:13:53Z</time>
      </trkpt>
      <trkpt lat="47.90073" lon="6.83961">
        <ele>1023.4</ele>
        <time>2022-09-13T14:13:54Z</time>
      </trkpt>
      <trkpt lat="47.90076" lon="6.83959">
        <ele>1023.8</ele>
        <time>2022-09-13T14:13:55Z</time>
      </trkpt>
      <trkpt lat="47.90078" lon="6.83956">
        <ele>1023.7</ele>
        <time>2022-09-13T14:13:56Z</time>
      </trkpt>
      <trkpt lat="47.9008" lon="6.83954">
        <ele>1023.9</ele>
        <time>2022-09-13T14:13:57Z</time>
      </trkpt>
      <trkpt lat="47.90082" lon="6.83952">
        <ele>1024</ele>
        <time>2022-09-13T14:13:58Z</time>
      </trkpt>
      <trkpt lat="47.90084" lon="6.8395">
        <ele>1024.1</ele>
        <time>2022-09-13T14:13:59Z</time>
      </trkpt>
      <trkpt lat="47.90087" lon="6.83948">
        <ele>1024.2</ele>
        <time>2022-09-13T14:14:00Z</time>
      </trkpt>
      <trkpt lat="47.90089" lon="6.83946">
        <ele>1024.1</ele>
        <time>2022-09-13T14:14:01Z</time>
      </trkpt>
      <trkpt lat="47.90091" lon="6.83945">
        <ele>1024.2</ele>
        <time>2022-09-13T14:14:02Z</time>
      </trkpt>
      <trkpt lat="47.90093" lon="6.83943">
        <ele>1024.1</ele>
        <time>2022-09-13T14:14:03Z</time>
      </trkpt>
      <trkpt lat="47.90096" lon="6.83941">
        <ele>1024.1</ele>
        <time>2022-09-13T14:14:04Z</time>
      </trkpt>
      <trkpt lat="47.901" lon="6.83939">
        <ele>1024.3</ele>
        <time>2022-09-13T14:14:05Z</time>
      </trkpt>
      <trkpt lat="47.90103" lon="6.83938">
        <ele>1024.5</ele>
        <time>2022-09-13T14:14:06Z</time>
      </trkpt>
      <trkpt lat="47.90105" lon="6.83936">
        <ele>1024.4</ele>
        <time>2022-09-13T14:14:07Z</time>
      </trkpt>
      <trkpt lat="47.90108" lon="6.83935">
        <ele>1024.6</ele>
        <time>2022-09-13T14:14:08Z</time>
      </trkpt>
      <trkpt lat="47.90109" lon="6.83935">
        <ele>1024.7</ele>
        <time>2022-09-13T14:14:09Z</time>
      </trkpt>
      <trkpt lat="47.90111" lon="6.83934">
        <ele>1024.7</ele>
        <time>2022-09-13T14:14:10Z</time>
      </trkpt>
      <trkpt lat="47.90115" lon="6.83933">
        <ele>1024.8</ele>
        <time>2022-09-13T14:14:11Z</time>
      </trkpt>
      <trkpt lat="47.90119" lon="6.83932">
        <ele>1024.9</ele>
        <time>2022-09-13T14:14:12Z</time>
      </trkpt>
      <trkpt lat="47.90122" lon="6.83932">
        <ele>1025.1</ele>
        <time>2022-09-13T14:14:13Z</time>
      </trkpt>
      <trkpt lat="47.90124" lon="6.83932">
        <ele>1025.2</ele>
        <time>2022-09-13T14:14:14Z</time>
      </trkpt>
      <trkpt lat="47.90127" lon="6.83931">
        <ele>1025.2</ele>
        <time>2022-09-13T14:14:15Z</time>
      </trkpt>
      <trkpt lat="47.90128" lon="6.83931">
        <ele>1025.3</ele>
        <time>2022-09-13T14:14:16Z</time>
      </trkpt>
      <trkpt lat="47.9013" lon="6.83931">
        <ele>1025.5</ele>
        <time>2022-09-13T14:14:17Z</time>
      </trkpt>
      <trkpt lat="47.90133" lon="6.83931">
        <ele>1025.7</ele>
        <time>2022-09-13T14:14:18Z</time>
      </trkpt>
      <trkpt lat="47.90137" lon="6.83932">
        <ele>1026.2</ele>
        <time>2022-09-13T14:14:19Z</time>
      </trkpt>
      <trkpt lat="47.90141" lon="6.83932">
        <ele>1026.2</ele>
        <time>2022-09-13T14:14:20Z</time>
      </trkpt>
      <trkpt lat="47.90144" lon="6.83933">
        <ele>1026.4</ele>
        <time>2022-09-13T14:14:21Z</time>
      </trkpt>
      <trkpt lat="47.90147" lon="6.83933">
        <ele>1026.3</ele>
        <time>2022-09-13T14:14:22Z</time>
      </trkpt>
      <trkpt lat="47.90149" lon="6.83934">
        <ele>1026.5</ele>
        <time>2022-09-13T14:14:23Z</time>
      </trkpt>
      <trkpt lat="47.90152" lon="6.83934">
        <ele>1026.4</ele>
        <time>2022-09-13T14:14:24Z</time>
      </trkpt>
      <trkpt lat="47.90155" lon="6.83935">
        <ele>1026.6</ele>
        <time>2022-09-13T14:14:25Z</time>
      </trkpt>
      <trkpt lat="47.90157" lon="6.83936">
        <ele>1026.8</ele>
        <time>2022-09-13T14:14:26Z</time>
      </trkpt>
      <trkpt lat="47.9016" lon="6.83936">
        <ele>1026.7</ele>
        <time>2022-09-13T14:14:27Z</time>
      </trkpt>
      <trkpt lat="47.90163" lon="6.83937">
        <ele>1026.9</ele>
        <time>2022-09-13T14:14:28Z</time>
      </trkpt>
      <trkpt lat="47.90166" lon="6.83938">
        <ele>1027.2</ele>
        <time>2022-09-13T14:14:29Z</time>
      </trkpt>
      <trkpt lat="47.90167" lon="6.83939">
        <ele>1027.4</ele>
        <time>2022-09-13T14:14:30Z</time>
      </trkpt>
      <trkpt lat="47.90171" lon="6.8394">
        <ele>1027.3</ele>
        <time>2022-09-13T14:14:31Z</time>
      </trkpt>
      <trkpt lat="47.90174" lon="6.83941">
        <ele>1027.2</ele>
        <time>2022-09-13T14:14:32Z</time>
      </trkpt>
      <trkpt lat="47.90177" lon="6.83943">
        <ele>1027.5</ele>
        <time>2022-09-13T14:14:33Z</time>
      </trkpt>
      <trkpt lat="47.90179" lon="6.83944">
        <ele>1027.5</ele>
        <time>2022-09-13T14:14:34Z</time>
      </trkpt>
      <trkpt lat="47.90182" lon="6.83946">
        <ele>1027.8</ele>
        <time>2022-09-13T14:14:35Z</time>
      </trkpt>
      <trkpt lat="47.90185" lon="6.83947">
        <ele>1027.7</ele>
        <time>2022-09-13T14:14:36Z</time>
      </trkpt>
      <trkpt lat="47.90187" lon="6.83948">
        <ele>1027.8</ele>
        <time>2022-09-13T14:14:37Z</time>
      </trkpt>
      <trkpt lat="47.9019" lon="6.8395">
        <ele>1028</ele>
        <time>2022-09-13T14:14:38Z</time>
      </trkpt>
      <trkpt lat="47.90192" lon="6.83951">
        <ele>1028.1</ele>
        <time>2022-09-13T14:14:39Z</time>
      </trkpt>
      <trkpt lat="47.90195" lon="6.83952">
        <ele>1028.1</ele>
        <time>2022-09-13T14:14:40Z</time>
      </trkpt>
      <trkpt lat="47.90196" lon="6.83953">
        <ele>1028.3</ele>
        <time>2022-09-13T14:14:41Z</time>
      </trkpt>
      <trkpt lat="47.90198" lon="6.83954">
        <ele>1028.5</ele>
        <time>2022-09-13T14:14:42Z</time>
      </trkpt>
      <trkpt lat="47.90201" lon="6.83955">
        <ele>1028.5</ele>
        <time>2022-09-13T14:14:43Z</time>
      </trkpt>
      <trkpt lat="47.90203" lon="6.83957">
        <ele>1028.9</ele>
        <time>2022-09-13T14:14:44Z</time>
      </trkpt>
      <trkpt lat="47.90207" lon="6.83959">
        <ele>1029.1</ele>
        <time>2022-09-13T14:14:45Z</time>
      </trkpt>
      <trkpt lat="47.9021" lon="6.83961">
        <ele>1029.3</ele>
        <time>2022-09-13T14:14:46Z</time>
      </trkpt>
      <trkpt lat="47.90213" lon="6.83963">
        <ele>1029.6</ele>
        <time>2022-09-13T14:14:47Z</time>
      </trkpt>
      <trkpt lat="47.90215" lon="6.83964">
        <ele>1029.6</ele>
        <time>2022-09-13T14:14:48Z</time>
      </trkpt>
      <trkpt lat="47.90217" lon="6.83965">
        <ele>1029.7</ele>
        <time>2022-09-13T14:14:49Z</time>
      </trkpt>
      <trkpt lat="47.9022" lon="6.83967">
        <ele>1029.9</ele>
        <time>2022-09-13T14:14:50Z</time>
      </trkpt>
      <trkpt lat="47.90223" lon="6.83968">
        <ele>1029.9</ele>
        <time>2022-09-13T14:14:51Z</time>
      </trkpt>
      <trkpt lat="47.90226" lon="6.83969">
        <ele>1030.2</ele>
        <time>2022-09-13T14:14:52Z</time>
      </trkpt>
      <trkpt lat="47.90228" lon="6.83971">
        <ele>1030.7</ele>
        <time>2022-09-13T14:14:53Z</time>
      </trkpt>
      <trkpt lat="47.9023" lon="6.83971">
        <ele>1030.7</ele>
        <time>2022-09-13T14:14:54Z</time>
      </trkpt>
      <trkpt lat="47.90232" lon="6.83972">
        <ele>1030.9</ele>
        <time>2022-09-13T14:14:55Z</time>
      </trkpt>
      <trkpt lat="47.90236" lon="6.83973">
        <ele>1031.2</ele>
        <time>2022-09-13T14:14:56Z</time>
      </trkpt>
      <trkpt lat="47.90239" lon="6.83974">
        <ele>1031.5</ele>
        <time>2022-09-13T14:14:57Z</time>
      </trkpt>
      <trkpt lat="47.90242" lon="6.83975">
        <ele>1031.7</ele>
        <time>2022-09-13T14:14:58Z</time>
      </trkpt>
      <trkpt lat="47.90245" lon="6.83976">
        <ele>1032</ele>
        <time>2022-09-13T14:14:59Z</time>
      </trkpt>
      <trkpt lat="47.90248" lon="6.83977">
        <ele>1032.2</ele>
        <time>2022-09-13T14:15:00Z</time>
      </trkpt>
      <trkpt lat="47.90251" lon="6.83978">
        <ele>1032.4</ele>
        <time>2022-09-13T14:15:01Z</time>
      </trkpt>
      <trkpt lat="47.90254" lon="6.83979">
        <ele>1032.5</ele>
        <time>2022-09-13T14:15:02Z</time>
      </trkpt>
      <trkpt lat="47.90256" lon="6.8398">
        <ele>1032.7</ele>
        <time>2022-09-13T14:15:03Z</time>
      </trkpt>
      <trkpt lat="47.90259" lon="6.83981">
        <ele>1032.8</ele>
        <time>2022-09-13T14:15:04Z</time>
      </trkpt>
      <trkpt lat="47.90262" lon="6.83982">
        <ele>1032.9</ele>
        <time>2022-09-13T14:15:05Z</time>
      </trkpt>
      <trkpt lat="47.90263" lon="6.83982">
        <ele>1032.8</ele>
        <time>2022-09-13T14:15:06Z</time>
      </trkpt>
      <trkpt lat="47.90265" lon="6.83983">
        <ele>1033</ele>
        <time>2022-09-13T14:15:07Z</time>
      </trkpt>
      <trkpt lat="47.90267" lon="6.83984">
        <ele>1033.1</ele>
        <time>2022-09-13T14:15:08Z</time>
      </trkpt>
      <trkpt lat="47.9027" lon="6.83985">
        <ele>1033.2</ele>
        <time>2022-09-13T14:15:09Z</time>
      </trkpt>
      <trkpt lat="47.90274" lon="6.83987">
        <ele>1033.4</ele>
        <time>2022-09-13T14:15:10Z</time>
      </trkpt>
      <trkpt lat="47.90277" lon="6.83989">
        <ele>1033.7</ele>
        <time>2022-09-13T14:15:11Z</time>
      </trkpt>
      <trkpt lat="47.90278" lon="6.8399">
        <ele>1033.8</ele>
        <time>2022-09-13T14:15:12Z</time>
      </trkpt>
      <trkpt lat="47.90282" lon="6.83992">
        <ele>1034</ele>
        <time>2022-09-13T14:15:13Z</time>
      </trkpt>
      <trkpt lat="47.90284" lon="6.83993">
        <ele>1034</ele>
        <time>2022-09-13T14:15:14Z</time>
      </trkpt>
      <trkpt lat="47.90287" lon="6.83995">
        <ele>1034.3</ele>
        <time>2022-09-13T14:15:15Z</time>
      </trkpt>
      <trkpt lat="47.90288" lon="6.83996">
        <ele>1034.4</ele>
        <time>2022-09-13T14:15:16Z</time>
      </trkpt>
      <trkpt lat="47.90292" lon="6.83999">
        <ele>1034.8</ele>
        <time>2022-09-13T14:15:17Z</time>
      </trkpt>
      <trkpt lat="47.90294" lon="6.84001">
        <ele>1035</ele>
        <time>2022-09-13T14:15:18Z</time>
      </trkpt>
      <trkpt lat="47.90297" lon="6.84004">
        <ele>1035.3</ele>
        <time>2022-09-13T14:15:19Z</time>
      </trkpt>
      <trkpt lat="47.90299" lon="6.84006">
        <ele>1035.4</ele>
        <time>2022-09-13T14:15:20Z</time>
      </trkpt>
      <trkpt lat="47.90301" lon="6.84008">
        <ele>1035.6</ele>
        <time>2022-09-13T14:15:21Z</time>
      </trkpt>
      <trkpt lat="47.90304" lon="6.8401">
        <ele>1035.6</ele>
        <time>2022-09-13T14:15:22Z</time>
      </trkpt>
      <trkpt lat="47.90306" lon="6.84013">
        <ele>1035.8</ele>
        <time>2022-09-13T14:15:23Z</time>
      </trkpt>
      <trkpt lat="47.90309" lon="6.84015">
        <ele>1035.7</ele>
        <time>2022-09-13T14:15:24Z</time>
      </trkpt>
      <trkpt lat="47.9031" lon="6.84016">
        <ele>1035.7</ele>
        <time>2022-09-13T14:15:25Z</time>
      </trkpt>
      <trkpt lat="47.90312" lon="6.84019">
        <ele>1035.9</ele>
        <time>2022-09-13T14:15:26Z</time>
      </trkpt>
      <trkpt lat="47.90315" lon="6.84023">
        <ele>1036</ele>
        <time>2022-09-13T14:15:27Z</time>
      </trkpt>
      <trkpt lat="47.90318" lon="6.84026">
        <ele>1036</ele>
        <time>2022-09-13T14:15:28Z</time>
      </trkpt>
      <trkpt lat="47.9032" lon="6.84029">
        <ele>1036.1</ele>
        <time>2022-09-13T14:15:29Z</time>
      </trkpt>
      <trkpt lat="47.90322" lon="6.84032">
        <ele>1036.2</ele>
        <time>2022-09-13T14:15:30Z</time>
      </trkpt>
      <trkpt lat="47.90324" lon="6.84035">
        <ele>1036.2</ele>
        <time>2022-09-13T14:15:31Z</time>
      </trkpt>
      <trkpt lat="47.90326" lon="6.84038">
        <ele>1036.3</ele>
        <time>2022-09-13T14:15:32Z</time>
      </trkpt>
      <trkpt lat="47.90328" lon="6.84041">
        <ele>1036.3</ele>
        <time>2022-09-13T14:15:33Z</time>
      </trkpt>
      <trkpt lat="47.9033" lon="6.84044">
        <ele>1036.3</ele>
        <time>2022-09-13T14:15:34Z</time>
      </trkpt>
      <trkpt lat="47.90332" lon="6.84048">
        <ele>1036.4</ele>
        <time>2022-09-13T14:15:35Z</time>
      </trkpt>
      <trkpt lat="47.90334" lon="6.84052">
        <ele>1036.5</ele>
        <time>2022-09-13T14:15:36Z</time>
      </trkpt>
      <trkpt lat="47.90336" lon="6.84055">
        <ele>1036.4</ele>
        <time>2022-09-13T14:15:37Z</time>
      </trkpt>
      <trkpt lat="47.90338" lon="6.84059">
        <ele>1036.3</ele>
        <time>2022-09-13T14:15:38Z</time>
      </trkpt>
      <trkpt lat="47.90339" lon="6.84062">
        <ele>1036.4</ele>
        <time>2022-09-13T14:15:39Z</time>
      </trkpt>
      <trkpt lat="47.9034" lon="6.84066">
        <ele>1036.5</ele>
        <time>2022-09-13T14:15:40Z</time>
      </trkpt>
      <trkpt lat="47.90342" lon="6.8407">
        <ele>1036.4</ele>
        <time>2022-09-13T14:15:41Z</time>
      </trkpt>
      <trkpt lat="47.90343" lon="6.84074">
        <ele>1036.4</ele>
        <time>2022-09-13T14:15:42Z</time>
      </trkpt>
      <trkpt lat="47.90345" lon="6.84078">
        <ele>1036.2</ele>
        <time>2022-09-13T14:15:43Z</time>
      </trkpt>
      <trkpt lat="47.90347" lon="6.84083">
        <ele>1036</ele>
        <time>2022-09-13T14:15:44Z</time>
      </trkpt>
      <trkpt lat="47.90348" lon="6.84087">
        <ele>1036.1</ele>
        <time>2022-09-13T14:15:45Z</time>
      </trkpt>
      <trkpt lat="47.90349" lon="6.84091">
        <ele>1036.2</ele>
        <time>2022-09-13T14:15:46Z</time>
      </trkpt>
      <trkpt lat="47.90351" lon="6.84095">
        <ele>1035.9</ele>
        <time>2022-09-13T14:15:47Z</time>
      </trkpt>
      <trkpt lat="47.90352" lon="6.84099">
        <ele>1035.9</ele>
        <time>2022-09-13T14:15:48Z</time>
      </trkpt>
      <trkpt lat="47.90353" lon="6.84103">
        <ele>1036</ele>
        <time>2022-09-13T14:15:49Z</time>
      </trkpt>
      <trkpt lat="47.90354" lon="6.84107">
        <ele>1036</ele>
        <time>2022-09-13T14:15:50Z</time>
      </trkpt>
      <trkpt lat="47.90355" lon="6.84112">
        <ele>1036</ele>
        <time>2022-09-13T14:15:51Z</time>
      </trkpt>
      <trkpt lat="47.90357" lon="6.84116">
        <ele>1035.5</ele>
        <time>2022-09-13T14:15:52Z</time>
      </trkpt>
      <trkpt lat="47.90358" lon="6.84121">
        <ele>1035.4</ele>
        <time>2022-09-13T14:15:53Z</time>
      </trkpt>
      <trkpt lat="47.90358" lon="6.84125">
        <ele>1035.6</ele>
        <time>2022-09-13T14:15:54Z</time>
      </trkpt>
      <trkpt lat="47.90359" lon="6.8413">
        <ele>1035.4</ele>
        <time>2022-09-13T14:15:55Z</time>
      </trkpt>
      <trkpt lat="47.9036" lon="6.84134">
        <ele>1035.2</ele>
        <time>2022-09-13T14:15:56Z</time>
      </trkpt>
      <trkpt lat="47.90361" lon="6.84139">
        <ele>1035</ele>
        <time>2022-09-13T14:15:57Z</time>
      </trkpt>
      <trkpt lat="47.90362" lon="6.84144">
        <ele>1035</ele>
        <time>2022-09-13T14:15:58Z</time>
      </trkpt>
      <trkpt lat="47.90363" lon="6.84149">
        <ele>1035</ele>
        <time>2022-09-13T14:15:59Z</time>
      </trkpt>
      <trkpt lat="47.90364" lon="6.84153">
        <ele>1034.9</ele>
        <time>2022-09-13T14:16:00Z</time>
      </trkpt>
      <trkpt lat="47.90365" lon="6.84158">
        <ele>1034.9</ele>
        <time>2022-09-13T14:16:01Z</time>
      </trkpt>
      <trkpt lat="47.90366" lon="6.84163">
        <ele>1034.8</ele>
        <time>2022-09-13T14:16:02Z</time>
      </trkpt>
      <trkpt lat="47.90367" lon="6.84169">
        <ele>1034.8</ele>
        <time>2022-09-13T14:16:03Z</time>
      </trkpt>
      <trkpt lat="47.90368" lon="6.84175">
        <ele>1034.6</ele>
        <time>2022-09-13T14:16:04Z</time>
      </trkpt>
      <trkpt lat="47.90368" lon="6.84181">
        <ele>1034.8</ele>
        <time>2022-09-13T14:16:05Z</time>
      </trkpt>
      <trkpt lat="47.90369" lon="6.84186">
        <ele>1034.6</ele>
        <time>2022-09-13T14:16:06Z</time>
      </trkpt>
      <trkpt lat="47.9037" lon="6.84191">
        <ele>1034.4</ele>
        <time>2022-09-13T14:16:07Z</time>
      </trkpt>
      <trkpt lat="47.9037" lon="6.84197">
        <ele>1034.6</ele>
        <time>2022-09-13T14:16:08Z</time>
      </trkpt>
      <trkpt lat="47.90371" lon="6.84202">
        <ele>1034.4</ele>
        <time>2022-09-13T14:16:09Z</time>
      </trkpt>
      <trkpt lat="47.90371" lon="6.84208">
        <ele>1034.6</ele>
        <time>2022-09-13T14:16:10Z</time>
      </trkpt>
      <trkpt lat="47.90372" lon="6.84213">
        <ele>1034.4</ele>
        <time>2022-09-13T14:16:11Z</time>
      </trkpt>
      <trkpt lat="47.90372" lon="6.84218">
        <ele>1034.5</ele>
        <time>2022-09-13T14:16:12Z</time>
      </trkpt>
      <trkpt lat="47.90373" lon="6.84224">
        <ele>1034.4</ele>
        <time>2022-09-13T14:16:13Z</time>
      </trkpt>
      <trkpt lat="47.90373" lon="6.84229">
        <ele>1034.5</ele>
        <time>2022-09-13T14:16:14Z</time>
      </trkpt>
      <trkpt lat="47.90373" lon="6.84235">
        <ele>1034.8</ele>
        <time>2022-09-13T14:16:15Z</time>
      </trkpt>
      <trkpt lat="47.90373" lon="6.84241">
        <ele>1035</ele>
        <time>2022-09-13T14:16:16Z</time>
      </trkpt>
      <trkpt lat="47.90373" lon="6.84246">
        <ele>1035.1</ele>
        <time>2022-09-13T14:16:17Z</time>
      </trkpt>
      <trkpt lat="47.90373" lon="6.84251">
        <ele>1035.3</ele>
        <time>2022-09-13T14:16:18Z</time>
      </trkpt>
      <trkpt lat="47.90374" lon="6.84256">
        <ele>1034.9</ele>
        <time>2022-09-13T14:16:19Z</time>
      </trkpt>
      <trkpt lat="47.90374" lon="6.84262">
        <ele>1034.9</ele>
        <time>2022-09-13T14:16:20Z</time>
      </trkpt>
      <trkpt lat="47.90374" lon="6.84266">
        <ele>1034.9</ele>
        <time>2022-09-13T14:16:21Z</time>
      </trkpt>
      <trkpt lat="47.90374" lon="6.84271">
        <ele>1034.9</ele>
        <time>2022-09-13T14:16:22Z</time>
      </trkpt>
      <trkpt lat="47.90374" lon="6.84276">
        <ele>1034.9</ele>
        <time>2022-09-13T14:16:23Z</time>
      </trkpt>
      <trkpt lat="47.90374" lon="6.84281">
        <ele>1034.9</ele>
        <time>2022-09-13T14:16:24Z</time>
      </trkpt>
      <trkpt lat="47.90374" lon="6.84285">
        <ele>1034.9</ele>
        <time>2022-09-13T14:16:25Z</time>
      </trkpt>
      <trkpt lat="47.90374" lon="6.8429">
        <ele>1034.9</ele>
        <time>2022-09-13T14:16:26Z</time>
      </trkpt>
      <trkpt lat="47.90374" lon="6.84295">
        <ele>1034.9</ele>
        <time>2022-09-13T14:16:27Z</time>
      </trkpt>
      <trkpt lat="47.90374" lon="6.843">
        <ele>1034.9</ele>
        <time>2022-09-13T14:16:28Z</time>
      </trkpt>
      <trkpt lat="47.90374" lon="6.84304">
        <ele>1034.9</ele>
        <time>2022-09-13T14:16:29Z</time>
      </trkpt>
      <trkpt lat="47.90374" lon="6.84309">
        <ele>1034.6</ele>
        <time>2022-09-13T14:16:30Z</time>
      </trkpt>
      <trkpt lat="47.90374" lon="6.84314">
        <ele>1034.3</ele>
        <time>2022-09-13T14:16:31Z</time>
      </trkpt>
      <trkpt lat="47.90373" lon="6.84319">
        <ele>1034.3</ele>
        <time>2022-09-13T14:16:32Z</time>
      </trkpt>
      <trkpt lat="47.90373" lon="6.84324">
        <ele>1033.9</ele>
        <time>2022-09-13T14:16:33Z</time>
      </trkpt>
      <trkpt lat="47.90372" lon="6.84329">
        <ele>1033.8</ele>
        <time>2022-09-13T14:16:34Z</time>
      </trkpt>
      <trkpt lat="47.90371" lon="6.84334">
        <ele>1033.7</ele>
        <time>2022-09-13T14:16:35Z</time>
      </trkpt>
      <trkpt lat="47.9037" lon="6.84338">
        <ele>1033.6</ele>
        <time>2022-09-13T14:16:36Z</time>
      </trkpt>
      <trkpt lat="47.90369" lon="6.84343">
        <ele>1033.5</ele>
        <time>2022-09-13T14:16:37Z</time>
      </trkpt>
      <trkpt lat="47.90368" lon="6.84347">
        <ele>1033.4</ele>
        <time>2022-09-13T14:16:38Z</time>
      </trkpt>
      <trkpt lat="47.90367" lon="6.84352">
        <ele>1033.3</ele>
        <time>2022-09-13T14:16:39Z</time>
      </trkpt>
      <trkpt lat="47.90366" lon="6.84357">
        <ele>1033.3</ele>
        <time>2022-09-13T14:16:40Z</time>
      </trkpt>
      <trkpt lat="47.90365" lon="6.84362">
        <ele>1033.3</ele>
        <time>2022-09-13T14:16:41Z</time>
      </trkpt>
      <trkpt lat="47.90364" lon="6.84368">
        <ele>1033.2</ele>
        <time>2022-09-13T14:16:42Z</time>
      </trkpt>
      <trkpt lat="47.90363" lon="6.84373">
        <ele>1033.3</ele>
        <time>2022-09-13T14:16:43Z</time>
      </trkpt>
      <trkpt lat="47.90363" lon="6.84378">
        <ele>1032.9</ele>
        <time>2022-09-13T14:16:44Z</time>
      </trkpt>
      <trkpt lat="47.90362" lon="6.84384">
        <ele>1032.9</ele>
        <time>2022-09-13T14:16:45Z</time>
      </trkpt>
      <trkpt lat="47.90361" lon="6.84389">
        <ele>1033</ele>
        <time>2022-09-13T14:16:46Z</time>
      </trkpt>
      <trkpt lat="47.90359" lon="6.84395">
        <ele>1033.4</ele>
        <time>2022-09-13T14:16:47Z</time>
      </trkpt>
      <trkpt lat="47.90358" lon="6.844">
        <ele>1033.3</ele>
        <time>2022-09-13T14:16:48Z</time>
      </trkpt>
      <trkpt lat="47.90356" lon="6.84405">
        <ele>1033.7</ele>
        <time>2022-09-13T14:16:49Z</time>
      </trkpt>
      <trkpt lat="47.90355" lon="6.8441">
        <ele>1033.6</ele>
        <time>2022-09-13T14:16:50Z</time>
      </trkpt>
      <trkpt lat="47.90354" lon="6.84415">
        <ele>1033.5</ele>
        <time>2022-09-13T14:16:51Z</time>
      </trkpt>
      <trkpt lat="47.90352" lon="6.8442">
        <ele>1033.6</ele>
        <time>2022-09-13T14:16:52Z</time>
      </trkpt>
      <trkpt lat="47.90351" lon="6.84425">
        <ele>1033.4</ele>
        <time>2022-09-13T14:16:53Z</time>
      </trkpt>
      <trkpt lat="47.9035" lon="6.84429">
        <ele>1033.3</ele>
        <time>2022-09-13T14:16:54Z</time>
      </trkpt>
      <trkpt lat="47.90348" lon="6.84434">
        <ele>1033.4</ele>
        <time>2022-09-13T14:16:55Z</time>
      </trkpt>
      <trkpt lat="47.90347" lon="6.84439">
        <ele>1033.2</ele>
        <time>2022-09-13T14:16:56Z</time>
      </trkpt>
      <trkpt lat="47.90346" lon="6.84444">
        <ele>1032.9</ele>
        <time>2022-09-13T14:16:57Z</time>
      </trkpt>
      <trkpt lat="47.90345" lon="6.84448">
        <ele>1033.3</ele>
        <time>2022-09-13T14:16:58Z</time>
      </trkpt>
      <trkpt lat="47.90345" lon="6.84453">
        <ele>1033.4</ele>
        <time>2022-09-13T14:16:59Z</time>
      </trkpt>
      <trkpt lat="47.90345" lon="6.84458">
        <ele>1033.5</ele>
        <time>2022-09-13T14:17:00Z</time>
      </trkpt>
      <trkpt lat="47.90345" lon="6.84462">
        <ele>1033.6</ele>
        <time>2022-09-13T14:17:01Z</time>
      </trkpt>
      <trkpt lat="47.90346" lon="6.84467">
        <ele>1033.3</ele>
        <time>2022-09-13T14:17:02Z</time>
      </trkpt>
      <trkpt lat="47.90347" lon="6.84471">
        <ele>1033.1</ele>
        <time>2022-09-13T14:17:03Z</time>
      </trkpt>
      <trkpt lat="47.90348" lon="6.84476">
        <ele>1033.2</ele>
        <time>2022-09-13T14:17:04Z</time>
      </trkpt>
      <trkpt lat="47.9035" lon="6.84481">
        <ele>1033.1</ele>
        <time>2022-09-13T14:17:05Z</time>
      </trkpt>
      <trkpt lat="47.90351" lon="6.84485">
        <ele>1033.3</ele>
        <time>2022-09-13T14:17:06Z</time>
      </trkpt>
      <trkpt lat="47.90353" lon="6.8449">
        <ele>1033.3</ele>
        <time>2022-09-13T14:17:07Z</time>
      </trkpt>
      <trkpt lat="47.90354" lon="6.84495">
        <ele>1033.6</ele>
        <time>2022-09-13T14:17:08Z</time>
      </trkpt>
      <trkpt lat="47.90356" lon="6.84499">
        <ele>1033.5</ele>
        <time>2022-09-13T14:17:09Z</time>
      </trkpt>
      <trkpt lat="47.90358" lon="6.84504">
        <ele>1033.3</ele>
        <time>2022-09-13T14:17:10Z</time>
      </trkpt>
      <trkpt lat="47.9036" lon="6.84508">
        <ele>1032.9</ele>
        <time>2022-09-13T14:17:11Z</time>
      </trkpt>
      <trkpt lat="47.90361" lon="6.84513">
        <ele>1033</ele>
        <time>2022-09-13T14:17:12Z</time>
      </trkpt>
      <trkpt lat="47.90363" lon="6.84519">
        <ele>1032.8</ele>
        <time>2022-09-13T14:17:13Z</time>
      </trkpt>
      <trkpt lat="47.90365" lon="6.84524">
        <ele>1032.5</ele>
        <time>2022-09-13T14:17:14Z</time>
      </trkpt>
      <trkpt lat="47.90368" lon="6.84529">
        <ele>1031.9</ele>
        <time>2022-09-13T14:17:15Z</time>
      </trkpt>
      <trkpt lat="47.9037" lon="6.84534">
        <ele>1031.6</ele>
        <time>2022-09-13T14:17:16Z</time>
      </trkpt>
      <trkpt lat="47.90372" lon="6.84539">
        <ele>1031.3</ele>
        <time>2022-09-13T14:17:17Z</time>
      </trkpt>
      <trkpt lat="47.90373" lon="6.84544">
        <ele>1031.3</ele>
        <time>2022-09-13T14:17:18Z</time>
      </trkpt>
      <trkpt lat="47.90375" lon="6.84549">
        <ele>1031</ele>
        <time>2022-09-13T14:17:19Z</time>
      </trkpt>
      <trkpt lat="47.90377" lon="6.84553">
        <ele>1030.7</ele>
        <time>2022-09-13T14:17:20Z</time>
      </trkpt>
      <trkpt lat="47.90379" lon="6.84558">
        <ele>1030.3</ele>
        <time>2022-09-13T14:17:21Z</time>
      </trkpt>
      <trkpt lat="47.90381" lon="6.84563">
        <ele>1029.9</ele>
        <time>2022-09-13T14:17:22Z</time>
      </trkpt>
      <trkpt lat="47.90382" lon="6.84568">
        <ele>1029.9</ele>
        <time>2022-09-13T14:17:23Z</time>
      </trkpt>
      <trkpt lat="47.90384" lon="6.84574">
        <ele>1029.7</ele>
        <time>2022-09-13T14:17:24Z</time>
      </trkpt>
      <trkpt lat="47.90385" lon="6.84579">
        <ele>1029.7</ele>
        <time>2022-09-13T14:17:25Z</time>
      </trkpt>
      <trkpt lat="47.90386" lon="6.84583">
        <ele>1029.7</ele>
        <time>2022-09-13T14:17:26Z</time>
      </trkpt>
      <trkpt lat="47.90387" lon="6.84588">
        <ele>1029.5</ele>
        <time>2022-09-13T14:17:27Z</time>
      </trkpt>
      <trkpt lat="47.90388" lon="6.84592">
        <ele>1029.2</ele>
        <time>2022-09-13T14:17:28Z</time>
      </trkpt>
      <trkpt lat="47.90389" lon="6.84596">
        <ele>1029</ele>
        <time>2022-09-13T14:17:29Z</time>
      </trkpt>
      <trkpt lat="47.9039" lon="6.84601">
        <ele>1028.7</ele>
        <time>2022-09-13T14:17:30Z</time>
      </trkpt>
      <trkpt lat="47.90392" lon="6.84606">
        <ele>1028.1</ele>
        <time>2022-09-13T14:17:31Z</time>
      </trkpt>
      <trkpt lat="47.90393" lon="6.84611">
        <ele>1027.8</ele>
        <time>2022-09-13T14:17:32Z</time>
      </trkpt>
      <trkpt lat="47.90394" lon="6.84616">
        <ele>1027.7</ele>
        <time>2022-09-13T14:17:33Z</time>
      </trkpt>
      <trkpt lat="47.90395" lon="6.84621">
        <ele>1027.5</ele>
        <time>2022-09-13T14:17:34Z</time>
      </trkpt>
      <trkpt lat="47.90396" lon="6.84625">
        <ele>1027.3</ele>
        <time>2022-09-13T14:17:35Z</time>
      </trkpt>
      <trkpt lat="47.90397" lon="6.8463">
        <ele>1027.1</ele>
        <time>2022-09-13T14:17:36Z</time>
      </trkpt>
      <trkpt lat="47.90399" lon="6.84634">
        <ele>1026.6</ele>
        <time>2022-09-13T14:17:37Z</time>
      </trkpt>
      <trkpt lat="47.904" lon="6.84638">
        <ele>1026.4</ele>
        <time>2022-09-13T14:17:38Z</time>
      </trkpt>
      <trkpt lat="47.904" lon="6.84641">
        <ele>1026.4</ele>
        <time>2022-09-13T14:17:39Z</time>
      </trkpt>
      <trkpt lat="47.90401" lon="6.84644">
        <ele>1026.1</ele>
        <time>2022-09-13T14:17:40Z</time>
      </trkpt>
      <trkpt lat="47.90401" lon="6.84646">
        <ele>1026.1</ele>
        <time>2022-09-13T14:17:41Z</time>
      </trkpt>
      <trkpt lat="47.90402" lon="6.8465">
        <ele>1025.8</ele>
        <time>2022-09-13T14:17:42Z</time>
      </trkpt>
      <trkpt lat="47.90402" lon="6.84653">
        <ele>1025.8</ele>
        <time>2022-09-13T14:17:43Z</time>
      </trkpt>
      <trkpt lat="47.90403" lon="6.84657">
        <ele>1025.4</ele>
        <time>2022-09-13T14:17:44Z</time>
      </trkpt>
      <trkpt lat="47.90404" lon="6.84661">
        <ele>1025.1</ele>
        <time>2022-09-13T14:17:45Z</time>
      </trkpt>
      <trkpt lat="47.90405" lon="6.84667">
        <ele>1024.8</ele>
        <time>2022-09-13T14:17:46Z</time>
      </trkpt>
      <trkpt lat="47.90405" lon="6.84672">
        <ele>1024.8</ele>
        <time>2022-09-13T14:17:47Z</time>
      </trkpt>
      <trkpt lat="47.90406" lon="6.84676">
        <ele>1024.5</ele>
        <time>2022-09-13T14:17:48Z</time>
      </trkpt>
      <trkpt lat="47.90406" lon="6.84678">
        <ele>1024.5</ele>
        <time>2022-09-13T14:17:49Z</time>
      </trkpt>
      <trkpt lat="47.90407" lon="6.8468">
        <ele>1024.1</ele>
        <time>2022-09-13T14:17:50Z</time>
      </trkpt>
      <trkpt lat="47.90408" lon="6.84683">
        <ele>1023.8</ele>
        <time>2022-09-13T14:17:51Z</time>
      </trkpt>
      <trkpt lat="47.90408" lon="6.84686">
        <ele>1023.8</ele>
        <time>2022-09-13T14:17:52Z</time>
      </trkpt>
      <trkpt lat="47.90409" lon="6.8469">
        <ele>1023.5</ele>
        <time>2022-09-13T14:17:53Z</time>
      </trkpt>
      <trkpt lat="47.9041" lon="6.84693">
        <ele>1023.2</ele>
        <time>2022-09-13T14:17:54Z</time>
      </trkpt>
      <trkpt lat="47.9041" lon="6.84696">
        <ele>1023.1</ele>
        <time>2022-09-13T14:17:55Z</time>
      </trkpt>
      <trkpt lat="47.90411" lon="6.84698">
        <ele>1022.7</ele>
        <time>2022-09-13T14:17:56Z</time>
      </trkpt>
      <trkpt lat="47.90411" lon="6.84701">
        <ele>1022.6</ele>
        <time>2022-09-13T14:17:57Z</time>
      </trkpt>
      <trkpt lat="47.90411" lon="6.84704">
        <ele>1022.5</ele>
        <time>2022-09-13T14:17:58Z</time>
      </trkpt>
      <trkpt lat="47.90412" lon="6.84707">
        <ele>1022.1</ele>
        <time>2022-09-13T14:17:59Z</time>
      </trkpt>
      <trkpt lat="47.90412" lon="6.8471">
        <ele>1022</ele>
        <time>2022-09-13T14:18:00Z</time>
      </trkpt>
      <trkpt lat="47.90412" lon="6.84713">
        <ele>1021.8</ele>
        <time>2022-09-13T14:18:01Z</time>
      </trkpt>
      <trkpt lat="47.90413" lon="6.84716">
        <ele>1021.4</ele>
        <time>2022-09-13T14:18:02Z</time>
      </trkpt>
      <trkpt lat="47.90413" lon="6.84719">
        <ele>1021.3</ele>
        <time>2022-09-13T14:18:03Z</time>
      </trkpt>
      <trkpt lat="47.90414" lon="6.84723">
        <ele>1020.8</ele>
        <time>2022-09-13T14:18:04Z</time>
      </trkpt>
      <trkpt lat="47.90414" lon="6.84726">
        <ele>1020.7</ele>
        <time>2022-09-13T14:18:05Z</time>
      </trkpt>
      <trkpt lat="47.90415" lon="6.84729">
        <ele>1020.3</ele>
        <time>2022-09-13T14:18:06Z</time>
      </trkpt>
      <trkpt lat="47.90415" lon="6.84732">
        <ele>1020.2</ele>
        <time>2022-09-13T14:18:07Z</time>
      </trkpt>
      <trkpt lat="47.90415" lon="6.84736">
        <ele>1020</ele>
        <time>2022-09-13T14:18:08Z</time>
      </trkpt>
      <trkpt lat="47.90416" lon="6.84739">
        <ele>1019.6</ele>
        <time>2022-09-13T14:18:09Z</time>
      </trkpt>
      <trkpt lat="47.90416" lon="6.84743">
        <ele>1019.5</ele>
        <time>2022-09-13T14:18:10Z</time>
      </trkpt>
      <trkpt lat="47.90416" lon="6.84747">
        <ele>1019.3</ele>
        <time>2022-09-13T14:18:11Z</time>
      </trkpt>
      <trkpt lat="47.90417" lon="6.84753">
        <ele>1018.4</ele>
        <time>2022-09-13T14:18:12Z</time>
      </trkpt>
      <trkpt lat="47.90417" lon="6.84758">
        <ele>1017.7</ele>
        <time>2022-09-13T14:18:13Z</time>
      </trkpt>
      <trkpt lat="47.90417" lon="6.84762">
        <ele>1017.1</ele>
        <time>2022-09-13T14:18:14Z</time>
      </trkpt>
      <trkpt lat="47.90417" lon="6.84764">
        <ele>1016.8</ele>
        <time>2022-09-13T14:18:15Z</time>
      </trkpt>
      <trkpt lat="47.90416" lon="6.84767">
        <ele>1016.8</ele>
        <time>2022-09-13T14:18:16Z</time>
      </trkpt>
      <trkpt lat="47.90415" lon="6.84769">
        <ele>1016.9</ele>
        <time>2022-09-13T14:18:17Z</time>
      </trkpt>
      <trkpt lat="47.90414" lon="6.84772">
        <ele>1016.8</ele>
        <time>2022-09-13T14:18:18Z</time>
      </trkpt>
      <trkpt lat="47.90412" lon="6.84774">
        <ele>1017.3</ele>
        <time>2022-09-13T14:18:19Z</time>
      </trkpt>
      <trkpt lat="47.90411" lon="6.84777">
        <ele>1017.3</ele>
        <time>2022-09-13T14:18:20Z</time>
      </trkpt>
      <trkpt lat="47.90409" lon="6.84779">
        <ele>1017.6</ele>
        <time>2022-09-13T14:18:21Z</time>
      </trkpt>
      <trkpt lat="47.90408" lon="6.84782">
        <ele>1017.1</ele>
        <time>2022-09-13T14:18:22Z</time>
      </trkpt>
      <trkpt lat="47.90406" lon="6.84785">
        <ele>1016.9</ele>
        <time>2022-09-13T14:18:23Z</time>
      </trkpt>
      <trkpt lat="47.90405" lon="6.84788">
        <ele>1016.3</ele>
        <time>2022-09-13T14:18:24Z</time>
      </trkpt>
      <trkpt lat="47.90404" lon="6.84791">
        <ele>1015.7</ele>
        <time>2022-09-13T14:18:25Z</time>
      </trkpt>
      <trkpt lat="47.90403" lon="6.84794">
        <ele>1015.2</ele>
        <time>2022-09-13T14:18:26Z</time>
      </trkpt>
      <trkpt lat="47.90401" lon="6.84797">
        <ele>1015</ele>
        <time>2022-09-13T14:18:27Z</time>
      </trkpt>
      <trkpt lat="47.904" lon="6.84799">
        <ele>1014.7</ele>
        <time>2022-09-13T14:18:28Z</time>
      </trkpt>
      <trkpt lat="47.90399" lon="6.84802">
        <ele>1014.1</ele>
        <time>2022-09-13T14:18:29Z</time>
      </trkpt>
      <trkpt lat="47.90398" lon="6.84804">
        <ele>1013.9</ele>
        <time>2022-09-13T14:18:30Z</time>
      </trkpt>
      <trkpt lat="47.90396" lon="6.84807">
        <ele>1013.7</ele>
        <time>2022-09-13T14:18:31Z</time>
      </trkpt>
      <trkpt lat="47.90395" lon="6.84809">
        <ele>1013.4</ele>
        <time>2022-09-13T14:18:32Z</time>
      </trkpt>
      <trkpt lat="47.90394" lon="6.84812">
        <ele>1012.8</ele>
        <time>2022-09-13T14:18:33Z</time>
      </trkpt>
      <trkpt lat="47.90392" lon="6.84814">
        <ele>1013</ele>
        <time>2022-09-13T14:18:34Z</time>
      </trkpt>
      <trkpt lat="47.90391" lon="6.84816">
        <ele>1012.8</ele>
        <time>2022-09-13T14:18:35Z</time>
      </trkpt>
      <trkpt lat="47.90389" lon="6.84819">
        <ele>1012.6</ele>
        <time>2022-09-13T14:18:36Z</time>
      </trkpt>
      <trkpt lat="47.90388" lon="6.84821">
        <ele>1012.3</ele>
        <time>2022-09-13T14:18:37Z</time>
      </trkpt>
      <trkpt lat="47.90386" lon="6.84823">
        <ele>1012.5</ele>
        <time>2022-09-13T14:18:38Z</time>
      </trkpt>
      <trkpt lat="47.90385" lon="6.84825">
        <ele>1012.2</ele>
        <time>2022-09-13T14:18:39Z</time>
      </trkpt>
      <trkpt lat="47.90384" lon="6.84828">
        <ele>1011.6</ele>
        <time>2022-09-13T14:18:40Z</time>
      </trkpt>
      <trkpt lat="47.90382" lon="6.84831">
        <ele>1011.5</ele>
        <time>2022-09-13T14:18:41Z</time>
      </trkpt>
      <trkpt lat="47.90381" lon="6.84834">
        <ele>1011.1</ele>
        <time>2022-09-13T14:18:42Z</time>
      </trkpt>
      <trkpt lat="47.9038" lon="6.84837">
        <ele>1011.6</ele>
        <time>2022-09-13T14:18:43Z</time>
      </trkpt>
      <trkpt lat="47.9038" lon="6.8484">
        <ele>1011.6</ele>
        <time>2022-09-13T14:18:44Z</time>
      </trkpt>
      <trkpt lat="47.9038" lon="6.84843">
        <ele>1011.6</ele>
        <time>2022-09-13T14:18:45Z</time>
      </trkpt>
      <trkpt lat="47.90381" lon="6.84846">
        <ele>1011.3</ele>
        <time>2022-09-13T14:18:46Z</time>
      </trkpt>
      <trkpt lat="47.90382" lon="6.84849">
        <ele>1010.9</ele>
        <time>2022-09-13T14:18:47Z</time>
      </trkpt>
      <trkpt lat="47.90383" lon="6.84852">
        <ele>1010.5</ele>
        <time>2022-09-13T14:18:48Z</time>
      </trkpt>
      <trkpt lat="47.90384" lon="6.84854">
        <ele>1010.1</ele>
        <time>2022-09-13T14:18:49Z</time>
      </trkpt>
      <trkpt lat="47.90385" lon="6.84856">
        <ele>1009.7</ele>
        <time>2022-09-13T14:18:50Z</time>
      </trkpt>
      <trkpt lat="47.90386" lon="6.84857">
        <ele>1009.2</ele>
        <time>2022-09-13T14:18:51Z</time>
      </trkpt>
      <trkpt lat="47.90388" lon="6.84859">
        <ele>1008.4</ele>
        <time>2022-09-13T14:18:52Z</time>
      </trkpt>
      <trkpt lat="47.9039" lon="6.8486">
        <ele>1007.6</ele>
        <time>2022-09-13T14:18:53Z</time>
      </trkpt>
      <trkpt lat="47.90392" lon="6.84862">
        <ele>1007</ele>
        <time>2022-09-13T14:18:54Z</time>
      </trkpt>
      <trkpt lat="47.90394" lon="6.84863">
        <ele>1006.5</ele>
        <time>2022-09-13T14:18:55Z</time>
      </trkpt>
      <trkpt lat="47.90396" lon="6.84865">
        <ele>1006.2</ele>
        <time>2022-09-13T14:18:56Z</time>
      </trkpt>
      <trkpt lat="47.90398" lon="6.84867">
        <ele>1005.9</ele>
        <time>2022-09-13T14:18:57Z</time>
      </trkpt>
      <trkpt lat="47.904" lon="6.84869">
        <ele>1005.6</ele>
        <time>2022-09-13T14:18:58Z</time>
      </trkpt>
      <trkpt lat="47.90402" lon="6.8487">
        <ele>1005</ele>
        <time>2022-09-13T14:18:59Z</time>
      </trkpt>
      <trkpt lat="47.90404" lon="6.84872">
        <ele>1004.8</ele>
        <time>2022-09-13T14:19:00Z</time>
      </trkpt>
      <trkpt lat="47.90407" lon="6.84873">
        <ele>1003.8</ele>
        <time>2022-09-13T14:19:01Z</time>
      </trkpt>
      <trkpt lat="47.90409" lon="6.84875">
        <ele>1003.5</ele>
        <time>2022-09-13T14:19:02Z</time>
      </trkpt>
      <trkpt lat="47.90411" lon="6.84877">
        <ele>1003.2</ele>
        <time>2022-09-13T14:19:03Z</time>
      </trkpt>
      <trkpt lat="47.90413" lon="6.84879">
        <ele>1003</ele>
        <time>2022-09-13T14:19:04Z</time>
      </trkpt>
      <trkpt lat="47.90415" lon="6.84881">
        <ele>1002.7</ele>
        <time>2022-09-13T14:19:05Z</time>
      </trkpt>
      <trkpt lat="47.90417" lon="6.84882">
        <ele>1002.1</ele>
        <time>2022-09-13T14:19:06Z</time>
      </trkpt>
      <trkpt lat="47.90419" lon="6.84884">
        <ele>1001.9</ele>
        <time>2022-09-13T14:19:07Z</time>
      </trkpt>
      <trkpt lat="47.90421" lon="6.84886">
        <ele>1001.7</ele>
        <time>2022-09-13T14:19:08Z</time>
      </trkpt>
      <trkpt lat="47.90423" lon="6.84888">
        <ele>1001.5</ele>
        <time>2022-09-13T14:19:09Z</time>
      </trkpt>
      <trkpt lat="47.90425" lon="6.8489">
        <ele>1001.3</ele>
        <time>2022-09-13T14:19:10Z</time>
      </trkpt>
      <trkpt lat="47.90429" lon="6.84894">
        <ele>1000.8</ele>
        <time>2022-09-13T14:19:11Z</time>
      </trkpt>
      <trkpt lat="47.90431" lon="6.84895">
        <ele>1000.4</ele>
        <time>2022-09-13T14:19:12Z</time>
      </trkpt>
      <trkpt lat="47.90432" lon="6.84897">
        <ele>1000.5</ele>
        <time>2022-09-13T14:19:13Z</time>
      </trkpt>
      <trkpt lat="47.90434" lon="6.84899">
        <ele>1000.3</ele>
        <time>2022-09-13T14:19:14Z</time>
      </trkpt>
      <trkpt lat="47.90436" lon="6.84901">
        <ele>1000.1</ele>
        <time>2022-09-13T14:19:15Z</time>
      </trkpt>
      <trkpt lat="47.90439" lon="6.84903">
        <ele>999.5</ele>
        <time>2022-09-13T14:19:16Z</time>
      </trkpt>
      <trkpt lat="47.90441" lon="6.84905">
        <ele>999.3</ele>
        <time>2022-09-13T14:19:17Z</time>
      </trkpt>
      <trkpt lat="47.90443" lon="6.84907">
        <ele>999.1</ele>
        <time>2022-09-13T14:19:18Z</time>
      </trkpt>
      <trkpt lat="47.90445" lon="6.84909">
        <ele>998.8</ele>
        <time>2022-09-13T14:19:19Z</time>
      </trkpt>
      <trkpt lat="47.90449" lon="6.84914">
        <ele>998.4</ele>
        <time>2022-09-13T14:19:20Z</time>
      </trkpt>
      <trkpt lat="47.90451" lon="6.84917">
        <ele>998.2</ele>
        <time>2022-09-13T14:19:21Z</time>
      </trkpt>
      <trkpt lat="47.90454" lon="6.8492">
        <ele>997.5</ele>
        <time>2022-09-13T14:19:22Z</time>
      </trkpt>
      <trkpt lat="47.90456" lon="6.84923">
        <ele>997.1</ele>
        <time>2022-09-13T14:19:23Z</time>
      </trkpt>
      <trkpt lat="47.90458" lon="6.84927">
        <ele>997</ele>
        <time>2022-09-13T14:19:24Z</time>
      </trkpt>
      <trkpt lat="47.9046" lon="6.8493">
        <ele>996.7</ele>
        <time>2022-09-13T14:19:25Z</time>
      </trkpt>
      <trkpt lat="47.90462" lon="6.84933">
        <ele>996.4</ele>
        <time>2022-09-13T14:19:26Z</time>
      </trkpt>
      <trkpt lat="47.90464" lon="6.84936">
        <ele>996</ele>
        <time>2022-09-13T14:19:27Z</time>
      </trkpt>
      <trkpt lat="47.90465" lon="6.84939">
        <ele>996.1</ele>
        <time>2022-09-13T14:19:28Z</time>
      </trkpt>
      <trkpt lat="47.90466" lon="6.84941">
        <ele>996.1</ele>
        <time>2022-09-13T14:19:29Z</time>
      </trkpt>
      <trkpt lat="47.90468" lon="6.84943">
        <ele>995.6</ele>
        <time>2022-09-13T14:19:30Z</time>
      </trkpt>
      <trkpt lat="47.9047" lon="6.84945">
        <ele>995</ele>
        <time>2022-09-13T14:19:31Z</time>
      </trkpt>
      <trkpt lat="47.90473" lon="6.8495">
        <ele>994.5</ele>
        <time>2022-09-13T14:19:32Z</time>
      </trkpt>
      <trkpt lat="47.90475" lon="6.84954">
        <ele>994.2</ele>
        <time>2022-09-13T14:19:33Z</time>
      </trkpt>
      <trkpt lat="47.90477" lon="6.84957">
        <ele>993.9</ele>
        <time>2022-09-13T14:19:34Z</time>
      </trkpt>
      <trkpt lat="47.90479" lon="6.8496">
        <ele>993.6</ele>
        <time>2022-09-13T14:19:35Z</time>
      </trkpt>
      <trkpt lat="47.90481" lon="6.84963">
        <ele>993.3</ele>
        <time>2022-09-13T14:19:36Z</time>
      </trkpt>
      <trkpt lat="47.90481" lon="6.84965">
        <ele>993.6</ele>
        <time>2022-09-13T14:19:37Z</time>
      </trkpt>
      <trkpt lat="47.90483" lon="6.84967">
        <ele>993.2</ele>
        <time>2022-09-13T14:19:38Z</time>
      </trkpt>
      <trkpt lat="47.90484" lon="6.84969">
        <ele>993.2</ele>
        <time>2022-09-13T14:19:39Z</time>
      </trkpt>
      <trkpt lat="47.90486" lon="6.84972">
        <ele>993</ele>
        <time>2022-09-13T14:19:40Z</time>
      </trkpt>
      <trkpt lat="47.90488" lon="6.84974">
        <ele>992.6</ele>
        <time>2022-09-13T14:19:41Z</time>
      </trkpt>
      <trkpt lat="47.9049" lon="6.84977">
        <ele>992.4</ele>
        <time>2022-09-13T14:19:42Z</time>
      </trkpt>
      <trkpt lat="47.90491" lon="6.84979">
        <ele>992.4</ele>
        <time>2022-09-13T14:19:43Z</time>
      </trkpt>
      <trkpt lat="47.90493" lon="6.84982">
        <ele>992.2</ele>
        <time>2022-09-13T14:19:44Z</time>
      </trkpt>
      <trkpt lat="47.90495" lon="6.84984">
        <ele>991.8</ele>
        <time>2022-09-13T14:19:45Z</time>
      </trkpt>
      <trkpt lat="47.90497" lon="6.84986">
        <ele>991.5</ele>
        <time>2022-09-13T14:19:46Z</time>
      </trkpt>
      <trkpt lat="47.90499" lon="6.84988">
        <ele>991.2</ele>
        <time>2022-09-13T14:19:47Z</time>
      </trkpt>
      <trkpt lat="47.90501" lon="6.8499">
        <ele>990.8</ele>
        <time>2022-09-13T14:19:48Z</time>
      </trkpt>
      <trkpt lat="47.90502" lon="6.84992">
        <ele>990.8</ele>
        <time>2022-09-13T14:19:49Z</time>
      </trkpt>
      <trkpt lat="47.90504" lon="6.84995">
        <ele>990.5</ele>
        <time>2022-09-13T14:19:50Z</time>
      </trkpt>
      <trkpt lat="47.90506" lon="6.84997">
        <ele>990.1</ele>
        <time>2022-09-13T14:19:51Z</time>
      </trkpt>
      <trkpt lat="47.90508" lon="6.85">
        <ele>989.8</ele>
        <time>2022-09-13T14:19:52Z</time>
      </trkpt>
      <trkpt lat="47.9051" lon="6.85002">
        <ele>989.4</ele>
        <time>2022-09-13T14:19:53Z</time>
      </trkpt>
      <trkpt lat="47.90511" lon="6.85004">
        <ele>989.3</ele>
        <time>2022-09-13T14:19:54Z</time>
      </trkpt>
      <trkpt lat="47.90513" lon="6.85006">
        <ele>988.8</ele>
        <time>2022-09-13T14:19:55Z</time>
      </trkpt>
      <trkpt lat="47.90515" lon="6.85009">
        <ele>988.5</ele>
        <time>2022-09-13T14:19:56Z</time>
      </trkpt>
      <trkpt lat="47.90517" lon="6.85011">
        <ele>988.1</ele>
        <time>2022-09-13T14:19:57Z</time>
      </trkpt>
      <trkpt lat="47.90518" lon="6.85014">
        <ele>988.2</ele>
        <time>2022-09-13T14:19:58Z</time>
      </trkpt>
      <trkpt lat="47.9052" lon="6.85016">
        <ele>987.8</ele>
        <time>2022-09-13T14:19:59Z</time>
      </trkpt>
      <trkpt lat="47.90521" lon="6.85019">
        <ele>987.9</ele>
        <time>2022-09-13T14:20:00Z</time>
      </trkpt>
      <trkpt lat="47.90523" lon="6.85021">
        <ele>987.5</ele>
        <time>2022-09-13T14:20:01Z</time>
      </trkpt>
      <trkpt lat="47.90524" lon="6.85024">
        <ele>987.7</ele>
        <time>2022-09-13T14:20:02Z</time>
      </trkpt>
      <trkpt lat="47.90526" lon="6.85026">
        <ele>987.3</ele>
        <time>2022-09-13T14:20:03Z</time>
      </trkpt>
      <trkpt lat="47.90528" lon="6.85029">
        <ele>987.1</ele>
        <time>2022-09-13T14:20:04Z</time>
      </trkpt>
      <trkpt lat="47.9053" lon="6.85031">
        <ele>986.6</ele>
        <time>2022-09-13T14:20:05Z</time>
      </trkpt>
      <trkpt lat="47.90531" lon="6.85034">
        <ele>986.6</ele>
        <time>2022-09-13T14:20:06Z</time>
      </trkpt>
      <trkpt lat="47.90535" lon="6.85039">
        <ele>985.9</ele>
        <time>2022-09-13T14:20:07Z</time>
      </trkpt>
      <trkpt lat="47.90537" lon="6.85042">
        <ele>985.6</ele>
        <time>2022-09-13T14:20:08Z</time>
      </trkpt>
      <trkpt lat="47.90539" lon="6.85045">
        <ele>985.3</ele>
        <time>2022-09-13T14:20:09Z</time>
      </trkpt>
      <trkpt lat="47.9054" lon="6.85048">
        <ele>985.4</ele>
        <time>2022-09-13T14:20:10Z</time>
      </trkpt>
      <trkpt lat="47.90541" lon="6.8505">
        <ele>985.3</ele>
        <time>2022-09-13T14:20:11Z</time>
      </trkpt>
      <trkpt lat="47.90543" lon="6.85052">
        <ele>984.9</ele>
        <time>2022-09-13T14:20:12Z</time>
      </trkpt>
      <trkpt lat="47.90544" lon="6.85055">
        <ele>985.1</ele>
        <time>2022-09-13T14:20:13Z</time>
      </trkpt>
      <trkpt lat="47.90546" lon="6.85057">
        <ele>984.6</ele>
        <time>2022-09-13T14:20:14Z</time>
      </trkpt>
      <trkpt lat="47.90547" lon="6.8506">
        <ele>984.6</ele>
        <time>2022-09-13T14:20:15Z</time>
      </trkpt>
      <trkpt lat="47.90549" lon="6.85063">
        <ele>984.2</ele>
        <time>2022-09-13T14:20:16Z</time>
      </trkpt>
      <trkpt lat="47.9055" lon="6.85066">
        <ele>984.2</ele>
        <time>2022-09-13T14:20:17Z</time>
      </trkpt>
      <trkpt lat="47.90552" lon="6.85069">
        <ele>983.8</ele>
        <time>2022-09-13T14:20:18Z</time>
      </trkpt>
      <trkpt lat="47.90553" lon="6.85072">
        <ele>983.8</ele>
        <time>2022-09-13T14:20:19Z</time>
      </trkpt>
      <trkpt lat="47.90556" lon="6.85077">
        <ele>983.2</ele>
        <time>2022-09-13T14:20:20Z</time>
      </trkpt>
      <trkpt lat="47.90557" lon="6.85079">
        <ele>983</ele>
        <time>2022-09-13T14:20:21Z</time>
      </trkpt>
      <trkpt lat="47.90559" lon="6.85081">
        <ele>982.5</ele>
        <time>2022-09-13T14:20:22Z</time>
      </trkpt>
      <trkpt lat="47.9056" lon="6.85084">
        <ele>982.5</ele>
        <time>2022-09-13T14:20:23Z</time>
      </trkpt>
      <trkpt lat="47.90562" lon="6.85086">
        <ele>982.1</ele>
        <time>2022-09-13T14:20:24Z</time>
      </trkpt>
      <trkpt lat="47.90563" lon="6.85089">
        <ele>982.1</ele>
        <time>2022-09-13T14:20:25Z</time>
      </trkpt>
      <trkpt lat="47.90565" lon="6.85092">
        <ele>981.8</ele>
        <time>2022-09-13T14:20:26Z</time>
      </trkpt>
      <trkpt lat="47.90566" lon="6.85095">
        <ele>981.9</ele>
        <time>2022-09-13T14:20:27Z</time>
      </trkpt>
      <trkpt lat="47.90568" lon="6.85098">
        <ele>981.6</ele>
        <time>2022-09-13T14:20:28Z</time>
      </trkpt>
      <trkpt lat="47.90569" lon="6.85101">
        <ele>981.7</ele>
        <time>2022-09-13T14:20:29Z</time>
      </trkpt>
      <trkpt lat="47.9057" lon="6.85104">
        <ele>981.8</ele>
        <time>2022-09-13T14:20:30Z</time>
      </trkpt>
      <trkpt lat="47.90571" lon="6.85107">
        <ele>981.8</ele>
        <time>2022-09-13T14:20:31Z</time>
      </trkpt>
      <trkpt lat="47.90572" lon="6.85109">
        <ele>981.8</ele>
        <time>2022-09-13T14:20:32Z</time>
      </trkpt>
      <trkpt lat="47.90573" lon="6.85112">
        <ele>981.8</ele>
        <time>2022-09-13T14:20:33Z</time>
      </trkpt>
      <trkpt lat="47.90574" lon="6.85113">
        <ele>981.5</ele>
        <time>2022-09-13T14:20:34Z</time>
      </trkpt>
      <trkpt lat="47.90575" lon="6.85116">
        <ele>981.4</ele>
        <time>2022-09-13T14:20:35Z</time>
      </trkpt>
      <trkpt lat="47.90576" lon="6.85118">
        <ele>981.1</ele>
        <time>2022-09-13T14:20:36Z</time>
      </trkpt>
      <trkpt lat="47.90578" lon="6.85121">
        <ele>980.6</ele>
        <time>2022-09-13T14:20:37Z</time>
      </trkpt>
      <trkpt lat="47.90579" lon="6.85123">
        <ele>980.4</ele>
        <time>2022-09-13T14:20:38Z</time>
      </trkpt>
      <trkpt lat="47.90581" lon="6.85125">
        <ele>979.8</ele>
        <time>2022-09-13T14:20:39Z</time>
      </trkpt>
      <trkpt lat="47.90582" lon="6.85127">
        <ele>979.6</ele>
        <time>2022-09-13T14:20:40Z</time>
      </trkpt>
      <trkpt lat="47.90584" lon="6.8513">
        <ele>979.1</ele>
        <time>2022-09-13T14:20:41Z</time>
      </trkpt>
      <trkpt lat="47.90585" lon="6.85133">
        <ele>979</ele>
        <time>2022-09-13T14:20:42Z</time>
      </trkpt>
      <trkpt lat="47.90587" lon="6.85135">
        <ele>978.4</ele>
        <time>2022-09-13T14:20:43Z</time>
      </trkpt>
      <trkpt lat="47.90589" lon="6.85138">
        <ele>977.9</ele>
        <time>2022-09-13T14:20:44Z</time>
      </trkpt>
      <trkpt lat="47.90591" lon="6.85141">
        <ele>977.4</ele>
        <time>2022-09-13T14:20:45Z</time>
      </trkpt>
      <trkpt lat="47.90594" lon="6.85145">
        <ele>976.6</ele>
        <time>2022-09-13T14:20:46Z</time>
      </trkpt>
      <trkpt lat="47.90596" lon="6.85149">
        <ele>976.2</ele>
        <time>2022-09-13T14:20:47Z</time>
      </trkpt>
      <trkpt lat="47.90598" lon="6.85153">
        <ele>975.7</ele>
        <time>2022-09-13T14:20:48Z</time>
      </trkpt>
      <trkpt lat="47.90599" lon="6.85157">
        <ele>975.7</ele>
        <time>2022-09-13T14:20:49Z</time>
      </trkpt>
      <trkpt lat="47.90601" lon="6.8516">
        <ele>975.2</ele>
        <time>2022-09-13T14:20:50Z</time>
      </trkpt>
      <trkpt lat="47.90603" lon="6.85164">
        <ele>974.7</ele>
        <time>2022-09-13T14:20:51Z</time>
      </trkpt>
      <trkpt lat="47.90604" lon="6.85168">
        <ele>974.6</ele>
        <time>2022-09-13T14:20:52Z</time>
      </trkpt>
      <trkpt lat="47.90606" lon="6.85171">
        <ele>973.9</ele>
        <time>2022-09-13T14:20:53Z</time>
      </trkpt>
      <trkpt lat="47.90607" lon="6.85175">
        <ele>973.5</ele>
        <time>2022-09-13T14:20:54Z</time>
      </trkpt>
      <trkpt lat="47.90607" lon="6.8518">
        <ele>973.6</ele>
        <time>2022-09-13T14:20:55Z</time>
      </trkpt>
      <trkpt lat="47.90608" lon="6.85185">
        <ele>973.2</ele>
        <time>2022-09-13T14:20:56Z</time>
      </trkpt>
      <trkpt lat="47.90608" lon="6.85191">
        <ele>973.2</ele>
        <time>2022-09-13T14:20:57Z</time>
      </trkpt>
      <trkpt lat="47.90608" lon="6.85197">
        <ele>973</ele>
        <time>2022-09-13T14:20:58Z</time>
      </trkpt>
      <trkpt lat="47.90608" lon="6.85202">
        <ele>972.4</ele>
        <time>2022-09-13T14:20:59Z</time>
      </trkpt>
      <trkpt lat="47.90608" lon="6.85208">
        <ele>971.8</ele>
        <time>2022-09-13T14:21:00Z</time>
      </trkpt>
      <trkpt lat="47.90607" lon="6.85213">
        <ele>971.6</ele>
        <time>2022-09-13T14:21:01Z</time>
      </trkpt>
      <trkpt lat="47.90606" lon="6.85218">
        <ele>971.5</ele>
        <time>2022-09-13T14:21:02Z</time>
      </trkpt>
      <trkpt lat="47.90606" lon="6.85222">
        <ele>971</ele>
        <time>2022-09-13T14:21:03Z</time>
      </trkpt>
      <trkpt lat="47.90605" lon="6.85227">
        <ele>970.9</ele>
        <time>2022-09-13T14:21:04Z</time>
      </trkpt>
      <trkpt lat="47.90604" lon="6.85231">
        <ele>970.9</ele>
        <time>2022-09-13T14:21:05Z</time>
      </trkpt>
      <trkpt lat="47.90603" lon="6.85235">
        <ele>971</ele>
        <time>2022-09-13T14:21:06Z</time>
      </trkpt>
      <trkpt lat="47.90603" lon="6.85238">
        <ele>970.7</ele>
        <time>2022-09-13T14:21:07Z</time>
      </trkpt>
      <trkpt lat="47.90602" lon="6.85243">
        <ele>970.6</ele>
        <time>2022-09-13T14:21:08Z</time>
      </trkpt>
      <trkpt lat="47.90601" lon="6.85247">
        <ele>970.7</ele>
        <time>2022-09-13T14:21:09Z</time>
      </trkpt>
      <trkpt lat="47.906" lon="6.85252">
        <ele>970.4</ele>
        <time>2022-09-13T14:21:10Z</time>
      </trkpt>
      <trkpt lat="47.90599" lon="6.85256">
        <ele>970.1</ele>
        <time>2022-09-13T14:21:11Z</time>
      </trkpt>
      <trkpt lat="47.90599" lon="6.85261">
        <ele>969.1</ele>
        <time>2022-09-13T14:21:12Z</time>
      </trkpt>
      <trkpt lat="47.90598" lon="6.85265">
        <ele>968.7</ele>
        <time>2022-09-13T14:21:13Z</time>
      </trkpt>
      <trkpt lat="47.90597" lon="6.85269">
        <ele>968.3</ele>
        <time>2022-09-13T14:21:14Z</time>
      </trkpt>
      <trkpt lat="47.90595" lon="6.85273">
        <ele>968.3</ele>
        <time>2022-09-13T14:21:15Z</time>
      </trkpt>
      <trkpt lat="47.90594" lon="6.85276">
        <ele>968.1</ele>
        <time>2022-09-13T14:21:16Z</time>
      </trkpt>
      <trkpt lat="47.90592" lon="6.85279">
        <ele>968.3</ele>
        <time>2022-09-13T14:21:17Z</time>
      </trkpt>
      <trkpt lat="47.9059" lon="6.85281">
        <ele>968.5</ele>
        <time>2022-09-13T14:21:18Z</time>
      </trkpt>
      <trkpt lat="47.90589" lon="6.85283">
        <ele>968.4</ele>
        <time>2022-09-13T14:21:19Z</time>
      </trkpt>
      <trkpt lat="47.90588" lon="6.85286">
        <ele>967.9</ele>
        <time>2022-09-13T14:21:20Z</time>
      </trkpt>
      <trkpt lat="47.90586" lon="6.85289">
        <ele>967.8</ele>
        <time>2022-09-13T14:21:21Z</time>
      </trkpt>
      <trkpt lat="47.90584" lon="6.85295">
        <ele>966.8</ele>
        <time>2022-09-13T14:21:22Z</time>
      </trkpt>
      <trkpt lat="47.90583" lon="6.85299">
        <ele>966</ele>
        <time>2022-09-13T14:21:23Z</time>
      </trkpt>
      <trkpt lat="47.90582" lon="6.85302">
        <ele>965.5</ele>
        <time>2022-09-13T14:21:24Z</time>
      </trkpt>
      <trkpt lat="47.9058" lon="6.85306">
        <ele>965.2</ele>
        <time>2022-09-13T14:21:25Z</time>
      </trkpt>
      <trkpt lat="47.90579" lon="6.8531">
        <ele>964.8</ele>
        <time>2022-09-13T14:21:26Z</time>
      </trkpt>
      <trkpt lat="47.90578" lon="6.85314">
        <ele>964.3</ele>
        <time>2022-09-13T14:21:27Z</time>
      </trkpt>
      <trkpt lat="47.90578" lon="6.85316">
        <ele>963.9</ele>
        <time>2022-09-13T14:21:28Z</time>
      </trkpt>
      <trkpt lat="47.90577" lon="6.85319">
        <ele>963.6</ele>
        <time>2022-09-13T14:21:29Z</time>
      </trkpt>
      <trkpt lat="47.90575" lon="6.85324">
        <ele>963.3</ele>
        <time>2022-09-13T14:21:30Z</time>
      </trkpt>
      <trkpt lat="47.90573" lon="6.85328">
        <ele>963.2</ele>
        <time>2022-09-13T14:21:31Z</time>
      </trkpt>
      <trkpt lat="47.90571" lon="6.85331">
        <ele>963.4</ele>
        <time>2022-09-13T14:21:32Z</time>
      </trkpt>
      <trkpt lat="47.9057" lon="6.85335">
        <ele>962.9</ele>
        <time>2022-09-13T14:21:33Z</time>
      </trkpt>
      <trkpt lat="47.90568" lon="6.85338">
        <ele>963</ele>
        <time>2022-09-13T14:21:34Z</time>
      </trkpt>
      <trkpt lat="47.90566" lon="6.85341">
        <ele>963</ele>
        <time>2022-09-13T14:21:35Z</time>
      </trkpt>
      <trkpt lat="47.90565" lon="6.85343">
        <ele>962.9</ele>
        <time>2022-09-13T14:21:36Z</time>
      </trkpt>
      <trkpt lat="47.90564" lon="6.85345">
        <ele>962.8</ele>
        <time>2022-09-13T14:21:37Z</time>
      </trkpt>
      <trkpt lat="47.90563" lon="6.85347">
        <ele>962.7</ele>
        <time>2022-09-13T14:21:38Z</time>
      </trkpt>
      <trkpt lat="47.90561" lon="6.8535">
        <ele>962.8</ele>
        <time>2022-09-13T14:21:39Z</time>
      </trkpt>
      <trkpt lat="47.90559" lon="6.85352">
        <ele>963</ele>
        <time>2022-09-13T14:21:40Z</time>
      </trkpt>
      <trkpt lat="47.90557" lon="6.85354">
        <ele>963.3</ele>
        <time>2022-09-13T14:21:41Z</time>
      </trkpt>
      <trkpt lat="47.90556" lon="6.85356">
        <ele>963.1</ele>
        <time>2022-09-13T14:21:42Z</time>
      </trkpt>
      <trkpt lat="47.90554" lon="6.85358">
        <ele>963.3</ele>
        <time>2022-09-13T14:21:43Z</time>
      </trkpt>
      <trkpt lat="47.90552" lon="6.8536">
        <ele>963.4</ele>
        <time>2022-09-13T14:21:44Z</time>
      </trkpt>
      <trkpt lat="47.90551" lon="6.85362">
        <ele>963.3</ele>
        <time>2022-09-13T14:21:45Z</time>
      </trkpt>
      <trkpt lat="47.90549" lon="6.85365">
        <ele>963.5</ele>
        <time>2022-09-13T14:21:46Z</time>
      </trkpt>
      <trkpt lat="47.90548" lon="6.85367">
        <ele>963.4</ele>
        <time>2022-09-13T14:21:47Z</time>
      </trkpt>
      <trkpt lat="47.90547" lon="6.8537">
        <ele>963.3</ele>
        <time>2022-09-13T14:21:48Z</time>
      </trkpt>
      <trkpt lat="47.90547" lon="6.85372">
        <ele>962.9</ele>
        <time>2022-09-13T14:21:49Z</time>
      </trkpt>
      <trkpt lat="47.90547" lon="6.85375">
        <ele>962.4</ele>
        <time>2022-09-13T14:21:50Z</time>
      </trkpt>
      <trkpt lat="47.90548" lon="6.85377">
        <ele>961.7</ele>
        <time>2022-09-13T14:21:51Z</time>
      </trkpt>
      <trkpt lat="47.90549" lon="6.85378">
        <ele>961.2</ele>
        <time>2022-09-13T14:21:52Z</time>
      </trkpt>
      <trkpt lat="47.90549" lon="6.85379">
        <ele>961.1</ele>
        <time>2022-09-13T14:21:53Z</time>
      </trkpt>
      <trkpt lat="47.9055" lon="6.8538">
        <ele>960.5</ele>
        <time>2022-09-13T14:21:54Z</time>
      </trkpt>
      <trkpt lat="47.90551" lon="6.85379">
        <ele>960.4</ele>
        <time>2022-09-13T14:21:55Z</time>
      </trkpt>
      <trkpt lat="47.90553" lon="6.85379">
        <ele>959.7</ele>
        <time>2022-09-13T14:21:56Z</time>
      </trkpt>
      <trkpt lat="47.90554" lon="6.85378">
        <ele>959.5</ele>
        <time>2022-09-13T14:21:57Z</time>
      </trkpt>
      <trkpt lat="47.90557" lon="6.85375">
        <ele>959.1</ele>
        <time>2022-09-13T14:21:58Z</time>
      </trkpt>
      <trkpt lat="47.90559" lon="6.85373">
        <ele>958.8</ele>
        <time>2022-09-13T14:21:59Z</time>
      </trkpt>
      <trkpt lat="47.90562" lon="6.85368">
        <ele>958.6</ele>
        <time>2022-09-13T14:22:00Z</time>
      </trkpt>
      <trkpt lat="47.90564" lon="6.85365">
        <ele>958.4</ele>
        <time>2022-09-13T14:22:01Z</time>
      </trkpt>
      <trkpt lat="47.90566" lon="6.85362">
        <ele>958.1</ele>
        <time>2022-09-13T14:22:02Z</time>
      </trkpt>
      <trkpt lat="47.90568" lon="6.85359">
        <ele>958</ele>
        <time>2022-09-13T14:22:03Z</time>
      </trkpt>
      <trkpt lat="47.90568" lon="6.85357">
        <ele>958.5</ele>
        <time>2022-09-13T14:22:04Z</time>
      </trkpt>
      <trkpt lat="47.9057" lon="6.85354">
        <ele>958.5</ele>
        <time>2022-09-13T14:22:05Z</time>
      </trkpt>
      <trkpt lat="47.9057" lon="6.85352">
        <ele>958.9</ele>
        <time>2022-09-13T14:22:06Z</time>
      </trkpt>
      <trkpt lat="47.90571" lon="6.8535">
        <ele>959</ele>
        <time>2022-09-13T14:22:07Z</time>
      </trkpt>
      <trkpt lat="47.90571" lon="6.85349">
        <ele>959.2</ele>
        <time>2022-09-13T14:22:08Z</time>
      </trkpt>
      <trkpt lat="47.90572" lon="6.85347">
        <ele>959.3</ele>
        <time>2022-09-13T14:22:09Z</time>
      </trkpt>
      <trkpt lat="47.90573" lon="6.85346">
        <ele>959.2</ele>
        <time>2022-09-13T14:22:10Z</time>
      </trkpt>
      <trkpt lat="47.90573" lon="6.85345">
        <ele>959.4</ele>
        <time>2022-09-13T14:22:11Z</time>
      </trkpt>
      <trkpt lat="47.90574" lon="6.85344">
        <ele>959.3</ele>
        <time>2022-09-13T14:22:12Z</time>
      </trkpt>
      <trkpt lat="47.90575" lon="6.85342">
        <ele>959.3</ele>
        <time>2022-09-13T14:22:13Z</time>
      </trkpt>
      <trkpt lat="47.90576" lon="6.85341">
        <ele>959.2</ele>
        <time>2022-09-13T14:22:14Z</time>
      </trkpt>
      <trkpt lat="47.90578" lon="6.85337">
        <ele>959.3</ele>
        <time>2022-09-13T14:22:15Z</time>
      </trkpt>
      <trkpt lat="47.9058" lon="6.85334">
        <ele>959.2</ele>
        <time>2022-09-13T14:22:16Z</time>
      </trkpt>
      <trkpt lat="47.90581" lon="6.85332">
        <ele>959.2</ele>
        <time>2022-09-13T14:22:17Z</time>
      </trkpt>
      <trkpt lat="47.90583" lon="6.85329">
        <ele>959.1</ele>
        <time>2022-09-13T14:22:18Z</time>
      </trkpt>
      <trkpt lat="47.90584" lon="6.85326">
        <ele>959.4</ele>
        <time>2022-09-13T14:22:19Z</time>
      </trkpt>
      <trkpt lat="47.90586" lon="6.85323">
        <ele>959.6</ele>
        <time>2022-09-13T14:22:20Z</time>
      </trkpt>
      <trkpt lat="47.90588" lon="6.8532">
        <ele>959.8</ele>
        <time>2022-09-13T14:22:21Z</time>
      </trkpt>
      <trkpt lat="47.90589" lon="6.85318">
        <ele>960</ele>
        <time>2022-09-13T14:22:22Z</time>
      </trkpt>
      <trkpt lat="47.90591" lon="6.85316">
        <ele>959.8</ele>
        <time>2022-09-13T14:22:23Z</time>
      </trkpt>
      <trkpt lat="47.90593" lon="6.85315">
        <ele>959.5</ele>
        <time>2022-09-13T14:22:24Z</time>
      </trkpt>
      <trkpt lat="47.90594" lon="6.85314">
        <ele>959.5</ele>
        <time>2022-09-13T14:22:25Z</time>
      </trkpt>
      <trkpt lat="47.90596" lon="6.85313">
        <ele>959.1</ele>
        <time>2022-09-13T14:22:26Z</time>
      </trkpt>
      <trkpt lat="47.90598" lon="6.85312">
        <ele>958.8</ele>
        <time>2022-09-13T14:22:27Z</time>
      </trkpt>
      <trkpt lat="47.906" lon="6.85311">
        <ele>958.4</ele>
        <time>2022-09-13T14:22:28Z</time>
      </trkpt>
      <trkpt lat="47.90601" lon="6.8531">
        <ele>958.3</ele>
        <time>2022-09-13T14:22:29Z</time>
      </trkpt>
      <trkpt lat="47.90603" lon="6.8531">
        <ele>957.7</ele>
        <time>2022-09-13T14:22:30Z</time>
      </trkpt>
      <trkpt lat="47.90605" lon="6.8531">
        <ele>957.2</ele>
        <time>2022-09-13T14:22:31Z</time>
      </trkpt>
      <trkpt lat="47.90606" lon="6.8531">
        <ele>956.9</ele>
        <time>2022-09-13T14:22:32Z</time>
      </trkpt>
      <trkpt lat="47.90608" lon="6.85311">
        <ele>956.2</ele>
        <time>2022-09-13T14:22:33Z</time>
      </trkpt>
      <trkpt lat="47.90609" lon="6.85313">
        <ele>955.7</ele>
        <time>2022-09-13T14:22:34Z</time>
      </trkpt>
      <trkpt lat="47.90611" lon="6.85315">
        <ele>955</ele>
        <time>2022-09-13T14:22:35Z</time>
      </trkpt>
      <trkpt lat="47.90613" lon="6.85318">
        <ele>954.4</ele>
        <time>2022-09-13T14:22:36Z</time>
      </trkpt>
      <trkpt lat="47.90614" lon="6.8532">
        <ele>954</ele>
        <time>2022-09-13T14:22:37Z</time>
      </trkpt>
      <trkpt lat="47.90615" lon="6.85323">
        <ele>953.6</ele>
        <time>2022-09-13T14:22:38Z</time>
      </trkpt>
      <trkpt lat="47.90616" lon="6.85327">
        <ele>953.1</ele>
        <time>2022-09-13T14:22:39Z</time>
      </trkpt>
      <trkpt lat="47.90616" lon="6.8533">
        <ele>952.8</ele>
        <time>2022-09-13T14:22:40Z</time>
      </trkpt>
      <trkpt lat="47.90617" lon="6.85334">
        <ele>952.4</ele>
        <time>2022-09-13T14:22:41Z</time>
      </trkpt>
      <trkpt lat="47.90618" lon="6.85338">
        <ele>952.3</ele>
        <time>2022-09-13T14:22:42Z</time>
      </trkpt>
      <trkpt lat="47.90619" lon="6.85345">
        <ele>952.1</ele>
        <time>2022-09-13T14:22:43Z</time>
      </trkpt>
      <trkpt lat="47.90619" lon="6.8535">
        <ele>952.1</ele>
        <time>2022-09-13T14:22:44Z</time>
      </trkpt>
      <trkpt lat="47.9062" lon="6.85354">
        <ele>952</ele>
        <time>2022-09-13T14:22:45Z</time>
      </trkpt>
      <trkpt lat="47.9062" lon="6.85358">
        <ele>952</ele>
        <time>2022-09-13T14:22:46Z</time>
      </trkpt>
      <trkpt lat="47.90621" lon="6.85362">
        <ele>951.9</ele>
        <time>2022-09-13T14:22:47Z</time>
      </trkpt>
      <trkpt lat="47.90621" lon="6.85366">
        <ele>951.8</ele>
        <time>2022-09-13T14:22:48Z</time>
      </trkpt>
      <trkpt lat="47.90621" lon="6.85368">
        <ele>951.8</ele>
        <time>2022-09-13T14:22:49Z</time>
      </trkpt>
      <trkpt lat="47.90621" lon="6.8537">
        <ele>951.7</ele>
        <time>2022-09-13T14:22:50Z</time>
      </trkpt>
      <trkpt lat="47.90621" lon="6.85373">
        <ele>951.7</ele>
        <time>2022-09-13T14:22:51Z</time>
      </trkpt>
      <trkpt lat="47.90622" lon="6.85376">
        <ele>951.5</ele>
        <time>2022-09-13T14:22:52Z</time>
      </trkpt>
      <trkpt lat="47.90622" lon="6.85379">
        <ele>951.4</ele>
        <time>2022-09-13T14:22:53Z</time>
      </trkpt>
      <trkpt lat="47.90622" lon="6.85382">
        <ele>951.4</ele>
        <time>2022-09-13T14:22:54Z</time>
      </trkpt>
      <trkpt lat="47.90622" lon="6.85386">
        <ele>951.3</ele>
        <time>2022-09-13T14:22:55Z</time>
      </trkpt>
      <trkpt lat="47.90621" lon="6.85389">
        <ele>951.3</ele>
        <time>2022-09-13T14:22:56Z</time>
      </trkpt>
      <trkpt lat="47.90621" lon="6.85393">
        <ele>951.2</ele>
        <time>2022-09-13T14:22:57Z</time>
      </trkpt>
      <trkpt lat="47.90621" lon="6.85396">
        <ele>951.1</ele>
        <time>2022-09-13T14:22:58Z</time>
      </trkpt>
      <trkpt lat="47.9062" lon="6.85399">
        <ele>951.1</ele>
        <time>2022-09-13T14:22:59Z</time>
      </trkpt>
      <trkpt lat="47.90619" lon="6.85402">
        <ele>951.1</ele>
        <time>2022-09-13T14:23:00Z</time>
      </trkpt>
      <trkpt lat="47.90618" lon="6.85405">
        <ele>951.1</ele>
        <time>2022-09-13T14:23:01Z</time>
      </trkpt>
      <trkpt lat="47.90617" lon="6.85407">
        <ele>951.1</ele>
        <time>2022-09-13T14:23:02Z</time>
      </trkpt>
      <trkpt lat="47.90616" lon="6.85408">
        <ele>951.1</ele>
        <time>2022-09-13T14:23:03Z</time>
      </trkpt>
      <trkpt lat="47.90615" lon="6.85411">
        <ele>951</ele>
        <time>2022-09-13T14:23:04Z</time>
      </trkpt>
      <trkpt lat="47.90613" lon="6.85413">
        <ele>951.1</ele>
        <time>2022-09-13T14:23:05Z</time>
      </trkpt>
      <trkpt lat="47.90611" lon="6.85416">
        <ele>951</ele>
        <time>2022-09-13T14:23:06Z</time>
      </trkpt>
      <trkpt lat="47.9061" lon="6.85417">
        <ele>951</ele>
        <time>2022-09-13T14:23:07Z</time>
      </trkpt>
      <trkpt lat="47.90609" lon="6.85419">
        <ele>951</ele>
        <time>2022-09-13T14:23:08Z</time>
      </trkpt>
      <trkpt lat="47.90608" lon="6.8542">
        <ele>951</ele>
        <time>2022-09-13T14:23:09Z</time>
      </trkpt>
      <trkpt lat="47.90607" lon="6.85421">
        <ele>951</ele>
        <time>2022-09-13T14:23:17Z</time>
      </trkpt>
      <trkpt lat="47.90607" lon="6.85422">
        <ele>951</ele>
        <time>2022-09-13T14:23:18Z</time>
      </trkpt>
      <trkpt lat="47.90607" lon="6.85423">
        <ele>951</ele>
        <time>2022-09-13T14:23:19Z</time>
      </trkpt>
      <trkpt lat="47.90606" lon="6.85424">
        <ele>951</ele>
        <time>2022-09-13T14:23:20Z</time>
      </trkpt>
      <trkpt lat="47.90607" lon="6.85426">
        <ele>951</ele>
        <time>2022-09-13T14:23:21Z</time>
      </trkpt>
      <trkpt lat="47.90607" lon="6.85428">
        <ele>951</ele>
        <time>2022-09-13T14:23:22Z</time>
      </trkpt>
      <trkpt lat="47.90608" lon="6.85429">
        <ele>951</ele>
        <time>2022-09-13T14:23:23Z</time>
      </trkpt>
      <trkpt lat="47.90609" lon="6.85431">
        <ele>951</ele>
        <time>2022-09-13T14:23:24Z</time>
      </trkpt>
      <trkpt lat="47.9061" lon="6.85432">
        <ele>951</ele>
        <time>2022-09-13T14:23:25Z</time>
      </trkpt>
      <trkpt lat="47.90611" lon="6.85434">
        <ele>951</ele>
        <time>2022-09-13T14:23:26Z</time>
      </trkpt>
      <trkpt lat="47.90612" lon="6.85436">
        <ele>950.9</ele>
        <time>2022-09-13T14:23:27Z</time>
      </trkpt>
      <trkpt lat="47.90613" lon="6.85439">
        <ele>950.9</ele>
        <time>2022-09-13T14:23:28Z</time>
      </trkpt>
      <trkpt lat="47.90614" lon="6.85442">
        <ele>950.8</ele>
        <time>2022-09-13T14:23:29Z</time>
      </trkpt>
      <trkpt lat="47.90615" lon="6.85445">
        <ele>950.7</ele>
        <time>2022-09-13T14:23:30Z</time>
      </trkpt>
      <trkpt lat="47.90615" lon="6.85448">
        <ele>950.8</ele>
        <time>2022-09-13T14:23:31Z</time>
      </trkpt>
      <trkpt lat="47.90615" lon="6.85451">
        <ele>951</ele>
        <time>2022-09-13T14:23:32Z</time>
      </trkpt>
      <trkpt lat="47.90615" lon="6.85454">
        <ele>951.1</ele>
        <time>2022-09-13T14:23:33Z</time>
      </trkpt>
      <trkpt lat="47.90615" lon="6.85456">
        <ele>951.1</ele>
        <time>2022-09-13T14:23:34Z</time>
      </trkpt>
      <trkpt lat="47.90615" lon="6.85458">
        <ele>951.2</ele>
        <time>2022-09-13T14:23:35Z</time>
      </trkpt>
      <trkpt lat="47.90615" lon="6.8546">
        <ele>951.3</ele>
        <time>2022-09-13T14:23:36Z</time>
      </trkpt>
      <trkpt lat="47.90615" lon="6.85462">
        <ele>951.4</ele>
        <time>2022-09-13T14:23:37Z</time>
      </trkpt>
      <trkpt lat="47.90615" lon="6.85464">
        <ele>951.4</ele>
        <time>2022-09-13T14:23:56Z</time>
      </trkpt>
      <trkpt lat="47.90615" lon="6.85466">
        <ele>951.5</ele>
        <time>2022-09-13T14:23:57Z</time>
      </trkpt>
      <trkpt lat="47.90615" lon="6.85467">
        <ele>951.5</ele>
        <time>2022-09-13T14:23:58Z</time>
      </trkpt>
      <trkpt lat="47.90616" lon="6.85467">
        <ele>951.5</ele>
        <time>2022-09-13T14:23:59Z</time>
      </trkpt>
      <trkpt lat="47.90617" lon="6.85468">
        <ele>951.4</ele>
        <time>2022-09-13T14:24:00Z</time>
      </trkpt>
      <trkpt lat="47.90618" lon="6.85469">
        <ele>951.4</ele>
        <time>2022-09-13T14:24:01Z</time>
      </trkpt>
      <trkpt lat="47.90619" lon="6.85469">
        <ele>951.3</ele>
        <time>2022-09-13T14:24:02Z</time>
      </trkpt>
      <trkpt lat="47.9062" lon="6.8547">
        <ele>951.3</ele>
        <time>2022-09-13T14:24:03Z</time>
      </trkpt>
      <trkpt lat="47.90621" lon="6.85471">
        <ele>951.2</ele>
        <time>2022-09-13T14:24:04Z</time>
      </trkpt>
      <trkpt lat="47.90622" lon="6.85472">
        <ele>951.2</ele>
        <time>2022-09-13T14:24:05Z</time>
      </trkpt>
      <trkpt lat="47.90623" lon="6.85473">
        <ele>951.1</ele>
        <time>2022-09-13T14:24:06Z</time>
      </trkpt>
      <trkpt lat="47.90624" lon="6.85474">
        <ele>951.1</ele>
        <time>2022-09-13T14:24:07Z</time>
      </trkpt>
      <trkpt lat="47.90626" lon="6.85476">
        <ele>950.9</ele>
        <time>2022-09-13T14:24:08Z</time>
      </trkpt>
      <trkpt lat="47.90627" lon="6.85477">
        <ele>950.9</ele>
        <time>2022-09-13T14:24:09Z</time>
      </trkpt>
      <trkpt lat="47.90627" lon="6.85478">
        <ele>950.9</ele>
        <time>2022-09-13T14:24:10Z</time>
      </trkpt>
      <trkpt lat="47.90628" lon="6.8548">
        <ele>950.8</ele>
        <time>2022-09-13T14:24:11Z</time>
      </trkpt>
      <trkpt lat="47.90629" lon="6.85481">
        <ele>950.7</ele>
        <time>2022-09-13T14:24:12Z</time>
      </trkpt>
      <trkpt lat="47.9063" lon="6.85481">
        <ele>950.6</ele>
        <time>2022-09-13T14:24:13Z</time>
      </trkpt>
      <trkpt lat="47.90631" lon="6.85482">
        <ele>950.6</ele>
        <time>2022-09-13T14:24:14Z</time>
      </trkpt>
      <trkpt lat="47.90632" lon="6.85482">
        <ele>950.5</ele>
        <time>2022-09-13T14:24:15Z</time>
      </trkpt>
      <trkpt lat="47.90633" lon="6.85482">
        <ele>950.4</ele>
        <time>2022-09-13T14:24:16Z</time>
      </trkpt>
      <trkpt lat="47.90634" lon="6.85481">
        <ele>950.4</ele>
        <time>2022-09-13T14:24:27Z</time>
      </trkpt>
      <trkpt lat="47.90634" lon="6.8548">
        <ele>950.4</ele>
        <time>2022-09-13T14:24:28Z</time>
      </trkpt>
      <trkpt lat="47.90634" lon="6.85478">
        <ele>950.4</ele>
        <time>2022-09-13T14:24:30Z</time>
      </trkpt>
      <trkpt lat="47.90633" lon="6.85477">
        <ele>950.4</ele>
        <time>2022-09-13T14:24:31Z</time>
      </trkpt>
      <trkpt lat="47.90632" lon="6.85475">
        <ele>950.5</ele>
        <time>2022-09-13T14:24:32Z</time>
      </trkpt>
      <trkpt lat="47.90631" lon="6.85472">
        <ele>950.6</ele>
        <time>2022-09-13T14:24:33Z</time>
      </trkpt>
      <trkpt lat="47.9063" lon="6.85469">
        <ele>950.5</ele>
        <time>2022-09-13T14:24:34Z</time>
      </trkpt>
      <trkpt lat="47.9063" lon="6.85466">
        <ele>950.4</ele>
        <time>2022-09-13T14:24:35Z</time>
      </trkpt>
      <trkpt lat="47.90629" lon="6.85462">
        <ele>950.3</ele>
        <time>2022-09-13T14:24:36Z</time>
      </trkpt>
      <trkpt lat="47.90628" lon="6.85459">
        <ele>950.3</ele>
        <time>2022-09-13T14:24:37Z</time>
      </trkpt>
      <trkpt lat="47.90627" lon="6.85456">
        <ele>950.3</ele>
        <time>2022-09-13T14:24:38Z</time>
      </trkpt>
      <trkpt lat="47.90626" lon="6.85453">
        <ele>950.2</ele>
        <time>2022-09-13T14:24:39Z</time>
      </trkpt>
      <trkpt lat="47.90625" lon="6.8545">
        <ele>950.2</ele>
        <time>2022-09-13T14:24:40Z</time>
      </trkpt>
      <trkpt lat="47.90624" lon="6.85447">
        <ele>950.2</ele>
        <time>2022-09-13T14:24:41Z</time>
      </trkpt>
      <trkpt lat="47.90623" lon="6.85444">
        <ele>950.2</ele>
        <time>2022-09-13T14:24:42Z</time>
      </trkpt>
      <trkpt lat="47.90622" lon="6.8544">
        <ele>950.3</ele>
        <time>2022-09-13T14:24:43Z</time>
      </trkpt>
      <trkpt lat="47.90622" lon="6.85436">
        <ele>950.3</ele>
        <time>2022-09-13T14:24:44Z</time>
      </trkpt>
      <trkpt lat="47.90622" lon="6.8543">
        <ele>950.4</ele>
        <time>2022-09-13T14:24:45Z</time>
      </trkpt>
      <trkpt lat="47.90622" lon="6.85425">
        <ele>950.5</ele>
        <time>2022-09-13T14:24:46Z</time>
      </trkpt>
      <trkpt lat="47.90622" lon="6.85424">
        <ele>950.5</ele>
        <time>2022-09-13T14:24:47Z</time>
      </trkpt>
      <trkpt lat="47.90623" lon="6.85421">
        <ele>950.5</ele>
        <time>2022-09-13T14:24:48Z</time>
      </trkpt>
      <trkpt lat="47.90623" lon="6.85419">
        <ele>950.5</ele>
        <time>2022-09-13T14:24:49Z</time>
      </trkpt>
      <trkpt lat="47.90624" lon="6.85417">
        <ele>950.5</ele>
        <time>2022-09-13T14:24:50Z</time>
      </trkpt>
      <trkpt lat="47.90624" lon="6.85415">
        <ele>950.6</ele>
        <time>2022-09-13T14:24:51Z</time>
      </trkpt>
      <trkpt lat="47.90625" lon="6.85413">
        <ele>950.6</ele>
        <time>2022-09-13T14:24:52Z</time>
      </trkpt>
      <trkpt lat="47.90626" lon="6.85411">
        <ele>950.6</ele>
        <time>2022-09-13T14:24:53Z</time>
      </trkpt>
      <trkpt lat="47.90627" lon="6.85409">
        <ele>950.5</ele>
        <time>2022-09-13T14:24:54Z</time>
      </trkpt>
      <trkpt lat="47.90627" lon="6.85406">
        <ele>950.6</ele>
        <time>2022-09-13T14:24:55Z</time>
      </trkpt>
      <trkpt lat="47.90628" lon="6.85404">
        <ele>950.6</ele>
        <time>2022-09-13T14:24:56Z</time>
      </trkpt>
      <trkpt lat="47.90629" lon="6.85401">
        <ele>950.6</ele>
        <time>2022-09-13T14:24:57Z</time>
      </trkpt>
      <trkpt lat="47.90629" lon="6.85397">
        <ele>950.6</ele>
        <time>2022-09-13T14:24:58Z</time>
      </trkpt>
      <trkpt lat="47.9063" lon="6.85394">
        <ele>950.6</ele>
        <time>2022-09-13T14:24:59Z</time>
      </trkpt>
      <trkpt lat="47.90631" lon="6.8539">
        <ele>950.6</ele>
        <time>2022-09-13T14:25:00Z</time>
      </trkpt>
      <trkpt lat="47.90632" lon="6.85387">
        <ele>950.5</ele>
        <time>2022-09-13T14:25:01Z</time>
      </trkpt>
      <trkpt lat="47.90632" lon="6.85384">
        <ele>950.5</ele>
        <time>2022-09-13T14:25:02Z</time>
      </trkpt>
      <trkpt lat="47.90633" lon="6.85381">
        <ele>950.5</ele>
        <time>2022-09-13T14:25:03Z</time>
      </trkpt>
      <trkpt lat="47.90634" lon="6.85377">
        <ele>950.4</ele>
        <time>2022-09-13T14:25:04Z</time>
      </trkpt>
      <trkpt lat="47.90634" lon="6.85373">
        <ele>950.5</ele>
        <time>2022-09-13T14:25:05Z</time>
      </trkpt>
      <trkpt lat="47.90635" lon="6.8537">
        <ele>950.4</ele>
        <time>2022-09-13T14:25:06Z</time>
      </trkpt>
      <trkpt lat="47.90635" lon="6.85366">
        <ele>950.4</ele>
        <time>2022-09-13T14:25:07Z</time>
      </trkpt>
      <trkpt lat="47.90637" lon="6.8536">
        <ele>950.2</ele>
        <time>2022-09-13T14:25:08Z</time>
      </trkpt>
      <trkpt lat="47.90637" lon="6.85357">
        <ele>950.2</ele>
        <time>2022-09-13T14:25:09Z</time>
      </trkpt>
      <trkpt lat="47.90638" lon="6.85355">
        <ele>950.1</ele>
        <time>2022-09-13T14:25:10Z</time>
      </trkpt>
      <trkpt lat="47.90639" lon="6.85352">
        <ele>950</ele>
        <time>2022-09-13T14:25:11Z</time>
      </trkpt>
      <trkpt lat="47.9064" lon="6.85349">
        <ele>949.8</ele>
        <time>2022-09-13T14:25:12Z</time>
      </trkpt>
      <trkpt lat="47.90641" lon="6.85346">
        <ele>949.5</ele>
        <time>2022-09-13T14:25:13Z</time>
      </trkpt>
      <trkpt lat="47.90642" lon="6.85342">
        <ele>949.3</ele>
        <time>2022-09-13T14:25:14Z</time>
      </trkpt>
      <trkpt lat="47.90643" lon="6.85339">
        <ele>949.1</ele>
        <time>2022-09-13T14:25:15Z</time>
      </trkpt>
      <trkpt lat="47.90644" lon="6.85335">
        <ele>948.9</ele>
        <time>2022-09-13T14:25:16Z</time>
      </trkpt>
      <trkpt lat="47.90645" lon="6.85328">
        <ele>948.9</ele>
        <time>2022-09-13T14:25:17Z</time>
      </trkpt>
      <trkpt lat="47.90647" lon="6.85324">
        <ele>948.6</ele>
        <time>2022-09-13T14:25:18Z</time>
      </trkpt>
      <trkpt lat="47.90648" lon="6.8532">
        <ele>948.5</ele>
        <time>2022-09-13T14:25:19Z</time>
      </trkpt>
      <trkpt lat="47.90649" lon="6.85316">
        <ele>948.4</ele>
        <time>2022-09-13T14:25:20Z</time>
      </trkpt>
      <trkpt lat="47.90649" lon="6.85314">
        <ele>948.5</ele>
        <time>2022-09-13T14:25:21Z</time>
      </trkpt>
      <trkpt lat="47.9065" lon="6.85311">
        <ele>948.4</ele>
        <time>2022-09-13T14:25:22Z</time>
      </trkpt>
      <trkpt lat="47.90651" lon="6.85308">
        <ele>948.3</ele>
        <time>2022-09-13T14:25:23Z</time>
      </trkpt>
      <trkpt lat="47.90652" lon="6.85305">
        <ele>948.2</ele>
        <time>2022-09-13T14:25:24Z</time>
      </trkpt>
      <trkpt lat="47.90653" lon="6.85302">
        <ele>948.1</ele>
        <time>2022-09-13T14:25:25Z</time>
      </trkpt>
      <trkpt lat="47.90654" lon="6.85299">
        <ele>948</ele>
        <time>2022-09-13T14:25:26Z</time>
      </trkpt>
      <trkpt lat="47.90655" lon="6.85295">
        <ele>947.9</ele>
        <time>2022-09-13T14:25:27Z</time>
      </trkpt>
      <trkpt lat="47.90656" lon="6.85292">
        <ele>947.8</ele>
        <time>2022-09-13T14:25:28Z</time>
      </trkpt>
      <trkpt lat="47.90657" lon="6.85289">
        <ele>947.7</ele>
        <time>2022-09-13T14:25:29Z</time>
      </trkpt>
      <trkpt lat="47.90658" lon="6.85285">
        <ele>947.6</ele>
        <time>2022-09-13T14:25:30Z</time>
      </trkpt>
      <trkpt lat="47.90658" lon="6.85282">
        <ele>947.7</ele>
        <time>2022-09-13T14:25:31Z</time>
      </trkpt>
      <trkpt lat="47.9066" lon="6.85278">
        <ele>947.4</ele>
        <time>2022-09-13T14:25:32Z</time>
      </trkpt>
      <trkpt lat="47.90661" lon="6.85275">
        <ele>947.3</ele>
        <time>2022-09-13T14:25:33Z</time>
      </trkpt>
      <trkpt lat="47.90662" lon="6.85271">
        <ele>947.3</ele>
        <time>2022-09-13T14:25:34Z</time>
      </trkpt>
      <trkpt lat="47.90663" lon="6.85268">
        <ele>947.1</ele>
        <time>2022-09-13T14:25:35Z</time>
      </trkpt>
      <trkpt lat="47.90664" lon="6.85264">
        <ele>947.1</ele>
        <time>2022-09-13T14:25:36Z</time>
      </trkpt>
      <trkpt lat="47.90666" lon="6.85258">
        <ele>946.9</ele>
        <time>2022-09-13T14:25:37Z</time>
      </trkpt>
      <trkpt lat="47.90668" lon="6.85253">
        <ele>946.5</ele>
        <time>2022-09-13T14:25:38Z</time>
      </trkpt>
      <trkpt lat="47.90669" lon="6.85249">
        <ele>946.3</ele>
        <time>2022-09-13T14:25:39Z</time>
      </trkpt>
      <trkpt lat="47.9067" lon="6.85246">
        <ele>946.1</ele>
        <time>2022-09-13T14:25:40Z</time>
      </trkpt>
      <trkpt lat="47.90671" lon="6.85244">
        <ele>945.8</ele>
        <time>2022-09-13T14:25:41Z</time>
      </trkpt>
      <trkpt lat="47.90672" lon="6.85241">
        <ele>945.6</ele>
        <time>2022-09-13T14:25:42Z</time>
      </trkpt>
      <trkpt lat="47.90675" lon="6.85236">
        <ele>944.8</ele>
        <time>2022-09-13T14:25:43Z</time>
      </trkpt>
      <trkpt lat="47.90677" lon="6.85232">
        <ele>944.3</ele>
        <time>2022-09-13T14:25:44Z</time>
      </trkpt>
      <trkpt lat="47.90678" lon="6.85229">
        <ele>944.1</ele>
        <time>2022-09-13T14:25:45Z</time>
      </trkpt>
      <trkpt lat="47.90679" lon="6.85227">
        <ele>943.8</ele>
        <time>2022-09-13T14:25:46Z</time>
      </trkpt>
      <trkpt lat="47.9068" lon="6.85225">
        <ele>943.6</ele>
        <time>2022-09-13T14:25:47Z</time>
      </trkpt>
      <trkpt lat="47.90681" lon="6.85222">
        <ele>943.4</ele>
        <time>2022-09-13T14:25:48Z</time>
      </trkpt>
      <trkpt lat="47.90682" lon="6.85219">
        <ele>943</ele>
        <time>2022-09-13T14:25:49Z</time>
      </trkpt>
      <trkpt lat="47.90683" lon="6.85216">
        <ele>942.7</ele>
        <time>2022-09-13T14:25:50Z</time>
      </trkpt>
      <trkpt lat="47.90684" lon="6.85213">
        <ele>942.4</ele>
        <time>2022-09-13T14:25:51Z</time>
      </trkpt>
      <trkpt lat="47.90685" lon="6.8521">
        <ele>942.1</ele>
        <time>2022-09-13T14:25:52Z</time>
      </trkpt>
      <trkpt lat="47.90685" lon="6.85207">
        <ele>942.1</ele>
        <time>2022-09-13T14:25:53Z</time>
      </trkpt>
      <trkpt lat="47.90686" lon="6.85204">
        <ele>941.7</ele>
        <time>2022-09-13T14:25:54Z</time>
      </trkpt>
      <trkpt lat="47.90686" lon="6.85201">
        <ele>941.7</ele>
        <time>2022-09-13T14:25:55Z</time>
      </trkpt>
      <trkpt lat="47.90687" lon="6.85198">
        <ele>941.4</ele>
        <time>2022-09-13T14:25:56Z</time>
      </trkpt>
      <trkpt lat="47.90688" lon="6.85195">
        <ele>941.1</ele>
        <time>2022-09-13T14:25:57Z</time>
      </trkpt>
      <trkpt lat="47.90688" lon="6.85192">
        <ele>941</ele>
        <time>2022-09-13T14:25:58Z</time>
      </trkpt>
      <trkpt lat="47.90689" lon="6.85189">
        <ele>940.6</ele>
        <time>2022-09-13T14:25:59Z</time>
      </trkpt>
      <trkpt lat="47.9069" lon="6.85186">
        <ele>940.2</ele>
        <time>2022-09-13T14:26:00Z</time>
      </trkpt>
      <trkpt lat="47.9069" lon="6.85183">
        <ele>940.2</ele>
        <time>2022-09-13T14:26:01Z</time>
      </trkpt>
      <trkpt lat="47.90691" lon="6.85179">
        <ele>939.7</ele>
        <time>2022-09-13T14:26:02Z</time>
      </trkpt>
      <trkpt lat="47.90692" lon="6.85176">
        <ele>939.2</ele>
        <time>2022-09-13T14:26:03Z</time>
      </trkpt>
      <trkpt lat="47.90693" lon="6.85173">
        <ele>938.8</ele>
        <time>2022-09-13T14:26:04Z</time>
      </trkpt>
      <trkpt lat="47.90693" lon="6.8517">
        <ele>938.7</ele>
        <time>2022-09-13T14:26:05Z</time>
      </trkpt>
      <trkpt lat="47.90694" lon="6.85167">
        <ele>938.2</ele>
        <time>2022-09-13T14:26:06Z</time>
      </trkpt>
      <trkpt lat="47.90695" lon="6.85164">
        <ele>937.8</ele>
        <time>2022-09-13T14:26:07Z</time>
      </trkpt>
      <trkpt lat="47.90696" lon="6.85161">
        <ele>937.5</ele>
        <time>2022-09-13T14:26:08Z</time>
      </trkpt>
      <trkpt lat="47.90696" lon="6.85159">
        <ele>937.5</ele>
        <time>2022-09-13T14:26:09Z</time>
      </trkpt>
      <trkpt lat="47.90697" lon="6.85156">
        <ele>937.2</ele>
        <time>2022-09-13T14:26:10Z</time>
      </trkpt>
      <trkpt lat="47.90697" lon="6.85153">
        <ele>937.2</ele>
        <time>2022-09-13T14:26:11Z</time>
      </trkpt>
      <trkpt lat="47.90698" lon="6.8515">
        <ele>936.8</ele>
        <time>2022-09-13T14:26:12Z</time>
      </trkpt>
      <trkpt lat="47.90698" lon="6.85146">
        <ele>936.8</ele>
        <time>2022-09-13T14:26:13Z</time>
      </trkpt>
      <trkpt lat="47.90698" lon="6.85143">
        <ele>936.8</ele>
        <time>2022-09-13T14:26:14Z</time>
      </trkpt>
      <trkpt lat="47.90699" lon="6.85139">
        <ele>936.5</ele>
        <time>2022-09-13T14:26:15Z</time>
      </trkpt>
      <trkpt lat="47.90699" lon="6.85136">
        <ele>936.2</ele>
        <time>2022-09-13T14:26:16Z</time>
      </trkpt>
      <trkpt lat="47.90699" lon="6.85132">
        <ele>935.8</ele>
        <time>2022-09-13T14:26:17Z</time>
      </trkpt>
      <trkpt lat="47.90699" lon="6.85129">
        <ele>935.5</ele>
        <time>2022-09-13T14:26:18Z</time>
      </trkpt>
      <trkpt lat="47.90698" lon="6.85125">
        <ele>935.4</ele>
        <time>2022-09-13T14:26:19Z</time>
      </trkpt>
      <trkpt lat="47.90698" lon="6.85122">
        <ele>935.1</ele>
        <time>2022-09-13T14:26:20Z</time>
      </trkpt>
      <trkpt lat="47.90698" lon="6.85118">
        <ele>934.7</ele>
        <time>2022-09-13T14:26:21Z</time>
      </trkpt>
      <trkpt lat="47.90698" lon="6.85115">
        <ele>934.4</ele>
        <time>2022-09-13T14:26:22Z</time>
      </trkpt>
      <trkpt lat="47.90697" lon="6.85111">
        <ele>934.3</ele>
        <time>2022-09-13T14:26:23Z</time>
      </trkpt>
      <trkpt lat="47.90697" lon="6.85107">
        <ele>934</ele>
        <time>2022-09-13T14:26:24Z</time>
      </trkpt>
      <trkpt lat="47.90696" lon="6.85101">
        <ele>933.8</ele>
        <time>2022-09-13T14:26:25Z</time>
      </trkpt>
      <trkpt lat="47.90696" lon="6.85098">
        <ele>933.6</ele>
        <time>2022-09-13T14:26:26Z</time>
      </trkpt>
      <trkpt lat="47.90696" lon="6.85093">
        <ele>933.2</ele>
        <time>2022-09-13T14:26:27Z</time>
      </trkpt>
      <trkpt lat="47.90696" lon="6.85091">
        <ele>933.1</ele>
        <time>2022-09-13T14:26:28Z</time>
      </trkpt>
      <trkpt lat="47.90696" lon="6.85088">
        <ele>932.8</ele>
        <time>2022-09-13T14:26:29Z</time>
      </trkpt>
      <trkpt lat="47.90696" lon="6.85086">
        <ele>932.7</ele>
        <time>2022-09-13T14:26:30Z</time>
      </trkpt>
      <trkpt lat="47.90696" lon="6.85084">
        <ele>932.5</ele>
        <time>2022-09-13T14:26:31Z</time>
      </trkpt>
      <trkpt lat="47.90696" lon="6.85082">
        <ele>932.3</ele>
        <time>2022-09-13T14:26:32Z</time>
      </trkpt>
      <trkpt lat="47.90696" lon="6.85078">
        <ele>931.9</ele>
        <time>2022-09-13T14:26:33Z</time>
      </trkpt>
      <trkpt lat="47.90696" lon="6.85074">
        <ele>931.5</ele>
        <time>2022-09-13T14:26:34Z</time>
      </trkpt>
      <trkpt lat="47.90696" lon="6.8507">
        <ele>931</ele>
        <time>2022-09-13T14:26:35Z</time>
      </trkpt>
      <trkpt lat="47.90696" lon="6.85066">
        <ele>930.6</ele>
        <time>2022-09-13T14:26:36Z</time>
      </trkpt>
      <trkpt lat="47.90696" lon="6.85063">
        <ele>930.3</ele>
        <time>2022-09-13T14:26:37Z</time>
      </trkpt>
      <trkpt lat="47.90695" lon="6.85059">
        <ele>930.2</ele>
        <time>2022-09-13T14:26:38Z</time>
      </trkpt>
      <trkpt lat="47.90695" lon="6.85055">
        <ele>929.8</ele>
        <time>2022-09-13T14:26:39Z</time>
      </trkpt>
      <trkpt lat="47.90695" lon="6.85052">
        <ele>929.5</ele>
        <time>2022-09-13T14:26:40Z</time>
      </trkpt>
      <trkpt lat="47.90695" lon="6.85049">
        <ele>929.3</ele>
        <time>2022-09-13T14:26:41Z</time>
      </trkpt>
      <trkpt lat="47.90695" lon="6.85046">
        <ele>929.1</ele>
        <time>2022-09-13T14:26:42Z</time>
      </trkpt>
      <trkpt lat="47.90695" lon="6.85043">
        <ele>928.9</ele>
        <time>2022-09-13T14:26:43Z</time>
      </trkpt>
      <trkpt lat="47.90695" lon="6.85039">
        <ele>928.6</ele>
        <time>2022-09-13T14:26:44Z</time>
      </trkpt>
      <trkpt lat="47.90695" lon="6.85035">
        <ele>928.3</ele>
        <time>2022-09-13T14:26:45Z</time>
      </trkpt>
      <trkpt lat="47.90695" lon="6.85031">
        <ele>928</ele>
        <time>2022-09-13T14:26:46Z</time>
      </trkpt>
      <trkpt lat="47.90694" lon="6.85024">
        <ele>927.6</ele>
        <time>2022-09-13T14:26:47Z</time>
      </trkpt>
      <trkpt lat="47.90693" lon="6.85019">
        <ele>927.2</ele>
        <time>2022-09-13T14:26:48Z</time>
      </trkpt>
      <trkpt lat="47.90692" lon="6.85015">
        <ele>927</ele>
        <time>2022-09-13T14:26:49Z</time>
      </trkpt>
      <trkpt lat="47.90691" lon="6.8501">
        <ele>926.6</ele>
        <time>2022-09-13T14:26:50Z</time>
      </trkpt>
      <trkpt lat="47.9069" lon="6.85006">
        <ele>926.4</ele>
        <time>2022-09-13T14:26:51Z</time>
      </trkpt>
      <trkpt lat="47.90688" lon="6.85001">
        <ele>926.5</ele>
        <time>2022-09-13T14:26:52Z</time>
      </trkpt>
      <trkpt lat="47.90687" lon="6.84996">
        <ele>926</ele>
        <time>2022-09-13T14:26:53Z</time>
      </trkpt>
      <trkpt lat="47.90685" lon="6.8499">
        <ele>925.7</ele>
        <time>2022-09-13T14:26:54Z</time>
      </trkpt>
      <trkpt lat="47.90683" lon="6.84984">
        <ele>925.5</ele>
        <time>2022-09-13T14:26:55Z</time>
      </trkpt>
      <trkpt lat="47.90681" lon="6.84979">
        <ele>925.4</ele>
        <time>2022-09-13T14:26:56Z</time>
      </trkpt>
      <trkpt lat="47.90679" lon="6.84973">
        <ele>925.2</ele>
        <time>2022-09-13T14:26:57Z</time>
      </trkpt>
      <trkpt lat="47.90677" lon="6.84968">
        <ele>925.1</ele>
        <time>2022-09-13T14:26:58Z</time>
      </trkpt>
      <trkpt lat="47.90676" lon="6.84963">
        <ele>924.4</ele>
        <time>2022-09-13T14:26:59Z</time>
      </trkpt>
      <trkpt lat="47.90674" lon="6.84958">
        <ele>924.2</ele>
        <time>2022-09-13T14:27:00Z</time>
      </trkpt>
      <trkpt lat="47.90672" lon="6.84954">
        <ele>924.1</ele>
        <time>2022-09-13T14:27:01Z</time>
      </trkpt>
      <trkpt lat="47.9067" lon="6.84949">
        <ele>923.8</ele>
        <time>2022-09-13T14:27:02Z</time>
      </trkpt>
      <trkpt lat="47.90668" lon="6.84945">
        <ele>923.6</ele>
        <time>2022-09-13T14:27:03Z</time>
      </trkpt>
      <trkpt lat="47.90665" lon="6.84941">
        <ele>924</ele>
        <time>2022-09-13T14:27:04Z</time>
      </trkpt>
      <trkpt lat="47.90662" lon="6.84937">
        <ele>924.4</ele>
        <time>2022-09-13T14:27:05Z</time>
      </trkpt>
      <trkpt lat="47.90659" lon="6.84933">
        <ele>924.7</ele>
        <time>2022-09-13T14:27:06Z</time>
      </trkpt>
      <trkpt lat="47.90656" lon="6.8493">
        <ele>925.2</ele>
        <time>2022-09-13T14:27:07Z</time>
      </trkpt>
      <trkpt lat="47.90654" lon="6.84927">
        <ele>925.3</ele>
        <time>2022-09-13T14:27:08Z</time>
      </trkpt>
      <trkpt lat="47.90651" lon="6.84923">
        <ele>925.5</ele>
        <time>2022-09-13T14:27:09Z</time>
      </trkpt>
      <trkpt lat="47.90648" lon="6.8492">
        <ele>925.8</ele>
        <time>2022-09-13T14:27:10Z</time>
      </trkpt>
      <trkpt lat="47.90645" lon="6.84917">
        <ele>926.1</ele>
        <time>2022-09-13T14:27:11Z</time>
      </trkpt>
      <trkpt lat="47.90642" lon="6.84913">
        <ele>926.1</ele>
        <time>2022-09-13T14:27:12Z</time>
      </trkpt>
      <trkpt lat="47.90639" lon="6.8491">
        <ele>926.3</ele>
        <time>2022-09-13T14:27:13Z</time>
      </trkpt>
      <trkpt lat="47.90636" lon="6.84907">
        <ele>926.5</ele>
        <time>2022-09-13T14:27:14Z</time>
      </trkpt>
      <trkpt lat="47.90634" lon="6.84903">
        <ele>926.1</ele>
        <time>2022-09-13T14:27:15Z</time>
      </trkpt>
      <trkpt lat="47.90631" lon="6.84899">
        <ele>925.9</ele>
        <time>2022-09-13T14:27:16Z</time>
      </trkpt>
      <trkpt lat="47.90629" lon="6.84895">
        <ele>925.5</ele>
        <time>2022-09-13T14:27:17Z</time>
      </trkpt>
      <trkpt lat="47.90626" lon="6.84891">
        <ele>925.3</ele>
        <time>2022-09-13T14:27:18Z</time>
      </trkpt>
      <trkpt lat="47.90624" lon="6.84887">
        <ele>925.1</ele>
        <time>2022-09-13T14:27:19Z</time>
      </trkpt>
      <trkpt lat="47.90622" lon="6.84882">
        <ele>925.1</ele>
        <time>2022-09-13T14:27:20Z</time>
      </trkpt>
      <trkpt lat="47.9062" lon="6.84877">
        <ele>925.2</ele>
        <time>2022-09-13T14:27:21Z</time>
      </trkpt>
      <trkpt lat="47.90619" lon="6.84873">
        <ele>925</ele>
        <time>2022-09-13T14:27:22Z</time>
      </trkpt>
      <trkpt lat="47.90617" lon="6.84868">
        <ele>925</ele>
        <time>2022-09-13T14:27:23Z</time>
      </trkpt>
      <trkpt lat="47.90616" lon="6.84863">
        <ele>924.8</ele>
        <time>2022-09-13T14:27:24Z</time>
      </trkpt>
      <trkpt lat="47.90615" lon="6.84858">
        <ele>924.9</ele>
        <time>2022-09-13T14:27:25Z</time>
      </trkpt>
      <trkpt lat="47.90615" lon="6.84853">
        <ele>924.9</ele>
        <time>2022-09-13T14:27:26Z</time>
      </trkpt>
      <trkpt lat="47.90614" lon="6.84848">
        <ele>925.2</ele>
        <time>2022-09-13T14:27:27Z</time>
      </trkpt>
      <trkpt lat="47.90614" lon="6.84843">
        <ele>925.2</ele>
        <time>2022-09-13T14:27:28Z</time>
      </trkpt>
      <trkpt lat="47.90613" lon="6.84838">
        <ele>925.5</ele>
        <time>2022-09-13T14:27:29Z</time>
      </trkpt>
      <trkpt lat="47.90613" lon="6.84833">
        <ele>925.5</ele>
        <time>2022-09-13T14:27:30Z</time>
      </trkpt>
      <trkpt lat="47.90612" lon="6.84827">
        <ele>925.3</ele>
        <time>2022-09-13T14:27:31Z</time>
      </trkpt>
      <trkpt lat="47.90612" lon="6.84822">
        <ele>925</ele>
        <time>2022-09-13T14:27:32Z</time>
      </trkpt>
      <trkpt lat="47.90612" lon="6.84816">
        <ele>924.5</ele>
        <time>2022-09-13T14:27:33Z</time>
      </trkpt>
      <trkpt lat="47.90612" lon="6.84811">
        <ele>924.2</ele>
        <time>2022-09-13T14:27:34Z</time>
      </trkpt>
      <trkpt lat="47.90613" lon="6.84806">
        <ele>923.6</ele>
        <time>2022-09-13T14:27:35Z</time>
      </trkpt>
      <trkpt lat="47.90614" lon="6.84801">
        <ele>924.1</ele>
        <time>2022-09-13T14:27:36Z</time>
      </trkpt>
      <trkpt lat="47.90616" lon="6.84796">
        <ele>924.4</ele>
        <time>2022-09-13T14:27:37Z</time>
      </trkpt>
      <trkpt lat="47.90618" lon="6.84792">
        <ele>924.7</ele>
        <time>2022-09-13T14:27:38Z</time>
      </trkpt>
      <trkpt lat="47.9062" lon="6.84787">
        <ele>925.2</ele>
        <time>2022-09-13T14:27:39Z</time>
      </trkpt>
      <trkpt lat="47.90623" lon="6.84784">
        <ele>925.2</ele>
        <time>2022-09-13T14:27:40Z</time>
      </trkpt>
      <trkpt lat="47.90626" lon="6.84781">
        <ele>925.3</ele>
        <time>2022-09-13T14:27:41Z</time>
      </trkpt>
      <trkpt lat="47.90629" lon="6.84778">
        <ele>925.4</ele>
        <time>2022-09-13T14:27:42Z</time>
      </trkpt>
      <trkpt lat="47.90632" lon="6.84776">
        <ele>925.5</ele>
        <time>2022-09-13T14:27:43Z</time>
      </trkpt>
      <trkpt lat="47.90635" lon="6.84774">
        <ele>925.7</ele>
        <time>2022-09-13T14:27:44Z</time>
      </trkpt>
      <trkpt lat="47.90639" lon="6.84773">
        <ele>925.5</ele>
        <time>2022-09-13T14:27:45Z</time>
      </trkpt>
      <trkpt lat="47.90642" lon="6.84772">
        <ele>925.8</ele>
        <time>2022-09-13T14:27:46Z</time>
      </trkpt>
      <trkpt lat="47.90646" lon="6.84771">
        <ele>926</ele>
        <time>2022-09-13T14:27:47Z</time>
      </trkpt>
      <trkpt lat="47.90649" lon="6.8477">
        <ele>926.3</ele>
        <time>2022-09-13T14:27:48Z</time>
      </trkpt>
      <trkpt lat="47.90653" lon="6.84769">
        <ele>926.5</ele>
        <time>2022-09-13T14:27:49Z</time>
      </trkpt>
      <trkpt lat="47.90656" lon="6.84768">
        <ele>926.8</ele>
        <time>2022-09-13T14:27:50Z</time>
      </trkpt>
      <trkpt lat="47.9066" lon="6.84767">
        <ele>927</ele>
        <time>2022-09-13T14:27:51Z</time>
      </trkpt>
      <trkpt lat="47.90663" lon="6.84766">
        <ele>927.3</ele>
        <time>2022-09-13T14:27:52Z</time>
      </trkpt>
      <trkpt lat="47.90666" lon="6.84765">
        <ele>927.6</ele>
        <time>2022-09-13T14:27:53Z</time>
      </trkpt>
      <trkpt lat="47.9067" lon="6.84764">
        <ele>927.5</ele>
        <time>2022-09-13T14:27:54Z</time>
      </trkpt>
      <trkpt lat="47.90673" lon="6.84762">
        <ele>927.9</ele>
        <time>2022-09-13T14:27:55Z</time>
      </trkpt>
      <trkpt lat="47.90676" lon="6.84761">
        <ele>927.8</ele>
        <time>2022-09-13T14:27:56Z</time>
      </trkpt>
      <trkpt lat="47.90679" lon="6.84759">
        <ele>928.1</ele>
        <time>2022-09-13T14:27:57Z</time>
      </trkpt>
      <trkpt lat="47.90682" lon="6.84757">
        <ele>928.4</ele>
        <time>2022-09-13T14:27:58Z</time>
      </trkpt>
      <trkpt lat="47.90685" lon="6.84755">
        <ele>928.7</ele>
        <time>2022-09-13T14:27:59Z</time>
      </trkpt>
      <trkpt lat="47.90689" lon="6.84752">
        <ele>929.1</ele>
        <time>2022-09-13T14:28:00Z</time>
      </trkpt>
      <trkpt lat="47.90692" lon="6.8475">
        <ele>929.4</ele>
        <time>2022-09-13T14:28:01Z</time>
      </trkpt>
      <trkpt lat="47.90695" lon="6.84747">
        <ele>929.6</ele>
        <time>2022-09-13T14:28:02Z</time>
      </trkpt>
      <trkpt lat="47.90698" lon="6.84744">
        <ele>929.3</ele>
        <time>2022-09-13T14:28:03Z</time>
      </trkpt>
      <trkpt lat="47.90701" lon="6.8474">
        <ele>929.2</ele>
        <time>2022-09-13T14:28:04Z</time>
      </trkpt>
      <trkpt lat="47.90703" lon="6.84737">
        <ele>929.2</ele>
        <time>2022-09-13T14:28:05Z</time>
      </trkpt>
      <trkpt lat="47.90706" lon="6.84733">
        <ele>929</ele>
        <time>2022-09-13T14:28:06Z</time>
      </trkpt>
      <trkpt lat="47.90708" lon="6.84729">
        <ele>929.2</ele>
        <time>2022-09-13T14:28:07Z</time>
      </trkpt>
      <trkpt lat="47.9071" lon="6.84725">
        <ele>929.3</ele>
        <time>2022-09-13T14:28:08Z</time>
      </trkpt>
      <trkpt lat="47.90711" lon="6.84721">
        <ele>929.5</ele>
        <time>2022-09-13T14:28:09Z</time>
      </trkpt>
      <trkpt lat="47.90713" lon="6.84716">
        <ele>929.1</ele>
        <time>2022-09-13T14:28:10Z</time>
      </trkpt>
      <trkpt lat="47.90714" lon="6.84711">
        <ele>929.1</ele>
        <time>2022-09-13T14:28:11Z</time>
      </trkpt>
      <trkpt lat="47.90715" lon="6.84707">
        <ele>929</ele>
        <time>2022-09-13T14:28:12Z</time>
      </trkpt>
      <trkpt lat="47.90716" lon="6.84702">
        <ele>928.9</ele>
        <time>2022-09-13T14:28:13Z</time>
      </trkpt>
      <trkpt lat="47.90717" lon="6.84697">
        <ele>928.9</ele>
        <time>2022-09-13T14:28:14Z</time>
      </trkpt>
      <trkpt lat="47.90717" lon="6.84693">
        <ele>929.1</ele>
        <time>2022-09-13T14:28:15Z</time>
      </trkpt>
      <trkpt lat="47.90717" lon="6.84688">
        <ele>929.3</ele>
        <time>2022-09-13T14:28:16Z</time>
      </trkpt>
      <trkpt lat="47.90718" lon="6.84683">
        <ele>929.1</ele>
        <time>2022-09-13T14:28:17Z</time>
      </trkpt>
      <trkpt lat="47.90718" lon="6.84678">
        <ele>929.3</ele>
        <time>2022-09-13T14:28:18Z</time>
      </trkpt>
      <trkpt lat="47.90718" lon="6.84674">
        <ele>929.4</ele>
        <time>2022-09-13T14:28:19Z</time>
      </trkpt>
      <trkpt lat="47.90718" lon="6.84669">
        <ele>929.6</ele>
        <time>2022-09-13T14:28:20Z</time>
      </trkpt>
      <trkpt lat="47.90717" lon="6.84664">
        <ele>930.1</ele>
        <time>2022-09-13T14:28:21Z</time>
      </trkpt>
      <trkpt lat="47.90717" lon="6.84659">
        <ele>930.1</ele>
        <time>2022-09-13T14:28:22Z</time>
      </trkpt>
      <trkpt lat="47.90716" lon="6.84655">
        <ele>930.6</ele>
        <time>2022-09-13T14:28:23Z</time>
      </trkpt>
      <trkpt lat="47.90715" lon="6.8465">
        <ele>931</ele>
        <time>2022-09-13T14:28:24Z</time>
      </trkpt>
      <trkpt lat="47.90715" lon="6.84646">
        <ele>931.1</ele>
        <time>2022-09-13T14:28:25Z</time>
      </trkpt>
      <trkpt lat="47.90715" lon="6.84641">
        <ele>931.1</ele>
        <time>2022-09-13T14:28:26Z</time>
      </trkpt>
      <trkpt lat="47.90714" lon="6.84637">
        <ele>931.5</ele>
        <time>2022-09-13T14:28:27Z</time>
      </trkpt>
      <trkpt lat="47.90714" lon="6.84633">
        <ele>931.3</ele>
        <time>2022-09-13T14:28:28Z</time>
      </trkpt>
      <trkpt lat="47.90713" lon="6.84628">
        <ele>931.6</ele>
        <time>2022-09-13T14:28:29Z</time>
      </trkpt>
      <trkpt lat="47.90713" lon="6.84623">
        <ele>931.4</ele>
        <time>2022-09-13T14:28:30Z</time>
      </trkpt>
      <trkpt lat="47.90712" lon="6.84619">
        <ele>931.7</ele>
        <time>2022-09-13T14:28:31Z</time>
      </trkpt>
      <trkpt lat="47.90711" lon="6.84615">
        <ele>932</ele>
        <time>2022-09-13T14:28:32Z</time>
      </trkpt>
      <trkpt lat="47.9071" lon="6.8461">
        <ele>932.2</ele>
        <time>2022-09-13T14:28:33Z</time>
      </trkpt>
      <trkpt lat="47.9071" lon="6.84606">
        <ele>931.9</ele>
        <time>2022-09-13T14:28:34Z</time>
      </trkpt>
      <trkpt lat="47.90709" lon="6.84602">
        <ele>932.1</ele>
        <time>2022-09-13T14:28:35Z</time>
      </trkpt>
      <trkpt lat="47.90708" lon="6.84598">
        <ele>932.2</ele>
        <time>2022-09-13T14:28:36Z</time>
      </trkpt>
      <trkpt lat="47.90707" lon="6.84594">
        <ele>932.3</ele>
        <time>2022-09-13T14:28:37Z</time>
      </trkpt>
      <trkpt lat="47.90706" lon="6.84589">
        <ele>932.4</ele>
        <time>2022-09-13T14:28:38Z</time>
      </trkpt>
      <trkpt lat="47.90705" lon="6.84585">
        <ele>932.6</ele>
        <time>2022-09-13T14:28:39Z</time>
      </trkpt>
      <trkpt lat="47.90704" lon="6.84581">
        <ele>932.6</ele>
        <time>2022-09-13T14:28:40Z</time>
      </trkpt>
      <trkpt lat="47.90703" lon="6.84576">
        <ele>932.6</ele>
        <time>2022-09-13T14:28:41Z</time>
      </trkpt>
      <trkpt lat="47.90702" lon="6.84572">
        <ele>932.6</ele>
        <time>2022-09-13T14:28:42Z</time>
      </trkpt>
      <trkpt lat="47.90701" lon="6.84567">
        <ele>932.5</ele>
        <time>2022-09-13T14:28:43Z</time>
      </trkpt>
      <trkpt lat="47.907" lon="6.84563">
        <ele>932.6</ele>
        <time>2022-09-13T14:28:44Z</time>
      </trkpt>
      <trkpt lat="47.90698" lon="6.84559">
        <ele>932.9</ele>
        <time>2022-09-13T14:28:45Z</time>
      </trkpt>
      <trkpt lat="47.90697" lon="6.84554">
        <ele>932.9</ele>
        <time>2022-09-13T14:28:46Z</time>
      </trkpt>
      <trkpt lat="47.90696" lon="6.8455">
        <ele>933.2</ele>
        <time>2022-09-13T14:28:47Z</time>
      </trkpt>
      <trkpt lat="47.90695" lon="6.84545">
        <ele>933.4</ele>
        <time>2022-09-13T14:28:48Z</time>
      </trkpt>
      <trkpt lat="47.90694" lon="6.84541">
        <ele>933.7</ele>
        <time>2022-09-13T14:28:49Z</time>
      </trkpt>
      <trkpt lat="47.90693" lon="6.84537">
        <ele>934</ele>
        <time>2022-09-13T14:28:50Z</time>
      </trkpt>
      <trkpt lat="47.90692" lon="6.84533">
        <ele>934.3</ele>
        <time>2022-09-13T14:28:51Z</time>
      </trkpt>
      <trkpt lat="47.90691" lon="6.84529">
        <ele>934.5</ele>
        <time>2022-09-13T14:28:52Z</time>
      </trkpt>
      <trkpt lat="47.9069" lon="6.84524">
        <ele>934.5</ele>
        <time>2022-09-13T14:28:53Z</time>
      </trkpt>
      <trkpt lat="47.90689" lon="6.8452">
        <ele>934.5</ele>
        <time>2022-09-13T14:28:54Z</time>
      </trkpt>
      <trkpt lat="47.90688" lon="6.84516">
        <ele>934.4</ele>
        <time>2022-09-13T14:28:55Z</time>
      </trkpt>
      <trkpt lat="47.90687" lon="6.84512">
        <ele>934.4</ele>
        <time>2022-09-13T14:28:56Z</time>
      </trkpt>
      <trkpt lat="47.90685" lon="6.84508">
        <ele>934.7</ele>
        <time>2022-09-13T14:28:57Z</time>
      </trkpt>
      <trkpt lat="47.90684" lon="6.84504">
        <ele>934.6</ele>
        <time>2022-09-13T14:28:58Z</time>
      </trkpt>
      <trkpt lat="47.90682" lon="6.845">
        <ele>934.9</ele>
        <time>2022-09-13T14:28:59Z</time>
      </trkpt>
      <trkpt lat="47.90681" lon="6.84496">
        <ele>934.8</ele>
        <time>2022-09-13T14:29:00Z</time>
      </trkpt>
      <trkpt lat="47.90679" lon="6.84492">
        <ele>935.1</ele>
        <time>2022-09-13T14:29:01Z</time>
      </trkpt>
      <trkpt lat="47.90678" lon="6.84488">
        <ele>935</ele>
        <time>2022-09-13T14:29:02Z</time>
      </trkpt>
      <trkpt lat="47.90676" lon="6.84484">
        <ele>935.4</ele>
        <time>2022-09-13T14:29:03Z</time>
      </trkpt>
      <trkpt lat="47.90675" lon="6.8448">
        <ele>935.3</ele>
        <time>2022-09-13T14:29:04Z</time>
      </trkpt>
      <trkpt lat="47.90674" lon="6.84476">
        <ele>935.3</ele>
        <time>2022-09-13T14:29:05Z</time>
      </trkpt>
      <trkpt lat="47.90673" lon="6.84471">
        <ele>935.1</ele>
        <time>2022-09-13T14:29:06Z</time>
      </trkpt>
      <trkpt lat="47.90671" lon="6.84466">
        <ele>935.5</ele>
        <time>2022-09-13T14:29:07Z</time>
      </trkpt>
      <trkpt lat="47.9067" lon="6.84462">
        <ele>935.5</ele>
        <time>2022-09-13T14:29:08Z</time>
      </trkpt>
      <trkpt lat="47.90669" lon="6.84458">
        <ele>935.5</ele>
        <time>2022-09-13T14:29:09Z</time>
      </trkpt>
      <trkpt lat="47.90667" lon="6.84454">
        <ele>935.9</ele>
        <time>2022-09-13T14:29:10Z</time>
      </trkpt>
      <trkpt lat="47.90666" lon="6.8445">
        <ele>935.9</ele>
        <time>2022-09-13T14:29:11Z</time>
      </trkpt>
      <trkpt lat="47.90665" lon="6.84445">
        <ele>935.8</ele>
        <time>2022-09-13T14:29:12Z</time>
      </trkpt>
      <trkpt lat="47.90663" lon="6.84441">
        <ele>936.2</ele>
        <time>2022-09-13T14:29:13Z</time>
      </trkpt>
      <trkpt lat="47.90662" lon="6.84437">
        <ele>936.2</ele>
        <time>2022-09-13T14:29:14Z</time>
      </trkpt>
      <trkpt lat="47.90661" lon="6.84433">
        <ele>936.1</ele>
        <time>2022-09-13T14:29:15Z</time>
      </trkpt>
      <trkpt lat="47.9066" lon="6.84429">
        <ele>936.1</ele>
        <time>2022-09-13T14:29:16Z</time>
      </trkpt>
      <trkpt lat="47.90659" lon="6.84425">
        <ele>936</ele>
        <time>2022-09-13T14:29:17Z</time>
      </trkpt>
      <trkpt lat="47.90657" lon="6.84421">
        <ele>936.4</ele>
        <time>2022-09-13T14:29:18Z</time>
      </trkpt>
      <trkpt lat="47.90656" lon="6.84416">
        <ele>936.1</ele>
        <time>2022-09-13T14:29:19Z</time>
      </trkpt>
      <trkpt lat="47.90655" lon="6.84411">
        <ele>935.8</ele>
        <time>2022-09-13T14:29:20Z</time>
      </trkpt>
      <trkpt lat="47.90653" lon="6.84406">
        <ele>935.9</ele>
        <time>2022-09-13T14:29:21Z</time>
      </trkpt>
      <trkpt lat="47.90652" lon="6.84401">
        <ele>935.6</ele>
        <time>2022-09-13T14:29:22Z</time>
      </trkpt>
      <trkpt lat="47.90651" lon="6.84397">
        <ele>935.4</ele>
        <time>2022-09-13T14:29:23Z</time>
      </trkpt>
      <trkpt lat="47.90649" lon="6.84392">
        <ele>935.4</ele>
        <time>2022-09-13T14:29:24Z</time>
      </trkpt>
      <trkpt lat="47.90648" lon="6.84388">
        <ele>935.2</ele>
        <time>2022-09-13T14:29:25Z</time>
      </trkpt>
      <trkpt lat="47.90646" lon="6.84384">
        <ele>935.3</ele>
        <time>2022-09-13T14:29:26Z</time>
      </trkpt>
      <trkpt lat="47.90644" lon="6.84379">
        <ele>935.3</ele>
        <time>2022-09-13T14:29:27Z</time>
      </trkpt>
      <trkpt lat="47.90642" lon="6.84375">
        <ele>935.3</ele>
        <time>2022-09-13T14:29:28Z</time>
      </trkpt>
      <trkpt lat="47.9064" lon="6.84371">
        <ele>935.4</ele>
        <time>2022-09-13T14:29:29Z</time>
      </trkpt>
      <trkpt lat="47.90637" lon="6.84368">
        <ele>935.9</ele>
        <time>2022-09-13T14:29:30Z</time>
      </trkpt>
      <trkpt lat="47.90635" lon="6.84364">
        <ele>935.8</ele>
        <time>2022-09-13T14:29:31Z</time>
      </trkpt>
      <trkpt lat="47.90632" lon="6.8436">
        <ele>936.1</ele>
        <time>2022-09-13T14:29:32Z</time>
      </trkpt>
      <trkpt lat="47.9063" lon="6.84355">
        <ele>936.1</ele>
        <time>2022-09-13T14:29:33Z</time>
      </trkpt>
      <trkpt lat="47.90628" lon="6.8435">
        <ele>936.1</ele>
        <time>2022-09-13T14:29:34Z</time>
      </trkpt>
      <trkpt lat="47.90626" lon="6.84345">
        <ele>936.1</ele>
        <time>2022-09-13T14:29:35Z</time>
      </trkpt>
      <trkpt lat="47.90625" lon="6.84339">
        <ele>935.7</ele>
        <time>2022-09-13T14:29:36Z</time>
      </trkpt>
      <trkpt lat="47.90624" lon="6.84333">
        <ele>935.4</ele>
        <time>2022-09-13T14:29:37Z</time>
      </trkpt>
      <trkpt lat="47.90624" lon="6.84327">
        <ele>935.6</ele>
        <time>2022-09-13T14:29:38Z</time>
      </trkpt>
      <trkpt lat="47.90624" lon="6.84321">
        <ele>935.8</ele>
        <time>2022-09-13T14:29:39Z</time>
      </trkpt>
      <trkpt lat="47.90625" lon="6.84315">
        <ele>935.7</ele>
        <time>2022-09-13T14:29:40Z</time>
      </trkpt>
      <trkpt lat="47.90626" lon="6.84309">
        <ele>935.5</ele>
        <time>2022-09-13T14:29:41Z</time>
      </trkpt>
      <trkpt lat="47.90626" lon="6.84303">
        <ele>935.5</ele>
        <time>2022-09-13T14:29:42Z</time>
      </trkpt>
      <trkpt lat="47.90627" lon="6.84297">
        <ele>935</ele>
        <time>2022-09-13T14:29:43Z</time>
      </trkpt>
      <trkpt lat="47.90628" lon="6.84292">
        <ele>934.5</ele>
        <time>2022-09-13T14:29:44Z</time>
      </trkpt>
      <trkpt lat="47.90629" lon="6.84286">
        <ele>934</ele>
        <time>2022-09-13T14:29:45Z</time>
      </trkpt>
      <trkpt lat="47.90629" lon="6.84281">
        <ele>934</ele>
        <time>2022-09-13T14:29:46Z</time>
      </trkpt>
      <trkpt lat="47.90629" lon="6.84275">
        <ele>933.7</ele>
        <time>2022-09-13T14:29:47Z</time>
      </trkpt>
      <trkpt lat="47.90629" lon="6.8427">
        <ele>933.4</ele>
        <time>2022-09-13T14:29:48Z</time>
      </trkpt>
      <trkpt lat="47.90629" lon="6.84265">
        <ele>933</ele>
        <time>2022-09-13T14:29:49Z</time>
      </trkpt>
      <trkpt lat="47.90628" lon="6.84259">
        <ele>933</ele>
        <time>2022-09-13T14:29:50Z</time>
      </trkpt>
      <trkpt lat="47.90628" lon="6.84253">
        <ele>932.5</ele>
        <time>2022-09-13T14:29:51Z</time>
      </trkpt>
      <trkpt lat="47.90627" lon="6.84247">
        <ele>932.4</ele>
        <time>2022-09-13T14:29:52Z</time>
      </trkpt>
      <trkpt lat="47.90626" lon="6.84241">
        <ele>932.1</ele>
        <time>2022-09-13T14:29:53Z</time>
      </trkpt>
      <trkpt lat="47.90625" lon="6.84236">
        <ele>932</ele>
        <time>2022-09-13T14:29:54Z</time>
      </trkpt>
      <trkpt lat="47.90624" lon="6.8423">
        <ele>931.7</ele>
        <time>2022-09-13T14:29:55Z</time>
      </trkpt>
      <trkpt lat="47.90623" lon="6.84225">
        <ele>931.6</ele>
        <time>2022-09-13T14:29:56Z</time>
      </trkpt>
      <trkpt lat="47.90621" lon="6.8422">
        <ele>931.8</ele>
        <time>2022-09-13T14:29:57Z</time>
      </trkpt>
      <trkpt lat="47.9062" lon="6.84215">
        <ele>931.7</ele>
        <time>2022-09-13T14:29:58Z</time>
      </trkpt>
      <trkpt lat="47.90619" lon="6.84209">
        <ele>931.4</ele>
        <time>2022-09-13T14:29:59Z</time>
      </trkpt>
      <trkpt lat="47.90618" lon="6.84204">
        <ele>931.3</ele>
        <time>2022-09-13T14:30:00Z</time>
      </trkpt>
      <trkpt lat="47.90617" lon="6.84198">
        <ele>931.1</ele>
        <time>2022-09-13T14:30:01Z</time>
      </trkpt>
      <trkpt lat="47.90616" lon="6.84192">
        <ele>930.8</ele>
        <time>2022-09-13T14:30:02Z</time>
      </trkpt>
      <trkpt lat="47.90615" lon="6.84187">
        <ele>930.7</ele>
        <time>2022-09-13T14:30:03Z</time>
      </trkpt>
      <trkpt lat="47.90613" lon="6.84181">
        <ele>930.8</ele>
        <time>2022-09-13T14:30:04Z</time>
      </trkpt>
      <trkpt lat="47.90612" lon="6.84176">
        <ele>930.7</ele>
        <time>2022-09-13T14:30:05Z</time>
      </trkpt>
      <trkpt lat="47.90611" lon="6.8417">
        <ele>930.4</ele>
        <time>2022-09-13T14:30:06Z</time>
      </trkpt>
      <trkpt lat="47.9061" lon="6.84165">
        <ele>930.3</ele>
        <time>2022-09-13T14:30:07Z</time>
      </trkpt>
      <trkpt lat="47.90609" lon="6.84159">
        <ele>930.1</ele>
        <time>2022-09-13T14:30:08Z</time>
      </trkpt>
      <trkpt lat="47.90608" lon="6.84154">
        <ele>930</ele>
        <time>2022-09-13T14:30:09Z</time>
      </trkpt>
      <trkpt lat="47.90607" lon="6.84148">
        <ele>929.8</ele>
        <time>2022-09-13T14:30:10Z</time>
      </trkpt>
      <trkpt lat="47.90606" lon="6.84143">
        <ele>929.7</ele>
        <time>2022-09-13T14:30:11Z</time>
      </trkpt>
      <trkpt lat="47.90605" lon="6.84137">
        <ele>929.4</ele>
        <time>2022-09-13T14:30:12Z</time>
      </trkpt>
      <trkpt lat="47.90603" lon="6.84132">
        <ele>929.6</ele>
        <time>2022-09-13T14:30:13Z</time>
      </trkpt>
      <trkpt lat="47.90602" lon="6.84127">
        <ele>929.4</ele>
        <time>2022-09-13T14:30:14Z</time>
      </trkpt>
      <trkpt lat="47.90601" lon="6.84122">
        <ele>929.1</ele>
        <time>2022-09-13T14:30:15Z</time>
      </trkpt>
      <trkpt lat="47.906" lon="6.84116">
        <ele>928.7</ele>
        <time>2022-09-13T14:30:16Z</time>
      </trkpt>
      <trkpt lat="47.90598" lon="6.84111">
        <ele>928.7</ele>
        <time>2022-09-13T14:30:17Z</time>
      </trkpt>
      <trkpt lat="47.90597" lon="6.84105">
        <ele>928.8</ele>
        <time>2022-09-13T14:30:18Z</time>
      </trkpt>
      <trkpt lat="47.90595" lon="6.84101">
        <ele>929.3</ele>
        <time>2022-09-13T14:30:19Z</time>
      </trkpt>
      <trkpt lat="47.90594" lon="6.84096">
        <ele>929.5</ele>
        <time>2022-09-13T14:30:20Z</time>
      </trkpt>
      <trkpt lat="47.90593" lon="6.84092">
        <ele>929.8</ele>
        <time>2022-09-13T14:30:21Z</time>
      </trkpt>
      <trkpt lat="47.90592" lon="6.84087">
        <ele>930.1</ele>
        <time>2022-09-13T14:30:22Z</time>
      </trkpt>
      <trkpt lat="47.90592" lon="6.84083">
        <ele>929.9</ele>
        <time>2022-09-13T14:30:23Z</time>
      </trkpt>
      <trkpt lat="47.90591" lon="6.84079">
        <ele>930.1</ele>
        <time>2022-09-13T14:30:24Z</time>
      </trkpt>
      <trkpt lat="47.90591" lon="6.84077">
        <ele>930</ele>
        <time>2022-09-13T14:30:25Z</time>
      </trkpt>
      <trkpt lat="47.90591" lon="6.84074">
        <ele>929.7</ele>
        <time>2022-09-13T14:30:26Z</time>
      </trkpt>
      <trkpt lat="47.9059" lon="6.84067">
        <ele>929.7</ele>
        <time>2022-09-13T14:30:27Z</time>
      </trkpt>
      <trkpt lat="47.90589" lon="6.84062">
        <ele>929.8</ele>
        <time>2022-09-13T14:30:28Z</time>
      </trkpt>
      <trkpt lat="47.90589" lon="6.84058">
        <ele>929.5</ele>
        <time>2022-09-13T14:30:29Z</time>
      </trkpt>
      <trkpt lat="47.90588" lon="6.84053">
        <ele>929.7</ele>
        <time>2022-09-13T14:30:30Z</time>
      </trkpt>
      <trkpt lat="47.90587" lon="6.84049">
        <ele>930</ele>
        <time>2022-09-13T14:30:31Z</time>
      </trkpt>
      <trkpt lat="47.90587" lon="6.84044">
        <ele>929.8</ele>
        <time>2022-09-13T14:30:32Z</time>
      </trkpt>
      <trkpt lat="47.90586" lon="6.8404">
        <ele>930.1</ele>
        <time>2022-09-13T14:30:33Z</time>
      </trkpt>
      <trkpt lat="47.90586" lon="6.84036">
        <ele>930</ele>
        <time>2022-09-13T14:30:34Z</time>
      </trkpt>
      <trkpt lat="47.90586" lon="6.84032">
        <ele>929.8</ele>
        <time>2022-09-13T14:30:35Z</time>
      </trkpt>
      <trkpt lat="47.90585" lon="6.84027">
        <ele>930.1</ele>
        <time>2022-09-13T14:30:36Z</time>
      </trkpt>
      <trkpt lat="47.90585" lon="6.84023">
        <ele>930</ele>
        <time>2022-09-13T14:30:37Z</time>
      </trkpt>
      <trkpt lat="47.90585" lon="6.84019">
        <ele>929.8</ele>
        <time>2022-09-13T14:30:38Z</time>
      </trkpt>
      <trkpt lat="47.90584" lon="6.84014">
        <ele>930.2</ele>
        <time>2022-09-13T14:30:39Z</time>
      </trkpt>
      <trkpt lat="47.90584" lon="6.8401">
        <ele>930</ele>
        <time>2022-09-13T14:30:40Z</time>
      </trkpt>
      <trkpt lat="47.90584" lon="6.84005">
        <ele>929.8</ele>
        <time>2022-09-13T14:30:41Z</time>
      </trkpt>
      <trkpt lat="47.90584" lon="6.84001">
        <ele>929.7</ele>
        <time>2022-09-13T14:30:42Z</time>
      </trkpt>
      <trkpt lat="47.90584" lon="6.83997">
        <ele>929.4</ele>
        <time>2022-09-13T14:30:43Z</time>
      </trkpt>
      <trkpt lat="47.90584" lon="6.83993">
        <ele>929.1</ele>
        <time>2022-09-13T14:30:44Z</time>
      </trkpt>
      <trkpt lat="47.90583" lon="6.83988">
        <ele>929.3</ele>
        <time>2022-09-13T14:30:45Z</time>
      </trkpt>
      <trkpt lat="47.90583" lon="6.83984">
        <ele>929</ele>
        <time>2022-09-13T14:30:46Z</time>
      </trkpt>
      <trkpt lat="47.90582" lon="6.83979">
        <ele>929.1</ele>
        <time>2022-09-13T14:30:47Z</time>
      </trkpt>
      <trkpt lat="47.90582" lon="6.83974">
        <ele>928.8</ele>
        <time>2022-09-13T14:30:48Z</time>
      </trkpt>
      <trkpt lat="47.90581" lon="6.8397">
        <ele>929</ele>
        <time>2022-09-13T14:30:49Z</time>
      </trkpt>
      <trkpt lat="47.9058" lon="6.83965">
        <ele>929.1</ele>
        <time>2022-09-13T14:30:50Z</time>
      </trkpt>
      <trkpt lat="47.90579" lon="6.8396">
        <ele>929.2</ele>
        <time>2022-09-13T14:30:51Z</time>
      </trkpt>
      <trkpt lat="47.90578" lon="6.83955">
        <ele>929.3</ele>
        <time>2022-09-13T14:30:52Z</time>
      </trkpt>
      <trkpt lat="47.90577" lon="6.8395">
        <ele>929.4</ele>
        <time>2022-09-13T14:30:53Z</time>
      </trkpt>
      <trkpt lat="47.90577" lon="6.83945">
        <ele>929</ele>
        <time>2022-09-13T14:30:54Z</time>
      </trkpt>
      <trkpt lat="47.90576" lon="6.8394">
        <ele>928.9</ele>
        <time>2022-09-13T14:30:55Z</time>
      </trkpt>
      <trkpt lat="47.90575" lon="6.83934">
        <ele>928.6</ele>
        <time>2022-09-13T14:30:56Z</time>
      </trkpt>
      <trkpt lat="47.90574" lon="6.83928">
        <ele>928.4</ele>
        <time>2022-09-13T14:30:57Z</time>
      </trkpt>
      <trkpt lat="47.90573" lon="6.83922">
        <ele>928.2</ele>
        <time>2022-09-13T14:30:58Z</time>
      </trkpt>
      <trkpt lat="47.90572" lon="6.83916">
        <ele>928</ele>
        <time>2022-09-13T14:30:59Z</time>
      </trkpt>
      <trkpt lat="47.90571" lon="6.8391">
        <ele>927.9</ele>
        <time>2022-09-13T14:31:00Z</time>
      </trkpt>
      <trkpt lat="47.9057" lon="6.83904">
        <ele>927.8</ele>
        <time>2022-09-13T14:31:01Z</time>
      </trkpt>
      <trkpt lat="47.90569" lon="6.83898">
        <ele>927.7</ele>
        <time>2022-09-13T14:31:02Z</time>
      </trkpt>
      <trkpt lat="47.90568" lon="6.83892">
        <ele>927.6</ele>
        <time>2022-09-13T14:31:03Z</time>
      </trkpt>
      <trkpt lat="47.90567" lon="6.83887">
        <ele>927.6</ele>
        <time>2022-09-13T14:31:04Z</time>
      </trkpt>
      <trkpt lat="47.90566" lon="6.83882">
        <ele>927.5</ele>
        <time>2022-09-13T14:31:05Z</time>
      </trkpt>
      <trkpt lat="47.90566" lon="6.83878">
        <ele>927</ele>
        <time>2022-09-13T14:31:06Z</time>
      </trkpt>
      <trkpt lat="47.90565" lon="6.83873">
        <ele>927</ele>
        <time>2022-09-13T14:31:07Z</time>
      </trkpt>
      <trkpt lat="47.90565" lon="6.83869">
        <ele>926.5</ele>
        <time>2022-09-13T14:31:08Z</time>
      </trkpt>
      <trkpt lat="47.90564" lon="6.83864">
        <ele>926.5</ele>
        <time>2022-09-13T14:31:09Z</time>
      </trkpt>
      <trkpt lat="47.90564" lon="6.83859">
        <ele>925.8</ele>
        <time>2022-09-13T14:31:10Z</time>
      </trkpt>
      <trkpt lat="47.90563" lon="6.83855">
        <ele>925.7</ele>
        <time>2022-09-13T14:31:11Z</time>
      </trkpt>
      <trkpt lat="47.90562" lon="6.8385">
        <ele>925.5</ele>
        <time>2022-09-13T14:31:12Z</time>
      </trkpt>
      <trkpt lat="47.90561" lon="6.83845">
        <ele>925.2</ele>
        <time>2022-09-13T14:31:13Z</time>
      </trkpt>
      <trkpt lat="47.9056" lon="6.8384">
        <ele>924.9</ele>
        <time>2022-09-13T14:31:14Z</time>
      </trkpt>
      <trkpt lat="47.90559" lon="6.83835">
        <ele>924.5</ele>
        <time>2022-09-13T14:31:15Z</time>
      </trkpt>
      <trkpt lat="47.90559" lon="6.8383">
        <ele>924</ele>
        <time>2022-09-13T14:31:16Z</time>
      </trkpt>
      <trkpt lat="47.90558" lon="6.83825">
        <ele>924.1</ele>
        <time>2022-09-13T14:31:17Z</time>
      </trkpt>
      <trkpt lat="47.90557" lon="6.8382">
        <ele>924.3</ele>
        <time>2022-09-13T14:31:18Z</time>
      </trkpt>
      <trkpt lat="47.90556" lon="6.83814">
        <ele>924.4</ele>
        <time>2022-09-13T14:31:19Z</time>
      </trkpt>
      <trkpt lat="47.90555" lon="6.83809">
        <ele>924.5</ele>
        <time>2022-09-13T14:31:20Z</time>
      </trkpt>
      <trkpt lat="47.90554" lon="6.83804">
        <ele>924.5</ele>
        <time>2022-09-13T14:31:21Z</time>
      </trkpt>
      <trkpt lat="47.90552" lon="6.83799">
        <ele>924.6</ele>
        <time>2022-09-13T14:31:22Z</time>
      </trkpt>
      <trkpt lat="47.90551" lon="6.83794">
        <ele>924.2</ele>
        <time>2022-09-13T14:31:23Z</time>
      </trkpt>
      <trkpt lat="47.9055" lon="6.83789">
        <ele>923.8</ele>
        <time>2022-09-13T14:31:24Z</time>
      </trkpt>
      <trkpt lat="47.90548" lon="6.83785">
        <ele>924.1</ele>
        <time>2022-09-13T14:31:25Z</time>
      </trkpt>
      <trkpt lat="47.90547" lon="6.8378">
        <ele>923.7</ele>
        <time>2022-09-13T14:31:26Z</time>
      </trkpt>
      <trkpt lat="47.90546" lon="6.83774">
        <ele>923.1</ele>
        <time>2022-09-13T14:31:27Z</time>
      </trkpt>
      <trkpt lat="47.90545" lon="6.83769">
        <ele>922.6</ele>
        <time>2022-09-13T14:31:28Z</time>
      </trkpt>
      <trkpt lat="47.90544" lon="6.83764">
        <ele>922.1</ele>
        <time>2022-09-13T14:31:29Z</time>
      </trkpt>
      <trkpt lat="47.90542" lon="6.83759">
        <ele>922.1</ele>
        <time>2022-09-13T14:31:30Z</time>
      </trkpt>
      <trkpt lat="47.90541" lon="6.83753">
        <ele>921.4</ele>
        <time>2022-09-13T14:31:31Z</time>
      </trkpt>
      <trkpt lat="47.90539" lon="6.83748">
        <ele>921.5</ele>
        <time>2022-09-13T14:31:32Z</time>
      </trkpt>
      <trkpt lat="47.90537" lon="6.83743">
        <ele>921.8</ele>
        <time>2022-09-13T14:31:33Z</time>
      </trkpt>
      <trkpt lat="47.90536" lon="6.83738">
        <ele>921.6</ele>
        <time>2022-09-13T14:31:34Z</time>
      </trkpt>
      <trkpt lat="47.90534" lon="6.83733">
        <ele>922</ele>
        <time>2022-09-13T14:31:35Z</time>
      </trkpt>
      <trkpt lat="47.90532" lon="6.83729">
        <ele>922.5</ele>
        <time>2022-09-13T14:31:36Z</time>
      </trkpt>
      <trkpt lat="47.90531" lon="6.83724">
        <ele>922.5</ele>
        <time>2022-09-13T14:31:37Z</time>
      </trkpt>
      <trkpt lat="47.90529" lon="6.83718">
        <ele>922.4</ele>
        <time>2022-09-13T14:31:38Z</time>
      </trkpt>
      <trkpt lat="47.90527" lon="6.83713">
        <ele>922.4</ele>
        <time>2022-09-13T14:31:39Z</time>
      </trkpt>
      <trkpt lat="47.90526" lon="6.83707">
        <ele>921.6</ele>
        <time>2022-09-13T14:31:40Z</time>
      </trkpt>
      <trkpt lat="47.90524" lon="6.83702">
        <ele>921.6</ele>
        <time>2022-09-13T14:31:41Z</time>
      </trkpt>
      <trkpt lat="47.90522" lon="6.83696">
        <ele>921.4</ele>
        <time>2022-09-13T14:31:42Z</time>
      </trkpt>
      <trkpt lat="47.9052" lon="6.8369">
        <ele>921.3</ele>
        <time>2022-09-13T14:31:43Z</time>
      </trkpt>
      <trkpt lat="47.90519" lon="6.83685">
        <ele>920.8</ele>
        <time>2022-09-13T14:31:44Z</time>
      </trkpt>
      <trkpt lat="47.90518" lon="6.83679">
        <ele>920.1</ele>
        <time>2022-09-13T14:31:45Z</time>
      </trkpt>
      <trkpt lat="47.90517" lon="6.83675">
        <ele>919.9</ele>
        <time>2022-09-13T14:31:46Z</time>
      </trkpt>
      <trkpt lat="47.90515" lon="6.83671">
        <ele>920.2</ele>
        <time>2022-09-13T14:31:47Z</time>
      </trkpt>
      <trkpt lat="47.90514" lon="6.83667">
        <ele>920</ele>
        <time>2022-09-13T14:31:48Z</time>
      </trkpt>
      <trkpt lat="47.90513" lon="6.83663">
        <ele>919.8</ele>
        <time>2022-09-13T14:31:49Z</time>
      </trkpt>
      <trkpt lat="47.90512" lon="6.83658">
        <ele>919.4</ele>
        <time>2022-09-13T14:31:50Z</time>
      </trkpt>
      <trkpt lat="47.9051" lon="6.83654">
        <ele>919.7</ele>
        <time>2022-09-13T14:31:51Z</time>
      </trkpt>
      <trkpt lat="47.90509" lon="6.83649">
        <ele>919.2</ele>
        <time>2022-09-13T14:31:52Z</time>
      </trkpt>
      <trkpt lat="47.90508" lon="6.83644">
        <ele>918.7</ele>
        <time>2022-09-13T14:31:53Z</time>
      </trkpt>
      <trkpt lat="47.90507" lon="6.83639">
        <ele>918.2</ele>
        <time>2022-09-13T14:31:54Z</time>
      </trkpt>
      <trkpt lat="47.90505" lon="6.83633">
        <ele>918.1</ele>
        <time>2022-09-13T14:31:55Z</time>
      </trkpt>
      <trkpt lat="47.90504" lon="6.83628">
        <ele>917.5</ele>
        <time>2022-09-13T14:31:56Z</time>
      </trkpt>
      <trkpt lat="47.90502" lon="6.83623">
        <ele>917.5</ele>
        <time>2022-09-13T14:31:57Z</time>
      </trkpt>
      <trkpt lat="47.90501" lon="6.83618">
        <ele>917</ele>
        <time>2022-09-13T14:31:58Z</time>
      </trkpt>
      <trkpt lat="47.90499" lon="6.83614">
        <ele>917.1</ele>
        <time>2022-09-13T14:31:59Z</time>
      </trkpt>
      <trkpt lat="47.90498" lon="6.83609">
        <ele>916.6</ele>
        <time>2022-09-13T14:32:00Z</time>
      </trkpt>
      <trkpt lat="47.90496" lon="6.83604">
        <ele>916.7</ele>
        <time>2022-09-13T14:32:01Z</time>
      </trkpt>
      <trkpt lat="47.90495" lon="6.83599">
        <ele>916.3</ele>
        <time>2022-09-13T14:32:02Z</time>
      </trkpt>
      <trkpt lat="47.90493" lon="6.83595">
        <ele>916.5</ele>
        <time>2022-09-13T14:32:03Z</time>
      </trkpt>
      <trkpt lat="47.90492" lon="6.8359">
        <ele>916</ele>
        <time>2022-09-13T14:32:04Z</time>
      </trkpt>
      <trkpt lat="47.90491" lon="6.83586">
        <ele>915.7</ele>
        <time>2022-09-13T14:32:05Z</time>
      </trkpt>
      <trkpt lat="47.90489" lon="6.83581">
        <ele>915.7</ele>
        <time>2022-09-13T14:32:06Z</time>
      </trkpt>
      <trkpt lat="47.90488" lon="6.83576">
        <ele>915.3</ele>
        <time>2022-09-13T14:32:07Z</time>
      </trkpt>
      <trkpt lat="47.90486" lon="6.83571">
        <ele>915.3</ele>
        <time>2022-09-13T14:32:08Z</time>
      </trkpt>
      <trkpt lat="47.90485" lon="6.83567">
        <ele>915.1</ele>
        <time>2022-09-13T14:32:09Z</time>
      </trkpt>
      <trkpt lat="47.90483" lon="6.83562">
        <ele>915.1</ele>
        <time>2022-09-13T14:32:10Z</time>
      </trkpt>
      <trkpt lat="47.90482" lon="6.83558">
        <ele>914.9</ele>
        <time>2022-09-13T14:32:11Z</time>
      </trkpt>
      <trkpt lat="47.90481" lon="6.83554">
        <ele>914.6</ele>
        <time>2022-09-13T14:32:12Z</time>
      </trkpt>
      <trkpt lat="47.9048" lon="6.83549">
        <ele>914.2</ele>
        <time>2022-09-13T14:32:13Z</time>
      </trkpt>
      <trkpt lat="47.90478" lon="6.83545">
        <ele>914.4</ele>
        <time>2022-09-13T14:32:14Z</time>
      </trkpt>
      <trkpt lat="47.90477" lon="6.8354">
        <ele>914</ele>
        <time>2022-09-13T14:32:15Z</time>
      </trkpt>
      <trkpt lat="47.90476" lon="6.83535">
        <ele>913.5</ele>
        <time>2022-09-13T14:32:16Z</time>
      </trkpt>
      <trkpt lat="47.90475" lon="6.8353">
        <ele>913.1</ele>
        <time>2022-09-13T14:32:17Z</time>
      </trkpt>
      <trkpt lat="47.90473" lon="6.83525">
        <ele>913.1</ele>
        <time>2022-09-13T14:32:18Z</time>
      </trkpt>
      <trkpt lat="47.90472" lon="6.83519">
        <ele>912.5</ele>
        <time>2022-09-13T14:32:19Z</time>
      </trkpt>
      <trkpt lat="47.9047" lon="6.83514">
        <ele>912.3</ele>
        <time>2022-09-13T14:32:20Z</time>
      </trkpt>
      <trkpt lat="47.90468" lon="6.83509">
        <ele>912</ele>
        <time>2022-09-13T14:32:21Z</time>
      </trkpt>
      <trkpt lat="47.90466" lon="6.83503">
        <ele>911.6</ele>
        <time>2022-09-13T14:32:22Z</time>
      </trkpt>
      <trkpt lat="47.90463" lon="6.83498">
        <ele>911.5</ele>
        <time>2022-09-13T14:32:23Z</time>
      </trkpt>
      <trkpt lat="47.90461" lon="6.83494">
        <ele>911.1</ele>
        <time>2022-09-13T14:32:24Z</time>
      </trkpt>
      <trkpt lat="47.90458" lon="6.83489">
        <ele>910.8</ele>
        <time>2022-09-13T14:32:25Z</time>
      </trkpt>
      <trkpt lat="47.90455" lon="6.83485">
        <ele>910.8</ele>
        <time>2022-09-13T14:32:26Z</time>
      </trkpt>
      <trkpt lat="47.90452" lon="6.8348">
        <ele>910.5</ele>
        <time>2022-09-13T14:32:27Z</time>
      </trkpt>
      <trkpt lat="47.90449" lon="6.83476">
        <ele>910.5</ele>
        <time>2022-09-13T14:32:28Z</time>
      </trkpt>
      <trkpt lat="47.90446" lon="6.83472">
        <ele>910.4</ele>
        <time>2022-09-13T14:32:29Z</time>
      </trkpt>
      <trkpt lat="47.90442" lon="6.83468">
        <ele>910.4</ele>
        <time>2022-09-13T14:32:30Z</time>
      </trkpt>
      <trkpt lat="47.90439" lon="6.83464">
        <ele>909.9</ele>
        <time>2022-09-13T14:32:31Z</time>
      </trkpt>
      <trkpt lat="47.90435" lon="6.8346">
        <ele>909.6</ele>
        <time>2022-09-13T14:32:32Z</time>
      </trkpt>
      <trkpt lat="47.90431" lon="6.83457">
        <ele>909.6</ele>
        <time>2022-09-13T14:32:33Z</time>
      </trkpt>
      <trkpt lat="47.90428" lon="6.83453">
        <ele>909.1</ele>
        <time>2022-09-13T14:32:34Z</time>
      </trkpt>
      <trkpt lat="47.90426" lon="6.83451">
        <ele>909</ele>
        <time>2022-09-13T14:32:35Z</time>
      </trkpt>
      <trkpt lat="47.90423" lon="6.83448">
        <ele>908.8</ele>
        <time>2022-09-13T14:32:36Z</time>
      </trkpt>
      <trkpt lat="47.90419" lon="6.83445">
        <ele>908.7</ele>
        <time>2022-09-13T14:32:37Z</time>
      </trkpt>
      <trkpt lat="47.90416" lon="6.83444">
        <ele>908.9</ele>
        <time>2022-09-13T14:32:38Z</time>
      </trkpt>
      <trkpt lat="47.90412" lon="6.83442">
        <ele>908.4</ele>
        <time>2022-09-13T14:32:39Z</time>
      </trkpt>
      <trkpt lat="47.90409" lon="6.83441">
        <ele>908.2</ele>
        <time>2022-09-13T14:32:40Z</time>
      </trkpt>
      <trkpt lat="47.90405" lon="6.83439">
        <ele>907.7</ele>
        <time>2022-09-13T14:32:41Z</time>
      </trkpt>
      <trkpt lat="47.90402" lon="6.83438">
        <ele>907.5</ele>
        <time>2022-09-13T14:32:42Z</time>
      </trkpt>
      <trkpt lat="47.90398" lon="6.83437">
        <ele>907.3</ele>
        <time>2022-09-13T14:32:43Z</time>
      </trkpt>
      <trkpt lat="47.90394" lon="6.83436">
        <ele>907.1</ele>
        <time>2022-09-13T14:32:44Z</time>
      </trkpt>
      <trkpt lat="47.90391" lon="6.83436">
        <ele>907.2</ele>
        <time>2022-09-13T14:32:45Z</time>
      </trkpt>
      <trkpt lat="47.90387" lon="6.83437">
        <ele>907.2</ele>
        <time>2022-09-13T14:32:46Z</time>
      </trkpt>
      <trkpt lat="47.90383" lon="6.83438">
        <ele>906.9</ele>
        <time>2022-09-13T14:32:47Z</time>
      </trkpt>
      <trkpt lat="47.9038" lon="6.83439">
        <ele>906.8</ele>
        <time>2022-09-13T14:32:48Z</time>
      </trkpt>
      <trkpt lat="47.90377" lon="6.83441">
        <ele>906.9</ele>
        <time>2022-09-13T14:32:49Z</time>
      </trkpt>
      <trkpt lat="47.90374" lon="6.83442">
        <ele>906.8</ele>
        <time>2022-09-13T14:32:50Z</time>
      </trkpt>
      <trkpt lat="47.90371" lon="6.83444">
        <ele>907</ele>
        <time>2022-09-13T14:32:51Z</time>
      </trkpt>
      <trkpt lat="47.90368" lon="6.83446">
        <ele>907.1</ele>
        <time>2022-09-13T14:32:52Z</time>
      </trkpt>
      <trkpt lat="47.90364" lon="6.83449">
        <ele>907.2</ele>
        <time>2022-09-13T14:32:53Z</time>
      </trkpt>
      <trkpt lat="47.90361" lon="6.83452">
        <ele>907.3</ele>
        <time>2022-09-13T14:32:54Z</time>
      </trkpt>
      <trkpt lat="47.90357" lon="6.83454">
        <ele>906.9</ele>
        <time>2022-09-13T14:32:55Z</time>
      </trkpt>
      <trkpt lat="47.90354" lon="6.83456">
        <ele>906.8</ele>
        <time>2022-09-13T14:32:56Z</time>
      </trkpt>
      <trkpt lat="47.9035" lon="6.83459">
        <ele>906.6</ele>
        <time>2022-09-13T14:32:57Z</time>
      </trkpt>
      <trkpt lat="47.90347" lon="6.83461">
        <ele>906.5</ele>
        <time>2022-09-13T14:32:58Z</time>
      </trkpt>
      <trkpt lat="47.90344" lon="6.83463">
        <ele>906.5</ele>
        <time>2022-09-13T14:32:59Z</time>
      </trkpt>
      <trkpt lat="47.9034" lon="6.83465">
        <ele>906.3</ele>
        <time>2022-09-13T14:33:00Z</time>
      </trkpt>
      <trkpt lat="47.90337" lon="6.83468">
        <ele>906.5</ele>
        <time>2022-09-13T14:33:01Z</time>
      </trkpt>
      <trkpt lat="47.90333" lon="6.8347">
        <ele>906.4</ele>
        <time>2022-09-13T14:33:02Z</time>
      </trkpt>
      <trkpt lat="47.90329" lon="6.83472">
        <ele>906.5</ele>
        <time>2022-09-13T14:33:03Z</time>
      </trkpt>
      <trkpt lat="47.90325" lon="6.83474">
        <ele>906.6</ele>
        <time>2022-09-13T14:33:04Z</time>
      </trkpt>
      <trkpt lat="47.90322" lon="6.83476">
        <ele>906.8</ele>
        <time>2022-09-13T14:33:05Z</time>
      </trkpt>
      <trkpt lat="47.90319" lon="6.83478">
        <ele>906.9</ele>
        <time>2022-09-13T14:33:06Z</time>
      </trkpt>
      <trkpt lat="47.90316" lon="6.83479">
        <ele>906.8</ele>
        <time>2022-09-13T14:33:07Z</time>
      </trkpt>
      <trkpt lat="47.90313" lon="6.83481">
        <ele>906.9</ele>
        <time>2022-09-13T14:33:08Z</time>
      </trkpt>
      <trkpt lat="47.90309" lon="6.83482">
        <ele>906.6</ele>
        <time>2022-09-13T14:33:09Z</time>
      </trkpt>
      <trkpt lat="47.90306" lon="6.83484">
        <ele>906.6</ele>
        <time>2022-09-13T14:33:10Z</time>
      </trkpt>
      <trkpt lat="47.90303" lon="6.83486">
        <ele>906.4</ele>
        <time>2022-09-13T14:33:11Z</time>
      </trkpt>
      <trkpt lat="47.903" lon="6.83488">
        <ele>906.2</ele>
        <time>2022-09-13T14:33:12Z</time>
      </trkpt>
      <trkpt lat="47.90298" lon="6.8349">
        <ele>906.2</ele>
        <time>2022-09-13T14:33:13Z</time>
      </trkpt>
      <trkpt lat="47.90295" lon="6.83492">
        <ele>906</ele>
        <time>2022-09-13T14:33:14Z</time>
      </trkpt>
      <trkpt lat="47.90292" lon="6.83494">
        <ele>905.8</ele>
        <time>2022-09-13T14:33:15Z</time>
      </trkpt>
      <trkpt lat="47.90289" lon="6.83497">
        <ele>905.8</ele>
        <time>2022-09-13T14:33:16Z</time>
      </trkpt>
      <trkpt lat="47.90285" lon="6.835">
        <ele>905.6</ele>
        <time>2022-09-13T14:33:17Z</time>
      </trkpt>
      <trkpt lat="47.90281" lon="6.83504">
        <ele>905.4</ele>
        <time>2022-09-13T14:33:18Z</time>
      </trkpt>
      <trkpt lat="47.90277" lon="6.83508">
        <ele>905.3</ele>
        <time>2022-09-13T14:33:19Z</time>
      </trkpt>
      <trkpt lat="47.90274" lon="6.83512">
        <ele>905.3</ele>
        <time>2022-09-13T14:33:20Z</time>
      </trkpt>
      <trkpt lat="47.90271" lon="6.83515">
        <ele>905.1</ele>
        <time>2022-09-13T14:33:21Z</time>
      </trkpt>
      <trkpt lat="47.90267" lon="6.83519">
        <ele>905</ele>
        <time>2022-09-13T14:33:22Z</time>
      </trkpt>
      <trkpt lat="47.90263" lon="6.83523">
        <ele>904.9</ele>
        <time>2022-09-13T14:33:23Z</time>
      </trkpt>
      <trkpt lat="47.90259" lon="6.83527">
        <ele>904.8</ele>
        <time>2022-09-13T14:33:24Z</time>
      </trkpt>
      <trkpt lat="47.90256" lon="6.83531">
        <ele>905</ele>
        <time>2022-09-13T14:33:25Z</time>
      </trkpt>
      <trkpt lat="47.90252" lon="6.83534">
        <ele>904.8</ele>
        <time>2022-09-13T14:33:26Z</time>
      </trkpt>
      <trkpt lat="47.90248" lon="6.83538">
        <ele>904.8</ele>
        <time>2022-09-13T14:33:27Z</time>
      </trkpt>
      <trkpt lat="47.90245" lon="6.83542">
        <ele>905.2</ele>
        <time>2022-09-13T14:33:28Z</time>
      </trkpt>
      <trkpt lat="47.90241" lon="6.83545">
        <ele>905.1</ele>
        <time>2022-09-13T14:33:29Z</time>
      </trkpt>
      <trkpt lat="47.90237" lon="6.83549">
        <ele>905.2</ele>
        <time>2022-09-13T14:33:30Z</time>
      </trkpt>
      <trkpt lat="47.90233" lon="6.83552">
        <ele>905.2</ele>
        <time>2022-09-13T14:33:31Z</time>
      </trkpt>
      <trkpt lat="47.90229" lon="6.83554">
        <ele>904.9</ele>
        <time>2022-09-13T14:33:32Z</time>
      </trkpt>
      <trkpt lat="47.90226" lon="6.83556">
        <ele>904.8</ele>
        <time>2022-09-13T14:33:33Z</time>
      </trkpt>
      <trkpt lat="47.90222" lon="6.83558">
        <ele>904.4</ele>
        <time>2022-09-13T14:33:34Z</time>
      </trkpt>
      <trkpt lat="47.90219" lon="6.83559">
        <ele>904.6</ele>
        <time>2022-09-13T14:33:35Z</time>
      </trkpt>
      <trkpt lat="47.90215" lon="6.83559">
        <ele>904.7</ele>
        <time>2022-09-13T14:33:36Z</time>
      </trkpt>
      <trkpt lat="47.90212" lon="6.83559">
        <ele>904.7</ele>
        <time>2022-09-13T14:33:37Z</time>
      </trkpt>
      <trkpt lat="47.90208" lon="6.83558">
        <ele>904.5</ele>
        <time>2022-09-13T14:33:38Z</time>
      </trkpt>
      <trkpt lat="47.90204" lon="6.83556">
        <ele>904.1</ele>
        <time>2022-09-13T14:33:39Z</time>
      </trkpt>
      <trkpt lat="47.90201" lon="6.83553">
        <ele>903.8</ele>
        <time>2022-09-13T14:33:40Z</time>
      </trkpt>
      <trkpt lat="47.90198" lon="6.83551">
        <ele>903.7</ele>
        <time>2022-09-13T14:33:41Z</time>
      </trkpt>
      <trkpt lat="47.90195" lon="6.83546">
        <ele>903.6</ele>
        <time>2022-09-13T14:33:42Z</time>
      </trkpt>
      <trkpt lat="47.90192" lon="6.83542">
        <ele>904</ele>
        <time>2022-09-13T14:33:43Z</time>
      </trkpt>
      <trkpt lat="47.9019" lon="6.83537">
        <ele>904.2</ele>
        <time>2022-09-13T14:33:44Z</time>
      </trkpt>
      <trkpt lat="47.90188" lon="6.83532">
        <ele>904.3</ele>
        <time>2022-09-13T14:33:45Z</time>
      </trkpt>
      <trkpt lat="47.90186" lon="6.83527">
        <ele>904.5</ele>
        <time>2022-09-13T14:33:46Z</time>
      </trkpt>
      <trkpt lat="47.90184" lon="6.83522">
        <ele>904.9</ele>
        <time>2022-09-13T14:33:47Z</time>
      </trkpt>
      <trkpt lat="47.90183" lon="6.83516">
        <ele>905.1</ele>
        <time>2022-09-13T14:33:48Z</time>
      </trkpt>
      <trkpt lat="47.90182" lon="6.8351">
        <ele>905.2</ele>
        <time>2022-09-13T14:33:49Z</time>
      </trkpt>
      <trkpt lat="47.90181" lon="6.83504">
        <ele>905.4</ele>
        <time>2022-09-13T14:33:50Z</time>
      </trkpt>
      <trkpt lat="47.9018" lon="6.83498">
        <ele>905.5</ele>
        <time>2022-09-13T14:33:51Z</time>
      </trkpt>
      <trkpt lat="47.90179" lon="6.83492">
        <ele>905.6</ele>
        <time>2022-09-13T14:33:52Z</time>
      </trkpt>
      <trkpt lat="47.90178" lon="6.83486">
        <ele>905.6</ele>
        <time>2022-09-13T14:33:53Z</time>
      </trkpt>
      <trkpt lat="47.90177" lon="6.8348">
        <ele>905.8</ele>
        <time>2022-09-13T14:33:54Z</time>
      </trkpt>
      <trkpt lat="47.90176" lon="6.83474">
        <ele>906</ele>
        <time>2022-09-13T14:33:55Z</time>
      </trkpt>
      <trkpt lat="47.90175" lon="6.83468">
        <ele>906.5</ele>
        <time>2022-09-13T14:33:56Z</time>
      </trkpt>
      <trkpt lat="47.90175" lon="6.83463">
        <ele>906.7</ele>
        <time>2022-09-13T14:33:57Z</time>
      </trkpt>
      <trkpt lat="47.90175" lon="6.83457">
        <ele>906.9</ele>
        <time>2022-09-13T14:33:58Z</time>
      </trkpt>
      <trkpt lat="47.90175" lon="6.83451">
        <ele>907.1</ele>
        <time>2022-09-13T14:33:59Z</time>
      </trkpt>
      <trkpt lat="47.90175" lon="6.83445">
        <ele>907.4</ele>
        <time>2022-09-13T14:34:00Z</time>
      </trkpt>
      <trkpt lat="47.90175" lon="6.83439">
        <ele>907.4</ele>
        <time>2022-09-13T14:34:01Z</time>
      </trkpt>
      <trkpt lat="47.90175" lon="6.83433">
        <ele>907.4</ele>
        <time>2022-09-13T14:34:02Z</time>
      </trkpt>
      <trkpt lat="47.90176" lon="6.83427">
        <ele>907</ele>
        <time>2022-09-13T14:34:03Z</time>
      </trkpt>
      <trkpt lat="47.90176" lon="6.83421">
        <ele>907</ele>
        <time>2022-09-13T14:34:04Z</time>
      </trkpt>
      <trkpt lat="47.90176" lon="6.83416">
        <ele>907</ele>
        <time>2022-09-13T14:34:05Z</time>
      </trkpt>
      <trkpt lat="47.90177" lon="6.8341">
        <ele>906.8</ele>
        <time>2022-09-13T14:34:06Z</time>
      </trkpt>
      <trkpt lat="47.90177" lon="6.83404">
        <ele>907.2</ele>
        <time>2022-09-13T14:34:07Z</time>
      </trkpt>
      <trkpt lat="47.90178" lon="6.83398">
        <ele>906.9</ele>
        <time>2022-09-13T14:34:08Z</time>
      </trkpt>
      <trkpt lat="47.90179" lon="6.83392">
        <ele>906.7</ele>
        <time>2022-09-13T14:34:09Z</time>
      </trkpt>
      <trkpt lat="47.90179" lon="6.83387">
        <ele>907</ele>
        <time>2022-09-13T14:34:10Z</time>
      </trkpt>
      <trkpt lat="47.9018" lon="6.83381">
        <ele>906.7</ele>
        <time>2022-09-13T14:34:11Z</time>
      </trkpt>
      <trkpt lat="47.90181" lon="6.83376">
        <ele>906.4</ele>
        <time>2022-09-13T14:34:12Z</time>
      </trkpt>
      <trkpt lat="47.90182" lon="6.8337">
        <ele>906.2</ele>
        <time>2022-09-13T14:34:13Z</time>
      </trkpt>
      <trkpt lat="47.90182" lon="6.83365">
        <ele>906.5</ele>
        <time>2022-09-13T14:34:14Z</time>
      </trkpt>
      <trkpt lat="47.90183" lon="6.8336">
        <ele>906.2</ele>
        <time>2022-09-13T14:34:15Z</time>
      </trkpt>
      <trkpt lat="47.90184" lon="6.83356">
        <ele>905.7</ele>
        <time>2022-09-13T14:34:16Z</time>
      </trkpt>
      <trkpt lat="47.90184" lon="6.83352">
        <ele>905.8</ele>
        <time>2022-09-13T14:34:17Z</time>
      </trkpt>
      <trkpt lat="47.90184" lon="6.83348">
        <ele>905.8</ele>
        <time>2022-09-13T14:34:18Z</time>
      </trkpt>
      <trkpt lat="47.90185" lon="6.83343">
        <ele>905.3</ele>
        <time>2022-09-13T14:34:19Z</time>
      </trkpt>
      <trkpt lat="47.90185" lon="6.83338">
        <ele>905.4</ele>
        <time>2022-09-13T14:34:20Z</time>
      </trkpt>
      <trkpt lat="47.90185" lon="6.83333">
        <ele>905.4</ele>
        <time>2022-09-13T14:34:21Z</time>
      </trkpt>
      <trkpt lat="47.90185" lon="6.83327">
        <ele>905.5</ele>
        <time>2022-09-13T14:34:22Z</time>
      </trkpt>
      <trkpt lat="47.90185" lon="6.83321">
        <ele>905.6</ele>
        <time>2022-09-13T14:34:23Z</time>
      </trkpt>
      <trkpt lat="47.90186" lon="6.83314">
        <ele>905.1</ele>
        <time>2022-09-13T14:34:24Z</time>
      </trkpt>
      <trkpt lat="47.90186" lon="6.83308">
        <ele>905.2</ele>
        <time>2022-09-13T14:34:25Z</time>
      </trkpt>
      <trkpt lat="47.90186" lon="6.83302">
        <ele>905.5</ele>
        <time>2022-09-13T14:34:26Z</time>
      </trkpt>
      <trkpt lat="47.90187" lon="6.83296">
        <ele>905.4</ele>
        <time>2022-09-13T14:34:27Z</time>
      </trkpt>
      <trkpt lat="47.90188" lon="6.83291">
        <ele>905.3</ele>
        <time>2022-09-13T14:34:28Z</time>
      </trkpt>
      <trkpt lat="47.90188" lon="6.83285">
        <ele>905.7</ele>
        <time>2022-09-13T14:34:29Z</time>
      </trkpt>
      <trkpt lat="47.90189" lon="6.83279">
        <ele>905.7</ele>
        <time>2022-09-13T14:34:30Z</time>
      </trkpt>
      <trkpt lat="47.90189" lon="6.83273">
        <ele>905.6</ele>
        <time>2022-09-13T14:34:31Z</time>
      </trkpt>
      <trkpt lat="47.9019" lon="6.83267">
        <ele>904.9</ele>
        <time>2022-09-13T14:34:32Z</time>
      </trkpt>
      <trkpt lat="47.9019" lon="6.8326">
        <ele>904.6</ele>
        <time>2022-09-13T14:34:33Z</time>
      </trkpt>
      <trkpt lat="47.9019" lon="6.83254">
        <ele>904.4</ele>
        <time>2022-09-13T14:34:34Z</time>
      </trkpt>
      <trkpt lat="47.90191" lon="6.83247">
        <ele>903.8</ele>
        <time>2022-09-13T14:34:35Z</time>
      </trkpt>
      <trkpt lat="47.90191" lon="6.8324">
        <ele>904</ele>
        <time>2022-09-13T14:34:36Z</time>
      </trkpt>
      <trkpt lat="47.90191" lon="6.83234">
        <ele>904.1</ele>
        <time>2022-09-13T14:34:37Z</time>
      </trkpt>
      <trkpt lat="47.90191" lon="6.83228">
        <ele>904.2</ele>
        <time>2022-09-13T14:34:38Z</time>
      </trkpt>
      <trkpt lat="47.90191" lon="6.83221">
        <ele>904.4</ele>
        <time>2022-09-13T14:34:39Z</time>
      </trkpt>
      <trkpt lat="47.90191" lon="6.83215">
        <ele>904.4</ele>
        <time>2022-09-13T14:34:40Z</time>
      </trkpt>
      <trkpt lat="47.90191" lon="6.83209">
        <ele>904.4</ele>
        <time>2022-09-13T14:34:41Z</time>
      </trkpt>
      <trkpt lat="47.90192" lon="6.83202">
        <ele>904</ele>
        <time>2022-09-13T14:34:42Z</time>
      </trkpt>
      <trkpt lat="47.90193" lon="6.83196">
        <ele>903.6</ele>
        <time>2022-09-13T14:34:43Z</time>
      </trkpt>
      <trkpt lat="47.90194" lon="6.83189">
        <ele>903.8</ele>
        <time>2022-09-13T14:34:44Z</time>
      </trkpt>
      <trkpt lat="47.90195" lon="6.83182">
        <ele>904.1</ele>
        <time>2022-09-13T14:34:45Z</time>
      </trkpt>
      <trkpt lat="47.90196" lon="6.83176">
        <ele>904.2</ele>
        <time>2022-09-13T14:34:46Z</time>
      </trkpt>
      <trkpt lat="47.90197" lon="6.83169">
        <ele>904.5</ele>
        <time>2022-09-13T14:34:47Z</time>
      </trkpt>
      <trkpt lat="47.90198" lon="6.83162">
        <ele>904.1</ele>
        <time>2022-09-13T14:34:48Z</time>
      </trkpt>
      <trkpt lat="47.90199" lon="6.83156">
        <ele>903.5</ele>
        <time>2022-09-13T14:34:49Z</time>
      </trkpt>
      <trkpt lat="47.90199" lon="6.83149">
        <ele>903.4</ele>
        <time>2022-09-13T14:34:50Z</time>
      </trkpt>
      <trkpt lat="47.902" lon="6.83143">
        <ele>902.9</ele>
        <time>2022-09-13T14:34:51Z</time>
      </trkpt>
      <trkpt lat="47.902" lon="6.83137">
        <ele>902.7</ele>
        <time>2022-09-13T14:34:52Z</time>
      </trkpt>
      <trkpt lat="47.90199" lon="6.8313">
        <ele>902.6</ele>
        <time>2022-09-13T14:34:53Z</time>
      </trkpt>
      <trkpt lat="47.90199" lon="6.83123">
        <ele>902.1</ele>
        <time>2022-09-13T14:34:54Z</time>
      </trkpt>
      <trkpt lat="47.90198" lon="6.83116">
        <ele>902</ele>
        <time>2022-09-13T14:34:55Z</time>
      </trkpt>
      <trkpt lat="47.90197" lon="6.83109">
        <ele>902</ele>
        <time>2022-09-13T14:34:56Z</time>
      </trkpt>
      <trkpt lat="47.90196" lon="6.83102">
        <ele>902.1</ele>
        <time>2022-09-13T14:34:57Z</time>
      </trkpt>
      <trkpt lat="47.90196" lon="6.83095">
        <ele>901.9</ele>
        <time>2022-09-13T14:34:58Z</time>
      </trkpt>
      <trkpt lat="47.90195" lon="6.83088">
        <ele>902</ele>
        <time>2022-09-13T14:34:59Z</time>
      </trkpt>
      <trkpt lat="47.90195" lon="6.83081">
        <ele>901.8</ele>
        <time>2022-09-13T14:35:00Z</time>
      </trkpt>
      <trkpt lat="47.90195" lon="6.83074">
        <ele>901.8</ele>
        <time>2022-09-13T14:35:01Z</time>
      </trkpt>
      <trkpt lat="47.90195" lon="6.83067">
        <ele>901.8</ele>
        <time>2022-09-13T14:35:02Z</time>
      </trkpt>
      <trkpt lat="47.90196" lon="6.8306">
        <ele>901.4</ele>
        <time>2022-09-13T14:35:03Z</time>
      </trkpt>
      <trkpt lat="47.90196" lon="6.83054">
        <ele>901.4</ele>
        <time>2022-09-13T14:35:04Z</time>
      </trkpt>
      <trkpt lat="47.90196" lon="6.83048">
        <ele>901.4</ele>
        <time>2022-09-13T14:35:05Z</time>
      </trkpt>
      <trkpt lat="47.90197" lon="6.83042">
        <ele>901</ele>
        <time>2022-09-13T14:35:06Z</time>
      </trkpt>
      <trkpt lat="47.90198" lon="6.83036">
        <ele>900.7</ele>
        <time>2022-09-13T14:35:07Z</time>
      </trkpt>
      <trkpt lat="47.90198" lon="6.8303">
        <ele>900.7</ele>
        <time>2022-09-13T14:35:08Z</time>
      </trkpt>
      <trkpt lat="47.90199" lon="6.83025">
        <ele>900.5</ele>
        <time>2022-09-13T14:35:09Z</time>
      </trkpt>
      <trkpt lat="47.902" lon="6.83019">
        <ele>900.6</ele>
        <time>2022-09-13T14:35:10Z</time>
      </trkpt>
      <trkpt lat="47.90201" lon="6.83014">
        <ele>900.5</ele>
        <time>2022-09-13T14:35:11Z</time>
      </trkpt>
      <trkpt lat="47.90202" lon="6.83009">
        <ele>900.4</ele>
        <time>2022-09-13T14:35:12Z</time>
      </trkpt>
      <trkpt lat="47.90203" lon="6.83005">
        <ele>900.3</ele>
        <time>2022-09-13T14:35:13Z</time>
      </trkpt>
      <trkpt lat="47.90204" lon="6.83">
        <ele>900.2</ele>
        <time>2022-09-13T14:35:14Z</time>
      </trkpt>
      <trkpt lat="47.90204" lon="6.82996">
        <ele>900.3</ele>
        <time>2022-09-13T14:35:15Z</time>
      </trkpt>
      <trkpt lat="47.90205" lon="6.82991">
        <ele>899.9</ele>
        <time>2022-09-13T14:35:16Z</time>
      </trkpt>
      <trkpt lat="47.90205" lon="6.82986">
        <ele>899.9</ele>
        <time>2022-09-13T14:35:17Z</time>
      </trkpt>
      <trkpt lat="47.90205" lon="6.8298">
        <ele>900</ele>
        <time>2022-09-13T14:35:18Z</time>
      </trkpt>
      <trkpt lat="47.90206" lon="6.82975">
        <ele>899.6</ele>
        <time>2022-09-13T14:35:19Z</time>
      </trkpt>
      <trkpt lat="47.90206" lon="6.8297">
        <ele>899.6</ele>
        <time>2022-09-13T14:35:20Z</time>
      </trkpt>
      <trkpt lat="47.90207" lon="6.82966">
        <ele>899.2</ele>
        <time>2022-09-13T14:35:21Z</time>
      </trkpt>
      <trkpt lat="47.90207" lon="6.82961">
        <ele>899.3</ele>
        <time>2022-09-13T14:35:22Z</time>
      </trkpt>
      <trkpt lat="47.90207" lon="6.82957">
        <ele>899.4</ele>
        <time>2022-09-13T14:35:23Z</time>
      </trkpt>
      <trkpt lat="47.90207" lon="6.82953">
        <ele>899.4</ele>
        <time>2022-09-13T14:35:24Z</time>
      </trkpt>
      <trkpt lat="47.90207" lon="6.82948">
        <ele>899.5</ele>
        <time>2022-09-13T14:35:25Z</time>
      </trkpt>
      <trkpt lat="47.90207" lon="6.82945">
        <ele>899.6</ele>
        <time>2022-09-13T14:35:26Z</time>
      </trkpt>
      <trkpt lat="47.90207" lon="6.82942">
        <ele>899.6</ele>
        <time>2022-09-13T14:35:27Z</time>
      </trkpt>
      <trkpt lat="47.90207" lon="6.82939">
        <ele>899.7</ele>
        <time>2022-09-13T14:35:28Z</time>
      </trkpt>
      <trkpt lat="47.90207" lon="6.82935">
        <ele>899.8</ele>
        <time>2022-09-13T14:35:29Z</time>
      </trkpt>
      <trkpt lat="47.90208" lon="6.82929">
        <ele>899.4</ele>
        <time>2022-09-13T14:35:30Z</time>
      </trkpt>
      <trkpt lat="47.90209" lon="6.82924">
        <ele>899.1</ele>
        <time>2022-09-13T14:35:31Z</time>
      </trkpt>
      <trkpt lat="47.9021" lon="6.8292">
        <ele>898.7</ele>
        <time>2022-09-13T14:35:32Z</time>
      </trkpt>
      <trkpt lat="47.90211" lon="6.82917">
        <ele>898.2</ele>
        <time>2022-09-13T14:35:33Z</time>
      </trkpt>
      <trkpt lat="47.90212" lon="6.82916">
        <ele>897.8</ele>
        <time>2022-09-13T14:35:34Z</time>
      </trkpt>
      <trkpt lat="47.90213" lon="6.82913">
        <ele>897.4</ele>
        <time>2022-09-13T14:35:35Z</time>
      </trkpt>
      <trkpt lat="47.90214" lon="6.82911">
        <ele>896.9</ele>
        <time>2022-09-13T14:35:36Z</time>
      </trkpt>
      <trkpt lat="47.90215" lon="6.82907">
        <ele>896.5</ele>
        <time>2022-09-13T14:35:37Z</time>
      </trkpt>
      <trkpt lat="47.90216" lon="6.82904">
        <ele>896</ele>
        <time>2022-09-13T14:35:38Z</time>
      </trkpt>
      <trkpt lat="47.90217" lon="6.82897">
        <ele>895.6</ele>
        <time>2022-09-13T14:35:39Z</time>
      </trkpt>
      <trkpt lat="47.90218" lon="6.82892">
        <ele>895.1</ele>
        <time>2022-09-13T14:35:40Z</time>
      </trkpt>
      <trkpt lat="47.90219" lon="6.82886">
        <ele>894.5</ele>
        <time>2022-09-13T14:35:41Z</time>
      </trkpt>
      <trkpt lat="47.90219" lon="6.82881">
        <ele>894.3</ele>
        <time>2022-09-13T14:35:42Z</time>
      </trkpt>
      <trkpt lat="47.9022" lon="6.82876">
        <ele>893.7</ele>
        <time>2022-09-13T14:35:43Z</time>
      </trkpt>
      <trkpt lat="47.9022" lon="6.82871">
        <ele>893.5</ele>
        <time>2022-09-13T14:35:44Z</time>
      </trkpt>
      <trkpt lat="47.90221" lon="6.82866">
        <ele>892.8</ele>
        <time>2022-09-13T14:35:45Z</time>
      </trkpt>
      <trkpt lat="47.90221" lon="6.82862">
        <ele>892.6</ele>
        <time>2022-09-13T14:35:46Z</time>
      </trkpt>
      <trkpt lat="47.90221" lon="6.82857">
        <ele>893.1</ele>
        <time>2022-09-13T14:35:47Z</time>
      </trkpt>
      <trkpt lat="47.90221" lon="6.82852">
        <ele>893.6</ele>
        <time>2022-09-13T14:35:48Z</time>
      </trkpt>
      <trkpt lat="47.90222" lon="6.82847">
        <ele>893.6</ele>
        <time>2022-09-13T14:35:49Z</time>
      </trkpt>
      <trkpt lat="47.90223" lon="6.82842">
        <ele>893.8</ele>
        <time>2022-09-13T14:35:50Z</time>
      </trkpt>
      <trkpt lat="47.90224" lon="6.82838">
        <ele>893.9</ele>
        <time>2022-09-13T14:35:51Z</time>
      </trkpt>
      <trkpt lat="47.90226" lon="6.82834">
        <ele>893.6</ele>
        <time>2022-09-13T14:35:52Z</time>
      </trkpt>
      <trkpt lat="47.90228" lon="6.82829">
        <ele>893.7</ele>
        <time>2022-09-13T14:35:53Z</time>
      </trkpt>
      <trkpt lat="47.90231" lon="6.82825">
        <ele>893.3</ele>
        <time>2022-09-13T14:35:54Z</time>
      </trkpt>
      <trkpt lat="47.90233" lon="6.82821">
        <ele>893.3</ele>
        <time>2022-09-13T14:35:55Z</time>
      </trkpt>
      <trkpt lat="47.90236" lon="6.82817">
        <ele>893</ele>
        <time>2022-09-13T14:35:56Z</time>
      </trkpt>
      <trkpt lat="47.90239" lon="6.82813">
        <ele>892.6</ele>
        <time>2022-09-13T14:35:57Z</time>
      </trkpt>
      <trkpt lat="47.90241" lon="6.82809">
        <ele>892.6</ele>
        <time>2022-09-13T14:35:58Z</time>
      </trkpt>
      <trkpt lat="47.90244" lon="6.82806">
        <ele>892.1</ele>
        <time>2022-09-13T14:35:59Z</time>
      </trkpt>
      <trkpt lat="47.90247" lon="6.82802">
        <ele>891.7</ele>
        <time>2022-09-13T14:36:00Z</time>
      </trkpt>
      <trkpt lat="47.9025" lon="6.82798">
        <ele>891.4</ele>
        <time>2022-09-13T14:36:01Z</time>
      </trkpt>
      <trkpt lat="47.90253" lon="6.82794">
        <ele>891.2</ele>
        <time>2022-09-13T14:36:02Z</time>
      </trkpt>
      <trkpt lat="47.90256" lon="6.8279">
        <ele>891</ele>
        <time>2022-09-13T14:36:03Z</time>
      </trkpt>
      <trkpt lat="47.90259" lon="6.82786">
        <ele>890.7</ele>
        <time>2022-09-13T14:36:04Z</time>
      </trkpt>
      <trkpt lat="47.90261" lon="6.82782">
        <ele>890.7</ele>
        <time>2022-09-13T14:36:05Z</time>
      </trkpt>
      <trkpt lat="47.90263" lon="6.82777">
        <ele>890.8</ele>
        <time>2022-09-13T14:36:06Z</time>
      </trkpt>
      <trkpt lat="47.90265" lon="6.82773">
        <ele>890.4</ele>
        <time>2022-09-13T14:36:07Z</time>
      </trkpt>
      <trkpt lat="47.90266" lon="6.82769">
        <ele>890.3</ele>
        <time>2022-09-13T14:36:08Z</time>
      </trkpt>
      <trkpt lat="47.90267" lon="6.82765">
        <ele>890.1</ele>
        <time>2022-09-13T14:36:09Z</time>
      </trkpt>
      <trkpt lat="47.90268" lon="6.82762">
        <ele>889.9</ele>
        <time>2022-09-13T14:36:10Z</time>
      </trkpt>
      <trkpt lat="47.90269" lon="6.8276">
        <ele>889.7</ele>
        <time>2022-09-13T14:36:11Z</time>
      </trkpt>
      <trkpt lat="47.90269" lon="6.82757">
        <ele>889.8</ele>
        <time>2022-09-13T14:36:12Z</time>
      </trkpt>
      <trkpt lat="47.9027" lon="6.82753">
        <ele>889.7</ele>
        <time>2022-09-13T14:36:13Z</time>
      </trkpt>
      <trkpt lat="47.9027" lon="6.8275">
        <ele>889.8</ele>
        <time>2022-09-13T14:36:14Z</time>
      </trkpt>
      <trkpt lat="47.9027" lon="6.82746">
        <ele>889.6</ele>
        <time>2022-09-13T14:36:15Z</time>
      </trkpt>
      <trkpt lat="47.9027" lon="6.82742">
        <ele>889.4</ele>
        <time>2022-09-13T14:36:16Z</time>
      </trkpt>
      <trkpt lat="47.9027" lon="6.82738">
        <ele>889.2</ele>
        <time>2022-09-13T14:36:17Z</time>
      </trkpt>
      <trkpt lat="47.9027" lon="6.82734">
        <ele>889</ele>
        <time>2022-09-13T14:36:18Z</time>
      </trkpt>
      <trkpt lat="47.9027" lon="6.82727">
        <ele>888.6</ele>
        <time>2022-09-13T14:36:19Z</time>
      </trkpt>
      <trkpt lat="47.9027" lon="6.82722">
        <ele>888.4</ele>
        <time>2022-09-13T14:36:20Z</time>
      </trkpt>
      <trkpt lat="47.9027" lon="6.82717">
        <ele>888.2</ele>
        <time>2022-09-13T14:36:21Z</time>
      </trkpt>
      <trkpt lat="47.9027" lon="6.82713">
        <ele>888.1</ele>
        <time>2022-09-13T14:36:22Z</time>
      </trkpt>
      <trkpt lat="47.9027" lon="6.82709">
        <ele>888</ele>
        <time>2022-09-13T14:36:23Z</time>
      </trkpt>
      <trkpt lat="47.90271" lon="6.82705">
        <ele>887.5</ele>
        <time>2022-09-13T14:36:24Z</time>
      </trkpt>
      <trkpt lat="47.90271" lon="6.82703">
        <ele>887.4</ele>
        <time>2022-09-13T14:36:25Z</time>
      </trkpt>
      <trkpt lat="47.90271" lon="6.827">
        <ele>887.3</ele>
        <time>2022-09-13T14:36:26Z</time>
      </trkpt>
      <trkpt lat="47.90271" lon="6.82697">
        <ele>887.2</ele>
        <time>2022-09-13T14:36:27Z</time>
      </trkpt>
      <trkpt lat="47.90272" lon="6.82695">
        <ele>886.7</ele>
        <time>2022-09-13T14:36:28Z</time>
      </trkpt>
      <trkpt lat="47.90272" lon="6.82692">
        <ele>886.6</ele>
        <time>2022-09-13T14:36:29Z</time>
      </trkpt>
      <trkpt lat="47.90272" lon="6.8269">
        <ele>886.5</ele>
        <time>2022-09-13T14:36:30Z</time>
      </trkpt>
      <trkpt lat="47.90272" lon="6.82689">
        <ele>886.5</ele>
        <time>2022-09-13T14:36:31Z</time>
      </trkpt>
      <trkpt lat="47.90272" lon="6.82688">
        <ele>886.5</ele>
        <time>2022-09-13T14:36:54Z</time>
      </trkpt>
      <trkpt lat="47.90272" lon="6.82687">
        <ele>886.4</ele>
        <time>2022-09-13T14:36:55Z</time>
      </trkpt>
      <trkpt lat="47.90272" lon="6.82686">
        <ele>886.4</ele>
        <time>2022-09-13T14:36:56Z</time>
      </trkpt>
      <trkpt lat="47.90271" lon="6.82686">
        <ele>886.9</ele>
        <time>2022-09-13T14:36:57Z</time>
      </trkpt>
      <trkpt lat="47.90271" lon="6.82685">
        <ele>886.8</ele>
        <time>2022-09-13T14:36:58Z</time>
      </trkpt>
      <trkpt lat="47.9027" lon="6.82684">
        <ele>887.3</ele>
        <time>2022-09-13T14:36:59Z</time>
      </trkpt>
      <trkpt lat="47.9027" lon="6.82685">
        <ele>887.3</ele>
        <time>2022-09-13T14:38:08Z</time>
      </trkpt>
      <trkpt lat="47.9027" lon="6.82686">
        <ele>887.3</ele>
        <time>2022-09-13T14:38:09Z</time>
      </trkpt>
      <trkpt lat="47.90269" lon="6.82686">
        <ele>887.8</ele>
        <time>2022-09-13T14:38:11Z</time>
      </trkpt>
      <trkpt lat="47.90269" lon="6.82685">
        <ele>887.8</ele>
        <time>2022-09-13T14:38:24Z</time>
      </trkpt>
      <trkpt lat="47.90269" lon="6.82684">
        <ele>887.7</ele>
        <time>2022-09-13T14:38:25Z</time>
      </trkpt>
      <trkpt lat="47.9027" lon="6.82682">
        <ele>887.2</ele>
        <time>2022-09-13T14:38:26Z</time>
      </trkpt>
      <trkpt lat="47.9027" lon="6.82681">
        <ele>887.2</ele>
        <time>2022-09-13T14:38:27Z</time>
      </trkpt>
      <trkpt lat="47.9027" lon="6.82678">
        <ele>887</ele>
        <time>2022-09-13T14:38:28Z</time>
      </trkpt>
      <trkpt lat="47.9027" lon="6.82675">
        <ele>886.9</ele>
        <time>2022-09-13T14:38:29Z</time>
      </trkpt>
      <trkpt lat="47.90269" lon="6.82671">
        <ele>887.3</ele>
        <time>2022-09-13T14:38:30Z</time>
      </trkpt>
      <trkpt lat="47.90269" lon="6.82668">
        <ele>887.2</ele>
        <time>2022-09-13T14:38:31Z</time>
      </trkpt>
      <trkpt lat="47.90269" lon="6.82664">
        <ele>887</ele>
        <time>2022-09-13T14:38:32Z</time>
      </trkpt>
      <trkpt lat="47.90269" lon="6.8266">
        <ele>886.9</ele>
        <time>2022-09-13T14:38:33Z</time>
      </trkpt>
      <trkpt lat="47.90269" lon="6.82656">
        <ele>886.7</ele>
        <time>2022-09-13T14:38:34Z</time>
      </trkpt>
      <trkpt lat="47.90269" lon="6.82653">
        <ele>886.6</ele>
        <time>2022-09-13T14:38:35Z</time>
      </trkpt>
      <trkpt lat="47.90268" lon="6.82649">
        <ele>886.9</ele>
        <time>2022-09-13T14:38:36Z</time>
      </trkpt>
      <trkpt lat="47.90268" lon="6.82645">
        <ele>886.8</ele>
        <time>2022-09-13T14:38:37Z</time>
      </trkpt>
      <trkpt lat="47.90268" lon="6.82642">
        <ele>886.7</ele>
        <time>2022-09-13T14:38:38Z</time>
      </trkpt>
      <trkpt lat="47.90268" lon="6.82638">
        <ele>886.5</ele>
        <time>2022-09-13T14:38:39Z</time>
      </trkpt>
      <trkpt lat="47.90267" lon="6.82634">
        <ele>886.8</ele>
        <time>2022-09-13T14:38:40Z</time>
      </trkpt>
      <trkpt lat="47.90267" lon="6.8263">
        <ele>886.5</ele>
        <time>2022-09-13T14:38:41Z</time>
      </trkpt>
      <trkpt lat="47.90267" lon="6.82626">
        <ele>886.3</ele>
        <time>2022-09-13T14:38:42Z</time>
      </trkpt>
      <trkpt lat="47.90267" lon="6.82619">
        <ele>885.9</ele>
        <time>2022-09-13T14:38:43Z</time>
      </trkpt>
      <trkpt lat="47.90267" lon="6.82614">
        <ele>885.6</ele>
        <time>2022-09-13T14:38:44Z</time>
      </trkpt>
      <trkpt lat="47.90267" lon="6.82609">
        <ele>885.3</ele>
        <time>2022-09-13T14:38:45Z</time>
      </trkpt>
      <trkpt lat="47.90267" lon="6.82604">
        <ele>884.9</ele>
        <time>2022-09-13T14:38:46Z</time>
      </trkpt>
      <trkpt lat="47.90267" lon="6.826">
        <ele>884.6</ele>
        <time>2022-09-13T14:38:47Z</time>
      </trkpt>
      <trkpt lat="47.90266" lon="6.82595">
        <ele>884.8</ele>
        <time>2022-09-13T14:38:48Z</time>
      </trkpt>
      <trkpt lat="47.90266" lon="6.8259">
        <ele>884.4</ele>
        <time>2022-09-13T14:38:49Z</time>
      </trkpt>
      <trkpt lat="47.90266" lon="6.82586">
        <ele>884.1</ele>
        <time>2022-09-13T14:38:50Z</time>
      </trkpt>
      <trkpt lat="47.90265" lon="6.82581">
        <ele>884.2</ele>
        <time>2022-09-13T14:38:51Z</time>
      </trkpt>
      <trkpt lat="47.90265" lon="6.82576">
        <ele>883.8</ele>
        <time>2022-09-13T14:38:52Z</time>
      </trkpt>
      <trkpt lat="47.90264" lon="6.82572">
        <ele>883.9</ele>
        <time>2022-09-13T14:38:53Z</time>
      </trkpt>
      <trkpt lat="47.90264" lon="6.82567">
        <ele>883.5</ele>
        <time>2022-09-13T14:38:54Z</time>
      </trkpt>
      <trkpt lat="47.90264" lon="6.82563">
        <ele>883.1</ele>
        <time>2022-09-13T14:38:55Z</time>
      </trkpt>
      <trkpt lat="47.90264" lon="6.82558">
        <ele>882.7</ele>
        <time>2022-09-13T14:38:56Z</time>
      </trkpt>
      <trkpt lat="47.90263" lon="6.82553">
        <ele>882.7</ele>
        <time>2022-09-13T14:38:57Z</time>
      </trkpt>
      <trkpt lat="47.90263" lon="6.82549">
        <ele>882.4</ele>
        <time>2022-09-13T14:38:58Z</time>
      </trkpt>
      <trkpt lat="47.90262" lon="6.82544">
        <ele>882.6</ele>
        <time>2022-09-13T14:38:59Z</time>
      </trkpt>
      <trkpt lat="47.90261" lon="6.82539">
        <ele>882.7</ele>
        <time>2022-09-13T14:39:00Z</time>
      </trkpt>
      <trkpt lat="47.9026" lon="6.82533">
        <ele>882.7</ele>
        <time>2022-09-13T14:39:01Z</time>
      </trkpt>
      <trkpt lat="47.90259" lon="6.82528">
        <ele>882.8</ele>
        <time>2022-09-13T14:39:02Z</time>
      </trkpt>
      <trkpt lat="47.90258" lon="6.82522">
        <ele>882.6</ele>
        <time>2022-09-13T14:39:03Z</time>
      </trkpt>
      <trkpt lat="47.90257" lon="6.82516">
        <ele>882.5</ele>
        <time>2022-09-13T14:39:04Z</time>
      </trkpt>
      <trkpt lat="47.90256" lon="6.82511">
        <ele>882.4</ele>
        <time>2022-09-13T14:39:05Z</time>
      </trkpt>
      <trkpt lat="47.90255" lon="6.82505">
        <ele>882.2</ele>
        <time>2022-09-13T14:39:06Z</time>
      </trkpt>
      <trkpt lat="47.90254" lon="6.82499">
        <ele>882</ele>
        <time>2022-09-13T14:39:07Z</time>
      </trkpt>
      <trkpt lat="47.90253" lon="6.82494">
        <ele>881.8</ele>
        <time>2022-09-13T14:39:08Z</time>
      </trkpt>
      <trkpt lat="47.90252" lon="6.82488">
        <ele>881.4</ele>
        <time>2022-09-13T14:39:09Z</time>
      </trkpt>
      <trkpt lat="47.9025" lon="6.82482">
        <ele>881.4</ele>
        <time>2022-09-13T14:39:10Z</time>
      </trkpt>
      <trkpt lat="47.90249" lon="6.82477">
        <ele>881</ele>
        <time>2022-09-13T14:39:11Z</time>
      </trkpt>
      <trkpt lat="47.90248" lon="6.82472">
        <ele>880.7</ele>
        <time>2022-09-13T14:39:12Z</time>
      </trkpt>
      <trkpt lat="47.90247" lon="6.82467">
        <ele>880.5</ele>
        <time>2022-09-13T14:39:13Z</time>
      </trkpt>
      <trkpt lat="47.90245" lon="6.82463">
        <ele>880.7</ele>
        <time>2022-09-13T14:39:14Z</time>
      </trkpt>
      <trkpt lat="47.90243" lon="6.82458">
        <ele>880.7</ele>
        <time>2022-09-13T14:39:15Z</time>
      </trkpt>
      <trkpt lat="47.90242" lon="6.82453">
        <ele>880.4</ele>
        <time>2022-09-13T14:39:16Z</time>
      </trkpt>
      <trkpt lat="47.9024" lon="6.82449">
        <ele>880.5</ele>
        <time>2022-09-13T14:39:17Z</time>
      </trkpt>
      <trkpt lat="47.90238" lon="6.82444">
        <ele>880.4</ele>
        <time>2022-09-13T14:39:18Z</time>
      </trkpt>
      <trkpt lat="47.90236" lon="6.8244">
        <ele>880.2</ele>
        <time>2022-09-13T14:39:19Z</time>
      </trkpt>
      <trkpt lat="47.90234" lon="6.82435">
        <ele>879.9</ele>
        <time>2022-09-13T14:39:20Z</time>
      </trkpt>
      <trkpt lat="47.90232" lon="6.82431">
        <ele>879.8</ele>
        <time>2022-09-13T14:39:21Z</time>
      </trkpt>
      <trkpt lat="47.9023" lon="6.82427">
        <ele>879.6</ele>
        <time>2022-09-13T14:39:22Z</time>
      </trkpt>
      <trkpt lat="47.90228" lon="6.82422">
        <ele>879.3</ele>
        <time>2022-09-13T14:39:23Z</time>
      </trkpt>
      <trkpt lat="47.90226" lon="6.82417">
        <ele>879</ele>
        <time>2022-09-13T14:39:24Z</time>
      </trkpt>
      <trkpt lat="47.90224" lon="6.82413">
        <ele>879</ele>
        <time>2022-09-13T14:39:25Z</time>
      </trkpt>
      <trkpt lat="47.90221" lon="6.82409">
        <ele>879.2</ele>
        <time>2022-09-13T14:39:26Z</time>
      </trkpt>
      <trkpt lat="47.90219" lon="6.82406">
        <ele>879.3</ele>
        <time>2022-09-13T14:39:27Z</time>
      </trkpt>
      <trkpt lat="47.90216" lon="6.82402">
        <ele>879.6</ele>
        <time>2022-09-13T14:39:28Z</time>
      </trkpt>
      <trkpt lat="47.90214" lon="6.82399">
        <ele>879.6</ele>
        <time>2022-09-13T14:39:29Z</time>
      </trkpt>
      <trkpt lat="47.90211" lon="6.82394">
        <ele>879.6</ele>
        <time>2022-09-13T14:39:30Z</time>
      </trkpt>
      <trkpt lat="47.90208" lon="6.8239">
        <ele>879.8</ele>
        <time>2022-09-13T14:39:31Z</time>
      </trkpt>
      <trkpt lat="47.90205" lon="6.82386">
        <ele>879.7</ele>
        <time>2022-09-13T14:39:32Z</time>
      </trkpt>
      <trkpt lat="47.90202" lon="6.82381">
        <ele>879.4</ele>
        <time>2022-09-13T14:39:33Z</time>
      </trkpt>
      <trkpt lat="47.90199" lon="6.82376">
        <ele>879.1</ele>
        <time>2022-09-13T14:39:34Z</time>
      </trkpt>
      <trkpt lat="47.90196" lon="6.82372">
        <ele>879</ele>
        <time>2022-09-13T14:39:35Z</time>
      </trkpt>
      <trkpt lat="47.90193" lon="6.82368">
        <ele>878.8</ele>
        <time>2022-09-13T14:39:36Z</time>
      </trkpt>
      <trkpt lat="47.9019" lon="6.82364">
        <ele>878.6</ele>
        <time>2022-09-13T14:39:37Z</time>
      </trkpt>
      <trkpt lat="47.90186" lon="6.82361">
        <ele>878.8</ele>
        <time>2022-09-13T14:39:38Z</time>
      </trkpt>
      <trkpt lat="47.90183" lon="6.82358">
        <ele>878.8</ele>
        <time>2022-09-13T14:39:39Z</time>
      </trkpt>
      <trkpt lat="47.9018" lon="6.82354">
        <ele>878.6</ele>
        <time>2022-09-13T14:39:40Z</time>
      </trkpt>
      <trkpt lat="47.90177" lon="6.82351">
        <ele>878.6</ele>
        <time>2022-09-13T14:39:41Z</time>
      </trkpt>
      <trkpt lat="47.90173" lon="6.82349">
        <ele>879</ele>
        <time>2022-09-13T14:39:42Z</time>
      </trkpt>
      <trkpt lat="47.9017" lon="6.82346">
        <ele>879</ele>
        <time>2022-09-13T14:39:43Z</time>
      </trkpt>
      <trkpt lat="47.90167" lon="6.82344">
        <ele>879.2</ele>
        <time>2022-09-13T14:39:44Z</time>
      </trkpt>
      <trkpt lat="47.90164" lon="6.82341">
        <ele>879</ele>
        <time>2022-09-13T14:39:45Z</time>
      </trkpt>
      <trkpt lat="47.9016" lon="6.82338">
        <ele>878.8</ele>
        <time>2022-09-13T14:39:46Z</time>
      </trkpt>
      <trkpt lat="47.90157" lon="6.82335">
        <ele>878.4</ele>
        <time>2022-09-13T14:39:47Z</time>
      </trkpt>
      <trkpt lat="47.90154" lon="6.82333">
        <ele>878.3</ele>
        <time>2022-09-13T14:39:48Z</time>
      </trkpt>
      <trkpt lat="47.9015" lon="6.8233">
        <ele>878</ele>
        <time>2022-09-13T14:39:49Z</time>
      </trkpt>
      <trkpt lat="47.90146" lon="6.82327">
        <ele>877.8</ele>
        <time>2022-09-13T14:39:50Z</time>
      </trkpt>
      <trkpt lat="47.90143" lon="6.82325">
        <ele>877.7</ele>
        <time>2022-09-13T14:39:51Z</time>
      </trkpt>
      <trkpt lat="47.90139" lon="6.82322">
        <ele>877.5</ele>
        <time>2022-09-13T14:39:52Z</time>
      </trkpt>
      <trkpt lat="47.90135" lon="6.8232">
        <ele>877.5</ele>
        <time>2022-09-13T14:39:53Z</time>
      </trkpt>
      <trkpt lat="47.90131" lon="6.82319">
        <ele>877.8</ele>
        <time>2022-09-13T14:39:54Z</time>
      </trkpt>
      <trkpt lat="47.90127" lon="6.82317">
        <ele>877.8</ele>
        <time>2022-09-13T14:39:55Z</time>
      </trkpt>
      <trkpt lat="47.90123" lon="6.82315">
        <ele>877.8</ele>
        <time>2022-09-13T14:39:56Z</time>
      </trkpt>
      <trkpt lat="47.90118" lon="6.82314">
        <ele>878.1</ele>
        <time>2022-09-13T14:39:57Z</time>
      </trkpt>
      <trkpt lat="47.90114" lon="6.82312">
        <ele>878.1</ele>
        <time>2022-09-13T14:39:58Z</time>
      </trkpt>
      <trkpt lat="47.9011" lon="6.82311">
        <ele>878.3</ele>
        <time>2022-09-13T14:39:59Z</time>
      </trkpt>
      <trkpt lat="47.90106" lon="6.82309">
        <ele>878.1</ele>
        <time>2022-09-13T14:40:00Z</time>
      </trkpt>
      <trkpt lat="47.90102" lon="6.82307">
        <ele>878</ele>
        <time>2022-09-13T14:40:01Z</time>
      </trkpt>
      <trkpt lat="47.90098" lon="6.82305">
        <ele>877.8</ele>
        <time>2022-09-13T14:40:02Z</time>
      </trkpt>
      <trkpt lat="47.90094" lon="6.82303">
        <ele>877.6</ele>
        <time>2022-09-13T14:40:03Z</time>
      </trkpt>
      <trkpt lat="47.90091" lon="6.82301">
        <ele>877.3</ele>
        <time>2022-09-13T14:40:04Z</time>
      </trkpt>
      <trkpt lat="47.90086" lon="6.82299">
        <ele>877.2</ele>
        <time>2022-09-13T14:40:05Z</time>
      </trkpt>
      <trkpt lat="47.90082" lon="6.82298">
        <ele>877.2</ele>
        <time>2022-09-13T14:40:06Z</time>
      </trkpt>
      <trkpt lat="47.90078" lon="6.82296">
        <ele>877</ele>
        <time>2022-09-13T14:40:07Z</time>
      </trkpt>
      <trkpt lat="47.90074" lon="6.82295">
        <ele>877</ele>
        <time>2022-09-13T14:40:08Z</time>
      </trkpt>
      <trkpt lat="47.90069" lon="6.82293">
        <ele>876.9</ele>
        <time>2022-09-13T14:40:09Z</time>
      </trkpt>
      <trkpt lat="47.90065" lon="6.82292">
        <ele>876.9</ele>
        <time>2022-09-13T14:40:10Z</time>
      </trkpt>
      <trkpt lat="47.9006" lon="6.82291">
        <ele>877</ele>
        <time>2022-09-13T14:40:11Z</time>
      </trkpt>
      <trkpt lat="47.90056" lon="6.8229">
        <ele>877</ele>
        <time>2022-09-13T14:40:12Z</time>
      </trkpt>
      <trkpt lat="47.90052" lon="6.82289">
        <ele>877</ele>
        <time>2022-09-13T14:40:13Z</time>
      </trkpt>
      <trkpt lat="47.90048" lon="6.82287">
        <ele>876.8</ele>
        <time>2022-09-13T14:40:14Z</time>
      </trkpt>
      <trkpt lat="47.90044" lon="6.82286">
        <ele>876.8</ele>
        <time>2022-09-13T14:40:15Z</time>
      </trkpt>
      <trkpt lat="47.9004" lon="6.82284">
        <ele>876.6</ele>
        <time>2022-09-13T14:40:16Z</time>
      </trkpt>
      <trkpt lat="47.90036" lon="6.82282">
        <ele>876.4</ele>
        <time>2022-09-13T14:40:17Z</time>
      </trkpt>
      <trkpt lat="47.90032" lon="6.82279">
        <ele>876</ele>
        <time>2022-09-13T14:40:18Z</time>
      </trkpt>
      <trkpt lat="47.90027" lon="6.82277">
        <ele>875.9</ele>
        <time>2022-09-13T14:40:19Z</time>
      </trkpt>
      <trkpt lat="47.90023" lon="6.82274">
        <ele>875.8</ele>
        <time>2022-09-13T14:40:20Z</time>
      </trkpt>
      <trkpt lat="47.9002" lon="6.8227">
        <ele>875.4</ele>
        <time>2022-09-13T14:40:21Z</time>
      </trkpt>
      <trkpt lat="47.90016" lon="6.82267">
        <ele>875.3</ele>
        <time>2022-09-13T14:40:22Z</time>
      </trkpt>
      <trkpt lat="47.90011" lon="6.82264">
        <ele>875.3</ele>
        <time>2022-09-13T14:40:23Z</time>
      </trkpt>
      <trkpt lat="47.90007" lon="6.8226">
        <ele>875</ele>
        <time>2022-09-13T14:40:24Z</time>
      </trkpt>
      <trkpt lat="47.90002" lon="6.82256">
        <ele>874.9</ele>
        <time>2022-09-13T14:40:25Z</time>
      </trkpt>
      <trkpt lat="47.89997" lon="6.82253">
        <ele>875.2</ele>
        <time>2022-09-13T14:40:26Z</time>
      </trkpt>
      <trkpt lat="47.89991" lon="6.82249">
        <ele>875.8</ele>
        <time>2022-09-13T14:40:27Z</time>
      </trkpt>
      <trkpt lat="47.89988" lon="6.82246">
        <ele>875.9</ele>
        <time>2022-09-13T14:40:28Z</time>
      </trkpt>
      <trkpt lat="47.89984" lon="6.82242">
        <ele>876</ele>
        <time>2022-09-13T14:40:29Z</time>
      </trkpt>
      <trkpt lat="47.89981" lon="6.82237">
        <ele>875.8</ele>
        <time>2022-09-13T14:40:30Z</time>
      </trkpt>
      <trkpt lat="47.89978" lon="6.82233">
        <ele>875.7</ele>
        <time>2022-09-13T14:40:31Z</time>
      </trkpt>
      <trkpt lat="47.89975" lon="6.82229">
        <ele>875.6</ele>
        <time>2022-09-13T14:40:32Z</time>
      </trkpt>
      <trkpt lat="47.89973" lon="6.82224">
        <ele>875.2</ele>
        <time>2022-09-13T14:40:33Z</time>
      </trkpt>
      <trkpt lat="47.8997" lon="6.8222">
        <ele>875.5</ele>
        <time>2022-09-13T14:40:34Z</time>
      </trkpt>
      <trkpt lat="47.89968" lon="6.82215">
        <ele>875.5</ele>
        <time>2022-09-13T14:40:35Z</time>
      </trkpt>
      <trkpt lat="47.89966" lon="6.8221">
        <ele>875.6</ele>
        <time>2022-09-13T14:40:36Z</time>
      </trkpt>
      <trkpt lat="47.89964" lon="6.82205">
        <ele>875.6</ele>
        <time>2022-09-13T14:40:37Z</time>
      </trkpt>
      <trkpt lat="47.89962" lon="6.82199">
        <ele>875.5</ele>
        <time>2022-09-13T14:40:38Z</time>
      </trkpt>
      <trkpt lat="47.8996" lon="6.82193">
        <ele>875.4</ele>
        <time>2022-09-13T14:40:39Z</time>
      </trkpt>
      <trkpt lat="47.89959" lon="6.82187">
        <ele>875.3</ele>
        <time>2022-09-13T14:40:40Z</time>
      </trkpt>
      <trkpt lat="47.89958" lon="6.82181">
        <ele>875.1</ele>
        <time>2022-09-13T14:40:41Z</time>
      </trkpt>
      <trkpt lat="47.89957" lon="6.82175">
        <ele>875.1</ele>
        <time>2022-09-13T14:40:42Z</time>
      </trkpt>
      <trkpt lat="47.89956" lon="6.82169">
        <ele>875</ele>
        <time>2022-09-13T14:40:43Z</time>
      </trkpt>
      <trkpt lat="47.89956" lon="6.82163">
        <ele>874.8</ele>
        <time>2022-09-13T14:40:44Z</time>
      </trkpt>
      <trkpt lat="47.89956" lon="6.82157">
        <ele>874.7</ele>
        <time>2022-09-13T14:40:45Z</time>
      </trkpt>
      <trkpt lat="47.89955" lon="6.82151">
        <ele>875</ele>
        <time>2022-09-13T14:40:46Z</time>
      </trkpt>
      <trkpt lat="47.89955" lon="6.82145">
        <ele>874.9</ele>
        <time>2022-09-13T14:40:47Z</time>
      </trkpt>
      <trkpt lat="47.89956" lon="6.82139">
        <ele>874.4</ele>
        <time>2022-09-13T14:40:48Z</time>
      </trkpt>
      <trkpt lat="47.89957" lon="6.82133">
        <ele>874.2</ele>
        <time>2022-09-13T14:40:49Z</time>
      </trkpt>
      <trkpt lat="47.89958" lon="6.82126">
        <ele>874.1</ele>
        <time>2022-09-13T14:40:50Z</time>
      </trkpt>
      <trkpt lat="47.89959" lon="6.8212">
        <ele>873.9</ele>
        <time>2022-09-13T14:40:51Z</time>
      </trkpt>
      <trkpt lat="47.8996" lon="6.82114">
        <ele>873.7</ele>
        <time>2022-09-13T14:40:52Z</time>
      </trkpt>
      <trkpt lat="47.89961" lon="6.82108">
        <ele>873.5</ele>
        <time>2022-09-13T14:40:53Z</time>
      </trkpt>
      <trkpt lat="47.89962" lon="6.82102">
        <ele>873.3</ele>
        <time>2022-09-13T14:40:54Z</time>
      </trkpt>
      <trkpt lat="47.89963" lon="6.82096">
        <ele>873</ele>
        <time>2022-09-13T14:40:55Z</time>
      </trkpt>
      <trkpt lat="47.89963" lon="6.8209">
        <ele>873.2</ele>
        <time>2022-09-13T14:40:56Z</time>
      </trkpt>
      <trkpt lat="47.89964" lon="6.82084">
        <ele>872.9</ele>
        <time>2022-09-13T14:40:57Z</time>
      </trkpt>
      <trkpt lat="47.89964" lon="6.82078">
        <ele>873.2</ele>
        <time>2022-09-13T14:40:58Z</time>
      </trkpt>
      <trkpt lat="47.89965" lon="6.82072">
        <ele>873.1</ele>
        <time>2022-09-13T14:40:59Z</time>
      </trkpt>
      <trkpt lat="47.89966" lon="6.82066">
        <ele>873</ele>
        <time>2022-09-13T14:41:00Z</time>
      </trkpt>
      <trkpt lat="47.89968" lon="6.82061">
        <ele>872.4</ele>
        <time>2022-09-13T14:41:01Z</time>
      </trkpt>
      <trkpt lat="47.89969" lon="6.82056">
        <ele>872.3</ele>
        <time>2022-09-13T14:41:02Z</time>
      </trkpt>
      <trkpt lat="47.8997" lon="6.82051">
        <ele>872.2</ele>
        <time>2022-09-13T14:41:03Z</time>
      </trkpt>
      <trkpt lat="47.89971" lon="6.82045">
        <ele>872.2</ele>
        <time>2022-09-13T14:41:04Z</time>
      </trkpt>
      <trkpt lat="47.89973" lon="6.82039">
        <ele>871.9</ele>
        <time>2022-09-13T14:41:05Z</time>
      </trkpt>
      <trkpt lat="47.89974" lon="6.82033">
        <ele>871.9</ele>
        <time>2022-09-13T14:41:06Z</time>
      </trkpt>
      <trkpt lat="47.89975" lon="6.82026">
        <ele>872</ele>
        <time>2022-09-13T14:41:07Z</time>
      </trkpt>
      <trkpt lat="47.89976" lon="6.8202">
        <ele>871.9</ele>
        <time>2022-09-13T14:41:08Z</time>
      </trkpt>
      <trkpt lat="47.89977" lon="6.82014">
        <ele>871.8</ele>
        <time>2022-09-13T14:41:09Z</time>
      </trkpt>
      <trkpt lat="47.89978" lon="6.82008">
        <ele>871.7</ele>
        <time>2022-09-13T14:41:10Z</time>
      </trkpt>
      <trkpt lat="47.89979" lon="6.82003">
        <ele>871.6</ele>
        <time>2022-09-13T14:41:11Z</time>
      </trkpt>
      <trkpt lat="47.8998" lon="6.81997">
        <ele>871.7</ele>
        <time>2022-09-13T14:41:12Z</time>
      </trkpt>
      <trkpt lat="47.89982" lon="6.81991">
        <ele>871.5</ele>
        <time>2022-09-13T14:41:13Z</time>
      </trkpt>
      <trkpt lat="47.89983" lon="6.81985">
        <ele>871.6</ele>
        <time>2022-09-13T14:41:14Z</time>
      </trkpt>
      <trkpt lat="47.89984" lon="6.81979">
        <ele>871.7</ele>
        <time>2022-09-13T14:41:15Z</time>
      </trkpt>
      <trkpt lat="47.89985" lon="6.81974">
        <ele>871.7</ele>
        <time>2022-09-13T14:41:16Z</time>
      </trkpt>
      <trkpt lat="47.89986" lon="6.81968">
        <ele>871.6</ele>
        <time>2022-09-13T14:41:17Z</time>
      </trkpt>
      <trkpt lat="47.89986" lon="6.81961">
        <ele>871.7</ele>
        <time>2022-09-13T14:41:18Z</time>
      </trkpt>
      <trkpt lat="47.89986" lon="6.81955">
        <ele>871.8</ele>
        <time>2022-09-13T14:41:19Z</time>
      </trkpt>
      <trkpt lat="47.89987" lon="6.81948">
        <ele>871.7</ele>
        <time>2022-09-13T14:41:20Z</time>
      </trkpt>
      <trkpt lat="47.89987" lon="6.81942">
        <ele>871.8</ele>
        <time>2022-09-13T14:41:21Z</time>
      </trkpt>
      <trkpt lat="47.89986" lon="6.81935">
        <ele>872.2</ele>
        <time>2022-09-13T14:41:22Z</time>
      </trkpt>
      <trkpt lat="47.89986" lon="6.81928">
        <ele>872.3</ele>
        <time>2022-09-13T14:41:23Z</time>
      </trkpt>
      <trkpt lat="47.89985" lon="6.81922">
        <ele>872.7</ele>
        <time>2022-09-13T14:41:24Z</time>
      </trkpt>
      <trkpt lat="47.89985" lon="6.81915">
        <ele>872.8</ele>
        <time>2022-09-13T14:41:25Z</time>
      </trkpt>
      <trkpt lat="47.89984" lon="6.81908">
        <ele>873</ele>
        <time>2022-09-13T14:41:26Z</time>
      </trkpt>
      <trkpt lat="47.89983" lon="6.81902">
        <ele>873.3</ele>
        <time>2022-09-13T14:41:27Z</time>
      </trkpt>
      <trkpt lat="47.89982" lon="6.81896">
        <ele>873.5</ele>
        <time>2022-09-13T14:41:28Z</time>
      </trkpt>
      <trkpt lat="47.8998" lon="6.81889">
        <ele>874</ele>
        <time>2022-09-13T14:41:29Z</time>
      </trkpt>
      <trkpt lat="47.89979" lon="6.81883">
        <ele>873.8</ele>
        <time>2022-09-13T14:41:30Z</time>
      </trkpt>
      <trkpt lat="47.89977" lon="6.81877">
        <ele>873.7</ele>
        <time>2022-09-13T14:41:31Z</time>
      </trkpt>
      <trkpt lat="47.89976" lon="6.81872">
        <ele>873.5</ele>
        <time>2022-09-13T14:41:32Z</time>
      </trkpt>
      <trkpt lat="47.89974" lon="6.81866">
        <ele>873.2</ele>
        <time>2022-09-13T14:41:33Z</time>
      </trkpt>
      <trkpt lat="47.89973" lon="6.8186">
        <ele>872.9</ele>
        <time>2022-09-13T14:41:34Z</time>
      </trkpt>
      <trkpt lat="47.89971" lon="6.81854">
        <ele>873.1</ele>
        <time>2022-09-13T14:41:35Z</time>
      </trkpt>
      <trkpt lat="47.8997" lon="6.81848">
        <ele>873.1</ele>
        <time>2022-09-13T14:41:36Z</time>
      </trkpt>
      <trkpt lat="47.89969" lon="6.81843">
        <ele>873.1</ele>
        <time>2022-09-13T14:41:37Z</time>
      </trkpt>
      <trkpt lat="47.89967" lon="6.81838">
        <ele>873.1</ele>
        <time>2022-09-13T14:41:38Z</time>
      </trkpt>
      <trkpt lat="47.89966" lon="6.81833">
        <ele>873</ele>
        <time>2022-09-13T14:41:39Z</time>
      </trkpt>
      <trkpt lat="47.89964" lon="6.81828">
        <ele>872.9</ele>
        <time>2022-09-13T14:41:40Z</time>
      </trkpt>
      <trkpt lat="47.89962" lon="6.81823">
        <ele>872.9</ele>
        <time>2022-09-13T14:41:41Z</time>
      </trkpt>
      <trkpt lat="47.8996" lon="6.81818">
        <ele>872.8</ele>
        <time>2022-09-13T14:41:42Z</time>
      </trkpt>
      <trkpt lat="47.89958" lon="6.81813">
        <ele>872.6</ele>
        <time>2022-09-13T14:41:43Z</time>
      </trkpt>
      <trkpt lat="47.89957" lon="6.81808">
        <ele>872.5</ele>
        <time>2022-09-13T14:41:44Z</time>
      </trkpt>
      <trkpt lat="47.89955" lon="6.81803">
        <ele>872.4</ele>
        <time>2022-09-13T14:41:45Z</time>
      </trkpt>
      <trkpt lat="47.89953" lon="6.81798">
        <ele>872.5</ele>
        <time>2022-09-13T14:41:46Z</time>
      </trkpt>
      <trkpt lat="47.89952" lon="6.81793">
        <ele>872.5</ele>
        <time>2022-09-13T14:41:47Z</time>
      </trkpt>
      <trkpt lat="47.8995" lon="6.81789">
        <ele>872.4</ele>
        <time>2022-09-13T14:41:48Z</time>
      </trkpt>
      <trkpt lat="47.89948" lon="6.81784">
        <ele>872.3</ele>
        <time>2022-09-13T14:41:49Z</time>
      </trkpt>
      <trkpt lat="47.89946" lon="6.8178">
        <ele>872.2</ele>
        <time>2022-09-13T14:41:50Z</time>
      </trkpt>
      <trkpt lat="47.89945" lon="6.81776">
        <ele>872.2</ele>
        <time>2022-09-13T14:41:51Z</time>
      </trkpt>
      <trkpt lat="47.89943" lon="6.81771">
        <ele>872.2</ele>
        <time>2022-09-13T14:41:52Z</time>
      </trkpt>
      <trkpt lat="47.89941" lon="6.81767">
        <ele>872.1</ele>
        <time>2022-09-13T14:41:53Z</time>
      </trkpt>
      <trkpt lat="47.89939" lon="6.81762">
        <ele>872</ele>
        <time>2022-09-13T14:41:54Z</time>
      </trkpt>
      <trkpt lat="47.89936" lon="6.81757">
        <ele>871.7</ele>
        <time>2022-09-13T14:41:55Z</time>
      </trkpt>
      <trkpt lat="47.89934" lon="6.81752">
        <ele>871.6</ele>
        <time>2022-09-13T14:41:56Z</time>
      </trkpt>
      <trkpt lat="47.89932" lon="6.81747">
        <ele>871.4</ele>
        <time>2022-09-13T14:41:57Z</time>
      </trkpt>
      <trkpt lat="47.8993" lon="6.81742">
        <ele>871.2</ele>
        <time>2022-09-13T14:41:58Z</time>
      </trkpt>
      <trkpt lat="47.89927" lon="6.81737">
        <ele>870.7</ele>
        <time>2022-09-13T14:41:59Z</time>
      </trkpt>
      <trkpt lat="47.89924" lon="6.81731">
        <ele>870.3</ele>
        <time>2022-09-13T14:42:00Z</time>
      </trkpt>
      <trkpt lat="47.89921" lon="6.81725">
        <ele>869.8</ele>
        <time>2022-09-13T14:42:01Z</time>
      </trkpt>
      <trkpt lat="47.89919" lon="6.8172">
        <ele>869.8</ele>
        <time>2022-09-13T14:42:02Z</time>
      </trkpt>
      <trkpt lat="47.89915" lon="6.81714">
        <ele>869.8</ele>
        <time>2022-09-13T14:42:03Z</time>
      </trkpt>
      <trkpt lat="47.89912" lon="6.81709">
        <ele>869.7</ele>
        <time>2022-09-13T14:42:04Z</time>
      </trkpt>
      <trkpt lat="47.89909" lon="6.81704">
        <ele>869.7</ele>
        <time>2022-09-13T14:42:05Z</time>
      </trkpt>
      <trkpt lat="47.89906" lon="6.81698">
        <ele>869.8</ele>
        <time>2022-09-13T14:42:06Z</time>
      </trkpt>
      <trkpt lat="47.89902" lon="6.81693">
        <ele>869.5</ele>
        <time>2022-09-13T14:42:07Z</time>
      </trkpt>
      <trkpt lat="47.89899" lon="6.81687">
        <ele>869.4</ele>
        <time>2022-09-13T14:42:08Z</time>
      </trkpt>
      <trkpt lat="47.89896" lon="6.81681">
        <ele>869.2</ele>
        <time>2022-09-13T14:42:09Z</time>
      </trkpt>
      <trkpt lat="47.89892" lon="6.81675">
        <ele>868.9</ele>
        <time>2022-09-13T14:42:10Z</time>
      </trkpt>
      <trkpt lat="47.89889" lon="6.81668">
        <ele>868.9</ele>
        <time>2022-09-13T14:42:11Z</time>
      </trkpt>
      <trkpt lat="47.89886" lon="6.81658">
        <ele>868.4</ele>
        <time>2022-09-13T14:42:12Z</time>
      </trkpt>
      <trkpt lat="47.89883" lon="6.81651">
        <ele>867.8</ele>
        <time>2022-09-13T14:42:13Z</time>
      </trkpt>
      <trkpt lat="47.89882" lon="6.81645">
        <ele>867.7</ele>
        <time>2022-09-13T14:42:14Z</time>
      </trkpt>
      <trkpt lat="47.8988" lon="6.81636">
        <ele>867.4</ele>
        <time>2022-09-13T14:42:15Z</time>
      </trkpt>
      <trkpt lat="47.89879" lon="6.81632">
        <ele>867.2</ele>
        <time>2022-09-13T14:42:16Z</time>
      </trkpt>
      <trkpt lat="47.89879" lon="6.81627">
        <ele>867.2</ele>
        <time>2022-09-13T14:42:17Z</time>
      </trkpt>
      <trkpt lat="47.89878" lon="6.81622">
        <ele>866.9</ele>
        <time>2022-09-13T14:42:18Z</time>
      </trkpt>
      <trkpt lat="47.89878" lon="6.81618">
        <ele>866.9</ele>
        <time>2022-09-13T14:42:19Z</time>
      </trkpt>
      <trkpt lat="47.89877" lon="6.81614">
        <ele>866.6</ele>
        <time>2022-09-13T14:42:20Z</time>
      </trkpt>
      <trkpt lat="47.89877" lon="6.81612">
        <ele>866.6</ele>
        <time>2022-09-13T14:42:21Z</time>
      </trkpt>
      <trkpt lat="47.89876" lon="6.8161">
        <ele>866.3</ele>
        <time>2022-09-13T14:42:22Z</time>
      </trkpt>
      <trkpt lat="47.89876" lon="6.81607">
        <ele>866.4</ele>
        <time>2022-09-13T14:42:23Z</time>
      </trkpt>
      <trkpt lat="47.89876" lon="6.81605">
        <ele>866.4</ele>
        <time>2022-09-13T14:42:24Z</time>
      </trkpt>
      <trkpt lat="47.89876" lon="6.81604">
        <ele>866.4</ele>
        <time>2022-09-13T14:42:50Z</time>
      </trkpt>
      <trkpt lat="47.89876" lon="6.81603">
        <ele>866.4</ele>
        <time>2022-09-13T14:42:51Z</time>
      </trkpt>
      <trkpt lat="47.89875" lon="6.81602">
        <ele>866.2</ele>
        <time>2022-09-13T14:42:52Z</time>
      </trkpt>
      <trkpt lat="47.89875" lon="6.81601">
        <ele>866.2</ele>
        <time>2022-09-13T14:42:53Z</time>
      </trkpt>
      <trkpt lat="47.89875" lon="6.81599">
        <ele>866.2</ele>
        <time>2022-09-13T14:42:54Z</time>
      </trkpt>
      <trkpt lat="47.89875" lon="6.81597">
        <ele>866.3</ele>
        <time>2022-09-13T14:42:55Z</time>
      </trkpt>
      <trkpt lat="47.89875" lon="6.81594">
        <ele>866.3</ele>
        <time>2022-09-13T14:42:56Z</time>
      </trkpt>
      <trkpt lat="47.89875" lon="6.8159">
        <ele>866.4</ele>
        <time>2022-09-13T14:42:57Z</time>
      </trkpt>
      <trkpt lat="47.89875" lon="6.81586">
        <ele>866.5</ele>
        <time>2022-09-13T14:42:58Z</time>
      </trkpt>
      <trkpt lat="47.89874" lon="6.81578">
        <ele>866</ele>
        <time>2022-09-13T14:42:59Z</time>
      </trkpt>
      <trkpt lat="47.89874" lon="6.81572">
        <ele>865.7</ele>
        <time>2022-09-13T14:43:00Z</time>
      </trkpt>
      <trkpt lat="47.89874" lon="6.81566">
        <ele>865.3</ele>
        <time>2022-09-13T14:43:01Z</time>
      </trkpt>
      <trkpt lat="47.89874" lon="6.8156">
        <ele>865</ele>
        <time>2022-09-13T14:43:02Z</time>
      </trkpt>
      <trkpt lat="47.89874" lon="6.81554">
        <ele>864.8</ele>
        <time>2022-09-13T14:43:03Z</time>
      </trkpt>
      <trkpt lat="47.89874" lon="6.81547">
        <ele>864.8</ele>
        <time>2022-09-13T14:43:04Z</time>
      </trkpt>
      <trkpt lat="47.89874" lon="6.8154">
        <ele>864.7</ele>
        <time>2022-09-13T14:43:05Z</time>
      </trkpt>
      <trkpt lat="47.89874" lon="6.81532">
        <ele>864.7</ele>
        <time>2022-09-13T14:43:06Z</time>
      </trkpt>
      <trkpt lat="47.89874" lon="6.81524">
        <ele>864.6</ele>
        <time>2022-09-13T14:43:07Z</time>
      </trkpt>
      <trkpt lat="47.89875" lon="6.81516">
        <ele>864.6</ele>
        <time>2022-09-13T14:43:08Z</time>
      </trkpt>
      <trkpt lat="47.89875" lon="6.81505">
        <ele>864.2</ele>
        <time>2022-09-13T14:43:09Z</time>
      </trkpt>
      <trkpt lat="47.89876" lon="6.81499">
        <ele>864.3</ele>
        <time>2022-09-13T14:43:10Z</time>
      </trkpt>
      <trkpt lat="47.89875" lon="6.81492">
        <ele>863.9</ele>
        <time>2022-09-13T14:43:11Z</time>
      </trkpt>
      <trkpt lat="47.89875" lon="6.81485">
        <ele>863.7</ele>
        <time>2022-09-13T14:43:12Z</time>
      </trkpt>
      <trkpt lat="47.89874" lon="6.81477">
        <ele>863.2</ele>
        <time>2022-09-13T14:43:13Z</time>
      </trkpt>
      <trkpt lat="47.89872" lon="6.8147">
        <ele>862.4</ele>
        <time>2022-09-13T14:43:14Z</time>
      </trkpt>
      <trkpt lat="47.89871" lon="6.81462">
        <ele>862.5</ele>
        <time>2022-09-13T14:43:15Z</time>
      </trkpt>
      <trkpt lat="47.89868" lon="6.81455">
        <ele>861.8</ele>
        <time>2022-09-13T14:43:16Z</time>
      </trkpt>
      <trkpt lat="47.89866" lon="6.81448">
        <ele>861.5</ele>
        <time>2022-09-13T14:43:17Z</time>
      </trkpt>
      <trkpt lat="47.89862" lon="6.81439">
        <ele>861.3</ele>
        <time>2022-09-13T14:43:18Z</time>
      </trkpt>
      <trkpt lat="47.89857" lon="6.81433">
        <ele>861.2</ele>
        <time>2022-09-13T14:43:19Z</time>
      </trkpt>
      <trkpt lat="47.89852" lon="6.81428">
        <ele>861.2</ele>
        <time>2022-09-13T14:43:20Z</time>
      </trkpt>
      <trkpt lat="47.89847" lon="6.81425">
        <ele>861</ele>
        <time>2022-09-13T14:43:21Z</time>
      </trkpt>
      <trkpt lat="47.8984" lon="6.81422">
        <ele>860.6</ele>
        <time>2022-09-13T14:43:22Z</time>
      </trkpt>
      <trkpt lat="47.89833" lon="6.81419">
        <ele>860.3</ele>
        <time>2022-09-13T14:43:23Z</time>
      </trkpt>
      <trkpt lat="47.89826" lon="6.81418">
        <ele>859.8</ele>
        <time>2022-09-13T14:43:24Z</time>
      </trkpt>
      <trkpt lat="47.89818" lon="6.81416">
        <ele>859.6</ele>
        <time>2022-09-13T14:43:25Z</time>
      </trkpt>
      <trkpt lat="47.89811" lon="6.81415">
        <ele>859.2</ele>
        <time>2022-09-13T14:43:26Z</time>
      </trkpt>
      <trkpt lat="47.89804" lon="6.81415">
        <ele>858.5</ele>
        <time>2022-09-13T14:43:27Z</time>
      </trkpt>
      <trkpt lat="47.89797" lon="6.81415">
        <ele>858.3</ele>
        <time>2022-09-13T14:43:28Z</time>
      </trkpt>
      <trkpt lat="47.8979" lon="6.81414">
        <ele>858.3</ele>
        <time>2022-09-13T14:43:29Z</time>
      </trkpt>
      <trkpt lat="47.89784" lon="6.81414">
        <ele>858.1</ele>
        <time>2022-09-13T14:43:30Z</time>
      </trkpt>
      <trkpt lat="47.89778" lon="6.81414">
        <ele>857.9</ele>
        <time>2022-09-13T14:43:31Z</time>
      </trkpt>
      <trkpt lat="47.89771" lon="6.81414">
        <ele>857.3</ele>
        <time>2022-09-13T14:43:32Z</time>
      </trkpt>
      <trkpt lat="47.89765" lon="6.81414">
        <ele>856.9</ele>
        <time>2022-09-13T14:43:33Z</time>
      </trkpt>
      <trkpt lat="47.89759" lon="6.81414">
        <ele>856.4</ele>
        <time>2022-09-13T14:43:34Z</time>
      </trkpt>
      <trkpt lat="47.89753" lon="6.81413">
        <ele>856.2</ele>
        <time>2022-09-13T14:43:35Z</time>
      </trkpt>
      <trkpt lat="47.89747" lon="6.81412">
        <ele>855.7</ele>
        <time>2022-09-13T14:43:36Z</time>
      </trkpt>
      <trkpt lat="47.89741" lon="6.8141">
        <ele>855.2</ele>
        <time>2022-09-13T14:43:37Z</time>
      </trkpt>
      <trkpt lat="47.89736" lon="6.81407">
        <ele>854.9</ele>
        <time>2022-09-13T14:43:38Z</time>
      </trkpt>
      <trkpt lat="47.89732" lon="6.81403">
        <ele>854.6</ele>
        <time>2022-09-13T14:43:39Z</time>
      </trkpt>
      <trkpt lat="47.89727" lon="6.81398">
        <ele>853.9</ele>
        <time>2022-09-13T14:43:40Z</time>
      </trkpt>
      <trkpt lat="47.89723" lon="6.81392">
        <ele>853.1</ele>
        <time>2022-09-13T14:43:41Z</time>
      </trkpt>
      <trkpt lat="47.89719" lon="6.81385">
        <ele>852.6</ele>
        <time>2022-09-13T14:43:42Z</time>
      </trkpt>
      <trkpt lat="47.89714" lon="6.81377">
        <ele>852.4</ele>
        <time>2022-09-13T14:43:43Z</time>
      </trkpt>
      <trkpt lat="47.89709" lon="6.8137">
        <ele>851.7</ele>
        <time>2022-09-13T14:43:44Z</time>
      </trkpt>
      <trkpt lat="47.89704" lon="6.81362">
        <ele>851</ele>
        <time>2022-09-13T14:43:45Z</time>
      </trkpt>
      <trkpt lat="47.89699" lon="6.81355">
        <ele>850</ele>
        <time>2022-09-13T14:43:46Z</time>
      </trkpt>
      <trkpt lat="47.89694" lon="6.81347">
        <ele>849.4</ele>
        <time>2022-09-13T14:43:47Z</time>
      </trkpt>
      <trkpt lat="47.89688" lon="6.81341">
        <ele>848.7</ele>
        <time>2022-09-13T14:43:48Z</time>
      </trkpt>
      <trkpt lat="47.89683" lon="6.81334">
        <ele>848.6</ele>
        <time>2022-09-13T14:43:49Z</time>
      </trkpt>
      <trkpt lat="47.89677" lon="6.81328">
        <ele>847.7</ele>
        <time>2022-09-13T14:43:50Z</time>
      </trkpt>
      <trkpt lat="47.89673" lon="6.81322">
        <ele>847.2</ele>
        <time>2022-09-13T14:43:51Z</time>
      </trkpt>
      <trkpt lat="47.89668" lon="6.81316">
        <ele>846.3</ele>
        <time>2022-09-13T14:43:52Z</time>
      </trkpt>
      <trkpt lat="47.89663" lon="6.81309">
        <ele>845.4</ele>
        <time>2022-09-13T14:43:53Z</time>
      </trkpt>
      <trkpt lat="47.89658" lon="6.81302">
        <ele>844.8</ele>
        <time>2022-09-13T14:43:54Z</time>
      </trkpt>
      <trkpt lat="47.89654" lon="6.81296">
        <ele>844.5</ele>
        <time>2022-09-13T14:43:55Z</time>
      </trkpt>
      <trkpt lat="47.8965" lon="6.81289">
        <ele>844.2</ele>
        <time>2022-09-13T14:43:56Z</time>
      </trkpt>
      <trkpt lat="47.89645" lon="6.81281">
        <ele>843.7</ele>
        <time>2022-09-13T14:43:57Z</time>
      </trkpt>
      <trkpt lat="47.89641" lon="6.81273">
        <ele>843.1</ele>
        <time>2022-09-13T14:43:58Z</time>
      </trkpt>
      <trkpt lat="47.89638" lon="6.81265">
        <ele>842.6</ele>
        <time>2022-09-13T14:43:59Z</time>
      </trkpt>
      <trkpt lat="47.89634" lon="6.81256">
        <ele>841.6</ele>
        <time>2022-09-13T14:44:00Z</time>
      </trkpt>
      <trkpt lat="47.8963" lon="6.81247">
        <ele>840.8</ele>
        <time>2022-09-13T14:44:01Z</time>
      </trkpt>
      <trkpt lat="47.89626" lon="6.81238">
        <ele>840.2</ele>
        <time>2022-09-13T14:44:02Z</time>
      </trkpt>
      <trkpt lat="47.89622" lon="6.8123">
        <ele>839.5</ele>
        <time>2022-09-13T14:44:03Z</time>
      </trkpt>
      <trkpt lat="47.89617" lon="6.81222">
        <ele>838.4</ele>
        <time>2022-09-13T14:44:04Z</time>
      </trkpt>
      <trkpt lat="47.89612" lon="6.81215">
        <ele>837.9</ele>
        <time>2022-09-13T14:44:05Z</time>
      </trkpt>
      <trkpt lat="47.89606" lon="6.81207">
        <ele>837.4</ele>
        <time>2022-09-13T14:44:06Z</time>
      </trkpt>
      <trkpt lat="47.89601" lon="6.81201">
        <ele>836.9</ele>
        <time>2022-09-13T14:44:07Z</time>
      </trkpt>
      <trkpt lat="47.89596" lon="6.81194">
        <ele>836.6</ele>
        <time>2022-09-13T14:44:08Z</time>
      </trkpt>
      <trkpt lat="47.8959" lon="6.81188">
        <ele>835.4</ele>
        <time>2022-09-13T14:44:09Z</time>
      </trkpt>
      <trkpt lat="47.89585" lon="6.81181">
        <ele>834.6</ele>
        <time>2022-09-13T14:44:10Z</time>
      </trkpt>
      <trkpt lat="47.89579" lon="6.81175">
        <ele>833.4</ele>
        <time>2022-09-13T14:44:11Z</time>
      </trkpt>
      <trkpt lat="47.89573" lon="6.81169">
        <ele>832.6</ele>
        <time>2022-09-13T14:44:12Z</time>
      </trkpt>
      <trkpt lat="47.89567" lon="6.81163">
        <ele>832</ele>
        <time>2022-09-13T14:44:13Z</time>
      </trkpt>
      <trkpt lat="47.89561" lon="6.81157">
        <ele>831.4</ele>
        <time>2022-09-13T14:44:14Z</time>
      </trkpt>
      <trkpt lat="47.89555" lon="6.81151">
        <ele>830.7</ele>
        <time>2022-09-13T14:44:15Z</time>
      </trkpt>
      <trkpt lat="47.8955" lon="6.81145">
        <ele>830.4</ele>
        <time>2022-09-13T14:44:16Z</time>
      </trkpt>
      <trkpt lat="47.89544" lon="6.8114">
        <ele>829.9</ele>
        <time>2022-09-13T14:44:17Z</time>
      </trkpt>
      <trkpt lat="47.89538" lon="6.81134">
        <ele>829.3</ele>
        <time>2022-09-13T14:44:18Z</time>
      </trkpt>
      <trkpt lat="47.89532" lon="6.81129">
        <ele>828.5</ele>
        <time>2022-09-13T14:44:19Z</time>
      </trkpt>
      <trkpt lat="47.89526" lon="6.81123">
        <ele>827.7</ele>
        <time>2022-09-13T14:44:20Z</time>
      </trkpt>
      <trkpt lat="47.8952" lon="6.81117">
        <ele>826.8</ele>
        <time>2022-09-13T14:44:21Z</time>
      </trkpt>
      <trkpt lat="47.89514" lon="6.8111">
        <ele>826.2</ele>
        <time>2022-09-13T14:44:22Z</time>
      </trkpt>
      <trkpt lat="47.89508" lon="6.81104">
        <ele>825.3</ele>
        <time>2022-09-13T14:44:23Z</time>
      </trkpt>
      <trkpt lat="47.89503" lon="6.81098">
        <ele>824.7</ele>
        <time>2022-09-13T14:44:24Z</time>
      </trkpt>
      <trkpt lat="47.89498" lon="6.81092">
        <ele>824.1</ele>
        <time>2022-09-13T14:44:25Z</time>
      </trkpt>
      <trkpt lat="47.89492" lon="6.81086">
        <ele>823</ele>
        <time>2022-09-13T14:44:26Z</time>
      </trkpt>
      <trkpt lat="47.89487" lon="6.8108">
        <ele>822.1</ele>
        <time>2022-09-13T14:44:27Z</time>
      </trkpt>
      <trkpt lat="47.89481" lon="6.81074">
        <ele>820.9</ele>
        <time>2022-09-13T14:44:28Z</time>
      </trkpt>
      <trkpt lat="47.89476" lon="6.81067">
        <ele>820.3</ele>
        <time>2022-09-13T14:44:29Z</time>
      </trkpt>
      <trkpt lat="47.8947" lon="6.8106">
        <ele>819.6</ele>
        <time>2022-09-13T14:44:30Z</time>
      </trkpt>
      <trkpt lat="47.89464" lon="6.81052">
        <ele>818.6</ele>
        <time>2022-09-13T14:44:31Z</time>
      </trkpt>
      <trkpt lat="47.89459" lon="6.81044">
        <ele>817.7</ele>
        <time>2022-09-13T14:44:32Z</time>
      </trkpt>
      <trkpt lat="47.89454" lon="6.81035">
        <ele>817.1</ele>
        <time>2022-09-13T14:44:33Z</time>
      </trkpt>
      <trkpt lat="47.89449" lon="6.81027">
        <ele>816.4</ele>
        <time>2022-09-13T14:44:34Z</time>
      </trkpt>
      <trkpt lat="47.89444" lon="6.81017">
        <ele>815.6</ele>
        <time>2022-09-13T14:44:35Z</time>
      </trkpt>
      <trkpt lat="47.89439" lon="6.81008">
        <ele>814.8</ele>
        <time>2022-09-13T14:44:36Z</time>
      </trkpt>
      <trkpt lat="47.89435" lon="6.81">
        <ele>814.3</ele>
        <time>2022-09-13T14:44:37Z</time>
      </trkpt>
      <trkpt lat="47.8943" lon="6.80993">
        <ele>813.3</ele>
        <time>2022-09-13T14:44:38Z</time>
      </trkpt>
      <trkpt lat="47.89426" lon="6.80984">
        <ele>812.8</ele>
        <time>2022-09-13T14:44:39Z</time>
      </trkpt>
      <trkpt lat="47.89421" lon="6.80975">
        <ele>812</ele>
        <time>2022-09-13T14:44:40Z</time>
      </trkpt>
      <trkpt lat="47.89417" lon="6.80966">
        <ele>811.5</ele>
        <time>2022-09-13T14:44:41Z</time>
      </trkpt>
      <trkpt lat="47.89412" lon="6.80957">
        <ele>810.5</ele>
        <time>2022-09-13T14:44:42Z</time>
      </trkpt>
      <trkpt lat="47.89408" lon="6.80948">
        <ele>809.7</ele>
        <time>2022-09-13T14:44:43Z</time>
      </trkpt>
      <trkpt lat="47.89404" lon="6.80936">
        <ele>808.6</ele>
        <time>2022-09-13T14:44:44Z</time>
      </trkpt>
      <trkpt lat="47.894" lon="6.80924">
        <ele>807.4</ele>
        <time>2022-09-13T14:44:45Z</time>
      </trkpt>
      <trkpt lat="47.89396" lon="6.80912">
        <ele>806.4</ele>
        <time>2022-09-13T14:44:46Z</time>
      </trkpt>
      <trkpt lat="47.89392" lon="6.809">
        <ele>805.5</ele>
        <time>2022-09-13T14:44:47Z</time>
      </trkpt>
      <trkpt lat="47.89389" lon="6.80888">
        <ele>805</ele>
        <time>2022-09-13T14:44:48Z</time>
      </trkpt>
      <trkpt lat="47.89386" lon="6.80876">
        <ele>804</ele>
        <time>2022-09-13T14:44:49Z</time>
      </trkpt>
      <trkpt lat="47.89382" lon="6.80865">
        <ele>802.7</ele>
        <time>2022-09-13T14:44:50Z</time>
      </trkpt>
      <trkpt lat="47.8938" lon="6.80855">
        <ele>802.3</ele>
        <time>2022-09-13T14:44:51Z</time>
      </trkpt>
      <trkpt lat="47.89377" lon="6.80845">
        <ele>801.7</ele>
        <time>2022-09-13T14:44:52Z</time>
      </trkpt>
      <trkpt lat="47.89374" lon="6.80835">
        <ele>801.1</ele>
        <time>2022-09-13T14:44:53Z</time>
      </trkpt>
      <trkpt lat="47.89371" lon="6.80824">
        <ele>800.3</ele>
        <time>2022-09-13T14:44:54Z</time>
      </trkpt>
      <trkpt lat="47.89368" lon="6.80812">
        <ele>799.6</ele>
        <time>2022-09-13T14:44:55Z</time>
      </trkpt>
      <trkpt lat="47.89366" lon="6.80802">
        <ele>799.1</ele>
        <time>2022-09-13T14:44:56Z</time>
      </trkpt>
      <trkpt lat="47.89364" lon="6.8079">
        <ele>798.2</ele>
        <time>2022-09-13T14:44:57Z</time>
      </trkpt>
      <trkpt lat="47.89362" lon="6.80779">
        <ele>797.3</ele>
        <time>2022-09-13T14:44:58Z</time>
      </trkpt>
      <trkpt lat="47.89361" lon="6.80768">
        <ele>796.6</ele>
        <time>2022-09-13T14:44:59Z</time>
      </trkpt>
      <trkpt lat="47.89359" lon="6.80756">
        <ele>795.4</ele>
        <time>2022-09-13T14:45:00Z</time>
      </trkpt>
      <trkpt lat="47.89358" lon="6.80745">
        <ele>794.7</ele>
        <time>2022-09-13T14:45:01Z</time>
      </trkpt>
      <trkpt lat="47.89356" lon="6.80733">
        <ele>793.5</ele>
        <time>2022-09-13T14:45:02Z</time>
      </trkpt>
      <trkpt lat="47.89355" lon="6.80721">
        <ele>792.8</ele>
        <time>2022-09-13T14:45:03Z</time>
      </trkpt>
      <trkpt lat="47.89353" lon="6.80709">
        <ele>791.7</ele>
        <time>2022-09-13T14:45:04Z</time>
      </trkpt>
      <trkpt lat="47.89352" lon="6.80698">
        <ele>791.1</ele>
        <time>2022-09-13T14:45:05Z</time>
      </trkpt>
      <trkpt lat="47.89351" lon="6.80688">
        <ele>790.6</ele>
        <time>2022-09-13T14:45:06Z</time>
      </trkpt>
      <trkpt lat="47.89349" lon="6.80677">
        <ele>789.7</ele>
        <time>2022-09-13T14:45:07Z</time>
      </trkpt>
      <trkpt lat="47.89348" lon="6.80665">
        <ele>789.1</ele>
        <time>2022-09-13T14:45:08Z</time>
      </trkpt>
      <trkpt lat="47.89347" lon="6.80655">
        <ele>788.3</ele>
        <time>2022-09-13T14:45:09Z</time>
      </trkpt>
      <trkpt lat="47.89346" lon="6.80645">
        <ele>787.5</ele>
        <time>2022-09-13T14:45:10Z</time>
      </trkpt>
      <trkpt lat="47.89345" lon="6.80634">
        <ele>786.8</ele>
        <time>2022-09-13T14:45:11Z</time>
      </trkpt>
      <trkpt lat="47.89344" lon="6.80623">
        <ele>786.2</ele>
        <time>2022-09-13T14:45:12Z</time>
      </trkpt>
      <trkpt lat="47.89343" lon="6.80612">
        <ele>785.8</ele>
        <time>2022-09-13T14:45:13Z</time>
      </trkpt>
      <trkpt lat="47.89343" lon="6.80602">
        <ele>785.3</ele>
        <time>2022-09-13T14:45:14Z</time>
      </trkpt>
      <trkpt lat="47.89342" lon="6.80593">
        <ele>784.7</ele>
        <time>2022-09-13T14:45:15Z</time>
      </trkpt>
      <trkpt lat="47.89341" lon="6.80582">
        <ele>784</ele>
        <time>2022-09-13T14:45:16Z</time>
      </trkpt>
      <trkpt lat="47.89339" lon="6.80571">
        <ele>783.2</ele>
        <time>2022-09-13T14:45:17Z</time>
      </trkpt>
      <trkpt lat="47.89338" lon="6.80562">
        <ele>782.6</ele>
        <time>2022-09-13T14:45:18Z</time>
      </trkpt>
      <trkpt lat="47.89337" lon="6.80553">
        <ele>782.1</ele>
        <time>2022-09-13T14:45:19Z</time>
      </trkpt>
      <trkpt lat="47.89335" lon="6.80544">
        <ele>781.7</ele>
        <time>2022-09-13T14:45:20Z</time>
      </trkpt>
      <trkpt lat="47.89334" lon="6.80534">
        <ele>781.2</ele>
        <time>2022-09-13T14:45:21Z</time>
      </trkpt>
      <trkpt lat="47.89333" lon="6.80525">
        <ele>780.7</ele>
        <time>2022-09-13T14:45:22Z</time>
      </trkpt>
      <trkpt lat="47.89333" lon="6.80516">
        <ele>780.1</ele>
        <time>2022-09-13T14:45:23Z</time>
      </trkpt>
      <trkpt lat="47.89333" lon="6.80507">
        <ele>779.4</ele>
        <time>2022-09-13T14:45:24Z</time>
      </trkpt>
      <trkpt lat="47.89334" lon="6.80498">
        <ele>778.8</ele>
        <time>2022-09-13T14:45:25Z</time>
      </trkpt>
      <trkpt lat="47.89335" lon="6.80489">
        <ele>777.8</ele>
        <time>2022-09-13T14:45:26Z</time>
      </trkpt>
      <trkpt lat="47.89337" lon="6.8048">
        <ele>776.8</ele>
        <time>2022-09-13T14:45:27Z</time>
      </trkpt>
      <trkpt lat="47.89337" lon="6.80473">
        <ele>776.1</ele>
        <time>2022-09-13T14:45:28Z</time>
      </trkpt>
      <trkpt lat="47.89338" lon="6.80464">
        <ele>775.7</ele>
        <time>2022-09-13T14:45:29Z</time>
      </trkpt>
      <trkpt lat="47.89337" lon="6.80456">
        <ele>775.3</ele>
        <time>2022-09-13T14:45:30Z</time>
      </trkpt>
      <trkpt lat="47.89336" lon="6.8045">
        <ele>775.1</ele>
        <time>2022-09-13T14:45:31Z</time>
      </trkpt>
      <trkpt lat="47.89335" lon="6.80445">
        <ele>775</ele>
        <time>2022-09-13T14:45:32Z</time>
      </trkpt>
      <trkpt lat="47.89333" lon="6.8044">
        <ele>774.5</ele>
        <time>2022-09-13T14:45:33Z</time>
      </trkpt>
      <trkpt lat="47.89331" lon="6.80434">
        <ele>773.7</ele>
        <time>2022-09-13T14:45:34Z</time>
      </trkpt>
      <trkpt lat="47.89328" lon="6.80429">
        <ele>773</ele>
        <time>2022-09-13T14:45:35Z</time>
      </trkpt>
      <trkpt lat="47.89325" lon="6.80425">
        <ele>772.4</ele>
        <time>2022-09-13T14:45:36Z</time>
      </trkpt>
      <trkpt lat="47.89322" lon="6.8042">
        <ele>771.9</ele>
        <time>2022-09-13T14:45:37Z</time>
      </trkpt>
      <trkpt lat="47.89319" lon="6.80417">
        <ele>771.5</ele>
        <time>2022-09-13T14:45:38Z</time>
      </trkpt>
      <trkpt lat="47.89315" lon="6.80413">
        <ele>771.2</ele>
        <time>2022-09-13T14:45:39Z</time>
      </trkpt>
      <trkpt lat="47.89313" lon="6.8041">
        <ele>771</ele>
        <time>2022-09-13T14:45:40Z</time>
      </trkpt>
      <trkpt lat="47.8931" lon="6.80407">
        <ele>770.8</ele>
        <time>2022-09-13T14:45:41Z</time>
      </trkpt>
      <trkpt lat="47.89308" lon="6.80404">
        <ele>770.6</ele>
        <time>2022-09-13T14:45:42Z</time>
      </trkpt>
      <trkpt lat="47.89306" lon="6.80401">
        <ele>770.4</ele>
        <time>2022-09-13T14:45:43Z</time>
      </trkpt>
      <trkpt lat="47.89303" lon="6.80397">
        <ele>770.1</ele>
        <time>2022-09-13T14:45:44Z</time>
      </trkpt>
      <trkpt lat="47.89301" lon="6.80394">
        <ele>769.9</ele>
        <time>2022-09-13T14:45:45Z</time>
      </trkpt>
      <trkpt lat="47.89299" lon="6.80392">
        <ele>769.6</ele>
        <time>2022-09-13T14:45:46Z</time>
      </trkpt>
      <trkpt lat="47.89297" lon="6.80389">
        <ele>769.4</ele>
        <time>2022-09-13T14:45:47Z</time>
      </trkpt>
      <trkpt lat="47.89296" lon="6.80389">
        <ele>769.3</ele>
        <time>2022-09-13T14:45:48Z</time>
      </trkpt>
      <trkpt lat="47.89294" lon="6.80388">
        <ele>769.1</ele>
        <time>2022-09-13T14:45:49Z</time>
      </trkpt>
      <trkpt lat="47.89292" lon="6.80388">
        <ele>769</ele>
        <time>2022-09-13T14:45:50Z</time>
      </trkpt>
      <trkpt lat="47.8929" lon="6.80389">
        <ele>768.9</ele>
        <time>2022-09-13T14:45:51Z</time>
      </trkpt>
      <trkpt lat="47.89286" lon="6.80391">
        <ele>768.7</ele>
        <time>2022-09-13T14:45:52Z</time>
      </trkpt>
      <trkpt lat="47.89283" lon="6.80395">
        <ele>768.6</ele>
        <time>2022-09-13T14:45:53Z</time>
      </trkpt>
      <trkpt lat="47.8928" lon="6.80398">
        <ele>768.5</ele>
        <time>2022-09-13T14:45:54Z</time>
      </trkpt>
      <trkpt lat="47.89277" lon="6.80402">
        <ele>768.4</ele>
        <time>2022-09-13T14:45:55Z</time>
      </trkpt>
      <trkpt lat="47.89274" lon="6.80407">
        <ele>768.2</ele>
        <time>2022-09-13T14:45:56Z</time>
      </trkpt>
      <trkpt lat="47.89271" lon="6.80412">
        <ele>767.9</ele>
        <time>2022-09-13T14:45:57Z</time>
      </trkpt>
      <trkpt lat="47.89268" lon="6.80418">
        <ele>767.6</ele>
        <time>2022-09-13T14:45:58Z</time>
      </trkpt>
      <trkpt lat="47.89266" lon="6.80425">
        <ele>767.2</ele>
        <time>2022-09-13T14:45:59Z</time>
      </trkpt>
      <trkpt lat="47.89264" lon="6.80432">
        <ele>766.7</ele>
        <time>2022-09-13T14:46:00Z</time>
      </trkpt>
      <trkpt lat="47.89263" lon="6.8044">
        <ele>766.4</ele>
        <time>2022-09-13T14:46:01Z</time>
      </trkpt>
      <trkpt lat="47.89261" lon="6.80452">
        <ele>765.5</ele>
        <time>2022-09-13T14:46:02Z</time>
      </trkpt>
      <trkpt lat="47.89261" lon="6.80462">
        <ele>765</ele>
        <time>2022-09-13T14:46:03Z</time>
      </trkpt>
      <trkpt lat="47.89261" lon="6.80471">
        <ele>764.4</ele>
        <time>2022-09-13T14:46:04Z</time>
      </trkpt>
      <trkpt lat="47.89261" lon="6.80482">
        <ele>763.8</ele>
        <time>2022-09-13T14:46:05Z</time>
      </trkpt>
      <trkpt lat="47.89261" lon="6.80492">
        <ele>763.2</ele>
        <time>2022-09-13T14:46:06Z</time>
      </trkpt>
      <trkpt lat="47.89261" lon="6.80503">
        <ele>762.8</ele>
        <time>2022-09-13T14:46:07Z</time>
      </trkpt>
      <trkpt lat="47.89262" lon="6.80514">
        <ele>763</ele>
        <time>2022-09-13T14:46:08Z</time>
      </trkpt>
      <trkpt lat="47.89262" lon="6.80525">
        <ele>763</ele>
        <time>2022-09-13T14:46:09Z</time>
      </trkpt>
      <trkpt lat="47.89261" lon="6.80536">
        <ele>762.5</ele>
        <time>2022-09-13T14:46:10Z</time>
      </trkpt>
      <trkpt lat="47.89261" lon="6.80547">
        <ele>762.1</ele>
        <time>2022-09-13T14:46:11Z</time>
      </trkpt>
      <trkpt lat="47.8926" lon="6.80557">
        <ele>761.5</ele>
        <time>2022-09-13T14:46:12Z</time>
      </trkpt>
      <trkpt lat="47.89259" lon="6.80566">
        <ele>761</ele>
        <time>2022-09-13T14:46:13Z</time>
      </trkpt>
      <trkpt lat="47.89258" lon="6.80575">
        <ele>760.5</ele>
        <time>2022-09-13T14:46:14Z</time>
      </trkpt>
      <trkpt lat="47.89257" lon="6.80584">
        <ele>760</ele>
        <time>2022-09-13T14:46:15Z</time>
      </trkpt>
      <trkpt lat="47.89256" lon="6.80593">
        <ele>759.5</ele>
        <time>2022-09-13T14:46:16Z</time>
      </trkpt>
      <trkpt lat="47.89256" lon="6.80601">
        <ele>759.2</ele>
        <time>2022-09-13T14:46:17Z</time>
      </trkpt>
      <trkpt lat="47.89255" lon="6.80609">
        <ele>758.7</ele>
        <time>2022-09-13T14:46:18Z</time>
      </trkpt>
      <trkpt lat="47.89255" lon="6.80616">
        <ele>758.3</ele>
        <time>2022-09-13T14:46:19Z</time>
      </trkpt>
      <trkpt lat="47.89255" lon="6.80621">
        <ele>758</ele>
        <time>2022-09-13T14:46:20Z</time>
      </trkpt>
      <trkpt lat="47.89254" lon="6.80628">
        <ele>757.3</ele>
        <time>2022-09-13T14:46:21Z</time>
      </trkpt>
      <trkpt lat="47.89253" lon="6.80634">
        <ele>756.5</ele>
        <time>2022-09-13T14:46:22Z</time>
      </trkpt>
      <trkpt lat="47.89252" lon="6.8064">
        <ele>755.8</ele>
        <time>2022-09-13T14:46:23Z</time>
      </trkpt>
      <trkpt lat="47.89251" lon="6.80644">
        <ele>755.6</ele>
        <time>2022-09-13T14:46:24Z</time>
      </trkpt>
      <trkpt lat="47.89248" lon="6.80647">
        <ele>754.6</ele>
        <time>2022-09-13T14:46:25Z</time>
      </trkpt>
      <trkpt lat="47.89245" lon="6.80648">
        <ele>753.6</ele>
        <time>2022-09-13T14:46:26Z</time>
      </trkpt>
      <trkpt lat="47.89242" lon="6.80647">
        <ele>752.5</ele>
        <time>2022-09-13T14:46:27Z</time>
      </trkpt>
      <trkpt lat="47.89238" lon="6.80645">
        <ele>751.1</ele>
        <time>2022-09-13T14:46:28Z</time>
      </trkpt>
      <trkpt lat="47.89235" lon="6.80641">
        <ele>750.1</ele>
        <time>2022-09-13T14:46:29Z</time>
      </trkpt>
      <trkpt lat="47.89233" lon="6.80636">
        <ele>749.6</ele>
        <time>2022-09-13T14:46:30Z</time>
      </trkpt>
      <trkpt lat="47.89231" lon="6.80631">
        <ele>749</ele>
        <time>2022-09-13T14:46:31Z</time>
      </trkpt>
      <trkpt lat="47.89229" lon="6.80626">
        <ele>748.4</ele>
        <time>2022-09-13T14:46:32Z</time>
      </trkpt>
      <trkpt lat="47.89227" lon="6.8062">
        <ele>747.8</ele>
        <time>2022-09-13T14:46:33Z</time>
      </trkpt>
      <trkpt lat="47.89225" lon="6.80615">
        <ele>747.1</ele>
        <time>2022-09-13T14:46:34Z</time>
      </trkpt>
      <trkpt lat="47.89223" lon="6.80609">
        <ele>746.4</ele>
        <time>2022-09-13T14:46:35Z</time>
      </trkpt>
      <trkpt lat="47.8922" lon="6.80603">
        <ele>745.5</ele>
        <time>2022-09-13T14:46:36Z</time>
      </trkpt>
      <trkpt lat="47.89217" lon="6.80596">
        <ele>744.7</ele>
        <time>2022-09-13T14:46:37Z</time>
      </trkpt>
      <trkpt lat="47.89214" lon="6.8059">
        <ele>743.9</ele>
        <time>2022-09-13T14:46:38Z</time>
      </trkpt>
      <trkpt lat="47.89212" lon="6.80584">
        <ele>743.3</ele>
        <time>2022-09-13T14:46:39Z</time>
      </trkpt>
      <trkpt lat="47.89209" lon="6.80577">
        <ele>742.7</ele>
        <time>2022-09-13T14:46:40Z</time>
      </trkpt>
      <trkpt lat="47.89206" lon="6.80571">
        <ele>742</ele>
        <time>2022-09-13T14:46:41Z</time>
      </trkpt>
      <trkpt lat="47.89201" lon="6.80561">
        <ele>741</ele>
        <time>2022-09-13T14:46:42Z</time>
      </trkpt>
      <trkpt lat="47.89197" lon="6.80553">
        <ele>740</ele>
        <time>2022-09-13T14:46:43Z</time>
      </trkpt>
      <trkpt lat="47.89193" lon="6.80545">
        <ele>739</ele>
        <time>2022-09-13T14:46:44Z</time>
      </trkpt>
      <trkpt lat="47.89188" lon="6.80537">
        <ele>738</ele>
        <time>2022-09-13T14:46:45Z</time>
      </trkpt>
      <trkpt lat="47.89184" lon="6.8053">
        <ele>737.3</ele>
        <time>2022-09-13T14:46:46Z</time>
      </trkpt>
      <trkpt lat="47.8918" lon="6.80522">
        <ele>736.9</ele>
        <time>2022-09-13T14:46:47Z</time>
      </trkpt>
      <trkpt lat="47.89175" lon="6.80516">
        <ele>736.2</ele>
        <time>2022-09-13T14:46:48Z</time>
      </trkpt>
      <trkpt lat="47.8917" lon="6.80509">
        <ele>735.8</ele>
        <time>2022-09-13T14:46:49Z</time>
      </trkpt>
      <trkpt lat="47.89164" lon="6.80504">
        <ele>735.2</ele>
        <time>2022-09-13T14:46:50Z</time>
      </trkpt>
      <trkpt lat="47.89158" lon="6.80499">
        <ele>734.9</ele>
        <time>2022-09-13T14:46:51Z</time>
      </trkpt>
      <trkpt lat="47.89151" lon="6.80496">
        <ele>734.3</ele>
        <time>2022-09-13T14:46:52Z</time>
      </trkpt>
      <trkpt lat="47.89144" lon="6.80493">
        <ele>733.6</ele>
        <time>2022-09-13T14:46:53Z</time>
      </trkpt>
      <trkpt lat="47.89137" lon="6.80491">
        <ele>732.6</ele>
        <time>2022-09-13T14:46:54Z</time>
      </trkpt>
      <trkpt lat="47.89129" lon="6.80489">
        <ele>731.2</ele>
        <time>2022-09-13T14:46:55Z</time>
      </trkpt>
      <trkpt lat="47.89121" lon="6.80486">
        <ele>730</ele>
        <time>2022-09-13T14:46:56Z</time>
      </trkpt>
      <trkpt lat="47.89114" lon="6.80484">
        <ele>728.9</ele>
        <time>2022-09-13T14:46:57Z</time>
      </trkpt>
      <trkpt lat="47.89108" lon="6.80482">
        <ele>728</ele>
        <time>2022-09-13T14:46:58Z</time>
      </trkpt>
      <trkpt lat="47.891" lon="6.80479">
        <ele>726.9</ele>
        <time>2022-09-13T14:46:59Z</time>
      </trkpt>
      <trkpt lat="47.89093" lon="6.80478">
        <ele>725.8</ele>
        <time>2022-09-13T14:47:00Z</time>
      </trkpt>
      <trkpt lat="47.89085" lon="6.80478">
        <ele>724.3</ele>
        <time>2022-09-13T14:47:01Z</time>
      </trkpt>
      <trkpt lat="47.89078" lon="6.80479">
        <ele>723.8</ele>
        <time>2022-09-13T14:47:02Z</time>
      </trkpt>
      <trkpt lat="47.89071" lon="6.80481">
        <ele>723.6</ele>
        <time>2022-09-13T14:47:03Z</time>
      </trkpt>
      <trkpt lat="47.89064" lon="6.80485">
        <ele>723</ele>
        <time>2022-09-13T14:47:04Z</time>
      </trkpt>
      <trkpt lat="47.89057" lon="6.80489">
        <ele>722.6</ele>
        <time>2022-09-13T14:47:05Z</time>
      </trkpt>
      <trkpt lat="47.89051" lon="6.80493">
        <ele>721.9</ele>
        <time>2022-09-13T14:47:06Z</time>
      </trkpt>
      <trkpt lat="47.89045" lon="6.80497">
        <ele>721.1</ele>
        <time>2022-09-13T14:47:07Z</time>
      </trkpt>
      <trkpt lat="47.89039" lon="6.80502">
        <ele>720.1</ele>
        <time>2022-09-13T14:47:08Z</time>
      </trkpt>
      <trkpt lat="47.89033" lon="6.80506">
        <ele>719.1</ele>
        <time>2022-09-13T14:47:09Z</time>
      </trkpt>
      <trkpt lat="47.89026" lon="6.80509">
        <ele>718.2</ele>
        <time>2022-09-13T14:47:10Z</time>
      </trkpt>
      <trkpt lat="47.89019" lon="6.80513">
        <ele>716.7</ele>
        <time>2022-09-13T14:47:11Z</time>
      </trkpt>
      <trkpt lat="47.89012" lon="6.80515">
        <ele>715.6</ele>
        <time>2022-09-13T14:47:12Z</time>
      </trkpt>
      <trkpt lat="47.89005" lon="6.80517">
        <ele>714.3</ele>
        <time>2022-09-13T14:47:13Z</time>
      </trkpt>
      <trkpt lat="47.88998" lon="6.80518">
        <ele>713.4</ele>
        <time>2022-09-13T14:47:14Z</time>
      </trkpt>
      <trkpt lat="47.8899" lon="6.80519">
        <ele>713</ele>
        <time>2022-09-13T14:47:15Z</time>
      </trkpt>
      <trkpt lat="47.88983" lon="6.8052">
        <ele>712.5</ele>
        <time>2022-09-13T14:47:16Z</time>
      </trkpt>
      <trkpt lat="47.88976" lon="6.80522">
        <ele>711.8</ele>
        <time>2022-09-13T14:47:17Z</time>
      </trkpt>
      <trkpt lat="47.8897" lon="6.80525">
        <ele>710.9</ele>
        <time>2022-09-13T14:47:18Z</time>
      </trkpt>
      <trkpt lat="47.88964" lon="6.80528">
        <ele>710.2</ele>
        <time>2022-09-13T14:47:19Z</time>
      </trkpt>
      <trkpt lat="47.88959" lon="6.80531">
        <ele>709.6</ele>
        <time>2022-09-13T14:47:20Z</time>
      </trkpt>
      <trkpt lat="47.88955" lon="6.80534">
        <ele>708.9</ele>
        <time>2022-09-13T14:47:21Z</time>
      </trkpt>
      <trkpt lat="47.88951" lon="6.80536">
        <ele>708.5</ele>
        <time>2022-09-13T14:47:22Z</time>
      </trkpt>
      <trkpt lat="47.88947" lon="6.80538">
        <ele>708</ele>
        <time>2022-09-13T14:47:23Z</time>
      </trkpt>
      <trkpt lat="47.88942" lon="6.8054">
        <ele>707.1</ele>
        <time>2022-09-13T14:47:24Z</time>
      </trkpt>
      <trkpt lat="47.88937" lon="6.80541">
        <ele>706.1</ele>
        <time>2022-09-13T14:47:25Z</time>
      </trkpt>
      <trkpt lat="47.88932" lon="6.80542">
        <ele>705.1</ele>
        <time>2022-09-13T14:47:26Z</time>
      </trkpt>
      <trkpt lat="47.88923" lon="6.80542">
        <ele>703.8</ele>
        <time>2022-09-13T14:47:27Z</time>
      </trkpt>
      <trkpt lat="47.88917" lon="6.80541">
        <ele>703.2</ele>
        <time>2022-09-13T14:47:28Z</time>
      </trkpt>
      <trkpt lat="47.88911" lon="6.80539">
        <ele>701.9</ele>
        <time>2022-09-13T14:47:29Z</time>
      </trkpt>
      <trkpt lat="47.88905" lon="6.80536">
        <ele>700.7</ele>
        <time>2022-09-13T14:47:30Z</time>
      </trkpt>
      <trkpt lat="47.889" lon="6.80533">
        <ele>699.7</ele>
        <time>2022-09-13T14:47:31Z</time>
      </trkpt>
      <trkpt lat="47.88895" lon="6.8053">
        <ele>698.6</ele>
        <time>2022-09-13T14:47:32Z</time>
      </trkpt>
      <trkpt lat="47.88892" lon="6.80527">
        <ele>698.1</ele>
        <time>2022-09-13T14:47:33Z</time>
      </trkpt>
      <trkpt lat="47.88888" lon="6.80523">
        <ele>697.5</ele>
        <time>2022-09-13T14:47:34Z</time>
      </trkpt>
      <trkpt lat="47.88884" lon="6.80519">
        <ele>697.6</ele>
        <time>2022-09-13T14:47:35Z</time>
      </trkpt>
      <trkpt lat="47.88879" lon="6.80516">
        <ele>697.4</ele>
        <time>2022-09-13T14:47:36Z</time>
      </trkpt>
      <trkpt lat="47.88871" lon="6.80513">
        <ele>696.9</ele>
        <time>2022-09-13T14:47:37Z</time>
      </trkpt>
      <trkpt lat="47.88865" lon="6.80513">
        <ele>696.2</ele>
        <time>2022-09-13T14:47:38Z</time>
      </trkpt>
      <trkpt lat="47.88859" lon="6.80513">
        <ele>695.6</ele>
        <time>2022-09-13T14:47:39Z</time>
      </trkpt>
      <trkpt lat="47.88856" lon="6.80515">
        <ele>694.9</ele>
        <time>2022-09-13T14:47:40Z</time>
      </trkpt>
      <trkpt lat="47.88852" lon="6.80517">
        <ele>694.1</ele>
        <time>2022-09-13T14:47:41Z</time>
      </trkpt>
      <trkpt lat="47.88848" lon="6.80519">
        <ele>693.3</ele>
        <time>2022-09-13T14:47:42Z</time>
      </trkpt>
      <trkpt lat="47.88844" lon="6.80521">
        <ele>692.5</ele>
        <time>2022-09-13T14:47:43Z</time>
      </trkpt>
      <trkpt lat="47.88841" lon="6.80523">
        <ele>691.8</ele>
        <time>2022-09-13T14:47:44Z</time>
      </trkpt>
      <trkpt lat="47.88838" lon="6.80525">
        <ele>691</ele>
        <time>2022-09-13T14:47:45Z</time>
      </trkpt>
      <trkpt lat="47.88835" lon="6.80526">
        <ele>690.6</ele>
        <time>2022-09-13T14:47:46Z</time>
      </trkpt>
      <trkpt lat="47.88831" lon="6.80528">
        <ele>689.7</ele>
        <time>2022-09-13T14:47:47Z</time>
      </trkpt>
      <trkpt lat="47.88826" lon="6.8053">
        <ele>688.7</ele>
        <time>2022-09-13T14:47:48Z</time>
      </trkpt>
      <trkpt lat="47.88821" lon="6.80533">
        <ele>687.6</ele>
        <time>2022-09-13T14:47:49Z</time>
      </trkpt>
      <trkpt lat="47.88813" lon="6.80536">
        <ele>686.2</ele>
        <time>2022-09-13T14:47:50Z</time>
      </trkpt>
      <trkpt lat="47.88805" lon="6.80539">
        <ele>684.9</ele>
        <time>2022-09-13T14:47:51Z</time>
      </trkpt>
      <trkpt lat="47.88797" lon="6.80542">
        <ele>683.8</ele>
        <time>2022-09-13T14:47:52Z</time>
      </trkpt>
      <trkpt lat="47.88789" lon="6.80544">
        <ele>682.8</ele>
        <time>2022-09-13T14:47:53Z</time>
      </trkpt>
      <trkpt lat="47.8878" lon="6.80547">
        <ele>681.3</ele>
        <time>2022-09-13T14:47:54Z</time>
      </trkpt>
      <trkpt lat="47.88773" lon="6.80548">
        <ele>680.3</ele>
        <time>2022-09-13T14:47:55Z</time>
      </trkpt>
      <trkpt lat="47.88765" lon="6.80551">
        <ele>678.7</ele>
        <time>2022-09-13T14:47:56Z</time>
      </trkpt>
      <trkpt lat="47.88759" lon="6.80554">
        <ele>677.3</ele>
        <time>2022-09-13T14:47:57Z</time>
      </trkpt>
      <trkpt lat="47.88752" lon="6.80558">
        <ele>675.9</ele>
        <time>2022-09-13T14:47:58Z</time>
      </trkpt>
      <trkpt lat="47.88744" lon="6.80562">
        <ele>674.9</ele>
        <time>2022-09-13T14:47:59Z</time>
      </trkpt>
      <trkpt lat="47.88737" lon="6.80567">
        <ele>673.7</ele>
        <time>2022-09-13T14:48:00Z</time>
      </trkpt>
      <trkpt lat="47.88729" lon="6.80571">
        <ele>672.3</ele>
        <time>2022-09-13T14:48:01Z</time>
      </trkpt>
      <trkpt lat="47.88722" lon="6.80574">
        <ele>671</ele>
        <time>2022-09-13T14:48:02Z</time>
      </trkpt>
      <trkpt lat="47.88714" lon="6.80578">
        <ele>669.3</ele>
        <time>2022-09-13T14:48:03Z</time>
      </trkpt>
      <trkpt lat="47.88706" lon="6.80582">
        <ele>667.6</ele>
        <time>2022-09-13T14:48:04Z</time>
      </trkpt>
      <trkpt lat="47.88698" lon="6.80584">
        <ele>666.3</ele>
        <time>2022-09-13T14:48:05Z</time>
      </trkpt>
      <trkpt lat="47.8869" lon="6.80586">
        <ele>665.3</ele>
        <time>2022-09-13T14:48:06Z</time>
      </trkpt>
      <trkpt lat="47.88683" lon="6.80587">
        <ele>664.5</ele>
        <time>2022-09-13T14:48:07Z</time>
      </trkpt>
      <trkpt lat="47.88674" lon="6.80589">
        <ele>663.5</ele>
        <time>2022-09-13T14:48:08Z</time>
      </trkpt>
      <trkpt lat="47.88665" lon="6.8059">
        <ele>662.6</ele>
        <time>2022-09-13T14:48:09Z</time>
      </trkpt>
      <trkpt lat="47.88657" lon="6.80592">
        <ele>661.7</ele>
        <time>2022-09-13T14:48:10Z</time>
      </trkpt>
      <trkpt lat="47.8865" lon="6.80592">
        <ele>660.9</ele>
        <time>2022-09-13T14:48:11Z</time>
      </trkpt>
      <trkpt lat="47.88642" lon="6.80593">
        <ele>659.9</ele>
        <time>2022-09-13T14:48:12Z</time>
      </trkpt>
      <trkpt lat="47.88633" lon="6.80592">
        <ele>658.9</ele>
        <time>2022-09-13T14:48:13Z</time>
      </trkpt>
      <trkpt lat="47.88625" lon="6.80591">
        <ele>657.9</ele>
        <time>2022-09-13T14:48:14Z</time>
      </trkpt>
      <trkpt lat="47.88616" lon="6.80589">
        <ele>656.9</ele>
        <time>2022-09-13T14:48:15Z</time>
      </trkpt>
      <trkpt lat="47.88608" lon="6.80586">
        <ele>655.9</ele>
        <time>2022-09-13T14:48:16Z</time>
      </trkpt>
      <trkpt lat="47.88599" lon="6.80582">
        <ele>654.2</ele>
        <time>2022-09-13T14:48:17Z</time>
      </trkpt>
      <trkpt lat="47.8859" lon="6.80577">
        <ele>652.9</ele>
        <time>2022-09-13T14:48:18Z</time>
      </trkpt>
      <trkpt lat="47.88583" lon="6.80572">
        <ele>652</ele>
        <time>2022-09-13T14:48:19Z</time>
      </trkpt>
      <trkpt lat="47.88574" lon="6.80568">
        <ele>651.9</ele>
        <time>2022-09-13T14:48:20Z</time>
      </trkpt>
      <trkpt lat="47.88566" lon="6.80565">
        <ele>651.6</ele>
        <time>2022-09-13T14:48:21Z</time>
      </trkpt>
      <trkpt lat="47.88557" lon="6.80564">
        <ele>650.9</ele>
        <time>2022-09-13T14:48:22Z</time>
      </trkpt>
      <trkpt lat="47.88549" lon="6.80563">
        <ele>649.5</ele>
        <time>2022-09-13T14:48:23Z</time>
      </trkpt>
      <trkpt lat="47.88541" lon="6.80562">
        <ele>647.9</ele>
        <time>2022-09-13T14:48:24Z</time>
      </trkpt>
      <trkpt lat="47.88532" lon="6.8056">
        <ele>646.3</ele>
        <time>2022-09-13T14:48:25Z</time>
      </trkpt>
      <trkpt lat="47.88523" lon="6.80557">
        <ele>644.8</ele>
        <time>2022-09-13T14:48:26Z</time>
      </trkpt>
      <trkpt lat="47.88515" lon="6.80554">
        <ele>643.6</ele>
        <time>2022-09-13T14:48:27Z</time>
      </trkpt>
      <trkpt lat="47.88508" lon="6.80551">
        <ele>642.6</ele>
        <time>2022-09-13T14:48:28Z</time>
      </trkpt>
      <trkpt lat="47.88501" lon="6.80547">
        <ele>641.8</ele>
        <time>2022-09-13T14:48:29Z</time>
      </trkpt>
      <trkpt lat="47.88494" lon="6.80542">
        <ele>640.5</ele>
        <time>2022-09-13T14:48:30Z</time>
      </trkpt>
      <trkpt lat="47.88488" lon="6.80536">
        <ele>639.5</ele>
        <time>2022-09-13T14:48:31Z</time>
      </trkpt>
      <trkpt lat="47.88482" lon="6.80528">
        <ele>638.5</ele>
        <time>2022-09-13T14:48:32Z</time>
      </trkpt>
      <trkpt lat="47.88476" lon="6.80519">
        <ele>637.3</ele>
        <time>2022-09-13T14:48:33Z</time>
      </trkpt>
      <trkpt lat="47.8847" lon="6.80509">
        <ele>636.3</ele>
        <time>2022-09-13T14:48:34Z</time>
      </trkpt>
      <trkpt lat="47.88464" lon="6.80497">
        <ele>635.6</ele>
        <time>2022-09-13T14:48:35Z</time>
      </trkpt>
      <trkpt lat="47.88457" lon="6.80485">
        <ele>634.4</ele>
        <time>2022-09-13T14:48:36Z</time>
      </trkpt>
      <trkpt lat="47.88451" lon="6.80472">
        <ele>633.4</ele>
        <time>2022-09-13T14:48:37Z</time>
      </trkpt>
      <trkpt lat="47.88445" lon="6.8046">
        <ele>632.5</ele>
        <time>2022-09-13T14:48:38Z</time>
      </trkpt>
      <trkpt lat="47.88439" lon="6.8045">
        <ele>631.9</ele>
        <time>2022-09-13T14:48:39Z</time>
      </trkpt>
      <trkpt lat="47.88434" lon="6.80439">
        <ele>631.5</ele>
        <time>2022-09-13T14:48:40Z</time>
      </trkpt>
      <trkpt lat="47.88428" lon="6.80429">
        <ele>630.6</ele>
        <time>2022-09-13T14:48:41Z</time>
      </trkpt>
      <trkpt lat="47.88422" lon="6.80419">
        <ele>629.5</ele>
        <time>2022-09-13T14:48:42Z</time>
      </trkpt>
      <trkpt lat="47.88418" lon="6.80409">
        <ele>629.3</ele>
        <time>2022-09-13T14:48:43Z</time>
      </trkpt>
      <trkpt lat="47.88413" lon="6.804">
        <ele>628.7</ele>
        <time>2022-09-13T14:48:44Z</time>
      </trkpt>
      <trkpt lat="47.88408" lon="6.80392">
        <ele>627.9</ele>
        <time>2022-09-13T14:48:45Z</time>
      </trkpt>
      <trkpt lat="47.88404" lon="6.80384">
        <ele>627.3</ele>
        <time>2022-09-13T14:48:46Z</time>
      </trkpt>
      <trkpt lat="47.884" lon="6.80376">
        <ele>626.8</ele>
        <time>2022-09-13T14:48:47Z</time>
      </trkpt>
      <trkpt lat="47.88395" lon="6.80368">
        <ele>626.1</ele>
        <time>2022-09-13T14:48:48Z</time>
      </trkpt>
      <trkpt lat="47.88391" lon="6.80361">
        <ele>625.6</ele>
        <time>2022-09-13T14:48:49Z</time>
      </trkpt>
      <trkpt lat="47.88388" lon="6.80354">
        <ele>624.9</ele>
        <time>2022-09-13T14:48:50Z</time>
      </trkpt>
      <trkpt lat="47.88384" lon="6.80345">
        <ele>623.7</ele>
        <time>2022-09-13T14:48:51Z</time>
      </trkpt>
      <trkpt lat="47.88382" lon="6.80337">
        <ele>623</ele>
        <time>2022-09-13T14:48:52Z</time>
      </trkpt>
      <trkpt lat="47.8838" lon="6.80328">
        <ele>621.8</ele>
        <time>2022-09-13T14:48:53Z</time>
      </trkpt>
      <trkpt lat="47.88379" lon="6.8032">
        <ele>620.9</ele>
        <time>2022-09-13T14:48:54Z</time>
      </trkpt>
      <trkpt lat="47.88379" lon="6.80312">
        <ele>620.4</ele>
        <time>2022-09-13T14:48:55Z</time>
      </trkpt>
      <trkpt lat="47.88379" lon="6.80307">
        <ele>620.1</ele>
        <time>2022-09-13T14:48:56Z</time>
      </trkpt>
      <trkpt lat="47.88379" lon="6.80299">
        <ele>620.1</ele>
        <time>2022-09-13T14:48:57Z</time>
      </trkpt>
      <trkpt lat="47.88379" lon="6.80293">
        <ele>620.1</ele>
        <time>2022-09-13T14:48:58Z</time>
      </trkpt>
      <trkpt lat="47.88378" lon="6.80287">
        <ele>620</ele>
        <time>2022-09-13T14:48:59Z</time>
      </trkpt>
      <trkpt lat="47.88376" lon="6.80282">
        <ele>619.8</ele>
        <time>2022-09-13T14:49:00Z</time>
      </trkpt>
      <trkpt lat="47.88374" lon="6.80278">
        <ele>619.9</ele>
        <time>2022-09-13T14:49:01Z</time>
      </trkpt>
      <trkpt lat="47.88371" lon="6.80276">
        <ele>620.2</ele>
        <time>2022-09-13T14:49:02Z</time>
      </trkpt>
      <trkpt lat="47.88367" lon="6.80276">
        <ele>619.9</ele>
        <time>2022-09-13T14:49:03Z</time>
      </trkpt>
      <trkpt lat="47.88362" lon="6.80277">
        <ele>619.3</ele>
        <time>2022-09-13T14:49:04Z</time>
      </trkpt>
      <trkpt lat="47.88355" lon="6.8028">
        <ele>618.4</ele>
        <time>2022-09-13T14:49:05Z</time>
      </trkpt>
      <trkpt lat="47.88345" lon="6.80284">
        <ele>617.2</ele>
        <time>2022-09-13T14:49:06Z</time>
      </trkpt>
      <trkpt lat="47.88336" lon="6.80288">
        <ele>616.1</ele>
        <time>2022-09-13T14:49:07Z</time>
      </trkpt>
      <trkpt lat="47.88327" lon="6.8029">
        <ele>614.8</ele>
        <time>2022-09-13T14:49:08Z</time>
      </trkpt>
      <trkpt lat="47.88319" lon="6.80292">
        <ele>613.4</ele>
        <time>2022-09-13T14:49:09Z</time>
      </trkpt>
      <trkpt lat="47.88312" lon="6.80293">
        <ele>612.3</ele>
        <time>2022-09-13T14:49:10Z</time>
      </trkpt>
      <trkpt lat="47.88305" lon="6.80294">
        <ele>611.3</ele>
        <time>2022-09-13T14:49:11Z</time>
      </trkpt>
      <trkpt lat="47.88298" lon="6.80295">
        <ele>610.5</ele>
        <time>2022-09-13T14:49:12Z</time>
      </trkpt>
      <trkpt lat="47.88291" lon="6.80295">
        <ele>609.9</ele>
        <time>2022-09-13T14:49:13Z</time>
      </trkpt>
      <trkpt lat="47.88285" lon="6.80296">
        <ele>609.2</ele>
        <time>2022-09-13T14:49:14Z</time>
      </trkpt>
      <trkpt lat="47.88279" lon="6.80297">
        <ele>608.6</ele>
        <time>2022-09-13T14:49:15Z</time>
      </trkpt>
      <trkpt lat="47.88273" lon="6.80297">
        <ele>607.5</ele>
        <time>2022-09-13T14:49:16Z</time>
      </trkpt>
      <trkpt lat="47.88267" lon="6.80296">
        <ele>606.4</ele>
        <time>2022-09-13T14:49:17Z</time>
      </trkpt>
      <trkpt lat="47.88261" lon="6.80294">
        <ele>605.5</ele>
        <time>2022-09-13T14:49:18Z</time>
      </trkpt>
      <trkpt lat="47.88255" lon="6.80291">
        <ele>604.7</ele>
        <time>2022-09-13T14:49:19Z</time>
      </trkpt>
      <trkpt lat="47.88248" lon="6.80286">
        <ele>604</ele>
        <time>2022-09-13T14:49:20Z</time>
      </trkpt>
      <trkpt lat="47.88242" lon="6.8028">
        <ele>603.6</ele>
        <time>2022-09-13T14:49:21Z</time>
      </trkpt>
      <trkpt lat="47.88236" lon="6.80274">
        <ele>602.9</ele>
        <time>2022-09-13T14:49:22Z</time>
      </trkpt>
      <trkpt lat="47.88231" lon="6.80268">
        <ele>602.4</ele>
        <time>2022-09-13T14:49:23Z</time>
      </trkpt>
      <trkpt lat="47.88225" lon="6.80261">
        <ele>601.6</ele>
        <time>2022-09-13T14:49:24Z</time>
      </trkpt>
      <trkpt lat="47.8822" lon="6.80254">
        <ele>601</ele>
        <time>2022-09-13T14:49:25Z</time>
      </trkpt>
      <trkpt lat="47.88214" lon="6.80246">
        <ele>600.5</ele>
        <time>2022-09-13T14:49:26Z</time>
      </trkpt>
      <trkpt lat="47.88209" lon="6.80238">
        <ele>600.2</ele>
        <time>2022-09-13T14:49:27Z</time>
      </trkpt>
      <trkpt lat="47.88204" lon="6.8023">
        <ele>599.6</ele>
        <time>2022-09-13T14:49:28Z</time>
      </trkpt>
      <trkpt lat="47.882" lon="6.80222">
        <ele>599</ele>
        <time>2022-09-13T14:49:29Z</time>
      </trkpt>
      <trkpt lat="47.88195" lon="6.80215">
        <ele>598.2</ele>
        <time>2022-09-13T14:49:30Z</time>
      </trkpt>
      <trkpt lat="47.88191" lon="6.80207">
        <ele>598.2</ele>
        <time>2022-09-13T14:49:31Z</time>
      </trkpt>
      <trkpt lat="47.88187" lon="6.802">
        <ele>597.9</ele>
        <time>2022-09-13T14:49:32Z</time>
      </trkpt>
      <trkpt lat="47.88183" lon="6.80192">
        <ele>597.6</ele>
        <time>2022-09-13T14:49:33Z</time>
      </trkpt>
      <trkpt lat="47.88178" lon="6.80184">
        <ele>596.7</ele>
        <time>2022-09-13T14:49:34Z</time>
      </trkpt>
      <trkpt lat="47.88174" lon="6.80177">
        <ele>596</ele>
        <time>2022-09-13T14:49:35Z</time>
      </trkpt>
      <trkpt lat="47.88169" lon="6.80171">
        <ele>594.6</ele>
        <time>2022-09-13T14:49:36Z</time>
      </trkpt>
      <trkpt lat="47.88165" lon="6.80164">
        <ele>593.7</ele>
        <time>2022-09-13T14:49:37Z</time>
      </trkpt>
      <trkpt lat="47.8816" lon="6.80157">
        <ele>592.7</ele>
        <time>2022-09-13T14:49:38Z</time>
      </trkpt>
      <trkpt lat="47.88155" lon="6.80149">
        <ele>592</ele>
        <time>2022-09-13T14:49:39Z</time>
      </trkpt>
      <trkpt lat="47.88151" lon="6.80141">
        <ele>591.7</ele>
        <time>2022-09-13T14:49:40Z</time>
      </trkpt>
      <trkpt lat="47.88147" lon="6.80132">
        <ele>591.4</ele>
        <time>2022-09-13T14:49:41Z</time>
      </trkpt>
      <trkpt lat="47.88143" lon="6.80124">
        <ele>590.9</ele>
        <time>2022-09-13T14:49:42Z</time>
      </trkpt>
      <trkpt lat="47.88139" lon="6.80114">
        <ele>590.7</ele>
        <time>2022-09-13T14:49:43Z</time>
      </trkpt>
      <trkpt lat="47.88135" lon="6.80104">
        <ele>589.8</ele>
        <time>2022-09-13T14:49:44Z</time>
      </trkpt>
      <trkpt lat="47.88132" lon="6.80095">
        <ele>589.1</ele>
        <time>2022-09-13T14:49:45Z</time>
      </trkpt>
      <trkpt lat="47.88129" lon="6.80087">
        <ele>588.4</ele>
        <time>2022-09-13T14:49:46Z</time>
      </trkpt>
      <trkpt lat="47.88126" lon="6.80078">
        <ele>588.1</ele>
        <time>2022-09-13T14:49:47Z</time>
      </trkpt>
      <trkpt lat="47.88123" lon="6.80069">
        <ele>588</ele>
        <time>2022-09-13T14:49:48Z</time>
      </trkpt>
      <trkpt lat="47.8812" lon="6.8006">
        <ele>587.6</ele>
        <time>2022-09-13T14:49:49Z</time>
      </trkpt>
      <trkpt lat="47.88117" lon="6.80051">
        <ele>587.2</ele>
        <time>2022-09-13T14:49:50Z</time>
      </trkpt>
      <trkpt lat="47.88114" lon="6.80044">
        <ele>586.5</ele>
        <time>2022-09-13T14:49:51Z</time>
      </trkpt>
      <trkpt lat="47.88111" lon="6.80036">
        <ele>585.7</ele>
        <time>2022-09-13T14:49:52Z</time>
      </trkpt>
      <trkpt lat="47.88108" lon="6.80029">
        <ele>585.1</ele>
        <time>2022-09-13T14:49:53Z</time>
      </trkpt>
      <trkpt lat="47.88104" lon="6.80022">
        <ele>584.7</ele>
        <time>2022-09-13T14:49:54Z</time>
      </trkpt>
      <trkpt lat="47.88101" lon="6.80014">
        <ele>584.7</ele>
        <time>2022-09-13T14:49:55Z</time>
      </trkpt>
      <trkpt lat="47.88097" lon="6.80007">
        <ele>584.2</ele>
        <time>2022-09-13T14:49:56Z</time>
      </trkpt>
      <trkpt lat="47.88093" lon="6.79998">
        <ele>583.6</ele>
        <time>2022-09-13T14:49:57Z</time>
      </trkpt>
      <trkpt lat="47.88089" lon="6.7999">
        <ele>582.8</ele>
        <time>2022-09-13T14:49:58Z</time>
      </trkpt>
      <trkpt lat="47.88086" lon="6.79982">
        <ele>582.3</ele>
        <time>2022-09-13T14:49:59Z</time>
      </trkpt>
      <trkpt lat="47.88082" lon="6.79974">
        <ele>581.5</ele>
        <time>2022-09-13T14:50:00Z</time>
      </trkpt>
      <trkpt lat="47.88077" lon="6.79964">
        <ele>580.9</ele>
        <time>2022-09-13T14:50:01Z</time>
      </trkpt>
      <trkpt lat="47.88073" lon="6.79954">
        <ele>580.5</ele>
        <time>2022-09-13T14:50:02Z</time>
      </trkpt>
      <trkpt lat="47.88068" lon="6.79944">
        <ele>579.6</ele>
        <time>2022-09-13T14:50:03Z</time>
      </trkpt>
      <trkpt lat="47.88064" lon="6.79934">
        <ele>578.8</ele>
        <time>2022-09-13T14:50:04Z</time>
      </trkpt>
      <trkpt lat="47.8806" lon="6.79924">
        <ele>578</ele>
        <time>2022-09-13T14:50:05Z</time>
      </trkpt>
      <trkpt lat="47.88055" lon="6.79912">
        <ele>577.1</ele>
        <time>2022-09-13T14:50:06Z</time>
      </trkpt>
      <trkpt lat="47.8805" lon="6.79901">
        <ele>576.4</ele>
        <time>2022-09-13T14:50:07Z</time>
      </trkpt>
      <trkpt lat="47.88045" lon="6.7989">
        <ele>575</ele>
        <time>2022-09-13T14:50:08Z</time>
      </trkpt>
      <trkpt lat="47.88041" lon="6.7988">
        <ele>574.3</ele>
        <time>2022-09-13T14:50:09Z</time>
      </trkpt>
      <trkpt lat="47.88036" lon="6.7987">
        <ele>573.5</ele>
        <time>2022-09-13T14:50:10Z</time>
      </trkpt>
      <trkpt lat="47.88032" lon="6.79861">
        <ele>573.1</ele>
        <time>2022-09-13T14:50:11Z</time>
      </trkpt>
      <trkpt lat="47.88027" lon="6.79852">
        <ele>572.8</ele>
        <time>2022-09-13T14:50:12Z</time>
      </trkpt>
      <trkpt lat="47.88021" lon="6.79844">
        <ele>572</ele>
        <time>2022-09-13T14:50:13Z</time>
      </trkpt>
      <trkpt lat="47.88016" lon="6.79836">
        <ele>571.7</ele>
        <time>2022-09-13T14:50:14Z</time>
      </trkpt>
      <trkpt lat="47.88009" lon="6.79829">
        <ele>571</ele>
        <time>2022-09-13T14:50:15Z</time>
      </trkpt>
      <trkpt lat="47.88003" lon="6.79822">
        <ele>570.5</ele>
        <time>2022-09-13T14:50:16Z</time>
      </trkpt>
      <trkpt lat="47.87997" lon="6.79814">
        <ele>569.8</ele>
        <time>2022-09-13T14:50:17Z</time>
      </trkpt>
      <trkpt lat="47.87991" lon="6.79806">
        <ele>569</ele>
        <time>2022-09-13T14:50:18Z</time>
      </trkpt>
      <trkpt lat="47.87985" lon="6.79798">
        <ele>567.8</ele>
        <time>2022-09-13T14:50:19Z</time>
      </trkpt>
      <trkpt lat="47.8798" lon="6.79789">
        <ele>566.9</ele>
        <time>2022-09-13T14:50:20Z</time>
      </trkpt>
      <trkpt lat="47.87975" lon="6.79781">
        <ele>565.8</ele>
        <time>2022-09-13T14:50:21Z</time>
      </trkpt>
      <trkpt lat="47.8797" lon="6.79773">
        <ele>564.7</ele>
        <time>2022-09-13T14:50:22Z</time>
      </trkpt>
      <trkpt lat="47.87966" lon="6.79765">
        <ele>564.3</ele>
        <time>2022-09-13T14:50:23Z</time>
      </trkpt>
      <trkpt lat="47.87961" lon="6.79756">
        <ele>564</ele>
        <time>2022-09-13T14:50:24Z</time>
      </trkpt>
      <trkpt lat="47.87957" lon="6.79749">
        <ele>563.8</ele>
        <time>2022-09-13T14:50:25Z</time>
      </trkpt>
      <trkpt lat="47.87952" lon="6.79743">
        <ele>563</ele>
        <time>2022-09-13T14:50:26Z</time>
      </trkpt>
      <trkpt lat="47.87949" lon="6.79737">
        <ele>562.6</ele>
        <time>2022-09-13T14:50:27Z</time>
      </trkpt>
      <trkpt lat="47.87944" lon="6.79731">
        <ele>561.6</ele>
        <time>2022-09-13T14:50:28Z</time>
      </trkpt>
      <trkpt lat="47.87939" lon="6.79725">
        <ele>561.1</ele>
        <time>2022-09-13T14:50:29Z</time>
      </trkpt>
      <trkpt lat="47.87934" lon="6.7972">
        <ele>560.6</ele>
        <time>2022-09-13T14:50:30Z</time>
      </trkpt>
      <trkpt lat="47.87928" lon="6.79714">
        <ele>559.9</ele>
        <time>2022-09-13T14:50:31Z</time>
      </trkpt>
      <trkpt lat="47.87922" lon="6.79709">
        <ele>559</ele>
        <time>2022-09-13T14:50:32Z</time>
      </trkpt>
      <trkpt lat="47.87916" lon="6.79704">
        <ele>557.9</ele>
        <time>2022-09-13T14:50:33Z</time>
      </trkpt>
      <trkpt lat="47.8791" lon="6.79699">
        <ele>557.4</ele>
        <time>2022-09-13T14:50:34Z</time>
      </trkpt>
      <trkpt lat="47.87905" lon="6.79695">
        <ele>557.1</ele>
        <time>2022-09-13T14:50:35Z</time>
      </trkpt>
      <trkpt lat="47.879" lon="6.79691">
        <ele>556.9</ele>
        <time>2022-09-13T14:50:36Z</time>
      </trkpt>
      <trkpt lat="47.87895" lon="6.79688">
        <ele>556.7</ele>
        <time>2022-09-13T14:50:37Z</time>
      </trkpt>
      <trkpt lat="47.8789" lon="6.79684">
        <ele>556.5</ele>
        <time>2022-09-13T14:50:38Z</time>
      </trkpt>
      <trkpt lat="47.87885" lon="6.79679">
        <ele>555.8</ele>
        <time>2022-09-13T14:50:39Z</time>
      </trkpt>
      <trkpt lat="47.8788" lon="6.79675">
        <ele>555</ele>
        <time>2022-09-13T14:50:40Z</time>
      </trkpt>
      <trkpt lat="47.87876" lon="6.7967">
        <ele>554.5</ele>
        <time>2022-09-13T14:50:41Z</time>
      </trkpt>
      <trkpt lat="47.87872" lon="6.79664">
        <ele>554.1</ele>
        <time>2022-09-13T14:50:42Z</time>
      </trkpt>
      <trkpt lat="47.87868" lon="6.79658">
        <ele>553.9</ele>
        <time>2022-09-13T14:50:43Z</time>
      </trkpt>
      <trkpt lat="47.87864" lon="6.7965">
        <ele>554.1</ele>
        <time>2022-09-13T14:50:44Z</time>
      </trkpt>
      <trkpt lat="47.87861" lon="6.79643">
        <ele>554.5</ele>
        <time>2022-09-13T14:50:45Z</time>
      </trkpt>
      <trkpt lat="47.87857" lon="6.79635">
        <ele>554.4</ele>
        <time>2022-09-13T14:50:46Z</time>
      </trkpt>
      <trkpt lat="47.87854" lon="6.79627">
        <ele>554.3</ele>
        <time>2022-09-13T14:50:47Z</time>
      </trkpt>
      <trkpt lat="47.87851" lon="6.7962">
        <ele>554.1</ele>
        <time>2022-09-13T14:50:48Z</time>
      </trkpt>
      <trkpt lat="47.87848" lon="6.79612">
        <ele>554.1</ele>
        <time>2022-09-13T14:50:49Z</time>
      </trkpt>
      <trkpt lat="47.87845" lon="6.79604">
        <ele>553.3</ele>
        <time>2022-09-13T14:50:50Z</time>
      </trkpt>
      <trkpt lat="47.87843" lon="6.79596">
        <ele>552.7</ele>
        <time>2022-09-13T14:50:51Z</time>
      </trkpt>
      <trkpt lat="47.8784" lon="6.79589">
        <ele>552</ele>
        <time>2022-09-13T14:50:52Z</time>
      </trkpt>
      <trkpt lat="47.87838" lon="6.79582">
        <ele>551.6</ele>
        <time>2022-09-13T14:50:53Z</time>
      </trkpt>
      <trkpt lat="47.87835" lon="6.79578">
        <ele>551.5</ele>
        <time>2022-09-13T14:50:54Z</time>
      </trkpt>
      <trkpt lat="47.87832" lon="6.79573">
        <ele>551.7</ele>
        <time>2022-09-13T14:50:55Z</time>
      </trkpt>
      <trkpt lat="47.87828" lon="6.79569">
        <ele>551.8</ele>
        <time>2022-09-13T14:50:56Z</time>
      </trkpt>
      <trkpt lat="47.87824" lon="6.79566">
        <ele>552</ele>
        <time>2022-09-13T14:50:57Z</time>
      </trkpt>
      <trkpt lat="47.87819" lon="6.79564">
        <ele>552.1</ele>
        <time>2022-09-13T14:50:58Z</time>
      </trkpt>
      <trkpt lat="47.87814" lon="6.79562">
        <ele>552.2</ele>
        <time>2022-09-13T14:50:59Z</time>
      </trkpt>
      <trkpt lat="47.87809" lon="6.79561">
        <ele>552.3</ele>
        <time>2022-09-13T14:51:00Z</time>
      </trkpt>
      <trkpt lat="47.87804" lon="6.79559">
        <ele>552.2</ele>
        <time>2022-09-13T14:51:01Z</time>
      </trkpt>
      <trkpt lat="47.87799" lon="6.79557">
        <ele>551.4</ele>
        <time>2022-09-13T14:51:02Z</time>
      </trkpt>
      <trkpt lat="47.87792" lon="6.79553">
        <ele>550.3</ele>
        <time>2022-09-13T14:51:03Z</time>
      </trkpt>
      <trkpt lat="47.87786" lon="6.7955">
        <ele>549.3</ele>
        <time>2022-09-13T14:51:04Z</time>
      </trkpt>
      <trkpt lat="47.87781" lon="6.79545">
        <ele>548.7</ele>
        <time>2022-09-13T14:51:05Z</time>
      </trkpt>
      <trkpt lat="47.87776" lon="6.7954">
        <ele>548.1</ele>
        <time>2022-09-13T14:51:06Z</time>
      </trkpt>
      <trkpt lat="47.87771" lon="6.79534">
        <ele>547.1</ele>
        <time>2022-09-13T14:51:07Z</time>
      </trkpt>
      <trkpt lat="47.87767" lon="6.79528">
        <ele>546.5</ele>
        <time>2022-09-13T14:51:08Z</time>
      </trkpt>
      <trkpt lat="47.87762" lon="6.7952">
        <ele>545.3</ele>
        <time>2022-09-13T14:51:09Z</time>
      </trkpt>
      <trkpt lat="47.87757" lon="6.79512">
        <ele>544.3</ele>
        <time>2022-09-13T14:51:10Z</time>
      </trkpt>
      <trkpt lat="47.87752" lon="6.79503">
        <ele>543.4</ele>
        <time>2022-09-13T14:51:11Z</time>
      </trkpt>
      <trkpt lat="47.87748" lon="6.79494">
        <ele>542.2</ele>
        <time>2022-09-13T14:51:12Z</time>
      </trkpt>
      <trkpt lat="47.87744" lon="6.79485">
        <ele>540.6</ele>
        <time>2022-09-13T14:51:13Z</time>
      </trkpt>
      <trkpt lat="47.87739" lon="6.79475">
        <ele>539</ele>
        <time>2022-09-13T14:51:14Z</time>
      </trkpt>
      <trkpt lat="47.87735" lon="6.79465">
        <ele>538</ele>
        <time>2022-09-13T14:51:15Z</time>
      </trkpt>
      <trkpt lat="47.87732" lon="6.79456">
        <ele>537.7</ele>
        <time>2022-09-13T14:51:16Z</time>
      </trkpt>
      <trkpt lat="47.87729" lon="6.79445">
        <ele>537.7</ele>
        <time>2022-09-13T14:51:17Z</time>
      </trkpt>
      <trkpt lat="47.87726" lon="6.79435">
        <ele>536.3</ele>
        <time>2022-09-13T14:51:18Z</time>
      </trkpt>
      <trkpt lat="47.87724" lon="6.79424">
        <ele>535</ele>
        <time>2022-09-13T14:51:19Z</time>
      </trkpt>
      <trkpt lat="47.87722" lon="6.79414">
        <ele>533.9</ele>
        <time>2022-09-13T14:51:20Z</time>
      </trkpt>
      <trkpt lat="47.8772" lon="6.79405">
        <ele>533.2</ele>
        <time>2022-09-13T14:51:21Z</time>
      </trkpt>
      <trkpt lat="47.87718" lon="6.79396">
        <ele>532.7</ele>
        <time>2022-09-13T14:51:22Z</time>
      </trkpt>
      <trkpt lat="47.87716" lon="6.79387">
        <ele>532.5</ele>
        <time>2022-09-13T14:51:23Z</time>
      </trkpt>
      <trkpt lat="47.87713" lon="6.79379">
        <ele>532.7</ele>
        <time>2022-09-13T14:51:24Z</time>
      </trkpt>
      <trkpt lat="47.87711" lon="6.79372">
        <ele>532.9</ele>
        <time>2022-09-13T14:51:25Z</time>
      </trkpt>
      <trkpt lat="47.87708" lon="6.79366">
        <ele>532.7</ele>
        <time>2022-09-13T14:51:26Z</time>
      </trkpt>
      <trkpt lat="47.87706" lon="6.79361">
        <ele>532.5</ele>
        <time>2022-09-13T14:51:27Z</time>
      </trkpt>
      <trkpt lat="47.87704" lon="6.79356">
        <ele>532.2</ele>
        <time>2022-09-13T14:51:28Z</time>
      </trkpt>
      <trkpt lat="47.87701" lon="6.7935">
        <ele>531.6</ele>
        <time>2022-09-13T14:51:29Z</time>
      </trkpt>
      <trkpt lat="47.87699" lon="6.79343">
        <ele>531.2</ele>
        <time>2022-09-13T14:51:30Z</time>
      </trkpt>
      <trkpt lat="47.87698" lon="6.79336">
        <ele>531</ele>
        <time>2022-09-13T14:51:31Z</time>
      </trkpt>
      <trkpt lat="47.87697" lon="6.79328">
        <ele>530.8</ele>
        <time>2022-09-13T14:51:32Z</time>
      </trkpt>
      <trkpt lat="47.87696" lon="6.79321">
        <ele>530.5</ele>
        <time>2022-09-13T14:51:33Z</time>
      </trkpt>
      <trkpt lat="47.87696" lon="6.79313">
        <ele>530.5</ele>
        <time>2022-09-13T14:51:34Z</time>
      </trkpt>
      <trkpt lat="47.87696" lon="6.79306">
        <ele>530.5</ele>
        <time>2022-09-13T14:51:35Z</time>
      </trkpt>
      <trkpt lat="47.87695" lon="6.79299">
        <ele>529.9</ele>
        <time>2022-09-13T14:51:36Z</time>
      </trkpt>
      <trkpt lat="47.87695" lon="6.79291">
        <ele>529.7</ele>
        <time>2022-09-13T14:51:37Z</time>
      </trkpt>
      <trkpt lat="47.87694" lon="6.79283">
        <ele>529.2</ele>
        <time>2022-09-13T14:51:38Z</time>
      </trkpt>
      <trkpt lat="47.87693" lon="6.79276">
        <ele>529.1</ele>
        <time>2022-09-13T14:51:39Z</time>
      </trkpt>
      <trkpt lat="47.87692" lon="6.79268">
        <ele>529.3</ele>
        <time>2022-09-13T14:51:40Z</time>
      </trkpt>
      <trkpt lat="47.87691" lon="6.7926">
        <ele>529.5</ele>
        <time>2022-09-13T14:51:41Z</time>
      </trkpt>
      <trkpt lat="47.8769" lon="6.79249">
        <ele>529.7</ele>
        <time>2022-09-13T14:51:42Z</time>
      </trkpt>
      <trkpt lat="47.87689" lon="6.79241">
        <ele>530.1</ele>
        <time>2022-09-13T14:51:43Z</time>
      </trkpt>
      <trkpt lat="47.87687" lon="6.79233">
        <ele>530.4</ele>
        <time>2022-09-13T14:51:44Z</time>
      </trkpt>
      <trkpt lat="47.87686" lon="6.79228">
        <ele>530.5</ele>
        <time>2022-09-13T14:51:45Z</time>
      </trkpt>
      <trkpt lat="47.87684" lon="6.79221">
        <ele>530.5</ele>
        <time>2022-09-13T14:51:46Z</time>
      </trkpt>
      <trkpt lat="47.87682" lon="6.79214">
        <ele>530.2</ele>
        <time>2022-09-13T14:51:47Z</time>
      </trkpt>
      <trkpt lat="47.8768" lon="6.79207">
        <ele>529.9</ele>
        <time>2022-09-13T14:51:48Z</time>
      </trkpt>
      <trkpt lat="47.87678" lon="6.79199">
        <ele>529.5</ele>
        <time>2022-09-13T14:51:49Z</time>
      </trkpt>
      <trkpt lat="47.87676" lon="6.79192">
        <ele>529.2</ele>
        <time>2022-09-13T14:51:50Z</time>
      </trkpt>
      <trkpt lat="47.87674" lon="6.79185">
        <ele>529.3</ele>
        <time>2022-09-13T14:51:51Z</time>
      </trkpt>
      <trkpt lat="47.87672" lon="6.79178">
        <ele>529.2</ele>
        <time>2022-09-13T14:51:52Z</time>
      </trkpt>
      <trkpt lat="47.8767" lon="6.79172">
        <ele>528.9</ele>
        <time>2022-09-13T14:51:53Z</time>
      </trkpt>
      <trkpt lat="47.87668" lon="6.79165">
        <ele>528.6</ele>
        <time>2022-09-13T14:51:54Z</time>
      </trkpt>
      <trkpt lat="47.87666" lon="6.79159">
        <ele>528.3</ele>
        <time>2022-09-13T14:51:55Z</time>
      </trkpt>
      <trkpt lat="47.87663" lon="6.79153">
        <ele>527.7</ele>
        <time>2022-09-13T14:51:56Z</time>
      </trkpt>
      <trkpt lat="47.87661" lon="6.79146">
        <ele>527.4</ele>
        <time>2022-09-13T14:51:57Z</time>
      </trkpt>
      <trkpt lat="47.87658" lon="6.79138">
        <ele>526.6</ele>
        <time>2022-09-13T14:51:58Z</time>
      </trkpt>
      <trkpt lat="47.87655" lon="6.79127">
        <ele>525.4</ele>
        <time>2022-09-13T14:51:59Z</time>
      </trkpt>
      <trkpt lat="47.87652" lon="6.79117">
        <ele>524.1</ele>
        <time>2022-09-13T14:52:00Z</time>
      </trkpt>
      <trkpt lat="47.8765" lon="6.79106">
        <ele>523.3</ele>
        <time>2022-09-13T14:52:01Z</time>
      </trkpt>
      <trkpt lat="47.87648" lon="6.79095">
        <ele>522.7</ele>
        <time>2022-09-13T14:52:02Z</time>
      </trkpt>
      <trkpt lat="47.87646" lon="6.79083">
        <ele>522.1</ele>
        <time>2022-09-13T14:52:03Z</time>
      </trkpt>
      <trkpt lat="47.87644" lon="6.79072">
        <ele>521.9</ele>
        <time>2022-09-13T14:52:04Z</time>
      </trkpt>
      <trkpt lat="47.87643" lon="6.7906">
        <ele>522.2</ele>
        <time>2022-09-13T14:52:05Z</time>
      </trkpt>
      <trkpt lat="47.87641" lon="6.79049">
        <ele>522.1</ele>
        <time>2022-09-13T14:52:06Z</time>
      </trkpt>
      <trkpt lat="47.87639" lon="6.79039">
        <ele>521.6</ele>
        <time>2022-09-13T14:52:07Z</time>
      </trkpt>
      <trkpt lat="47.87637" lon="6.79029">
        <ele>521.3</ele>
        <time>2022-09-13T14:52:08Z</time>
      </trkpt>
      <trkpt lat="47.87635" lon="6.7902">
        <ele>522.2</ele>
        <time>2022-09-13T14:52:09Z</time>
      </trkpt>
      <trkpt lat="47.87632" lon="6.79012">
        <ele>522.5</ele>
        <time>2022-09-13T14:52:10Z</time>
      </trkpt>
      <trkpt lat="47.87628" lon="6.79004">
        <ele>522.2</ele>
        <time>2022-09-13T14:52:11Z</time>
      </trkpt>
      <trkpt lat="47.87624" lon="6.78996">
        <ele>522</ele>
        <time>2022-09-13T14:52:12Z</time>
      </trkpt>
      <trkpt lat="47.8762" lon="6.78989">
        <ele>521.8</ele>
        <time>2022-09-13T14:52:13Z</time>
      </trkpt>
      <trkpt lat="47.87616" lon="6.78983">
        <ele>521.5</ele>
        <time>2022-09-13T14:52:14Z</time>
      </trkpt>
      <trkpt lat="47.87613" lon="6.78978">
        <ele>521.4</ele>
        <time>2022-09-13T14:52:15Z</time>
      </trkpt>
      <trkpt lat="47.87609" lon="6.78972">
        <ele>521.4</ele>
        <time>2022-09-13T14:52:16Z</time>
      </trkpt>
      <trkpt lat="47.87606" lon="6.78969">
        <ele>520.8</ele>
        <time>2022-09-13T14:52:17Z</time>
      </trkpt>
      <trkpt lat="47.87603" lon="6.78964">
        <ele>520.3</ele>
        <time>2022-09-13T14:52:18Z</time>
      </trkpt>
      <trkpt lat="47.876" lon="6.78959">
        <ele>519.9</ele>
        <time>2022-09-13T14:52:19Z</time>
      </trkpt>
      <trkpt lat="47.87597" lon="6.78955">
        <ele>519.5</ele>
        <time>2022-09-13T14:52:20Z</time>
      </trkpt>
      <trkpt lat="47.87594" lon="6.7895">
        <ele>519.2</ele>
        <time>2022-09-13T14:52:21Z</time>
      </trkpt>
      <trkpt lat="47.87591" lon="6.78945">
        <ele>518.9</ele>
        <time>2022-09-13T14:52:22Z</time>
      </trkpt>
      <trkpt lat="47.87589" lon="6.7894">
        <ele>518.6</ele>
        <time>2022-09-13T14:52:23Z</time>
      </trkpt>
      <trkpt lat="47.87588" lon="6.78935">
        <ele>518.6</ele>
        <time>2022-09-13T14:52:24Z</time>
      </trkpt>
      <trkpt lat="47.87586" lon="6.78931">
        <ele>518.2</ele>
        <time>2022-09-13T14:52:25Z</time>
      </trkpt>
      <trkpt lat="47.87585" lon="6.78927">
        <ele>518.1</ele>
        <time>2022-09-13T14:52:26Z</time>
      </trkpt>
      <trkpt lat="47.87584" lon="6.78926">
        <ele>517.8</ele>
        <time>2022-09-13T14:52:27Z</time>
      </trkpt>
      <trkpt lat="47.87584" lon="6.78925">
        <ele>517.9</ele>
        <time>2022-09-13T14:52:33Z</time>
      </trkpt>
      <trkpt lat="47.87584" lon="6.78924">
        <ele>517.9</ele>
        <time>2022-09-13T14:52:34Z</time>
      </trkpt>
      <trkpt lat="47.87583" lon="6.78924">
        <ele>517.7</ele>
        <time>2022-09-13T14:52:35Z</time>
      </trkpt>
      <trkpt lat="47.87583" lon="6.78923">
        <ele>517.7</ele>
        <time>2022-09-13T14:52:36Z</time>
      </trkpt>
      <trkpt lat="47.87582" lon="6.78923">
        <ele>517.6</ele>
        <time>2022-09-13T14:52:37Z</time>
      </trkpt>
      <trkpt lat="47.87581" lon="6.78922">
        <ele>517.5</ele>
        <time>2022-09-13T14:52:38Z</time>
      </trkpt>
      <trkpt lat="47.87579" lon="6.78922">
        <ele>517.3</ele>
        <time>2022-09-13T14:52:39Z</time>
      </trkpt>
      <trkpt lat="47.87578" lon="6.78922">
        <ele>517.2</ele>
        <time>2022-09-13T14:52:40Z</time>
      </trkpt>
      <trkpt lat="47.87575" lon="6.78921">
        <ele>516.9</ele>
        <time>2022-09-13T14:52:41Z</time>
      </trkpt>
      <trkpt lat="47.87572" lon="6.78921">
        <ele>516.5</ele>
        <time>2022-09-13T14:52:42Z</time>
      </trkpt>
      <trkpt lat="47.8757" lon="6.78921">
        <ele>516.3</ele>
        <time>2022-09-13T14:52:43Z</time>
      </trkpt>
      <trkpt lat="47.87565" lon="6.7892">
        <ele>515.7</ele>
        <time>2022-09-13T14:52:44Z</time>
      </trkpt>
      <trkpt lat="47.87561" lon="6.7892">
        <ele>515.3</ele>
        <time>2022-09-13T14:52:45Z</time>
      </trkpt>
      <trkpt lat="47.87557" lon="6.78919">
        <ele>514.9</ele>
        <time>2022-09-13T14:52:46Z</time>
      </trkpt>
      <trkpt lat="47.87553" lon="6.78918">
        <ele>514.6</ele>
        <time>2022-09-13T14:52:47Z</time>
      </trkpt>
      <trkpt lat="47.87548" lon="6.78916">
        <ele>514.2</ele>
        <time>2022-09-13T14:52:48Z</time>
      </trkpt>
      <trkpt lat="47.87544" lon="6.78915">
        <ele>513.8</ele>
        <time>2022-09-13T14:52:49Z</time>
      </trkpt>
      <trkpt lat="47.87538" lon="6.78913">
        <ele>513.2</ele>
        <time>2022-09-13T14:52:50Z</time>
      </trkpt>
      <trkpt lat="47.87533" lon="6.78911">
        <ele>512.6</ele>
        <time>2022-09-13T14:52:51Z</time>
      </trkpt>
      <trkpt lat="47.87528" lon="6.78909">
        <ele>512</ele>
        <time>2022-09-13T14:52:52Z</time>
      </trkpt>
      <trkpt lat="47.87521" lon="6.78905">
        <ele>511.3</ele>
        <time>2022-09-13T14:52:53Z</time>
      </trkpt>
      <trkpt lat="47.87515" lon="6.78903">
        <ele>510.6</ele>
        <time>2022-09-13T14:52:54Z</time>
      </trkpt>
      <trkpt lat="47.87508" lon="6.78901">
        <ele>509.9</ele>
        <time>2022-09-13T14:52:55Z</time>
      </trkpt>
      <trkpt lat="47.87502" lon="6.78898">
        <ele>509.2</ele>
        <time>2022-09-13T14:52:56Z</time>
      </trkpt>
      <trkpt lat="47.87496" lon="6.78896">
        <ele>508.9</ele>
        <time>2022-09-13T14:52:57Z</time>
      </trkpt>
      <trkpt lat="47.87489" lon="6.78894">
        <ele>508.7</ele>
        <time>2022-09-13T14:52:58Z</time>
      </trkpt>
      <trkpt lat="47.87483" lon="6.78891">
        <ele>508.4</ele>
        <time>2022-09-13T14:52:59Z</time>
      </trkpt>
      <trkpt lat="47.87476" lon="6.78889">
        <ele>508.1</ele>
        <time>2022-09-13T14:53:00Z</time>
      </trkpt>
      <trkpt lat="47.8747" lon="6.78887">
        <ele>508</ele>
        <time>2022-09-13T14:53:01Z</time>
      </trkpt>
      <trkpt lat="47.87464" lon="6.78885">
        <ele>508</ele>
        <time>2022-09-13T14:53:02Z</time>
      </trkpt>
      <trkpt lat="47.87458" lon="6.78882">
        <ele>507.9</ele>
        <time>2022-09-13T14:53:03Z</time>
      </trkpt>
      <trkpt lat="47.87452" lon="6.78879">
        <ele>507.7</ele>
        <time>2022-09-13T14:53:04Z</time>
      </trkpt>
      <trkpt lat="47.87446" lon="6.78876">
        <ele>507.6</ele>
        <time>2022-09-13T14:53:05Z</time>
      </trkpt>
      <trkpt lat="47.87441" lon="6.78871">
        <ele>508</ele>
        <time>2022-09-13T14:53:06Z</time>
      </trkpt>
      <trkpt lat="47.87437" lon="6.78866">
        <ele>508.4</ele>
        <time>2022-09-13T14:53:07Z</time>
      </trkpt>
      <trkpt lat="47.87432" lon="6.78861">
        <ele>508.8</ele>
        <time>2022-09-13T14:53:08Z</time>
      </trkpt>
      <trkpt lat="47.87429" lon="6.78855">
        <ele>508.8</ele>
        <time>2022-09-13T14:53:09Z</time>
      </trkpt>
      <trkpt lat="47.87425" lon="6.7885">
        <ele>508.8</ele>
        <time>2022-09-13T14:53:10Z</time>
      </trkpt>
      <trkpt lat="47.87422" lon="6.78846">
        <ele>508.6</ele>
        <time>2022-09-13T14:53:11Z</time>
      </trkpt>
      <trkpt lat="47.87419" lon="6.78841">
        <ele>508.1</ele>
        <time>2022-09-13T14:53:12Z</time>
      </trkpt>
      <trkpt lat="47.87415" lon="6.78837">
        <ele>507.7</ele>
        <time>2022-09-13T14:53:13Z</time>
      </trkpt>
      <trkpt lat="47.87412" lon="6.78833">
        <ele>507.5</ele>
        <time>2022-09-13T14:53:14Z</time>
      </trkpt>
      <trkpt lat="47.87408" lon="6.78829">
        <ele>507.7</ele>
        <time>2022-09-13T14:53:15Z</time>
      </trkpt>
      <trkpt lat="47.87404" lon="6.78825">
        <ele>507.7</ele>
        <time>2022-09-13T14:53:16Z</time>
      </trkpt>
      <trkpt lat="47.874" lon="6.78822">
        <ele>507.6</ele>
        <time>2022-09-13T14:53:17Z</time>
      </trkpt>
      <trkpt lat="47.87397" lon="6.78818">
        <ele>507.2</ele>
        <time>2022-09-13T14:53:18Z</time>
      </trkpt>
      <trkpt lat="47.87393" lon="6.78815">
        <ele>506.7</ele>
        <time>2022-09-13T14:53:19Z</time>
      </trkpt>
      <trkpt lat="47.87389" lon="6.78812">
        <ele>506.2</ele>
        <time>2022-09-13T14:53:20Z</time>
      </trkpt>
      <trkpt lat="47.87385" lon="6.78808">
        <ele>505.6</ele>
        <time>2022-09-13T14:53:21Z</time>
      </trkpt>
      <trkpt lat="47.87382" lon="6.78805">
        <ele>505.3</ele>
        <time>2022-09-13T14:53:22Z</time>
      </trkpt>
      <trkpt lat="47.87378" lon="6.78802">
        <ele>505.4</ele>
        <time>2022-09-13T14:53:23Z</time>
      </trkpt>
      <trkpt lat="47.87375" lon="6.788">
        <ele>505.5</ele>
        <time>2022-09-13T14:53:24Z</time>
      </trkpt>
      <trkpt lat="47.87373" lon="6.78798">
        <ele>505.5</ele>
        <time>2022-09-13T14:53:25Z</time>
      </trkpt>
      <trkpt lat="47.87371" lon="6.78796">
        <ele>505.5</ele>
        <time>2022-09-13T14:53:26Z</time>
      </trkpt>
      <trkpt lat="47.8737" lon="6.78795">
        <ele>505.5</ele>
        <time>2022-09-13T14:53:27Z</time>
      </trkpt>
      <trkpt lat="47.87369" lon="6.78794">
        <ele>505.5</ele>
        <time>2022-09-13T14:53:28Z</time>
      </trkpt>
      <trkpt lat="47.87368" lon="6.78793">
        <ele>505.5</ele>
        <time>2022-09-13T14:53:29Z</time>
      </trkpt>
      <trkpt lat="47.87367" lon="6.78792">
        <ele>505.5</ele>
        <time>2022-09-13T14:53:33Z</time>
      </trkpt>
      <trkpt lat="47.87366" lon="6.78792">
        <ele>505.5</ele>
        <time>2022-09-13T14:53:35Z</time>
      </trkpt>
      <trkpt lat="47.87364" lon="6.78792">
        <ele>505.5</ele>
        <time>2022-09-13T14:53:36Z</time>
      </trkpt>
      <trkpt lat="47.87363" lon="6.78792">
        <ele>505.5</ele>
        <time>2022-09-13T14:53:37Z</time>
      </trkpt>
      <trkpt lat="47.8736" lon="6.78793">
        <ele>505.4</ele>
        <time>2022-09-13T14:53:38Z</time>
      </trkpt>
      <trkpt lat="47.87357" lon="6.78794">
        <ele>505.1</ele>
        <time>2022-09-13T14:53:39Z</time>
      </trkpt>
      <trkpt lat="47.87352" lon="6.78795">
        <ele>504.4</ele>
        <time>2022-09-13T14:53:40Z</time>
      </trkpt>
      <trkpt lat="47.87348" lon="6.78794">
        <ele>503.9</ele>
        <time>2022-09-13T14:53:41Z</time>
      </trkpt>
      <trkpt lat="47.87345" lon="6.78794">
        <ele>503.5</ele>
        <time>2022-09-13T14:53:42Z</time>
      </trkpt>
      <trkpt lat="47.87341" lon="6.78794">
        <ele>503</ele>
        <time>2022-09-13T14:53:43Z</time>
      </trkpt>
      <trkpt lat="47.87338" lon="6.78793">
        <ele>502.6</ele>
        <time>2022-09-13T14:53:44Z</time>
      </trkpt>
      <trkpt lat="47.87334" lon="6.78792">
        <ele>502.1</ele>
        <time>2022-09-13T14:53:45Z</time>
      </trkpt>
      <trkpt lat="47.87331" lon="6.78791">
        <ele>502.4</ele>
        <time>2022-09-13T14:53:46Z</time>
      </trkpt>
      <trkpt lat="47.87327" lon="6.7879">
        <ele>503.1</ele>
        <time>2022-09-13T14:53:47Z</time>
      </trkpt>
      <trkpt lat="47.87324" lon="6.78788">
        <ele>503.7</ele>
        <time>2022-09-13T14:53:48Z</time>
      </trkpt>
      <trkpt lat="47.8732" lon="6.78787">
        <ele>504.4</ele>
        <time>2022-09-13T14:53:49Z</time>
      </trkpt>
      <trkpt lat="47.87317" lon="6.78785">
        <ele>504.9</ele>
        <time>2022-09-13T14:53:50Z</time>
      </trkpt>
      <trkpt lat="47.87313" lon="6.78785">
        <ele>505.7</ele>
        <time>2022-09-13T14:53:51Z</time>
      </trkpt>
      <trkpt lat="47.87309" lon="6.78784">
        <ele>506.4</ele>
        <time>2022-09-13T14:53:52Z</time>
      </trkpt>
      <trkpt lat="47.87306" lon="6.78782">
        <ele>506.9</ele>
        <time>2022-09-13T14:53:53Z</time>
      </trkpt>
      <trkpt lat="47.87302" lon="6.78781">
        <ele>507.2</ele>
        <time>2022-09-13T14:53:54Z</time>
      </trkpt>
      <trkpt lat="47.87298" lon="6.7878">
        <ele>507.5</ele>
        <time>2022-09-13T14:53:55Z</time>
      </trkpt>
      <trkpt lat="47.87294" lon="6.78779">
        <ele>507.8</ele>
        <time>2022-09-13T14:53:56Z</time>
      </trkpt>
      <trkpt lat="47.8729" lon="6.78778">
        <ele>508.1</ele>
        <time>2022-09-13T14:53:57Z</time>
      </trkpt>
      <trkpt lat="47.87287" lon="6.78776">
        <ele>508.3</ele>
        <time>2022-09-13T14:53:58Z</time>
      </trkpt>
      <trkpt lat="47.87283" lon="6.78775">
        <ele>508.6</ele>
        <time>2022-09-13T14:53:59Z</time>
      </trkpt>
      <trkpt lat="47.8728" lon="6.78774">
        <ele>508.8</ele>
        <time>2022-09-13T14:54:00Z</time>
      </trkpt>
      <trkpt lat="47.87276" lon="6.78773">
        <ele>509.1</ele>
        <time>2022-09-13T14:54:01Z</time>
      </trkpt>
      <trkpt lat="47.87273" lon="6.78772">
        <ele>509.2</ele>
        <time>2022-09-13T14:54:02Z</time>
      </trkpt>
      <trkpt lat="47.8727" lon="6.7877">
        <ele>509.4</ele>
        <time>2022-09-13T14:54:03Z</time>
      </trkpt>
      <trkpt lat="47.87268" lon="6.78769">
        <ele>509.5</ele>
        <time>2022-09-13T14:54:04Z</time>
      </trkpt>
      <trkpt lat="47.87265" lon="6.78767">
        <ele>509.6</ele>
        <time>2022-09-13T14:54:05Z</time>
      </trkpt>
      <trkpt lat="47.87264" lon="6.78765">
        <ele>509.7</ele>
        <time>2022-09-13T14:54:06Z</time>
      </trkpt>
      <trkpt lat="47.87264" lon="6.78763">
        <ele>509.8</ele>
        <time>2022-09-13T14:54:07Z</time>
      </trkpt>
      <trkpt lat="47.87263" lon="6.7876">
        <ele>509.9</ele>
        <time>2022-09-13T14:54:08Z</time>
      </trkpt>
      <trkpt lat="47.87264" lon="6.78757">
        <ele>509.9</ele>
        <time>2022-09-13T14:54:09Z</time>
      </trkpt>
      <trkpt lat="47.87264" lon="6.78754">
        <ele>509.9</ele>
        <time>2022-09-13T14:54:10Z</time>
      </trkpt>
      <trkpt lat="47.87265" lon="6.7875">
        <ele>509.9</ele>
        <time>2022-09-13T14:54:11Z</time>
      </trkpt>
      <trkpt lat="47.87267" lon="6.78744">
        <ele>509.9</ele>
        <time>2022-09-13T14:54:12Z</time>
      </trkpt>
      <trkpt lat="47.87268" lon="6.78739">
        <ele>509.8</ele>
        <time>2022-09-13T14:54:13Z</time>
      </trkpt>
      <trkpt lat="47.8727" lon="6.78734">
        <ele>509.7</ele>
        <time>2022-09-13T14:54:14Z</time>
      </trkpt>
      <trkpt lat="47.87272" lon="6.78729">
        <ele>509.6</ele>
        <time>2022-09-13T14:54:15Z</time>
      </trkpt>
      <trkpt lat="47.87274" lon="6.78725">
        <ele>509.4</ele>
        <time>2022-09-13T14:54:16Z</time>
      </trkpt>
      <trkpt lat="47.87275" lon="6.7872">
        <ele>509.4</ele>
        <time>2022-09-13T14:54:17Z</time>
      </trkpt>
      <trkpt lat="47.87277" lon="6.78714">
        <ele>509.4</ele>
        <time>2022-09-13T14:54:18Z</time>
      </trkpt>
      <trkpt lat="47.87279" lon="6.78709">
        <ele>509.4</ele>
        <time>2022-09-13T14:54:19Z</time>
      </trkpt>
      <trkpt lat="47.87281" lon="6.78703">
        <ele>509.5</ele>
        <time>2022-09-13T14:54:20Z</time>
      </trkpt>
      <trkpt lat="47.87283" lon="6.78698">
        <ele>509.5</ele>
        <time>2022-09-13T14:54:21Z</time>
      </trkpt>
      <trkpt lat="47.87285" lon="6.78692">
        <ele>509.5</ele>
        <time>2022-09-13T14:54:22Z</time>
      </trkpt>
      <trkpt lat="47.87286" lon="6.78686">
        <ele>509.6</ele>
        <time>2022-09-13T14:54:23Z</time>
      </trkpt>
      <trkpt lat="47.87288" lon="6.7868">
        <ele>509.6</ele>
        <time>2022-09-13T14:54:24Z</time>
      </trkpt>
      <trkpt lat="47.8729" lon="6.78674">
        <ele>509.5</ele>
        <time>2022-09-13T14:54:25Z</time>
      </trkpt>
      <trkpt lat="47.87292" lon="6.78668">
        <ele>509.4</ele>
        <time>2022-09-13T14:54:26Z</time>
      </trkpt>
      <trkpt lat="47.87294" lon="6.78662">
        <ele>509.3</ele>
        <time>2022-09-13T14:54:27Z</time>
      </trkpt>
      <trkpt lat="47.87296" lon="6.78656">
        <ele>509.3</ele>
        <time>2022-09-13T14:54:28Z</time>
      </trkpt>
      <trkpt lat="47.87298" lon="6.7865">
        <ele>509.3</ele>
        <time>2022-09-13T14:54:29Z</time>
      </trkpt>
      <trkpt lat="47.87299" lon="6.78644">
        <ele>509.3</ele>
        <time>2022-09-13T14:54:30Z</time>
      </trkpt>
      <trkpt lat="47.87301" lon="6.78638">
        <ele>509.3</ele>
        <time>2022-09-13T14:54:31Z</time>
      </trkpt>
      <trkpt lat="47.87303" lon="6.78632">
        <ele>509.2</ele>
        <time>2022-09-13T14:54:32Z</time>
      </trkpt>
      <trkpt lat="47.87305" lon="6.78626">
        <ele>509</ele>
        <time>2022-09-13T14:54:33Z</time>
      </trkpt>
      <trkpt lat="47.87307" lon="6.78621">
        <ele>508.8</ele>
        <time>2022-09-13T14:54:34Z</time>
      </trkpt>
      <trkpt lat="47.87309" lon="6.78615">
        <ele>508.5</ele>
        <time>2022-09-13T14:54:35Z</time>
      </trkpt>
      <trkpt lat="47.8731" lon="6.7861">
        <ele>508.4</ele>
        <time>2022-09-13T14:54:36Z</time>
      </trkpt>
      <trkpt lat="47.87312" lon="6.78604">
        <ele>508.1</ele>
        <time>2022-09-13T14:54:37Z</time>
      </trkpt>
      <trkpt lat="47.87314" lon="6.78598">
        <ele>507.8</ele>
        <time>2022-09-13T14:54:38Z</time>
      </trkpt>
      <trkpt lat="47.87316" lon="6.78593">
        <ele>507.5</ele>
        <time>2022-09-13T14:54:39Z</time>
      </trkpt>
      <trkpt lat="47.87317" lon="6.78587">
        <ele>507.4</ele>
        <time>2022-09-13T14:54:40Z</time>
      </trkpt>
      <trkpt lat="47.87319" lon="6.78582">
        <ele>507.1</ele>
        <time>2022-09-13T14:54:41Z</time>
      </trkpt>
      <trkpt lat="47.87321" lon="6.78576">
        <ele>507.2</ele>
        <time>2022-09-13T14:54:42Z</time>
      </trkpt>
      <trkpt lat="47.87322" lon="6.78571">
        <ele>507.3</ele>
        <time>2022-09-13T14:54:43Z</time>
      </trkpt>
      <trkpt lat="47.87324" lon="6.78565">
        <ele>507.4</ele>
        <time>2022-09-13T14:54:44Z</time>
      </trkpt>
      <trkpt lat="47.87326" lon="6.7856">
        <ele>507.5</ele>
        <time>2022-09-13T14:54:45Z</time>
      </trkpt>
      <trkpt lat="47.87328" lon="6.78554">
        <ele>507.7</ele>
        <time>2022-09-13T14:54:46Z</time>
      </trkpt>
      <trkpt lat="47.8733" lon="6.78549">
        <ele>507.7</ele>
        <time>2022-09-13T14:54:47Z</time>
      </trkpt>
      <trkpt lat="47.87332" lon="6.78543">
        <ele>507.6</ele>
        <time>2022-09-13T14:54:48Z</time>
      </trkpt>
      <trkpt lat="47.87334" lon="6.78538">
        <ele>507.5</ele>
        <time>2022-09-13T14:54:49Z</time>
      </trkpt>
      <trkpt lat="47.87336" lon="6.78532">
        <ele>507.1</ele>
        <time>2022-09-13T14:54:50Z</time>
      </trkpt>
      <trkpt lat="47.87338" lon="6.78527">
        <ele>506.7</ele>
        <time>2022-09-13T14:54:51Z</time>
      </trkpt>
      <trkpt lat="47.8734" lon="6.78521">
        <ele>506.3</ele>
        <time>2022-09-13T14:54:52Z</time>
      </trkpt>
      <trkpt lat="47.87343" lon="6.78516">
        <ele>505.8</ele>
        <time>2022-09-13T14:54:53Z</time>
      </trkpt>
      <trkpt lat="47.87345" lon="6.7851">
        <ele>505.7</ele>
        <time>2022-09-13T14:54:54Z</time>
      </trkpt>
      <trkpt lat="47.87347" lon="6.78505">
        <ele>505.7</ele>
        <time>2022-09-13T14:54:55Z</time>
      </trkpt>
      <trkpt lat="47.8735" lon="6.785">
        <ele>505.6</ele>
        <time>2022-09-13T14:54:56Z</time>
      </trkpt>
      <trkpt lat="47.87352" lon="6.78495">
        <ele>506</ele>
        <time>2022-09-13T14:54:57Z</time>
      </trkpt>
      <trkpt lat="47.87354" lon="6.7849">
        <ele>506.4</ele>
        <time>2022-09-13T14:54:58Z</time>
      </trkpt>
      <trkpt lat="47.87356" lon="6.78485">
        <ele>506.8</ele>
        <time>2022-09-13T14:54:59Z</time>
      </trkpt>
      <trkpt lat="47.87359" lon="6.7848">
        <ele>507.1</ele>
        <time>2022-09-13T14:55:00Z</time>
      </trkpt>
      <trkpt lat="47.87361" lon="6.78475">
        <ele>507.6</ele>
        <time>2022-09-13T14:55:01Z</time>
      </trkpt>
      <trkpt lat="47.87364" lon="6.7847">
        <ele>507.5</ele>
        <time>2022-09-13T14:55:02Z</time>
      </trkpt>
      <trkpt lat="47.87367" lon="6.78465">
        <ele>507.3</ele>
        <time>2022-09-13T14:55:03Z</time>
      </trkpt>
      <trkpt lat="47.87369" lon="6.78461">
        <ele>507.3</ele>
        <time>2022-09-13T14:55:04Z</time>
      </trkpt>
      <trkpt lat="47.87372" lon="6.78456">
        <ele>507.4</ele>
        <time>2022-09-13T14:55:05Z</time>
      </trkpt>
      <trkpt lat="47.87375" lon="6.78451">
        <ele>507.7</ele>
        <time>2022-09-13T14:55:06Z</time>
      </trkpt>
      <trkpt lat="47.87377" lon="6.78447">
        <ele>508.1</ele>
        <time>2022-09-13T14:55:07Z</time>
      </trkpt>
      <trkpt lat="47.8738" lon="6.78442">
        <ele>508.5</ele>
        <time>2022-09-13T14:55:08Z</time>
      </trkpt>
      <trkpt lat="47.87383" lon="6.78437">
        <ele>508.8</ele>
        <time>2022-09-13T14:55:09Z</time>
      </trkpt>
      <trkpt lat="47.87386" lon="6.78433">
        <ele>509</ele>
        <time>2022-09-13T14:55:10Z</time>
      </trkpt>
      <trkpt lat="47.87389" lon="6.78428">
        <ele>509.2</ele>
        <time>2022-09-13T14:55:11Z</time>
      </trkpt>
      <trkpt lat="47.87392" lon="6.78424">
        <ele>508.9</ele>
        <time>2022-09-13T14:55:12Z</time>
      </trkpt>
      <trkpt lat="47.87395" lon="6.78419">
        <ele>508.7</ele>
        <time>2022-09-13T14:55:13Z</time>
      </trkpt>
      <trkpt lat="47.87397" lon="6.78415">
        <ele>508.7</ele>
        <time>2022-09-13T14:55:14Z</time>
      </trkpt>
      <trkpt lat="47.874" lon="6.7841">
        <ele>508.6</ele>
        <time>2022-09-13T14:55:15Z</time>
      </trkpt>
      <trkpt lat="47.87404" lon="6.78405">
        <ele>508.3</ele>
        <time>2022-09-13T14:55:16Z</time>
      </trkpt>
      <trkpt lat="47.87407" lon="6.78401">
        <ele>508.2</ele>
        <time>2022-09-13T14:55:17Z</time>
      </trkpt>
      <trkpt lat="47.87409" lon="6.78396">
        <ele>508.4</ele>
        <time>2022-09-13T14:55:18Z</time>
      </trkpt>
      <trkpt lat="47.87412" lon="6.78392">
        <ele>508.4</ele>
        <time>2022-09-13T14:55:19Z</time>
      </trkpt>
      <trkpt lat="47.87415" lon="6.78388">
        <ele>508.3</ele>
        <time>2022-09-13T14:55:20Z</time>
      </trkpt>
      <trkpt lat="47.87418" lon="6.78384">
        <ele>508.2</ele>
        <time>2022-09-13T14:55:21Z</time>
      </trkpt>
      <trkpt lat="47.8742" lon="6.7838">
        <ele>508.2</ele>
        <time>2022-09-13T14:55:22Z</time>
      </trkpt>
      <trkpt lat="47.87423" lon="6.78376">
        <ele>508.1</ele>
        <time>2022-09-13T14:55:23Z</time>
      </trkpt>
      <trkpt lat="47.87425" lon="6.78372">
        <ele>508.2</ele>
        <time>2022-09-13T14:55:24Z</time>
      </trkpt>
      <trkpt lat="47.87428" lon="6.78369">
        <ele>508.1</ele>
        <time>2022-09-13T14:55:25Z</time>
      </trkpt>
      <trkpt lat="47.87431" lon="6.78365">
        <ele>508.1</ele>
        <time>2022-09-13T14:55:26Z</time>
      </trkpt>
      <trkpt lat="47.87433" lon="6.78361">
        <ele>508.2</ele>
        <time>2022-09-13T14:55:27Z</time>
      </trkpt>
      <trkpt lat="47.87436" lon="6.78357">
        <ele>508.4</ele>
        <time>2022-09-13T14:55:28Z</time>
      </trkpt>
      <trkpt lat="47.87439" lon="6.78353">
        <ele>508.5</ele>
        <time>2022-09-13T14:55:29Z</time>
      </trkpt>
      <trkpt lat="47.87442" lon="6.78349">
        <ele>508.6</ele>
        <time>2022-09-13T14:55:30Z</time>
      </trkpt>
      <trkpt lat="47.87445" lon="6.78345">
        <ele>508.7</ele>
        <time>2022-09-13T14:55:31Z</time>
      </trkpt>
      <trkpt lat="47.87448" lon="6.7834">
        <ele>508.8</ele>
        <time>2022-09-13T14:55:32Z</time>
      </trkpt>
      <trkpt lat="47.87451" lon="6.78336">
        <ele>508.8</ele>
        <time>2022-09-13T14:55:33Z</time>
      </trkpt>
      <trkpt lat="47.87454" lon="6.78332">
        <ele>508.7</ele>
        <time>2022-09-13T14:55:34Z</time>
      </trkpt>
      <trkpt lat="47.87457" lon="6.78328">
        <ele>508.6</ele>
        <time>2022-09-13T14:55:35Z</time>
      </trkpt>
      <trkpt lat="47.8746" lon="6.78323">
        <ele>508.5</ele>
        <time>2022-09-13T14:55:36Z</time>
      </trkpt>
      <trkpt lat="47.87463" lon="6.78319">
        <ele>508.4</ele>
        <time>2022-09-13T14:55:37Z</time>
      </trkpt>
      <trkpt lat="47.87465" lon="6.78314">
        <ele>508.4</ele>
        <time>2022-09-13T14:55:38Z</time>
      </trkpt>
      <trkpt lat="47.87468" lon="6.78309">
        <ele>508.4</ele>
        <time>2022-09-13T14:55:39Z</time>
      </trkpt>
      <trkpt lat="47.87471" lon="6.78304">
        <ele>508.3</ele>
        <time>2022-09-13T14:55:40Z</time>
      </trkpt>
      <trkpt lat="47.87474" lon="6.78299">
        <ele>508.2</ele>
        <time>2022-09-13T14:55:41Z</time>
      </trkpt>
      <trkpt lat="47.87477" lon="6.78294">
        <ele>508.2</ele>
        <time>2022-09-13T14:55:42Z</time>
      </trkpt>
      <trkpt lat="47.8748" lon="6.78288">
        <ele>508.3</ele>
        <time>2022-09-13T14:55:43Z</time>
      </trkpt>
      <trkpt lat="47.87482" lon="6.78283">
        <ele>508.5</ele>
        <time>2022-09-13T14:55:44Z</time>
      </trkpt>
      <trkpt lat="47.87485" lon="6.78278">
        <ele>508.6</ele>
        <time>2022-09-13T14:55:45Z</time>
      </trkpt>
      <trkpt lat="47.87488" lon="6.78273">
        <ele>508.5</ele>
        <time>2022-09-13T14:55:46Z</time>
      </trkpt>
      <trkpt lat="47.87491" lon="6.78268">
        <ele>508.3</ele>
        <time>2022-09-13T14:55:47Z</time>
      </trkpt>
      <trkpt lat="47.87493" lon="6.78263">
        <ele>508.3</ele>
        <time>2022-09-13T14:55:48Z</time>
      </trkpt>
      <trkpt lat="47.87496" lon="6.78257">
        <ele>508.2</ele>
        <time>2022-09-13T14:55:49Z</time>
      </trkpt>
      <trkpt lat="47.87498" lon="6.78252">
        <ele>508.1</ele>
        <time>2022-09-13T14:55:50Z</time>
      </trkpt>
      <trkpt lat="47.875" lon="6.78247">
        <ele>508</ele>
        <time>2022-09-13T14:55:51Z</time>
      </trkpt>
      <trkpt lat="47.87503" lon="6.78242">
        <ele>507.5</ele>
        <time>2022-09-13T14:55:52Z</time>
      </trkpt>
      <trkpt lat="47.87505" lon="6.78237">
        <ele>507.3</ele>
        <time>2022-09-13T14:55:53Z</time>
      </trkpt>
      <trkpt lat="47.87507" lon="6.78232">
        <ele>507.1</ele>
        <time>2022-09-13T14:55:54Z</time>
      </trkpt>
      <trkpt lat="47.87509" lon="6.78227">
        <ele>506.9</ele>
        <time>2022-09-13T14:55:55Z</time>
      </trkpt>
      <trkpt lat="47.87511" lon="6.78222">
        <ele>506.8</ele>
        <time>2022-09-13T14:55:56Z</time>
      </trkpt>
      <trkpt lat="47.87513" lon="6.78217">
        <ele>506.8</ele>
        <time>2022-09-13T14:55:57Z</time>
      </trkpt>
      <trkpt lat="47.87515" lon="6.78212">
        <ele>506.8</ele>
        <time>2022-09-13T14:55:58Z</time>
      </trkpt>
      <trkpt lat="47.87517" lon="6.78207">
        <ele>506.8</ele>
        <time>2022-09-13T14:55:59Z</time>
      </trkpt>
      <trkpt lat="47.87519" lon="6.78202">
        <ele>506.9</ele>
        <time>2022-09-13T14:56:00Z</time>
      </trkpt>
      <trkpt lat="47.8752" lon="6.78198">
        <ele>507.1</ele>
        <time>2022-09-13T14:56:01Z</time>
      </trkpt>
      <trkpt lat="47.87522" lon="6.78193">
        <ele>507.2</ele>
        <time>2022-09-13T14:56:02Z</time>
      </trkpt>
      <trkpt lat="47.87524" lon="6.78188">
        <ele>507.3</ele>
        <time>2022-09-13T14:56:03Z</time>
      </trkpt>
      <trkpt lat="47.87525" lon="6.78183">
        <ele>507.5</ele>
        <time>2022-09-13T14:56:04Z</time>
      </trkpt>
      <trkpt lat="47.87527" lon="6.78177">
        <ele>507.6</ele>
        <time>2022-09-13T14:56:05Z</time>
      </trkpt>
      <trkpt lat="47.87529" lon="6.78172">
        <ele>507.5</ele>
        <time>2022-09-13T14:56:06Z</time>
      </trkpt>
      <trkpt lat="47.87531" lon="6.78166">
        <ele>507.1</ele>
        <time>2022-09-13T14:56:07Z</time>
      </trkpt>
      <trkpt lat="47.87533" lon="6.7816">
        <ele>506.6</ele>
        <time>2022-09-13T14:56:08Z</time>
      </trkpt>
      <trkpt lat="47.87534" lon="6.78153">
        <ele>506.4</ele>
        <time>2022-09-13T14:56:09Z</time>
      </trkpt>
      <trkpt lat="47.87536" lon="6.78147">
        <ele>506.1</ele>
        <time>2022-09-13T14:56:10Z</time>
      </trkpt>
      <trkpt lat="47.87538" lon="6.7814">
        <ele>505.8</ele>
        <time>2022-09-13T14:56:11Z</time>
      </trkpt>
      <trkpt lat="47.8754" lon="6.78133">
        <ele>505.5</ele>
        <time>2022-09-13T14:56:12Z</time>
      </trkpt>
      <trkpt lat="47.87541" lon="6.78127">
        <ele>505.6</ele>
        <time>2022-09-13T14:56:13Z</time>
      </trkpt>
      <trkpt lat="47.87543" lon="6.7812">
        <ele>505.5</ele>
        <time>2022-09-13T14:56:14Z</time>
      </trkpt>
      <trkpt lat="47.87545" lon="6.78113">
        <ele>505.4</ele>
        <time>2022-09-13T14:56:15Z</time>
      </trkpt>
      <trkpt lat="47.87546" lon="6.78106">
        <ele>505.6</ele>
        <time>2022-09-13T14:56:16Z</time>
      </trkpt>
      <trkpt lat="47.87547" lon="6.78099">
        <ele>505.8</ele>
        <time>2022-09-13T14:56:17Z</time>
      </trkpt>
      <trkpt lat="47.87549" lon="6.78092">
        <ele>506</ele>
        <time>2022-09-13T14:56:18Z</time>
      </trkpt>
      <trkpt lat="47.8755" lon="6.78085">
        <ele>506.3</ele>
        <time>2022-09-13T14:56:19Z</time>
      </trkpt>
      <trkpt lat="47.87551" lon="6.78079">
        <ele>506.5</ele>
        <time>2022-09-13T14:56:20Z</time>
      </trkpt>
      <trkpt lat="47.87552" lon="6.78072">
        <ele>506.6</ele>
        <time>2022-09-13T14:56:21Z</time>
      </trkpt>
      <trkpt lat="47.87553" lon="6.78065">
        <ele>506.8</ele>
        <time>2022-09-13T14:56:22Z</time>
      </trkpt>
      <trkpt lat="47.87555" lon="6.78059">
        <ele>506.9</ele>
        <time>2022-09-13T14:56:23Z</time>
      </trkpt>
      <trkpt lat="47.87556" lon="6.78052">
        <ele>506.9</ele>
        <time>2022-09-13T14:56:24Z</time>
      </trkpt>
      <trkpt lat="47.87557" lon="6.78046">
        <ele>506.7</ele>
        <time>2022-09-13T14:56:25Z</time>
      </trkpt>
      <trkpt lat="47.87559" lon="6.7804">
        <ele>506.2</ele>
        <time>2022-09-13T14:56:26Z</time>
      </trkpt>
      <trkpt lat="47.8756" lon="6.78033">
        <ele>505.9</ele>
        <time>2022-09-13T14:56:27Z</time>
      </trkpt>
      <trkpt lat="47.87561" lon="6.78026">
        <ele>505.7</ele>
        <time>2022-09-13T14:56:28Z</time>
      </trkpt>
      <trkpt lat="47.87562" lon="6.78019">
        <ele>505.7</ele>
        <time>2022-09-13T14:56:29Z</time>
      </trkpt>
      <trkpt lat="47.87564" lon="6.78012">
        <ele>505.4</ele>
        <time>2022-09-13T14:56:30Z</time>
      </trkpt>
      <trkpt lat="47.87565" lon="6.78005">
        <ele>505.4</ele>
        <time>2022-09-13T14:56:31Z</time>
      </trkpt>
      <trkpt lat="47.87566" lon="6.77997">
        <ele>505.2</ele>
        <time>2022-09-13T14:56:32Z</time>
      </trkpt>
      <trkpt lat="47.87567" lon="6.7799">
        <ele>504.7</ele>
        <time>2022-09-13T14:56:33Z</time>
      </trkpt>
      <trkpt lat="47.87568" lon="6.77983">
        <ele>504.2</ele>
        <time>2022-09-13T14:56:34Z</time>
      </trkpt>
      <trkpt lat="47.87569" lon="6.77975">
        <ele>503.7</ele>
        <time>2022-09-13T14:56:35Z</time>
      </trkpt>
      <trkpt lat="47.8757" lon="6.77968">
        <ele>503.5</ele>
        <time>2022-09-13T14:56:36Z</time>
      </trkpt>
      <trkpt lat="47.87571" lon="6.77961">
        <ele>503.4</ele>
        <time>2022-09-13T14:56:37Z</time>
      </trkpt>
      <trkpt lat="47.87571" lon="6.77954">
        <ele>503.6</ele>
        <time>2022-09-13T14:56:38Z</time>
      </trkpt>
      <trkpt lat="47.87572" lon="6.77946">
        <ele>503.6</ele>
        <time>2022-09-13T14:56:39Z</time>
      </trkpt>
      <trkpt lat="47.87572" lon="6.77939">
        <ele>503.6</ele>
        <time>2022-09-13T14:56:40Z</time>
      </trkpt>
      <trkpt lat="47.87573" lon="6.77932">
        <ele>503.5</ele>
        <time>2022-09-13T14:56:41Z</time>
      </trkpt>
      <trkpt lat="47.87573" lon="6.77925">
        <ele>503.5</ele>
        <time>2022-09-13T14:56:42Z</time>
      </trkpt>
      <trkpt lat="47.87574" lon="6.77917">
        <ele>503.3</ele>
        <time>2022-09-13T14:56:43Z</time>
      </trkpt>
      <trkpt lat="47.87574" lon="6.7791">
        <ele>503.5</ele>
        <time>2022-09-13T14:56:44Z</time>
      </trkpt>
      <trkpt lat="47.87575" lon="6.77903">
        <ele>503.5</ele>
        <time>2022-09-13T14:56:45Z</time>
      </trkpt>
      <trkpt lat="47.87575" lon="6.77895">
        <ele>503.7</ele>
        <time>2022-09-13T14:56:46Z</time>
      </trkpt>
      <trkpt lat="47.87575" lon="6.77888">
        <ele>503.9</ele>
        <time>2022-09-13T14:56:47Z</time>
      </trkpt>
      <trkpt lat="47.87576" lon="6.77881">
        <ele>503.8</ele>
        <time>2022-09-13T14:56:48Z</time>
      </trkpt>
      <trkpt lat="47.87576" lon="6.77873">
        <ele>503.8</ele>
        <time>2022-09-13T14:56:49Z</time>
      </trkpt>
      <trkpt lat="47.87576" lon="6.77866">
        <ele>503.8</ele>
        <time>2022-09-13T14:56:50Z</time>
      </trkpt>
      <trkpt lat="47.87576" lon="6.77859">
        <ele>503.8</ele>
        <time>2022-09-13T14:56:51Z</time>
      </trkpt>
      <trkpt lat="47.87576" lon="6.77852">
        <ele>503.8</ele>
        <time>2022-09-13T14:56:52Z</time>
      </trkpt>
      <trkpt lat="47.87576" lon="6.77845">
        <ele>503.8</ele>
        <time>2022-09-13T14:56:53Z</time>
      </trkpt>
      <trkpt lat="47.87575" lon="6.77838">
        <ele>503.9</ele>
        <time>2022-09-13T14:56:54Z</time>
      </trkpt>
      <trkpt lat="47.87575" lon="6.77831">
        <ele>503.8</ele>
        <time>2022-09-13T14:56:55Z</time>
      </trkpt>
      <trkpt lat="47.87575" lon="6.77823">
        <ele>503.6</ele>
        <time>2022-09-13T14:56:56Z</time>
      </trkpt>
      <trkpt lat="47.87575" lon="6.77816">
        <ele>503.5</ele>
        <time>2022-09-13T14:56:57Z</time>
      </trkpt>
      <trkpt lat="47.87574" lon="6.77809">
        <ele>503.4</ele>
        <time>2022-09-13T14:56:58Z</time>
      </trkpt>
      <trkpt lat="47.87574" lon="6.77801">
        <ele>503.5</ele>
        <time>2022-09-13T14:56:59Z</time>
      </trkpt>
      <trkpt lat="47.87574" lon="6.77794">
        <ele>503.8</ele>
        <time>2022-09-13T14:57:00Z</time>
      </trkpt>
      <trkpt lat="47.87573" lon="6.77787">
        <ele>504.1</ele>
        <time>2022-09-13T14:57:01Z</time>
      </trkpt>
      <trkpt lat="47.87573" lon="6.77779">
        <ele>504.3</ele>
        <time>2022-09-13T14:57:02Z</time>
      </trkpt>
      <trkpt lat="47.87573" lon="6.77772">
        <ele>504</ele>
        <time>2022-09-13T14:57:03Z</time>
      </trkpt>
      <trkpt lat="47.87572" lon="6.77764">
        <ele>503.5</ele>
        <time>2022-09-13T14:57:04Z</time>
      </trkpt>
      <trkpt lat="47.87572" lon="6.77757">
        <ele>503.1</ele>
        <time>2022-09-13T14:57:05Z</time>
      </trkpt>
      <trkpt lat="47.87571" lon="6.7775">
        <ele>502.8</ele>
        <time>2022-09-13T14:57:06Z</time>
      </trkpt>
      <trkpt lat="47.87571" lon="6.77742">
        <ele>502.9</ele>
        <time>2022-09-13T14:57:07Z</time>
      </trkpt>
      <trkpt lat="47.8757" lon="6.77735">
        <ele>503.2</ele>
        <time>2022-09-13T14:57:08Z</time>
      </trkpt>
      <trkpt lat="47.8757" lon="6.77727">
        <ele>503.4</ele>
        <time>2022-09-13T14:57:09Z</time>
      </trkpt>
      <trkpt lat="47.8757" lon="6.7772">
        <ele>503.4</ele>
        <time>2022-09-13T14:57:10Z</time>
      </trkpt>
      <trkpt lat="47.87569" lon="6.77712">
        <ele>503.4</ele>
        <time>2022-09-13T14:57:11Z</time>
      </trkpt>
      <trkpt lat="47.87568" lon="6.77705">
        <ele>503.4</ele>
        <time>2022-09-13T14:57:12Z</time>
      </trkpt>
      <trkpt lat="47.87568" lon="6.77697">
        <ele>503.2</ele>
        <time>2022-09-13T14:57:13Z</time>
      </trkpt>
      <trkpt lat="47.87567" lon="6.7769">
        <ele>503.3</ele>
        <time>2022-09-13T14:57:14Z</time>
      </trkpt>
      <trkpt lat="47.87567" lon="6.77682">
        <ele>503.1</ele>
        <time>2022-09-13T14:57:15Z</time>
      </trkpt>
      <trkpt lat="47.87566" lon="6.77675">
        <ele>503.1</ele>
        <time>2022-09-13T14:57:16Z</time>
      </trkpt>
      <trkpt lat="47.87566" lon="6.77667">
        <ele>502.9</ele>
        <time>2022-09-13T14:57:17Z</time>
      </trkpt>
      <trkpt lat="47.87565" lon="6.7766">
        <ele>503</ele>
        <time>2022-09-13T14:57:18Z</time>
      </trkpt>
      <trkpt lat="47.87565" lon="6.77652">
        <ele>503</ele>
        <time>2022-09-13T14:57:19Z</time>
      </trkpt>
      <trkpt lat="47.87564" lon="6.77644">
        <ele>503.1</ele>
        <time>2022-09-13T14:57:20Z</time>
      </trkpt>
      <trkpt lat="47.87564" lon="6.77637">
        <ele>503.1</ele>
        <time>2022-09-13T14:57:21Z</time>
      </trkpt>
      <trkpt lat="47.87564" lon="6.77629">
        <ele>503</ele>
        <time>2022-09-13T14:57:22Z</time>
      </trkpt>
      <trkpt lat="47.87563" lon="6.77621">
        <ele>503</ele>
        <time>2022-09-13T14:57:23Z</time>
      </trkpt>
      <trkpt lat="47.87563" lon="6.77614">
        <ele>503</ele>
        <time>2022-09-13T14:57:24Z</time>
      </trkpt>
      <trkpt lat="47.87562" lon="6.77606">
        <ele>502.9</ele>
        <time>2022-09-13T14:57:25Z</time>
      </trkpt>
      <trkpt lat="47.87562" lon="6.77599">
        <ele>502.7</ele>
        <time>2022-09-13T14:57:26Z</time>
      </trkpt>
      <trkpt lat="47.87561" lon="6.77591">
        <ele>502.6</ele>
        <time>2022-09-13T14:57:27Z</time>
      </trkpt>
      <trkpt lat="47.87561" lon="6.77584">
        <ele>502.4</ele>
        <time>2022-09-13T14:57:28Z</time>
      </trkpt>
      <trkpt lat="47.8756" lon="6.77576">
        <ele>502.5</ele>
        <time>2022-09-13T14:57:29Z</time>
      </trkpt>
      <trkpt lat="47.8756" lon="6.77568">
        <ele>502.4</ele>
        <time>2022-09-13T14:57:30Z</time>
      </trkpt>
      <trkpt lat="47.87559" lon="6.77561">
        <ele>502.5</ele>
        <time>2022-09-13T14:57:31Z</time>
      </trkpt>
      <trkpt lat="47.87559" lon="6.77553">
        <ele>502.6</ele>
        <time>2022-09-13T14:57:32Z</time>
      </trkpt>
      <trkpt lat="47.87558" lon="6.77546">
        <ele>503</ele>
        <time>2022-09-13T14:57:33Z</time>
      </trkpt>
      <trkpt lat="47.87558" lon="6.77538">
        <ele>503.2</ele>
        <time>2022-09-13T14:57:34Z</time>
      </trkpt>
      <trkpt lat="47.87558" lon="6.77531">
        <ele>503.5</ele>
        <time>2022-09-13T14:57:35Z</time>
      </trkpt>
      <trkpt lat="47.87557" lon="6.77524">
        <ele>503.7</ele>
        <time>2022-09-13T14:57:36Z</time>
      </trkpt>
      <trkpt lat="47.87557" lon="6.77517">
        <ele>503.7</ele>
        <time>2022-09-13T14:57:37Z</time>
      </trkpt>
      <trkpt lat="47.87557" lon="6.7751">
        <ele>503.7</ele>
        <time>2022-09-13T14:57:38Z</time>
      </trkpt>
      <trkpt lat="47.87556" lon="6.77503">
        <ele>503.9</ele>
        <time>2022-09-13T14:57:39Z</time>
      </trkpt>
      <trkpt lat="47.87556" lon="6.77497">
        <ele>503.8</ele>
        <time>2022-09-13T14:57:40Z</time>
      </trkpt>
      <trkpt lat="47.87555" lon="6.7749">
        <ele>503.6</ele>
        <time>2022-09-13T14:57:41Z</time>
      </trkpt>
      <trkpt lat="47.87555" lon="6.77484">
        <ele>503.4</ele>
        <time>2022-09-13T14:57:42Z</time>
      </trkpt>
      <trkpt lat="47.87555" lon="6.77479">
        <ele>503.2</ele>
        <time>2022-09-13T14:57:43Z</time>
      </trkpt>
      <trkpt lat="47.87554" lon="6.77473">
        <ele>503</ele>
        <time>2022-09-13T14:57:44Z</time>
      </trkpt>
      <trkpt lat="47.87554" lon="6.77467">
        <ele>503</ele>
        <time>2022-09-13T14:57:45Z</time>
      </trkpt>
      <trkpt lat="47.87553" lon="6.77461">
        <ele>503</ele>
        <time>2022-09-13T14:57:46Z</time>
      </trkpt>
      <trkpt lat="47.87553" lon="6.77455">
        <ele>503</ele>
        <time>2022-09-13T14:57:47Z</time>
      </trkpt>
      <trkpt lat="47.87553" lon="6.7745">
        <ele>503</ele>
        <time>2022-09-13T14:57:48Z</time>
      </trkpt>
      <trkpt lat="47.87552" lon="6.77444">
        <ele>503</ele>
        <time>2022-09-13T14:57:49Z</time>
      </trkpt>
      <trkpt lat="47.87552" lon="6.77439">
        <ele>503</ele>
        <time>2022-09-13T14:57:50Z</time>
      </trkpt>
      <trkpt lat="47.87552" lon="6.77433">
        <ele>503</ele>
        <time>2022-09-13T14:57:51Z</time>
      </trkpt>
      <trkpt lat="47.87551" lon="6.77427">
        <ele>503</ele>
        <time>2022-09-13T14:57:52Z</time>
      </trkpt>
      <trkpt lat="47.87551" lon="6.77422">
        <ele>503</ele>
        <time>2022-09-13T14:57:53Z</time>
      </trkpt>
      <trkpt lat="47.87551" lon="6.77416">
        <ele>503</ele>
        <time>2022-09-13T14:57:54Z</time>
      </trkpt>
      <trkpt lat="47.87551" lon="6.7741">
        <ele>502.8</ele>
        <time>2022-09-13T14:57:55Z</time>
      </trkpt>
      <trkpt lat="47.8755" lon="6.77404">
        <ele>502.6</ele>
        <time>2022-09-13T14:57:56Z</time>
      </trkpt>
      <trkpt lat="47.8755" lon="6.77397">
        <ele>502.4</ele>
        <time>2022-09-13T14:57:57Z</time>
      </trkpt>
      <trkpt lat="47.87549" lon="6.7739">
        <ele>502.3</ele>
        <time>2022-09-13T14:57:58Z</time>
      </trkpt>
      <trkpt lat="47.87549" lon="6.77383">
        <ele>502.2</ele>
        <time>2022-09-13T14:57:59Z</time>
      </trkpt>
      <trkpt lat="47.87549" lon="6.77376">
        <ele>502.2</ele>
        <time>2022-09-13T14:58:00Z</time>
      </trkpt>
      <trkpt lat="47.87548" lon="6.77369">
        <ele>502.3</ele>
        <time>2022-09-13T14:58:01Z</time>
      </trkpt>
      <trkpt lat="47.87548" lon="6.77362">
        <ele>502.3</ele>
        <time>2022-09-13T14:58:02Z</time>
      </trkpt>
      <trkpt lat="47.87547" lon="6.77356">
        <ele>502.3</ele>
        <time>2022-09-13T14:58:03Z</time>
      </trkpt>
      <trkpt lat="47.87547" lon="6.77349">
        <ele>502.3</ele>
        <time>2022-09-13T14:58:04Z</time>
      </trkpt>
      <trkpt lat="47.87547" lon="6.77342">
        <ele>502.3</ele>
        <time>2022-09-13T14:58:05Z</time>
      </trkpt>
      <trkpt lat="47.87546" lon="6.77336">
        <ele>502.3</ele>
        <time>2022-09-13T14:58:06Z</time>
      </trkpt>
      <trkpt lat="47.87546" lon="6.77329">
        <ele>502.4</ele>
        <time>2022-09-13T14:58:07Z</time>
      </trkpt>
      <trkpt lat="47.87546" lon="6.77323">
        <ele>502.6</ele>
        <time>2022-09-13T14:58:08Z</time>
      </trkpt>
      <trkpt lat="47.87545" lon="6.77316">
        <ele>502.8</ele>
        <time>2022-09-13T14:58:09Z</time>
      </trkpt>
      <trkpt lat="47.87545" lon="6.7731">
        <ele>502.9</ele>
        <time>2022-09-13T14:58:10Z</time>
      </trkpt>
      <trkpt lat="47.87544" lon="6.77303">
        <ele>502.9</ele>
        <time>2022-09-13T14:58:11Z</time>
      </trkpt>
      <trkpt lat="47.87544" lon="6.77297">
        <ele>502.8</ele>
        <time>2022-09-13T14:58:12Z</time>
      </trkpt>
      <trkpt lat="47.87544" lon="6.7729">
        <ele>502.7</ele>
        <time>2022-09-13T14:58:13Z</time>
      </trkpt>
      <trkpt lat="47.87543" lon="6.77284">
        <ele>502.6</ele>
        <time>2022-09-13T14:58:14Z</time>
      </trkpt>
      <trkpt lat="47.87543" lon="6.77277">
        <ele>502.4</ele>
        <time>2022-09-13T14:58:15Z</time>
      </trkpt>
      <trkpt lat="47.87543" lon="6.77271">
        <ele>502.3</ele>
        <time>2022-09-13T14:58:16Z</time>
      </trkpt>
      <trkpt lat="47.87542" lon="6.77265">
        <ele>502.3</ele>
        <time>2022-09-13T14:58:17Z</time>
      </trkpt>
      <trkpt lat="47.87542" lon="6.77259">
        <ele>502.2</ele>
        <time>2022-09-13T14:58:18Z</time>
      </trkpt>
      <trkpt lat="47.87541" lon="6.77252">
        <ele>502</ele>
        <time>2022-09-13T14:58:19Z</time>
      </trkpt>
      <trkpt lat="47.87541" lon="6.77246">
        <ele>502</ele>
        <time>2022-09-13T14:58:20Z</time>
      </trkpt>
      <trkpt lat="47.87541" lon="6.7724">
        <ele>502</ele>
        <time>2022-09-13T14:58:21Z</time>
      </trkpt>
      <trkpt lat="47.8754" lon="6.77234">
        <ele>502</ele>
        <time>2022-09-13T14:58:22Z</time>
      </trkpt>
      <trkpt lat="47.8754" lon="6.77227">
        <ele>502</ele>
        <time>2022-09-13T14:58:23Z</time>
      </trkpt>
      <trkpt lat="47.87539" lon="6.77221">
        <ele>502</ele>
        <time>2022-09-13T14:58:24Z</time>
      </trkpt>
      <trkpt lat="47.87539" lon="6.77214">
        <ele>501.9</ele>
        <time>2022-09-13T14:58:25Z</time>
      </trkpt>
      <trkpt lat="47.87539" lon="6.77208">
        <ele>501.8</ele>
        <time>2022-09-13T14:58:26Z</time>
      </trkpt>
      <trkpt lat="47.87538" lon="6.77201">
        <ele>501.7</ele>
        <time>2022-09-13T14:58:27Z</time>
      </trkpt>
      <trkpt lat="47.87538" lon="6.77195">
        <ele>501.6</ele>
        <time>2022-09-13T14:58:28Z</time>
      </trkpt>
      <trkpt lat="47.87538" lon="6.77189">
        <ele>501.4</ele>
        <time>2022-09-13T14:58:29Z</time>
      </trkpt>
      <trkpt lat="47.87537" lon="6.77182">
        <ele>501.2</ele>
        <time>2022-09-13T14:58:30Z</time>
      </trkpt>
      <trkpt lat="47.87537" lon="6.77175">
        <ele>501</ele>
        <time>2022-09-13T14:58:31Z</time>
      </trkpt>
      <trkpt lat="47.87536" lon="6.77169">
        <ele>500.8</ele>
        <time>2022-09-13T14:58:32Z</time>
      </trkpt>
      <trkpt lat="47.87536" lon="6.77162">
        <ele>500.5</ele>
        <time>2022-09-13T14:58:33Z</time>
      </trkpt>
      <trkpt lat="47.87536" lon="6.77155">
        <ele>500.3</ele>
        <time>2022-09-13T14:58:34Z</time>
      </trkpt>
      <trkpt lat="47.87535" lon="6.77149">
        <ele>500.1</ele>
        <time>2022-09-13T14:58:35Z</time>
      </trkpt>
      <trkpt lat="47.87535" lon="6.77142">
        <ele>499.9</ele>
        <time>2022-09-13T14:58:36Z</time>
      </trkpt>
      <trkpt lat="47.87534" lon="6.77136">
        <ele>499.7</ele>
        <time>2022-09-13T14:58:37Z</time>
      </trkpt>
      <trkpt lat="47.87534" lon="6.77129">
        <ele>499.5</ele>
        <time>2022-09-13T14:58:38Z</time>
      </trkpt>
      <trkpt lat="47.87533" lon="6.77123">
        <ele>499.3</ele>
        <time>2022-09-13T14:58:39Z</time>
      </trkpt>
      <trkpt lat="47.87533" lon="6.77116">
        <ele>499.1</ele>
        <time>2022-09-13T14:58:40Z</time>
      </trkpt>
      <trkpt lat="47.87533" lon="6.7711">
        <ele>499</ele>
        <time>2022-09-13T14:58:41Z</time>
      </trkpt>
      <trkpt lat="47.87532" lon="6.77103">
        <ele>499</ele>
        <time>2022-09-13T14:58:42Z</time>
      </trkpt>
      <trkpt lat="47.87532" lon="6.77096">
        <ele>498.9</ele>
        <time>2022-09-13T14:58:43Z</time>
      </trkpt>
      <trkpt lat="47.87531" lon="6.7709">
        <ele>498.9</ele>
        <time>2022-09-13T14:58:44Z</time>
      </trkpt>
      <trkpt lat="47.87531" lon="6.77083">
        <ele>498.9</ele>
        <time>2022-09-13T14:58:45Z</time>
      </trkpt>
      <trkpt lat="47.8753" lon="6.77077">
        <ele>498.7</ele>
        <time>2022-09-13T14:58:46Z</time>
      </trkpt>
      <trkpt lat="47.8753" lon="6.77071">
        <ele>498.5</ele>
        <time>2022-09-13T14:58:47Z</time>
      </trkpt>
      <trkpt lat="47.8753" lon="6.77064">
        <ele>498.3</ele>
        <time>2022-09-13T14:58:48Z</time>
      </trkpt>
      <trkpt lat="47.87529" lon="6.77058">
        <ele>498.1</ele>
        <time>2022-09-13T14:58:49Z</time>
      </trkpt>
      <trkpt lat="47.87529" lon="6.77051">
        <ele>498</ele>
        <time>2022-09-13T14:58:50Z</time>
      </trkpt>
      <trkpt lat="47.87528" lon="6.77045">
        <ele>498</ele>
        <time>2022-09-13T14:58:51Z</time>
      </trkpt>
      <trkpt lat="47.87528" lon="6.77038">
        <ele>498</ele>
        <time>2022-09-13T14:58:52Z</time>
      </trkpt>
      <trkpt lat="47.87527" lon="6.77032">
        <ele>498.1</ele>
        <time>2022-09-13T14:58:53Z</time>
      </trkpt>
      <trkpt lat="47.87527" lon="6.77026">
        <ele>498.1</ele>
        <time>2022-09-13T14:58:54Z</time>
      </trkpt>
      <trkpt lat="47.87526" lon="6.77019">
        <ele>498.1</ele>
        <time>2022-09-13T14:58:55Z</time>
      </trkpt>
      <trkpt lat="47.87526" lon="6.77013">
        <ele>498.1</ele>
        <time>2022-09-13T14:58:56Z</time>
      </trkpt>
      <trkpt lat="47.87526" lon="6.77007">
        <ele>498.1</ele>
        <time>2022-09-13T14:58:57Z</time>
      </trkpt>
      <trkpt lat="47.87525" lon="6.77001">
        <ele>498.1</ele>
        <time>2022-09-13T14:58:58Z</time>
      </trkpt>
      <trkpt lat="47.87525" lon="6.76994">
        <ele>498.1</ele>
        <time>2022-09-13T14:58:59Z</time>
      </trkpt>
      <trkpt lat="47.87525" lon="6.76988">
        <ele>498.1</ele>
        <time>2022-09-13T14:59:00Z</time>
      </trkpt>
      <trkpt lat="47.87525" lon="6.76983">
        <ele>498.1</ele>
        <time>2022-09-13T14:59:01Z</time>
      </trkpt>
      <trkpt lat="47.87524" lon="6.76977">
        <ele>498.1</ele>
        <time>2022-09-13T14:59:02Z</time>
      </trkpt>
      <trkpt lat="47.87524" lon="6.76972">
        <ele>498.1</ele>
        <time>2022-09-13T14:59:03Z</time>
      </trkpt>
      <trkpt lat="47.87524" lon="6.76968">
        <ele>498.1</ele>
        <time>2022-09-13T14:59:04Z</time>
      </trkpt>
      <trkpt lat="47.87525" lon="6.76964">
        <ele>498.1</ele>
        <time>2022-09-13T14:59:05Z</time>
      </trkpt>
      <trkpt lat="47.87525" lon="6.7696">
        <ele>498.1</ele>
        <time>2022-09-13T14:59:06Z</time>
      </trkpt>
      <trkpt lat="47.87526" lon="6.76958">
        <ele>498</ele>
        <time>2022-09-13T14:59:07Z</time>
      </trkpt>
      <trkpt lat="47.87527" lon="6.76955">
        <ele>498</ele>
        <time>2022-09-13T14:59:08Z</time>
      </trkpt>
      <trkpt lat="47.87528" lon="6.76952">
        <ele>498</ele>
        <time>2022-09-13T14:59:09Z</time>
      </trkpt>
      <trkpt lat="47.87529" lon="6.76949">
        <ele>498</ele>
        <time>2022-09-13T14:59:10Z</time>
      </trkpt>
      <trkpt lat="47.8753" lon="6.76946">
        <ele>497.9</ele>
        <time>2022-09-13T14:59:11Z</time>
      </trkpt>
      <trkpt lat="47.87531" lon="6.76942">
        <ele>497.8</ele>
        <time>2022-09-13T14:59:12Z</time>
      </trkpt>
      <trkpt lat="47.87532" lon="6.76935">
        <ele>497.6</ele>
        <time>2022-09-13T14:59:13Z</time>
      </trkpt>
      <trkpt lat="47.87533" lon="6.7693">
        <ele>497.4</ele>
        <time>2022-09-13T14:59:14Z</time>
      </trkpt>
      <trkpt lat="47.87534" lon="6.76925">
        <ele>497.2</ele>
        <time>2022-09-13T14:59:15Z</time>
      </trkpt>
      <trkpt lat="47.87535" lon="6.7692">
        <ele>497.1</ele>
        <time>2022-09-13T14:59:16Z</time>
      </trkpt>
      <trkpt lat="47.87536" lon="6.76915">
        <ele>497</ele>
        <time>2022-09-13T14:59:17Z</time>
      </trkpt>
      <trkpt lat="47.87537" lon="6.76909">
        <ele>496.9</ele>
        <time>2022-09-13T14:59:18Z</time>
      </trkpt>
      <trkpt lat="47.87538" lon="6.76904">
        <ele>496.8</ele>
        <time>2022-09-13T14:59:19Z</time>
      </trkpt>
      <trkpt lat="47.87539" lon="6.76899">
        <ele>496.7</ele>
        <time>2022-09-13T14:59:20Z</time>
      </trkpt>
      <trkpt lat="47.8754" lon="6.76893">
        <ele>496.6</ele>
        <time>2022-09-13T14:59:21Z</time>
      </trkpt>
      <trkpt lat="47.87542" lon="6.76888">
        <ele>496.5</ele>
        <time>2022-09-13T14:59:22Z</time>
      </trkpt>
      <trkpt lat="47.87543" lon="6.76882">
        <ele>496.5</ele>
        <time>2022-09-13T14:59:23Z</time>
      </trkpt>
      <trkpt lat="47.87543" lon="6.76877">
        <ele>496.5</ele>
        <time>2022-09-13T14:59:24Z</time>
      </trkpt>
      <trkpt lat="47.87544" lon="6.76871">
        <ele>496.4</ele>
        <time>2022-09-13T14:59:25Z</time>
      </trkpt>
      <trkpt lat="47.87545" lon="6.76865">
        <ele>496.4</ele>
        <time>2022-09-13T14:59:26Z</time>
      </trkpt>
      <trkpt lat="47.87546" lon="6.7686">
        <ele>496.3</ele>
        <time>2022-09-13T14:59:27Z</time>
      </trkpt>
      <trkpt lat="47.87547" lon="6.76855">
        <ele>496.1</ele>
        <time>2022-09-13T14:59:28Z</time>
      </trkpt>
      <trkpt lat="47.87547" lon="6.7685">
        <ele>495.9</ele>
        <time>2022-09-13T14:59:29Z</time>
      </trkpt>
      <trkpt lat="47.87547" lon="6.76846">
        <ele>495.8</ele>
        <time>2022-09-13T14:59:30Z</time>
      </trkpt>
      <trkpt lat="47.87548" lon="6.76843">
        <ele>495.6</ele>
        <time>2022-09-13T14:59:31Z</time>
      </trkpt>
      <trkpt lat="47.87548" lon="6.76841">
        <ele>495.5</ele>
        <time>2022-09-13T14:59:32Z</time>
      </trkpt>
      <trkpt lat="47.87548" lon="6.76839">
        <ele>495.5</ele>
        <time>2022-09-13T14:59:33Z</time>
      </trkpt>
      <trkpt lat="47.87549" lon="6.76837">
        <ele>495.4</ele>
        <time>2022-09-13T14:59:34Z</time>
      </trkpt>
      <trkpt lat="47.87549" lon="6.76835">
        <ele>495.3</ele>
        <time>2022-09-13T14:59:35Z</time>
      </trkpt>
      <trkpt lat="47.8755" lon="6.76835">
        <ele>495.3</ele>
        <time>2022-09-13T14:59:52Z</time>
      </trkpt>
      <trkpt lat="47.8755" lon="6.76834">
        <ele>495.2</ele>
        <time>2022-09-13T14:59:53Z</time>
      </trkpt>
      <trkpt lat="47.87551" lon="6.76833">
        <ele>495.1</ele>
        <time>2022-09-13T14:59:54Z</time>
      </trkpt>
      <trkpt lat="47.87552" lon="6.76832">
        <ele>495</ele>
        <time>2022-09-13T14:59:56Z</time>
      </trkpt>
      <trkpt lat="47.87553" lon="6.76832">
        <ele>495</ele>
        <time>2022-09-13T14:59:58Z</time>
      </trkpt>
      <trkpt lat="47.87554" lon="6.76831">
        <ele>494.9</ele>
        <time>2022-09-13T14:59:59Z</time>
      </trkpt>
      <trkpt lat="47.87556" lon="6.76831">
        <ele>494.8</ele>
        <time>2022-09-13T15:00:00Z</time>
      </trkpt>
    </trkseg>
  </trk>
</gpx>